<?xml version='1.0' encoding='UTF-8'?><gpx version="1.1" creator="JPX - https://github.com/jenetics/jpx" xmlns="http://www.topografix.com/GPX/1/1"><trk><trkseg><trkpt lat="42.966655" lon="11.9952217"><ele>466.00000000000006</ele><time>2026-04-30T10:05:29.676Z</time></trkpt><trkpt lat="42.966625" lon="11.9953083"><ele>466.0</ele><time>2026-04-30T10:05:43.988Z</time></trkpt><trkpt lat="42.9665417" lon="11.995325"><ele>466.0</ele><time>2026-04-30T10:05:45.988Z</time></trkpt><trkpt lat="42.9664467" lon="11.9953917"><ele>466.0</ele><time>2026-04-30T10:05:47.989Z</time></trkpt><trkpt lat="42.9663967" lon="11.9954467"><ele>466.00000000000006</ele><time>2026-04-30T10:05:48.988Z</time></trkpt><trkpt lat="42.9663483" lon="11.9955067"><ele>466.0</ele><time>2026-04-30T10:05:49.988Z</time></trkpt><trkpt lat="42.966255" lon="11.9955983"><ele>466.00000000000006</ele><time>2026-04-30T10:05:51.988Z</time></trkpt><trkpt lat="42.9661583" lon="11.9956667"><ele>466.0</ele><time>2026-04-30T10:05:53.988Z</time></trkpt><trkpt lat="42.9660683" lon="11.995725"><ele>466.0</ele><time>2026-04-30T10:05:55.988Z</time></trkpt><trkpt lat="42.9659933" lon="11.9957183"><ele>466.0</ele><time>2026-04-30T10:05:57.988Z</time></trkpt><trkpt lat="42.96596" lon="11.9956333"><ele>466.00000000000006</ele><time>2026-04-30T10:05:59.988Z</time></trkpt><trkpt lat="42.965915" lon="11.9955217"><ele>466.0</ele><time>2026-04-30T10:06:01.988Z</time></trkpt><trkpt lat="42.9658483" lon="11.9954117"><ele>465.83333333333337</ele><time>2026-04-30T10:06:03.988Z</time></trkpt><trkpt lat="42.9657717" lon="11.9953317"><ele>465.6666666666667</ele><time>2026-04-30T10:06:05.989Z</time></trkpt><trkpt lat="42.9657" lon="11.9952783"><ele>465.5</ele><time>2026-04-30T10:06:08.988Z</time></trkpt><trkpt lat="42.9656083" lon="11.995335"><ele>465.33333333333337</ele><time>2026-04-30T10:06:29.988Z</time></trkpt><trkpt lat="42.9655717" lon="11.99541"><ele>465.1666666666667</ele><time>2026-04-30T10:06:30.988Z</time></trkpt><trkpt lat="42.9655317" lon="11.9955017"><ele>465.0</ele><time>2026-04-30T10:06:31.988Z</time></trkpt><trkpt lat="42.9654883" lon="11.9955983"><ele>465.0</ele><time>2026-04-30T10:06:32.989Z</time></trkpt><trkpt lat="42.96545" lon="11.995705"><ele>465.0</ele><time>2026-04-30T10:06:33.988Z</time></trkpt><trkpt lat="42.965405" lon="11.995835"><ele>465.0</ele><time>2026-04-30T10:06:34.988Z</time></trkpt><trkpt lat="42.9653533" lon="11.9959683"><ele>465.0</ele><time>2026-04-30T10:06:35.989Z</time></trkpt><trkpt lat="42.9652967" lon="11.996105"><ele>465.0</ele><time>2026-04-30T10:06:36.988Z</time></trkpt><trkpt lat="42.9652433" lon="11.9962433"><ele>467.5</ele><time>2026-04-30T10:06:37.988Z</time></trkpt><trkpt lat="42.9651917" lon="11.996385"><ele>470.0</ele><time>2026-04-30T10:06:38.989Z</time></trkpt><trkpt lat="42.9651333" lon="11.9965283"><ele>472.5</ele><time>2026-04-30T10:06:39.988Z</time></trkpt><trkpt lat="42.965075" lon="11.9966683"><ele>475.0</ele><time>2026-04-30T10:06:40.988Z</time></trkpt><trkpt lat="42.9650267" lon="11.9968017"><ele>475.0</ele><time>2026-04-30T10:06:41.988Z</time></trkpt><trkpt lat="42.96495" lon="11.9969283"><ele>475.0</ele><time>2026-04-30T10:06:42.988Z</time></trkpt><trkpt lat="42.9648733" lon="11.9970333"><ele>475.0</ele><time>2026-04-30T10:06:43.989Z</time></trkpt><trkpt lat="42.96474" lon="11.9970667"><ele>475.0</ele><time>2026-04-30T10:06:44.988Z</time></trkpt><trkpt lat="42.96464" lon="11.9970567"><ele>475.0</ele><time>2026-04-30T10:06:45.988Z</time></trkpt><trkpt lat="42.9645417" lon="11.9969967"><ele>475.0</ele><time>2026-04-30T10:06:46.988Z</time></trkpt><trkpt lat="42.964465" lon="11.996855"><ele>475.0</ele><time>2026-04-30T10:06:47.988Z</time></trkpt><trkpt lat="42.9643967" lon="11.996725"><ele>475.0</ele><time>2026-04-30T10:06:48.989Z</time></trkpt><trkpt lat="42.9643317" lon="11.996595"><ele>474.5</ele><time>2026-04-30T10:06:49.989Z</time></trkpt><trkpt lat="42.964265" lon="11.99645"><ele>474.0</ele><time>2026-04-30T10:06:50.988Z</time></trkpt><trkpt lat="42.964195" lon="11.9963167"><ele>473.5</ele><time>2026-04-30T10:06:51.989Z</time></trkpt><trkpt lat="42.9641267" lon="11.99618"><ele>473.0</ele><time>2026-04-30T10:06:52.989Z</time></trkpt><trkpt lat="42.9640333" lon="11.9960683"><ele>473.0</ele><time>2026-04-30T10:06:53.989Z</time></trkpt><trkpt lat="42.9639417" lon="11.9959717"><ele>473.0</ele><time>2026-04-30T10:06:54.988Z</time></trkpt><trkpt lat="42.9638517" lon="11.9958783"><ele>473.0</ele><time>2026-04-30T10:06:55.988Z</time></trkpt><trkpt lat="42.9637417" lon="11.9958067"><ele>473.0</ele><time>2026-04-30T10:06:56.988Z</time></trkpt><trkpt lat="42.9636167" lon="11.9957683"><ele>470.75</ele><time>2026-04-30T10:06:57.988Z</time></trkpt><trkpt lat="42.9634867" lon="11.99578"><ele>468.5</ele><time>2026-04-30T10:06:58.988Z</time></trkpt><trkpt lat="42.9633683" lon="11.995815"><ele>466.25</ele><time>2026-04-30T10:06:59.989Z</time></trkpt><trkpt lat="42.96325" lon="11.9958683"><ele>464.0</ele><time>2026-04-30T10:07:00.988Z</time></trkpt><trkpt lat="42.9631267" lon="11.9959267"><ele>469.25</ele><time>2026-04-30T10:07:01.988Z</time></trkpt><trkpt lat="42.9630067" lon="11.99596"><ele>474.5</ele><time>2026-04-30T10:07:02.988Z</time></trkpt><trkpt lat="42.9628867" lon="11.9959833"><ele>479.75</ele><time>2026-04-30T10:07:03.988Z</time></trkpt><trkpt lat="42.962765" lon="11.9959817"><ele>485.0</ele><time>2026-04-30T10:07:04.988Z</time></trkpt><trkpt lat="42.9626483" lon="11.9959667"><ele>485.0</ele><time>2026-04-30T10:07:05.988Z</time></trkpt><trkpt lat="42.9625417" lon="11.995955"><ele>485.0</ele><time>2026-04-30T10:07:06.988Z</time></trkpt><trkpt lat="42.9624333" lon="11.995945"><ele>485.0</ele><time>2026-04-30T10:07:07.988Z</time></trkpt><trkpt lat="42.962335" lon="11.9959667"><ele>485.0</ele><time>2026-04-30T10:07:08.988Z</time></trkpt><trkpt lat="42.9622383" lon="11.9960083"><ele>485.0</ele><time>2026-04-30T10:07:09.989Z</time></trkpt><trkpt lat="42.9621617" lon="11.99606"><ele>484.8333333333333</ele><time>2026-04-30T10:07:10.988Z</time></trkpt><trkpt lat="42.9621167" lon="11.9961217"><ele>484.66666666666663</ele><time>2026-04-30T10:07:11.988Z</time></trkpt><trkpt lat="42.96205" lon="11.9962583"><ele>484.5</ele><time>2026-04-30T10:07:13.988Z</time></trkpt><trkpt lat="42.9620017" lon="11.9963333"><ele>484.33333333333337</ele><time>2026-04-30T10:07:14.988Z</time></trkpt><trkpt lat="42.96196" lon="11.996405"><ele>484.1666666666667</ele><time>2026-04-30T10:07:15.989Z</time></trkpt><trkpt lat="42.9619133" lon="11.996475"><ele>484.0</ele><time>2026-04-30T10:07:16.989Z</time></trkpt><trkpt lat="42.9618017" lon="11.99664"><ele>483.50000000000006</ele><time>2026-04-30T10:07:18.988Z</time></trkpt><trkpt lat="42.9617383" lon="11.9967233"><ele>483.0</ele><time>2026-04-30T10:07:19.988Z</time></trkpt><trkpt lat="42.9616783" lon="11.9968033"><ele>482.5</ele><time>2026-04-30T10:07:20.988Z</time></trkpt><trkpt lat="42.961635" lon="11.9968817"><ele>482.0</ele><time>2026-04-30T10:07:21.989Z</time></trkpt><trkpt lat="42.961585" lon="11.99696"><ele>481.50000000000006</ele><time>2026-04-30T10:07:22.988Z</time></trkpt><trkpt lat="42.9615383" lon="11.9970517"><ele>481.0</ele><time>2026-04-30T10:07:23.988Z</time></trkpt><trkpt lat="42.9614883" lon="11.9971433"><ele>481.0</ele><time>2026-04-30T10:07:24.988Z</time></trkpt><trkpt lat="42.9614233" lon="11.9972317"><ele>481.0</ele><time>2026-04-30T10:07:25.988Z</time></trkpt><trkpt lat="42.9613583" lon="11.9973267"><ele>481.0</ele><time>2026-04-30T10:07:26.989Z</time></trkpt><trkpt lat="42.9612967" lon="11.9974217"><ele>481.0</ele><time>2026-04-30T10:07:27.989Z</time></trkpt><trkpt lat="42.9612383" lon="11.997525"><ele>481.0</ele><time>2026-04-30T10:07:28.988Z</time></trkpt><trkpt lat="42.9611767" lon="11.9976283"><ele>480.20000000000005</ele><time>2026-04-30T10:07:29.988Z</time></trkpt><trkpt lat="42.9611167" lon="11.99774"><ele>479.40000000000003</ele><time>2026-04-30T10:07:30.988Z</time></trkpt><trkpt lat="42.96106" lon="11.9978467"><ele>478.6</ele><time>2026-04-30T10:07:31.988Z</time></trkpt><trkpt lat="42.9610033" lon="11.9979483"><ele>477.8</ele><time>2026-04-30T10:07:32.988Z</time></trkpt><trkpt lat="42.96095" lon="11.9980467"><ele>477.0</ele><time>2026-04-30T10:07:33.988Z</time></trkpt><trkpt lat="42.9608983" lon="11.9981283"><ele>478.1666666666667</ele><time>2026-04-30T10:07:34.988Z</time></trkpt><trkpt lat="42.9608617" lon="11.9982033"><ele>479.33333333333337</ele><time>2026-04-30T10:07:35.989Z</time></trkpt><trkpt lat="42.9607883" lon="11.9983217"><ele>480.5</ele><time>2026-04-30T10:07:37.988Z</time></trkpt><trkpt lat="42.9607517" lon="11.998395"><ele>481.6666666666667</ele><time>2026-04-30T10:07:38.988Z</time></trkpt><trkpt lat="42.96071" lon="11.9984683"><ele>482.83333333333337</ele><time>2026-04-30T10:07:39.988Z</time></trkpt><trkpt lat="42.96067" lon="11.9985567"><ele>484.0</ele><time>2026-04-30T10:07:40.988Z</time></trkpt><trkpt lat="42.9606183" lon="11.99865"><ele>484.0</ele><time>2026-04-30T10:07:41.989Z</time></trkpt><trkpt lat="42.9605667" lon="11.9987483"><ele>484.0</ele><time>2026-04-30T10:07:42.988Z</time></trkpt><trkpt lat="42.9604983" lon="11.9988533"><ele>484.0</ele><time>2026-04-30T10:07:43.989Z</time></trkpt><trkpt lat="42.9604267" lon="11.9989683"><ele>484.0</ele><time>2026-04-30T10:07:44.989Z</time></trkpt><trkpt lat="42.9603567" lon="11.99907"><ele>484.0</ele><time>2026-04-30T10:07:45.988Z</time></trkpt><trkpt lat="42.96028" lon="11.9991783"><ele>485.25</ele><time>2026-04-30T10:07:46.989Z</time></trkpt><trkpt lat="42.96021" lon="11.9993033"><ele>486.5</ele><time>2026-04-30T10:07:47.988Z</time></trkpt><trkpt lat="42.9601367" lon="11.9994183"><ele>487.75</ele><time>2026-04-30T10:07:48.989Z</time></trkpt><trkpt lat="42.9600567" lon="11.99954"><ele>489.0</ele><time>2026-04-30T10:07:49.988Z</time></trkpt><trkpt lat="42.9599817" lon="11.99967"><ele>489.25</ele><time>2026-04-30T10:07:50.989Z</time></trkpt><trkpt lat="42.959905" lon="11.9997817"><ele>489.5</ele><time>2026-04-30T10:07:51.989Z</time></trkpt><trkpt lat="42.9598233" lon="11.9998983"><ele>489.75</ele><time>2026-04-30T10:07:52.989Z</time></trkpt><trkpt lat="42.9597433" lon="12.000015"><ele>490.0</ele><time>2026-04-30T10:07:53.988Z</time></trkpt><trkpt lat="42.9596633" lon="12.0001183"><ele>490.0</ele><time>2026-04-30T10:07:54.988Z</time></trkpt><trkpt lat="42.9595817" lon="12.0002217"><ele>490.0</ele><time>2026-04-30T10:07:55.988Z</time></trkpt><trkpt lat="42.9595033" lon="12.0003217"><ele>490.0</ele><time>2026-04-30T10:07:56.988Z</time></trkpt><trkpt lat="42.95941" lon="12.0004117"><ele>490.0</ele><time>2026-04-30T10:07:57.988Z</time></trkpt><trkpt lat="42.959325" lon="12.00052"><ele>490.0</ele><time>2026-04-30T10:07:58.989Z</time></trkpt><trkpt lat="42.9592317" lon="12.00062"><ele>490.25</ele><time>2026-04-30T10:07:59.988Z</time></trkpt><trkpt lat="42.9591283" lon="12.0007167"><ele>490.5</ele><time>2026-04-30T10:08:00.988Z</time></trkpt><trkpt lat="42.9590133" lon="12.0008167"><ele>490.75</ele><time>2026-04-30T10:08:01.988Z</time></trkpt><trkpt lat="42.9588967" lon="12.000905"><ele>491.0</ele><time>2026-04-30T10:08:02.988Z</time></trkpt><trkpt lat="42.958765" lon="12.000965"><ele>489.0</ele><time>2026-04-30T10:08:03.988Z</time></trkpt><trkpt lat="42.9586333" lon="12.0010183"><ele>487.0</ele><time>2026-04-30T10:08:04.989Z</time></trkpt><trkpt lat="42.9584983" lon="12.0010467"><ele>485.0</ele><time>2026-04-30T10:08:05.988Z</time></trkpt><trkpt lat="42.9583733" lon="12.0010917"><ele>483.0</ele><time>2026-04-30T10:08:06.989Z</time></trkpt><trkpt lat="42.9582717" lon="12.0011117"><ele>483.0</ele><time>2026-04-30T10:08:07.989Z</time></trkpt><trkpt lat="42.9581767" lon="12.0011233"><ele>483.0</ele><time>2026-04-30T10:08:08.989Z</time></trkpt><trkpt lat="42.9580817" lon="12.0011417"><ele>483.0</ele><time>2026-04-30T10:08:09.989Z</time></trkpt><trkpt lat="42.9579933" lon="12.00116"><ele>483.0</ele><time>2026-04-30T10:08:10.988Z</time></trkpt><trkpt lat="42.95792" lon="12.001175"><ele>483.0</ele><time>2026-04-30T10:08:11.988Z</time></trkpt><trkpt lat="42.9578367" lon="12.00119"><ele>483.0</ele><time>2026-04-30T10:08:12.988Z</time></trkpt><trkpt lat="42.9577567" lon="12.0012217"><ele>483.0</ele><time>2026-04-30T10:08:13.989Z</time></trkpt><trkpt lat="42.95768" lon="12.001265"><ele>483.0</ele><time>2026-04-30T10:08:14.988Z</time></trkpt><trkpt lat="42.9575983" lon="12.00132"><ele>483.0</ele><time>2026-04-30T10:08:15.988Z</time></trkpt><trkpt lat="42.9575183" lon="12.0013883"><ele>483.0</ele><time>2026-04-30T10:08:16.989Z</time></trkpt><trkpt lat="42.95745" lon="12.001445"><ele>483.0</ele><time>2026-04-30T10:08:17.989Z</time></trkpt><trkpt lat="42.957385" lon="12.0014917"><ele>483.0</ele><time>2026-04-30T10:08:18.988Z</time></trkpt><trkpt lat="42.9573117" lon="12.00155"><ele>482.6666666666667</ele><time>2026-04-30T10:08:19.988Z</time></trkpt><trkpt lat="42.957245" lon="12.0016117"><ele>482.33333333333337</ele><time>2026-04-30T10:08:20.988Z</time></trkpt><trkpt lat="42.95719" lon="12.0016733"><ele>482.0</ele><time>2026-04-30T10:08:21.988Z</time></trkpt><trkpt lat="42.9571383" lon="12.001735"><ele>481.6666666666667</ele><time>2026-04-30T10:08:22.989Z</time></trkpt><trkpt lat="42.9570517" lon="12.0018483"><ele>481.33333333333337</ele><time>2026-04-30T10:08:24.988Z</time></trkpt><trkpt lat="42.9569733" lon="12.001945"><ele>481.0</ele><time>2026-04-30T10:08:26.988Z</time></trkpt><trkpt lat="42.956885" lon="12.0020283"><ele>481.0</ele><time>2026-04-30T10:08:28.988Z</time></trkpt><trkpt lat="42.9567783" lon="12.0020833"><ele>481.0</ele><time>2026-04-30T10:08:30.989Z</time></trkpt><trkpt lat="42.956715" lon="12.0020917"><ele>481.0</ele><time>2026-04-30T10:08:31.988Z</time></trkpt><trkpt lat="42.956615" lon="12.0021567"><ele>481.0</ele><time>2026-04-30T10:08:33.989Z</time></trkpt><trkpt lat="42.9565633" lon="12.00233"><ele>481.0</ele><time>2026-04-30T10:08:35.988Z</time></trkpt><trkpt lat="42.9565367" lon="12.0024483"><ele>482.50000000000006</ele><time>2026-04-30T10:08:36.988Z</time></trkpt><trkpt lat="42.9565017" lon="12.0025567"><ele>484.0</ele><time>2026-04-30T10:08:37.988Z</time></trkpt><trkpt lat="42.9564617" lon="12.0026567"><ele>485.5</ele><time>2026-04-30T10:08:38.988Z</time></trkpt><trkpt lat="42.9564167" lon="12.0027383"><ele>487.0</ele><time>2026-04-30T10:08:39.988Z</time></trkpt><trkpt lat="42.9563483" lon="12.0028533"><ele>488.50000000000006</ele><time>2026-04-30T10:08:41.988Z</time></trkpt><trkpt lat="42.956295" lon="12.002905"><ele>490.0</ele><time>2026-04-30T10:08:42.988Z</time></trkpt><trkpt lat="42.9562" lon="12.0029967"><ele>490.0</ele><time>2026-04-30T10:08:44.988Z</time></trkpt><trkpt lat="42.9561" lon="12.0030767"><ele>490.0</ele><time>2026-04-30T10:08:46.989Z</time></trkpt><trkpt lat="42.955995" lon="12.0031367"><ele>490.0</ele><time>2026-04-30T10:08:48.988Z</time></trkpt><trkpt lat="42.9559267" lon="12.00318"><ele>490.0</ele><time>2026-04-30T10:08:50.988Z</time></trkpt><trkpt lat="42.9558433" lon="12.00323"><ele>490.0</ele><time>2026-04-30T10:08:52.988Z</time></trkpt><trkpt lat="42.9557733" lon="12.003275"><ele>491.1666666666667</ele><time>2026-04-30T10:08:53.988Z</time></trkpt><trkpt lat="42.9556967" lon="12.003325"><ele>492.33333333333337</ele><time>2026-04-30T10:08:54.988Z</time></trkpt><trkpt lat="42.9556233" lon="12.0033733"><ele>493.5</ele><time>2026-04-30T10:08:55.989Z</time></trkpt><trkpt lat="42.9555533" lon="12.0034367"><ele>494.66666666666663</ele><time>2026-04-30T10:08:56.988Z</time></trkpt><trkpt lat="42.9554733" lon="12.003495"><ele>495.8333333333333</ele><time>2026-04-30T10:08:57.988Z</time></trkpt><trkpt lat="42.9553967" lon="12.00355"><ele>497.0</ele><time>2026-04-30T10:08:58.989Z</time></trkpt><trkpt lat="42.95532" lon="12.0035917"><ele>496.99999999999994</ele><time>2026-04-30T10:08:59.988Z</time></trkpt><trkpt lat="42.9552517" lon="12.0036417"><ele>497.0</ele><time>2026-04-30T10:09:00.988Z</time></trkpt><trkpt lat="42.9551883" lon="12.00369"><ele>497.0</ele><time>2026-04-30T10:09:01.989Z</time></trkpt><trkpt lat="42.9550967" lon="12.003745"><ele>497.0</ele><time>2026-04-30T10:09:03.988Z</time></trkpt><trkpt lat="42.95499" lon="12.003795"><ele>496.99999999999994</ele><time>2026-04-30T10:09:06.988Z</time></trkpt><trkpt lat="42.95492" lon="12.0038167"><ele>497.0</ele><time>2026-04-30T10:09:07.988Z</time></trkpt><trkpt lat="42.954845" lon="12.0038417"><ele>496.7142857142857</ele><time>2026-04-30T10:09:08.988Z</time></trkpt><trkpt lat="42.954765" lon="12.0038667"><ele>496.42857142857144</ele><time>2026-04-30T10:09:09.989Z</time></trkpt><trkpt lat="42.9546867" lon="12.0039"><ele>496.1428571428571</ele><time>2026-04-30T10:09:10.988Z</time></trkpt><trkpt lat="42.9546167" lon="12.0039383"><ele>495.85714285714283</ele><time>2026-04-30T10:09:11.988Z</time></trkpt><trkpt lat="42.9545583" lon="12.003975"><ele>495.57142857142856</ele><time>2026-04-30T10:09:12.989Z</time></trkpt><trkpt lat="42.9544933" lon="12.0039867"><ele>495.2857142857142</ele><time>2026-04-30T10:09:14.989Z</time></trkpt><trkpt lat="42.9544233" lon="12.0039883"><ele>494.99999999999994</ele><time>2026-04-30T10:09:16.988Z</time></trkpt><trkpt lat="42.9543033" lon="12.0039817"><ele>494.99999999999994</ele><time>2026-04-30T10:09:18.988Z</time></trkpt><trkpt lat="42.95423" lon="12.0039917"><ele>495.0</ele><time>2026-04-30T10:09:19.989Z</time></trkpt><trkpt lat="42.95416" lon="12.0039917"><ele>494.99999999999994</ele><time>2026-04-30T10:09:20.988Z</time></trkpt><trkpt lat="42.9540933" lon="12.0040067"><ele>494.99999999999994</ele><time>2026-04-30T10:09:21.989Z</time></trkpt><trkpt lat="42.9540283" lon="12.0040233"><ele>495.0</ele><time>2026-04-30T10:09:22.988Z</time></trkpt><trkpt lat="42.9539633" lon="12.004015"><ele>494.99999999999994</ele><time>2026-04-30T10:09:23.988Z</time></trkpt><trkpt lat="42.9538683" lon="12.00399"><ele>494.99999999999994</ele><time>2026-04-30T10:09:25.988Z</time></trkpt><trkpt lat="42.9538067" lon="12.0039683"><ele>494.99999999999994</ele><time>2026-04-30T10:09:27.988Z</time></trkpt><trkpt lat="42.9537233" lon="12.00396"><ele>495.0</ele><time>2026-04-30T10:09:30.989Z</time></trkpt><trkpt lat="42.9536567" lon="12.00394"><ele>494.99999999999994</ele><time>2026-04-30T10:09:34.988Z</time></trkpt><trkpt lat="42.9535967" lon="12.0039083"><ele>494.99999999999994</ele><time>2026-04-30T10:09:39.989Z</time></trkpt><trkpt lat="42.9535317" lon="12.00388"><ele>495.0</ele><time>2026-04-30T10:09:42.988Z</time></trkpt><trkpt lat="42.9534533" lon="12.0038567"><ele>494.99999999999994</ele><time>2026-04-30T10:09:47.988Z</time></trkpt><trkpt lat="42.9533817" lon="12.0038717"><ele>494.99999999999994</ele><time>2026-04-30T10:09:50.989Z</time></trkpt><trkpt lat="42.9533117" lon="12.0038633"><ele>496.1666666666667</ele><time>2026-04-30T10:09:54.989Z</time></trkpt><trkpt lat="42.9532383" lon="12.0038567"><ele>497.33333333333337</ele><time>2026-04-30T10:09:59.988Z</time></trkpt><trkpt lat="42.9531583" lon="12.0038917"><ele>498.5</ele><time>2026-04-30T10:10:02.988Z</time></trkpt><trkpt lat="42.9530867" lon="12.0039083"><ele>499.6666666666667</ele><time>2026-04-30T10:10:05.988Z</time></trkpt><trkpt lat="42.9530067" lon="12.003915"><ele>500.83333333333337</ele><time>2026-04-30T10:10:10.989Z</time></trkpt><trkpt lat="42.95293" lon="12.0039083"><ele>502.0</ele><time>2026-04-30T10:10:13.988Z</time></trkpt><trkpt lat="42.9528483" lon="12.0039267"><ele>502.00000000000006</ele><time>2026-04-30T10:10:15.988Z</time></trkpt><trkpt lat="42.9527667" lon="12.0039767"><ele>502.0</ele><time>2026-04-30T10:10:18.989Z</time></trkpt><trkpt lat="42.9526983" lon="12.0039533"><ele>502.0</ele><time>2026-04-30T10:10:20.988Z</time></trkpt><trkpt lat="42.9525733" lon="12.0039167"><ele>502.0</ele><time>2026-04-30T10:10:22.989Z</time></trkpt><trkpt lat="42.9525" lon="12.0039117"><ele>502.00000000000006</ele><time>2026-04-30T10:10:23.988Z</time></trkpt><trkpt lat="42.9524233" lon="12.0039133"><ele>502.0</ele><time>2026-04-30T10:10:24.988Z</time></trkpt><trkpt lat="42.9523483" lon="12.0039167"><ele>503.50000000000006</ele><time>2026-04-30T10:10:25.988Z</time></trkpt><trkpt lat="42.952235" lon="12.003915"><ele>505.0</ele><time>2026-04-30T10:10:27.989Z</time></trkpt><trkpt lat="42.9521567" lon="12.00392"><ele>506.5</ele><time>2026-04-30T10:10:29.988Z</time></trkpt><trkpt lat="42.9521617" lon="12.004015"><ele>508.0</ele><time>2026-04-30T10:10:31.988Z</time></trkpt><trkpt lat="42.9521633" lon="12.0041417"><ele>509.50000000000006</ele><time>2026-04-30T10:10:33.989Z</time></trkpt><trkpt lat="42.952185" lon="12.0042317"><ele>511.0</ele><time>2026-04-30T10:10:34.988Z</time></trkpt><trkpt lat="42.9522117" lon="12.004375"><ele>511.5</ele><time>2026-04-30T10:10:35.988Z</time></trkpt><trkpt lat="42.9522517" lon="12.0045433"><ele>512.0</ele><time>2026-04-30T10:10:36.988Z</time></trkpt><trkpt lat="42.9522767" lon="12.004705"><ele>512.5</ele><time>2026-04-30T10:10:37.989Z</time></trkpt><trkpt lat="42.95232" lon="12.0048583"><ele>513.0</ele><time>2026-04-30T10:10:38.988Z</time></trkpt><trkpt lat="42.9523767" lon="12.0049883"><ele>512.6666666666666</ele><time>2026-04-30T10:10:39.989Z</time></trkpt><trkpt lat="42.9523867" lon="12.0051517"><ele>512.3333333333334</ele><time>2026-04-30T10:10:41.988Z</time></trkpt><trkpt lat="42.9523217" lon="12.0052633"><ele>512.0</ele><time>2026-04-30T10:10:43.988Z</time></trkpt><trkpt lat="42.9522517" lon="12.005285"><ele>511.6666666666667</ele><time>2026-04-30T10:10:46.988Z</time></trkpt><trkpt lat="42.9521917" lon="12.005245"><ele>511.33333333333337</ele><time>2026-04-30T10:11:04.989Z</time></trkpt><trkpt lat="42.95211" lon="12.00525"><ele>511.0</ele><time>2026-04-30T10:11:07.989Z</time></trkpt><trkpt lat="42.9520317" lon="12.0052333"><ele>511.00000000000006</ele><time>2026-04-30T10:11:10.989Z</time></trkpt><trkpt lat="42.9519583" lon="12.00523"><ele>511.0</ele><time>2026-04-30T10:11:13.989Z</time></trkpt><trkpt lat="42.9518867" lon="12.0051583"><ele>511.0</ele><time>2026-04-30T10:11:16.989Z</time></trkpt><trkpt lat="42.9517983" lon="12.005085"><ele>511.0</ele><time>2026-04-30T10:11:18.988Z</time></trkpt><trkpt lat="42.951725" lon="12.0050383"><ele>511.00000000000006</ele><time>2026-04-30T10:11:19.988Z</time></trkpt><trkpt lat="42.9516383" lon="12.00497"><ele>511.0</ele><time>2026-04-30T10:11:20.988Z</time></trkpt><trkpt lat="42.9515067" lon="12.004805"><ele>507.6666666666667</ele><time>2026-04-30T10:11:21.988Z</time></trkpt><trkpt lat="42.9513183" lon="12.0046167"><ele>504.33333333333337</ele><time>2026-04-30T10:11:22.988Z</time></trkpt><trkpt lat="42.951155" lon="12.00446"><ele>501.0</ele><time>2026-04-30T10:11:23.989Z</time></trkpt><trkpt lat="42.951035" lon="12.004345"><ele>501.0</ele><time>2026-04-30T10:11:24.989Z</time></trkpt><trkpt lat="42.950945" lon="12.0042833"><ele>501.0</ele><time>2026-04-30T10:11:25.988Z</time></trkpt><trkpt lat="42.9508783" lon="12.00422"><ele>501.0</ele><time>2026-04-30T10:11:27.988Z</time></trkpt><trkpt lat="42.9507283" lon="12.0042267"><ele>501.0</ele><time>2026-04-30T10:11:38.988Z</time></trkpt><trkpt lat="42.9506083" lon="12.0042717"><ele>498.75</ele><time>2026-04-30T10:11:39.988Z</time></trkpt><trkpt lat="42.9504667" lon="12.00434"><ele>496.5</ele><time>2026-04-30T10:11:40.988Z</time></trkpt><trkpt lat="42.9503333" lon="12.0044217"><ele>494.25</ele><time>2026-04-30T10:11:41.988Z</time></trkpt><trkpt lat="42.95022" lon="12.0044783"><ele>492.0</ele><time>2026-04-30T10:11:42.988Z</time></trkpt><trkpt lat="42.950115" lon="12.0045417"><ele>491.0</ele><time>2026-04-30T10:11:43.988Z</time></trkpt><trkpt lat="42.9500083" lon="12.0046083"><ele>490.0</ele><time>2026-04-30T10:11:44.989Z</time></trkpt><trkpt lat="42.9498967" lon="12.00467"><ele>489.0</ele><time>2026-04-30T10:11:45.989Z</time></trkpt><trkpt lat="42.949785" lon="12.0047417"><ele>488.0</ele><time>2026-04-30T10:11:46.988Z</time></trkpt><trkpt lat="42.9496767" lon="12.00481"><ele>487.99999999999994</ele><time>2026-04-30T10:11:47.989Z</time></trkpt><trkpt lat="42.9495783" lon="12.00484"><ele>488.0</ele><time>2026-04-30T10:11:48.988Z</time></trkpt><trkpt lat="42.9494867" lon="12.0048317"><ele>488.0</ele><time>2026-04-30T10:11:49.989Z</time></trkpt><trkpt lat="42.949405" lon="12.0047883"><ele>488.0</ele><time>2026-04-30T10:11:50.988Z</time></trkpt><trkpt lat="42.94937" lon="12.00469"><ele>487.99999999999994</ele><time>2026-04-30T10:11:51.989Z</time></trkpt><trkpt lat="42.9493683" lon="12.0045833"><ele>488.0</ele><time>2026-04-30T10:11:52.988Z</time></trkpt><trkpt lat="42.949425" lon="12.0044717"><ele>488.0</ele><time>2026-04-30T10:11:53.988Z</time></trkpt><trkpt lat="42.94952" lon="12.0043667"><ele>488.0</ele><time>2026-04-30T10:11:54.988Z</time></trkpt><trkpt lat="42.9496517" lon="12.0042617"><ele>488.0</ele><time>2026-04-30T10:11:55.988Z</time></trkpt><trkpt lat="42.9498117" lon="12.00412"><ele>485.3333333333333</ele><time>2026-04-30T10:11:56.989Z</time></trkpt><trkpt lat="42.9499633" lon="12.0039867"><ele>482.66666666666663</ele><time>2026-04-30T10:11:57.989Z</time></trkpt><trkpt lat="42.9501367" lon="12.003845"><ele>480.0</ele><time>2026-04-30T10:11:58.988Z</time></trkpt><trkpt lat="42.9503183" lon="12.0037217"><ele>480.0</ele><time>2026-04-30T10:11:59.988Z</time></trkpt><trkpt lat="42.950485" lon="12.0036033"><ele>480.0</ele><time>2026-04-30T10:12:00.989Z</time></trkpt><trkpt lat="42.9506383" lon="12.003505"><ele>480.0</ele><time>2026-04-30T10:12:01.989Z</time></trkpt><trkpt lat="42.950785" lon="12.0034283"><ele>484.25</ele><time>2026-04-30T10:12:02.988Z</time></trkpt><trkpt lat="42.950915" lon="12.0033517"><ele>488.5</ele><time>2026-04-30T10:12:03.989Z</time></trkpt><trkpt lat="42.9510083" lon="12.003245"><ele>492.75</ele><time>2026-04-30T10:12:04.988Z</time></trkpt><trkpt lat="42.95111" lon="12.00312"><ele>497.0</ele><time>2026-04-30T10:12:05.989Z</time></trkpt><trkpt lat="42.9511683" lon="12.0029617"><ele>497.0</ele><time>2026-04-30T10:12:06.989Z</time></trkpt><trkpt lat="42.951205" lon="12.002765"><ele>497.0</ele><time>2026-04-30T10:12:07.988Z</time></trkpt><trkpt lat="42.9511917" lon="12.002565"><ele>497.0</ele><time>2026-04-30T10:12:08.988Z</time></trkpt><trkpt lat="42.9511583" lon="12.0023683"><ele>497.0</ele><time>2026-04-30T10:12:09.988Z</time></trkpt><trkpt lat="42.9510933" lon="12.0021667"><ele>497.3333333333333</ele><time>2026-04-30T10:12:10.988Z</time></trkpt><trkpt lat="42.9510067" lon="12.0019583"><ele>497.66666666666663</ele><time>2026-04-30T10:12:11.989Z</time></trkpt><trkpt lat="42.9509317" lon="12.00177"><ele>498.0</ele><time>2026-04-30T10:12:12.989Z</time></trkpt><trkpt lat="42.9508533" lon="12.0015817"><ele>489.66666666666663</ele><time>2026-04-30T10:12:13.988Z</time></trkpt><trkpt lat="42.950775" lon="12.0014"><ele>481.3333333333333</ele><time>2026-04-30T10:12:14.988Z</time></trkpt><trkpt lat="42.950695" lon="12.0012167"><ele>473.0</ele><time>2026-04-30T10:12:15.988Z</time></trkpt><trkpt lat="42.9505983" lon="12.00107"><ele>473.0</ele><time>2026-04-30T10:12:16.988Z</time></trkpt><trkpt lat="42.9504983" lon="12.0009383"><ele>473.0</ele><time>2026-04-30T10:12:17.988Z</time></trkpt><trkpt lat="42.9503967" lon="12.00081"><ele>473.0</ele><time>2026-04-30T10:12:18.988Z</time></trkpt><trkpt lat="42.9502933" lon="12.0006967"><ele>473.0</ele><time>2026-04-30T10:12:19.988Z</time></trkpt><trkpt lat="42.9502083" lon="12.0006017"><ele>469.79999999999995</ele><time>2026-04-30T10:12:20.988Z</time></trkpt><trkpt lat="42.9501483" lon="12.0005217"><ele>466.59999999999997</ele><time>2026-04-30T10:12:21.988Z</time></trkpt><trkpt lat="42.950125" lon="12.0004117"><ele>463.40000000000003</ele><time>2026-04-30T10:12:22.988Z</time></trkpt><trkpt lat="42.9501383" lon="12.000295"><ele>460.20000000000005</ele><time>2026-04-30T10:12:23.989Z</time></trkpt><trkpt lat="42.9502083" lon="12.0001933"><ele>457.0</ele><time>2026-04-30T10:12:24.988Z</time></trkpt><trkpt lat="42.9503083" lon="12.0001283"><ele>457.0</ele><time>2026-04-30T10:12:25.987Z</time></trkpt><trkpt lat="42.9504217" lon="12.0000667"><ele>457.0</ele><time>2026-04-30T10:12:26.987Z</time></trkpt><trkpt lat="42.9505383" lon="11.9999983"><ele>457.0</ele><time>2026-04-30T10:12:27.987Z</time></trkpt><trkpt lat="42.9506583" lon="11.999925"><ele>457.0</ele><time>2026-04-30T10:12:28.988Z</time></trkpt><trkpt lat="42.9507733" lon="11.99984"><ele>457.0</ele><time>2026-04-30T10:12:29.987Z</time></trkpt><trkpt lat="42.9508717" lon="11.99976"><ele>457.00000000000006</ele><time>2026-04-30T10:12:30.987Z</time></trkpt><trkpt lat="42.9509667" lon="11.999695"><ele>457.00000000000006</ele><time>2026-04-30T10:12:31.987Z</time></trkpt><trkpt lat="42.9510683" lon="11.99966"><ele>457.0</ele><time>2026-04-30T10:12:32.988Z</time></trkpt><trkpt lat="42.9511683" lon="11.9996467"><ele>457.0</ele><time>2026-04-30T10:12:33.987Z</time></trkpt><trkpt lat="42.9512417" lon="11.9996067"><ele>456.50000000000006</ele><time>2026-04-30T10:12:34.987Z</time></trkpt><trkpt lat="42.9512817" lon="11.9995317"><ele>456.0</ele><time>2026-04-30T10:12:35.987Z</time></trkpt><trkpt lat="42.95128" lon="11.9994267"><ele>455.5</ele><time>2026-04-30T10:12:36.987Z</time></trkpt><trkpt lat="42.9512183" lon="11.9993467"><ele>455.0</ele><time>2026-04-30T10:12:37.988Z</time></trkpt><trkpt lat="42.9511283" lon="11.9993233"><ele>454.50000000000006</ele><time>2026-04-30T10:12:38.987Z</time></trkpt><trkpt lat="42.951025" lon="11.9993417"><ele>454.0</ele><time>2026-04-30T10:12:39.987Z</time></trkpt><trkpt lat="42.9509233" lon="11.9993983"><ele>454.75</ele><time>2026-04-30T10:12:40.988Z</time></trkpt><trkpt lat="42.9508167" lon="11.999465"><ele>455.5</ele><time>2026-04-30T10:12:41.987Z</time></trkpt><trkpt lat="42.9506967" lon="11.9995333"><ele>456.25</ele><time>2026-04-30T10:12:42.988Z</time></trkpt><trkpt lat="42.950565" lon="11.9995967"><ele>457.0</ele><time>2026-04-30T10:12:43.987Z</time></trkpt><trkpt lat="42.9504267" lon="11.9996433"><ele>457.0</ele><time>2026-04-30T10:12:44.987Z</time></trkpt><trkpt lat="42.9502833" lon="11.999685"><ele>457.0</ele><time>2026-04-30T10:12:45.987Z</time></trkpt><trkpt lat="42.950135" lon="11.9996983"><ele>457.0</ele><time>2026-04-30T10:12:46.987Z</time></trkpt><trkpt lat="42.9499817" lon="11.9996867"><ele>457.0</ele><time>2026-04-30T10:12:47.987Z</time></trkpt><trkpt lat="42.9498233" lon="11.9996583"><ele>454.5</ele><time>2026-04-30T10:12:48.988Z</time></trkpt><trkpt lat="42.9496767" lon="11.999625"><ele>452.0</ele><time>2026-04-30T10:12:49.987Z</time></trkpt><trkpt lat="42.9495367" lon="11.99961"><ele>449.5</ele><time>2026-04-30T10:12:50.988Z</time></trkpt><trkpt lat="42.9494" lon="11.9996267"><ele>447.0</ele><time>2026-04-30T10:12:51.987Z</time></trkpt><trkpt lat="42.9492717" lon="11.9996817"><ele>444.6</ele><time>2026-04-30T10:12:52.987Z</time></trkpt><trkpt lat="42.9491633" lon="11.9997617"><ele>442.20000000000005</ele><time>2026-04-30T10:12:53.987Z</time></trkpt><trkpt lat="42.94908" lon="11.9998583"><ele>439.8</ele><time>2026-04-30T10:12:54.987Z</time></trkpt><trkpt lat="42.9490117" lon="11.99995"><ele>437.4</ele><time>2026-04-30T10:12:55.987Z</time></trkpt><trkpt lat="42.9489417" lon="12.0000117"><ele>435.0</ele><time>2026-04-30T10:12:56.987Z</time></trkpt><trkpt lat="42.94887" lon="12.0000267"><ele>435.0</ele><time>2026-04-30T10:12:57.987Z</time></trkpt><trkpt lat="42.9488067" lon="11.9999917"><ele>435.0</ele><time>2026-04-30T10:12:58.988Z</time></trkpt><trkpt lat="42.9487633" lon="11.9999167"><ele>435.0</ele><time>2026-04-30T10:12:59.987Z</time></trkpt><trkpt lat="42.9487817" lon="11.99982"><ele>435.0</ele><time>2026-04-30T10:13:00.988Z</time></trkpt><trkpt lat="42.9488383" lon="11.999735"><ele>435.0</ele><time>2026-04-30T10:13:01.988Z</time></trkpt><trkpt lat="42.9489117" lon="11.9996633"><ele>435.0</ele><time>2026-04-30T10:13:02.987Z</time></trkpt><trkpt lat="42.9489917" lon="11.999585"><ele>435.0</ele><time>2026-04-30T10:13:03.988Z</time></trkpt><trkpt lat="42.9490583" lon="11.9994817"><ele>435.0</ele><time>2026-04-30T10:13:04.987Z</time></trkpt><trkpt lat="42.9491117" lon="11.99936"><ele>435.0</ele><time>2026-04-30T10:13:05.987Z</time></trkpt><trkpt lat="42.9491367" lon="11.9991983"><ele>435.0</ele><time>2026-04-30T10:13:06.987Z</time></trkpt><trkpt lat="42.9491317" lon="11.9990367"><ele>435.0</ele><time>2026-04-30T10:13:07.987Z</time></trkpt><trkpt lat="42.9490983" lon="11.9988667"><ele>433.0</ele><time>2026-04-30T10:13:08.987Z</time></trkpt><trkpt lat="42.94904" lon="11.9987133"><ele>431.0</ele><time>2026-04-30T10:13:09.987Z</time></trkpt><trkpt lat="42.948955" lon="11.9985717"><ele>429.0</ele><time>2026-04-30T10:13:10.988Z</time></trkpt><trkpt lat="42.948855" lon="11.9984517"><ele>427.0</ele><time>2026-04-30T10:13:11.988Z</time></trkpt><trkpt lat="42.9487317" lon="11.9983717"><ele>426.5</ele><time>2026-04-30T10:13:12.987Z</time></trkpt><trkpt lat="42.948595" lon="11.99828"><ele>426.0</ele><time>2026-04-30T10:13:13.988Z</time></trkpt><trkpt lat="42.94847" lon="11.9981867"><ele>425.5</ele><time>2026-04-30T10:13:14.987Z</time></trkpt><trkpt lat="42.948345" lon="11.998075"><ele>425.0</ele><time>2026-04-30T10:13:15.987Z</time></trkpt><trkpt lat="42.9482267" lon="11.9979517"><ele>423.25</ele><time>2026-04-30T10:13:16.987Z</time></trkpt><trkpt lat="42.94812" lon="11.9978217"><ele>421.5</ele><time>2026-04-30T10:13:17.987Z</time></trkpt><trkpt lat="42.9480167" lon="11.9976833"><ele>419.75</ele><time>2026-04-30T10:13:18.987Z</time></trkpt><trkpt lat="42.9479283" lon="11.9975233"><ele>418.0</ele><time>2026-04-30T10:13:19.987Z</time></trkpt><trkpt lat="42.9478517" lon="11.9973417"><ele>417.6666666666667</ele><time>2026-04-30T10:13:20.987Z</time></trkpt><trkpt lat="42.9477867" lon="11.9971417"><ele>417.33333333333337</ele><time>2026-04-30T10:13:21.987Z</time></trkpt><trkpt lat="42.94774" lon="11.9968733"><ele>417.0</ele><time>2026-04-30T10:13:22.987Z</time></trkpt><trkpt lat="42.9477" lon="11.996565"><ele>411.0</ele><time>2026-04-30T10:13:23.988Z</time></trkpt><trkpt lat="42.9476683" lon="11.9962533"><ele>405.0</ele><time>2026-04-30T10:13:24.987Z</time></trkpt><trkpt lat="42.9476483" lon="11.9959367"><ele>404.33333333333337</ele><time>2026-04-30T10:13:25.987Z</time></trkpt><trkpt lat="42.947625" lon="11.9956233"><ele>403.6666666666667</ele><time>2026-04-30T10:13:26.987Z</time></trkpt><trkpt lat="42.9476" lon="11.99533"><ele>403.0</ele><time>2026-04-30T10:13:27.988Z</time></trkpt><trkpt lat="42.947575" lon="11.99505"><ele>403.6666666666667</ele><time>2026-04-30T10:13:28.987Z</time></trkpt><trkpt lat="42.94756" lon="11.9947817"><ele>404.33333333333337</ele><time>2026-04-30T10:13:29.987Z</time></trkpt><trkpt lat="42.947545" lon="11.9945267"><ele>405.0</ele><time>2026-04-30T10:13:30.987Z</time></trkpt><trkpt lat="42.94754" lon="11.9942833"><ele>407.66666666666663</ele><time>2026-04-30T10:13:31.987Z</time></trkpt><trkpt lat="42.9475217" lon="11.9940533"><ele>410.3333333333333</ele><time>2026-04-30T10:13:32.988Z</time></trkpt><trkpt lat="42.9474867" lon="11.9938167"><ele>413.0</ele><time>2026-04-30T10:13:33.987Z</time></trkpt><trkpt lat="42.9474383" lon="11.9935917"><ele>413.0</ele><time>2026-04-30T10:13:34.987Z</time></trkpt><trkpt lat="42.9473583" lon="11.9933783"><ele>413.0</ele><time>2026-04-30T10:13:35.987Z</time></trkpt><trkpt lat="42.9472583" lon="11.9931783"><ele>413.0</ele><time>2026-04-30T10:13:36.987Z</time></trkpt><trkpt lat="42.9471467" lon="11.9929833"><ele>409.3333333333333</ele><time>2026-04-30T10:13:37.988Z</time></trkpt><trkpt lat="42.9470267" lon="11.9927983"><ele>405.66666666666663</ele><time>2026-04-30T10:13:38.988Z</time></trkpt><trkpt lat="42.9469" lon="11.992655"><ele>402.0</ele><time>2026-04-30T10:13:39.987Z</time></trkpt><trkpt lat="42.946755" lon="11.99256"><ele>403.0</ele><time>2026-04-30T10:13:40.987Z</time></trkpt><trkpt lat="42.9465833" lon="11.992525"><ele>404.0</ele><time>2026-04-30T10:13:41.987Z</time></trkpt><trkpt lat="42.9463967" lon="11.992525"><ele>405.0</ele><time>2026-04-30T10:13:42.988Z</time></trkpt><trkpt lat="42.9462017" lon="11.9925217"><ele>405.0</ele><time>2026-04-30T10:13:43.988Z</time></trkpt><trkpt lat="42.9459983" lon="11.9925167"><ele>405.0</ele><time>2026-04-30T10:13:44.987Z</time></trkpt><trkpt lat="42.9457817" lon="11.9924917"><ele>405.0</ele><time>2026-04-30T10:13:45.987Z</time></trkpt><trkpt lat="42.94556" lon="11.99243"><ele>400.33333333333337</ele><time>2026-04-30T10:13:46.987Z</time></trkpt><trkpt lat="42.9453567" lon="11.9923567"><ele>395.6666666666667</ele><time>2026-04-30T10:13:47.988Z</time></trkpt><trkpt lat="42.9451467" lon="11.9922483"><ele>391.0</ele><time>2026-04-30T10:13:48.988Z</time></trkpt><trkpt lat="42.944945" lon="11.9921183"><ele>388.33333333333337</ele><time>2026-04-30T10:13:49.987Z</time></trkpt><trkpt lat="42.944755" lon="11.9919717"><ele>385.6666666666667</ele><time>2026-04-30T10:13:50.987Z</time></trkpt><trkpt lat="42.9445717" lon="11.9918567"><ele>383.0</ele><time>2026-04-30T10:13:51.988Z</time></trkpt><trkpt lat="42.9443983" lon="11.991785"><ele>383.0</ele><time>2026-04-30T10:13:52.987Z</time></trkpt><trkpt lat="42.9442483" lon="11.991725"><ele>383.0</ele><time>2026-04-30T10:13:53.987Z</time></trkpt><trkpt lat="42.9441183" lon="11.991665"><ele>383.0</ele><time>2026-04-30T10:13:54.987Z</time></trkpt><trkpt lat="42.944015" lon="11.9915967"><ele>383.0</ele><time>2026-04-30T10:13:55.988Z</time></trkpt><trkpt lat="42.9439517" lon="11.99147"><ele>382.25</ele><time>2026-04-30T10:13:56.987Z</time></trkpt><trkpt lat="42.9439367" lon="11.991325"><ele>381.5</ele><time>2026-04-30T10:13:57.987Z</time></trkpt><trkpt lat="42.943975" lon="11.9911817"><ele>380.75</ele><time>2026-04-30T10:13:58.988Z</time></trkpt><trkpt lat="42.9440633" lon="11.9910383"><ele>380.0</ele><time>2026-04-30T10:13:59.988Z</time></trkpt><trkpt lat="42.944175" lon="11.9909367"><ele>379.6666666666667</ele><time>2026-04-30T10:14:00.987Z</time></trkpt><trkpt lat="42.9442833" lon="11.9908683"><ele>379.33333333333337</ele><time>2026-04-30T10:14:01.988Z</time></trkpt><trkpt lat="42.9443517" lon="11.9907883"><ele>379.0</ele><time>2026-04-30T10:14:02.987Z</time></trkpt><trkpt lat="42.9443833" lon="11.990695"><ele>378.6666666666667</ele><time>2026-04-30T10:14:03.987Z</time></trkpt><trkpt lat="42.9443567" lon="11.9906067"><ele>378.3333333333333</ele><time>2026-04-30T10:14:04.987Z</time></trkpt><trkpt lat="42.9442917" lon="11.990555"><ele>378.0</ele><time>2026-04-30T10:14:05.987Z</time></trkpt><trkpt lat="42.9442" lon="11.9905633"><ele>377.5</ele><time>2026-04-30T10:14:06.988Z</time></trkpt><trkpt lat="42.9441" lon="11.9906517"><ele>377.0</ele><time>2026-04-30T10:14:07.987Z</time></trkpt><trkpt lat="42.9440017" lon="11.9907817"><ele>376.5</ele><time>2026-04-30T10:14:08.987Z</time></trkpt><trkpt lat="42.9438933" lon="11.9909283"><ele>376.0</ele><time>2026-04-30T10:14:09.987Z</time></trkpt><trkpt lat="42.9437717" lon="11.9910783"><ele>377.0</ele><time>2026-04-30T10:14:10.987Z</time></trkpt><trkpt lat="42.9436567" lon="11.9912367"><ele>378.0</ele><time>2026-04-30T10:14:11.988Z</time></trkpt><trkpt lat="42.9435717" lon="11.991405"><ele>379.0</ele><time>2026-04-30T10:14:12.987Z</time></trkpt><trkpt lat="42.943535" lon="11.9915783"><ele>380.0</ele><time>2026-04-30T10:14:13.987Z</time></trkpt><trkpt lat="42.9435267" lon="11.991735"><ele>378.33333333333337</ele><time>2026-04-30T10:14:14.987Z</time></trkpt><trkpt lat="42.9435183" lon="11.9918567"><ele>376.6666666666667</ele><time>2026-04-30T10:14:15.987Z</time></trkpt><trkpt lat="42.9434633" lon="11.9919283"><ele>375.0</ele><time>2026-04-30T10:14:16.987Z</time></trkpt><trkpt lat="42.943395" lon="11.99193"><ele>373.3333333333333</ele><time>2026-04-30T10:14:17.988Z</time></trkpt><trkpt lat="42.9433433" lon="11.9918583"><ele>371.66666666666663</ele><time>2026-04-30T10:14:18.988Z</time></trkpt><trkpt lat="42.94332" lon="11.9917383"><ele>370.0</ele><time>2026-04-30T10:14:19.987Z</time></trkpt><trkpt lat="42.943325" lon="11.9915917"><ele>368.5</ele><time>2026-04-30T10:14:20.987Z</time></trkpt><trkpt lat="42.94335" lon="11.9914"><ele>367.0</ele><time>2026-04-30T10:14:21.987Z</time></trkpt><trkpt lat="42.94337" lon="11.9912067"><ele>365.5</ele><time>2026-04-30T10:14:22.987Z</time></trkpt><trkpt lat="42.9433917" lon="11.9909917"><ele>364.0</ele><time>2026-04-30T10:14:23.987Z</time></trkpt><trkpt lat="42.9434017" lon="11.990755"><ele>362.3333333333333</ele><time>2026-04-30T10:14:24.987Z</time></trkpt><trkpt lat="42.94341" lon="11.9905"><ele>360.6666666666667</ele><time>2026-04-30T10:14:25.987Z</time></trkpt><trkpt lat="42.9434133" lon="11.9902333"><ele>359.0</ele><time>2026-04-30T10:14:26.987Z</time></trkpt><trkpt lat="42.94342" lon="11.9899483"><ele>359.0</ele><time>2026-04-30T10:14:27.988Z</time></trkpt><trkpt lat="42.9434183" lon="11.9896533"><ele>359.0</ele><time>2026-04-30T10:14:28.988Z</time></trkpt><trkpt lat="42.943415" lon="11.9893467"><ele>359.0</ele><time>2026-04-30T10:14:29.988Z</time></trkpt><trkpt lat="42.9434083" lon="11.98904"><ele>352.33333333333337</ele><time>2026-04-30T10:14:30.988Z</time></trkpt><trkpt lat="42.9434067" lon="11.9887467"><ele>345.6666666666667</ele><time>2026-04-30T10:14:31.987Z</time></trkpt><trkpt lat="42.9434133" lon="11.9884667"><ele>339.0</ele><time>2026-04-30T10:14:32.987Z</time></trkpt><trkpt lat="42.9434133" lon="11.9881983"><ele>338.3333333333333</ele><time>2026-04-30T10:14:33.987Z</time></trkpt><trkpt lat="42.9434067" lon="11.987925"><ele>337.66666666666663</ele><time>2026-04-30T10:14:34.987Z</time></trkpt><trkpt lat="42.94337" lon="11.9876583"><ele>337.0</ele><time>2026-04-30T10:14:35.987Z</time></trkpt><trkpt lat="42.9432883" lon="11.9874033"><ele>339.3333333333333</ele><time>2026-04-30T10:14:36.987Z</time></trkpt><trkpt lat="42.9431717" lon="11.9871583"><ele>341.6666666666667</ele><time>2026-04-30T10:14:37.988Z</time></trkpt><trkpt lat="42.9430517" lon="11.9869117"><ele>344.0</ele><time>2026-04-30T10:14:38.987Z</time></trkpt><trkpt lat="42.942945" lon="11.9866417"><ele>344.0</ele><time>2026-04-30T10:14:39.987Z</time></trkpt><trkpt lat="42.9428717" lon="11.986325"><ele>344.0</ele><time>2026-04-30T10:14:40.987Z</time></trkpt><trkpt lat="42.9427683" lon="11.9860517"><ele>341.6666666666667</ele><time>2026-04-30T10:14:41.987Z</time></trkpt><trkpt lat="42.9426733" lon="11.9857883"><ele>339.3333333333333</ele><time>2026-04-30T10:14:42.988Z</time></trkpt><trkpt lat="42.9425883" lon="11.9855183"><ele>337.0</ele><time>2026-04-30T10:14:43.988Z</time></trkpt><trkpt lat="42.9425067" lon="11.98526"><ele>337.0</ele><time>2026-04-30T10:14:44.987Z</time></trkpt><trkpt lat="42.9424317" lon="11.9850133"><ele>337.0</ele><time>2026-04-30T10:14:45.987Z</time></trkpt><trkpt lat="42.9423483" lon="11.9847817"><ele>337.0</ele><time>2026-04-30T10:14:46.987Z</time></trkpt><trkpt lat="42.9422433" lon="11.9845983"><ele>335.66666666666663</ele><time>2026-04-30T10:14:47.987Z</time></trkpt><trkpt lat="42.9421033" lon="11.98446"><ele>334.3333333333333</ele><time>2026-04-30T10:14:48.987Z</time></trkpt><trkpt lat="42.9419433" lon="11.9843517"><ele>333.0</ele><time>2026-04-30T10:14:49.987Z</time></trkpt><trkpt lat="42.9417733" lon="11.9842283"><ele>334.0</ele><time>2026-04-30T10:14:50.987Z</time></trkpt><trkpt lat="42.9416167" lon="11.9840917"><ele>335.0</ele><time>2026-04-30T10:14:51.988Z</time></trkpt><trkpt lat="42.9414767" lon="11.98393"><ele>336.0</ele><time>2026-04-30T10:14:52.987Z</time></trkpt><trkpt lat="42.9413383" lon="11.9837733"><ele>336.0</ele><time>2026-04-30T10:14:53.988Z</time></trkpt><trkpt lat="42.9412033" lon="11.9836283"><ele>336.0</ele><time>2026-04-30T10:14:54.987Z</time></trkpt><trkpt lat="42.9410583" lon="11.983535"><ele>336.0</ele><time>2026-04-30T10:14:55.987Z</time></trkpt><trkpt lat="42.9409033" lon="11.9835183"><ele>332.6666666666667</ele><time>2026-04-30T10:14:56.987Z</time></trkpt><trkpt lat="42.9407467" lon="11.983575"><ele>329.33333333333337</ele><time>2026-04-30T10:14:57.988Z</time></trkpt><trkpt lat="42.9405833" lon="11.983675"><ele>326.0</ele><time>2026-04-30T10:14:58.987Z</time></trkpt><trkpt lat="42.940405" lon="11.9837483"><ele>326.0</ele><time>2026-04-30T10:14:59.988Z</time></trkpt><trkpt lat="42.9402133" lon="11.98381"><ele>326.0</ele><time>2026-04-30T10:15:00.987Z</time></trkpt><trkpt lat="42.94002" lon="11.98386"><ele>326.0</ele><time>2026-04-30T10:15:01.987Z</time></trkpt><trkpt lat="42.9398167" lon="11.983915"><ele>322.6666666666667</ele><time>2026-04-30T10:15:02.987Z</time></trkpt><trkpt lat="42.939615" lon="11.983985"><ele>319.3333333333333</ele><time>2026-04-30T10:15:03.988Z</time></trkpt><trkpt lat="42.93942" lon="11.984045"><ele>316.0</ele><time>2026-04-30T10:15:04.987Z</time></trkpt><trkpt lat="42.9392283" lon="11.9840267"><ele>313.66666666666663</ele><time>2026-04-30T10:15:05.987Z</time></trkpt><trkpt lat="42.9390333" lon="11.9839883"><ele>311.3333333333333</ele><time>2026-04-30T10:15:06.987Z</time></trkpt><trkpt lat="42.9388383" lon="11.9839183"><ele>309.0</ele><time>2026-04-30T10:15:07.987Z</time></trkpt><trkpt lat="42.93864" lon="11.9838433"><ele>309.0</ele><time>2026-04-30T10:15:08.987Z</time></trkpt><trkpt lat="42.9384567" lon="11.9837683"><ele>309.0</ele><time>2026-04-30T10:15:09.987Z</time></trkpt><trkpt lat="42.9382967" lon="11.9837083"><ele>309.0</ele><time>2026-04-30T10:15:10.988Z</time></trkpt><trkpt lat="42.9381533" lon="11.9836233"><ele>308.5</ele><time>2026-04-30T10:15:11.987Z</time></trkpt><trkpt lat="42.9380533" lon="11.98351"><ele>308.0</ele><time>2026-04-30T10:15:12.988Z</time></trkpt><trkpt lat="42.9380217" lon="11.9833583"><ele>307.5</ele><time>2026-04-30T10:15:13.987Z</time></trkpt><trkpt lat="42.9380467" lon="11.9832167"><ele>307.0</ele><time>2026-04-30T10:15:14.987Z</time></trkpt><trkpt lat="42.9381133" lon="11.9830883"><ele>307.0</ele><time>2026-04-30T10:15:15.987Z</time></trkpt><trkpt lat="42.9381917" lon="11.98297"><ele>307.0</ele><time>2026-04-30T10:15:16.987Z</time></trkpt><trkpt lat="42.9382567" lon="11.9828317"><ele>307.0</ele><time>2026-04-30T10:15:17.988Z</time></trkpt><trkpt lat="42.9382617" lon="11.982665"><ele>307.0</ele><time>2026-04-30T10:15:18.987Z</time></trkpt><trkpt lat="42.9382167" lon="11.9825"><ele>308.0</ele><time>2026-04-30T10:15:19.987Z</time></trkpt><trkpt lat="42.9381217" lon="11.982365"><ele>309.0</ele><time>2026-04-30T10:15:20.987Z</time></trkpt><trkpt lat="42.9379783" lon="11.98225"><ele>310.0</ele><time>2026-04-30T10:15:21.988Z</time></trkpt><trkpt lat="42.9377983" lon="11.98214"><ele>310.0</ele><time>2026-04-30T10:15:22.987Z</time></trkpt><trkpt lat="42.937605" lon="11.9820217"><ele>310.0</ele><time>2026-04-30T10:15:23.987Z</time></trkpt><trkpt lat="42.93741" lon="11.98188"><ele>310.0</ele><time>2026-04-30T10:15:24.987Z</time></trkpt><trkpt lat="42.937215" lon="11.98172"><ele>306.0</ele><time>2026-04-30T10:15:25.987Z</time></trkpt><trkpt lat="42.937025" lon="11.9815533"><ele>302.0</ele><time>2026-04-30T10:15:26.987Z</time></trkpt><trkpt lat="42.9368383" lon="11.9813483"><ele>298.33333333333337</ele><time>2026-04-30T10:15:27.987Z</time></trkpt><trkpt lat="42.9366817" lon="11.9811183"><ele>294.6666666666667</ele><time>2026-04-30T10:15:28.988Z</time></trkpt><trkpt lat="42.936565" lon="11.9808667"><ele>291.0</ele><time>2026-04-30T10:15:29.988Z</time></trkpt><trkpt lat="42.93649" lon="11.9806083"><ele>291.0</ele><time>2026-04-30T10:15:30.987Z</time></trkpt><trkpt lat="42.936415" lon="11.9803633"><ele>291.0</ele><time>2026-04-30T10:15:31.987Z</time></trkpt><trkpt lat="42.9363517" lon="11.98012"><ele>291.0</ele><time>2026-04-30T10:15:32.987Z</time></trkpt><trkpt lat="42.9363017" lon="11.979875"><ele>290.6666666666667</ele><time>2026-04-30T10:15:33.987Z</time></trkpt><trkpt lat="42.9362767" lon="11.9796383"><ele>290.33333333333337</ele><time>2026-04-30T10:15:34.988Z</time></trkpt><trkpt lat="42.936295" lon="11.9794133"><ele>290.0</ele><time>2026-04-30T10:15:35.987Z</time></trkpt><trkpt lat="42.9363517" lon="11.9792083"><ele>291.0</ele><time>2026-04-30T10:15:36.987Z</time></trkpt><trkpt lat="42.9364617" lon="11.9790417"><ele>292.0</ele><time>2026-04-30T10:15:37.988Z</time></trkpt><trkpt lat="42.93659" lon="11.9789133"><ele>293.0</ele><time>2026-04-30T10:15:38.987Z</time></trkpt><trkpt lat="42.9367317" lon="11.9788217"><ele>293.0</ele><time>2026-04-30T10:15:39.987Z</time></trkpt><trkpt lat="42.9368567" lon="11.97871"><ele>293.0</ele><time>2026-04-30T10:15:40.987Z</time></trkpt><trkpt lat="42.9369417" lon="11.9785717"><ele>293.0</ele><time>2026-04-30T10:15:41.987Z</time></trkpt><trkpt lat="42.936985" lon="11.97838"><ele>293.0</ele><time>2026-04-30T10:15:42.987Z</time></trkpt><trkpt lat="42.9369833" lon="11.9781917"><ele>290.5</ele><time>2026-04-30T10:15:43.987Z</time></trkpt><trkpt lat="42.9369283" lon="11.9780367"><ele>288.0</ele><time>2026-04-30T10:15:44.987Z</time></trkpt><trkpt lat="42.9368317" lon="11.9779467"><ele>285.5</ele><time>2026-04-30T10:15:45.988Z</time></trkpt><trkpt lat="42.936705" lon="11.9779317"><ele>283.0</ele><time>2026-04-30T10:15:46.987Z</time></trkpt><trkpt lat="42.9365567" lon="11.977975"><ele>281.3333333333333</ele><time>2026-04-30T10:15:47.987Z</time></trkpt><trkpt lat="42.9364033" lon="11.9780367"><ele>279.6666666666667</ele><time>2026-04-30T10:15:48.987Z</time></trkpt><trkpt lat="42.9362333" lon="11.9781133"><ele>278.0</ele><time>2026-04-30T10:15:49.987Z</time></trkpt><trkpt lat="42.9360583" lon="11.97819"><ele>278.0</ele><time>2026-04-30T10:15:50.988Z</time></trkpt><trkpt lat="42.9358667" lon="11.9782583"><ele>278.0</ele><time>2026-04-30T10:15:51.987Z</time></trkpt><trkpt lat="42.93568" lon="11.9783267"><ele>278.0</ele><time>2026-04-30T10:15:52.987Z</time></trkpt><trkpt lat="42.93549" lon="11.97838"><ele>278.0</ele><time>2026-04-30T10:15:53.988Z</time></trkpt><trkpt lat="42.9353017" lon="11.9784117"><ele>278.0</ele><time>2026-04-30T10:15:54.987Z</time></trkpt><trkpt lat="42.935125" lon="11.978395"><ele>278.0</ele><time>2026-04-30T10:15:55.987Z</time></trkpt><trkpt lat="42.9349583" lon="11.97831"><ele>275.0</ele><time>2026-04-30T10:15:56.988Z</time></trkpt><trkpt lat="42.9348117" lon="11.9781567"><ele>272.0</ele><time>2026-04-30T10:15:57.987Z</time></trkpt><trkpt lat="42.934685" lon="11.9779967"><ele>269.0</ele><time>2026-04-30T10:15:58.987Z</time></trkpt><trkpt lat="42.934565" lon="11.9778167"><ele>269.0</ele><time>2026-04-30T10:15:59.987Z</time></trkpt><trkpt lat="42.934435" lon="11.9776033"><ele>269.0</ele><time>2026-04-30T10:16:00.987Z</time></trkpt><trkpt lat="42.9342967" lon="11.9773917"><ele>269.0</ele><time>2026-04-30T10:16:01.987Z</time></trkpt><trkpt lat="42.9341517" lon="11.9771717"><ele>269.33333333333337</ele><time>2026-04-30T10:16:02.987Z</time></trkpt><trkpt lat="42.9340117" lon="11.976945"><ele>269.6666666666667</ele><time>2026-04-30T10:16:03.988Z</time></trkpt><trkpt lat="42.9338667" lon="11.976735"><ele>270.0</ele><time>2026-04-30T10:16:04.987Z</time></trkpt><trkpt lat="42.9337183" lon="11.9765633"><ele>270.0</ele><time>2026-04-30T10:16:05.988Z</time></trkpt><trkpt lat="42.933545" lon="11.976425"><ele>270.0</ele><time>2026-04-30T10:16:06.987Z</time></trkpt><trkpt lat="42.93336" lon="11.9763067"><ele>270.0</ele><time>2026-04-30T10:16:07.988Z</time></trkpt><trkpt lat="42.9331733" lon="11.97623"><ele>264.3333333333333</ele><time>2026-04-30T10:16:08.987Z</time></trkpt><trkpt lat="42.9329817" lon="11.9761483"><ele>258.66666666666663</ele><time>2026-04-30T10:16:09.987Z</time></trkpt><trkpt lat="42.9327917" lon="11.9760783"><ele>253.0</ele><time>2026-04-30T10:16:10.987Z</time></trkpt><trkpt lat="42.932615" lon="11.975995"><ele>252.33333333333331</ele><time>2026-04-30T10:16:11.988Z</time></trkpt><trkpt lat="42.9324467" lon="11.9759117"><ele>251.66666666666669</ele><time>2026-04-30T10:16:12.987Z</time></trkpt><trkpt lat="42.9322933" lon="11.97579"><ele>251.0</ele><time>2026-04-30T10:16:13.987Z</time></trkpt><trkpt lat="42.9321583" lon="11.975645"><ele>251.0</ele><time>2026-04-30T10:16:14.987Z</time></trkpt><trkpt lat="42.932045" lon="11.9754967"><ele>251.0</ele><time>2026-04-30T10:16:15.988Z</time></trkpt><trkpt lat="42.9319283" lon="11.9753267"><ele>251.0</ele><time>2026-04-30T10:16:16.987Z</time></trkpt><trkpt lat="42.9318133" lon="11.9751217"><ele>250.66666666666669</ele><time>2026-04-30T10:16:17.987Z</time></trkpt><trkpt lat="42.931675" lon="11.9749117"><ele>250.33333333333331</ele><time>2026-04-30T10:16:18.987Z</time></trkpt><trkpt lat="42.9315283" lon="11.974695"><ele>250.0</ele><time>2026-04-30T10:16:19.987Z</time></trkpt><trkpt lat="42.931375" lon="11.9744667"><ele>250.0</ele><time>2026-04-30T10:16:20.987Z</time></trkpt><trkpt lat="42.9312183" lon="11.97424"><ele>250.0</ele><time>2026-04-30T10:16:21.988Z</time></trkpt><trkpt lat="42.9310683" lon="11.9739983"><ele>249.5</ele><time>2026-04-30T10:16:22.987Z</time></trkpt><trkpt lat="42.93094" lon="11.973735"><ele>249.0</ele><time>2026-04-30T10:16:23.987Z</time></trkpt><trkpt lat="42.9308383" lon="11.9734667"><ele>248.0</ele><time>2026-04-30T10:16:24.987Z</time></trkpt><trkpt lat="42.93078" lon="11.973195"><ele>247.0</ele><time>2026-04-30T10:16:25.988Z</time></trkpt><trkpt lat="42.9307533" lon="11.9729283"><ele>246.0</ele><time>2026-04-30T10:16:26.988Z</time></trkpt><trkpt lat="42.930755" lon="11.9726533"><ele>246.33333333333331</ele><time>2026-04-30T10:16:27.987Z</time></trkpt><trkpt lat="42.9307883" lon="11.972385"><ele>246.66666666666666</ele><time>2026-04-30T10:16:28.987Z</time></trkpt><trkpt lat="42.930855" lon="11.972115"><ele>247.0</ele><time>2026-04-30T10:16:29.988Z</time></trkpt><trkpt lat="42.9309517" lon="11.971865"><ele>246.66666666666666</ele><time>2026-04-30T10:16:30.987Z</time></trkpt><trkpt lat="42.9310767" lon="11.9716383"><ele>246.33333333333331</ele><time>2026-04-30T10:16:31.987Z</time></trkpt><trkpt lat="42.9312317" lon="11.9714333"><ele>246.0</ele><time>2026-04-30T10:16:32.987Z</time></trkpt><trkpt lat="42.9313967" lon="11.9712467"><ele>246.0</ele><time>2026-04-30T10:16:33.987Z</time></trkpt><trkpt lat="42.93156" lon="11.9710883"><ele>246.0</ele><time>2026-04-30T10:16:34.987Z</time></trkpt><trkpt lat="42.9316883" lon="11.970915"><ele>246.0</ele><time>2026-04-30T10:16:35.987Z</time></trkpt><trkpt lat="42.9317817" lon="11.9707183"><ele>245.33333333333331</ele><time>2026-04-30T10:16:36.987Z</time></trkpt><trkpt lat="42.931845" lon="11.9705133"><ele>244.66666666666666</ele><time>2026-04-30T10:16:37.988Z</time></trkpt><trkpt lat="42.9318667" lon="11.9702767"><ele>244.0</ele><time>2026-04-30T10:16:38.987Z</time></trkpt><trkpt lat="42.9318633" lon="11.97003"><ele>244.33333333333331</ele><time>2026-04-30T10:16:39.987Z</time></trkpt><trkpt lat="42.9318467" lon="11.9697633"><ele>244.66666666666669</ele><time>2026-04-30T10:16:40.987Z</time></trkpt><trkpt lat="42.9318183" lon="11.9694917"><ele>245.0</ele><time>2026-04-30T10:16:41.988Z</time></trkpt><trkpt lat="42.9318017" lon="11.9692"><ele>245.0</ele><time>2026-04-30T10:16:42.987Z</time></trkpt><trkpt lat="42.9317983" lon="11.9689333"><ele>245.0</ele><time>2026-04-30T10:16:43.987Z</time></trkpt><trkpt lat="42.9317917" lon="11.96868"><ele>245.0</ele><time>2026-04-30T10:16:44.988Z</time></trkpt><trkpt lat="42.9317883" lon="11.9684417"><ele>246.0</ele><time>2026-04-30T10:16:45.987Z</time></trkpt><trkpt lat="42.9317783" lon="11.968215"><ele>247.0</ele><time>2026-04-30T10:16:46.987Z</time></trkpt><trkpt lat="42.9317667" lon="11.9680017"><ele>248.0</ele><time>2026-04-30T10:16:47.988Z</time></trkpt><trkpt lat="42.931755" lon="11.967815"><ele>248.0</ele><time>2026-04-30T10:16:48.987Z</time></trkpt><trkpt lat="42.9317486" lon="11.9676522"><ele>248.0</ele><time>2026-04-30T10:16:49.987Z</time></trkpt><trkpt lat="42.9317415" lon="11.967525"><ele>248.0</ele><time>2026-04-30T10:16:50.988Z</time></trkpt><trkpt lat="42.9317741" lon="11.9673942"><ele>248.0</ele><time>2026-04-30T10:16:52.987Z</time></trkpt><trkpt lat="42.9318439" lon="11.9673941"><ele>248.0</ele><time>2026-04-30T10:16:54.987Z</time></trkpt><trkpt lat="42.9319324" lon="11.9674428"><ele>248.0</ele><time>2026-04-30T10:16:56.987Z</time></trkpt><trkpt lat="42.9320338" lon="11.9675244"><ele>248.0</ele><time>2026-04-30T10:16:58.987Z</time></trkpt><trkpt lat="42.932136" lon="11.9676322"><ele>248.0</ele><time>2026-04-30T10:17:00.987Z</time></trkpt><trkpt lat="42.9322344" lon="11.9676803"><ele>248.0</ele><time>2026-04-30T10:17:02.988Z</time></trkpt><trkpt lat="42.9321909" lon="11.9677866"><ele>248.0</ele><time>2026-04-30T10:18:18.988Z</time></trkpt><trkpt lat="42.9321593" lon="11.9678745"><ele>248.0</ele><time>2026-04-30T10:18:21.987Z</time></trkpt><trkpt lat="42.932238" lon="11.9679678"><ele>248.00000000000003</ele><time>2026-04-30T10:22:14.987Z</time></trkpt><trkpt lat="42.9322821" lon="11.9678882"><ele>248.0</ele><time>2026-04-30T10:22:17.987Z</time></trkpt><trkpt lat="42.9322647" lon="11.9677976"><ele>248.0</ele><time>2026-04-30T10:22:19.987Z</time></trkpt><trkpt lat="42.9322482" lon="11.9677054"><ele>248.00000000000003</ele><time>2026-04-30T10:22:21.987Z</time></trkpt><trkpt lat="42.932195" lon="11.9676467"><ele>248.0</ele><time>2026-04-30T10:22:59.987Z</time></trkpt><trkpt lat="42.9321367" lon="11.9676867"><ele>248.0</ele><time>2026-04-30T10:23:03.988Z</time></trkpt><trkpt lat="42.9320767" lon="11.967715"><ele>248.00000000000003</ele><time>2026-04-30T10:23:09.987Z</time></trkpt><trkpt lat="42.9319917" lon="11.96768"><ele>248.0</ele><time>2026-04-30T10:23:12.987Z</time></trkpt><trkpt lat="42.9319067" lon="11.9675867"><ele>248.0</ele><time>2026-04-30T10:23:14.987Z</time></trkpt><trkpt lat="42.931875" lon="11.9675017"><ele>248.0</ele><time>2026-04-30T10:23:15.987Z</time></trkpt><trkpt lat="42.9318383" lon="11.9673867"><ele>248.00000000000003</ele><time>2026-04-30T10:23:17.987Z</time></trkpt><trkpt lat="42.9317617" lon="11.9673633"><ele>248.0</ele><time>2026-04-30T10:23:20.987Z</time></trkpt><trkpt lat="42.9317233" lon="11.9674583"><ele>247.4</ele><time>2026-04-30T10:23:22.987Z</time></trkpt><trkpt lat="42.9317167" lon="11.967545"><ele>246.8</ele><time>2026-04-30T10:23:23.987Z</time></trkpt><trkpt lat="42.9317167" lon="11.9676583"><ele>246.2</ele><time>2026-04-30T10:23:24.987Z</time></trkpt><trkpt lat="42.9317067" lon="11.967795"><ele>245.6</ele><time>2026-04-30T10:23:25.988Z</time></trkpt><trkpt lat="42.9316567" lon="11.96794"><ele>245.0</ele><time>2026-04-30T10:23:26.987Z</time></trkpt><trkpt lat="42.93158" lon="11.968055"><ele>245.0</ele><time>2026-04-30T10:23:27.988Z</time></trkpt><trkpt lat="42.9314633" lon="11.9681383"><ele>245.0</ele><time>2026-04-30T10:23:28.987Z</time></trkpt><trkpt lat="42.9313117" lon="11.9682167"><ele>245.0</ele><time>2026-04-30T10:23:29.987Z</time></trkpt><trkpt lat="42.9311483" lon="11.9682983"><ele>244.66666666666669</ele><time>2026-04-30T10:23:30.987Z</time></trkpt><trkpt lat="42.9309767" lon="11.96838"><ele>244.33333333333331</ele><time>2026-04-30T10:23:31.987Z</time></trkpt><trkpt lat="42.9307883" lon="11.968455"><ele>244.0</ele><time>2026-04-30T10:23:32.987Z</time></trkpt><trkpt lat="42.9305882" lon="11.9685153"><ele>243.66666666666666</ele><time>2026-04-30T10:23:33.988Z</time></trkpt><trkpt lat="42.9303787" lon="11.9685429"><ele>243.33333333333331</ele><time>2026-04-30T10:23:34.987Z</time></trkpt><trkpt lat="42.9301532" lon="11.9685549"><ele>243.0</ele><time>2026-04-30T10:23:35.987Z</time></trkpt><trkpt lat="42.9299174" lon="11.9685622"><ele>243.0</ele><time>2026-04-30T10:23:36.987Z</time></trkpt><trkpt lat="42.9296728" lon="11.9685668"><ele>243.0</ele><time>2026-04-30T10:23:37.987Z</time></trkpt><trkpt lat="42.9294233" lon="11.9685728"><ele>243.0</ele><time>2026-04-30T10:23:38.987Z</time></trkpt><trkpt lat="42.9291717" lon="11.9685864"><ele>243.0</ele><time>2026-04-30T10:23:39.987Z</time></trkpt><trkpt lat="42.9289119" lon="11.9685973"><ele>243.0</ele><time>2026-04-30T10:23:40.987Z</time></trkpt><trkpt lat="42.9286479" lon="11.9686058"><ele>243.0</ele><time>2026-04-30T10:23:41.987Z</time></trkpt><trkpt lat="42.9283835" lon="11.9686084"><ele>243.5</ele><time>2026-04-30T10:23:42.987Z</time></trkpt><trkpt lat="42.9281134" lon="11.9686115"><ele>244.0</ele><time>2026-04-30T10:23:43.988Z</time></trkpt><trkpt lat="42.927843" lon="11.9686159"><ele>244.0</ele><time>2026-04-30T10:23:44.987Z</time></trkpt><trkpt lat="42.9275733" lon="11.9686173"><ele>244.0</ele><time>2026-04-30T10:23:45.988Z</time></trkpt><trkpt lat="42.9273077" lon="11.9686212"><ele>244.0</ele><time>2026-04-30T10:23:46.987Z</time></trkpt><trkpt lat="42.9270509" lon="11.9686189"><ele>244.0</ele><time>2026-04-30T10:23:47.987Z</time></trkpt><trkpt lat="42.9267953" lon="11.9686195"><ele>244.0</ele><time>2026-04-30T10:23:48.987Z</time></trkpt><trkpt lat="42.9265393" lon="11.9686428"><ele>244.0</ele><time>2026-04-30T10:23:49.987Z</time></trkpt><trkpt lat="42.9262838" lon="11.9686913"><ele>244.0</ele><time>2026-04-30T10:23:50.987Z</time></trkpt><trkpt lat="42.9260379" lon="11.9687609"><ele>244.0</ele><time>2026-04-30T10:23:51.988Z</time></trkpt><trkpt lat="42.9257975" lon="11.9688557"><ele>243.0</ele><time>2026-04-30T10:23:52.987Z</time></trkpt><trkpt lat="42.9255548" lon="11.9689775"><ele>242.0</ele><time>2026-04-30T10:23:53.987Z</time></trkpt><trkpt lat="42.9253084" lon="11.9691057"><ele>242.5</ele><time>2026-04-30T10:23:54.988Z</time></trkpt><trkpt lat="42.9250646" lon="11.9692392"><ele>243.0</ele><time>2026-04-30T10:23:55.987Z</time></trkpt><trkpt lat="42.9248217" lon="11.9693718"><ele>243.0</ele><time>2026-04-30T10:23:56.988Z</time></trkpt><trkpt lat="42.92457" lon="11.9694972"><ele>243.0</ele><time>2026-04-30T10:23:57.988Z</time></trkpt><trkpt lat="42.9243205" lon="11.9696224"><ele>242.5</ele><time>2026-04-30T10:23:58.987Z</time></trkpt><trkpt lat="42.9240702" lon="11.9697603"><ele>242.0</ele><time>2026-04-30T10:23:59.987Z</time></trkpt><trkpt lat="42.9238197" lon="11.969924"><ele>241.5</ele><time>2026-04-30T10:24:00.987Z</time></trkpt><trkpt lat="42.9235796" lon="11.9701172"><ele>241.0</ele><time>2026-04-30T10:24:01.987Z</time></trkpt><trkpt lat="42.9233507" lon="11.9703385"><ele>242.5</ele><time>2026-04-30T10:24:02.987Z</time></trkpt><trkpt lat="42.9231329" lon="11.9705762"><ele>244.0</ele><time>2026-04-30T10:24:03.988Z</time></trkpt><trkpt lat="42.9229286" lon="11.9708335"><ele>243.0</ele><time>2026-04-30T10:24:04.987Z</time></trkpt><trkpt lat="42.9227398" lon="11.9711135"><ele>242.0</ele><time>2026-04-30T10:24:05.987Z</time></trkpt><trkpt lat="42.9225666" lon="11.9714159"><ele>241.5</ele><time>2026-04-30T10:24:06.987Z</time></trkpt><trkpt lat="42.9223937" lon="11.9717126"><ele>241.0</ele><time>2026-04-30T10:24:07.987Z</time></trkpt><trkpt lat="42.922222" lon="11.9720078"><ele>241.0</ele><time>2026-04-30T10:24:08.988Z</time></trkpt><trkpt lat="42.9220482" lon="11.9722993"><ele>241.0</ele><time>2026-04-30T10:24:09.987Z</time></trkpt><trkpt lat="42.9218786" lon="11.9725901"><ele>241.5</ele><time>2026-04-30T10:24:10.987Z</time></trkpt><trkpt lat="42.9217032" lon="11.9728779"><ele>242.0</ele><time>2026-04-30T10:24:11.987Z</time></trkpt><trkpt lat="42.9215259" lon="11.9731635"><ele>242.0</ele><time>2026-04-30T10:24:12.987Z</time></trkpt><trkpt lat="42.9213479" lon="11.9734426"><ele>242.0</ele><time>2026-04-30T10:24:13.987Z</time></trkpt><trkpt lat="42.9211735" lon="11.9737267"><ele>242.0</ele><time>2026-04-30T10:24:14.987Z</time></trkpt><trkpt lat="42.921001" lon="11.9740114"><ele>242.0</ele><time>2026-04-30T10:24:15.987Z</time></trkpt><trkpt lat="42.9208324" lon="11.9742986"><ele>242.5</ele><time>2026-04-30T10:24:16.987Z</time></trkpt><trkpt lat="42.9206664" lon="11.9745879"><ele>243.0</ele><time>2026-04-30T10:24:17.987Z</time></trkpt><trkpt lat="42.9205081" lon="11.9748831"><ele>244.0</ele><time>2026-04-30T10:24:18.987Z</time></trkpt><trkpt lat="42.9203555" lon="11.9751873"><ele>245.0</ele><time>2026-04-30T10:24:19.987Z</time></trkpt><trkpt lat="42.9202048" lon="11.9754976"><ele>244.5</ele><time>2026-04-30T10:24:20.987Z</time></trkpt><trkpt lat="42.9200572" lon="11.9758005"><ele>244.0</ele><time>2026-04-30T10:24:21.987Z</time></trkpt><trkpt lat="42.9199117" lon="11.9761018"><ele>243.0</ele><time>2026-04-30T10:24:22.987Z</time></trkpt><trkpt lat="42.9197654" lon="11.9764044"><ele>242.0</ele><time>2026-04-30T10:24:23.988Z</time></trkpt><trkpt lat="42.9196188" lon="11.9767076"><ele>242.0</ele><time>2026-04-30T10:24:24.987Z</time></trkpt><trkpt lat="42.9194699" lon="11.9770021"><ele>242.0</ele><time>2026-04-30T10:24:25.987Z</time></trkpt><trkpt lat="42.9193265" lon="11.9772978"><ele>242.5</ele><time>2026-04-30T10:24:26.987Z</time></trkpt><trkpt lat="42.9191822" lon="11.9775959"><ele>243.0</ele><time>2026-04-30T10:24:27.987Z</time></trkpt><trkpt lat="42.9190456" lon="11.9778802"><ele>243.0</ele><time>2026-04-30T10:24:28.988Z</time></trkpt><trkpt lat="42.9189125" lon="11.978156"><ele>243.0</ele><time>2026-04-30T10:24:29.987Z</time></trkpt><trkpt lat="42.9187801" lon="11.9784347"><ele>243.5</ele><time>2026-04-30T10:24:30.988Z</time></trkpt><trkpt lat="42.9186471" lon="11.9787202"><ele>244.0</ele><time>2026-04-30T10:24:31.988Z</time></trkpt><trkpt lat="42.9185119" lon="11.9789985"><ele>244.0</ele><time>2026-04-30T10:24:32.987Z</time></trkpt><trkpt lat="42.9183699" lon="11.9792735"><ele>244.0</ele><time>2026-04-30T10:24:33.988Z</time></trkpt><trkpt lat="42.9182248" lon="11.979548"><ele>244.0</ele><time>2026-04-30T10:24:34.988Z</time></trkpt><trkpt lat="42.9180795" lon="11.9798241"><ele>244.0</ele><time>2026-04-30T10:24:35.987Z</time></trkpt><trkpt lat="42.9179332" lon="11.9801024"><ele>244.0</ele><time>2026-04-30T10:24:36.988Z</time></trkpt><trkpt lat="42.9177871" lon="11.980389"><ele>244.0</ele><time>2026-04-30T10:24:37.987Z</time></trkpt><trkpt lat="42.9176435" lon="11.9806778"><ele>243.5</ele><time>2026-04-30T10:24:38.987Z</time></trkpt><trkpt lat="42.9174999" lon="11.9809618"><ele>243.0</ele><time>2026-04-30T10:24:39.987Z</time></trkpt><trkpt lat="42.9173613" lon="11.9812427"><ele>243.0</ele><time>2026-04-30T10:24:40.987Z</time></trkpt><trkpt lat="42.9172207" lon="11.9815218"><ele>243.0</ele><time>2026-04-30T10:24:41.987Z</time></trkpt><trkpt lat="42.917082" lon="11.9818027"><ele>242.0</ele><time>2026-04-30T10:24:42.987Z</time></trkpt><trkpt lat="42.9169413" lon="11.9820901"><ele>241.0</ele><time>2026-04-30T10:24:43.987Z</time></trkpt><trkpt lat="42.916804" lon="11.9823784"><ele>241.0</ele><time>2026-04-30T10:24:44.987Z</time></trkpt><trkpt lat="42.9166688" lon="11.9826632"><ele>241.0</ele><time>2026-04-30T10:24:45.988Z</time></trkpt><trkpt lat="42.9165318" lon="11.9829467"><ele>241.0</ele><time>2026-04-30T10:24:46.987Z</time></trkpt><trkpt lat="42.9163936" lon="11.9832282"><ele>241.0</ele><time>2026-04-30T10:24:47.988Z</time></trkpt><trkpt lat="42.9162527" lon="11.9835201"><ele>242.0</ele><time>2026-04-30T10:24:48.988Z</time></trkpt><trkpt lat="42.9161053" lon="11.9838334"><ele>243.0</ele><time>2026-04-30T10:24:49.988Z</time></trkpt><trkpt lat="42.9159583" lon="11.9841702"><ele>241.5</ele><time>2026-04-30T10:24:50.987Z</time></trkpt><trkpt lat="42.9158056" lon="11.9845091"><ele>240.0</ele><time>2026-04-30T10:24:51.987Z</time></trkpt><trkpt lat="42.9156465" lon="11.9848287"><ele>240.0</ele><time>2026-04-30T10:24:52.987Z</time></trkpt><trkpt lat="42.9154873" lon="11.985131"><ele>240.0</ele><time>2026-04-30T10:24:53.987Z</time></trkpt><trkpt lat="42.9153328" lon="11.9854303"><ele>240.0</ele><time>2026-04-30T10:24:54.987Z</time></trkpt><trkpt lat="42.9151817" lon="11.9857271"><ele>240.0</ele><time>2026-04-30T10:24:55.987Z</time></trkpt><trkpt lat="42.9150339" lon="11.986033"><ele>240.5</ele><time>2026-04-30T10:24:56.987Z</time></trkpt><trkpt lat="42.9148925" lon="11.9863298"><ele>241.0</ele><time>2026-04-30T10:24:57.988Z</time></trkpt><trkpt lat="42.9147556" lon="11.9866198"><ele>240.5</ele><time>2026-04-30T10:24:58.987Z</time></trkpt><trkpt lat="42.9146162" lon="11.9868994"><ele>240.0</ele><time>2026-04-30T10:24:59.987Z</time></trkpt><trkpt lat="42.9144773" lon="11.9871679"><ele>240.0</ele><time>2026-04-30T10:25:00.987Z</time></trkpt><trkpt lat="42.9143454" lon="11.9874337"><ele>240.0</ele><time>2026-04-30T10:25:01.987Z</time></trkpt><trkpt lat="42.9142142" lon="11.9877002"><ele>240.0</ele><time>2026-04-30T10:25:02.988Z</time></trkpt><trkpt lat="42.9140842" lon="11.9879662"><ele>240.0</ele><time>2026-04-30T10:25:03.987Z</time></trkpt><trkpt lat="42.9139516" lon="11.9882297"><ele>240.5</ele><time>2026-04-30T10:25:04.988Z</time></trkpt><trkpt lat="42.9138192" lon="11.9884891"><ele>241.0</ele><time>2026-04-30T10:25:05.987Z</time></trkpt><trkpt lat="42.9136897" lon="11.9887517"><ele>241.0</ele><time>2026-04-30T10:25:06.988Z</time></trkpt><trkpt lat="42.9135578" lon="11.9890202"><ele>241.0</ele><time>2026-04-30T10:25:07.988Z</time></trkpt><trkpt lat="42.9134212" lon="11.9892838"><ele>241.0</ele><time>2026-04-30T10:25:08.987Z</time></trkpt><trkpt lat="42.9132927" lon="11.9895603"><ele>241.0</ele><time>2026-04-30T10:25:09.988Z</time></trkpt><trkpt lat="42.9131619" lon="11.9898275"><ele>240.0</ele><time>2026-04-30T10:25:10.988Z</time></trkpt><trkpt lat="42.913029" lon="11.9900897"><ele>239.0</ele><time>2026-04-30T10:25:11.988Z</time></trkpt><trkpt lat="42.9128983" lon="11.9903668"><ele>239.0</ele><time>2026-04-30T10:25:12.988Z</time></trkpt><trkpt lat="42.9127666" lon="11.9906425"><ele>239.0</ele><time>2026-04-30T10:25:13.987Z</time></trkpt><trkpt lat="42.9126309" lon="11.9909213"><ele>238.5</ele><time>2026-04-30T10:25:14.987Z</time></trkpt><trkpt lat="42.9124913" lon="11.9912061"><ele>238.0</ele><time>2026-04-30T10:25:15.987Z</time></trkpt><trkpt lat="42.9123508" lon="11.9915028"><ele>239.5</ele><time>2026-04-30T10:25:16.987Z</time></trkpt><trkpt lat="42.9122032" lon="11.9917968"><ele>241.0</ele><time>2026-04-30T10:25:17.987Z</time></trkpt><trkpt lat="42.9120553" lon="11.9920873"><ele>241.0</ele><time>2026-04-30T10:25:18.987Z</time></trkpt><trkpt lat="42.9119119" lon="11.9923767"><ele>241.0</ele><time>2026-04-30T10:25:19.987Z</time></trkpt><trkpt lat="42.9117642" lon="11.9926592"><ele>240.5</ele><time>2026-04-30T10:25:20.987Z</time></trkpt><trkpt lat="42.9116233" lon="11.992944"><ele>240.0</ele><time>2026-04-30T10:25:21.987Z</time></trkpt><trkpt lat="42.9114865" lon="11.993234"><ele>238.5</ele><time>2026-04-30T10:25:22.987Z</time></trkpt><trkpt lat="42.9113512" lon="11.9935168"><ele>237.0</ele><time>2026-04-30T10:25:23.988Z</time></trkpt><trkpt lat="42.9112141" lon="11.993797"><ele>237.0</ele><time>2026-04-30T10:25:24.987Z</time></trkpt><trkpt lat="42.91108" lon="11.9940728"><ele>237.0</ele><time>2026-04-30T10:25:25.987Z</time></trkpt><trkpt lat="42.9109521" lon="11.9943376"><ele>238.0</ele><time>2026-04-30T10:25:26.987Z</time></trkpt><trkpt lat="42.9108316" lon="11.9945893"><ele>239.0</ele><time>2026-04-30T10:25:27.987Z</time></trkpt><trkpt lat="42.910717" lon="11.99483"><ele>240.0</ele><time>2026-04-30T10:25:28.987Z</time></trkpt><trkpt lat="42.9106059" lon="11.9950534"><ele>240.66666666666669</ele><time>2026-04-30T10:25:29.987Z</time></trkpt><trkpt lat="42.9104993" lon="11.9952579"><ele>241.33333333333334</ele><time>2026-04-30T10:25:30.987Z</time></trkpt><trkpt lat="42.9104028" lon="11.9954694"><ele>242.0</ele><time>2026-04-30T10:25:31.987Z</time></trkpt><trkpt lat="42.9103111" lon="11.9956778"><ele>242.0</ele><time>2026-04-30T10:25:32.987Z</time></trkpt><trkpt lat="42.9102237" lon="11.9958738"><ele>242.0</ele><time>2026-04-30T10:25:33.987Z</time></trkpt><trkpt lat="42.910134" lon="11.9960551"><ele>242.0</ele><time>2026-04-30T10:25:34.987Z</time></trkpt><trkpt lat="42.9100473" lon="11.9962206"><ele>242.0</ele><time>2026-04-30T10:25:35.987Z</time></trkpt><trkpt lat="42.9099557" lon="11.9963855"><ele>242.0</ele><time>2026-04-30T10:25:36.988Z</time></trkpt><trkpt lat="42.9098648" lon="11.9965448"><ele>242.0</ele><time>2026-04-30T10:25:37.987Z</time></trkpt><trkpt lat="42.9097696" lon="11.9967129"><ele>243.0</ele><time>2026-04-30T10:25:38.987Z</time></trkpt><trkpt lat="42.909674" lon="11.9968846"><ele>244.0</ele><time>2026-04-30T10:25:39.987Z</time></trkpt><trkpt lat="42.9095721" lon="11.9970647"><ele>245.0</ele><time>2026-04-30T10:25:40.987Z</time></trkpt><trkpt lat="42.9094682" lon="11.9972465"><ele>245.0</ele><time>2026-04-30T10:25:41.987Z</time></trkpt><trkpt lat="42.909369" lon="11.9974329"><ele>245.0</ele><time>2026-04-30T10:25:42.988Z</time></trkpt><trkpt lat="42.9092817" lon="11.997626"><ele>245.0</ele><time>2026-04-30T10:25:43.988Z</time></trkpt><trkpt lat="42.9092107" lon="11.9978386"><ele>243.66666666666669</ele><time>2026-04-30T10:25:44.987Z</time></trkpt><trkpt lat="42.9091547" lon="11.9980636"><ele>242.33333333333331</ele><time>2026-04-30T10:25:45.988Z</time></trkpt><trkpt lat="42.909105" lon="11.9983121"><ele>241.0</ele><time>2026-04-30T10:25:46.987Z</time></trkpt><trkpt lat="42.909057" lon="11.9985814"><ele>241.0</ele><time>2026-04-30T10:25:47.987Z</time></trkpt><trkpt lat="42.9090031" lon="11.9988684"><ele>241.0</ele><time>2026-04-30T10:25:48.988Z</time></trkpt><trkpt lat="42.9089351" lon="11.999165"><ele>241.0</ele><time>2026-04-30T10:25:49.987Z</time></trkpt><trkpt lat="42.9088612" lon="11.9994843"><ele>240.5</ele><time>2026-04-30T10:25:50.987Z</time></trkpt><trkpt lat="42.9087843" lon="11.9998149"><ele>240.0</ele><time>2026-04-30T10:25:51.988Z</time></trkpt><trkpt lat="42.9087125" lon="12.0001502"><ele>240.0</ele><time>2026-04-30T10:25:52.987Z</time></trkpt><trkpt lat="42.9086399" lon="12.0004785"><ele>240.0</ele><time>2026-04-30T10:25:53.987Z</time></trkpt><trkpt lat="42.9085632" lon="12.0008056"><ele>239.0</ele><time>2026-04-30T10:25:54.987Z</time></trkpt><trkpt lat="42.9084792" lon="12.0011375"><ele>238.0</ele><time>2026-04-30T10:25:55.987Z</time></trkpt><trkpt lat="42.9083941" lon="12.0014699"><ele>239.0</ele><time>2026-04-30T10:25:56.988Z</time></trkpt><trkpt lat="42.9083147" lon="12.0018066"><ele>240.0</ele><time>2026-04-30T10:25:57.987Z</time></trkpt><trkpt lat="42.9082384" lon="12.0021463"><ele>240.0</ele><time>2026-04-30T10:25:58.987Z</time></trkpt><trkpt lat="42.908163" lon="12.0024808"><ele>240.0</ele><time>2026-04-30T10:25:59.988Z</time></trkpt><trkpt lat="42.9080867" lon="12.0028169"><ele>240.0</ele><time>2026-04-30T10:26:00.988Z</time></trkpt><trkpt lat="42.9080147" lon="12.0031538"><ele>240.0</ele><time>2026-04-30T10:26:01.987Z</time></trkpt><trkpt lat="42.9079279" lon="12.0034897"><ele>240.0</ele><time>2026-04-30T10:26:02.988Z</time></trkpt><trkpt lat="42.9078469" lon="12.0038356"><ele>240.0</ele><time>2026-04-30T10:26:03.987Z</time></trkpt><trkpt lat="42.9077632" lon="12.0041784"><ele>240.0</ele><time>2026-04-30T10:26:04.987Z</time></trkpt><trkpt lat="42.907681" lon="12.0045152"><ele>240.0</ele><time>2026-04-30T10:26:05.988Z</time></trkpt><trkpt lat="42.9076038" lon="12.0048542"><ele>239.5</ele><time>2026-04-30T10:26:06.987Z</time></trkpt><trkpt lat="42.9075305" lon="12.0051977"><ele>239.0</ele><time>2026-04-30T10:26:07.987Z</time></trkpt><trkpt lat="42.9074502" lon="12.0055396"><ele>239.0</ele><time>2026-04-30T10:26:08.987Z</time></trkpt><trkpt lat="42.9073689" lon="12.0058814"><ele>239.0</ele><time>2026-04-30T10:26:09.987Z</time></trkpt><trkpt lat="42.9072896" lon="12.0062266"><ele>239.0</ele><time>2026-04-30T10:26:10.988Z</time></trkpt><trkpt lat="42.9072086" lon="12.0065676"><ele>239.0</ele><time>2026-04-30T10:26:11.987Z</time></trkpt><trkpt lat="42.9071283" lon="12.0069069"><ele>239.0</ele><time>2026-04-30T10:26:12.987Z</time></trkpt><trkpt lat="42.9070515" lon="12.0072504"><ele>239.0</ele><time>2026-04-30T10:26:13.988Z</time></trkpt><trkpt lat="42.9069702" lon="12.0075893"><ele>239.0</ele><time>2026-04-30T10:26:14.988Z</time></trkpt><trkpt lat="42.9068933" lon="12.0079322"><ele>239.0</ele><time>2026-04-30T10:26:15.988Z</time></trkpt><trkpt lat="42.9068204" lon="12.0082724"><ele>239.0</ele><time>2026-04-30T10:26:16.987Z</time></trkpt><trkpt lat="42.9067412" lon="12.0086137"><ele>239.0</ele><time>2026-04-30T10:26:17.987Z</time></trkpt><trkpt lat="42.9066627" lon="12.008955"><ele>239.5</ele><time>2026-04-30T10:26:18.987Z</time></trkpt><trkpt lat="42.9065833" lon="12.009296"><ele>240.0</ele><time>2026-04-30T10:26:19.988Z</time></trkpt><trkpt lat="42.9065023" lon="12.0096331"><ele>240.0</ele><time>2026-04-30T10:26:20.987Z</time></trkpt><trkpt lat="42.906423" lon="12.0099687"><ele>240.0</ele><time>2026-04-30T10:26:21.987Z</time></trkpt><trkpt lat="42.9063352" lon="12.0102999"><ele>240.0</ele><time>2026-04-30T10:26:22.987Z</time></trkpt><trkpt lat="42.9062493" lon="12.0106282"><ele>240.0</ele><time>2026-04-30T10:26:23.988Z</time></trkpt><trkpt lat="42.9061535" lon="12.0109565"><ele>240.0</ele><time>2026-04-30T10:26:24.987Z</time></trkpt><trkpt lat="42.9060499" lon="12.0112742"><ele>240.0</ele><time>2026-04-30T10:26:25.987Z</time></trkpt><trkpt lat="42.9059406" lon="12.0115857"><ele>239.5</ele><time>2026-04-30T10:26:26.987Z</time></trkpt><trkpt lat="42.9058226" lon="12.0118907"><ele>239.0</ele><time>2026-04-30T10:26:27.988Z</time></trkpt><trkpt lat="42.9056918" lon="12.0121814"><ele>239.0</ele><time>2026-04-30T10:26:28.987Z</time></trkpt><trkpt lat="42.9055545" lon="12.0124718"><ele>239.0</ele><time>2026-04-30T10:26:29.987Z</time></trkpt><trkpt lat="42.905412" lon="12.0127579"><ele>239.5</ele><time>2026-04-30T10:26:30.987Z</time></trkpt><trkpt lat="42.9052719" lon="12.0130516"><ele>240.0</ele><time>2026-04-30T10:26:31.987Z</time></trkpt><trkpt lat="42.9051292" lon="12.0133435"><ele>239.5</ele><time>2026-04-30T10:26:32.987Z</time></trkpt><trkpt lat="42.9049858" lon="12.013638"><ele>239.0</ele><time>2026-04-30T10:26:33.988Z</time></trkpt><trkpt lat="42.9048385" lon="12.0139233"><ele>239.0</ele><time>2026-04-30T10:26:34.988Z</time></trkpt><trkpt lat="42.9046726" lon="12.0142063"><ele>239.0</ele><time>2026-04-30T10:26:35.987Z</time></trkpt><trkpt lat="42.9044855" lon="12.0144619"><ele>239.0</ele><time>2026-04-30T10:26:36.987Z</time></trkpt><trkpt lat="42.9042846" lon="12.0146936"><ele>239.0</ele><time>2026-04-30T10:26:37.987Z</time></trkpt><trkpt lat="42.9040721" lon="12.014913"><ele>238.5</ele><time>2026-04-30T10:26:38.987Z</time></trkpt><trkpt lat="42.9038484" lon="12.0151122"><ele>238.0</ele><time>2026-04-30T10:26:39.987Z</time></trkpt><trkpt lat="42.9036122" lon="12.0153004"><ele>239.0</ele><time>2026-04-30T10:26:40.988Z</time></trkpt><trkpt lat="42.9033724" lon="12.0154744"><ele>240.0</ele><time>2026-04-30T10:26:41.988Z</time></trkpt><trkpt lat="42.9031347" lon="12.0156485"><ele>240.0</ele><time>2026-04-30T10:26:42.988Z</time></trkpt><trkpt lat="42.9028956" lon="12.0158171"><ele>240.0</ele><time>2026-04-30T10:26:43.987Z</time></trkpt><trkpt lat="42.9026564" lon="12.0159839"><ele>238.5</ele><time>2026-04-30T10:26:44.987Z</time></trkpt><trkpt lat="42.9024224" lon="12.0161552"><ele>237.0</ele><time>2026-04-30T10:26:45.988Z</time></trkpt><trkpt lat="42.9021837" lon="12.0163273"><ele>237.0</ele><time>2026-04-30T10:26:46.988Z</time></trkpt><trkpt lat="42.901945" lon="12.0165016"><ele>237.0</ele><time>2026-04-30T10:26:47.988Z</time></trkpt><trkpt lat="42.9017066" lon="12.0166742"><ele>238.0</ele><time>2026-04-30T10:26:48.987Z</time></trkpt><trkpt lat="42.9014694" lon="12.0168472"><ele>239.0</ele><time>2026-04-30T10:26:49.987Z</time></trkpt><trkpt lat="42.9012337" lon="12.017025"><ele>239.0</ele><time>2026-04-30T10:26:50.987Z</time></trkpt><trkpt lat="42.9009973" lon="12.0172008"><ele>239.0</ele><time>2026-04-30T10:26:51.988Z</time></trkpt><trkpt lat="42.9007593" lon="12.0173697"><ele>239.0</ele><time>2026-04-30T10:26:52.987Z</time></trkpt><trkpt lat="42.900528" lon="12.0175359"><ele>239.0</ele><time>2026-04-30T10:26:53.988Z</time></trkpt><trkpt lat="42.9003007" lon="12.017703"><ele>238.0</ele><time>2026-04-30T10:26:54.987Z</time></trkpt><trkpt lat="42.9000698" lon="12.0178717"><ele>237.0</ele><time>2026-04-30T10:26:55.987Z</time></trkpt><trkpt lat="42.8998436" lon="12.0180373"><ele>237.0</ele><time>2026-04-30T10:26:56.988Z</time></trkpt><trkpt lat="42.8996142" lon="12.0182067"><ele>237.0</ele><time>2026-04-30T10:26:57.987Z</time></trkpt><trkpt lat="42.8993907" lon="12.0183681"><ele>237.5</ele><time>2026-04-30T10:26:58.988Z</time></trkpt><trkpt lat="42.899169" lon="12.0185269"><ele>238.0</ele><time>2026-04-30T10:26:59.988Z</time></trkpt><trkpt lat="42.898949" lon="12.018685"><ele>238.0</ele><time>2026-04-30T10:27:00.987Z</time></trkpt><trkpt lat="42.8987309" lon="12.0188404"><ele>238.0</ele><time>2026-04-30T10:27:01.987Z</time></trkpt><trkpt lat="42.8985155" lon="12.0189973"><ele>237.5</ele><time>2026-04-30T10:27:02.987Z</time></trkpt><trkpt lat="42.8983039" lon="12.0191522"><ele>237.0</ele><time>2026-04-30T10:27:03.987Z</time></trkpt><trkpt lat="42.8980988" lon="12.019306"><ele>237.0</ele><time>2026-04-30T10:27:04.988Z</time></trkpt><trkpt lat="42.8978939" lon="12.0194575"><ele>237.0</ele><time>2026-04-30T10:27:05.987Z</time></trkpt><trkpt lat="42.8976966" lon="12.0195979"><ele>237.0</ele><time>2026-04-30T10:27:06.988Z</time></trkpt><trkpt lat="42.8975089" lon="12.0197335"><ele>237.0</ele><time>2026-04-30T10:27:07.987Z</time></trkpt><trkpt lat="42.8973251" lon="12.0198649"><ele>237.0</ele><time>2026-04-30T10:27:08.987Z</time></trkpt><trkpt lat="42.8971423" lon="12.0199875"><ele>237.0</ele><time>2026-04-30T10:27:09.987Z</time></trkpt><trkpt lat="42.8969659" lon="12.0201094"><ele>237.0</ele><time>2026-04-30T10:27:10.987Z</time></trkpt><trkpt lat="42.8968007" lon="12.0202214"><ele>237.0</ele><time>2026-04-30T10:27:11.987Z</time></trkpt><trkpt lat="42.8966431" lon="12.0203267"><ele>237.0</ele><time>2026-04-30T10:27:12.987Z</time></trkpt><trkpt lat="42.8964932" lon="12.0204289"><ele>237.0</ele><time>2026-04-30T10:27:13.987Z</time></trkpt><trkpt lat="42.8963475" lon="12.020533"><ele>237.0</ele><time>2026-04-30T10:27:14.987Z</time></trkpt><trkpt lat="42.8962035" lon="12.02063"><ele>237.0</ele><time>2026-04-30T10:27:15.988Z</time></trkpt><trkpt lat="42.8960634" lon="12.0207305"><ele>237.0</ele><time>2026-04-30T10:27:16.987Z</time></trkpt><trkpt lat="42.8959262" lon="12.0208407"><ele>237.0</ele><time>2026-04-30T10:27:17.988Z</time></trkpt><trkpt lat="42.895787" lon="12.0209418"><ele>237.33333333333331</ele><time>2026-04-30T10:27:18.988Z</time></trkpt><trkpt lat="42.8956461" lon="12.0210433"><ele>237.66666666666666</ele><time>2026-04-30T10:27:19.987Z</time></trkpt><trkpt lat="42.895509" lon="12.0211455"><ele>238.0</ele><time>2026-04-30T10:27:20.988Z</time></trkpt><trkpt lat="42.8953786" lon="12.0212505"><ele>238.0</ele><time>2026-04-30T10:27:21.988Z</time></trkpt><trkpt lat="42.8952459" lon="12.0213767"><ele>238.0</ele><time>2026-04-30T10:27:22.987Z</time></trkpt><trkpt lat="42.8950959" lon="12.0215145"><ele>238.0</ele><time>2026-04-30T10:27:23.987Z</time></trkpt><trkpt lat="42.894929" lon="12.0216522"><ele>238.0</ele><time>2026-04-30T10:27:24.987Z</time></trkpt><trkpt lat="42.8947413" lon="12.0217845"><ele>238.0</ele><time>2026-04-30T10:27:25.987Z</time></trkpt><trkpt lat="42.8945379" lon="12.021915"><ele>238.0</ele><time>2026-04-30T10:27:26.988Z</time></trkpt><trkpt lat="42.8943263" lon="12.0220442"><ele>237.0</ele><time>2026-04-30T10:27:27.987Z</time></trkpt><trkpt lat="42.8941102" lon="12.022181"><ele>236.0</ele><time>2026-04-30T10:27:28.987Z</time></trkpt><trkpt lat="42.8938878" lon="12.0223339"><ele>235.5</ele><time>2026-04-30T10:27:29.988Z</time></trkpt><trkpt lat="42.8936654" lon="12.0225029"><ele>235.0</ele><time>2026-04-30T10:27:30.987Z</time></trkpt><trkpt lat="42.8934375" lon="12.0226659"><ele>236.0</ele><time>2026-04-30T10:27:31.988Z</time></trkpt><trkpt lat="42.8932044" lon="12.0228292"><ele>237.0</ele><time>2026-04-30T10:27:32.988Z</time></trkpt><trkpt lat="42.8929703" lon="12.0230009"><ele>237.0</ele><time>2026-04-30T10:27:33.987Z</time></trkpt><trkpt lat="42.8927355" lon="12.0231734"><ele>237.0</ele><time>2026-04-30T10:27:34.987Z</time></trkpt><trkpt lat="42.8924932" lon="12.0233503"><ele>236.0</ele><time>2026-04-30T10:27:35.988Z</time></trkpt><trkpt lat="42.8922481" lon="12.0235266"><ele>235.0</ele><time>2026-04-30T10:27:36.987Z</time></trkpt><trkpt lat="42.8920017" lon="12.0237066"><ele>235.5</ele><time>2026-04-30T10:27:37.987Z</time></trkpt><trkpt lat="42.8917542" lon="12.0238895"><ele>236.0</ele><time>2026-04-30T10:27:38.987Z</time></trkpt><trkpt lat="42.8915038" lon="12.0240645"><ele>236.0</ele><time>2026-04-30T10:27:39.987Z</time></trkpt><trkpt lat="42.8912521" lon="12.0242376"><ele>236.0</ele><time>2026-04-30T10:27:40.987Z</time></trkpt><trkpt lat="42.890998" lon="12.0244188"><ele>236.5</ele><time>2026-04-30T10:27:41.987Z</time></trkpt><trkpt lat="42.8907501" lon="12.024605"><ele>237.0</ele><time>2026-04-30T10:27:42.987Z</time></trkpt><trkpt lat="42.8904984" lon="12.0247858"><ele>237.0</ele><time>2026-04-30T10:27:43.987Z</time></trkpt><trkpt lat="42.8902456" lon="12.0249683"><ele>237.0</ele><time>2026-04-30T10:27:44.988Z</time></trkpt><trkpt lat="42.8899925" lon="12.0251457"><ele>237.0</ele><time>2026-04-30T10:27:45.987Z</time></trkpt><trkpt lat="42.8897355" lon="12.025325"><ele>237.0</ele><time>2026-04-30T10:27:46.987Z</time></trkpt><trkpt lat="42.8894809" lon="12.0255061"><ele>237.0</ele><time>2026-04-30T10:27:47.987Z</time></trkpt><trkpt lat="42.8892269" lon="12.0256914"><ele>237.0</ele><time>2026-04-30T10:27:48.987Z</time></trkpt><trkpt lat="42.8889727" lon="12.0258771"><ele>237.0</ele><time>2026-04-30T10:27:49.987Z</time></trkpt><trkpt lat="42.8887167" lon="12.0260569"><ele>237.0</ele><time>2026-04-30T10:27:50.987Z</time></trkpt><trkpt lat="42.8884648" lon="12.0262402"><ele>236.5</ele><time>2026-04-30T10:27:51.988Z</time></trkpt><trkpt lat="42.8882165" lon="12.0264291"><ele>236.0</ele><time>2026-04-30T10:27:52.987Z</time></trkpt><trkpt lat="42.8879593" lon="12.0266187"><ele>236.0</ele><time>2026-04-30T10:27:53.987Z</time></trkpt><trkpt lat="42.8877022" lon="12.0268087"><ele>236.0</ele><time>2026-04-30T10:27:54.988Z</time></trkpt><trkpt lat="42.8874476" lon="12.026993"><ele>236.0</ele><time>2026-04-30T10:27:55.987Z</time></trkpt><trkpt lat="42.8871874" lon="12.0271715"><ele>236.0</ele><time>2026-04-30T10:27:56.988Z</time></trkpt><trkpt lat="42.8869292" lon="12.0273592"><ele>235.5</ele><time>2026-04-30T10:27:57.987Z</time></trkpt><trkpt lat="42.8866706" lon="12.0275499"><ele>235.0</ele><time>2026-04-30T10:27:58.987Z</time></trkpt><trkpt lat="42.8864149" lon="12.0277319"><ele>235.0</ele><time>2026-04-30T10:27:59.988Z</time></trkpt><trkpt lat="42.8861583" lon="12.0279198"><ele>235.0</ele><time>2026-04-30T10:28:00.987Z</time></trkpt><trkpt lat="42.8859045" lon="12.0281073"><ele>235.5</ele><time>2026-04-30T10:28:01.987Z</time></trkpt><trkpt lat="42.8856493" lon="12.0282913"><ele>236.0</ele><time>2026-04-30T10:28:02.987Z</time></trkpt><trkpt lat="42.8853955" lon="12.02847"><ele>236.0</ele><time>2026-04-30T10:28:03.987Z</time></trkpt><trkpt lat="42.885141" lon="12.0286507"><ele>236.0</ele><time>2026-04-30T10:28:04.988Z</time></trkpt><trkpt lat="42.8848875" lon="12.0288341"><ele>236.5</ele><time>2026-04-30T10:28:05.987Z</time></trkpt><trkpt lat="42.8846376" lon="12.0290198"><ele>237.0</ele><time>2026-04-30T10:28:06.988Z</time></trkpt><trkpt lat="42.8843833" lon="12.0292061"><ele>236.0</ele><time>2026-04-30T10:28:07.987Z</time></trkpt><trkpt lat="42.8841266" lon="12.0293979"><ele>235.0</ele><time>2026-04-30T10:28:08.988Z</time></trkpt><trkpt lat="42.8838693" lon="12.0295799"><ele>235.0</ele><time>2026-04-30T10:28:09.987Z</time></trkpt><trkpt lat="42.8836114" lon="12.0297685"><ele>235.0</ele><time>2026-04-30T10:28:10.987Z</time></trkpt><trkpt lat="42.8833528" lon="12.0299528"><ele>235.5</ele><time>2026-04-30T10:28:11.988Z</time></trkpt><trkpt lat="42.8830973" lon="12.0301256"><ele>236.0</ele><time>2026-04-30T10:28:12.987Z</time></trkpt><trkpt lat="42.8828444" lon="12.0302998"><ele>236.0</ele><time>2026-04-30T10:28:13.988Z</time></trkpt><trkpt lat="42.8825947" lon="12.0304813"><ele>236.0</ele><time>2026-04-30T10:28:14.988Z</time></trkpt><trkpt lat="42.8823381" lon="12.0306651"><ele>235.5</ele><time>2026-04-30T10:28:15.987Z</time></trkpt><trkpt lat="42.8820828" lon="12.0308473"><ele>235.0</ele><time>2026-04-30T10:28:16.987Z</time></trkpt><trkpt lat="42.8818286" lon="12.0310316"><ele>235.5</ele><time>2026-04-30T10:28:17.987Z</time></trkpt><trkpt lat="42.8815752" lon="12.0312163"><ele>236.0</ele><time>2026-04-30T10:28:18.987Z</time></trkpt><trkpt lat="42.8813297" lon="12.0313983"><ele>236.0</ele><time>2026-04-30T10:28:19.987Z</time></trkpt><trkpt lat="42.881088" lon="12.0315703"><ele>236.0</ele><time>2026-04-30T10:28:20.988Z</time></trkpt><trkpt lat="42.8808522" lon="12.0317365"><ele>235.5</ele><time>2026-04-30T10:28:21.987Z</time></trkpt><trkpt lat="42.8806222" lon="12.031905"><ele>235.0</ele><time>2026-04-30T10:28:22.987Z</time></trkpt><trkpt lat="42.8803929" lon="12.0320741"><ele>235.0</ele><time>2026-04-30T10:28:23.987Z</time></trkpt><trkpt lat="42.8801637" lon="12.0322444"><ele>235.0</ele><time>2026-04-30T10:28:24.987Z</time></trkpt><trkpt lat="42.879939" lon="12.0324106"><ele>235.0</ele><time>2026-04-30T10:28:25.987Z</time></trkpt><trkpt lat="42.8797128" lon="12.0325753"><ele>235.0</ele><time>2026-04-30T10:28:26.988Z</time></trkpt><trkpt lat="42.8794852" lon="12.0327332"><ele>236.0</ele><time>2026-04-30T10:28:27.987Z</time></trkpt><trkpt lat="42.8792578" lon="12.0328933"><ele>237.0</ele><time>2026-04-30T10:28:28.987Z</time></trkpt><trkpt lat="42.8790325" lon="12.0330542"><ele>237.0</ele><time>2026-04-30T10:28:29.987Z</time></trkpt><trkpt lat="42.8788179" lon="12.0332146"><ele>237.0</ele><time>2026-04-30T10:28:30.987Z</time></trkpt><trkpt lat="42.8786174" lon="12.0333709"><ele>236.33333333333331</ele><time>2026-04-30T10:28:31.987Z</time></trkpt><trkpt lat="42.8784218" lon="12.0335148"><ele>235.66666666666666</ele><time>2026-04-30T10:28:32.987Z</time></trkpt><trkpt lat="42.8782296" lon="12.0336441"><ele>235.0</ele><time>2026-04-30T10:28:33.987Z</time></trkpt><trkpt lat="42.878034" lon="12.0337367"><ele>235.0</ele><time>2026-04-30T10:28:34.987Z</time></trkpt><trkpt lat="42.8778347" lon="12.0337856"><ele>235.0</ele><time>2026-04-30T10:28:35.987Z</time></trkpt><trkpt lat="42.8776307" lon="12.0337661"><ele>235.0</ele><time>2026-04-30T10:28:36.988Z</time></trkpt><trkpt lat="42.8774359" lon="12.0337085"><ele>235.66666666666666</ele><time>2026-04-30T10:28:37.987Z</time></trkpt><trkpt lat="42.8772558" lon="12.0336413"><ele>236.33333333333331</ele><time>2026-04-30T10:28:38.987Z</time></trkpt><trkpt lat="42.877096" lon="12.033578"><ele>237.0</ele><time>2026-04-30T10:28:39.987Z</time></trkpt><trkpt lat="42.8769577" lon="12.0335313"><ele>237.0</ele><time>2026-04-30T10:28:40.988Z</time></trkpt><trkpt lat="42.8768437" lon="12.0334933"><ele>237.0</ele><time>2026-04-30T10:28:41.988Z</time></trkpt><trkpt lat="42.876743" lon="12.0334668"><ele>237.0</ele><time>2026-04-30T10:28:42.987Z</time></trkpt><trkpt lat="42.8766665" lon="12.0334513"><ele>237.0</ele><time>2026-04-30T10:28:43.988Z</time></trkpt><trkpt lat="42.8765729" lon="12.033469"><ele>237.0</ele><time>2026-04-30T10:28:45.988Z</time></trkpt><trkpt lat="42.8765243" lon="12.0336143"><ele>236.75</ele><time>2026-04-30T10:28:47.987Z</time></trkpt><trkpt lat="42.8765286" lon="12.0337378"><ele>236.5</ele><time>2026-04-30T10:28:48.987Z</time></trkpt><trkpt lat="42.8765449" lon="12.0338872"><ele>236.25</ele><time>2026-04-30T10:28:49.987Z</time></trkpt><trkpt lat="42.8765656" lon="12.0340648"><ele>236.0</ele><time>2026-04-30T10:28:50.987Z</time></trkpt><trkpt lat="42.8765874" lon="12.0342631"><ele>236.0</ele><time>2026-04-30T10:28:51.987Z</time></trkpt><trkpt lat="42.8766072" lon="12.0344721"><ele>236.0</ele><time>2026-04-30T10:28:52.987Z</time></trkpt><trkpt lat="42.8766255" lon="12.0347002"><ele>236.0</ele><time>2026-04-30T10:28:53.988Z</time></trkpt><trkpt lat="42.8766431" lon="12.0349411"><ele>236.0</ele><time>2026-04-30T10:28:54.987Z</time></trkpt><trkpt lat="42.8766625" lon="12.035179"><ele>236.0</ele><time>2026-04-30T10:28:55.987Z</time></trkpt><trkpt lat="42.8766872" lon="12.0354347"><ele>236.0</ele><time>2026-04-30T10:28:56.987Z</time></trkpt><trkpt lat="42.8767125" lon="12.0357019"><ele>236.0</ele><time>2026-04-30T10:28:57.988Z</time></trkpt><trkpt lat="42.8767355" lon="12.0359745"><ele>236.0</ele><time>2026-04-30T10:28:58.988Z</time></trkpt><trkpt lat="42.8767603" lon="12.0362619"><ele>236.0</ele><time>2026-04-30T10:28:59.988Z</time></trkpt><trkpt lat="42.8767857" lon="12.0365612"><ele>236.0</ele><time>2026-04-30T10:29:00.988Z</time></trkpt><trkpt lat="42.8768131" lon="12.0368672"><ele>236.0</ele><time>2026-04-30T10:29:01.987Z</time></trkpt><trkpt lat="42.8768413" lon="12.0371787"><ele>236.0</ele><time>2026-04-30T10:29:02.988Z</time></trkpt><trkpt lat="42.8768652" lon="12.0374919"><ele>236.0</ele><time>2026-04-30T10:29:03.987Z</time></trkpt><trkpt lat="42.8768865" lon="12.0378119"><ele>236.0</ele><time>2026-04-30T10:29:04.987Z</time></trkpt><trkpt lat="42.8769127" lon="12.0381287"><ele>236.0</ele><time>2026-04-30T10:29:05.988Z</time></trkpt><trkpt lat="42.8769381" lon="12.038445"><ele>236.0</ele><time>2026-04-30T10:29:06.987Z</time></trkpt><trkpt lat="42.8769655" lon="12.038764"><ele>236.0</ele><time>2026-04-30T10:29:07.987Z</time></trkpt><trkpt lat="42.8769981" lon="12.039081"><ele>236.0</ele><time>2026-04-30T10:29:08.988Z</time></trkpt><trkpt lat="42.8770254" lon="12.0393851"><ele>236.0</ele><time>2026-04-30T10:29:09.987Z</time></trkpt><trkpt lat="42.8770523" lon="12.0396868"><ele>236.0</ele><time>2026-04-30T10:29:10.987Z</time></trkpt><trkpt lat="42.8770789" lon="12.0399888"><ele>236.0</ele><time>2026-04-30T10:29:11.987Z</time></trkpt><trkpt lat="42.8771055" lon="12.0402969"><ele>236.0</ele><time>2026-04-30T10:29:12.988Z</time></trkpt><trkpt lat="42.8771321" lon="12.0406028"><ele>236.33333333333334</ele><time>2026-04-30T10:29:13.987Z</time></trkpt><trkpt lat="42.8771575" lon="12.0408972"><ele>236.66666666666669</ele><time>2026-04-30T10:29:14.987Z</time></trkpt><trkpt lat="42.8771791" lon="12.041188"><ele>237.0</ele><time>2026-04-30T10:29:15.988Z</time></trkpt><trkpt lat="42.8772015" lon="12.0414692"><ele>237.66666666666669</ele><time>2026-04-30T10:29:16.988Z</time></trkpt><trkpt lat="42.8772151" lon="12.0417464"><ele>238.33333333333334</ele><time>2026-04-30T10:29:17.987Z</time></trkpt><trkpt lat="42.8772149" lon="12.0420053"><ele>239.0</ele><time>2026-04-30T10:29:18.987Z</time></trkpt><trkpt lat="42.8771903" lon="12.0422534"><ele>239.0</ele><time>2026-04-30T10:29:19.987Z</time></trkpt><trkpt lat="42.8771499" lon="12.0424909"><ele>239.0</ele><time>2026-04-30T10:29:20.987Z</time></trkpt><trkpt lat="42.8770993" lon="12.0427087"><ele>239.0</ele><time>2026-04-30T10:29:21.988Z</time></trkpt><trkpt lat="42.8770441" lon="12.042889"><ele>239.00000000000003</ele><time>2026-04-30T10:29:22.987Z</time></trkpt><trkpt lat="42.8769884" lon="12.0430306"><ele>239.0</ele><time>2026-04-30T10:29:23.987Z</time></trkpt><trkpt lat="42.8769401" lon="12.0431513"><ele>239.0</ele><time>2026-04-30T10:29:24.987Z</time></trkpt><trkpt lat="42.8768964" lon="12.0432538"><ele>239.0</ele><time>2026-04-30T10:29:25.988Z</time></trkpt><trkpt lat="42.8768603" lon="12.0433317"><ele>239.00000000000003</ele><time>2026-04-30T10:29:26.987Z</time></trkpt><trkpt lat="42.876812" lon="12.0433946"><ele>239.0</ele><time>2026-04-30T10:29:29.987Z</time></trkpt><trkpt lat="42.8767498" lon="12.0434497"><ele>239.6</ele><time>2026-04-30T10:29:37.987Z</time></trkpt><trkpt lat="42.876635" lon="12.0434884"><ele>240.2</ele><time>2026-04-30T10:29:39.988Z</time></trkpt><trkpt lat="42.8765053" lon="12.043457"><ele>240.79999999999998</ele><time>2026-04-30T10:29:41.987Z</time></trkpt><trkpt lat="42.8764319" lon="12.0434181"><ele>241.39999999999998</ele><time>2026-04-30T10:29:42.988Z</time></trkpt><trkpt lat="42.8763504" lon="12.0433689"><ele>242.0</ele><time>2026-04-30T10:29:43.988Z</time></trkpt><trkpt lat="42.8762637" lon="12.0433169"><ele>242.16666666666669</ele><time>2026-04-30T10:29:44.987Z</time></trkpt><trkpt lat="42.8761836" lon="12.0432703"><ele>242.33333333333334</ele><time>2026-04-30T10:29:45.988Z</time></trkpt><trkpt lat="42.8761044" lon="12.0432351"><ele>242.5</ele><time>2026-04-30T10:29:46.987Z</time></trkpt><trkpt lat="42.8760289" lon="12.0431884"><ele>242.66666666666669</ele><time>2026-04-30T10:29:47.987Z</time></trkpt><trkpt lat="42.8759544" lon="12.0431385"><ele>242.83333333333334</ele><time>2026-04-30T10:29:48.988Z</time></trkpt><trkpt lat="42.8758788" lon="12.0430962"><ele>243.0</ele><time>2026-04-30T10:29:49.988Z</time></trkpt><trkpt lat="42.8758041" lon="12.0430515"><ele>243.0</ele><time>2026-04-30T10:29:50.987Z</time></trkpt><trkpt lat="42.8757364" lon="12.0430041"><ele>243.0</ele><time>2026-04-30T10:29:51.987Z</time></trkpt><trkpt lat="42.8756696" lon="12.0429649"><ele>243.0</ele><time>2026-04-30T10:29:52.987Z</time></trkpt><trkpt lat="42.8756056" lon="12.0429302"><ele>243.0</ele><time>2026-04-30T10:29:53.987Z</time></trkpt><trkpt lat="42.8755041" lon="12.0428662"><ele>243.0</ele><time>2026-04-30T10:29:55.987Z</time></trkpt><trkpt lat="42.8754017" lon="12.0427988"><ele>243.0</ele><time>2026-04-30T10:29:57.987Z</time></trkpt><trkpt lat="42.8752982" lon="12.0427285"><ele>243.0</ele><time>2026-04-30T10:29:59.987Z</time></trkpt><trkpt lat="42.8751861" lon="12.0426602"><ele>243.0</ele><time>2026-04-30T10:30:01.987Z</time></trkpt><trkpt lat="42.8751235" lon="12.0426168"><ele>243.0</ele><time>2026-04-30T10:30:02.987Z</time></trkpt><trkpt lat="42.8750559" lon="12.0425742"><ele>243.0</ele><time>2026-04-30T10:30:03.987Z</time></trkpt><trkpt lat="42.8749886" lon="12.0425324"><ele>243.0</ele><time>2026-04-30T10:30:04.987Z</time></trkpt><trkpt lat="42.8749206" lon="12.0424939"><ele>243.0</ele><time>2026-04-30T10:30:05.987Z</time></trkpt><trkpt lat="42.8748508" lon="12.0424585"><ele>242.4</ele><time>2026-04-30T10:30:06.987Z</time></trkpt><trkpt lat="42.8747745" lon="12.0424266"><ele>241.8</ele><time>2026-04-30T10:30:07.988Z</time></trkpt><trkpt lat="42.8746874" lon="12.0423907"><ele>241.2</ele><time>2026-04-30T10:30:08.987Z</time></trkpt><trkpt lat="42.8745979" lon="12.0423638"><ele>240.6</ele><time>2026-04-30T10:30:09.987Z</time></trkpt><trkpt lat="42.8744997" lon="12.0423483"><ele>240.0</ele><time>2026-04-30T10:30:10.987Z</time></trkpt><trkpt lat="42.87439" lon="12.042339"><ele>240.0</ele><time>2026-04-30T10:30:11.987Z</time></trkpt><trkpt lat="42.8742704" lon="12.0423357"><ele>240.0</ele><time>2026-04-30T10:30:12.987Z</time></trkpt><trkpt lat="42.8741391" lon="12.0423203"><ele>240.0</ele><time>2026-04-30T10:30:13.988Z</time></trkpt><trkpt lat="42.8739985" lon="12.0423056"><ele>240.0</ele><time>2026-04-30T10:30:14.988Z</time></trkpt><trkpt lat="42.8738515" lon="12.0422963"><ele>240.0</ele><time>2026-04-30T10:30:15.987Z</time></trkpt><trkpt lat="42.8737029" lon="12.0422737"><ele>240.0</ele><time>2026-04-30T10:30:16.987Z</time></trkpt><trkpt lat="42.873554" lon="12.0422515"><ele>240.0</ele><time>2026-04-30T10:30:17.987Z</time></trkpt><trkpt lat="42.873399" lon="12.0422344"><ele>240.0</ele><time>2026-04-30T10:30:18.988Z</time></trkpt><trkpt lat="42.8732338" lon="12.0422158"><ele>240.0</ele><time>2026-04-30T10:30:19.988Z</time></trkpt><trkpt lat="42.873062" lon="12.0421998"><ele>240.0</ele><time>2026-04-30T10:30:20.987Z</time></trkpt><trkpt lat="42.8728875" lon="12.0421808"><ele>240.0</ele><time>2026-04-30T10:30:21.987Z</time></trkpt><trkpt lat="42.8727065" lon="12.0421624"><ele>240.0</ele><time>2026-04-30T10:30:22.988Z</time></trkpt><trkpt lat="42.8725186" lon="12.0421448"><ele>240.0</ele><time>2026-04-30T10:30:23.988Z</time></trkpt><trkpt lat="42.8723242" lon="12.0421291"><ele>239.66666666666669</ele><time>2026-04-30T10:30:24.987Z</time></trkpt><trkpt lat="42.872132" lon="12.0421212"><ele>239.33333333333334</ele><time>2026-04-30T10:30:25.988Z</time></trkpt><trkpt lat="42.8719318" lon="12.0420959"><ele>239.0</ele><time>2026-04-30T10:30:26.987Z</time></trkpt><trkpt lat="42.8717291" lon="12.0420731"><ele>238.66666666666669</ele><time>2026-04-30T10:30:27.988Z</time></trkpt><trkpt lat="42.8715233" lon="12.0420489"><ele>238.33333333333331</ele><time>2026-04-30T10:30:28.987Z</time></trkpt><trkpt lat="42.8713109" lon="12.0420422"><ele>238.0</ele><time>2026-04-30T10:30:29.988Z</time></trkpt><trkpt lat="42.8710912" lon="12.0420679"><ele>237.5</ele><time>2026-04-30T10:30:30.987Z</time></trkpt><trkpt lat="42.8708737" lon="12.0421428"><ele>237.0</ele><time>2026-04-30T10:30:31.987Z</time></trkpt><trkpt lat="42.8706661" lon="12.0422634"><ele>237.0</ele><time>2026-04-30T10:30:32.987Z</time></trkpt><trkpt lat="42.8704654" lon="12.0424155"><ele>237.0</ele><time>2026-04-30T10:30:33.988Z</time></trkpt><trkpt lat="42.8702713" lon="12.0425848"><ele>238.0</ele><time>2026-04-30T10:30:34.988Z</time></trkpt><trkpt lat="42.8700756" lon="12.0427737"><ele>239.0</ele><time>2026-04-30T10:30:35.988Z</time></trkpt><trkpt lat="42.8698844" lon="12.0429834"><ele>239.0</ele><time>2026-04-30T10:30:36.987Z</time></trkpt><trkpt lat="42.8697104" lon="12.0432102"><ele>239.0</ele><time>2026-04-30T10:30:37.988Z</time></trkpt><trkpt lat="42.8695584" lon="12.0434704"><ele>237.5</ele><time>2026-04-30T10:30:38.987Z</time></trkpt><trkpt lat="42.8694306" lon="12.0437586"><ele>236.0</ele><time>2026-04-30T10:30:39.987Z</time></trkpt><trkpt lat="42.8693339" lon="12.0440724"><ele>236.0</ele><time>2026-04-30T10:30:40.987Z</time></trkpt><trkpt lat="42.8692526" lon="12.0444084"><ele>236.0</ele><time>2026-04-30T10:30:41.987Z</time></trkpt><trkpt lat="42.8691824" lon="12.0447388"><ele>235.5</ele><time>2026-04-30T10:30:42.988Z</time></trkpt><trkpt lat="42.8691159" lon="12.0450604"><ele>235.0</ele><time>2026-04-30T10:30:43.988Z</time></trkpt><trkpt lat="42.869048" lon="12.0453783"><ele>235.0</ele><time>2026-04-30T10:30:44.987Z</time></trkpt><trkpt lat="42.8689704" lon="12.045687"><ele>235.0</ele><time>2026-04-30T10:30:45.987Z</time></trkpt><trkpt lat="42.8688747" lon="12.0459779"><ele>235.0</ele><time>2026-04-30T10:30:46.988Z</time></trkpt><trkpt lat="42.8687337" lon="12.0462371"><ele>235.0</ele><time>2026-04-30T10:30:47.987Z</time></trkpt><trkpt lat="42.8685575" lon="12.0464435"><ele>235.5</ele><time>2026-04-30T10:30:48.988Z</time></trkpt><trkpt lat="42.8683682" lon="12.046628"><ele>236.0</ele><time>2026-04-30T10:30:49.987Z</time></trkpt><trkpt lat="42.8681779" lon="12.0468129"><ele>236.0</ele><time>2026-04-30T10:30:50.987Z</time></trkpt><trkpt lat="42.8679844" lon="12.0469998"><ele>236.0</ele><time>2026-04-30T10:30:51.987Z</time></trkpt><trkpt lat="42.8677924" lon="12.0471962"><ele>236.0</ele><time>2026-04-30T10:30:52.988Z</time></trkpt><trkpt lat="42.8675994" lon="12.047394"><ele>236.0</ele><time>2026-04-30T10:30:53.987Z</time></trkpt><trkpt lat="42.8673973" lon="12.0475909"><ele>236.0</ele><time>2026-04-30T10:30:54.987Z</time></trkpt><trkpt lat="42.8671892" lon="12.0477849"><ele>236.0</ele><time>2026-04-30T10:30:55.987Z</time></trkpt><trkpt lat="42.8669821" lon="12.0479784"><ele>235.5</ele><time>2026-04-30T10:30:56.987Z</time></trkpt><trkpt lat="42.8667733" lon="12.0481724"><ele>235.0</ele><time>2026-04-30T10:30:57.987Z</time></trkpt><trkpt lat="42.8665606" lon="12.0483578"><ele>235.0</ele><time>2026-04-30T10:30:58.988Z</time></trkpt><trkpt lat="42.8663472" lon="12.0485294"><ele>235.0</ele><time>2026-04-30T10:30:59.987Z</time></trkpt><trkpt lat="42.8661346" lon="12.0486983"><ele>235.5</ele><time>2026-04-30T10:31:00.988Z</time></trkpt><trkpt lat="42.8659294" lon="12.0488748"><ele>236.0</ele><time>2026-04-30T10:31:01.987Z</time></trkpt><trkpt lat="42.8657236" lon="12.049059"><ele>236.5</ele><time>2026-04-30T10:31:02.987Z</time></trkpt><trkpt lat="42.8655259" lon="12.0492543"><ele>237.0</ele><time>2026-04-30T10:31:03.988Z</time></trkpt><trkpt lat="42.8653361" lon="12.0494544"><ele>237.0</ele><time>2026-04-30T10:31:04.987Z</time></trkpt><trkpt lat="42.8651594" lon="12.0496432"><ele>237.0</ele><time>2026-04-30T10:31:05.988Z</time></trkpt><trkpt lat="42.8649952" lon="12.0498279"><ele>237.0</ele><time>2026-04-30T10:31:06.987Z</time></trkpt><trkpt lat="42.8648444" lon="12.0500318"><ele>238.33333333333331</ele><time>2026-04-30T10:31:07.988Z</time></trkpt><trkpt lat="42.8647" lon="12.0502343"><ele>239.66666666666666</ele><time>2026-04-30T10:31:08.987Z</time></trkpt><trkpt lat="42.864554" lon="12.0504346"><ele>241.0</ele><time>2026-04-30T10:31:09.987Z</time></trkpt><trkpt lat="42.8644106" lon="12.0506375"><ele>242.66666666666666</ele><time>2026-04-30T10:31:10.987Z</time></trkpt><trkpt lat="42.8642742" lon="12.050833"><ele>244.33333333333331</ele><time>2026-04-30T10:31:11.987Z</time></trkpt><trkpt lat="42.8641386" lon="12.0510319"><ele>246.0</ele><time>2026-04-30T10:31:12.987Z</time></trkpt><trkpt lat="42.8640082" lon="12.0512166"><ele>246.0</ele><time>2026-04-30T10:31:13.987Z</time></trkpt><trkpt lat="42.863883" lon="12.0513688"><ele>246.0</ele><time>2026-04-30T10:31:14.988Z</time></trkpt><trkpt lat="42.8637529" lon="12.0514964"><ele>246.0</ele><time>2026-04-30T10:31:15.987Z</time></trkpt><trkpt lat="42.86362" lon="12.051599"><ele>247.0</ele><time>2026-04-30T10:31:16.987Z</time></trkpt><trkpt lat="42.863484" lon="12.0516775"><ele>248.0</ele><time>2026-04-30T10:31:17.987Z</time></trkpt><trkpt lat="42.8633503" lon="12.0517262"><ele>249.0</ele><time>2026-04-30T10:31:18.988Z</time></trkpt><trkpt lat="42.8632231" lon="12.0517351"><ele>250.0</ele><time>2026-04-30T10:31:19.987Z</time></trkpt><trkpt lat="42.8631006" lon="12.0516991"><ele>249.0</ele><time>2026-04-30T10:31:20.987Z</time></trkpt><trkpt lat="42.8630022" lon="12.0516115"><ele>248.0</ele><time>2026-04-30T10:31:21.987Z</time></trkpt><trkpt lat="42.862927" lon="12.0514773"><ele>247.0</ele><time>2026-04-30T10:31:22.987Z</time></trkpt><trkpt lat="42.8628881" lon="12.0513246"><ele>246.0</ele><time>2026-04-30T10:31:23.987Z</time></trkpt><trkpt lat="42.8628677" lon="12.0511593"><ele>246.0</ele><time>2026-04-30T10:31:24.987Z</time></trkpt><trkpt lat="42.8628557" lon="12.0509935"><ele>246.00000000000003</ele><time>2026-04-30T10:31:25.988Z</time></trkpt><trkpt lat="42.86284" lon="12.0508439"><ele>246.00000000000003</ele><time>2026-04-30T10:31:26.987Z</time></trkpt><trkpt lat="42.8628056" lon="12.0507105"><ele>246.0</ele><time>2026-04-30T10:31:27.988Z</time></trkpt><trkpt lat="42.8627431" lon="12.0506007"><ele>246.0</ele><time>2026-04-30T10:31:28.987Z</time></trkpt><trkpt lat="42.8626505" lon="12.0505297"><ele>247.66666666666669</ele><time>2026-04-30T10:31:29.987Z</time></trkpt><trkpt lat="42.8625262" lon="12.0504863"><ele>249.33333333333334</ele><time>2026-04-30T10:31:30.987Z</time></trkpt><trkpt lat="42.8623662" lon="12.0504342"><ele>251.0</ele><time>2026-04-30T10:31:31.987Z</time></trkpt><trkpt lat="42.86218" lon="12.0503643"><ele>251.0</ele><time>2026-04-30T10:31:32.987Z</time></trkpt><trkpt lat="42.8619768" lon="12.0502648"><ele>251.0</ele><time>2026-04-30T10:31:33.987Z</time></trkpt><trkpt lat="42.861768" lon="12.0501622"><ele>251.0</ele><time>2026-04-30T10:31:34.988Z</time></trkpt><trkpt lat="42.8615513" lon="12.0500694"><ele>250.0</ele><time>2026-04-30T10:31:35.987Z</time></trkpt><trkpt lat="42.8613292" lon="12.0500001"><ele>249.0</ele><time>2026-04-30T10:31:36.988Z</time></trkpt><trkpt lat="42.86111" lon="12.0499327"><ele>252.33333333333331</ele><time>2026-04-30T10:31:37.987Z</time></trkpt><trkpt lat="42.8609113" lon="12.0498314"><ele>255.66666666666666</ele><time>2026-04-30T10:31:38.988Z</time></trkpt><trkpt lat="42.8607348" lon="12.0497304"><ele>259.0</ele><time>2026-04-30T10:31:39.987Z</time></trkpt><trkpt lat="42.8605665" lon="12.0497044"><ele>259.0</ele><time>2026-04-30T10:31:40.987Z</time></trkpt><trkpt lat="42.8603959" lon="12.0497518"><ele>259.0</ele><time>2026-04-30T10:31:41.988Z</time></trkpt><trkpt lat="42.8602286" lon="12.0498521"><ele>259.0</ele><time>2026-04-30T10:31:42.988Z</time></trkpt><trkpt lat="42.8600625" lon="12.0499895"><ele>266.0</ele><time>2026-04-30T10:31:43.987Z</time></trkpt><trkpt lat="42.8598783" lon="12.0501036"><ele>273.0</ele><time>2026-04-30T10:31:44.988Z</time></trkpt><trkpt lat="42.8596745" lon="12.0501662"><ele>280.0</ele><time>2026-04-30T10:31:45.987Z</time></trkpt><trkpt lat="42.8594608" lon="12.0501821"><ele>280.66666666666663</ele><time>2026-04-30T10:31:46.987Z</time></trkpt><trkpt lat="42.85925" lon="12.0501995"><ele>281.3333333333333</ele><time>2026-04-30T10:31:47.987Z</time></trkpt><trkpt lat="42.8590556" lon="12.0502374"><ele>282.0</ele><time>2026-04-30T10:31:48.988Z</time></trkpt><trkpt lat="42.8588766" lon="12.0502798"><ele>282.0</ele><time>2026-04-30T10:31:49.987Z</time></trkpt><trkpt lat="42.8587081" lon="12.0503234"><ele>282.0</ele><time>2026-04-30T10:31:50.987Z</time></trkpt><trkpt lat="42.8585448" lon="12.0503717"><ele>282.0</ele><time>2026-04-30T10:31:51.987Z</time></trkpt><trkpt lat="42.8583968" lon="12.0504253"><ele>281.75</ele><time>2026-04-30T10:31:52.987Z</time></trkpt><trkpt lat="42.8582628" lon="12.0504864"><ele>281.5</ele><time>2026-04-30T10:31:53.988Z</time></trkpt><trkpt lat="42.858145" lon="12.0505789"><ele>281.25</ele><time>2026-04-30T10:31:54.987Z</time></trkpt><trkpt lat="42.8580446" lon="12.0506894"><ele>281.0</ele><time>2026-04-30T10:31:55.987Z</time></trkpt><trkpt lat="42.8579562" lon="12.0507988"><ele>282.0</ele><time>2026-04-30T10:31:56.987Z</time></trkpt><trkpt lat="42.8578739" lon="12.0508974"><ele>283.0</ele><time>2026-04-30T10:31:57.987Z</time></trkpt><trkpt lat="42.8577906" lon="12.050992"><ele>284.0</ele><time>2026-04-30T10:31:58.987Z</time></trkpt><trkpt lat="42.8577137" lon="12.0510759"><ele>285.0</ele><time>2026-04-30T10:31:59.987Z</time></trkpt><trkpt lat="42.857642" lon="12.0511542"><ele>286.0</ele><time>2026-04-30T10:32:00.987Z</time></trkpt><trkpt lat="42.8575809" lon="12.0512411"><ele>286.0</ele><time>2026-04-30T10:32:01.988Z</time></trkpt><trkpt lat="42.8575444" lon="12.0513398"><ele>286.0</ele><time>2026-04-30T10:32:02.988Z</time></trkpt><trkpt lat="42.8575502" lon="12.0514374"><ele>286.0</ele><time>2026-04-30T10:32:03.988Z</time></trkpt><trkpt lat="42.8576" lon="12.0515185"><ele>286.0</ele><time>2026-04-30T10:32:04.987Z</time></trkpt><trkpt lat="42.8576724" lon="12.0515655"><ele>286.0</ele><time>2026-04-30T10:32:05.987Z</time></trkpt><trkpt lat="42.8577599" lon="12.0515371"><ele>286.0</ele><time>2026-04-30T10:32:06.987Z</time></trkpt><trkpt lat="42.857848" lon="12.0514576"><ele>288.40000000000003</ele><time>2026-04-30T10:32:07.987Z</time></trkpt><trkpt lat="42.8579302" lon="12.0513638"><ele>290.8</ele><time>2026-04-30T10:32:08.987Z</time></trkpt><trkpt lat="42.8580057" lon="12.0512647"><ele>293.20000000000005</ele><time>2026-04-30T10:32:09.987Z</time></trkpt><trkpt lat="42.858076" lon="12.051159"><ele>295.6</ele><time>2026-04-30T10:32:10.987Z</time></trkpt><trkpt lat="42.8581462" lon="12.0510513"><ele>298.0</ele><time>2026-04-30T10:32:11.988Z</time></trkpt><trkpt lat="42.8582325" lon="12.0509675"><ele>298.0</ele><time>2026-04-30T10:32:12.987Z</time></trkpt><trkpt lat="42.8583341" lon="12.0509316"><ele>298.0</ele><time>2026-04-30T10:32:13.987Z</time></trkpt><trkpt lat="42.8584364" lon="12.0509465"><ele>298.0</ele><time>2026-04-30T10:32:14.987Z</time></trkpt><trkpt lat="42.8585351" lon="12.0509904"><ele>298.0</ele><time>2026-04-30T10:32:15.987Z</time></trkpt><trkpt lat="42.858626" lon="12.0510412"><ele>298.0</ele><time>2026-04-30T10:32:16.988Z</time></trkpt><trkpt lat="42.8587172" lon="12.0510978"><ele>298.2</ele><time>2026-04-30T10:32:17.987Z</time></trkpt><trkpt lat="42.8588138" lon="12.0511506"><ele>298.4</ele><time>2026-04-30T10:32:18.987Z</time></trkpt><trkpt lat="42.858915" lon="12.051203"><ele>298.59999999999997</ele><time>2026-04-30T10:32:19.987Z</time></trkpt><trkpt lat="42.8590236" lon="12.0512583"><ele>298.8</ele><time>2026-04-30T10:32:20.987Z</time></trkpt><trkpt lat="42.8591343" lon="12.0513124"><ele>299.0</ele><time>2026-04-30T10:32:21.987Z</time></trkpt><trkpt lat="42.8592451" lon="12.0513481"><ele>299.33333333333337</ele><time>2026-04-30T10:32:22.988Z</time></trkpt><trkpt lat="42.8593502" lon="12.0513656"><ele>299.6666666666667</ele><time>2026-04-30T10:32:23.988Z</time></trkpt><trkpt lat="42.8594462" lon="12.0513734"><ele>300.0</ele><time>2026-04-30T10:32:24.987Z</time></trkpt><trkpt lat="42.859533" lon="12.0513746"><ele>300.3333333333333</ele><time>2026-04-30T10:32:25.987Z</time></trkpt><trkpt lat="42.8596083" lon="12.0513858"><ele>300.66666666666663</ele><time>2026-04-30T10:32:26.987Z</time></trkpt><trkpt lat="42.8596623" lon="12.0514358"><ele>301.0</ele><time>2026-04-30T10:32:27.988Z</time></trkpt><trkpt lat="42.8596678" lon="12.0515987"><ele>302.2</ele><time>2026-04-30T10:32:29.987Z</time></trkpt><trkpt lat="42.8596116" lon="12.0516681"><ele>303.40000000000003</ele><time>2026-04-30T10:32:30.987Z</time></trkpt><trkpt lat="42.8595284" lon="12.0517346"><ele>304.6</ele><time>2026-04-30T10:32:31.987Z</time></trkpt><trkpt lat="42.8594183" lon="12.0518032"><ele>305.8</ele><time>2026-04-30T10:32:32.987Z</time></trkpt><trkpt lat="42.8592864" lon="12.0518779"><ele>307.0</ele><time>2026-04-30T10:32:33.987Z</time></trkpt><trkpt lat="42.8591301" lon="12.0519443"><ele>309.0</ele><time>2026-04-30T10:32:34.988Z</time></trkpt><trkpt lat="42.8589625" lon="12.0520035"><ele>311.0</ele><time>2026-04-30T10:32:35.987Z</time></trkpt><trkpt lat="42.8587765" lon="12.0520489"><ele>313.0</ele><time>2026-04-30T10:32:36.987Z</time></trkpt><trkpt lat="42.8585841" lon="12.0520887"><ele>312.66666666666663</ele><time>2026-04-30T10:32:37.987Z</time></trkpt><trkpt lat="42.8583795" lon="12.0521317"><ele>312.3333333333333</ele><time>2026-04-30T10:32:38.988Z</time></trkpt><trkpt lat="42.8581745" lon="12.0522011"><ele>312.0</ele><time>2026-04-30T10:32:39.987Z</time></trkpt><trkpt lat="42.8579712" lon="12.0523228"><ele>316.0</ele><time>2026-04-30T10:32:40.987Z</time></trkpt><trkpt lat="42.8577768" lon="12.0524881"><ele>320.0</ele><time>2026-04-30T10:32:41.987Z</time></trkpt><trkpt lat="42.8576092" lon="12.0526914"><ele>320.0</ele><time>2026-04-30T10:32:42.987Z</time></trkpt><trkpt lat="42.8574435" lon="12.0528791"><ele>320.0</ele><time>2026-04-30T10:32:43.987Z</time></trkpt><trkpt lat="42.8572556" lon="12.0530204"><ele>320.0</ele><time>2026-04-30T10:32:44.987Z</time></trkpt><trkpt lat="42.8570571" lon="12.0531146"><ele>320.0</ele><time>2026-04-30T10:32:45.987Z</time></trkpt><trkpt lat="42.8568561" lon="12.0531436"><ele>320.0</ele><time>2026-04-30T10:32:46.987Z</time></trkpt><trkpt lat="42.8566534" lon="12.0531369"><ele>320.0</ele><time>2026-04-30T10:32:47.987Z</time></trkpt><trkpt lat="42.8564549" lon="12.0531616"><ele>320.6666666666667</ele><time>2026-04-30T10:32:48.988Z</time></trkpt><trkpt lat="42.856268" lon="12.0532339"><ele>321.3333333333333</ele><time>2026-04-30T10:32:49.988Z</time></trkpt><trkpt lat="42.8561011" lon="12.0533313"><ele>322.0</ele><time>2026-04-30T10:32:50.987Z</time></trkpt><trkpt lat="42.855948" lon="12.0534293"><ele>327.5</ele><time>2026-04-30T10:32:51.987Z</time></trkpt><trkpt lat="42.8558039" lon="12.0534839"><ele>333.0</ele><time>2026-04-30T10:32:52.987Z</time></trkpt><trkpt lat="42.8556755" lon="12.0534744"><ele>338.5</ele><time>2026-04-30T10:32:53.988Z</time></trkpt><trkpt lat="42.8555875" lon="12.0533829"><ele>344.0</ele><time>2026-04-30T10:32:54.988Z</time></trkpt><trkpt lat="42.8555432" lon="12.0532381"><ele>344.0</ele><time>2026-04-30T10:32:55.987Z</time></trkpt><trkpt lat="42.8555636" lon="12.0530445"><ele>344.0</ele><time>2026-04-30T10:32:56.987Z</time></trkpt><trkpt lat="42.8555971" lon="12.0528489"><ele>344.0</ele><time>2026-04-30T10:32:57.988Z</time></trkpt><trkpt lat="42.8556098" lon="12.0526592"><ele>344.0</ele><time>2026-04-30T10:32:58.987Z</time></trkpt><trkpt lat="42.8555783" lon="12.0524937"><ele>344.0</ele><time>2026-04-30T10:32:59.987Z</time></trkpt><trkpt lat="42.8554982" lon="12.0523998"><ele>344.0</ele><time>2026-04-30T10:33:00.987Z</time></trkpt><trkpt lat="42.8553941" lon="12.0523886"><ele>344.0</ele><time>2026-04-30T10:33:01.987Z</time></trkpt><trkpt lat="42.8552787" lon="12.0524498"><ele>344.0</ele><time>2026-04-30T10:33:02.987Z</time></trkpt><trkpt lat="42.855146" lon="12.0525443"><ele>346.33333333333337</ele><time>2026-04-30T10:33:03.987Z</time></trkpt><trkpt lat="42.8549945" lon="12.0526605"><ele>348.6666666666667</ele><time>2026-04-30T10:33:04.987Z</time></trkpt><trkpt lat="42.8548334" lon="12.0527625"><ele>351.0</ele><time>2026-04-30T10:33:05.987Z</time></trkpt><trkpt lat="42.8546586" lon="12.0528288"><ele>351.0</ele><time>2026-04-30T10:33:06.987Z</time></trkpt><trkpt lat="42.8544829" lon="12.0528694"><ele>351.0</ele><time>2026-04-30T10:33:07.987Z</time></trkpt><trkpt lat="42.8543212" lon="12.0529067"><ele>351.0</ele><time>2026-04-30T10:33:08.987Z</time></trkpt><trkpt lat="42.8542004" lon="12.0529692"><ele>351.5</ele><time>2026-04-30T10:33:09.987Z</time></trkpt><trkpt lat="42.8541192" lon="12.0530833"><ele>352.0</ele><time>2026-04-30T10:33:10.988Z</time></trkpt><trkpt lat="42.8540953" lon="12.0532307"><ele>352.5</ele><time>2026-04-30T10:33:11.988Z</time></trkpt><trkpt lat="42.8541283" lon="12.0533905"><ele>353.0</ele><time>2026-04-30T10:33:12.987Z</time></trkpt><trkpt lat="42.8542157" lon="12.0535452"><ele>356.0</ele><time>2026-04-30T10:33:13.988Z</time></trkpt><trkpt lat="42.8543344" lon="12.0536984"><ele>359.0</ele><time>2026-04-30T10:33:14.987Z</time></trkpt><trkpt lat="42.8544571" lon="12.0538645"><ele>362.0</ele><time>2026-04-30T10:33:15.988Z</time></trkpt><trkpt lat="42.8545563" lon="12.0540576"><ele>363.33333333333337</ele><time>2026-04-30T10:33:16.987Z</time></trkpt><trkpt lat="42.8546256" lon="12.054265"><ele>364.6666666666667</ele><time>2026-04-30T10:33:17.987Z</time></trkpt><trkpt lat="42.8546449" lon="12.0544844"><ele>366.0</ele><time>2026-04-30T10:33:18.987Z</time></trkpt><trkpt lat="42.8546117" lon="12.0547006"><ele>366.0</ele><time>2026-04-30T10:33:19.987Z</time></trkpt><trkpt lat="42.8545301" lon="12.0549105"><ele>366.0</ele><time>2026-04-30T10:33:20.988Z</time></trkpt><trkpt lat="42.8544716" lon="12.055137"><ele>366.0</ele><time>2026-04-30T10:33:21.988Z</time></trkpt><trkpt lat="42.854465" lon="12.0553704"><ele>367.0</ele><time>2026-04-30T10:33:22.987Z</time></trkpt><trkpt lat="42.854522" lon="12.0555858"><ele>368.0</ele><time>2026-04-30T10:33:23.987Z</time></trkpt><trkpt lat="42.8546281" lon="12.0557777"><ele>369.0</ele><time>2026-04-30T10:33:24.987Z</time></trkpt><trkpt lat="42.8547596" lon="12.0559572"><ele>369.0</ele><time>2026-04-30T10:33:25.988Z</time></trkpt><trkpt lat="42.8549152" lon="12.0561233"><ele>369.0</ele><time>2026-04-30T10:33:26.987Z</time></trkpt><trkpt lat="42.8550962" lon="12.0562618"><ele>369.0</ele><time>2026-04-30T10:33:27.987Z</time></trkpt><trkpt lat="42.8552848" lon="12.0563708"><ele>368.0</ele><time>2026-04-30T10:33:28.987Z</time></trkpt><trkpt lat="42.8554726" lon="12.0564657"><ele>367.0</ele><time>2026-04-30T10:33:29.987Z</time></trkpt><trkpt lat="42.8556495" lon="12.0565469"><ele>366.0</ele><time>2026-04-30T10:33:30.987Z</time></trkpt><trkpt lat="42.8558016" lon="12.0566402"><ele>367.5</ele><time>2026-04-30T10:33:31.987Z</time></trkpt><trkpt lat="42.8559241" lon="12.0567713"><ele>369.0</ele><time>2026-04-30T10:33:32.987Z</time></trkpt><trkpt lat="42.8560071" lon="12.056936"><ele>370.5</ele><time>2026-04-30T10:33:33.987Z</time></trkpt><trkpt lat="42.8560367" lon="12.0571248"><ele>372.0</ele><time>2026-04-30T10:33:34.987Z</time></trkpt><trkpt lat="42.8560015" lon="12.0573284"><ele>374.0</ele><time>2026-04-30T10:33:35.988Z</time></trkpt><trkpt lat="42.8559098" lon="12.0574862"><ele>376.0</ele><time>2026-04-30T10:33:36.988Z</time></trkpt><trkpt lat="42.8557756" lon="12.0575836"><ele>378.0</ele><time>2026-04-30T10:33:37.987Z</time></trkpt><trkpt lat="42.8556099" lon="12.0576455"><ele>378.0</ele><time>2026-04-30T10:33:38.987Z</time></trkpt><trkpt lat="42.8554327" lon="12.0576899"><ele>378.0</ele><time>2026-04-30T10:33:39.988Z</time></trkpt><trkpt lat="42.8552515" lon="12.0577295"><ele>378.0</ele><time>2026-04-30T10:33:40.987Z</time></trkpt><trkpt lat="42.8550637" lon="12.0577677"><ele>378.6666666666667</ele><time>2026-04-30T10:33:41.987Z</time></trkpt><trkpt lat="42.8548689" lon="12.0578002"><ele>379.33333333333337</ele><time>2026-04-30T10:33:42.988Z</time></trkpt><trkpt lat="42.8546773" lon="12.0577912"><ele>380.0</ele><time>2026-04-30T10:33:43.987Z</time></trkpt><trkpt lat="42.8545027" lon="12.0577183"><ele>380.0</ele><time>2026-04-30T10:33:44.987Z</time></trkpt><trkpt lat="42.8543414" lon="12.0576588"><ele>380.0</ele><time>2026-04-30T10:33:45.988Z</time></trkpt><trkpt lat="42.8541822" lon="12.0576703"><ele>380.0</ele><time>2026-04-30T10:33:46.987Z</time></trkpt><trkpt lat="42.8540418" lon="12.0577611"><ele>380.0</ele><time>2026-04-30T10:33:47.987Z</time></trkpt><trkpt lat="42.8539283" lon="12.0579274"><ele>380.0</ele><time>2026-04-30T10:33:48.988Z</time></trkpt><trkpt lat="42.853868" lon="12.058156"><ele>380.0</ele><time>2026-04-30T10:33:49.987Z</time></trkpt><trkpt lat="42.8538548" lon="12.0584186"><ele>384.33333333333337</ele><time>2026-04-30T10:33:50.987Z</time></trkpt><trkpt lat="42.8538755" lon="12.0586814"><ele>388.6666666666667</ele><time>2026-04-30T10:33:51.987Z</time></trkpt><trkpt lat="42.8539326" lon="12.0589625"><ele>393.0</ele><time>2026-04-30T10:33:52.988Z</time></trkpt><trkpt lat="42.8539881" lon="12.0592377"><ele>396.33333333333337</ele><time>2026-04-30T10:33:53.987Z</time></trkpt><trkpt lat="42.85403" lon="12.0594929"><ele>399.6666666666667</ele><time>2026-04-30T10:33:54.987Z</time></trkpt><trkpt lat="42.8540366" lon="12.0597289"><ele>403.0</ele><time>2026-04-30T10:33:55.987Z</time></trkpt><trkpt lat="42.8539859" lon="12.059917"><ele>402.25</ele><time>2026-04-30T10:33:56.987Z</time></trkpt><trkpt lat="42.8538824" lon="12.0600443"><ele>401.5</ele><time>2026-04-30T10:33:57.987Z</time></trkpt><trkpt lat="42.8537485" lon="12.0601066"><ele>400.75</ele><time>2026-04-30T10:33:58.987Z</time></trkpt><trkpt lat="42.8535918" lon="12.0601314"><ele>400.0</ele><time>2026-04-30T10:33:59.987Z</time></trkpt><trkpt lat="42.8534451" lon="12.060188"><ele>400.0</ele><time>2026-04-30T10:34:00.988Z</time></trkpt><trkpt lat="42.8532985" lon="12.0602849"><ele>400.0</ele><time>2026-04-30T10:34:01.987Z</time></trkpt><trkpt lat="42.8531651" lon="12.0604197"><ele>400.0</ele><time>2026-04-30T10:34:02.987Z</time></trkpt><trkpt lat="42.8530801" lon="12.0605939"><ele>405.33333333333337</ele><time>2026-04-30T10:34:03.987Z</time></trkpt><trkpt lat="42.853048" lon="12.0607972"><ele>410.66666666666663</ele><time>2026-04-30T10:34:04.987Z</time></trkpt><trkpt lat="42.8530791" lon="12.0610228"><ele>416.0</ele><time>2026-04-30T10:34:05.987Z</time></trkpt><trkpt lat="42.853149" lon="12.0612601"><ele>416.0</ele><time>2026-04-30T10:34:06.987Z</time></trkpt><trkpt lat="42.8532451" lon="12.0614905"><ele>416.0</ele><time>2026-04-30T10:34:07.987Z</time></trkpt><trkpt lat="42.8533573" lon="12.0617062"><ele>416.0</ele><time>2026-04-30T10:34:08.987Z</time></trkpt><trkpt lat="42.8534868" lon="12.0619085"><ele>424.3333333333333</ele><time>2026-04-30T10:34:09.988Z</time></trkpt><trkpt lat="42.8536361" lon="12.0620986"><ele>432.66666666666663</ele><time>2026-04-30T10:34:10.987Z</time></trkpt><trkpt lat="42.8538026" lon="12.0622832"><ele>441.0</ele><time>2026-04-30T10:34:11.988Z</time></trkpt><trkpt lat="42.8539756" lon="12.0624376"><ele>440.66666666666663</ele><time>2026-04-30T10:34:12.987Z</time></trkpt><trkpt lat="42.8541534" lon="12.0625638"><ele>440.3333333333333</ele><time>2026-04-30T10:34:13.988Z</time></trkpt><trkpt lat="42.8543295" lon="12.0626749"><ele>440.0</ele><time>2026-04-30T10:34:14.987Z</time></trkpt><trkpt lat="42.8544838" lon="12.062784"><ele>440.0</ele><time>2026-04-30T10:34:15.988Z</time></trkpt><trkpt lat="42.8546062" lon="12.0629106"><ele>440.0</ele><time>2026-04-30T10:34:16.987Z</time></trkpt><trkpt lat="42.8546902" lon="12.0630548"><ele>440.0</ele><time>2026-04-30T10:34:17.987Z</time></trkpt><trkpt lat="42.8547106" lon="12.0632316"><ele>440.0</ele><time>2026-04-30T10:34:18.988Z</time></trkpt><trkpt lat="42.854659" lon="12.063447"><ele>438.3333333333333</ele><time>2026-04-30T10:34:19.988Z</time></trkpt><trkpt lat="42.8545684" lon="12.0636643"><ele>436.66666666666663</ele><time>2026-04-30T10:34:20.987Z</time></trkpt><trkpt lat="42.8544472" lon="12.0638742"><ele>435.0</ele><time>2026-04-30T10:34:21.988Z</time></trkpt><trkpt lat="42.8543099" lon="12.0640692"><ele>435.0</ele><time>2026-04-30T10:34:22.987Z</time></trkpt><trkpt lat="42.8541445" lon="12.0642351"><ele>435.0</ele><time>2026-04-30T10:34:23.987Z</time></trkpt><trkpt lat="42.8539599" lon="12.0643465"><ele>435.0</ele><time>2026-04-30T10:34:24.988Z</time></trkpt><trkpt lat="42.8537493" lon="12.0644116"><ele>435.0</ele><time>2026-04-30T10:34:25.987Z</time></trkpt><trkpt lat="42.8535364" lon="12.0644399"><ele>435.0</ele><time>2026-04-30T10:34:26.988Z</time></trkpt><trkpt lat="42.8533204" lon="12.0644564"><ele>435.0</ele><time>2026-04-30T10:34:27.987Z</time></trkpt><trkpt lat="42.8531161" lon="12.0644753"><ele>437.33333333333337</ele><time>2026-04-30T10:34:28.987Z</time></trkpt><trkpt lat="42.8529151" lon="12.0645095"><ele>439.6666666666667</ele><time>2026-04-30T10:34:29.987Z</time></trkpt><trkpt lat="42.8527252" lon="12.0645925"><ele>442.0</ele><time>2026-04-30T10:34:30.987Z</time></trkpt><trkpt lat="42.8525545" lon="12.0647306"><ele>443.0</ele><time>2026-04-30T10:34:31.987Z</time></trkpt><trkpt lat="42.8524129" lon="12.0649257"><ele>444.0</ele><time>2026-04-30T10:34:32.987Z</time></trkpt><trkpt lat="42.852311" lon="12.065164"><ele>445.0</ele><time>2026-04-30T10:34:33.987Z</time></trkpt><trkpt lat="42.8522585" lon="12.0654341"><ele>445.0</ele><time>2026-04-30T10:34:34.987Z</time></trkpt><trkpt lat="42.8522519" lon="12.0657191"><ele>445.0</ele><time>2026-04-30T10:34:35.987Z</time></trkpt><trkpt lat="42.8522818" lon="12.0659957"><ele>445.0</ele><time>2026-04-30T10:34:36.987Z</time></trkpt><trkpt lat="42.8523292" lon="12.066276"><ele>446.6666666666667</ele><time>2026-04-30T10:34:37.987Z</time></trkpt><trkpt lat="42.852375" lon="12.0665459"><ele>448.33333333333337</ele><time>2026-04-30T10:34:38.987Z</time></trkpt><trkpt lat="42.8523868" lon="12.0668004"><ele>450.0</ele><time>2026-04-30T10:34:39.988Z</time></trkpt><trkpt lat="42.8523462" lon="12.0670255"><ele>451.66666666666663</ele><time>2026-04-30T10:34:40.987Z</time></trkpt><trkpt lat="42.8522492" lon="12.0671998"><ele>453.3333333333333</ele><time>2026-04-30T10:34:41.987Z</time></trkpt><trkpt lat="42.8521168" lon="12.0672977"><ele>455.0</ele><time>2026-04-30T10:34:42.987Z</time></trkpt><trkpt lat="42.8519563" lon="12.0673244"><ele>453.3333333333333</ele><time>2026-04-30T10:34:43.987Z</time></trkpt><trkpt lat="42.8517737" lon="12.067306"><ele>451.66666666666663</ele><time>2026-04-30T10:34:44.988Z</time></trkpt><trkpt lat="42.8515825" lon="12.067307"><ele>450.0</ele><time>2026-04-30T10:34:45.987Z</time></trkpt><trkpt lat="42.8513988" lon="12.0673554"><ele>452.33333333333337</ele><time>2026-04-30T10:34:46.987Z</time></trkpt><trkpt lat="42.8512333" lon="12.0674735"><ele>454.6666666666667</ele><time>2026-04-30T10:34:47.987Z</time></trkpt><trkpt lat="42.8510897" lon="12.0676517"><ele>457.0</ele><time>2026-04-30T10:34:48.987Z</time></trkpt><trkpt lat="42.8509443" lon="12.0678256"><ele>457.0</ele><time>2026-04-30T10:34:49.987Z</time></trkpt><trkpt lat="42.850782" lon="12.0679523"><ele>457.0</ele><time>2026-04-30T10:34:50.987Z</time></trkpt><trkpt lat="42.8506046" lon="12.0680148"><ele>457.0</ele><time>2026-04-30T10:34:51.987Z</time></trkpt><trkpt lat="42.8504162" lon="12.068009"><ele>457.0</ele><time>2026-04-30T10:34:52.987Z</time></trkpt><trkpt lat="42.8502238" lon="12.0679687"><ele>457.0</ele><time>2026-04-30T10:34:53.987Z</time></trkpt><trkpt lat="42.8500655" lon="12.0679263"><ele>457.0</ele><time>2026-04-30T10:34:54.987Z</time></trkpt><trkpt lat="42.8499384" lon="12.0678868"><ele>458.33333333333337</ele><time>2026-04-30T10:34:55.987Z</time></trkpt><trkpt lat="42.8498378" lon="12.0678619"><ele>459.6666666666667</ele><time>2026-04-30T10:34:56.987Z</time></trkpt><trkpt lat="42.849757" lon="12.0678415"><ele>461.0</ele><time>2026-04-30T10:34:57.987Z</time></trkpt><trkpt lat="42.8496873" lon="12.0678309"><ele>462.33333333333337</ele><time>2026-04-30T10:34:58.988Z</time></trkpt><trkpt lat="42.8495722" lon="12.0678251"><ele>463.6666666666667</ele><time>2026-04-30T10:35:00.987Z</time></trkpt><trkpt lat="42.8495081" lon="12.0678214"><ele>465.0</ele><time>2026-04-30T10:35:01.987Z</time></trkpt><trkpt lat="42.8494253" lon="12.067824"><ele>465.0</ele><time>2026-04-30T10:35:02.988Z</time></trkpt><trkpt lat="42.8493288" lon="12.0678397"><ele>465.0</ele><time>2026-04-30T10:35:03.987Z</time></trkpt><trkpt lat="42.8492222" lon="12.0678666"><ele>465.0</ele><time>2026-04-30T10:35:04.987Z</time></trkpt><trkpt lat="42.849112" lon="12.0678934"><ele>465.0</ele><time>2026-04-30T10:35:05.987Z</time></trkpt><trkpt lat="42.8489951" lon="12.0679167"><ele>465.0</ele><time>2026-04-30T10:35:06.987Z</time></trkpt><trkpt lat="42.8488659" lon="12.0679211"><ele>465.6</ele><time>2026-04-30T10:35:07.987Z</time></trkpt><trkpt lat="42.8487395" lon="12.0679035"><ele>466.2</ele><time>2026-04-30T10:35:08.987Z</time></trkpt><trkpt lat="42.8486247" lon="12.0678777"><ele>466.79999999999995</ele><time>2026-04-30T10:35:09.987Z</time></trkpt><trkpt lat="42.8485256" lon="12.0678463"><ele>467.4</ele><time>2026-04-30T10:35:10.987Z</time></trkpt><trkpt lat="42.8484374" lon="12.0678148"><ele>468.0</ele><time>2026-04-30T10:35:11.988Z</time></trkpt><trkpt lat="42.8483515" lon="12.0677826"><ele>468.0</ele><time>2026-04-30T10:35:12.987Z</time></trkpt><trkpt lat="42.8482526" lon="12.0677546"><ele>468.0</ele><time>2026-04-30T10:35:13.987Z</time></trkpt><trkpt lat="42.8481358" lon="12.0677272"><ele>468.0</ele><time>2026-04-30T10:35:14.987Z</time></trkpt><trkpt lat="42.8480096" lon="12.0676817"><ele>468.0</ele><time>2026-04-30T10:35:15.987Z</time></trkpt><trkpt lat="42.8478737" lon="12.0675983"><ele>468.0</ele><time>2026-04-30T10:35:16.987Z</time></trkpt><trkpt lat="42.8477442" lon="12.0674874"><ele>468.0</ele><time>2026-04-30T10:35:17.987Z</time></trkpt><trkpt lat="42.8476131" lon="12.0673562"><ele>468.0</ele><time>2026-04-30T10:35:18.987Z</time></trkpt><trkpt lat="42.8474914" lon="12.0671981"><ele>466.0</ele><time>2026-04-30T10:35:19.987Z</time></trkpt><trkpt lat="42.8473793" lon="12.0670159"><ele>464.0</ele><time>2026-04-30T10:35:20.988Z</time></trkpt><trkpt lat="42.8472785" lon="12.0668164"><ele>462.0</ele><time>2026-04-30T10:35:21.987Z</time></trkpt><trkpt lat="42.8471859" lon="12.0666174"><ele>462.0</ele><time>2026-04-30T10:35:22.987Z</time></trkpt><trkpt lat="42.8470921" lon="12.0664232"><ele>462.0</ele><time>2026-04-30T10:35:23.987Z</time></trkpt><trkpt lat="42.8469963" lon="12.0662288"><ele>462.0</ele><time>2026-04-30T10:35:24.987Z</time></trkpt><trkpt lat="42.8468906" lon="12.0660415"><ele>461.0</ele><time>2026-04-30T10:35:25.987Z</time></trkpt><trkpt lat="42.8467659" lon="12.065862"><ele>460.0</ele><time>2026-04-30T10:35:26.987Z</time></trkpt><trkpt lat="42.8466279" lon="12.0656918"><ele>459.0</ele><time>2026-04-30T10:35:27.987Z</time></trkpt><trkpt lat="42.8464782" lon="12.0655328"><ele>458.0</ele><time>2026-04-30T10:35:28.987Z</time></trkpt><trkpt lat="42.8463124" lon="12.0653867"><ele>457.0</ele><time>2026-04-30T10:35:29.987Z</time></trkpt><trkpt lat="42.8461362" lon="12.0652459"><ele>456.0</ele><time>2026-04-30T10:35:30.987Z</time></trkpt><trkpt lat="42.8459553" lon="12.0651187"><ele>456.0</ele><time>2026-04-30T10:35:31.988Z</time></trkpt><trkpt lat="42.8457656" lon="12.0650197"><ele>456.0</ele><time>2026-04-30T10:35:32.987Z</time></trkpt><trkpt lat="42.8455627" lon="12.0649529"><ele>456.0</ele><time>2026-04-30T10:35:33.988Z</time></trkpt><trkpt lat="42.8453472" lon="12.0649211"><ele>454.0</ele><time>2026-04-30T10:35:34.987Z</time></trkpt><trkpt lat="42.8451322" lon="12.0649041"><ele>452.0</ele><time>2026-04-30T10:35:35.987Z</time></trkpt><trkpt lat="42.8449122" lon="12.0649076"><ele>450.0</ele><time>2026-04-30T10:35:36.987Z</time></trkpt><trkpt lat="42.8446891" lon="12.0649334"><ele>449.66666666666663</ele><time>2026-04-30T10:35:37.988Z</time></trkpt><trkpt lat="42.8444709" lon="12.0649619"><ele>449.3333333333333</ele><time>2026-04-30T10:35:38.987Z</time></trkpt><trkpt lat="42.8442576" lon="12.0649842"><ele>449.0</ele><time>2026-04-30T10:35:39.988Z</time></trkpt><trkpt lat="42.8440596" lon="12.0649722"><ele>447.0</ele><time>2026-04-30T10:35:40.987Z</time></trkpt><trkpt lat="42.8438705" lon="12.0649344"><ele>445.0</ele><time>2026-04-30T10:35:41.987Z</time></trkpt><trkpt lat="42.8436886" lon="12.0648933"><ele>443.0</ele><time>2026-04-30T10:35:42.987Z</time></trkpt><trkpt lat="42.8435104" lon="12.0648684"><ele>441.3333333333333</ele><time>2026-04-30T10:35:43.988Z</time></trkpt><trkpt lat="42.8433296" lon="12.0648778"><ele>439.66666666666663</ele><time>2026-04-30T10:35:44.987Z</time></trkpt><trkpt lat="42.8431477" lon="12.0649215"><ele>438.0</ele><time>2026-04-30T10:35:45.988Z</time></trkpt><trkpt lat="42.8429664" lon="12.0649822"><ele>438.0</ele><time>2026-04-30T10:35:46.987Z</time></trkpt><trkpt lat="42.8427888" lon="12.0650568"><ele>438.0</ele><time>2026-04-30T10:35:47.988Z</time></trkpt><trkpt lat="42.8426144" lon="12.0651471"><ele>438.0</ele><time>2026-04-30T10:35:48.987Z</time></trkpt><trkpt lat="42.8424373" lon="12.0652455"><ele>438.0</ele><time>2026-04-30T10:35:49.988Z</time></trkpt><trkpt lat="42.8422579" lon="12.0653521"><ele>438.0</ele><time>2026-04-30T10:35:50.987Z</time></trkpt><trkpt lat="42.842075" lon="12.0654463"><ele>438.0</ele><time>2026-04-30T10:35:51.988Z</time></trkpt><trkpt lat="42.8418896" lon="12.0655304"><ele>438.0</ele><time>2026-04-30T10:35:52.988Z</time></trkpt><trkpt lat="42.8416999" lon="12.0656007"><ele>438.0</ele><time>2026-04-30T10:35:53.987Z</time></trkpt><trkpt lat="42.8415213" lon="12.0656603"><ele>438.0</ele><time>2026-04-30T10:35:54.987Z</time></trkpt><trkpt lat="42.8413431" lon="12.0657107"><ele>438.0</ele><time>2026-04-30T10:35:55.987Z</time></trkpt><trkpt lat="42.8411793" lon="12.0657551"><ele>438.0</ele><time>2026-04-30T10:35:56.988Z</time></trkpt><trkpt lat="42.8410354" lon="12.065785"><ele>438.0</ele><time>2026-04-30T10:35:57.987Z</time></trkpt><trkpt lat="42.8409027" lon="12.0657981"><ele>438.0</ele><time>2026-04-30T10:35:58.987Z</time></trkpt><trkpt lat="42.8407771" lon="12.0657971"><ele>437.25</ele><time>2026-04-30T10:35:59.987Z</time></trkpt><trkpt lat="42.8406547" lon="12.0657708"><ele>436.5</ele><time>2026-04-30T10:36:00.988Z</time></trkpt><trkpt lat="42.8405363" lon="12.0657009"><ele>435.75</ele><time>2026-04-30T10:36:01.988Z</time></trkpt><trkpt lat="42.8404182" lon="12.0655865"><ele>435.0</ele><time>2026-04-30T10:36:02.987Z</time></trkpt><trkpt lat="42.8403059" lon="12.0654648"><ele>435.0</ele><time>2026-04-30T10:36:03.987Z</time></trkpt><trkpt lat="42.8401998" lon="12.0653345"><ele>435.0</ele><time>2026-04-30T10:36:04.988Z</time></trkpt><trkpt lat="42.8400943" lon="12.0651999"><ele>435.0</ele><time>2026-04-30T10:36:05.987Z</time></trkpt><trkpt lat="42.8399948" lon="12.0650661"><ele>435.0</ele><time>2026-04-30T10:36:06.987Z</time></trkpt><trkpt lat="42.8398888" lon="12.064955"><ele>434.5</ele><time>2026-04-30T10:36:07.987Z</time></trkpt><trkpt lat="42.8397758" lon="12.0648768"><ele>434.0</ele><time>2026-04-30T10:36:08.987Z</time></trkpt><trkpt lat="42.8396472" lon="12.0648538"><ele>433.5</ele><time>2026-04-30T10:36:09.987Z</time></trkpt><trkpt lat="42.8395129" lon="12.0648912"><ele>433.0</ele><time>2026-04-30T10:36:10.987Z</time></trkpt><trkpt lat="42.8393934" lon="12.0649752"><ele>430.25</ele><time>2026-04-30T10:36:11.988Z</time></trkpt><trkpt lat="42.8393005" lon="12.0651025"><ele>427.5</ele><time>2026-04-30T10:36:12.987Z</time></trkpt><trkpt lat="42.8392513" lon="12.0652532"><ele>424.75</ele><time>2026-04-30T10:36:13.987Z</time></trkpt><trkpt lat="42.8392498" lon="12.0654248"><ele>422.0</ele><time>2026-04-30T10:36:14.987Z</time></trkpt><trkpt lat="42.8392839" lon="12.0655999"><ele>424.75</ele><time>2026-04-30T10:36:15.987Z</time></trkpt><trkpt lat="42.8393245" lon="12.0657728"><ele>427.5</ele><time>2026-04-30T10:36:16.988Z</time></trkpt><trkpt lat="42.8393619" lon="12.0659407"><ele>430.25</ele><time>2026-04-30T10:36:17.987Z</time></trkpt><trkpt lat="42.8393629" lon="12.066114"><ele>433.0</ele><time>2026-04-30T10:36:18.987Z</time></trkpt><trkpt lat="42.8393331" lon="12.0662736"><ele>431.5</ele><time>2026-04-30T10:36:19.987Z</time></trkpt><trkpt lat="42.8392693" lon="12.066421"><ele>430.0</ele><time>2026-04-30T10:36:20.987Z</time></trkpt><trkpt lat="42.8391707" lon="12.0665305"><ele>428.5</ele><time>2026-04-30T10:36:21.987Z</time></trkpt><trkpt lat="42.8390632" lon="12.0665713"><ele>427.0</ele><time>2026-04-30T10:36:22.987Z</time></trkpt><trkpt lat="42.8389557" lon="12.0665413"><ele>427.0</ele><time>2026-04-30T10:36:23.987Z</time></trkpt><trkpt lat="42.8388597" lon="12.0664492"><ele>427.0</ele><time>2026-04-30T10:36:24.987Z</time></trkpt><trkpt lat="42.8387758" lon="12.066316"><ele>427.0</ele><time>2026-04-30T10:36:25.987Z</time></trkpt><trkpt lat="42.8386952" lon="12.0661651"><ele>427.0</ele><time>2026-04-30T10:36:26.987Z</time></trkpt><trkpt lat="42.8386185" lon="12.0660054"><ele>427.0</ele><time>2026-04-30T10:36:27.987Z</time></trkpt><trkpt lat="42.8385308" lon="12.0658686"><ele>427.0</ele><time>2026-04-30T10:36:28.988Z</time></trkpt><trkpt lat="42.8384236" lon="12.0657701"><ele>427.0</ele><time>2026-04-30T10:36:29.987Z</time></trkpt><trkpt lat="42.8383086" lon="12.0656934"><ele>427.0</ele><time>2026-04-30T10:36:30.987Z</time></trkpt><trkpt lat="42.8381866" lon="12.0656599"><ele>423.75</ele><time>2026-04-30T10:36:31.987Z</time></trkpt><trkpt lat="42.8380555" lon="12.0656637"><ele>420.5</ele><time>2026-04-30T10:36:32.988Z</time></trkpt><trkpt lat="42.8379146" lon="12.0656641"><ele>417.25</ele><time>2026-04-30T10:36:33.988Z</time></trkpt><trkpt lat="42.837769" lon="12.0656602"><ele>414.0</ele><time>2026-04-30T10:36:34.988Z</time></trkpt><trkpt lat="42.8376213" lon="12.0656538"><ele>413.66666666666663</ele><time>2026-04-30T10:36:35.987Z</time></trkpt><trkpt lat="42.8374723" lon="12.0656583"><ele>413.3333333333333</ele><time>2026-04-30T10:36:36.987Z</time></trkpt><trkpt lat="42.8373211" lon="12.0656696"><ele>413.0</ele><time>2026-04-30T10:36:37.987Z</time></trkpt><trkpt lat="42.837163" lon="12.065674"><ele>413.0</ele><time>2026-04-30T10:36:38.987Z</time></trkpt><trkpt lat="42.8370087" lon="12.0656441"><ele>413.0</ele><time>2026-04-30T10:36:39.987Z</time></trkpt><trkpt lat="42.8368508" lon="12.0655975"><ele>413.0</ele><time>2026-04-30T10:36:40.988Z</time></trkpt><trkpt lat="42.8366943" lon="12.0655522"><ele>413.0</ele><time>2026-04-30T10:36:41.987Z</time></trkpt><trkpt lat="42.8365293" lon="12.0654897"><ele>413.0</ele><time>2026-04-30T10:36:42.987Z</time></trkpt><trkpt lat="42.8363518" lon="12.0654414"><ele>413.0</ele><time>2026-04-30T10:36:43.987Z</time></trkpt><trkpt lat="42.8361731" lon="12.0654198"><ele>413.0</ele><time>2026-04-30T10:36:44.987Z</time></trkpt><trkpt lat="42.8359932" lon="12.0654133"><ele>413.0</ele><time>2026-04-30T10:36:45.987Z</time></trkpt><trkpt lat="42.8358101" lon="12.0654124"><ele>413.0</ele><time>2026-04-30T10:36:46.987Z</time></trkpt><trkpt lat="42.8356226" lon="12.0654299"><ele>412.0</ele><time>2026-04-30T10:36:47.988Z</time></trkpt><trkpt lat="42.8354462" lon="12.0654497"><ele>411.0</ele><time>2026-04-30T10:36:48.987Z</time></trkpt><trkpt lat="42.8352729" lon="12.0654665"><ele>410.0</ele><time>2026-04-30T10:36:49.987Z</time></trkpt><trkpt lat="42.8351119" lon="12.0654739"><ele>408.5</ele><time>2026-04-30T10:36:50.988Z</time></trkpt><trkpt lat="42.8349614" lon="12.0654832"><ele>407.0</ele><time>2026-04-30T10:36:51.988Z</time></trkpt><trkpt lat="42.8348289" lon="12.0655048"><ele>405.5</ele><time>2026-04-30T10:36:52.987Z</time></trkpt><trkpt lat="42.8347205" lon="12.0655725"><ele>404.0</ele><time>2026-04-30T10:36:53.987Z</time></trkpt><trkpt lat="42.8346453" lon="12.0656948"><ele>410.5</ele><time>2026-04-30T10:36:54.988Z</time></trkpt><trkpt lat="42.8345921" lon="12.065845"><ele>417.0</ele><time>2026-04-30T10:36:55.987Z</time></trkpt><trkpt lat="42.8345341" lon="12.0660088"><ele>423.5</ele><time>2026-04-30T10:36:56.987Z</time></trkpt><trkpt lat="42.834446" lon="12.0661306"><ele>430.0</ele><time>2026-04-30T10:36:57.987Z</time></trkpt><trkpt lat="42.8343296" lon="12.0662116"><ele>428.25</ele><time>2026-04-30T10:36:58.987Z</time></trkpt><trkpt lat="42.8342029" lon="12.066261"><ele>426.5</ele><time>2026-04-30T10:36:59.987Z</time></trkpt><trkpt lat="42.834067" lon="12.0662898"><ele>424.75</ele><time>2026-04-30T10:37:00.988Z</time></trkpt><trkpt lat="42.8339269" lon="12.0663036"><ele>423.0</ele><time>2026-04-30T10:37:01.987Z</time></trkpt><trkpt lat="42.833782" lon="12.0663035"><ele>423.0</ele><time>2026-04-30T10:37:02.987Z</time></trkpt><trkpt lat="42.8336377" lon="12.0663235"><ele>423.0</ele><time>2026-04-30T10:37:03.987Z</time></trkpt><trkpt lat="42.8334951" lon="12.0663532"><ele>423.0</ele><time>2026-04-30T10:37:04.987Z</time></trkpt><trkpt lat="42.8333471" lon="12.066371"><ele>423.0</ele><time>2026-04-30T10:37:05.987Z</time></trkpt><trkpt lat="42.8332062" lon="12.0663958"><ele>425.0</ele><time>2026-04-30T10:37:06.987Z</time></trkpt><trkpt lat="42.833071" lon="12.0664275"><ele>427.0</ele><time>2026-04-30T10:37:07.987Z</time></trkpt><trkpt lat="42.8329337" lon="12.0664614"><ele>429.0</ele><time>2026-04-30T10:37:08.987Z</time></trkpt><trkpt lat="42.8328041" lon="12.0664846"><ele>431.0</ele><time>2026-04-30T10:37:09.988Z</time></trkpt><trkpt lat="42.8326731" lon="12.0665079"><ele>429.75</ele><time>2026-04-30T10:37:10.988Z</time></trkpt><trkpt lat="42.832543" lon="12.0665329"><ele>428.5</ele><time>2026-04-30T10:37:11.987Z</time></trkpt><trkpt lat="42.832413" lon="12.0665589"><ele>427.25</ele><time>2026-04-30T10:37:12.988Z</time></trkpt><trkpt lat="42.8322781" lon="12.0665854"><ele>426.0</ele><time>2026-04-30T10:37:13.987Z</time></trkpt><trkpt lat="42.8321416" lon="12.0666264"><ele>431.33333333333337</ele><time>2026-04-30T10:37:14.987Z</time></trkpt><trkpt lat="42.8320052" lon="12.0666855"><ele>436.6666666666667</ele><time>2026-04-30T10:37:15.988Z</time></trkpt><trkpt lat="42.8318638" lon="12.0667691"><ele>442.0</ele><time>2026-04-30T10:37:16.988Z</time></trkpt><trkpt lat="42.8317176" lon="12.066884"><ele>443.6666666666667</ele><time>2026-04-30T10:37:17.988Z</time></trkpt><trkpt lat="42.8315646" lon="12.0670108"><ele>445.33333333333337</ele><time>2026-04-30T10:37:18.988Z</time></trkpt><trkpt lat="42.8314096" lon="12.0671347"><ele>447.0</ele><time>2026-04-30T10:37:19.987Z</time></trkpt><trkpt lat="42.8312513" lon="12.0672592"><ele>447.0</ele><time>2026-04-30T10:37:20.987Z</time></trkpt><trkpt lat="42.8310917" lon="12.0673804"><ele>447.0</ele><time>2026-04-30T10:37:21.987Z</time></trkpt><trkpt lat="42.8309362" lon="12.0675073"><ele>447.0</ele><time>2026-04-30T10:37:22.987Z</time></trkpt><trkpt lat="42.8307739" lon="12.0676379"><ele>449.33333333333337</ele><time>2026-04-30T10:37:23.987Z</time></trkpt><trkpt lat="42.8306058" lon="12.0677705"><ele>451.6666666666667</ele><time>2026-04-30T10:37:24.987Z</time></trkpt><trkpt lat="42.8304291" lon="12.0679067"><ele>454.0</ele><time>2026-04-30T10:37:25.987Z</time></trkpt><trkpt lat="42.8302583" lon="12.0680468"><ele>455.33333333333337</ele><time>2026-04-30T10:37:26.987Z</time></trkpt><trkpt lat="42.830086" lon="12.0681818"><ele>456.66666666666663</ele><time>2026-04-30T10:37:27.987Z</time></trkpt><trkpt lat="42.8299152" lon="12.0683267"><ele>458.0</ele><time>2026-04-30T10:37:28.987Z</time></trkpt><trkpt lat="42.8297435" lon="12.068464"><ele>458.0</ele><time>2026-04-30T10:37:29.987Z</time></trkpt><trkpt lat="42.8295644" lon="12.0685902"><ele>458.0</ele><time>2026-04-30T10:37:30.987Z</time></trkpt><trkpt lat="42.8293805" lon="12.0686761"><ele>458.0</ele><time>2026-04-30T10:37:31.987Z</time></trkpt><trkpt lat="42.8292001" lon="12.0687017"><ele>457.66666666666663</ele><time>2026-04-30T10:37:32.988Z</time></trkpt><trkpt lat="42.8290238" lon="12.0686591"><ele>457.33333333333337</ele><time>2026-04-30T10:37:33.987Z</time></trkpt><trkpt lat="42.8288711" lon="12.0685721"><ele>457.0</ele><time>2026-04-30T10:37:34.988Z</time></trkpt><trkpt lat="42.8287415" lon="12.0684543"><ele>457.0</ele><time>2026-04-30T10:37:35.988Z</time></trkpt><trkpt lat="42.828609" lon="12.0683432"><ele>457.0</ele><time>2026-04-30T10:37:36.987Z</time></trkpt><trkpt lat="42.828454" lon="12.0682791"><ele>457.0</ele><time>2026-04-30T10:37:37.987Z</time></trkpt><trkpt lat="42.8282889" lon="12.06828"><ele>459.0</ele><time>2026-04-30T10:37:38.987Z</time></trkpt><trkpt lat="42.8281322" lon="12.0683319"><ele>461.0</ele><time>2026-04-30T10:37:39.987Z</time></trkpt><trkpt lat="42.8280003" lon="12.0684169"><ele>463.0</ele><time>2026-04-30T10:37:40.988Z</time></trkpt><trkpt lat="42.8279197" lon="12.0685417"><ele>465.0</ele><time>2026-04-30T10:37:41.988Z</time></trkpt><trkpt lat="42.8278978" lon="12.0686978"><ele>465.0</ele><time>2026-04-30T10:37:42.987Z</time></trkpt><trkpt lat="42.8279334" lon="12.0688619"><ele>465.0</ele><time>2026-04-30T10:37:43.988Z</time></trkpt><trkpt lat="42.8280063" lon="12.069025"><ele>465.0</ele><time>2026-04-30T10:37:44.987Z</time></trkpt><trkpt lat="42.8280924" lon="12.0691943"><ele>465.0</ele><time>2026-04-30T10:37:45.987Z</time></trkpt><trkpt lat="42.8281599" lon="12.069385"><ele>468.0</ele><time>2026-04-30T10:37:46.988Z</time></trkpt><trkpt lat="42.8281924" lon="12.0695974"><ele>471.0</ele><time>2026-04-30T10:37:47.987Z</time></trkpt><trkpt lat="42.8281883" lon="12.0698298"><ele>474.0</ele><time>2026-04-30T10:37:48.987Z</time></trkpt><trkpt lat="42.8281805" lon="12.0700611"><ele>475.0</ele><time>2026-04-30T10:37:49.988Z</time></trkpt><trkpt lat="42.8282003" lon="12.070283"><ele>476.0</ele><time>2026-04-30T10:37:50.987Z</time></trkpt><trkpt lat="42.8282417" lon="12.0705062"><ele>477.0</ele><time>2026-04-30T10:37:51.987Z</time></trkpt><trkpt lat="42.8282989" lon="12.0707265"><ele>477.0</ele><time>2026-04-30T10:37:52.987Z</time></trkpt><trkpt lat="42.8283692" lon="12.0709298"><ele>477.0</ele><time>2026-04-30T10:37:53.987Z</time></trkpt><trkpt lat="42.8284673" lon="12.071108"><ele>477.0</ele><time>2026-04-30T10:37:54.987Z</time></trkpt><trkpt lat="42.8285836" lon="12.0712497"><ele>480.75</ele><time>2026-04-30T10:37:55.988Z</time></trkpt><trkpt lat="42.8286946" lon="12.0713732"><ele>484.5</ele><time>2026-04-30T10:37:56.987Z</time></trkpt><trkpt lat="42.8287694" lon="12.0715052"><ele>488.25</ele><time>2026-04-30T10:37:57.987Z</time></trkpt><trkpt lat="42.828802" lon="12.0716442"><ele>492.0</ele><time>2026-04-30T10:37:58.987Z</time></trkpt><trkpt lat="42.8287835" lon="12.0717785"><ele>492.75</ele><time>2026-04-30T10:37:59.987Z</time></trkpt><trkpt lat="42.8286986" lon="12.0719033"><ele>493.5</ele><time>2026-04-30T10:38:00.988Z</time></trkpt><trkpt lat="42.8285795" lon="12.0720169"><ele>494.25</ele><time>2026-04-30T10:38:01.987Z</time></trkpt><trkpt lat="42.8284453" lon="12.0721508"><ele>495.0</ele><time>2026-04-30T10:38:02.987Z</time></trkpt><trkpt lat="42.8283271" lon="12.0723087"><ele>495.33333333333337</ele><time>2026-04-30T10:38:03.988Z</time></trkpt><trkpt lat="42.828219" lon="12.072498"><ele>495.6666666666667</ele><time>2026-04-30T10:38:04.988Z</time></trkpt><trkpt lat="42.8281007" lon="12.0726944"><ele>496.0</ele><time>2026-04-30T10:38:05.988Z</time></trkpt><trkpt lat="42.8279564" lon="12.0728688"><ele>496.0</ele><time>2026-04-30T10:38:06.987Z</time></trkpt><trkpt lat="42.8277855" lon="12.0730126"><ele>496.0</ele><time>2026-04-30T10:38:07.987Z</time></trkpt><trkpt lat="42.8275988" lon="12.0731161"><ele>496.0</ele><time>2026-04-30T10:38:08.987Z</time></trkpt><trkpt lat="42.8274011" lon="12.0731617"><ele>495.6666666666667</ele><time>2026-04-30T10:38:09.987Z</time></trkpt><trkpt lat="42.8272005" lon="12.0731903"><ele>495.33333333333337</ele><time>2026-04-30T10:38:10.987Z</time></trkpt><trkpt lat="42.8270331" lon="12.0732517"><ele>495.0</ele><time>2026-04-30T10:38:11.988Z</time></trkpt><trkpt lat="42.8268902" lon="12.0733736"><ele>497.33333333333337</ele><time>2026-04-30T10:38:12.988Z</time></trkpt><trkpt lat="42.826769" lon="12.0735541"><ele>499.6666666666667</ele><time>2026-04-30T10:38:13.987Z</time></trkpt><trkpt lat="42.8266558" lon="12.0737667"><ele>502.0</ele><time>2026-04-30T10:38:14.987Z</time></trkpt><trkpt lat="42.826521" lon="12.0739612"><ele>507.0</ele><time>2026-04-30T10:38:15.987Z</time></trkpt><trkpt lat="42.8263571" lon="12.0741125"><ele>512.0</ele><time>2026-04-30T10:38:16.987Z</time></trkpt><trkpt lat="42.8261768" lon="12.074223"><ele>517.0</ele><time>2026-04-30T10:38:17.987Z</time></trkpt><trkpt lat="42.8260016" lon="12.074301"><ele>514.6666666666667</ele><time>2026-04-30T10:38:18.987Z</time></trkpt><trkpt lat="42.8258327" lon="12.0743772"><ele>512.3333333333334</ele><time>2026-04-30T10:38:19.987Z</time></trkpt><trkpt lat="42.8256835" lon="12.0744737"><ele>510.0</ele><time>2026-04-30T10:38:20.987Z</time></trkpt><trkpt lat="42.8255737" lon="12.0746119"><ele>510.0</ele><time>2026-04-30T10:38:21.987Z</time></trkpt><trkpt lat="42.8255114" lon="12.074802"><ele>510.0</ele><time>2026-04-30T10:38:22.987Z</time></trkpt><trkpt lat="42.8254885" lon="12.0750313"><ele>510.0</ele><time>2026-04-30T10:38:23.987Z</time></trkpt><trkpt lat="42.8254788" lon="12.0752712"><ele>515.0</ele><time>2026-04-30T10:38:24.987Z</time></trkpt><trkpt lat="42.8254659" lon="12.0755178"><ele>520.0</ele><time>2026-04-30T10:38:25.987Z</time></trkpt><trkpt lat="42.8254646" lon="12.0757785"><ele>525.0</ele><time>2026-04-30T10:38:26.987Z</time></trkpt><trkpt lat="42.8254861" lon="12.0760513"><ele>527.0</ele><time>2026-04-30T10:38:27.987Z</time></trkpt><trkpt lat="42.8255268" lon="12.0763294"><ele>529.0</ele><time>2026-04-30T10:38:28.988Z</time></trkpt><trkpt lat="42.8255688" lon="12.0766166"><ele>531.0</ele><time>2026-04-30T10:38:29.987Z</time></trkpt><trkpt lat="42.8256121" lon="12.0768954"><ele>531.3333333333334</ele><time>2026-04-30T10:38:30.988Z</time></trkpt><trkpt lat="42.8256513" lon="12.0771664"><ele>531.6666666666667</ele><time>2026-04-30T10:38:31.987Z</time></trkpt><trkpt lat="42.8256785" lon="12.0774338"><ele>532.0</ele><time>2026-04-30T10:38:32.988Z</time></trkpt><trkpt lat="42.8256722" lon="12.0776944"><ele>532.0</ele><time>2026-04-30T10:38:33.988Z</time></trkpt><trkpt lat="42.8256194" lon="12.0779401"><ele>532.0</ele><time>2026-04-30T10:38:34.987Z</time></trkpt><trkpt lat="42.8255807" lon="12.0781726"><ele>532.0</ele><time>2026-04-30T10:38:35.987Z</time></trkpt><trkpt lat="42.825587" lon="12.0783953"><ele>531.3333333333334</ele><time>2026-04-30T10:38:36.988Z</time></trkpt><trkpt lat="42.825654" lon="12.0786046"><ele>530.6666666666666</ele><time>2026-04-30T10:38:37.988Z</time></trkpt><trkpt lat="42.8257719" lon="12.0787914"><ele>530.0</ele><time>2026-04-30T10:38:38.987Z</time></trkpt><trkpt lat="42.8259063" lon="12.0789785"><ele>532.6666666666666</ele><time>2026-04-30T10:38:39.987Z</time></trkpt><trkpt lat="42.826039" lon="12.0791877"><ele>535.3333333333334</ele><time>2026-04-30T10:38:40.987Z</time></trkpt><trkpt lat="42.8261654" lon="12.0793938"><ele>538.0</ele><time>2026-04-30T10:38:41.987Z</time></trkpt><trkpt lat="42.8263067" lon="12.0795767"><ele>538.0</ele><time>2026-04-30T10:38:42.987Z</time></trkpt><trkpt lat="42.8264698" lon="12.0797348"><ele>538.0</ele><time>2026-04-30T10:38:43.987Z</time></trkpt><trkpt lat="42.8266505" lon="12.0798714"><ele>538.0</ele><time>2026-04-30T10:38:44.988Z</time></trkpt><trkpt lat="42.8268297" lon="12.0800141"><ele>538.6666666666667</ele><time>2026-04-30T10:38:45.988Z</time></trkpt><trkpt lat="42.8269849" lon="12.0801918"><ele>539.3333333333334</ele><time>2026-04-30T10:38:46.987Z</time></trkpt><trkpt lat="42.8271099" lon="12.0804213"><ele>540.0</ele><time>2026-04-30T10:38:47.988Z</time></trkpt><trkpt lat="42.8272021" lon="12.080689"><ele>536.5</ele><time>2026-04-30T10:38:48.988Z</time></trkpt><trkpt lat="42.8272491" lon="12.080989"><ele>533.0</ele><time>2026-04-30T10:38:49.987Z</time></trkpt><trkpt lat="42.8272613" lon="12.0813001"><ele>532.3333333333333</ele><time>2026-04-30T10:38:50.987Z</time></trkpt><trkpt lat="42.8272635" lon="12.0816115"><ele>531.6666666666666</ele><time>2026-04-30T10:38:51.988Z</time></trkpt><trkpt lat="42.8272716" lon="12.081909"><ele>531.0</ele><time>2026-04-30T10:38:52.987Z</time></trkpt><trkpt lat="42.8272832" lon="12.0821942"><ele>532.0</ele><time>2026-04-30T10:38:53.988Z</time></trkpt><trkpt lat="42.827284" lon="12.0824566"><ele>533.0</ele><time>2026-04-30T10:38:54.987Z</time></trkpt><trkpt lat="42.8272509" lon="12.0826874"><ele>534.0</ele><time>2026-04-30T10:38:55.987Z</time></trkpt><trkpt lat="42.8271665" lon="12.082869"><ele>534.0</ele><time>2026-04-30T10:38:56.987Z</time></trkpt><trkpt lat="42.8270339" lon="12.0829884"><ele>534.0</ele><time>2026-04-30T10:38:57.987Z</time></trkpt><trkpt lat="42.8268699" lon="12.0830463"><ele>534.0</ele><time>2026-04-30T10:38:58.987Z</time></trkpt><trkpt lat="42.8266896" lon="12.0830725"><ele>535.6666666666666</ele><time>2026-04-30T10:38:59.987Z</time></trkpt><trkpt lat="42.8265055" lon="12.0831098"><ele>537.3333333333333</ele><time>2026-04-30T10:39:00.987Z</time></trkpt><trkpt lat="42.8263488" lon="12.0832006"><ele>539.0</ele><time>2026-04-30T10:39:01.987Z</time></trkpt><trkpt lat="42.8262136" lon="12.0833477"><ele>540.0</ele><time>2026-04-30T10:39:02.987Z</time></trkpt><trkpt lat="42.8261126" lon="12.0835445"><ele>541.0</ele><time>2026-04-30T10:39:03.988Z</time></trkpt><trkpt lat="42.8260401" lon="12.0837557"><ele>542.0</ele><time>2026-04-30T10:39:04.987Z</time></trkpt><trkpt lat="42.8259796" lon="12.0839354"><ele>542.2</ele><time>2026-04-30T10:39:05.987Z</time></trkpt><trkpt lat="42.8259143" lon="12.0840736"><ele>542.4000000000001</ele><time>2026-04-30T10:39:06.987Z</time></trkpt><trkpt lat="42.8258435" lon="12.0841602"><ele>542.5999999999999</ele><time>2026-04-30T10:39:07.987Z</time></trkpt><trkpt lat="42.8257617" lon="12.0841986"><ele>542.8</ele><time>2026-04-30T10:39:08.987Z</time></trkpt><trkpt lat="42.8256721" lon="12.0841767"><ele>543.0</ele><time>2026-04-30T10:39:09.987Z</time></trkpt><trkpt lat="42.8255982" lon="12.084083"><ele>543.0</ele><time>2026-04-30T10:39:10.987Z</time></trkpt><trkpt lat="42.825556" lon="12.0839322"><ele>543.0</ele><time>2026-04-30T10:39:11.987Z</time></trkpt><trkpt lat="42.8255192" lon="12.0837586"><ele>543.0</ele><time>2026-04-30T10:39:12.988Z</time></trkpt><trkpt lat="42.8254441" lon="12.0836067"><ele>543.0</ele><time>2026-04-30T10:39:13.987Z</time></trkpt><trkpt lat="42.8253259" lon="12.0835103"><ele>543.0</ele><time>2026-04-30T10:39:14.987Z</time></trkpt><trkpt lat="42.8251689" lon="12.0834737"><ele>543.0</ele><time>2026-04-30T10:39:15.987Z</time></trkpt><trkpt lat="42.8249923" lon="12.0834861"><ele>543.0</ele><time>2026-04-30T10:39:16.988Z</time></trkpt><trkpt lat="42.8248075" lon="12.0835214"><ele>541.3333333333334</ele><time>2026-04-30T10:39:17.987Z</time></trkpt><trkpt lat="42.8246133" lon="12.083572"><ele>539.6666666666667</ele><time>2026-04-30T10:39:18.987Z</time></trkpt><trkpt lat="42.8244088" lon="12.0836344"><ele>538.0</ele><time>2026-04-30T10:39:19.987Z</time></trkpt><trkpt lat="42.824197" lon="12.0837019"><ele>536.3333333333334</ele><time>2026-04-30T10:39:20.987Z</time></trkpt><trkpt lat="42.8239809" lon="12.083768"><ele>534.6666666666666</ele><time>2026-04-30T10:39:21.987Z</time></trkpt><trkpt lat="42.8237563" lon="12.0838097"><ele>533.0</ele><time>2026-04-30T10:39:22.987Z</time></trkpt><trkpt lat="42.8235256" lon="12.0838161"><ele>532.5</ele><time>2026-04-30T10:39:23.987Z</time></trkpt><trkpt lat="42.823289" lon="12.0838212"><ele>532.0</ele><time>2026-04-30T10:39:24.987Z</time></trkpt><trkpt lat="42.823059" lon="12.0838482"><ele>532.0</ele><time>2026-04-30T10:39:25.987Z</time></trkpt><trkpt lat="42.8228368" lon="12.0839021"><ele>532.0</ele><time>2026-04-30T10:39:26.987Z</time></trkpt><trkpt lat="42.8226332" lon="12.083964"><ele>532.0</ele><time>2026-04-30T10:39:27.987Z</time></trkpt><trkpt lat="42.8224566" lon="12.0840109"><ele>528.5</ele><time>2026-04-30T10:39:28.987Z</time></trkpt><trkpt lat="42.8223163" lon="12.0840171"><ele>525.0</ele><time>2026-04-30T10:39:29.987Z</time></trkpt><trkpt lat="42.8222108" lon="12.0839688"><ele>521.5</ele><time>2026-04-30T10:39:30.987Z</time></trkpt><trkpt lat="42.8221472" lon="12.0838496"><ele>518.0</ele><time>2026-04-30T10:39:31.988Z</time></trkpt><trkpt lat="42.8221165" lon="12.083671"><ele>518.0</ele><time>2026-04-30T10:39:32.988Z</time></trkpt><trkpt lat="42.8220906" lon="12.0834611"><ele>518.0</ele><time>2026-04-30T10:39:33.988Z</time></trkpt><trkpt lat="42.8220246" lon="12.0832475"><ele>518.0</ele><time>2026-04-30T10:39:34.987Z</time></trkpt><trkpt lat="42.8219233" lon="12.0830494"><ele>519.0</ele><time>2026-04-30T10:39:35.987Z</time></trkpt><trkpt lat="42.8218235" lon="12.0828333"><ele>520.0</ele><time>2026-04-30T10:39:36.987Z</time></trkpt><trkpt lat="42.8217598" lon="12.0825894"><ele>521.0</ele><time>2026-04-30T10:39:37.988Z</time></trkpt><trkpt lat="42.8216996" lon="12.0823224"><ele>514.0</ele><time>2026-04-30T10:39:38.987Z</time></trkpt><trkpt lat="42.8216112" lon="12.0820637"><ele>507.0</ele><time>2026-04-30T10:39:39.988Z</time></trkpt><trkpt lat="42.8215274" lon="12.0818252"><ele>500.0</ele><time>2026-04-30T10:39:40.987Z</time></trkpt><trkpt lat="42.8214558" lon="12.0816024"><ele>498.3333333333333</ele><time>2026-04-30T10:39:41.987Z</time></trkpt><trkpt lat="42.8213697" lon="12.0814046"><ele>496.66666666666663</ele><time>2026-04-30T10:39:42.988Z</time></trkpt><trkpt lat="42.8212433" lon="12.0812426"><ele>495.0</ele><time>2026-04-30T10:39:43.988Z</time></trkpt><trkpt lat="42.8210736" lon="12.0811406"><ele>491.0</ele><time>2026-04-30T10:39:44.987Z</time></trkpt><trkpt lat="42.8208736" lon="12.0810862"><ele>487.0</ele><time>2026-04-30T10:39:45.988Z</time></trkpt><trkpt lat="42.8206443" lon="12.0810781"><ele>483.0</ele><time>2026-04-30T10:39:46.987Z</time></trkpt><trkpt lat="42.82041" lon="12.0810516"><ele>483.0</ele><time>2026-04-30T10:39:47.988Z</time></trkpt><trkpt lat="42.8201784" lon="12.0809869"><ele>483.0</ele><time>2026-04-30T10:39:48.987Z</time></trkpt><trkpt lat="42.8199478" lon="12.080893"><ele>481.5</ele><time>2026-04-30T10:39:49.988Z</time></trkpt><trkpt lat="42.8197133" lon="12.0808141"><ele>480.0</ele><time>2026-04-30T10:39:50.987Z</time></trkpt><trkpt lat="42.8194778" lon="12.0807557"><ele>475.5</ele><time>2026-04-30T10:39:51.987Z</time></trkpt><trkpt lat="42.8192513" lon="12.0807026"><ele>471.0</ele><time>2026-04-30T10:39:52.988Z</time></trkpt><trkpt lat="42.8190298" lon="12.0806429"><ele>471.0</ele><time>2026-04-30T10:39:53.988Z</time></trkpt><trkpt lat="42.8188313" lon="12.0805406"><ele>471.0</ele><time>2026-04-30T10:39:54.988Z</time></trkpt><trkpt lat="42.8186445" lon="12.0803885"><ele>471.0</ele><time>2026-04-30T10:39:55.988Z</time></trkpt><trkpt lat="42.8184654" lon="12.0802209"><ele>472.33333333333337</ele><time>2026-04-30T10:39:56.987Z</time></trkpt><trkpt lat="42.8182736" lon="12.0800957"><ele>473.6666666666667</ele><time>2026-04-30T10:39:57.987Z</time></trkpt><trkpt lat="42.8180698" lon="12.0800091"><ele>475.0</ele><time>2026-04-30T10:39:58.988Z</time></trkpt><trkpt lat="42.8178672" lon="12.079919"><ele>473.33333333333337</ele><time>2026-04-30T10:39:59.988Z</time></trkpt><trkpt lat="42.8176827" lon="12.0797835"><ele>471.66666666666663</ele><time>2026-04-30T10:40:00.987Z</time></trkpt><trkpt lat="42.817529" lon="12.0796049"><ele>470.0</ele><time>2026-04-30T10:40:01.988Z</time></trkpt><trkpt lat="42.8174001" lon="12.0793773"><ele>470.0</ele><time>2026-04-30T10:40:02.987Z</time></trkpt><trkpt lat="42.8172971" lon="12.0791206"><ele>470.0</ele><time>2026-04-30T10:40:03.987Z</time></trkpt><trkpt lat="42.817205" lon="12.0788694"><ele>470.0</ele><time>2026-04-30T10:40:04.987Z</time></trkpt><trkpt lat="42.8171073" lon="12.0786417"><ele>467.0</ele><time>2026-04-30T10:40:05.988Z</time></trkpt><trkpt lat="42.8169947" lon="12.0784581"><ele>464.0</ele><time>2026-04-30T10:40:06.988Z</time></trkpt><trkpt lat="42.8168752" lon="12.0783316"><ele>461.0</ele><time>2026-04-30T10:40:07.988Z</time></trkpt><trkpt lat="42.8167457" lon="12.078286"><ele>461.0</ele><time>2026-04-30T10:40:08.988Z</time></trkpt><trkpt lat="42.8166048" lon="12.078324"><ele>461.0</ele><time>2026-04-30T10:40:09.987Z</time></trkpt><trkpt lat="42.816476" lon="12.0784378"><ele>461.0</ele><time>2026-04-30T10:40:10.987Z</time></trkpt><trkpt lat="42.8163781" lon="12.0786162"><ele>461.0</ele><time>2026-04-30T10:40:11.987Z</time></trkpt><trkpt lat="42.8163192" lon="12.0788304"><ele>461.0</ele><time>2026-04-30T10:40:12.987Z</time></trkpt><trkpt lat="42.816283" lon="12.0790699"><ele>461.0</ele><time>2026-04-30T10:40:13.988Z</time></trkpt><trkpt lat="42.8162033" lon="12.0792913"><ele>461.66666666666663</ele><time>2026-04-30T10:40:14.987Z</time></trkpt><trkpt lat="42.8160664" lon="12.0794577"><ele>462.33333333333337</ele><time>2026-04-30T10:40:15.987Z</time></trkpt><trkpt lat="42.8158833" lon="12.0795708"><ele>463.0</ele><time>2026-04-30T10:40:16.987Z</time></trkpt><trkpt lat="42.8156642" lon="12.079638"><ele>457.0</ele><time>2026-04-30T10:40:17.988Z</time></trkpt><trkpt lat="42.8154334" lon="12.0796766"><ele>451.0</ele><time>2026-04-30T10:40:18.988Z</time></trkpt><trkpt lat="42.815201" lon="12.0797023"><ele>448.0</ele><time>2026-04-30T10:40:19.987Z</time></trkpt><trkpt lat="42.8149605" lon="12.0796975"><ele>445.0</ele><time>2026-04-30T10:40:20.987Z</time></trkpt><trkpt lat="42.8147119" lon="12.0796487"><ele>445.0</ele><time>2026-04-30T10:40:21.987Z</time></trkpt><trkpt lat="42.8144742" lon="12.0795504"><ele>445.0</ele><time>2026-04-30T10:40:22.987Z</time></trkpt><trkpt lat="42.8142443" lon="12.0794125"><ele>445.5</ele><time>2026-04-30T10:40:23.987Z</time></trkpt><trkpt lat="42.8140152" lon="12.0792706"><ele>446.0</ele><time>2026-04-30T10:40:24.988Z</time></trkpt><trkpt lat="42.8137807" lon="12.0791278"><ele>443.0</ele><time>2026-04-30T10:40:25.987Z</time></trkpt><trkpt lat="42.8135377" lon="12.0789893"><ele>440.0</ele><time>2026-04-30T10:40:26.987Z</time></trkpt><trkpt lat="42.8132902" lon="12.0788482"><ele>440.0</ele><time>2026-04-30T10:40:27.987Z</time></trkpt><trkpt lat="42.8130411" lon="12.0787062"><ele>440.0</ele><time>2026-04-30T10:40:28.988Z</time></trkpt><trkpt lat="42.8127895" lon="12.078564"><ele>440.0</ele><time>2026-04-30T10:40:29.988Z</time></trkpt><trkpt lat="42.8125384" lon="12.0784229"><ele>440.0</ele><time>2026-04-30T10:40:30.987Z</time></trkpt><trkpt lat="42.8122913" lon="12.0782888"><ele>438.0</ele><time>2026-04-30T10:40:31.987Z</time></trkpt><trkpt lat="42.8120527" lon="12.0781578"><ele>436.0</ele><time>2026-04-30T10:40:32.987Z</time></trkpt><trkpt lat="42.8118216" lon="12.0780301"><ele>436.0</ele><time>2026-04-30T10:40:33.987Z</time></trkpt><trkpt lat="42.8116023" lon="12.0779081"><ele>436.0</ele><time>2026-04-30T10:40:34.987Z</time></trkpt><trkpt lat="42.8113964" lon="12.0777891"><ele>436.0</ele><time>2026-04-30T10:40:35.988Z</time></trkpt><trkpt lat="42.8111959" lon="12.0776877"><ele>436.0</ele><time>2026-04-30T10:40:36.988Z</time></trkpt><trkpt lat="42.8110014" lon="12.077636"><ele>436.0</ele><time>2026-04-30T10:40:37.987Z</time></trkpt><trkpt lat="42.8108149" lon="12.0776383"><ele>436.33333333333337</ele><time>2026-04-30T10:40:38.987Z</time></trkpt><trkpt lat="42.8106421" lon="12.0777206"><ele>436.66666666666663</ele><time>2026-04-30T10:40:39.987Z</time></trkpt><trkpt lat="42.8104892" lon="12.0778863"><ele>437.0</ele><time>2026-04-30T10:40:40.987Z</time></trkpt><trkpt lat="42.8103511" lon="12.0780941"><ele>437.0</ele><time>2026-04-30T10:40:41.987Z</time></trkpt><trkpt lat="42.8102122" lon="12.0783178"><ele>437.0</ele><time>2026-04-30T10:40:42.987Z</time></trkpt><trkpt lat="42.8100622" lon="12.0785397"><ele>437.0</ele><time>2026-04-30T10:40:43.988Z</time></trkpt><trkpt lat="42.8099105" lon="12.078766"><ele>437.0</ele><time>2026-04-30T10:40:44.987Z</time></trkpt><trkpt lat="42.8097512" lon="12.078992"><ele>437.0</ele><time>2026-04-30T10:40:45.987Z</time></trkpt><trkpt lat="42.8095852" lon="12.0792141"><ele>438.5</ele><time>2026-04-30T10:40:46.987Z</time></trkpt><trkpt lat="42.8094269" lon="12.0794521"><ele>440.0</ele><time>2026-04-30T10:40:47.987Z</time></trkpt><trkpt lat="42.8092764" lon="12.0797179"><ele>444.0</ele><time>2026-04-30T10:40:48.988Z</time></trkpt><trkpt lat="42.8091345" lon="12.0800052"><ele>448.0</ele><time>2026-04-30T10:40:49.987Z</time></trkpt><trkpt lat="42.8089926" lon="12.0803023"><ele>448.0</ele><time>2026-04-30T10:40:50.987Z</time></trkpt><trkpt lat="42.8088497" lon="12.0806093"><ele>448.0</ele><time>2026-04-30T10:40:51.988Z</time></trkpt><trkpt lat="42.808699" lon="12.0809189"><ele>446.5</ele><time>2026-04-30T10:40:52.987Z</time></trkpt><trkpt lat="42.8085487" lon="12.0812267"><ele>445.0</ele><time>2026-04-30T10:40:53.988Z</time></trkpt><trkpt lat="42.8084073" lon="12.0815208"><ele>449.0</ele><time>2026-04-30T10:40:54.988Z</time></trkpt><trkpt lat="42.8082621" lon="12.0818063"><ele>453.0</ele><time>2026-04-30T10:40:55.988Z</time></trkpt><trkpt lat="42.8081188" lon="12.0820855"><ele>453.0</ele><time>2026-04-30T10:40:56.987Z</time></trkpt><trkpt lat="42.8079694" lon="12.0823337"><ele>453.0</ele><time>2026-04-30T10:40:57.987Z</time></trkpt><trkpt lat="42.8077873" lon="12.0825459"><ele>452.5</ele><time>2026-04-30T10:40:58.987Z</time></trkpt><trkpt lat="42.8075832" lon="12.0827256"><ele>452.0</ele><time>2026-04-30T10:40:59.988Z</time></trkpt><trkpt lat="42.8073679" lon="12.0828948"><ele>452.0</ele><time>2026-04-30T10:41:00.988Z</time></trkpt><trkpt lat="42.8071477" lon="12.0830755"><ele>452.0</ele><time>2026-04-30T10:41:01.987Z</time></trkpt><trkpt lat="42.8069235" lon="12.0832563"><ele>450.5</ele><time>2026-04-30T10:41:02.987Z</time></trkpt><trkpt lat="42.8066898" lon="12.0834408"><ele>449.0</ele><time>2026-04-30T10:41:03.987Z</time></trkpt><trkpt lat="42.8064499" lon="12.0836334"><ele>449.0</ele><time>2026-04-30T10:41:04.987Z</time></trkpt><trkpt lat="42.8062091" lon="12.0838308"><ele>449.0</ele><time>2026-04-30T10:41:05.987Z</time></trkpt><trkpt lat="42.8059685" lon="12.0840269"><ele>447.0</ele><time>2026-04-30T10:41:06.987Z</time></trkpt><trkpt lat="42.8057311" lon="12.0842256"><ele>445.0</ele><time>2026-04-30T10:41:07.987Z</time></trkpt><trkpt lat="42.805497" lon="12.0844207"><ele>445.0</ele><time>2026-04-30T10:41:08.988Z</time></trkpt><trkpt lat="42.805284" lon="12.0846268"><ele>445.0</ele><time>2026-04-30T10:41:09.987Z</time></trkpt><trkpt lat="42.8050924" lon="12.0848531"><ele>446.0</ele><time>2026-04-30T10:41:10.988Z</time></trkpt><trkpt lat="42.8049224" lon="12.0850948"><ele>447.0</ele><time>2026-04-30T10:41:11.987Z</time></trkpt><trkpt lat="42.8047756" lon="12.0853676"><ele>447.0</ele><time>2026-04-30T10:41:12.987Z</time></trkpt><trkpt lat="42.8046498" lon="12.085668"><ele>447.0</ele><time>2026-04-30T10:41:13.988Z</time></trkpt><trkpt lat="42.804522" lon="12.0859679"><ele>448.5</ele><time>2026-04-30T10:41:14.987Z</time></trkpt><trkpt lat="42.8043873" lon="12.0862663"><ele>450.0</ele><time>2026-04-30T10:41:15.987Z</time></trkpt><trkpt lat="42.8042562" lon="12.0865815"><ele>443.5</ele><time>2026-04-30T10:41:16.987Z</time></trkpt><trkpt lat="42.8041387" lon="12.0869091"><ele>437.0</ele><time>2026-04-30T10:41:17.987Z</time></trkpt><trkpt lat="42.8040309" lon="12.0872427"><ele>439.0</ele><time>2026-04-30T10:41:18.988Z</time></trkpt><trkpt lat="42.8038998" lon="12.0875661"><ele>441.0</ele><time>2026-04-30T10:41:19.988Z</time></trkpt><trkpt lat="42.8037524" lon="12.0878689"><ele>441.0</ele><time>2026-04-30T10:41:20.987Z</time></trkpt><trkpt lat="42.8036126" lon="12.0881667"><ele>441.0</ele><time>2026-04-30T10:41:21.987Z</time></trkpt><trkpt lat="42.803479" lon="12.0884858"><ele>438.5</ele><time>2026-04-30T10:41:22.988Z</time></trkpt><trkpt lat="42.8033503" lon="12.0888142"><ele>436.0</ele><time>2026-04-30T10:41:23.987Z</time></trkpt><trkpt lat="42.8032278" lon="12.0891402"><ele>436.0</ele><time>2026-04-30T10:41:24.987Z</time></trkpt><trkpt lat="42.8031003" lon="12.0894677"><ele>436.0</ele><time>2026-04-30T10:41:25.988Z</time></trkpt><trkpt lat="42.8029721" lon="12.0898009"><ele>434.5</ele><time>2026-04-30T10:41:26.987Z</time></trkpt><trkpt lat="42.8028389" lon="12.0901251"><ele>433.0</ele><time>2026-04-30T10:41:27.987Z</time></trkpt><trkpt lat="42.8027054" lon="12.0904443"><ele>432.5</ele><time>2026-04-30T10:41:28.987Z</time></trkpt><trkpt lat="42.8025512" lon="12.0907432"><ele>432.0</ele><time>2026-04-30T10:41:29.987Z</time></trkpt><trkpt lat="42.8023614" lon="12.0910051"><ele>433.0</ele><time>2026-04-30T10:41:30.988Z</time></trkpt><trkpt lat="42.8021517" lon="12.0912374"><ele>434.0</ele><time>2026-04-30T10:41:31.987Z</time></trkpt><trkpt lat="42.8019341" lon="12.0914622"><ele>431.5</ele><time>2026-04-30T10:41:32.987Z</time></trkpt><trkpt lat="42.8017131" lon="12.0916885"><ele>429.0</ele><time>2026-04-30T10:41:33.988Z</time></trkpt><trkpt lat="42.8014957" lon="12.0919247"><ele>429.0</ele><time>2026-04-30T10:41:34.987Z</time></trkpt><trkpt lat="42.8012782" lon="12.0921665"><ele>429.0</ele><time>2026-04-30T10:41:35.988Z</time></trkpt><trkpt lat="42.8010621" lon="12.0924112"><ele>430.0</ele><time>2026-04-30T10:41:36.987Z</time></trkpt><trkpt lat="42.800845" lon="12.0926672"><ele>431.0</ele><time>2026-04-30T10:41:37.987Z</time></trkpt><trkpt lat="42.8006391" lon="12.0929364"><ele>431.0</ele><time>2026-04-30T10:41:38.987Z</time></trkpt><trkpt lat="42.8004521" lon="12.0932302"><ele>431.0</ele><time>2026-04-30T10:41:39.987Z</time></trkpt><trkpt lat="42.8002816" lon="12.0935389"><ele>426.0</ele><time>2026-04-30T10:41:40.987Z</time></trkpt><trkpt lat="42.8001349" lon="12.0938728"><ele>421.0</ele><time>2026-04-30T10:41:41.987Z</time></trkpt><trkpt lat="42.80002" lon="12.0942372"><ele>420.0</ele><time>2026-04-30T10:41:42.987Z</time></trkpt><trkpt lat="42.799929" lon="12.0945994"><ele>419.0</ele><time>2026-04-30T10:41:43.987Z</time></trkpt><trkpt lat="42.7998476" lon="12.0949798"><ele>418.5</ele><time>2026-04-30T10:41:44.988Z</time></trkpt><trkpt lat="42.7997705" lon="12.0953773"><ele>418.0</ele><time>2026-04-30T10:41:45.988Z</time></trkpt><trkpt lat="42.799691" lon="12.0957789"><ele>417.0</ele><time>2026-04-30T10:41:46.987Z</time></trkpt><trkpt lat="42.7996097" lon="12.0961661"><ele>416.0</ele><time>2026-04-30T10:41:47.987Z</time></trkpt><trkpt lat="42.7995312" lon="12.0965357"><ele>415.0</ele><time>2026-04-30T10:41:48.988Z</time></trkpt><trkpt lat="42.7994538" lon="12.0968868"><ele>414.0</ele><time>2026-04-30T10:41:49.987Z</time></trkpt><trkpt lat="42.7993664" lon="12.0972285"><ele>414.0</ele><time>2026-04-30T10:41:50.987Z</time></trkpt><trkpt lat="42.7992534" lon="12.0975713"><ele>414.0</ele><time>2026-04-30T10:41:51.987Z</time></trkpt><trkpt lat="42.7991185" lon="12.0978969"><ele>414.0</ele><time>2026-04-30T10:41:52.987Z</time></trkpt><trkpt lat="42.7989565" lon="12.0982016"><ele>414.0</ele><time>2026-04-30T10:41:53.987Z</time></trkpt><trkpt lat="42.7987738" lon="12.0984928"><ele>412.0</ele><time>2026-04-30T10:41:54.987Z</time></trkpt><trkpt lat="42.7985798" lon="12.0987568"><ele>410.0</ele><time>2026-04-30T10:41:55.987Z</time></trkpt><trkpt lat="42.7983869" lon="12.0990065"><ele>406.5</ele><time>2026-04-30T10:41:56.988Z</time></trkpt><trkpt lat="42.7981862" lon="12.0992536"><ele>403.0</ele><time>2026-04-30T10:41:57.987Z</time></trkpt><trkpt lat="42.7979841" lon="12.0995017"><ele>403.0</ele><time>2026-04-30T10:41:58.987Z</time></trkpt><trkpt lat="42.7977951" lon="12.0997326"><ele>403.0</ele><time>2026-04-30T10:41:59.987Z</time></trkpt><trkpt lat="42.7976172" lon="12.0999488"><ele>402.5</ele><time>2026-04-30T10:42:00.987Z</time></trkpt><trkpt lat="42.7974409" lon="12.1001545"><ele>402.0</ele><time>2026-04-30T10:42:01.987Z</time></trkpt><trkpt lat="42.7972747" lon="12.1003643"><ele>402.0</ele><time>2026-04-30T10:42:02.987Z</time></trkpt><trkpt lat="42.7971185" lon="12.100581"><ele>402.0</ele><time>2026-04-30T10:42:03.988Z</time></trkpt><trkpt lat="42.7969863" lon="12.1008084"><ele>402.0</ele><time>2026-04-30T10:42:04.988Z</time></trkpt><trkpt lat="42.7968716" lon="12.1010376"><ele>402.66666666666663</ele><time>2026-04-30T10:42:05.987Z</time></trkpt><trkpt lat="42.796778" lon="12.1012667"><ele>403.3333333333333</ele><time>2026-04-30T10:42:06.987Z</time></trkpt><trkpt lat="42.7966732" lon="12.1014771"><ele>404.0</ele><time>2026-04-30T10:42:07.988Z</time></trkpt><trkpt lat="42.796541" lon="12.1016389"><ele>404.0</ele><time>2026-04-30T10:42:08.987Z</time></trkpt><trkpt lat="42.796386" lon="12.1017559"><ele>404.0</ele><time>2026-04-30T10:42:09.987Z</time></trkpt><trkpt lat="42.7962229" lon="12.1018425"><ele>404.0</ele><time>2026-04-30T10:42:10.987Z</time></trkpt><trkpt lat="42.7960695" lon="12.1019305"><ele>402.0</ele><time>2026-04-30T10:42:11.988Z</time></trkpt><trkpt lat="42.7959243" lon="12.1020029"><ele>400.0</ele><time>2026-04-30T10:42:12.987Z</time></trkpt><trkpt lat="42.7957936" lon="12.1020522"><ele>398.0</ele><time>2026-04-30T10:42:13.987Z</time></trkpt><trkpt lat="42.7956724" lon="12.1020665"><ele>396.0</ele><time>2026-04-30T10:42:14.987Z</time></trkpt><trkpt lat="42.795566" lon="12.1020429"><ele>396.0</ele><time>2026-04-30T10:42:15.987Z</time></trkpt><trkpt lat="42.7954744" lon="12.1020109"><ele>396.0</ele><time>2026-04-30T10:42:16.987Z</time></trkpt><trkpt lat="42.79538" lon="12.1019839"><ele>396.0</ele><time>2026-04-30T10:42:17.987Z</time></trkpt><trkpt lat="42.7952981" lon="12.1019728"><ele>396.0</ele><time>2026-04-30T10:42:18.987Z</time></trkpt><trkpt lat="42.7952266" lon="12.1019891"><ele>396.0</ele><time>2026-04-30T10:42:19.987Z</time></trkpt><trkpt lat="42.7951583" lon="12.1020371"><ele>396.0</ele><time>2026-04-30T10:42:20.988Z</time></trkpt><trkpt lat="42.7950989" lon="12.1021086"><ele>396.4</ele><time>2026-04-30T10:42:21.987Z</time></trkpt><trkpt lat="42.7950565" lon="12.1022013"><ele>396.8</ele><time>2026-04-30T10:42:22.987Z</time></trkpt><trkpt lat="42.7950358" lon="12.1023184"><ele>397.2</ele><time>2026-04-30T10:42:23.987Z</time></trkpt><trkpt lat="42.7950217" lon="12.1024555"><ele>397.59999999999997</ele><time>2026-04-30T10:42:24.987Z</time></trkpt><trkpt lat="42.7950064" lon="12.1026027"><ele>398.0</ele><time>2026-04-30T10:42:25.988Z</time></trkpt><trkpt lat="42.7949814" lon="12.1027363"><ele>398.0</ele><time>2026-04-30T10:42:26.987Z</time></trkpt><trkpt lat="42.7949339" lon="12.1028595"><ele>398.0</ele><time>2026-04-30T10:42:27.987Z</time></trkpt><trkpt lat="42.7948626" lon="12.1029535"><ele>398.0</ele><time>2026-04-30T10:42:28.987Z</time></trkpt><trkpt lat="42.7947813" lon="12.1030109"><ele>398.0</ele><time>2026-04-30T10:42:29.987Z</time></trkpt><trkpt lat="42.7946899" lon="12.1030359"><ele>398.0</ele><time>2026-04-30T10:42:30.988Z</time></trkpt><trkpt lat="42.7945746" lon="12.1030146"><ele>398.0</ele><time>2026-04-30T10:42:31.987Z</time></trkpt><trkpt lat="42.7944455" lon="12.1029372"><ele>398.0</ele><time>2026-04-30T10:42:32.987Z</time></trkpt><trkpt lat="42.7943053" lon="12.1028295"><ele>398.0</ele><time>2026-04-30T10:42:33.987Z</time></trkpt><trkpt lat="42.7941474" lon="12.1027184"><ele>396.0</ele><time>2026-04-30T10:42:34.987Z</time></trkpt><trkpt lat="42.7939807" lon="12.1026031"><ele>394.0</ele><time>2026-04-30T10:42:35.987Z</time></trkpt><trkpt lat="42.7938" lon="12.1024929"><ele>392.0</ele><time>2026-04-30T10:42:36.987Z</time></trkpt><trkpt lat="42.7936208" lon="12.1023808"><ele>386.3333333333333</ele><time>2026-04-30T10:42:37.988Z</time></trkpt><trkpt lat="42.7934397" lon="12.1022835"><ele>380.66666666666663</ele><time>2026-04-30T10:42:38.987Z</time></trkpt><trkpt lat="42.7932656" lon="12.1022138"><ele>375.0</ele><time>2026-04-30T10:42:39.987Z</time></trkpt><trkpt lat="42.7930931" lon="12.1021718"><ele>375.0</ele><time>2026-04-30T10:42:40.987Z</time></trkpt><trkpt lat="42.7929426" lon="12.1021764"><ele>375.0</ele><time>2026-04-30T10:42:41.987Z</time></trkpt><trkpt lat="42.7928116" lon="12.1022621"><ele>375.0</ele><time>2026-04-30T10:42:42.988Z</time></trkpt><trkpt lat="42.7927224" lon="12.1024071"><ele>375.0</ele><time>2026-04-30T10:42:43.987Z</time></trkpt><trkpt lat="42.7926638" lon="12.102594"><ele>377.0</ele><time>2026-04-30T10:42:44.987Z</time></trkpt><trkpt lat="42.7925938" lon="12.1027935"><ele>379.0</ele><time>2026-04-30T10:42:45.987Z</time></trkpt><trkpt lat="42.7924969" lon="12.1029892"><ele>381.0</ele><time>2026-04-30T10:42:46.988Z</time></trkpt><trkpt lat="42.7923864" lon="12.1031898"><ele>384.0</ele><time>2026-04-30T10:42:47.987Z</time></trkpt><trkpt lat="42.7923008" lon="12.1034138"><ele>387.0</ele><time>2026-04-30T10:42:48.987Z</time></trkpt><trkpt lat="42.7922393" lon="12.1036424"><ele>390.0</ele><time>2026-04-30T10:42:49.987Z</time></trkpt><trkpt lat="42.7921771" lon="12.1038476"><ele>390.0</ele><time>2026-04-30T10:42:50.987Z</time></trkpt><trkpt lat="42.7921065" lon="12.1039944"><ele>390.0</ele><time>2026-04-30T10:42:51.987Z</time></trkpt><trkpt lat="42.7920156" lon="12.1040789"><ele>390.0</ele><time>2026-04-30T10:42:52.987Z</time></trkpt><trkpt lat="42.7918984" lon="12.1041028"><ele>390.0</ele><time>2026-04-30T10:42:53.987Z</time></trkpt><trkpt lat="42.7917748" lon="12.1040566"><ele>384.6666666666667</ele><time>2026-04-30T10:42:54.987Z</time></trkpt><trkpt lat="42.791656" lon="12.103935"><ele>379.33333333333337</ele><time>2026-04-30T10:42:55.988Z</time></trkpt><trkpt lat="42.7915439" lon="12.1037715"><ele>374.0</ele><time>2026-04-30T10:42:56.987Z</time></trkpt><trkpt lat="42.7914489" lon="12.1035463"><ele>374.0</ele><time>2026-04-30T10:42:57.987Z</time></trkpt><trkpt lat="42.7913369" lon="12.103342"><ele>374.0</ele><time>2026-04-30T10:42:58.987Z</time></trkpt><trkpt lat="42.7912007" lon="12.1032045"><ele>374.0</ele><time>2026-04-30T10:42:59.987Z</time></trkpt><trkpt lat="42.7910401" lon="12.1031708"><ele>372.33333333333337</ele><time>2026-04-30T10:43:00.988Z</time></trkpt><trkpt lat="42.7908711" lon="12.1032149"><ele>370.6666666666667</ele><time>2026-04-30T10:43:01.987Z</time></trkpt><trkpt lat="42.7907042" lon="12.1033086"><ele>369.0</ele><time>2026-04-30T10:43:02.987Z</time></trkpt><trkpt lat="42.7905206" lon="12.103408"><ele>369.0</ele><time>2026-04-30T10:43:03.987Z</time></trkpt><trkpt lat="42.7903388" lon="12.1034684"><ele>369.0</ele><time>2026-04-30T10:43:04.988Z</time></trkpt><trkpt lat="42.7901532" lon="12.103478"><ele>369.0</ele><time>2026-04-30T10:43:05.987Z</time></trkpt><trkpt lat="42.7899774" lon="12.1034729"><ele>365.0</ele><time>2026-04-30T10:43:06.987Z</time></trkpt><trkpt lat="42.7898141" lon="12.1035282"><ele>361.0</ele><time>2026-04-30T10:43:07.987Z</time></trkpt><trkpt lat="42.7896803" lon="12.1036385"><ele>357.0</ele><time>2026-04-30T10:43:08.987Z</time></trkpt><trkpt lat="42.7895995" lon="12.1038012"><ele>357.0</ele><time>2026-04-30T10:43:09.987Z</time></trkpt><trkpt lat="42.7895809" lon="12.103993"><ele>357.0</ele><time>2026-04-30T10:43:10.987Z</time></trkpt><trkpt lat="42.7896013" lon="12.104186"><ele>357.0</ele><time>2026-04-30T10:43:11.988Z</time></trkpt><trkpt lat="42.7896212" lon="12.1043762"><ele>357.0</ele><time>2026-04-30T10:43:12.987Z</time></trkpt><trkpt lat="42.7895909" lon="12.1045288"><ele>354.0</ele><time>2026-04-30T10:43:13.987Z</time></trkpt><trkpt lat="42.7895083" lon="12.104628"><ele>351.0</ele><time>2026-04-30T10:43:14.987Z</time></trkpt><trkpt lat="42.7893839" lon="12.104656"><ele>348.0</ele><time>2026-04-30T10:43:15.988Z</time></trkpt><trkpt lat="42.7892304" lon="12.1046181"><ele>345.0</ele><time>2026-04-30T10:43:16.987Z</time></trkpt><trkpt lat="42.7890579" lon="12.104584"><ele>345.0</ele><time>2026-04-30T10:43:17.987Z</time></trkpt><trkpt lat="42.788878" lon="12.1045848"><ele>345.0</ele><time>2026-04-30T10:43:18.987Z</time></trkpt><trkpt lat="42.7887021" lon="12.104617"><ele>345.0</ele><time>2026-04-30T10:43:19.987Z</time></trkpt><trkpt lat="42.7885434" lon="12.1046897"><ele>342.6666666666667</ele><time>2026-04-30T10:43:20.987Z</time></trkpt><trkpt lat="42.7884139" lon="12.1048101"><ele>340.33333333333337</ele><time>2026-04-30T10:43:21.988Z</time></trkpt><trkpt lat="42.7883388" lon="12.1049814"><ele>338.0</ele><time>2026-04-30T10:43:22.988Z</time></trkpt><trkpt lat="42.7883259" lon="12.105187"><ele>338.0</ele><time>2026-04-30T10:43:23.987Z</time></trkpt><trkpt lat="42.7883534" lon="12.1053947"><ele>338.0</ele><time>2026-04-30T10:43:24.987Z</time></trkpt><trkpt lat="42.7883816" lon="12.105602"><ele>338.0</ele><time>2026-04-30T10:43:25.987Z</time></trkpt><trkpt lat="42.7883731" lon="12.1057973"><ele>339.75</ele><time>2026-04-30T10:43:26.987Z</time></trkpt><trkpt lat="42.7883118" lon="12.1059673"><ele>341.5</ele><time>2026-04-30T10:43:27.987Z</time></trkpt><trkpt lat="42.788205" lon="12.1060827"><ele>343.25</ele><time>2026-04-30T10:43:28.987Z</time></trkpt><trkpt lat="42.7880801" lon="12.1061237"><ele>345.0</ele><time>2026-04-30T10:43:29.987Z</time></trkpt><trkpt lat="42.7879265" lon="12.1060932"><ele>345.0</ele><time>2026-04-30T10:43:30.988Z</time></trkpt><trkpt lat="42.7877356" lon="12.1060162"><ele>345.0</ele><time>2026-04-30T10:43:31.987Z</time></trkpt><trkpt lat="42.7875332" lon="12.1059325"><ele>345.0</ele><time>2026-04-30T10:43:32.988Z</time></trkpt><trkpt lat="42.7873332" lon="12.1058281"><ele>333.0</ele><time>2026-04-30T10:43:33.987Z</time></trkpt><trkpt lat="42.7871552" lon="12.1056868"><ele>321.0</ele><time>2026-04-30T10:43:34.987Z</time></trkpt><trkpt lat="42.7869888" lon="12.1055336"><ele>309.0</ele><time>2026-04-30T10:43:35.987Z</time></trkpt><trkpt lat="42.7868135" lon="12.1054215"><ele>308.3333333333333</ele><time>2026-04-30T10:43:36.987Z</time></trkpt><trkpt lat="42.786627" lon="12.1053856"><ele>307.66666666666663</ele><time>2026-04-30T10:43:37.987Z</time></trkpt><trkpt lat="42.7864541" lon="12.1054042"><ele>307.0</ele><time>2026-04-30T10:43:38.987Z</time></trkpt><trkpt lat="42.786302" lon="12.1054176"><ele>307.0</ele><time>2026-04-30T10:43:39.987Z</time></trkpt><trkpt lat="42.786162" lon="12.1054149"><ele>307.0</ele><time>2026-04-30T10:43:40.987Z</time></trkpt><trkpt lat="42.7860513" lon="12.1054649"><ele>307.0</ele><time>2026-04-30T10:43:41.987Z</time></trkpt><trkpt lat="42.7859732" lon="12.1055751"><ele>307.0</ele><time>2026-04-30T10:43:42.987Z</time></trkpt><trkpt lat="42.7859474" lon="12.105723"><ele>308.25</ele><time>2026-04-30T10:43:43.988Z</time></trkpt><trkpt lat="42.7859712" lon="12.1058836"><ele>309.5</ele><time>2026-04-30T10:43:44.988Z</time></trkpt><trkpt lat="42.7860352" lon="12.1060389"><ele>310.75</ele><time>2026-04-30T10:43:45.987Z</time></trkpt><trkpt lat="42.7861297" lon="12.1062059"><ele>312.0</ele><time>2026-04-30T10:43:46.987Z</time></trkpt><trkpt lat="42.7862276" lon="12.1063924"><ele>316.6666666666667</ele><time>2026-04-30T10:43:47.987Z</time></trkpt><trkpt lat="42.7862958" lon="12.1066138"><ele>321.33333333333337</ele><time>2026-04-30T10:43:48.987Z</time></trkpt><trkpt lat="42.7863211" lon="12.1068615"><ele>326.0</ele><time>2026-04-30T10:43:49.988Z</time></trkpt><trkpt lat="42.7863209" lon="12.1071205"><ele>326.0</ele><time>2026-04-30T10:43:50.987Z</time></trkpt><trkpt lat="42.7863125" lon="12.1073688"><ele>326.0</ele><time>2026-04-30T10:43:51.987Z</time></trkpt><trkpt lat="42.7862863" lon="12.1076066"><ele>326.0</ele><time>2026-04-30T10:43:52.987Z</time></trkpt><trkpt lat="42.786217" lon="12.1078178"><ele>325.0</ele><time>2026-04-30T10:43:53.987Z</time></trkpt><trkpt lat="42.7860993" lon="12.1079734"><ele>324.0</ele><time>2026-04-30T10:43:54.987Z</time></trkpt><trkpt lat="42.7859524" lon="12.1080804"><ele>323.0</ele><time>2026-04-30T10:43:55.987Z</time></trkpt><trkpt lat="42.7857883" lon="12.1081593"><ele>318.0</ele><time>2026-04-30T10:43:56.987Z</time></trkpt><trkpt lat="42.7856117" lon="12.1082236"><ele>313.0</ele><time>2026-04-30T10:43:57.987Z</time></trkpt><trkpt lat="42.7854384" lon="12.1082717"><ele>308.0</ele><time>2026-04-30T10:43:58.988Z</time></trkpt><trkpt lat="42.785263" lon="12.1082967"><ele>304.33333333333337</ele><time>2026-04-30T10:43:59.987Z</time></trkpt><trkpt lat="42.7850926" lon="12.1083123"><ele>300.6666666666667</ele><time>2026-04-30T10:44:00.988Z</time></trkpt><trkpt lat="42.7849196" lon="12.1083178"><ele>297.0</ele><time>2026-04-30T10:44:01.987Z</time></trkpt><trkpt lat="42.7847508" lon="12.1083173"><ele>297.0</ele><time>2026-04-30T10:44:02.987Z</time></trkpt><trkpt lat="42.7845944" lon="12.1083163"><ele>297.0</ele><time>2026-04-30T10:44:03.988Z</time></trkpt><trkpt lat="42.7844547" lon="12.1083315"><ele>297.0</ele><time>2026-04-30T10:44:04.987Z</time></trkpt><trkpt lat="42.7843467" lon="12.1084101"><ele>297.0</ele><time>2026-04-30T10:44:05.987Z</time></trkpt><trkpt lat="42.7842827" lon="12.1085421"><ele>294.6666666666667</ele><time>2026-04-30T10:44:06.987Z</time></trkpt><trkpt lat="42.7842594" lon="12.10873"><ele>292.33333333333337</ele><time>2026-04-30T10:44:07.988Z</time></trkpt><trkpt lat="42.78425" lon="12.1089522"><ele>290.0</ele><time>2026-04-30T10:44:08.988Z</time></trkpt><trkpt lat="42.7842392" lon="12.1091993"><ele>290.0</ele><time>2026-04-30T10:44:09.987Z</time></trkpt><trkpt lat="42.7842189" lon="12.1094547"><ele>290.0</ele><time>2026-04-30T10:44:10.987Z</time></trkpt><trkpt lat="42.7841985" lon="12.1097308"><ele>290.0</ele><time>2026-04-30T10:44:11.987Z</time></trkpt><trkpt lat="42.7841772" lon="12.1100117"><ele>289.33333333333337</ele><time>2026-04-30T10:44:12.987Z</time></trkpt><trkpt lat="42.7841587" lon="12.1102941"><ele>288.6666666666667</ele><time>2026-04-30T10:44:13.987Z</time></trkpt><trkpt lat="42.784152" lon="12.110573"><ele>288.0</ele><time>2026-04-30T10:44:14.987Z</time></trkpt><trkpt lat="42.7841423" lon="12.1108436"><ele>288.0</ele><time>2026-04-30T10:44:15.987Z</time></trkpt><trkpt lat="42.7841102" lon="12.1111063"><ele>288.0</ele><time>2026-04-30T10:44:16.987Z</time></trkpt><trkpt lat="42.7840489" lon="12.1113609"><ele>288.0</ele><time>2026-04-30T10:44:17.987Z</time></trkpt><trkpt lat="42.783943" lon="12.1115978"><ele>289.0</ele><time>2026-04-30T10:44:18.987Z</time></trkpt><trkpt lat="42.7838069" lon="12.1118143"><ele>290.0</ele><time>2026-04-30T10:44:19.987Z</time></trkpt><trkpt lat="42.7836611" lon="12.1120207"><ele>291.0</ele><time>2026-04-30T10:44:20.987Z</time></trkpt><trkpt lat="42.7835302" lon="12.1122582"><ele>286.6666666666667</ele><time>2026-04-30T10:44:21.988Z</time></trkpt><trkpt lat="42.7834372" lon="12.1125179"><ele>282.33333333333337</ele><time>2026-04-30T10:44:22.987Z</time></trkpt><trkpt lat="42.7833566" lon="12.1128027"><ele>278.0</ele><time>2026-04-30T10:44:23.987Z</time></trkpt><trkpt lat="42.7832644" lon="12.1130797"><ele>279.0</ele><time>2026-04-30T10:44:24.987Z</time></trkpt><trkpt lat="42.7831437" lon="12.1133395"><ele>280.0</ele><time>2026-04-30T10:44:25.987Z</time></trkpt><trkpt lat="42.7830093" lon="12.1135755"><ele>281.0</ele><time>2026-04-30T10:44:26.987Z</time></trkpt><trkpt lat="42.7828685" lon="12.1137774"><ele>281.0</ele><time>2026-04-30T10:44:27.987Z</time></trkpt><trkpt lat="42.7827366" lon="12.113975"><ele>281.0</ele><time>2026-04-30T10:44:28.987Z</time></trkpt><trkpt lat="42.7826204" lon="12.1141801"><ele>281.0</ele><time>2026-04-30T10:44:29.987Z</time></trkpt><trkpt lat="42.7825238" lon="12.1144141"><ele>281.0</ele><time>2026-04-30T10:44:30.987Z</time></trkpt><trkpt lat="42.7824612" lon="12.114664"><ele>281.0</ele><time>2026-04-30T10:44:31.988Z</time></trkpt><trkpt lat="42.7824386" lon="12.1149133"><ele>281.0</ele><time>2026-04-30T10:44:32.987Z</time></trkpt><trkpt lat="42.7824545" lon="12.1151469"><ele>281.0</ele><time>2026-04-30T10:44:33.987Z</time></trkpt><trkpt lat="42.7824759" lon="12.1153426"><ele>281.0</ele><time>2026-04-30T10:44:34.988Z</time></trkpt><trkpt lat="42.7824796" lon="12.1155061"><ele>281.0</ele><time>2026-04-30T10:44:35.987Z</time></trkpt><trkpt lat="42.782448" lon="12.1156387"><ele>281.0</ele><time>2026-04-30T10:44:36.988Z</time></trkpt><trkpt lat="42.7823705" lon="12.1157226"><ele>281.0</ele><time>2026-04-30T10:44:37.987Z</time></trkpt><trkpt lat="42.7822691" lon="12.1157153"><ele>281.0</ele><time>2026-04-30T10:44:38.987Z</time></trkpt><trkpt lat="42.7821604" lon="12.1156352"><ele>281.0</ele><time>2026-04-30T10:44:39.987Z</time></trkpt><trkpt lat="42.7820418" lon="12.1155079"><ele>281.0</ele><time>2026-04-30T10:44:40.987Z</time></trkpt><trkpt lat="42.7819068" lon="12.1153609"><ele>277.33333333333337</ele><time>2026-04-30T10:44:41.987Z</time></trkpt><trkpt lat="42.7817671" lon="12.1152119"><ele>273.6666666666667</ele><time>2026-04-30T10:44:42.988Z</time></trkpt><trkpt lat="42.7816125" lon="12.115068"><ele>270.0</ele><time>2026-04-30T10:44:43.987Z</time></trkpt><trkpt lat="42.7814321" lon="12.1149592"><ele>270.0</ele><time>2026-04-30T10:44:44.988Z</time></trkpt><trkpt lat="42.781232" lon="12.1148947"><ele>270.0</ele><time>2026-04-30T10:44:45.987Z</time></trkpt><trkpt lat="42.7810124" lon="12.114863"><ele>270.0</ele><time>2026-04-30T10:44:46.987Z</time></trkpt><trkpt lat="42.7807876" lon="12.1148431"><ele>268.5</ele><time>2026-04-30T10:44:47.988Z</time></trkpt><trkpt lat="42.7805635" lon="12.1148396"><ele>267.0</ele><time>2026-04-30T10:44:48.987Z</time></trkpt><trkpt lat="42.7803368" lon="12.1148826"><ele>261.0</ele><time>2026-04-30T10:44:49.987Z</time></trkpt><trkpt lat="42.7801166" lon="12.1149721"><ele>255.0</ele><time>2026-04-30T10:44:50.987Z</time></trkpt><trkpt lat="42.7798996" lon="12.1150967"><ele>255.0</ele><time>2026-04-30T10:44:51.987Z</time></trkpt><trkpt lat="42.7796996" lon="12.1152496"><ele>255.0</ele><time>2026-04-30T10:44:52.987Z</time></trkpt><trkpt lat="42.7795144" lon="12.1154034"><ele>255.0</ele><time>2026-04-30T10:44:53.987Z</time></trkpt><trkpt lat="42.7793252" lon="12.1155291"><ele>255.0</ele><time>2026-04-30T10:44:54.987Z</time></trkpt><trkpt lat="42.779122" lon="12.1156187"><ele>255.0</ele><time>2026-04-30T10:44:55.988Z</time></trkpt><trkpt lat="42.7789034" lon="12.1156821"><ele>255.0</ele><time>2026-04-30T10:44:56.987Z</time></trkpt><trkpt lat="42.7786776" lon="12.1156928"><ele>249.5</ele><time>2026-04-30T10:44:57.987Z</time></trkpt><trkpt lat="42.7784514" lon="12.1156472"><ele>244.0</ele><time>2026-04-30T10:44:58.988Z</time></trkpt><trkpt lat="42.7782286" lon="12.1155798"><ele>244.0</ele><time>2026-04-30T10:44:59.988Z</time></trkpt><trkpt lat="42.7780121" lon="12.1154969"><ele>244.0</ele><time>2026-04-30T10:45:00.987Z</time></trkpt><trkpt lat="42.7778163" lon="12.1153819"><ele>244.0</ele><time>2026-04-30T10:45:01.987Z</time></trkpt><trkpt lat="42.7776495" lon="12.1152334"><ele>239.66666666666666</ele><time>2026-04-30T10:45:02.987Z</time></trkpt><trkpt lat="42.7775095" lon="12.1150415"><ele>235.33333333333331</ele><time>2026-04-30T10:45:03.988Z</time></trkpt><trkpt lat="42.7774008" lon="12.1148169"><ele>231.0</ele><time>2026-04-30T10:45:04.987Z</time></trkpt><trkpt lat="42.777338" lon="12.1145839"><ele>230.0</ele><time>2026-04-30T10:45:05.987Z</time></trkpt><trkpt lat="42.7773419" lon="12.1143441"><ele>229.0</ele><time>2026-04-30T10:45:06.987Z</time></trkpt><trkpt lat="42.7773995" lon="12.114114"><ele>228.0</ele><time>2026-04-30T10:45:07.988Z</time></trkpt><trkpt lat="42.777459" lon="12.1138899"><ele>227.33333333333331</ele><time>2026-04-30T10:45:08.987Z</time></trkpt><trkpt lat="42.7774778" lon="12.1136646"><ele>226.66666666666666</ele><time>2026-04-30T10:45:09.987Z</time></trkpt><trkpt lat="42.7774289" lon="12.1134223"><ele>226.0</ele><time>2026-04-30T10:45:10.987Z</time></trkpt><trkpt lat="42.7773203" lon="12.1131991"><ele>223.33333333333331</ele><time>2026-04-30T10:45:11.988Z</time></trkpt><trkpt lat="42.7771666" lon="12.113017"><ele>220.66666666666669</ele><time>2026-04-30T10:45:12.987Z</time></trkpt><trkpt lat="42.776999" lon="12.1128697"><ele>218.0</ele><time>2026-04-30T10:45:13.987Z</time></trkpt><trkpt lat="42.776815" lon="12.1127825"><ele>215.33333333333334</ele><time>2026-04-30T10:45:14.987Z</time></trkpt><trkpt lat="42.7766099" lon="12.1127598"><ele>212.66666666666669</ele><time>2026-04-30T10:45:15.987Z</time></trkpt><trkpt lat="42.776396" lon="12.1127734"><ele>210.0</ele><time>2026-04-30T10:45:16.987Z</time></trkpt><trkpt lat="42.776198" lon="12.112781"><ele>208.66666666666669</ele><time>2026-04-30T10:45:17.987Z</time></trkpt><trkpt lat="42.7760183" lon="12.112817"><ele>207.33333333333334</ele><time>2026-04-30T10:45:18.988Z</time></trkpt><trkpt lat="42.775863" lon="12.1129213"><ele>206.0</ele><time>2026-04-30T10:45:19.987Z</time></trkpt><trkpt lat="42.7757341" lon="12.1130849"><ele>208.0</ele><time>2026-04-30T10:45:20.987Z</time></trkpt><trkpt lat="42.7756059" lon="12.1132721"><ele>210.0</ele><time>2026-04-30T10:45:21.987Z</time></trkpt><trkpt lat="42.7754617" lon="12.1134182"><ele>212.0</ele><time>2026-04-30T10:45:22.987Z</time></trkpt><trkpt lat="42.7752691" lon="12.1134949"><ele>208.5</ele><time>2026-04-30T10:45:23.987Z</time></trkpt><trkpt lat="42.7750517" lon="12.1135093"><ele>205.0</ele><time>2026-04-30T10:45:24.987Z</time></trkpt><trkpt lat="42.7748153" lon="12.1134792"><ele>205.0</ele><time>2026-04-30T10:45:25.987Z</time></trkpt><trkpt lat="42.7745688" lon="12.1134632"><ele>205.0</ele><time>2026-04-30T10:45:26.988Z</time></trkpt><trkpt lat="42.7743115" lon="12.1134966"><ele>202.0</ele><time>2026-04-30T10:45:27.988Z</time></trkpt><trkpt lat="42.774059" lon="12.1135784"><ele>199.0</ele><time>2026-04-30T10:45:28.987Z</time></trkpt><trkpt lat="42.7738105" lon="12.1136811"><ele>199.0</ele><time>2026-04-30T10:45:29.987Z</time></trkpt><trkpt lat="42.7735532" lon="12.1137802"><ele>199.0</ele><time>2026-04-30T10:45:30.988Z</time></trkpt><trkpt lat="42.7732977" lon="12.1138501"><ele>197.5</ele><time>2026-04-30T10:45:31.987Z</time></trkpt><trkpt lat="42.7730467" lon="12.1139049"><ele>196.0</ele><time>2026-04-30T10:45:32.987Z</time></trkpt><trkpt lat="42.7728052" lon="12.1139603"><ele>194.33333333333331</ele><time>2026-04-30T10:45:33.987Z</time></trkpt><trkpt lat="42.772589" lon="12.1140513"><ele>192.66666666666666</ele><time>2026-04-30T10:45:34.987Z</time></trkpt><trkpt lat="42.7724034" lon="12.1141744"><ele>191.0</ele><time>2026-04-30T10:45:35.987Z</time></trkpt><trkpt lat="42.7722586" lon="12.1143275"><ele>189.25</ele><time>2026-04-30T10:45:36.987Z</time></trkpt><trkpt lat="42.7721476" lon="12.1144919"><ele>187.5</ele><time>2026-04-30T10:45:37.987Z</time></trkpt><trkpt lat="42.7720518" lon="12.1146305"><ele>185.75</ele><time>2026-04-30T10:45:38.987Z</time></trkpt><trkpt lat="42.7719346" lon="12.1147017"><ele>184.0</ele><time>2026-04-30T10:45:39.987Z</time></trkpt><trkpt lat="42.7718072" lon="12.1146807"><ele>182.33333333333334</ele><time>2026-04-30T10:45:40.987Z</time></trkpt><trkpt lat="42.7716733" lon="12.1145777"><ele>180.66666666666666</ele><time>2026-04-30T10:45:41.987Z</time></trkpt><trkpt lat="42.7715461" lon="12.1144075"><ele>179.0</ele><time>2026-04-30T10:45:42.987Z</time></trkpt><trkpt lat="42.7714159" lon="12.1142108"><ele>180.66666666666666</ele><time>2026-04-30T10:45:43.987Z</time></trkpt><trkpt lat="42.7712674" lon="12.1140472"><ele>182.33333333333334</ele><time>2026-04-30T10:45:44.987Z</time></trkpt><trkpt lat="42.7710946" lon="12.1139422"><ele>184.0</ele><time>2026-04-30T10:45:45.988Z</time></trkpt><trkpt lat="42.7709304" lon="12.1138425"><ele>177.33333333333334</ele><time>2026-04-30T10:45:46.987Z</time></trkpt><trkpt lat="42.7707995" lon="12.1137088"><ele>170.66666666666666</ele><time>2026-04-30T10:45:47.987Z</time></trkpt><trkpt lat="42.7707232" lon="12.1135148"><ele>164.0</ele><time>2026-04-30T10:45:48.988Z</time></trkpt><trkpt lat="42.7707074" lon="12.1132855"><ele>160.0</ele><time>2026-04-30T10:45:49.987Z</time></trkpt><trkpt lat="42.7707525" lon="12.113059"><ele>156.0</ele><time>2026-04-30T10:45:50.987Z</time></trkpt><trkpt lat="42.7708514" lon="12.112858"><ele>152.0</ele><time>2026-04-30T10:45:51.987Z</time></trkpt><trkpt lat="42.7709919" lon="12.1127035"><ele>151.33333333333331</ele><time>2026-04-30T10:45:52.987Z</time></trkpt><trkpt lat="42.7711694" lon="12.1125836"><ele>150.66666666666666</ele><time>2026-04-30T10:45:53.987Z</time></trkpt><trkpt lat="42.7713658" lon="12.1124758"><ele>150.0</ele><time>2026-04-30T10:45:54.987Z</time></trkpt><trkpt lat="42.7715629" lon="12.1123631"><ele>150.0</ele><time>2026-04-30T10:45:55.988Z</time></trkpt><trkpt lat="42.7717483" lon="12.1122479"><ele>150.0</ele><time>2026-04-30T10:45:56.988Z</time></trkpt><trkpt lat="42.7719185" lon="12.1121372"><ele>150.0</ele><time>2026-04-30T10:45:57.988Z</time></trkpt><trkpt lat="42.7720598" lon="12.1120281"><ele>150.75</ele><time>2026-04-30T10:45:58.988Z</time></trkpt><trkpt lat="42.7721711" lon="12.1118987"><ele>151.5</ele><time>2026-04-30T10:45:59.987Z</time></trkpt><trkpt lat="42.7722316" lon="12.1117424"><ele>152.25</ele><time>2026-04-30T10:46:00.987Z</time></trkpt><trkpt lat="42.7722292" lon="12.1115797"><ele>153.0</ele><time>2026-04-30T10:46:01.988Z</time></trkpt><trkpt lat="42.7721693" lon="12.1114178"><ele>154.33333333333334</ele><time>2026-04-30T10:46:02.988Z</time></trkpt><trkpt lat="42.7720625" lon="12.1112738"><ele>155.66666666666669</ele><time>2026-04-30T10:46:03.987Z</time></trkpt><trkpt lat="42.7719211" lon="12.111203"><ele>157.0</ele><time>2026-04-30T10:46:04.988Z</time></trkpt><trkpt lat="42.7717669" lon="12.111206"><ele>158.66666666666669</ele><time>2026-04-30T10:46:05.988Z</time></trkpt><trkpt lat="42.7716018" lon="12.1112644"><ele>160.33333333333334</ele><time>2026-04-30T10:46:06.987Z</time></trkpt><trkpt lat="42.7714329" lon="12.1113358"><ele>162.0</ele><time>2026-04-30T10:46:07.987Z</time></trkpt><trkpt lat="42.7712516" lon="12.1114037"><ele>162.0</ele><time>2026-04-30T10:46:08.988Z</time></trkpt><trkpt lat="42.771046" lon="12.111466"><ele>162.0</ele><time>2026-04-30T10:46:09.988Z</time></trkpt><trkpt lat="42.7708302" lon="12.1115312"><ele>162.0</ele><time>2026-04-30T10:46:10.987Z</time></trkpt><trkpt lat="42.7706115" lon="12.1116127"><ele>158.0</ele><time>2026-04-30T10:46:11.987Z</time></trkpt><trkpt lat="42.7703928" lon="12.111717"><ele>154.0</ele><time>2026-04-30T10:46:12.987Z</time></trkpt><trkpt lat="42.7701959" lon="12.111855"><ele>152.66666666666669</ele><time>2026-04-30T10:46:13.988Z</time></trkpt><trkpt lat="42.770023" lon="12.1120455"><ele>151.33333333333334</ele><time>2026-04-30T10:46:14.988Z</time></trkpt><trkpt lat="42.7698696" lon="12.1122736"><ele>150.0</ele><time>2026-04-30T10:46:15.987Z</time></trkpt><trkpt lat="42.7697162" lon="12.1124915"><ele>150.0</ele><time>2026-04-30T10:46:16.987Z</time></trkpt><trkpt lat="42.7695604" lon="12.1126735"><ele>150.0</ele><time>2026-04-30T10:46:17.987Z</time></trkpt><trkpt lat="42.7693957" lon="12.1128275"><ele>150.0</ele><time>2026-04-30T10:46:18.987Z</time></trkpt><trkpt lat="42.7692374" lon="12.1129585"><ele>153.66666666666666</ele><time>2026-04-30T10:46:19.987Z</time></trkpt><trkpt lat="42.7690752" lon="12.1130617"><ele>157.33333333333331</ele><time>2026-04-30T10:46:20.987Z</time></trkpt><trkpt lat="42.768913" lon="12.1131118"><ele>161.0</ele><time>2026-04-30T10:46:21.988Z</time></trkpt><trkpt lat="42.7687506" lon="12.1131024"><ele>161.0</ele><time>2026-04-30T10:46:22.988Z</time></trkpt><trkpt lat="42.7686077" lon="12.1130615"><ele>161.0</ele><time>2026-04-30T10:46:23.987Z</time></trkpt><trkpt lat="42.768482" lon="12.1130038"><ele>161.0</ele><time>2026-04-30T10:46:24.987Z</time></trkpt><trkpt lat="42.7683635" lon="12.1129302"><ele>161.0</ele><time>2026-04-30T10:46:25.988Z</time></trkpt><trkpt lat="42.7682545" lon="12.1128371"><ele>160.75</ele><time>2026-04-30T10:46:26.987Z</time></trkpt><trkpt lat="42.7681521" lon="12.1127162"><ele>160.5</ele><time>2026-04-30T10:46:27.987Z</time></trkpt><trkpt lat="42.7680584" lon="12.1125764"><ele>160.25</ele><time>2026-04-30T10:46:28.987Z</time></trkpt><trkpt lat="42.7679798" lon="12.1124247"><ele>160.0</ele><time>2026-04-30T10:46:29.987Z</time></trkpt><trkpt lat="42.7679069" lon="12.1122756"><ele>160.0</ele><time>2026-04-30T10:46:30.987Z</time></trkpt><trkpt lat="42.7678393" lon="12.1121356"><ele>160.0</ele><time>2026-04-30T10:46:31.987Z</time></trkpt><trkpt lat="42.7677661" lon="12.111994"><ele>160.0</ele><time>2026-04-30T10:46:32.987Z</time></trkpt><trkpt lat="42.7676726" lon="12.1118629"><ele>160.0</ele><time>2026-04-30T10:46:33.988Z</time></trkpt><trkpt lat="42.7675528" lon="12.1117531"><ele>157.5</ele><time>2026-04-30T10:46:34.987Z</time></trkpt><trkpt lat="42.7674253" lon="12.1116717"><ele>155.0</ele><time>2026-04-30T10:46:35.987Z</time></trkpt><trkpt lat="42.7673093" lon="12.1116189"><ele>152.5</ele><time>2026-04-30T10:46:36.988Z</time></trkpt><trkpt lat="42.7671945" lon="12.111577"><ele>150.0</ele><time>2026-04-30T10:46:37.988Z</time></trkpt><trkpt lat="42.7670825" lon="12.1115596"><ele>150.0</ele><time>2026-04-30T10:46:38.987Z</time></trkpt><trkpt lat="42.7669668" lon="12.1115488"><ele>150.0</ele><time>2026-04-30T10:46:39.988Z</time></trkpt><trkpt lat="42.766842" lon="12.1115446"><ele>150.0</ele><time>2026-04-30T10:46:40.987Z</time></trkpt><trkpt lat="42.7667142" lon="12.1115405"><ele>150.0</ele><time>2026-04-30T10:46:41.987Z</time></trkpt><trkpt lat="42.7665798" lon="12.1115392"><ele>150.25</ele><time>2026-04-30T10:46:42.988Z</time></trkpt><trkpt lat="42.7664424" lon="12.1115432"><ele>150.5</ele><time>2026-04-30T10:46:43.988Z</time></trkpt><trkpt lat="42.7663108" lon="12.1115443"><ele>150.75</ele><time>2026-04-30T10:46:44.987Z</time></trkpt><trkpt lat="42.7661763" lon="12.1115537"><ele>151.0</ele><time>2026-04-30T10:46:45.987Z</time></trkpt><trkpt lat="42.766038" lon="12.1115669"><ele>150.33333333333334</ele><time>2026-04-30T10:46:46.987Z</time></trkpt><trkpt lat="42.7658888" lon="12.1115746"><ele>149.66666666666666</ele><time>2026-04-30T10:46:47.987Z</time></trkpt><trkpt lat="42.7657249" lon="12.1115897"><ele>149.0</ele><time>2026-04-30T10:46:48.987Z</time></trkpt><trkpt lat="42.765562" lon="12.1116072"><ele>149.0</ele><time>2026-04-30T10:46:49.987Z</time></trkpt><trkpt lat="42.765394" lon="12.1116267"><ele>149.0</ele><time>2026-04-30T10:46:50.987Z</time></trkpt><trkpt lat="42.7652228" lon="12.1116489"><ele>149.0</ele><time>2026-04-30T10:46:51.987Z</time></trkpt><trkpt lat="42.7650517" lon="12.1116697"><ele>148.66666666666666</ele><time>2026-04-30T10:46:52.987Z</time></trkpt><trkpt lat="42.7648754" lon="12.1116973"><ele>148.33333333333334</ele><time>2026-04-30T10:46:53.987Z</time></trkpt><trkpt lat="42.7646953" lon="12.1117305"><ele>148.0</ele><time>2026-04-30T10:46:54.987Z</time></trkpt><trkpt lat="42.76451" lon="12.1117856"><ele>148.5</ele><time>2026-04-30T10:46:55.987Z</time></trkpt><trkpt lat="42.7643056" lon="12.1118751"><ele>149.0</ele><time>2026-04-30T10:46:56.987Z</time></trkpt><trkpt lat="42.7640797" lon="12.1119825"><ele>149.0</ele><time>2026-04-30T10:46:57.987Z</time></trkpt><trkpt lat="42.7638332" lon="12.1121077"><ele>149.0</ele><time>2026-04-30T10:46:58.988Z</time></trkpt><trkpt lat="42.7635776" lon="12.112223"><ele>149.0</ele><time>2026-04-30T10:46:59.988Z</time></trkpt><trkpt lat="42.7633193" lon="12.1123247"><ele>149.0</ele><time>2026-04-30T10:47:00.987Z</time></trkpt><trkpt lat="42.7630546" lon="12.112441"><ele>149.5</ele><time>2026-04-30T10:47:01.987Z</time></trkpt><trkpt lat="42.7627887" lon="12.1125677"><ele>150.0</ele><time>2026-04-30T10:47:02.988Z</time></trkpt><trkpt lat="42.7625225" lon="12.1127089"><ele>150.0</ele><time>2026-04-30T10:47:03.987Z</time></trkpt><trkpt lat="42.7622573" lon="12.1128685"><ele>150.0</ele><time>2026-04-30T10:47:04.988Z</time></trkpt><trkpt lat="42.7619964" lon="12.1130361"><ele>148.5</ele><time>2026-04-30T10:47:05.988Z</time></trkpt><trkpt lat="42.761736" lon="12.1132172"><ele>147.0</ele><time>2026-04-30T10:47:06.987Z</time></trkpt><trkpt lat="42.7614754" lon="12.1134065"><ele>147.0</ele><time>2026-04-30T10:47:07.988Z</time></trkpt><trkpt lat="42.7612177" lon="12.113601"><ele>147.0</ele><time>2026-04-30T10:47:08.987Z</time></trkpt><trkpt lat="42.7609649" lon="12.1138024"><ele>146.0</ele><time>2026-04-30T10:47:09.987Z</time></trkpt><trkpt lat="42.7607164" lon="12.1140159"><ele>145.0</ele><time>2026-04-30T10:47:10.988Z</time></trkpt><trkpt lat="42.7604722" lon="12.1142313"><ele>145.0</ele><time>2026-04-30T10:47:11.987Z</time></trkpt><trkpt lat="42.7602239" lon="12.1144573"><ele>145.0</ele><time>2026-04-30T10:47:12.988Z</time></trkpt><trkpt lat="42.7599822" lon="12.1146854"><ele>145.0</ele><time>2026-04-30T10:47:13.987Z</time></trkpt><trkpt lat="42.7597407" lon="12.1149098"><ele>145.0</ele><time>2026-04-30T10:47:14.987Z</time></trkpt><trkpt lat="42.7594982" lon="12.1151298"><ele>146.0</ele><time>2026-04-30T10:47:15.988Z</time></trkpt><trkpt lat="42.7592552" lon="12.1153507"><ele>147.0</ele><time>2026-04-30T10:47:16.987Z</time></trkpt><trkpt lat="42.7590173" lon="12.1155725"><ele>145.5</ele><time>2026-04-30T10:47:17.988Z</time></trkpt><trkpt lat="42.758785" lon="12.1157884"><ele>144.0</ele><time>2026-04-30T10:47:18.988Z</time></trkpt><trkpt lat="42.7585502" lon="12.1160072"><ele>145.5</ele><time>2026-04-30T10:47:19.988Z</time></trkpt><trkpt lat="42.7583155" lon="12.1162176"><ele>147.0</ele><time>2026-04-30T10:47:20.987Z</time></trkpt><trkpt lat="42.7580938" lon="12.1164327"><ele>147.0</ele><time>2026-04-30T10:47:21.988Z</time></trkpt><trkpt lat="42.7578722" lon="12.1166418"><ele>147.0</ele><time>2026-04-30T10:47:22.987Z</time></trkpt><trkpt lat="42.7576548" lon="12.1168436"><ele>148.5</ele><time>2026-04-30T10:47:23.988Z</time></trkpt><trkpt lat="42.7574475" lon="12.1170283"><ele>150.0</ele><time>2026-04-30T10:47:24.988Z</time></trkpt><trkpt lat="42.7572521" lon="12.1172009"><ele>150.0</ele><time>2026-04-30T10:47:25.987Z</time></trkpt><trkpt lat="42.7570726" lon="12.1173697"><ele>150.0</ele><time>2026-04-30T10:47:26.988Z</time></trkpt><trkpt lat="42.7569061" lon="12.1175338"><ele>150.0</ele><time>2026-04-30T10:47:27.987Z</time></trkpt><trkpt lat="42.7567559" lon="12.1177102"><ele>150.0</ele><time>2026-04-30T10:47:28.987Z</time></trkpt><trkpt lat="42.7566189" lon="12.1178932"><ele>150.0</ele><time>2026-04-30T10:47:29.987Z</time></trkpt><trkpt lat="42.756485" lon="12.1180789"><ele>150.0</ele><time>2026-04-30T10:47:30.987Z</time></trkpt><trkpt lat="42.7563555" lon="12.1182691"><ele>150.0</ele><time>2026-04-30T10:47:31.987Z</time></trkpt><trkpt lat="42.7562284" lon="12.1184764"><ele>150.0</ele><time>2026-04-30T10:47:32.987Z</time></trkpt><trkpt lat="42.7561021" lon="12.1186922"><ele>150.0</ele><time>2026-04-30T10:47:33.987Z</time></trkpt><trkpt lat="42.755984" lon="12.1189114"><ele>151.0</ele><time>2026-04-30T10:47:34.988Z</time></trkpt><trkpt lat="42.7558612" lon="12.119139"><ele>152.0</ele><time>2026-04-30T10:47:35.987Z</time></trkpt><trkpt lat="42.7557431" lon="12.1193668"><ele>153.0</ele><time>2026-04-30T10:47:36.988Z</time></trkpt><trkpt lat="42.7556126" lon="12.1196013"><ele>153.0</ele><time>2026-04-30T10:47:37.988Z</time></trkpt><trkpt lat="42.7554841" lon="12.1198453"><ele>153.0</ele><time>2026-04-30T10:47:38.987Z</time></trkpt><trkpt lat="42.7553577" lon="12.1200837"><ele>153.0</ele><time>2026-04-30T10:47:39.987Z</time></trkpt><trkpt lat="42.7552365" lon="12.1203046"><ele>153.0</ele><time>2026-04-30T10:47:40.987Z</time></trkpt><trkpt lat="42.755126" lon="12.1205222"><ele>153.0</ele><time>2026-04-30T10:47:41.987Z</time></trkpt><trkpt lat="42.7550031" lon="12.12071"><ele>153.0</ele><time>2026-04-30T10:47:42.987Z</time></trkpt><trkpt lat="42.7548652" lon="12.120849"><ele>153.0</ele><time>2026-04-30T10:47:43.987Z</time></trkpt><trkpt lat="42.7547136" lon="12.1209046"><ele>153.0</ele><time>2026-04-30T10:47:44.987Z</time></trkpt><trkpt lat="42.7545389" lon="12.1208936"><ele>153.0</ele><time>2026-04-30T10:47:45.987Z</time></trkpt><trkpt lat="42.7543567" lon="12.1208313"><ele>155.33333333333334</ele><time>2026-04-30T10:47:46.987Z</time></trkpt><trkpt lat="42.7541832" lon="12.1207426"><ele>157.66666666666669</ele><time>2026-04-30T10:47:47.987Z</time></trkpt><trkpt lat="42.7540231" lon="12.1206702"><ele>160.0</ele><time>2026-04-30T10:47:48.987Z</time></trkpt><trkpt lat="42.7538725" lon="12.1206184"><ele>161.0</ele><time>2026-04-30T10:47:49.988Z</time></trkpt><trkpt lat="42.7537364" lon="12.1206049"><ele>162.0</ele><time>2026-04-30T10:47:50.988Z</time></trkpt><trkpt lat="42.7536106" lon="12.120634"><ele>163.0</ele><time>2026-04-30T10:47:51.987Z</time></trkpt><trkpt lat="42.7535087" lon="12.1207111"><ele>164.0</ele><time>2026-04-30T10:47:52.988Z</time></trkpt><trkpt lat="42.7534421" lon="12.1208442"><ele>164.0</ele><time>2026-04-30T10:47:53.987Z</time></trkpt><trkpt lat="42.7534272" lon="12.1210006"><ele>164.0</ele><time>2026-04-30T10:47:54.987Z</time></trkpt><trkpt lat="42.7534585" lon="12.1211347"><ele>164.0</ele><time>2026-04-30T10:47:55.987Z</time></trkpt><trkpt lat="42.7535253" lon="12.1212502"><ele>164.0</ele><time>2026-04-30T10:47:56.987Z</time></trkpt><trkpt lat="42.7536163" lon="12.1213385"><ele>164.0</ele><time>2026-04-30T10:47:57.987Z</time></trkpt><trkpt lat="42.7537115" lon="12.1214044"><ele>163.2</ele><time>2026-04-30T10:47:58.987Z</time></trkpt><trkpt lat="42.753811" lon="12.121461"><ele>162.39999999999998</ele><time>2026-04-30T10:47:59.987Z</time></trkpt><trkpt lat="42.753912" lon="12.1215225"><ele>161.6</ele><time>2026-04-30T10:48:00.988Z</time></trkpt><trkpt lat="42.7540018" lon="12.1216081"><ele>160.8</ele><time>2026-04-30T10:48:01.988Z</time></trkpt><trkpt lat="42.7540729" lon="12.1217267"><ele>160.0</ele><time>2026-04-30T10:48:02.987Z</time></trkpt><trkpt lat="42.7540995" lon="12.1218749"><ele>159.5</ele><time>2026-04-30T10:48:03.987Z</time></trkpt><trkpt lat="42.7540795" lon="12.1220408"><ele>159.0</ele><time>2026-04-30T10:48:04.988Z</time></trkpt><trkpt lat="42.7540184" lon="12.1222199"><ele>158.5</ele><time>2026-04-30T10:48:05.987Z</time></trkpt><trkpt lat="42.7539337" lon="12.1223819"><ele>158.0</ele><time>2026-04-30T10:48:06.987Z</time></trkpt><trkpt lat="42.7538368" lon="12.1225383"><ele>159.66666666666666</ele><time>2026-04-30T10:48:07.987Z</time></trkpt><trkpt lat="42.7537409" lon="12.1226869"><ele>161.33333333333334</ele><time>2026-04-30T10:48:08.988Z</time></trkpt><trkpt lat="42.7536358" lon="12.1228395"><ele>163.0</ele><time>2026-04-30T10:48:09.988Z</time></trkpt><trkpt lat="42.7535271" lon="12.1229942"><ele>166.66666666666669</ele><time>2026-04-30T10:48:10.987Z</time></trkpt><trkpt lat="42.7533977" lon="12.1231179"><ele>170.33333333333334</ele><time>2026-04-30T10:48:11.988Z</time></trkpt><trkpt lat="42.7532627" lon="12.1232151"><ele>174.0</ele><time>2026-04-30T10:48:12.988Z</time></trkpt><trkpt lat="42.7531132" lon="12.1232898"><ele>174.0</ele><time>2026-04-30T10:48:13.987Z</time></trkpt><trkpt lat="42.7529656" lon="12.1233623"><ele>174.0</ele><time>2026-04-30T10:48:14.987Z</time></trkpt><trkpt lat="42.7528203" lon="12.1234184"><ele>174.0</ele><time>2026-04-30T10:48:15.988Z</time></trkpt><trkpt lat="42.7526623" lon="12.1234373"><ele>176.33333333333334</ele><time>2026-04-30T10:48:16.988Z</time></trkpt><trkpt lat="42.7525135" lon="12.1234041"><ele>178.66666666666669</ele><time>2026-04-30T10:48:17.987Z</time></trkpt><trkpt lat="42.7523777" lon="12.1233354"><ele>181.0</ele><time>2026-04-30T10:48:18.987Z</time></trkpt><trkpt lat="42.7522422" lon="12.1232353"><ele>181.25</ele><time>2026-04-30T10:48:19.987Z</time></trkpt><trkpt lat="42.7521074" lon="12.1231383"><ele>181.5</ele><time>2026-04-30T10:48:20.988Z</time></trkpt><trkpt lat="42.7519683" lon="12.1230836"><ele>181.75</ele><time>2026-04-30T10:48:21.988Z</time></trkpt><trkpt lat="42.7518254" lon="12.1230677"><ele>182.0</ele><time>2026-04-30T10:48:22.987Z</time></trkpt><trkpt lat="42.7516819" lon="12.1230983"><ele>183.0</ele><time>2026-04-30T10:48:23.988Z</time></trkpt><trkpt lat="42.7515411" lon="12.1231632"><ele>184.0</ele><time>2026-04-30T10:48:24.988Z</time></trkpt><trkpt lat="42.7514034" lon="12.1232621"><ele>185.0</ele><time>2026-04-30T10:48:25.988Z</time></trkpt><trkpt lat="42.7512752" lon="12.123376"><ele>185.0</ele><time>2026-04-30T10:48:26.987Z</time></trkpt><trkpt lat="42.751162" lon="12.1235099"><ele>185.0</ele><time>2026-04-30T10:48:27.988Z</time></trkpt><trkpt lat="42.7510614" lon="12.1236697"><ele>185.0</ele><time>2026-04-30T10:48:28.987Z</time></trkpt><trkpt lat="42.7509729" lon="12.1238396"><ele>186.33333333333331</ele><time>2026-04-30T10:48:29.987Z</time></trkpt><trkpt lat="42.7508823" lon="12.1240113"><ele>187.66666666666666</ele><time>2026-04-30T10:48:30.987Z</time></trkpt><trkpt lat="42.7507945" lon="12.1241869"><ele>189.0</ele><time>2026-04-30T10:48:31.988Z</time></trkpt><trkpt lat="42.750703" lon="12.124369"><ele>189.0</ele><time>2026-04-30T10:48:32.988Z</time></trkpt><trkpt lat="42.7506117" lon="12.1245661"><ele>189.0</ele><time>2026-04-30T10:48:33.988Z</time></trkpt><trkpt lat="42.7505123" lon="12.1247753"><ele>189.0</ele><time>2026-04-30T10:48:34.988Z</time></trkpt><trkpt lat="42.7504194" lon="12.1249948"><ele>189.33333333333334</ele><time>2026-04-30T10:48:35.988Z</time></trkpt><trkpt lat="42.7503437" lon="12.1252167"><ele>189.66666666666669</ele><time>2026-04-30T10:48:36.988Z</time></trkpt><trkpt lat="42.7502791" lon="12.1254373"><ele>190.0</ele><time>2026-04-30T10:48:37.987Z</time></trkpt><trkpt lat="42.7502189" lon="12.1256553"><ele>185.66666666666669</ele><time>2026-04-30T10:48:38.987Z</time></trkpt><trkpt lat="42.7501679" lon="12.1258645"><ele>181.33333333333334</ele><time>2026-04-30T10:48:39.987Z</time></trkpt><trkpt lat="42.7501253" lon="12.126071"><ele>177.0</ele><time>2026-04-30T10:48:40.987Z</time></trkpt><trkpt lat="42.7500857" lon="12.1262781"><ele>177.0</ele><time>2026-04-30T10:48:41.987Z</time></trkpt><trkpt lat="42.7500649" lon="12.1264795"><ele>177.0</ele><time>2026-04-30T10:48:42.987Z</time></trkpt><trkpt lat="42.7500448" lon="12.1266791"><ele>177.0</ele><time>2026-04-30T10:48:43.987Z</time></trkpt><trkpt lat="42.750004" lon="12.1268675"><ele>177.0</ele><time>2026-04-30T10:48:44.988Z</time></trkpt><trkpt lat="42.7499354" lon="12.1270275"><ele>177.0</ele><time>2026-04-30T10:48:45.987Z</time></trkpt><trkpt lat="42.7498262" lon="12.1271297"><ele>177.0</ele><time>2026-04-30T10:48:46.987Z</time></trkpt><trkpt lat="42.7496848" lon="12.12715"><ele>177.0</ele><time>2026-04-30T10:48:47.988Z</time></trkpt><trkpt lat="42.7495409" lon="12.1271063"><ele>177.0</ele><time>2026-04-30T10:48:48.988Z</time></trkpt><trkpt lat="42.7493999" lon="12.1270476"><ele>174.5</ele><time>2026-04-30T10:48:49.988Z</time></trkpt><trkpt lat="42.7492548" lon="12.1270098"><ele>172.0</ele><time>2026-04-30T10:48:50.988Z</time></trkpt><trkpt lat="42.7491201" lon="12.1270068"><ele>169.5</ele><time>2026-04-30T10:48:51.987Z</time></trkpt><trkpt lat="42.7489941" lon="12.1270454"><ele>167.0</ele><time>2026-04-30T10:48:52.987Z</time></trkpt><trkpt lat="42.7488822" lon="12.1271176"><ele>167.0</ele><time>2026-04-30T10:48:53.988Z</time></trkpt><trkpt lat="42.7487806" lon="12.1272088"><ele>167.0</ele><time>2026-04-30T10:48:54.987Z</time></trkpt><trkpt lat="42.7486875" lon="12.1273056"><ele>167.0</ele><time>2026-04-30T10:48:55.987Z</time></trkpt><trkpt lat="42.7485946" lon="12.1274007"><ele>167.0</ele><time>2026-04-30T10:48:56.987Z</time></trkpt><trkpt lat="42.7484968" lon="12.1274871"><ele>165.0</ele><time>2026-04-30T10:48:57.987Z</time></trkpt><trkpt lat="42.7483984" lon="12.1275699"><ele>163.0</ele><time>2026-04-30T10:48:58.987Z</time></trkpt><trkpt lat="42.7482967" lon="12.1276346"><ele>161.0</ele><time>2026-04-30T10:48:59.987Z</time></trkpt><trkpt lat="42.7481843" lon="12.1276695"><ele>159.0</ele><time>2026-04-30T10:49:00.987Z</time></trkpt><trkpt lat="42.7480699" lon="12.1276482"><ele>159.0</ele><time>2026-04-30T10:49:01.987Z</time></trkpt><trkpt lat="42.7479829" lon="12.1275573"><ele>159.0</ele><time>2026-04-30T10:49:02.988Z</time></trkpt><trkpt lat="42.7479173" lon="12.1274165"><ele>159.0</ele><time>2026-04-30T10:49:03.987Z</time></trkpt><trkpt lat="42.7478813" lon="12.1272688"><ele>159.0</ele><time>2026-04-30T10:49:04.987Z</time></trkpt><trkpt lat="42.7478729" lon="12.1271201"><ele>158.75</ele><time>2026-04-30T10:49:05.987Z</time></trkpt><trkpt lat="42.7478663" lon="12.1269576"><ele>158.5</ele><time>2026-04-30T10:49:06.987Z</time></trkpt><trkpt lat="42.7478505" lon="12.1268057"><ele>158.25</ele><time>2026-04-30T10:49:07.987Z</time></trkpt><trkpt lat="42.7478065" lon="12.1266615"><ele>158.0</ele><time>2026-04-30T10:49:08.987Z</time></trkpt><trkpt lat="42.7477398" lon="12.1265458"><ele>157.4</ele><time>2026-04-30T10:49:09.988Z</time></trkpt><trkpt lat="42.7476623" lon="12.1264597"><ele>156.8</ele><time>2026-04-30T10:49:10.987Z</time></trkpt><trkpt lat="42.7475726" lon="12.1263929"><ele>156.2</ele><time>2026-04-30T10:49:11.987Z</time></trkpt><trkpt lat="42.7474774" lon="12.1263443"><ele>155.6</ele><time>2026-04-30T10:49:12.987Z</time></trkpt><trkpt lat="42.7473809" lon="12.1263348"><ele>155.0</ele><time>2026-04-30T10:49:13.987Z</time></trkpt><trkpt lat="42.7472834" lon="12.1263596"><ele>155.0</ele><time>2026-04-30T10:49:14.987Z</time></trkpt><trkpt lat="42.7471834" lon="12.126417"><ele>155.0</ele><time>2026-04-30T10:49:15.988Z</time></trkpt><trkpt lat="42.7470996" lon="12.1265157"><ele>155.0</ele><time>2026-04-30T10:49:16.987Z</time></trkpt><trkpt lat="42.7470344" lon="12.1266497"><ele>155.0</ele><time>2026-04-30T10:49:17.987Z</time></trkpt><trkpt lat="42.7470012" lon="12.1268105"><ele>153.75</ele><time>2026-04-30T10:49:18.988Z</time></trkpt><trkpt lat="42.7469909" lon="12.1269824"><ele>152.5</ele><time>2026-04-30T10:49:19.987Z</time></trkpt><trkpt lat="42.7470039" lon="12.1271719"><ele>151.25</ele><time>2026-04-30T10:49:20.987Z</time></trkpt><trkpt lat="42.7470228" lon="12.1273555"><ele>150.0</ele><time>2026-04-30T10:49:21.988Z</time></trkpt><trkpt lat="42.7470287" lon="12.1275433"><ele>150.0</ele><time>2026-04-30T10:49:22.988Z</time></trkpt><trkpt lat="42.7470024" lon="12.1277171"><ele>150.0</ele><time>2026-04-30T10:49:23.987Z</time></trkpt><trkpt lat="42.7469453" lon="12.1278841"><ele>150.0</ele><time>2026-04-30T10:49:24.988Z</time></trkpt><trkpt lat="42.7468664" lon="12.1280369"><ele>150.0</ele><time>2026-04-30T10:49:25.988Z</time></trkpt><trkpt lat="42.7467787" lon="12.1281695"><ele>146.75</ele><time>2026-04-30T10:49:26.988Z</time></trkpt><trkpt lat="42.7466719" lon="12.1282725"><ele>143.5</ele><time>2026-04-30T10:49:27.988Z</time></trkpt><trkpt lat="42.7465377" lon="12.128331"><ele>140.25</ele><time>2026-04-30T10:49:28.987Z</time></trkpt><trkpt lat="42.7463877" lon="12.1283416"><ele>137.0</ele><time>2026-04-30T10:49:29.987Z</time></trkpt><trkpt lat="42.7462258" lon="12.1283304"><ele>137.0</ele><time>2026-04-30T10:49:30.987Z</time></trkpt><trkpt lat="42.7460723" lon="12.1283426"><ele>137.0</ele><time>2026-04-30T10:49:31.988Z</time></trkpt><trkpt lat="42.7459293" lon="12.1283963"><ele>137.0</ele><time>2026-04-30T10:49:32.988Z</time></trkpt><trkpt lat="42.7457934" lon="12.1284748"><ele>137.5</ele><time>2026-04-30T10:49:33.988Z</time></trkpt><trkpt lat="42.7456562" lon="12.128555"><ele>138.0</ele><time>2026-04-30T10:49:34.987Z</time></trkpt><trkpt lat="42.7455205" lon="12.1286112"><ele>138.5</ele><time>2026-04-30T10:49:35.988Z</time></trkpt><trkpt lat="42.7453761" lon="12.1286215"><ele>139.0</ele><time>2026-04-30T10:49:36.987Z</time></trkpt><trkpt lat="42.7452349" lon="12.1285698"><ele>136.33333333333334</ele><time>2026-04-30T10:49:37.987Z</time></trkpt><trkpt lat="42.745097" lon="12.1284955"><ele>133.66666666666666</ele><time>2026-04-30T10:49:38.987Z</time></trkpt><trkpt lat="42.7449607" lon="12.1283994"><ele>131.0</ele><time>2026-04-30T10:49:39.988Z</time></trkpt><trkpt lat="42.7448295" lon="12.128288"><ele>130.0</ele><time>2026-04-30T10:49:40.988Z</time></trkpt><trkpt lat="42.744705" lon="12.1281898"><ele>129.0</ele><time>2026-04-30T10:49:41.988Z</time></trkpt><trkpt lat="42.7445905" lon="12.1281028"><ele>128.0</ele><time>2026-04-30T10:49:42.987Z</time></trkpt><trkpt lat="42.744481" lon="12.1280234"><ele>127.0</ele><time>2026-04-30T10:49:43.987Z</time></trkpt><trkpt lat="42.7443707" lon="12.1279428"><ele>127.0</ele><time>2026-04-30T10:49:44.987Z</time></trkpt><trkpt lat="42.7442585" lon="12.1278609"><ele>127.0</ele><time>2026-04-30T10:49:45.987Z</time></trkpt><trkpt lat="42.7441474" lon="12.1277801"><ele>127.0</ele><time>2026-04-30T10:49:46.987Z</time></trkpt><trkpt lat="42.7440324" lon="12.1276936"><ele>127.0</ele><time>2026-04-30T10:49:47.987Z</time></trkpt><trkpt lat="42.7439082" lon="12.1276021"><ele>127.0</ele><time>2026-04-30T10:49:48.987Z</time></trkpt><trkpt lat="42.7437812" lon="12.1275061"><ele>127.0</ele><time>2026-04-30T10:49:49.987Z</time></trkpt><trkpt lat="42.7436546" lon="12.127416"><ele>127.0</ele><time>2026-04-30T10:49:50.987Z</time></trkpt><trkpt lat="42.7435201" lon="12.1273287"><ele>127.0</ele><time>2026-04-30T10:49:51.987Z</time></trkpt><trkpt lat="42.7433738" lon="12.1272304"><ele>127.0</ele><time>2026-04-30T10:49:52.987Z</time></trkpt><trkpt lat="42.7432212" lon="12.1271216"><ele>127.0</ele><time>2026-04-30T10:49:53.988Z</time></trkpt><trkpt lat="42.7430591" lon="12.1270047"><ele>127.0</ele><time>2026-04-30T10:49:54.988Z</time></trkpt><trkpt lat="42.7428919" lon="12.1268809"><ele>127.0</ele><time>2026-04-30T10:49:55.987Z</time></trkpt><trkpt lat="42.7427195" lon="12.1267534"><ele>127.0</ele><time>2026-04-30T10:49:56.987Z</time></trkpt><trkpt lat="42.7425416" lon="12.1266158"><ele>127.0</ele><time>2026-04-30T10:49:57.987Z</time></trkpt><trkpt lat="42.7423625" lon="12.126475"><ele>127.0</ele><time>2026-04-30T10:49:58.987Z</time></trkpt><trkpt lat="42.7421858" lon="12.1263313"><ele>127.0</ele><time>2026-04-30T10:49:59.987Z</time></trkpt><trkpt lat="42.7420154" lon="12.1261938"><ele>127.0</ele><time>2026-04-30T10:50:00.988Z</time></trkpt><trkpt lat="42.741852" lon="12.1260586"><ele>127.0</ele><time>2026-04-30T10:50:01.987Z</time></trkpt><trkpt lat="42.7416938" lon="12.1259306"><ele>127.0</ele><time>2026-04-30T10:50:02.987Z</time></trkpt><trkpt lat="42.7415432" lon="12.1258119"><ele>127.0</ele><time>2026-04-30T10:50:03.987Z</time></trkpt><trkpt lat="42.7414057" lon="12.1257079"><ele>127.25</ele><time>2026-04-30T10:50:04.987Z</time></trkpt><trkpt lat="42.7412814" lon="12.1256145"><ele>127.5</ele><time>2026-04-30T10:50:05.987Z</time></trkpt><trkpt lat="42.7411616" lon="12.1255295"><ele>127.75</ele><time>2026-04-30T10:50:06.987Z</time></trkpt><trkpt lat="42.7410487" lon="12.1254552"><ele>128.0</ele><time>2026-04-30T10:50:07.988Z</time></trkpt><trkpt lat="42.7409487" lon="12.1253824"><ele>128.5</ele><time>2026-04-30T10:50:08.987Z</time></trkpt><trkpt lat="42.7408503" lon="12.1253037"><ele>129.0</ele><time>2026-04-30T10:50:09.988Z</time></trkpt><trkpt lat="42.7407504" lon="12.125226"><ele>129.5</ele><time>2026-04-30T10:50:10.987Z</time></trkpt><trkpt lat="42.7406415" lon="12.1251512"><ele>130.0</ele><time>2026-04-30T10:50:11.988Z</time></trkpt><trkpt lat="42.7405253" lon="12.1250656"><ele>130.0</ele><time>2026-04-30T10:50:12.987Z</time></trkpt><trkpt lat="42.7404034" lon="12.1249707"><ele>130.0</ele><time>2026-04-30T10:50:13.987Z</time></trkpt><trkpt lat="42.7402729" lon="12.1248701"><ele>130.0</ele><time>2026-04-30T10:50:14.987Z</time></trkpt><trkpt lat="42.7401314" lon="12.1247615"><ele>129.66666666666669</ele><time>2026-04-30T10:50:15.987Z</time></trkpt><trkpt lat="42.7399867" lon="12.1246513"><ele>129.33333333333334</ele><time>2026-04-30T10:50:16.987Z</time></trkpt><trkpt lat="42.7398341" lon="12.1245404"><ele>129.0</ele><time>2026-04-30T10:50:17.987Z</time></trkpt><trkpt lat="42.7396782" lon="12.1244289"><ele>129.0</ele><time>2026-04-30T10:50:18.987Z</time></trkpt><trkpt lat="42.7395204" lon="12.1243203"><ele>129.0</ele><time>2026-04-30T10:50:19.987Z</time></trkpt><trkpt lat="42.7393578" lon="12.12423"><ele>129.0</ele><time>2026-04-30T10:50:20.987Z</time></trkpt><trkpt lat="42.7391936" lon="12.1241775"><ele>128.0</ele><time>2026-04-30T10:50:21.987Z</time></trkpt><trkpt lat="42.7390233" lon="12.1241823"><ele>127.0</ele><time>2026-04-30T10:50:22.987Z</time></trkpt><trkpt lat="42.738856" lon="12.1242478"><ele>126.0</ele><time>2026-04-30T10:50:23.987Z</time></trkpt><trkpt lat="42.7386981" lon="12.1243654"><ele>125.66666666666666</ele><time>2026-04-30T10:50:24.988Z</time></trkpt><trkpt lat="42.7385439" lon="12.1245255"><ele>125.33333333333333</ele><time>2026-04-30T10:50:25.987Z</time></trkpt><trkpt lat="42.738388" lon="12.1247103"><ele>125.0</ele><time>2026-04-30T10:50:26.987Z</time></trkpt><trkpt lat="42.7382265" lon="12.1248986"><ele>124.33333333333333</ele><time>2026-04-30T10:50:27.987Z</time></trkpt><trkpt lat="42.7380593" lon="12.1250867"><ele>123.66666666666666</ele><time>2026-04-30T10:50:28.987Z</time></trkpt><trkpt lat="42.7378798" lon="12.1252761"><ele>123.0</ele><time>2026-04-30T10:50:29.988Z</time></trkpt><trkpt lat="42.7376925" lon="12.1254648"><ele>123.0</ele><time>2026-04-30T10:50:30.987Z</time></trkpt><trkpt lat="42.7375097" lon="12.1256548"><ele>123.0</ele><time>2026-04-30T10:50:31.987Z</time></trkpt><trkpt lat="42.7373282" lon="12.1258447"><ele>123.0</ele><time>2026-04-30T10:50:32.988Z</time></trkpt><trkpt lat="42.737149" lon="12.1260348"><ele>123.0</ele><time>2026-04-30T10:50:33.987Z</time></trkpt><trkpt lat="42.7369682" lon="12.1262309"><ele>122.0</ele><time>2026-04-30T10:50:34.987Z</time></trkpt><trkpt lat="42.7367834" lon="12.1264239"><ele>121.0</ele><time>2026-04-30T10:50:35.987Z</time></trkpt><trkpt lat="42.7366021" lon="12.1266171"><ele>121.0</ele><time>2026-04-30T10:50:36.987Z</time></trkpt><trkpt lat="42.7364168" lon="12.1268069"><ele>121.0</ele><time>2026-04-30T10:50:37.987Z</time></trkpt><trkpt lat="42.7362366" lon="12.1270004"><ele>121.0</ele><time>2026-04-30T10:50:38.987Z</time></trkpt><trkpt lat="42.7360543" lon="12.1271932"><ele>121.0</ele><time>2026-04-30T10:50:39.988Z</time></trkpt><trkpt lat="42.7358699" lon="12.1273866"><ele>120.0</ele><time>2026-04-30T10:50:40.987Z</time></trkpt><trkpt lat="42.7356899" lon="12.1275748"><ele>119.0</ele><time>2026-04-30T10:50:41.988Z</time></trkpt><trkpt lat="42.7355126" lon="12.1277603"><ele>119.0</ele><time>2026-04-30T10:50:42.987Z</time></trkpt><trkpt lat="42.7353361" lon="12.1279475"><ele>119.0</ele><time>2026-04-30T10:50:43.988Z</time></trkpt><trkpt lat="42.7351623" lon="12.1281279"><ele>119.0</ele><time>2026-04-30T10:50:44.987Z</time></trkpt><trkpt lat="42.7349918" lon="12.1283097"><ele>119.0</ele><time>2026-04-30T10:50:45.988Z</time></trkpt><trkpt lat="42.7348211" lon="12.1284957"><ele>119.0</ele><time>2026-04-30T10:50:46.987Z</time></trkpt><trkpt lat="42.7346526" lon="12.1286742"><ele>119.0</ele><time>2026-04-30T10:50:47.987Z</time></trkpt><trkpt lat="42.7344893" lon="12.128856"><ele>118.0</ele><time>2026-04-30T10:50:48.987Z</time></trkpt><trkpt lat="42.734335" lon="12.1290225"><ele>117.0</ele><time>2026-04-30T10:50:49.987Z</time></trkpt><trkpt lat="42.7341827" lon="12.1291833"><ele>116.0</ele><time>2026-04-30T10:50:50.987Z</time></trkpt><trkpt lat="42.7340495" lon="12.1293344"><ele>116.0</ele><time>2026-04-30T10:50:51.987Z</time></trkpt><trkpt lat="42.7339339" lon="12.1294758"><ele>116.0</ele><time>2026-04-30T10:50:52.987Z</time></trkpt><trkpt lat="42.7338347" lon="12.1296015"><ele>116.0</ele><time>2026-04-30T10:50:53.988Z</time></trkpt><trkpt lat="42.7337462" lon="12.1296988"><ele>116.0</ele><time>2026-04-30T10:50:54.987Z</time></trkpt><trkpt lat="42.7336625" lon="12.1297678"><ele>116.0</ele><time>2026-04-30T10:50:55.988Z</time></trkpt><trkpt lat="42.7335794" lon="12.1298211"><ele>116.0</ele><time>2026-04-30T10:50:56.987Z</time></trkpt><trkpt lat="42.7335055" lon="12.1298926"><ele>116.0</ele><time>2026-04-30T10:50:57.987Z</time></trkpt><trkpt lat="42.733445" lon="12.1299881"><ele>116.0</ele><time>2026-04-30T10:50:58.988Z</time></trkpt><trkpt lat="42.7333975" lon="12.130126"><ele>116.0</ele><time>2026-04-30T10:50:59.987Z</time></trkpt><trkpt lat="42.7333444" lon="12.1302739"><ele>116.33333333333333</ele><time>2026-04-30T10:51:00.987Z</time></trkpt><trkpt lat="42.7332767" lon="12.1304326"><ele>116.66666666666666</ele><time>2026-04-30T10:51:01.987Z</time></trkpt><trkpt lat="42.7332217" lon="12.1306222"><ele>117.0</ele><time>2026-04-30T10:51:02.987Z</time></trkpt><trkpt lat="42.7331785" lon="12.1308412"><ele>117.33333333333334</ele><time>2026-04-30T10:51:03.987Z</time></trkpt><trkpt lat="42.7331376" lon="12.1310585"><ele>117.66666666666667</ele><time>2026-04-30T10:51:04.987Z</time></trkpt><trkpt lat="42.7331002" lon="12.1312773"><ele>118.0</ele><time>2026-04-30T10:51:05.987Z</time></trkpt><trkpt lat="42.7330655" lon="12.1314825"><ele>118.0</ele><time>2026-04-30T10:51:06.988Z</time></trkpt><trkpt lat="42.7330286" lon="12.1316705"><ele>118.0</ele><time>2026-04-30T10:51:07.987Z</time></trkpt><trkpt lat="42.7329876" lon="12.131845"><ele>118.0</ele><time>2026-04-30T10:51:08.987Z</time></trkpt><trkpt lat="42.7329326" lon="12.1320007"><ele>118.0</ele><time>2026-04-30T10:51:09.987Z</time></trkpt><trkpt lat="42.7328611" lon="12.1321431"><ele>118.0</ele><time>2026-04-30T10:51:10.987Z</time></trkpt><trkpt lat="42.7327825" lon="12.13227"><ele>118.0</ele><time>2026-04-30T10:51:11.987Z</time></trkpt><trkpt lat="42.7326962" lon="12.1323839"><ele>118.0</ele><time>2026-04-30T10:51:12.987Z</time></trkpt><trkpt lat="42.7326129" lon="12.1324786"><ele>118.0</ele><time>2026-04-30T10:51:13.987Z</time></trkpt><trkpt lat="42.7325316" lon="12.1325593"><ele>119.60000000000001</ele><time>2026-04-30T10:51:14.987Z</time></trkpt><trkpt lat="42.7324514" lon="12.1326223"><ele>121.20000000000002</ele><time>2026-04-30T10:51:15.988Z</time></trkpt><trkpt lat="42.7323736" lon="12.1326825"><ele>122.8</ele><time>2026-04-30T10:51:16.988Z</time></trkpt><trkpt lat="42.7322938" lon="12.1327403"><ele>124.4</ele><time>2026-04-30T10:51:17.987Z</time></trkpt><trkpt lat="42.7322065" lon="12.13279"><ele>126.0</ele><time>2026-04-30T10:51:18.987Z</time></trkpt><trkpt lat="42.7321209" lon="12.1328384"><ele>126.0</ele><time>2026-04-30T10:51:19.987Z</time></trkpt><trkpt lat="42.732031" lon="12.1328783"><ele>126.0</ele><time>2026-04-30T10:51:20.987Z</time></trkpt><trkpt lat="42.7319518" lon="12.1329275"><ele>126.0</ele><time>2026-04-30T10:51:21.988Z</time></trkpt><trkpt lat="42.7318845" lon="12.1329733"><ele>126.0</ele><time>2026-04-30T10:51:22.987Z</time></trkpt><trkpt lat="42.7318237" lon="12.1330159"><ele>126.0</ele><time>2026-04-30T10:51:23.987Z</time></trkpt><trkpt lat="42.7317658" lon="12.1330522"><ele>126.0</ele><time>2026-04-30T10:51:24.987Z</time></trkpt><trkpt lat="42.7316961" lon="12.1331016"><ele>125.0</ele><time>2026-04-30T10:51:25.987Z</time></trkpt><trkpt lat="42.7316074" lon="12.1331728"><ele>124.0</ele><time>2026-04-30T10:51:26.987Z</time></trkpt><trkpt lat="42.7315044" lon="12.1332467"><ele>123.0</ele><time>2026-04-30T10:51:27.987Z</time></trkpt><trkpt lat="42.7313855" lon="12.1333175"><ele>122.0</ele><time>2026-04-30T10:51:28.987Z</time></trkpt><trkpt lat="42.7312547" lon="12.1333974"><ele>122.0</ele><time>2026-04-30T10:51:29.988Z</time></trkpt><trkpt lat="42.7311102" lon="12.1334821"><ele>122.0</ele><time>2026-04-30T10:51:30.988Z</time></trkpt><trkpt lat="42.7309628" lon="12.1335757"><ele>122.0</ele><time>2026-04-30T10:51:31.987Z</time></trkpt><trkpt lat="42.7308085" lon="12.1336742"><ele>122.33333333333333</ele><time>2026-04-30T10:51:32.987Z</time></trkpt><trkpt lat="42.7306527" lon="12.1337709"><ele>122.66666666666666</ele><time>2026-04-30T10:51:33.987Z</time></trkpt><trkpt lat="42.7304939" lon="12.1338664"><ele>123.0</ele><time>2026-04-30T10:51:34.988Z</time></trkpt><trkpt lat="42.7303434" lon="12.133967"><ele>123.0</ele><time>2026-04-30T10:51:35.987Z</time></trkpt><trkpt lat="42.7302002" lon="12.1340577"><ele>123.0</ele><time>2026-04-30T10:51:36.987Z</time></trkpt><trkpt lat="42.7300586" lon="12.1341518"><ele>123.0</ele><time>2026-04-30T10:51:37.988Z</time></trkpt><trkpt lat="42.7299184" lon="12.1342434"><ele>123.0</ele><time>2026-04-30T10:51:38.988Z</time></trkpt><trkpt lat="42.7297775" lon="12.1343286"><ele>123.0</ele><time>2026-04-30T10:51:39.987Z</time></trkpt><trkpt lat="42.7296402" lon="12.1344097"><ele>123.0</ele><time>2026-04-30T10:51:40.987Z</time></trkpt><trkpt lat="42.72951" lon="12.1345003"><ele>122.5</ele><time>2026-04-30T10:51:41.988Z</time></trkpt><trkpt lat="42.729382" lon="12.1345708"><ele>122.0</ele><time>2026-04-30T10:51:42.987Z</time></trkpt><trkpt lat="42.7292595" lon="12.1346519"><ele>121.5</ele><time>2026-04-30T10:51:43.987Z</time></trkpt><trkpt lat="42.7291432" lon="12.134733"><ele>121.0</ele><time>2026-04-30T10:51:44.988Z</time></trkpt><trkpt lat="42.7290333" lon="12.1348085"><ele>121.0</ele><time>2026-04-30T10:51:45.987Z</time></trkpt><trkpt lat="42.7289115" lon="12.1348812"><ele>121.0</ele><time>2026-04-30T10:51:46.987Z</time></trkpt><trkpt lat="42.7287899" lon="12.1349631"><ele>121.0</ele><time>2026-04-30T10:51:47.988Z</time></trkpt><trkpt lat="42.7286672" lon="12.1350507"><ele>121.0</ele><time>2026-04-30T10:51:48.987Z</time></trkpt><trkpt lat="42.7285468" lon="12.1351335"><ele>120.75</ele><time>2026-04-30T10:51:49.987Z</time></trkpt><trkpt lat="42.7284263" lon="12.1352166"><ele>120.5</ele><time>2026-04-30T10:51:50.987Z</time></trkpt><trkpt lat="42.7283116" lon="12.1352927"><ele>120.25</ele><time>2026-04-30T10:51:51.987Z</time></trkpt><trkpt lat="42.7281946" lon="12.135368"><ele>120.0</ele><time>2026-04-30T10:51:52.987Z</time></trkpt><trkpt lat="42.728081" lon="12.1354499"><ele>120.0</ele><time>2026-04-30T10:51:53.988Z</time></trkpt><trkpt lat="42.7279756" lon="12.1355218"><ele>120.0</ele><time>2026-04-30T10:51:54.987Z</time></trkpt><trkpt lat="42.7278763" lon="12.1355897"><ele>120.0</ele><time>2026-04-30T10:51:55.987Z</time></trkpt><trkpt lat="42.727775" lon="12.1356607"><ele>120.0</ele><time>2026-04-30T10:51:56.987Z</time></trkpt><trkpt lat="42.7276787" lon="12.1357299"><ele>119.75</ele><time>2026-04-30T10:51:57.987Z</time></trkpt><trkpt lat="42.727576" lon="12.1358014"><ele>119.5</ele><time>2026-04-30T10:51:58.987Z</time></trkpt><trkpt lat="42.7274738" lon="12.1358695"><ele>119.25</ele><time>2026-04-30T10:51:59.987Z</time></trkpt><trkpt lat="42.7273644" lon="12.1359468"><ele>119.0</ele><time>2026-04-30T10:52:00.988Z</time></trkpt><trkpt lat="42.7272534" lon="12.1360204"><ele>119.0</ele><time>2026-04-30T10:52:01.987Z</time></trkpt><trkpt lat="42.7271485" lon="12.1360904"><ele>119.0</ele><time>2026-04-30T10:52:02.988Z</time></trkpt><trkpt lat="42.7270431" lon="12.1361615"><ele>119.0</ele><time>2026-04-30T10:52:03.987Z</time></trkpt><trkpt lat="42.7269318" lon="12.1362144"><ele>119.0</ele><time>2026-04-30T10:52:04.988Z</time></trkpt><trkpt lat="42.7268084" lon="12.1362419"><ele>118.5</ele><time>2026-04-30T10:52:05.988Z</time></trkpt><trkpt lat="42.7266789" lon="12.1362454"><ele>118.0</ele><time>2026-04-30T10:52:06.988Z</time></trkpt><trkpt lat="42.7265418" lon="12.1362305"><ele>117.5</ele><time>2026-04-30T10:52:07.988Z</time></trkpt><trkpt lat="42.7263959" lon="12.1362097"><ele>117.0</ele><time>2026-04-30T10:52:08.987Z</time></trkpt><trkpt lat="42.7262493" lon="12.1361894"><ele>117.0</ele><time>2026-04-30T10:52:09.987Z</time></trkpt><trkpt lat="42.726096" lon="12.1361613"><ele>117.0</ele><time>2026-04-30T10:52:10.987Z</time></trkpt><trkpt lat="42.7259463" lon="12.1361352"><ele>117.0</ele><time>2026-04-30T10:52:11.988Z</time></trkpt><trkpt lat="42.7257979" lon="12.1361125"><ele>115.75</ele><time>2026-04-30T10:52:12.988Z</time></trkpt><trkpt lat="42.7256625" lon="12.1360893"><ele>114.5</ele><time>2026-04-30T10:52:13.987Z</time></trkpt><trkpt lat="42.7255398" lon="12.136069"><ele>113.25</ele><time>2026-04-30T10:52:14.987Z</time></trkpt><trkpt lat="42.7254161" lon="12.136054"><ele>112.0</ele><time>2026-04-30T10:52:15.987Z</time></trkpt><trkpt lat="42.7252966" lon="12.1360365"><ele>111.5</ele><time>2026-04-30T10:52:16.987Z</time></trkpt><trkpt lat="42.725167" lon="12.1360202"><ele>111.0</ele><time>2026-04-30T10:52:17.987Z</time></trkpt><trkpt lat="42.725042" lon="12.1360045"><ele>110.5</ele><time>2026-04-30T10:52:18.987Z</time></trkpt><trkpt lat="42.7249254" lon="12.1359889"><ele>110.0</ele><time>2026-04-30T10:52:19.988Z</time></trkpt><trkpt lat="42.7248175" lon="12.1359714"><ele>110.0</ele><time>2026-04-30T10:52:20.987Z</time></trkpt><trkpt lat="42.7247156" lon="12.1359553"><ele>110.0</ele><time>2026-04-30T10:52:21.988Z</time></trkpt><trkpt lat="42.7246174" lon="12.1359444"><ele>110.0</ele><time>2026-04-30T10:52:22.987Z</time></trkpt><trkpt lat="42.7245236" lon="12.1359342"><ele>110.0</ele><time>2026-04-30T10:52:23.987Z</time></trkpt><trkpt lat="42.7244283" lon="12.1359219"><ele>110.0</ele><time>2026-04-30T10:52:24.987Z</time></trkpt><trkpt lat="42.7243293" lon="12.1358981"><ele>110.16666666666666</ele><time>2026-04-30T10:52:25.987Z</time></trkpt><trkpt lat="42.7242398" lon="12.1358719"><ele>110.33333333333333</ele><time>2026-04-30T10:52:26.987Z</time></trkpt><trkpt lat="42.7241634" lon="12.1358505"><ele>110.5</ele><time>2026-04-30T10:52:27.987Z</time></trkpt><trkpt lat="42.7240955" lon="12.1358317"><ele>110.66666666666666</ele><time>2026-04-30T10:52:28.987Z</time></trkpt><trkpt lat="42.72399" lon="12.1358101"><ele>110.83333333333333</ele><time>2026-04-30T10:52:30.987Z</time></trkpt><trkpt lat="42.72392" lon="12.1357967"><ele>111.0</ele><time>2026-04-30T10:52:33.987Z</time></trkpt><trkpt lat="42.7238512" lon="12.1357583"><ele>111.0</ele><time>2026-04-30T10:52:37.988Z</time></trkpt><trkpt lat="42.723782" lon="12.1357208"><ele>111.0</ele><time>2026-04-30T10:52:40.988Z</time></trkpt><trkpt lat="42.7237117" lon="12.1356349"><ele>111.0</ele><time>2026-04-30T10:52:42.987Z</time></trkpt><trkpt lat="42.723655" lon="12.1355685"><ele>111.0</ele><time>2026-04-30T10:52:43.988Z</time></trkpt><trkpt lat="42.7235807" lon="12.1355162"><ele>111.0</ele><time>2026-04-30T10:52:44.987Z</time></trkpt><trkpt lat="42.7234976" lon="12.1355035"><ele>111.0</ele><time>2026-04-30T10:52:45.988Z</time></trkpt><trkpt lat="42.7234124" lon="12.1355347"><ele>112.19999999999999</ele><time>2026-04-30T10:52:46.988Z</time></trkpt><trkpt lat="42.723323" lon="12.1355924"><ele>113.39999999999999</ele><time>2026-04-30T10:52:47.987Z</time></trkpt><trkpt lat="42.7232347" lon="12.1356359"><ele>114.6</ele><time>2026-04-30T10:52:48.988Z</time></trkpt><trkpt lat="42.7231481" lon="12.1356486"><ele>115.8</ele><time>2026-04-30T10:52:49.987Z</time></trkpt><trkpt lat="42.7230609" lon="12.1356558"><ele>117.0</ele><time>2026-04-30T10:52:50.987Z</time></trkpt><trkpt lat="42.7229607" lon="12.1356206"><ele>117.0</ele><time>2026-04-30T10:52:51.988Z</time></trkpt><trkpt lat="42.7228377" lon="12.1355612"><ele>117.0</ele><time>2026-04-30T10:52:52.987Z</time></trkpt><trkpt lat="42.7227204" lon="12.1354863"><ele>117.0</ele><time>2026-04-30T10:52:53.987Z</time></trkpt><trkpt lat="42.7225986" lon="12.1354203"><ele>117.0</ele><time>2026-04-30T10:52:54.987Z</time></trkpt><trkpt lat="42.7224729" lon="12.1353343"><ele>117.19999999999999</ele><time>2026-04-30T10:52:55.988Z</time></trkpt><trkpt lat="42.7223596" lon="12.1352547"><ele>117.39999999999999</ele><time>2026-04-30T10:52:56.988Z</time></trkpt><trkpt lat="42.7222626" lon="12.1351805"><ele>117.60000000000001</ele><time>2026-04-30T10:52:57.987Z</time></trkpt><trkpt lat="42.7221767" lon="12.1351116"><ele>117.80000000000001</ele><time>2026-04-30T10:52:58.987Z</time></trkpt><trkpt lat="42.7221024" lon="12.1350514"><ele>118.0</ele><time>2026-04-30T10:52:59.988Z</time></trkpt><trkpt lat="42.7220424" lon="12.1349978"><ele>118.00000000000001</ele><time>2026-04-30T10:53:00.987Z</time></trkpt><trkpt lat="42.7219679" lon="12.1348876"><ele>118.0</ele><time>2026-04-30T10:53:02.987Z</time></trkpt><trkpt lat="42.7219267" lon="12.1348032"><ele>118.0</ele><time>2026-04-30T10:53:05.987Z</time></trkpt><trkpt lat="42.7219023" lon="12.1347102"><ele>118.0</ele><time>2026-04-30T10:53:07.987Z</time></trkpt><trkpt lat="42.7218888" lon="12.134624"><ele>118.00000000000001</ele><time>2026-04-30T10:53:08.987Z</time></trkpt><trkpt lat="42.7218787" lon="12.1345246"><ele>118.0</ele><time>2026-04-30T10:53:09.987Z</time></trkpt><trkpt lat="42.7218655" lon="12.1344277"><ele>117.83333333333334</ele><time>2026-04-30T10:53:10.987Z</time></trkpt><trkpt lat="42.7218437" lon="12.1343173"><ele>117.66666666666667</ele><time>2026-04-30T10:53:11.988Z</time></trkpt><trkpt lat="42.7218142" lon="12.1342065"><ele>117.5</ele><time>2026-04-30T10:53:12.987Z</time></trkpt><trkpt lat="42.7217699" lon="12.134104"><ele>117.33333333333334</ele><time>2026-04-30T10:53:13.988Z</time></trkpt><trkpt lat="42.7217099" lon="12.1340163"><ele>117.16666666666667</ele><time>2026-04-30T10:53:14.987Z</time></trkpt><trkpt lat="42.7216396" lon="12.1339511"><ele>117.0</ele><time>2026-04-30T10:53:15.987Z</time></trkpt><trkpt lat="42.721564" lon="12.1339225"><ele>117.0</ele><time>2026-04-30T10:53:16.987Z</time></trkpt><trkpt lat="42.7214882" lon="12.1339345"><ele>117.00000000000001</ele><time>2026-04-30T10:53:17.987Z</time></trkpt><trkpt lat="42.7214204" lon="12.1339792"><ele>117.0</ele><time>2026-04-30T10:53:18.987Z</time></trkpt><trkpt lat="42.7213552" lon="12.1340385"><ele>117.0</ele><time>2026-04-30T10:53:19.987Z</time></trkpt><trkpt lat="42.7212903" lon="12.1340983"><ele>117.00000000000001</ele><time>2026-04-30T10:53:20.987Z</time></trkpt><trkpt lat="42.7212239" lon="12.1341222"><ele>117.0</ele><time>2026-04-30T10:53:21.988Z</time></trkpt><trkpt lat="42.7211609" lon="12.1341067"><ele>117.0</ele><time>2026-04-30T10:53:22.988Z</time></trkpt><trkpt lat="42.7210926" lon="12.1340625"><ele>117.19999999999999</ele><time>2026-04-30T10:53:23.987Z</time></trkpt><trkpt lat="42.7210136" lon="12.133997"><ele>117.39999999999999</ele><time>2026-04-30T10:53:24.987Z</time></trkpt><trkpt lat="42.7209264" lon="12.1339175"><ele>117.60000000000001</ele><time>2026-04-30T10:53:25.987Z</time></trkpt><trkpt lat="42.7208325" lon="12.1338254"><ele>117.80000000000001</ele><time>2026-04-30T10:53:26.987Z</time></trkpt><trkpt lat="42.7207402" lon="12.1337327"><ele>118.0</ele><time>2026-04-30T10:53:27.987Z</time></trkpt><trkpt lat="42.7206493" lon="12.1336469"><ele>118.0</ele><time>2026-04-30T10:53:28.987Z</time></trkpt><trkpt lat="42.7205646" lon="12.1335498"><ele>118.0</ele><time>2026-04-30T10:53:29.987Z</time></trkpt><trkpt lat="42.7204341" lon="12.133421"><ele>118.0</ele><time>2026-04-30T10:53:30.987Z</time></trkpt><trkpt lat="42.720318" lon="12.1332735"><ele>118.0</ele><time>2026-04-30T10:53:31.988Z</time></trkpt><trkpt lat="42.7202151" lon="12.133111"><ele>120.33333333333334</ele><time>2026-04-30T10:53:32.987Z</time></trkpt><trkpt lat="42.7201146" lon="12.132929"><ele>122.66666666666666</ele><time>2026-04-30T10:53:33.987Z</time></trkpt><trkpt lat="42.7200179" lon="12.1327411"><ele>125.0</ele><time>2026-04-30T10:53:34.987Z</time></trkpt><trkpt lat="42.7199437" lon="12.132533"><ele>124.33333333333333</ele><time>2026-04-30T10:53:35.988Z</time></trkpt><trkpt lat="42.7198832" lon="12.1323104"><ele>123.66666666666666</ele><time>2026-04-30T10:53:36.987Z</time></trkpt><trkpt lat="42.7198444" lon="12.1320729"><ele>123.0</ele><time>2026-04-30T10:53:37.987Z</time></trkpt><trkpt lat="42.7198229" lon="12.1318299"><ele>123.0</ele><time>2026-04-30T10:53:38.988Z</time></trkpt><trkpt lat="42.7198124" lon="12.1315804"><ele>123.0</ele><time>2026-04-30T10:53:39.987Z</time></trkpt><trkpt lat="42.7198151" lon="12.1313326"><ele>123.0</ele><time>2026-04-30T10:53:40.987Z</time></trkpt><trkpt lat="42.7198268" lon="12.1310911"><ele>123.66666666666666</ele><time>2026-04-30T10:53:41.988Z</time></trkpt><trkpt lat="42.7198352" lon="12.1308522"><ele>124.33333333333333</ele><time>2026-04-30T10:53:42.987Z</time></trkpt><trkpt lat="42.7198384" lon="12.1306172"><ele>125.0</ele><time>2026-04-30T10:53:43.987Z</time></trkpt><trkpt lat="42.719838" lon="12.1303844"><ele>125.0</ele><time>2026-04-30T10:53:44.987Z</time></trkpt><trkpt lat="42.7198381" lon="12.1301523"><ele>125.0</ele><time>2026-04-30T10:53:45.987Z</time></trkpt><trkpt lat="42.719841" lon="12.1299215"><ele>125.0</ele><time>2026-04-30T10:53:46.987Z</time></trkpt><trkpt lat="42.7198468" lon="12.1296914"><ele>126.33333333333333</ele><time>2026-04-30T10:53:47.988Z</time></trkpt><trkpt lat="42.7198506" lon="12.1294587"><ele>127.66666666666666</ele><time>2026-04-30T10:53:48.988Z</time></trkpt><trkpt lat="42.7198547" lon="12.1292191"><ele>129.0</ele><time>2026-04-30T10:53:49.988Z</time></trkpt><trkpt lat="42.7198525" lon="12.1289784"><ele>129.66666666666666</ele><time>2026-04-30T10:53:50.987Z</time></trkpt><trkpt lat="42.7198389" lon="12.1287353"><ele>130.33333333333331</ele><time>2026-04-30T10:53:51.988Z</time></trkpt><trkpt lat="42.7198122" lon="12.1284952"><ele>131.0</ele><time>2026-04-30T10:53:52.987Z</time></trkpt><trkpt lat="42.7197736" lon="12.1282504"><ele>131.0</ele><time>2026-04-30T10:53:53.987Z</time></trkpt><trkpt lat="42.7197232" lon="12.1280072"><ele>131.0</ele><time>2026-04-30T10:53:54.988Z</time></trkpt><trkpt lat="42.7196507" lon="12.1277768"><ele>131.0</ele><time>2026-04-30T10:53:55.987Z</time></trkpt><trkpt lat="42.7195656" lon="12.1275554"><ele>131.33333333333331</ele><time>2026-04-30T10:53:56.987Z</time></trkpt><trkpt lat="42.7194685" lon="12.1273419"><ele>131.66666666666666</ele><time>2026-04-30T10:53:57.988Z</time></trkpt><trkpt lat="42.7193573" lon="12.1271328"><ele>132.0</ele><time>2026-04-30T10:53:58.987Z</time></trkpt><trkpt lat="42.7192266" lon="12.1269267"><ele>132.33333333333334</ele><time>2026-04-30T10:53:59.988Z</time></trkpt><trkpt lat="42.7190669" lon="12.1267349"><ele>132.66666666666669</ele><time>2026-04-30T10:54:00.987Z</time></trkpt><trkpt lat="42.7188811" lon="12.1265448"><ele>133.0</ele><time>2026-04-30T10:54:01.987Z</time></trkpt><trkpt lat="42.718685" lon="12.1263408"><ele>136.0</ele><time>2026-04-30T10:54:02.987Z</time></trkpt><trkpt lat="42.7184869" lon="12.1261226"><ele>139.0</ele><time>2026-04-30T10:54:03.988Z</time></trkpt><trkpt lat="42.718297" lon="12.1259069"><ele>139.0</ele><time>2026-04-30T10:54:04.987Z</time></trkpt><trkpt lat="42.7181083" lon="12.1256859"><ele>139.0</ele><time>2026-04-30T10:54:05.987Z</time></trkpt><trkpt lat="42.7179125" lon="12.1254648"><ele>139.0</ele><time>2026-04-30T10:54:06.988Z</time></trkpt><trkpt lat="42.7177076" lon="12.1252474"><ele>139.0</ele><time>2026-04-30T10:54:07.988Z</time></trkpt><trkpt lat="42.7174959" lon="12.1250375"><ele>139.5</ele><time>2026-04-30T10:54:08.987Z</time></trkpt><trkpt lat="42.7172846" lon="12.1248306"><ele>140.0</ele><time>2026-04-30T10:54:09.987Z</time></trkpt><trkpt lat="42.7170751" lon="12.1246315"><ele>139.0</ele><time>2026-04-30T10:54:10.987Z</time></trkpt><trkpt lat="42.7168645" lon="12.1244459"><ele>138.0</ele><time>2026-04-30T10:54:11.987Z</time></trkpt><trkpt lat="42.7166598" lon="12.1242636"><ele>138.0</ele><time>2026-04-30T10:54:12.987Z</time></trkpt><trkpt lat="42.7164628" lon="12.1240702"><ele>138.0</ele><time>2026-04-30T10:54:13.987Z</time></trkpt><trkpt lat="42.716279" lon="12.1238506"><ele>139.0</ele><time>2026-04-30T10:54:14.988Z</time></trkpt><trkpt lat="42.7161164" lon="12.1236012"><ele>140.0</ele><time>2026-04-30T10:54:15.987Z</time></trkpt><trkpt lat="42.7159796" lon="12.1233311"><ele>145.5</ele><time>2026-04-30T10:54:16.987Z</time></trkpt><trkpt lat="42.7158528" lon="12.1230442"><ele>151.0</ele><time>2026-04-30T10:54:17.987Z</time></trkpt><trkpt lat="42.7156992" lon="12.1227849"><ele>151.0</ele><time>2026-04-30T10:54:18.987Z</time></trkpt><trkpt lat="42.7155312" lon="12.1225467"><ele>151.0</ele><time>2026-04-30T10:54:19.987Z</time></trkpt><trkpt lat="42.7153588" lon="12.122327"><ele>151.5</ele><time>2026-04-30T10:54:20.988Z</time></trkpt><trkpt lat="42.715186" lon="12.1221108"><ele>152.0</ele><time>2026-04-30T10:54:21.987Z</time></trkpt><trkpt lat="42.7150155" lon="12.1218986"><ele>152.0</ele><time>2026-04-30T10:54:22.987Z</time></trkpt><trkpt lat="42.714845" lon="12.121683"><ele>152.0</ele><time>2026-04-30T10:54:23.987Z</time></trkpt><trkpt lat="42.7146751" lon="12.1214671"><ele>152.66666666666666</ele><time>2026-04-30T10:54:24.988Z</time></trkpt><trkpt lat="42.7145153" lon="12.1212473"><ele>153.33333333333334</ele><time>2026-04-30T10:54:25.987Z</time></trkpt><trkpt lat="42.7143679" lon="12.1210225"><ele>154.0</ele><time>2026-04-30T10:54:26.988Z</time></trkpt><trkpt lat="42.714231" lon="12.120799"><ele>156.0</ele><time>2026-04-30T10:54:27.988Z</time></trkpt><trkpt lat="42.7141115" lon="12.1205926"><ele>158.0</ele><time>2026-04-30T10:54:28.987Z</time></trkpt><trkpt lat="42.7140079" lon="12.1203973"><ele>160.0</ele><time>2026-04-30T10:54:29.987Z</time></trkpt><trkpt lat="42.7139196" lon="12.1202239"><ele>160.0</ele><time>2026-04-30T10:54:30.987Z</time></trkpt><trkpt lat="42.7138527" lon="12.1200779"><ele>160.0</ele><time>2026-04-30T10:54:31.987Z</time></trkpt><trkpt lat="42.7138045" lon="12.1199449"><ele>160.0</ele><time>2026-04-30T10:54:32.987Z</time></trkpt><trkpt lat="42.71375" lon="12.1197969"><ele>160.0</ele><time>2026-04-30T10:54:33.988Z</time></trkpt><trkpt lat="42.7136821" lon="12.1196114"><ele>161.0</ele><time>2026-04-30T10:54:34.987Z</time></trkpt><trkpt lat="42.7136065" lon="12.1193964"><ele>162.0</ele><time>2026-04-30T10:54:35.987Z</time></trkpt><trkpt lat="42.7135269" lon="12.1191577"><ele>163.0</ele><time>2026-04-30T10:54:36.987Z</time></trkpt><trkpt lat="42.7134594" lon="12.1189064"><ele>163.0</ele><time>2026-04-30T10:54:37.987Z</time></trkpt><trkpt lat="42.7133984" lon="12.1186461"><ele>163.0</ele><time>2026-04-30T10:54:38.987Z</time></trkpt><trkpt lat="42.7133457" lon="12.1183785"><ele>163.0</ele><time>2026-04-30T10:54:39.987Z</time></trkpt><trkpt lat="42.7132964" lon="12.1181008"><ele>165.66666666666669</ele><time>2026-04-30T10:54:40.987Z</time></trkpt><trkpt lat="42.7132382" lon="12.1178194"><ele>168.33333333333334</ele><time>2026-04-30T10:54:41.987Z</time></trkpt><trkpt lat="42.7131696" lon="12.1175337"><ele>171.0</ele><time>2026-04-30T10:54:42.987Z</time></trkpt><trkpt lat="42.7130977" lon="12.1172563"><ele>172.66666666666666</ele><time>2026-04-30T10:54:43.987Z</time></trkpt><trkpt lat="42.7130344" lon="12.1169829"><ele>174.33333333333331</ele><time>2026-04-30T10:54:44.988Z</time></trkpt><trkpt lat="42.7129831" lon="12.1167062"><ele>176.0</ele><time>2026-04-30T10:54:45.987Z</time></trkpt><trkpt lat="42.7129304" lon="12.1164273"><ele>177.0</ele><time>2026-04-30T10:54:46.987Z</time></trkpt><trkpt lat="42.712876" lon="12.116139"><ele>178.0</ele><time>2026-04-30T10:54:47.988Z</time></trkpt><trkpt lat="42.7128197" lon="12.1158438"><ele>179.0</ele><time>2026-04-30T10:54:48.988Z</time></trkpt><trkpt lat="42.7127434" lon="12.1155595"><ele>177.0</ele><time>2026-04-30T10:54:49.987Z</time></trkpt><trkpt lat="42.7126511" lon="12.1152834"><ele>175.0</ele><time>2026-04-30T10:54:50.988Z</time></trkpt><trkpt lat="42.7125459" lon="12.1150161"><ele>173.0</ele><time>2026-04-30T10:54:51.987Z</time></trkpt><trkpt lat="42.7124408" lon="12.1147651"><ele>173.0</ele><time>2026-04-30T10:54:52.987Z</time></trkpt><trkpt lat="42.7123383" lon="12.1145172"><ele>173.0</ele><time>2026-04-30T10:54:53.987Z</time></trkpt><trkpt lat="42.7122419" lon="12.1142776"><ele>173.0</ele><time>2026-04-30T10:54:54.987Z</time></trkpt><trkpt lat="42.7121468" lon="12.1140548"><ele>174.66666666666666</ele><time>2026-04-30T10:54:55.987Z</time></trkpt><trkpt lat="42.7120612" lon="12.1138335"><ele>176.33333333333334</ele><time>2026-04-30T10:54:56.988Z</time></trkpt><trkpt lat="42.7119974" lon="12.1136079"><ele>178.0</ele><time>2026-04-30T10:54:57.988Z</time></trkpt><trkpt lat="42.7119675" lon="12.1133864"><ele>180.33333333333334</ele><time>2026-04-30T10:54:58.987Z</time></trkpt><trkpt lat="42.7119865" lon="12.1131523"><ele>182.66666666666666</ele><time>2026-04-30T10:54:59.987Z</time></trkpt><trkpt lat="42.7120374" lon="12.1129232"><ele>185.0</ele><time>2026-04-30T10:55:00.987Z</time></trkpt><trkpt lat="42.712106" lon="12.1126859"><ele>185.0</ele><time>2026-04-30T10:55:01.987Z</time></trkpt><trkpt lat="42.7121742" lon="12.1124291"><ele>185.0</ele><time>2026-04-30T10:55:02.987Z</time></trkpt><trkpt lat="42.7122275" lon="12.112171"><ele>185.0</ele><time>2026-04-30T10:55:03.987Z</time></trkpt><trkpt lat="42.7122558" lon="12.1119144"><ele>186.33333333333331</ele><time>2026-04-30T10:55:04.988Z</time></trkpt><trkpt lat="42.7122438" lon="12.1116589"><ele>187.66666666666666</ele><time>2026-04-30T10:55:05.987Z</time></trkpt><trkpt lat="42.7122014" lon="12.1114001"><ele>189.0</ele><time>2026-04-30T10:55:06.988Z</time></trkpt><trkpt lat="42.7121389" lon="12.1111435"><ele>189.66666666666666</ele><time>2026-04-30T10:55:07.987Z</time></trkpt><trkpt lat="42.712087" lon="12.1108821"><ele>190.33333333333331</ele><time>2026-04-30T10:55:08.987Z</time></trkpt><trkpt lat="42.7120536" lon="12.1106025"><ele>191.0</ele><time>2026-04-30T10:55:09.987Z</time></trkpt><trkpt lat="42.7120312" lon="12.1103039"><ele>192.5</ele><time>2026-04-30T10:55:10.987Z</time></trkpt><trkpt lat="42.7120122" lon="12.1099903"><ele>194.0</ele><time>2026-04-30T10:55:11.987Z</time></trkpt><trkpt lat="42.7119933" lon="12.1096799"><ele>194.0</ele><time>2026-04-30T10:55:12.988Z</time></trkpt><trkpt lat="42.7119842" lon="12.1093793"><ele>194.0</ele><time>2026-04-30T10:55:13.987Z</time></trkpt><trkpt lat="42.7119978" lon="12.1090696"><ele>194.0</ele><time>2026-04-30T10:55:14.987Z</time></trkpt><trkpt lat="42.7120405" lon="12.1087701"><ele>194.0</ele><time>2026-04-30T10:55:15.987Z</time></trkpt><trkpt lat="42.7121057" lon="12.1084701"><ele>194.0</ele><time>2026-04-30T10:55:16.987Z</time></trkpt><trkpt lat="42.712178" lon="12.1081666"><ele>192.0</ele><time>2026-04-30T10:55:17.988Z</time></trkpt><trkpt lat="42.7122447" lon="12.1078623"><ele>190.0</ele><time>2026-04-30T10:55:18.987Z</time></trkpt><trkpt lat="42.7123085" lon="12.1075552"><ele>189.0</ele><time>2026-04-30T10:55:19.987Z</time></trkpt><trkpt lat="42.7123718" lon="12.1072459"><ele>188.0</ele><time>2026-04-30T10:55:20.987Z</time></trkpt><trkpt lat="42.7124352" lon="12.1069401"><ele>188.0</ele><time>2026-04-30T10:55:21.987Z</time></trkpt><trkpt lat="42.7124893" lon="12.1066344"><ele>188.0</ele><time>2026-04-30T10:55:22.988Z</time></trkpt><trkpt lat="42.7125312" lon="12.1063339"><ele>187.66666666666666</ele><time>2026-04-30T10:55:23.988Z</time></trkpt><trkpt lat="42.7125737" lon="12.1060453"><ele>187.33333333333334</ele><time>2026-04-30T10:55:24.987Z</time></trkpt><trkpt lat="42.7126287" lon="12.1057731"><ele>187.0</ele><time>2026-04-30T10:55:25.987Z</time></trkpt><trkpt lat="42.712705" lon="12.1055155"><ele>187.66666666666669</ele><time>2026-04-30T10:55:26.988Z</time></trkpt><trkpt lat="42.7128158" lon="12.1052659"><ele>188.33333333333334</ele><time>2026-04-30T10:55:27.987Z</time></trkpt><trkpt lat="42.7129575" lon="12.1050194"><ele>189.0</ele><time>2026-04-30T10:55:28.987Z</time></trkpt><trkpt lat="42.7131042" lon="12.1047445"><ele>189.0</ele><time>2026-04-30T10:55:29.987Z</time></trkpt><trkpt lat="42.7132306" lon="12.1044565"><ele>189.0</ele><time>2026-04-30T10:55:30.987Z</time></trkpt><trkpt lat="42.7133553" lon="12.1041521"><ele>189.0</ele><time>2026-04-30T10:55:31.988Z</time></trkpt><trkpt lat="42.7134758" lon="12.1038399"><ele>189.0</ele><time>2026-04-30T10:55:32.987Z</time></trkpt><trkpt lat="42.7135814" lon="12.1035328"><ele>190.0</ele><time>2026-04-30T10:55:33.988Z</time></trkpt><trkpt lat="42.7136769" lon="12.1032165"><ele>191.0</ele><time>2026-04-30T10:55:34.987Z</time></trkpt><trkpt lat="42.7137606" lon="12.1029026"><ele>191.0</ele><time>2026-04-30T10:55:35.988Z</time></trkpt><trkpt lat="42.713841" lon="12.1025977"><ele>191.0</ele><time>2026-04-30T10:55:36.988Z</time></trkpt><trkpt lat="42.713912" lon="12.1023049"><ele>191.0</ele><time>2026-04-30T10:55:37.987Z</time></trkpt><trkpt lat="42.7139832" lon="12.1020315"><ele>191.0</ele><time>2026-04-30T10:55:38.987Z</time></trkpt><trkpt lat="42.7140447" lon="12.1017694"><ele>191.0</ele><time>2026-04-30T10:55:39.988Z</time></trkpt><trkpt lat="42.7141025" lon="12.101517"><ele>190.33333333333331</ele><time>2026-04-30T10:55:40.987Z</time></trkpt><trkpt lat="42.7141657" lon="12.1012785"><ele>189.66666666666666</ele><time>2026-04-30T10:55:41.987Z</time></trkpt><trkpt lat="42.7142229" lon="12.1010591"><ele>189.0</ele><time>2026-04-30T10:55:42.987Z</time></trkpt><trkpt lat="42.714279" lon="12.1008476"><ele>189.0</ele><time>2026-04-30T10:55:43.987Z</time></trkpt><trkpt lat="42.7143405" lon="12.1006344"><ele>189.0</ele><time>2026-04-30T10:55:44.987Z</time></trkpt><trkpt lat="42.7143947" lon="12.1004303"><ele>189.0</ele><time>2026-04-30T10:55:45.988Z</time></trkpt><trkpt lat="42.7144376" lon="12.1002464"><ele>189.75</ele><time>2026-04-30T10:55:46.987Z</time></trkpt><trkpt lat="42.7144752" lon="12.1000864"><ele>190.5</ele><time>2026-04-30T10:55:47.987Z</time></trkpt><trkpt lat="42.7145085" lon="12.099939"><ele>191.25</ele><time>2026-04-30T10:55:48.987Z</time></trkpt><trkpt lat="42.714544" lon="12.0997849"><ele>192.0</ele><time>2026-04-30T10:55:49.988Z</time></trkpt><trkpt lat="42.7145831" lon="12.0996242"><ele>192.0</ele><time>2026-04-30T10:55:50.987Z</time></trkpt><trkpt lat="42.7146281" lon="12.099453"><ele>192.0</ele><time>2026-04-30T10:55:51.988Z</time></trkpt><trkpt lat="42.7146699" lon="12.09928"><ele>192.0</ele><time>2026-04-30T10:55:52.988Z</time></trkpt><trkpt lat="42.714716" lon="12.099106"><ele>192.0</ele><time>2026-04-30T10:55:53.988Z</time></trkpt><trkpt lat="42.7147565" lon="12.0989334"><ele>192.0</ele><time>2026-04-30T10:55:54.987Z</time></trkpt><trkpt lat="42.7148125" lon="12.0987715"><ele>192.0</ele><time>2026-04-30T10:55:55.987Z</time></trkpt><trkpt lat="42.7148906" lon="12.0986338"><ele>192.0</ele><time>2026-04-30T10:55:56.987Z</time></trkpt><trkpt lat="42.7149919" lon="12.0985106"><ele>192.0</ele><time>2026-04-30T10:55:57.988Z</time></trkpt><trkpt lat="42.7151102" lon="12.0984196"><ele>192.0</ele><time>2026-04-30T10:55:58.987Z</time></trkpt><trkpt lat="42.7152238" lon="12.0983522"><ele>192.0</ele><time>2026-04-30T10:55:59.988Z</time></trkpt><trkpt lat="42.7153341" lon="12.0983041"><ele>192.0</ele><time>2026-04-30T10:56:00.987Z</time></trkpt><trkpt lat="42.7154439" lon="12.0982686"><ele>192.0</ele><time>2026-04-30T10:56:01.987Z</time></trkpt><trkpt lat="42.7155512" lon="12.0982532"><ele>193.0</ele><time>2026-04-30T10:56:02.987Z</time></trkpt><trkpt lat="42.7156538" lon="12.0982501"><ele>194.0</ele><time>2026-04-30T10:56:03.987Z</time></trkpt><trkpt lat="42.7157385" lon="12.0982579"><ele>195.0</ele><time>2026-04-30T10:56:04.987Z</time></trkpt><trkpt lat="42.7158335" lon="12.0982684"><ele>196.0</ele><time>2026-04-30T10:56:06.987Z</time></trkpt><trkpt lat="42.7159027" lon="12.0982022"><ele>197.0</ele><time>2026-04-30T10:56:09.987Z</time></trkpt><trkpt lat="42.7158332" lon="12.0980166"><ele>197.0</ele><time>2026-04-30T10:56:11.987Z</time></trkpt><trkpt lat="42.7157634" lon="12.0978707"><ele>197.0</ele><time>2026-04-30T10:56:12.988Z</time></trkpt><trkpt lat="42.7156856" lon="12.0976977"><ele>197.0</ele><time>2026-04-30T10:56:13.988Z</time></trkpt><trkpt lat="42.7156038" lon="12.0975156"><ele>197.0</ele><time>2026-04-30T10:56:14.987Z</time></trkpt><trkpt lat="42.7155142" lon="12.0973269"><ele>197.0</ele><time>2026-04-30T10:56:15.988Z</time></trkpt><trkpt lat="42.7154214" lon="12.0971298"><ele>197.0</ele><time>2026-04-30T10:56:16.987Z</time></trkpt><trkpt lat="42.7153358" lon="12.0969325"><ele>197.0</ele><time>2026-04-30T10:56:17.987Z</time></trkpt><trkpt lat="42.7152505" lon="12.0967417"><ele>195.5</ele><time>2026-04-30T10:56:18.987Z</time></trkpt><trkpt lat="42.7151699" lon="12.0965534"><ele>194.0</ele><time>2026-04-30T10:56:19.988Z</time></trkpt><trkpt lat="42.7151038" lon="12.0963877"><ele>192.5</ele><time>2026-04-30T10:56:20.988Z</time></trkpt><trkpt lat="42.7150488" lon="12.0962538"><ele>191.0</ele><time>2026-04-30T10:56:21.987Z</time></trkpt><trkpt lat="42.7150001" lon="12.0961567"><ele>191.0</ele><time>2026-04-30T10:56:22.987Z</time></trkpt><trkpt lat="42.7149489" lon="12.096045"><ele>191.0</ele><time>2026-04-30T10:56:24.988Z</time></trkpt><trkpt lat="42.7149102" lon="12.0959208"><ele>191.0</ele><time>2026-04-30T10:56:36.987Z</time></trkpt><trkpt lat="42.7148559" lon="12.0957766"><ele>191.0</ele><time>2026-04-30T10:56:38.987Z</time></trkpt><trkpt lat="42.7148114" lon="12.0956726"><ele>191.0</ele><time>2026-04-30T10:56:39.988Z</time></trkpt><trkpt lat="42.7147465" lon="12.0955345"><ele>190.0</ele><time>2026-04-30T10:56:40.987Z</time></trkpt><trkpt lat="42.7146655" lon="12.0953705"><ele>189.0</ele><time>2026-04-30T10:56:41.987Z</time></trkpt><trkpt lat="42.7145772" lon="12.0951862"><ele>188.0</ele><time>2026-04-30T10:56:42.988Z</time></trkpt><trkpt lat="42.7144876" lon="12.0949878"><ele>187.66666666666666</ele><time>2026-04-30T10:56:43.987Z</time></trkpt><trkpt lat="42.7143915" lon="12.0947746"><ele>187.33333333333334</ele><time>2026-04-30T10:56:44.988Z</time></trkpt><trkpt lat="42.7142934" lon="12.0945438"><ele>187.0</ele><time>2026-04-30T10:56:45.987Z</time></trkpt><trkpt lat="42.7141885" lon="12.0943099"><ele>187.0</ele><time>2026-04-30T10:56:46.987Z</time></trkpt><trkpt lat="42.7140807" lon="12.09407"><ele>187.0</ele><time>2026-04-30T10:56:47.988Z</time></trkpt><trkpt lat="42.7139718" lon="12.0938236"><ele>187.0</ele><time>2026-04-30T10:56:48.987Z</time></trkpt><trkpt lat="42.7138706" lon="12.0935769"><ele>187.0</ele><time>2026-04-30T10:56:49.987Z</time></trkpt><trkpt lat="42.7137729" lon="12.0933339"><ele>187.0</ele><time>2026-04-30T10:56:50.987Z</time></trkpt><trkpt lat="42.7136953" lon="12.0930953"><ele>187.0</ele><time>2026-04-30T10:56:51.988Z</time></trkpt><trkpt lat="42.7136291" lon="12.0928756"><ele>187.33333333333334</ele><time>2026-04-30T10:56:52.987Z</time></trkpt><trkpt lat="42.7135926" lon="12.0926541"><ele>187.66666666666666</ele><time>2026-04-30T10:56:53.987Z</time></trkpt><trkpt lat="42.7135991" lon="12.092432"><ele>188.0</ele><time>2026-04-30T10:56:54.987Z</time></trkpt><trkpt lat="42.713637" lon="12.0922199"><ele>191.66666666666666</ele><time>2026-04-30T10:56:55.987Z</time></trkpt><trkpt lat="42.7137258" lon="12.0920557"><ele>195.33333333333331</ele><time>2026-04-30T10:56:56.988Z</time></trkpt><trkpt lat="42.7138694" lon="12.0919355"><ele>199.0</ele><time>2026-04-30T10:56:57.987Z</time></trkpt><trkpt lat="42.7140449" lon="12.0918254"><ele>199.0</ele><time>2026-04-30T10:56:58.987Z</time></trkpt><trkpt lat="42.7142291" lon="12.0916905"><ele>199.0</ele><time>2026-04-30T10:56:59.988Z</time></trkpt><trkpt lat="42.7144049" lon="12.0915094"><ele>199.0</ele><time>2026-04-30T10:57:00.988Z</time></trkpt><trkpt lat="42.7145672" lon="12.0912955"><ele>201.0</ele><time>2026-04-30T10:57:01.987Z</time></trkpt><trkpt lat="42.7147299" lon="12.0910684"><ele>203.0</ele><time>2026-04-30T10:57:02.987Z</time></trkpt><trkpt lat="42.714888" lon="12.0908292"><ele>202.33333333333334</ele><time>2026-04-30T10:57:03.987Z</time></trkpt><trkpt lat="42.7150472" lon="12.0906028"><ele>201.66666666666669</ele><time>2026-04-30T10:57:04.987Z</time></trkpt><trkpt lat="42.7151946" lon="12.0903958"><ele>201.0</ele><time>2026-04-30T10:57:05.987Z</time></trkpt><trkpt lat="42.7153166" lon="12.0901809"><ele>202.33333333333331</ele><time>2026-04-30T10:57:06.987Z</time></trkpt><trkpt lat="42.7154037" lon="12.0899235"><ele>203.66666666666666</ele><time>2026-04-30T10:57:07.987Z</time></trkpt><trkpt lat="42.7154568" lon="12.0896262"><ele>205.0</ele><time>2026-04-30T10:57:08.987Z</time></trkpt><trkpt lat="42.7154848" lon="12.0893201"><ele>205.5</ele><time>2026-04-30T10:57:09.987Z</time></trkpt><trkpt lat="42.715475" lon="12.0890152"><ele>206.0</ele><time>2026-04-30T10:57:10.987Z</time></trkpt><trkpt lat="42.7154296" lon="12.0887027"><ele>206.0</ele><time>2026-04-30T10:57:11.987Z</time></trkpt><trkpt lat="42.7153305" lon="12.0883924"><ele>206.0</ele><time>2026-04-30T10:57:12.987Z</time></trkpt><trkpt lat="42.7152032" lon="12.0880897"><ele>211.5</ele><time>2026-04-30T10:57:13.987Z</time></trkpt><trkpt lat="42.7150642" lon="12.0877955"><ele>217.0</ele><time>2026-04-30T10:57:14.987Z</time></trkpt><trkpt lat="42.7149241" lon="12.0875046"><ele>216.0</ele><time>2026-04-30T10:57:15.987Z</time></trkpt><trkpt lat="42.7147877" lon="12.0872045"><ele>215.0</ele><time>2026-04-30T10:57:16.987Z</time></trkpt><trkpt lat="42.714653" lon="12.0869026"><ele>215.0</ele><time>2026-04-30T10:57:17.987Z</time></trkpt><trkpt lat="42.7145235" lon="12.0866149"><ele>215.0</ele><time>2026-04-30T10:57:18.987Z</time></trkpt><trkpt lat="42.7144051" lon="12.0863517"><ele>220.33333333333334</ele><time>2026-04-30T10:57:19.987Z</time></trkpt><trkpt lat="42.71431" lon="12.0860935"><ele>225.66666666666669</ele><time>2026-04-30T10:57:20.987Z</time></trkpt><trkpt lat="42.7142581" lon="12.0858452"><ele>231.0</ele><time>2026-04-30T10:57:21.987Z</time></trkpt><trkpt lat="42.7142697" lon="12.0855881"><ele>229.66666666666669</ele><time>2026-04-30T10:57:22.987Z</time></trkpt><trkpt lat="42.7143418" lon="12.0853331"><ele>228.33333333333334</ele><time>2026-04-30T10:57:23.987Z</time></trkpt><trkpt lat="42.7144598" lon="12.0850822"><ele>227.0</ele><time>2026-04-30T10:57:24.987Z</time></trkpt><trkpt lat="42.7145945" lon="12.0848414"><ele>230.0</ele><time>2026-04-30T10:57:25.987Z</time></trkpt><trkpt lat="42.7147482" lon="12.0846363"><ele>233.0</ele><time>2026-04-30T10:57:26.987Z</time></trkpt><trkpt lat="42.7148924" lon="12.0844492"><ele>236.0</ele><time>2026-04-30T10:57:27.987Z</time></trkpt><trkpt lat="42.7150021" lon="12.0842678"><ele>237.33333333333334</ele><time>2026-04-30T10:57:28.988Z</time></trkpt><trkpt lat="42.7150638" lon="12.0840788"><ele>238.66666666666669</ele><time>2026-04-30T10:57:29.988Z</time></trkpt><trkpt lat="42.715085" lon="12.0838678"><ele>240.0</ele><time>2026-04-30T10:57:30.987Z</time></trkpt><trkpt lat="42.7150844" lon="12.083622"><ele>240.0</ele><time>2026-04-30T10:57:31.987Z</time></trkpt><trkpt lat="42.7150815" lon="12.083365"><ele>240.0</ele><time>2026-04-30T10:57:32.987Z</time></trkpt><trkpt lat="42.7150932" lon="12.0830927"><ele>240.0</ele><time>2026-04-30T10:57:33.988Z</time></trkpt><trkpt lat="42.715119" lon="12.0828144"><ele>241.33333333333331</ele><time>2026-04-30T10:57:34.987Z</time></trkpt><trkpt lat="42.7151528" lon="12.0825474"><ele>242.66666666666666</ele><time>2026-04-30T10:57:35.987Z</time></trkpt><trkpt lat="42.7151895" lon="12.0822892"><ele>244.0</ele><time>2026-04-30T10:57:36.987Z</time></trkpt><trkpt lat="42.7152284" lon="12.08206"><ele>242.0</ele><time>2026-04-30T10:57:37.987Z</time></trkpt><trkpt lat="42.7152707" lon="12.0818463"><ele>240.0</ele><time>2026-04-30T10:57:38.987Z</time></trkpt><trkpt lat="42.7153015" lon="12.0816311"><ele>238.0</ele><time>2026-04-30T10:57:39.987Z</time></trkpt><trkpt lat="42.715309" lon="12.0813988"><ele>239.33333333333331</ele><time>2026-04-30T10:57:40.987Z</time></trkpt><trkpt lat="42.7152843" lon="12.0811596"><ele>240.66666666666669</ele><time>2026-04-30T10:57:41.988Z</time></trkpt><trkpt lat="42.7152318" lon="12.0809261"><ele>242.0</ele><time>2026-04-30T10:57:42.987Z</time></trkpt><trkpt lat="42.7151537" lon="12.0807215"><ele>242.0</ele><time>2026-04-30T10:57:43.987Z</time></trkpt><trkpt lat="42.7150668" lon="12.0805616"><ele>242.0</ele><time>2026-04-30T10:57:44.987Z</time></trkpt><trkpt lat="42.7149706" lon="12.0804568"><ele>242.0</ele><time>2026-04-30T10:57:45.987Z</time></trkpt><trkpt lat="42.7148818" lon="12.0804205"><ele>242.0</ele><time>2026-04-30T10:57:46.987Z</time></trkpt><trkpt lat="42.7148059" lon="12.0804488"><ele>242.0</ele><time>2026-04-30T10:57:47.987Z</time></trkpt><trkpt lat="42.7147574" lon="12.0805336"><ele>242.0</ele><time>2026-04-30T10:57:48.987Z</time></trkpt><trkpt lat="42.7147354" lon="12.080661"><ele>242.0</ele><time>2026-04-30T10:57:49.987Z</time></trkpt><trkpt lat="42.714722" lon="12.0808238"><ele>242.0</ele><time>2026-04-30T10:57:50.988Z</time></trkpt><trkpt lat="42.7147006" lon="12.081001"><ele>242.0</ele><time>2026-04-30T10:57:51.987Z</time></trkpt><trkpt lat="42.7146517" lon="12.0811884"><ele>244.0</ele><time>2026-04-30T10:57:52.988Z</time></trkpt><trkpt lat="42.7145745" lon="12.0813775"><ele>246.0</ele><time>2026-04-30T10:57:53.987Z</time></trkpt><trkpt lat="42.7144722" lon="12.0815559"><ele>248.0</ele><time>2026-04-30T10:57:54.987Z</time></trkpt><trkpt lat="42.7143485" lon="12.0817216"><ele>252.0</ele><time>2026-04-30T10:57:55.988Z</time></trkpt><trkpt lat="42.7142108" lon="12.0818924"><ele>256.0</ele><time>2026-04-30T10:57:56.987Z</time></trkpt><trkpt lat="42.7140632" lon="12.0820704"><ele>260.0</ele><time>2026-04-30T10:57:57.987Z</time></trkpt><trkpt lat="42.7139075" lon="12.0822439"><ele>260.0</ele><time>2026-04-30T10:57:58.987Z</time></trkpt><trkpt lat="42.713745" lon="12.0824272"><ele>260.0</ele><time>2026-04-30T10:57:59.987Z</time></trkpt><trkpt lat="42.7135738" lon="12.082606"><ele>260.0</ele><time>2026-04-30T10:58:00.987Z</time></trkpt><trkpt lat="42.7133904" lon="12.0827685"><ele>263.0</ele><time>2026-04-30T10:58:01.988Z</time></trkpt><trkpt lat="42.7132141" lon="12.0829174"><ele>266.0</ele><time>2026-04-30T10:58:02.987Z</time></trkpt><trkpt lat="42.713052" lon="12.0830509"><ele>269.0</ele><time>2026-04-30T10:58:03.987Z</time></trkpt><trkpt lat="42.7129066" lon="12.0831771"><ele>269.5</ele><time>2026-04-30T10:58:04.988Z</time></trkpt><trkpt lat="42.7127762" lon="12.0832741"><ele>270.0</ele><time>2026-04-30T10:58:05.987Z</time></trkpt><trkpt lat="42.7126453" lon="12.083318"><ele>270.5</ele><time>2026-04-30T10:58:06.987Z</time></trkpt><trkpt lat="42.712533" lon="12.0833048"><ele>271.0</ele><time>2026-04-30T10:58:07.987Z</time></trkpt><trkpt lat="42.7124573" lon="12.0832176"><ele>273.0</ele><time>2026-04-30T10:58:08.988Z</time></trkpt><trkpt lat="42.7124228" lon="12.0830844"><ele>275.0</ele><time>2026-04-30T10:58:09.988Z</time></trkpt><trkpt lat="42.7124389" lon="12.0829372"><ele>277.0</ele><time>2026-04-30T10:58:10.987Z</time></trkpt><trkpt lat="42.7125165" lon="12.0827925"><ele>279.0</ele><time>2026-04-30T10:58:11.987Z</time></trkpt><trkpt lat="42.7126271" lon="12.0826363"><ele>276.6666666666667</ele><time>2026-04-30T10:58:12.988Z</time></trkpt><trkpt lat="42.7127484" lon="12.0824552"><ele>274.33333333333337</ele><time>2026-04-30T10:58:13.987Z</time></trkpt><trkpt lat="42.7128661" lon="12.0822578"><ele>272.0</ele><time>2026-04-30T10:58:14.987Z</time></trkpt><trkpt lat="42.7129904" lon="12.0820548"><ele>272.0</ele><time>2026-04-30T10:58:15.988Z</time></trkpt><trkpt lat="42.7131178" lon="12.0818349"><ele>272.0</ele><time>2026-04-30T10:58:16.988Z</time></trkpt><trkpt lat="42.7132407" lon="12.0816204"><ele>272.0</ele><time>2026-04-30T10:58:17.988Z</time></trkpt><trkpt lat="42.7133531" lon="12.0814156"><ele>270.6666666666667</ele><time>2026-04-30T10:58:18.987Z</time></trkpt><trkpt lat="42.7134592" lon="12.0812289"><ele>269.3333333333333</ele><time>2026-04-30T10:58:19.988Z</time></trkpt><trkpt lat="42.7135667" lon="12.0810571"><ele>268.0</ele><time>2026-04-30T10:58:20.987Z</time></trkpt><trkpt lat="42.7136657" lon="12.080908"><ele>268.0</ele><time>2026-04-30T10:58:21.988Z</time></trkpt><trkpt lat="42.713737" lon="12.0807818"><ele>268.0</ele><time>2026-04-30T10:58:22.987Z</time></trkpt><trkpt lat="42.7137749" lon="12.0806633"><ele>268.0</ele><time>2026-04-30T10:58:23.987Z</time></trkpt><trkpt lat="42.7137629" lon="12.0805544"><ele>268.0</ele><time>2026-04-30T10:58:24.988Z</time></trkpt><trkpt lat="42.7137019" lon="12.0804832"><ele>268.0</ele><time>2026-04-30T10:58:25.988Z</time></trkpt><trkpt lat="42.7136134" lon="12.0804996"><ele>271.25</ele><time>2026-04-30T10:58:26.987Z</time></trkpt><trkpt lat="42.7135233" lon="12.0805843"><ele>274.5</ele><time>2026-04-30T10:58:27.988Z</time></trkpt><trkpt lat="42.7134371" lon="12.0807025"><ele>277.75</ele><time>2026-04-30T10:58:28.987Z</time></trkpt><trkpt lat="42.713348" lon="12.0808364"><ele>281.0</ele><time>2026-04-30T10:58:29.988Z</time></trkpt><trkpt lat="42.7132335" lon="12.0809701"><ele>281.0</ele><time>2026-04-30T10:58:30.987Z</time></trkpt><trkpt lat="42.7131122" lon="12.0811051"><ele>281.0</ele><time>2026-04-30T10:58:31.987Z</time></trkpt><trkpt lat="42.7129796" lon="12.0812273"><ele>281.0</ele><time>2026-04-30T10:58:32.987Z</time></trkpt><trkpt lat="42.712837" lon="12.0813325"><ele>283.33333333333337</ele><time>2026-04-30T10:58:33.988Z</time></trkpt><trkpt lat="42.7126805" lon="12.0814281"><ele>285.6666666666667</ele><time>2026-04-30T10:58:34.987Z</time></trkpt><trkpt lat="42.7125162" lon="12.0815398"><ele>288.0</ele><time>2026-04-30T10:58:35.987Z</time></trkpt><trkpt lat="42.712361" lon="12.0816775"><ele>288.0</ele><time>2026-04-30T10:58:36.988Z</time></trkpt><trkpt lat="42.7122173" lon="12.081842"><ele>288.0</ele><time>2026-04-30T10:58:37.987Z</time></trkpt><trkpt lat="42.7120638" lon="12.0819925"><ele>288.0</ele><time>2026-04-30T10:58:38.988Z</time></trkpt><trkpt lat="42.711892" lon="12.0821123"><ele>292.6666666666667</ele><time>2026-04-30T10:58:39.988Z</time></trkpt><trkpt lat="42.7117053" lon="12.0821722"><ele>297.33333333333337</ele><time>2026-04-30T10:58:40.987Z</time></trkpt><trkpt lat="42.7115059" lon="12.0821866"><ele>302.0</ele><time>2026-04-30T10:58:41.988Z</time></trkpt><trkpt lat="42.7113011" lon="12.0821905"><ele>302.0</ele><time>2026-04-30T10:58:42.987Z</time></trkpt><trkpt lat="42.7111148" lon="12.0821812"><ele>302.0</ele><time>2026-04-30T10:58:43.987Z</time></trkpt><trkpt lat="42.7109435" lon="12.0821156"><ele>302.0</ele><time>2026-04-30T10:58:44.987Z</time></trkpt><trkpt lat="42.7107888" lon="12.0819753"><ele>302.33333333333337</ele><time>2026-04-30T10:58:45.987Z</time></trkpt><trkpt lat="42.7106386" lon="12.0818169"><ele>302.6666666666667</ele><time>2026-04-30T10:58:46.987Z</time></trkpt><trkpt lat="42.7104685" lon="12.0816977"><ele>303.0</ele><time>2026-04-30T10:58:47.987Z</time></trkpt><trkpt lat="42.7102778" lon="12.0816491"><ele>302.3333333333333</ele><time>2026-04-30T10:58:48.988Z</time></trkpt><trkpt lat="42.7100895" lon="12.0816544"><ele>301.66666666666663</ele><time>2026-04-30T10:58:49.987Z</time></trkpt><trkpt lat="42.7099149" lon="12.0816553"><ele>301.0</ele><time>2026-04-30T10:58:50.987Z</time></trkpt><trkpt lat="42.7097639" lon="12.0816107"><ele>303.0</ele><time>2026-04-30T10:58:51.987Z</time></trkpt><trkpt lat="42.7096473" lon="12.0814971"><ele>305.0</ele><time>2026-04-30T10:58:52.987Z</time></trkpt><trkpt lat="42.7095828" lon="12.0813468"><ele>307.0</ele><time>2026-04-30T10:58:53.987Z</time></trkpt><trkpt lat="42.7095913" lon="12.0811547"><ele>309.0</ele><time>2026-04-30T10:58:54.987Z</time></trkpt><trkpt lat="42.7096585" lon="12.0809785"><ele>309.0</ele><time>2026-04-30T10:58:55.988Z</time></trkpt><trkpt lat="42.7097662" lon="12.0808352"><ele>309.0</ele><time>2026-04-30T10:58:56.987Z</time></trkpt><trkpt lat="42.7098982" lon="12.0807288"><ele>309.0</ele><time>2026-04-30T10:58:57.987Z</time></trkpt><trkpt lat="42.710035" lon="12.0806589"><ele>309.75</ele><time>2026-04-30T10:58:58.987Z</time></trkpt><trkpt lat="42.7101663" lon="12.0806374"><ele>310.5</ele><time>2026-04-30T10:58:59.988Z</time></trkpt><trkpt lat="42.7102805" lon="12.0806621"><ele>311.25</ele><time>2026-04-30T10:59:00.988Z</time></trkpt><trkpt lat="42.7103852" lon="12.0807272"><ele>312.0</ele><time>2026-04-30T10:59:01.987Z</time></trkpt><trkpt lat="42.7104879" lon="12.0807884"><ele>312.0</ele><time>2026-04-30T10:59:02.988Z</time></trkpt><trkpt lat="42.710592" lon="12.0808193"><ele>312.0</ele><time>2026-04-30T10:59:03.987Z</time></trkpt><trkpt lat="42.7106917" lon="12.0808154"><ele>312.0</ele><time>2026-04-30T10:59:04.987Z</time></trkpt><trkpt lat="42.7107909" lon="12.0807837"><ele>312.0</ele><time>2026-04-30T10:59:05.987Z</time></trkpt><trkpt lat="42.7108813" lon="12.0806974"><ele>312.0</ele><time>2026-04-30T10:59:06.987Z</time></trkpt><trkpt lat="42.7109506" lon="12.0805773"><ele>313.4</ele><time>2026-04-30T10:59:07.987Z</time></trkpt><trkpt lat="42.7110071" lon="12.0804384"><ele>314.79999999999995</ele><time>2026-04-30T10:59:08.988Z</time></trkpt><trkpt lat="42.7110436" lon="12.0802996"><ele>316.2</ele><time>2026-04-30T10:59:09.987Z</time></trkpt><trkpt lat="42.7110595" lon="12.0801654"><ele>317.59999999999997</ele><time>2026-04-30T10:59:10.987Z</time></trkpt><trkpt lat="42.7110409" lon="12.0800397"><ele>319.0</ele><time>2026-04-30T10:59:11.988Z</time></trkpt><trkpt lat="42.7109816" lon="12.0799401"><ele>320.6</ele><time>2026-04-30T10:59:12.987Z</time></trkpt><trkpt lat="42.710892" lon="12.0798806"><ele>322.2</ele><time>2026-04-30T10:59:13.988Z</time></trkpt><trkpt lat="42.710785" lon="12.0798667"><ele>323.8</ele><time>2026-04-30T10:59:14.987Z</time></trkpt><trkpt lat="42.7106737" lon="12.0798885"><ele>325.40000000000003</ele><time>2026-04-30T10:59:15.987Z</time></trkpt><trkpt lat="42.710568" lon="12.0799141"><ele>327.0</ele><time>2026-04-30T10:59:16.988Z</time></trkpt><trkpt lat="42.7104552" lon="12.0799206"><ele>327.0</ele><time>2026-04-30T10:59:17.987Z</time></trkpt><trkpt lat="42.71034" lon="12.0798872"><ele>327.0</ele><time>2026-04-30T10:59:18.988Z</time></trkpt><trkpt lat="42.7102336" lon="12.079815"><ele>327.0</ele><time>2026-04-30T10:59:19.987Z</time></trkpt><trkpt lat="42.7101299" lon="12.0797132"><ele>327.0</ele><time>2026-04-30T10:59:20.987Z</time></trkpt><trkpt lat="42.7100237" lon="12.0796186"><ele>328.25</ele><time>2026-04-30T10:59:21.987Z</time></trkpt><trkpt lat="42.7099154" lon="12.0795476"><ele>329.5</ele><time>2026-04-30T10:59:22.987Z</time></trkpt><trkpt lat="42.7098031" lon="12.0795109"><ele>330.75</ele><time>2026-04-30T10:59:23.987Z</time></trkpt><trkpt lat="42.7096923" lon="12.0794964"><ele>332.0</ele><time>2026-04-30T10:59:24.988Z</time></trkpt><trkpt lat="42.7095832" lon="12.0794983"><ele>332.0</ele><time>2026-04-30T10:59:25.988Z</time></trkpt><trkpt lat="42.7094749" lon="12.0795091"><ele>332.0</ele><time>2026-04-30T10:59:26.988Z</time></trkpt><trkpt lat="42.709367" lon="12.0795228"><ele>332.0</ele><time>2026-04-30T10:59:27.987Z</time></trkpt><trkpt lat="42.709265" lon="12.079542"><ele>332.0</ele><time>2026-04-30T10:59:28.987Z</time></trkpt><trkpt lat="42.7091777" lon="12.0795714"><ele>332.0</ele><time>2026-04-30T10:59:29.987Z</time></trkpt><trkpt lat="42.7090937" lon="12.0796099"><ele>332.8</ele><time>2026-04-30T10:59:30.987Z</time></trkpt><trkpt lat="42.7090124" lon="12.0796623"><ele>333.6</ele><time>2026-04-30T10:59:31.988Z</time></trkpt><trkpt lat="42.7089276" lon="12.0797084"><ele>334.40000000000003</ele><time>2026-04-30T10:59:32.988Z</time></trkpt><trkpt lat="42.7088375" lon="12.0797255"><ele>335.20000000000005</ele><time>2026-04-30T10:59:33.987Z</time></trkpt><trkpt lat="42.7087551" lon="12.0796674"><ele>336.0</ele><time>2026-04-30T10:59:34.988Z</time></trkpt><trkpt lat="42.7086937" lon="12.079552"><ele>336.0</ele><time>2026-04-30T10:59:35.987Z</time></trkpt><trkpt lat="42.7086831" lon="12.0794039"><ele>336.0</ele><time>2026-04-30T10:59:36.987Z</time></trkpt><trkpt lat="42.7087231" lon="12.0792644"><ele>336.0</ele><time>2026-04-30T10:59:37.988Z</time></trkpt><trkpt lat="42.7088337" lon="12.0791367"><ele>336.0</ele><time>2026-04-30T10:59:38.987Z</time></trkpt><trkpt lat="42.708997" lon="12.0790021"><ele>337.6666666666667</ele><time>2026-04-30T10:59:39.988Z</time></trkpt><trkpt lat="42.7091866" lon="12.078868"><ele>339.33333333333337</ele><time>2026-04-30T10:59:40.987Z</time></trkpt><trkpt lat="42.7093866" lon="12.0787245"><ele>341.0</ele><time>2026-04-30T10:59:41.987Z</time></trkpt><trkpt lat="42.7095796" lon="12.0785522"><ele>341.0</ele><time>2026-04-30T10:59:42.988Z</time></trkpt><trkpt lat="42.7097742" lon="12.0783423"><ele>341.0</ele><time>2026-04-30T10:59:43.987Z</time></trkpt><trkpt lat="42.7099628" lon="12.0781094"><ele>340.6666666666667</ele><time>2026-04-30T10:59:44.987Z</time></trkpt><trkpt lat="42.7101297" lon="12.0778862"><ele>340.3333333333333</ele><time>2026-04-30T10:59:45.987Z</time></trkpt><trkpt lat="42.7102732" lon="12.0777003"><ele>340.0</ele><time>2026-04-30T10:59:46.988Z</time></trkpt><trkpt lat="42.7103898" lon="12.0775526"><ele>339.4</ele><time>2026-04-30T10:59:47.987Z</time></trkpt><trkpt lat="42.7104633" lon="12.0774211"><ele>338.8</ele><time>2026-04-30T10:59:48.987Z</time></trkpt><trkpt lat="42.7104884" lon="12.0772806"><ele>338.20000000000005</ele><time>2026-04-30T10:59:49.987Z</time></trkpt><trkpt lat="42.7104583" lon="12.0771452"><ele>337.6</ele><time>2026-04-30T10:59:50.987Z</time></trkpt><trkpt lat="42.7103828" lon="12.0770349"><ele>337.0</ele><time>2026-04-30T10:59:51.987Z</time></trkpt><trkpt lat="42.7102771" lon="12.076981"><ele>341.25</ele><time>2026-04-30T10:59:52.987Z</time></trkpt><trkpt lat="42.7101612" lon="12.0769889"><ele>345.5</ele><time>2026-04-30T10:59:53.988Z</time></trkpt><trkpt lat="42.710048" lon="12.0770722"><ele>349.75</ele><time>2026-04-30T10:59:54.988Z</time></trkpt><trkpt lat="42.7099446" lon="12.0772286"><ele>354.0</ele><time>2026-04-30T10:59:55.987Z</time></trkpt><trkpt lat="42.7098563" lon="12.0774114"><ele>353.0</ele><time>2026-04-30T10:59:56.987Z</time></trkpt><trkpt lat="42.7097555" lon="12.0775893"><ele>352.0</ele><time>2026-04-30T10:59:57.987Z</time></trkpt><trkpt lat="42.7096354" lon="12.0777499"><ele>351.0</ele><time>2026-04-30T10:59:58.987Z</time></trkpt><trkpt lat="42.709482" lon="12.0778645"><ele>357.0</ele><time>2026-04-30T10:59:59.988Z</time></trkpt><trkpt lat="42.7092977" lon="12.0779339"><ele>363.0</ele><time>2026-04-30T11:00:00.987Z</time></trkpt><trkpt lat="42.7091074" lon="12.0779975"><ele>369.0</ele><time>2026-04-30T11:00:01.987Z</time></trkpt><trkpt lat="42.7089169" lon="12.0780521"><ele>369.0</ele><time>2026-04-30T11:00:02.988Z</time></trkpt><trkpt lat="42.708726" lon="12.0780955"><ele>369.0</ele><time>2026-04-30T11:00:03.987Z</time></trkpt><trkpt lat="42.7085192" lon="12.0781024"><ele>369.0</ele><time>2026-04-30T11:00:04.987Z</time></trkpt><trkpt lat="42.7083132" lon="12.0780677"><ele>372.3333333333333</ele><time>2026-04-30T11:00:05.987Z</time></trkpt><trkpt lat="42.708101" lon="12.0780377"><ele>375.66666666666663</ele><time>2026-04-30T11:00:06.987Z</time></trkpt><trkpt lat="42.7078969" lon="12.0780527"><ele>379.0</ele><time>2026-04-30T11:00:07.987Z</time></trkpt><trkpt lat="42.7076934" lon="12.0781197"><ele>382.3333333333333</ele><time>2026-04-30T11:00:08.987Z</time></trkpt><trkpt lat="42.7074832" lon="12.078196"><ele>385.66666666666663</ele><time>2026-04-30T11:00:09.988Z</time></trkpt><trkpt lat="42.7072709" lon="12.0782656"><ele>389.0</ele><time>2026-04-30T11:00:10.988Z</time></trkpt><trkpt lat="42.7070643" lon="12.0783377"><ele>389.66666666666663</ele><time>2026-04-30T11:00:11.987Z</time></trkpt><trkpt lat="42.7068793" lon="12.078464"><ele>390.33333333333337</ele><time>2026-04-30T11:00:12.987Z</time></trkpt><trkpt lat="42.7067196" lon="12.0786647"><ele>391.0</ele><time>2026-04-30T11:00:13.988Z</time></trkpt><trkpt lat="42.7065817" lon="12.0788753"><ele>391.0</ele><time>2026-04-30T11:00:14.987Z</time></trkpt><trkpt lat="42.7064378" lon="12.0790821"><ele>391.0</ele><time>2026-04-30T11:00:15.987Z</time></trkpt><trkpt lat="42.706302" lon="12.0792745"><ele>391.0</ele><time>2026-04-30T11:00:16.987Z</time></trkpt><trkpt lat="42.7061674" lon="12.0794795"><ele>391.6666666666667</ele><time>2026-04-30T11:00:17.987Z</time></trkpt><trkpt lat="42.7060525" lon="12.0796997"><ele>392.33333333333337</ele><time>2026-04-30T11:00:18.987Z</time></trkpt><trkpt lat="42.7059442" lon="12.0799282"><ele>393.0</ele><time>2026-04-30T11:00:19.988Z</time></trkpt><trkpt lat="42.7058264" lon="12.0801613"><ele>391.0</ele><time>2026-04-30T11:00:20.987Z</time></trkpt><trkpt lat="42.7056958" lon="12.080376"><ele>389.0</ele><time>2026-04-30T11:00:21.987Z</time></trkpt><trkpt lat="42.7055471" lon="12.0805574"><ele>387.0</ele><time>2026-04-30T11:00:22.987Z</time></trkpt><trkpt lat="42.705376" lon="12.0807072"><ele>389.33333333333337</ele><time>2026-04-30T11:00:23.987Z</time></trkpt><trkpt lat="42.7051986" lon="12.0808354"><ele>391.6666666666667</ele><time>2026-04-30T11:00:24.988Z</time></trkpt><trkpt lat="42.7050151" lon="12.0809547"><ele>394.0</ele><time>2026-04-30T11:00:25.988Z</time></trkpt><trkpt lat="42.7048309" lon="12.0810764"><ele>394.0</ele><time>2026-04-30T11:00:26.988Z</time></trkpt><trkpt lat="42.7046527" lon="12.081203"><ele>394.0</ele><time>2026-04-30T11:00:27.987Z</time></trkpt><trkpt lat="42.7044726" lon="12.0813197"><ele>394.0</ele><time>2026-04-30T11:00:28.987Z</time></trkpt><trkpt lat="42.7042961" lon="12.0814314"><ele>400.33333333333337</ele><time>2026-04-30T11:00:29.987Z</time></trkpt><trkpt lat="42.7041218" lon="12.0815132"><ele>406.66666666666663</ele><time>2026-04-30T11:00:30.987Z</time></trkpt><trkpt lat="42.7039271" lon="12.0815505"><ele>413.0</ele><time>2026-04-30T11:00:31.987Z</time></trkpt><trkpt lat="42.7037201" lon="12.0815379"><ele>413.0</ele><time>2026-04-30T11:00:32.987Z</time></trkpt><trkpt lat="42.7035299" lon="12.0814643"><ele>413.0</ele><time>2026-04-30T11:00:33.987Z</time></trkpt><trkpt lat="42.703351" lon="12.0813543"><ele>413.0</ele><time>2026-04-30T11:00:34.988Z</time></trkpt><trkpt lat="42.7031622" lon="12.0812726"><ele>413.0</ele><time>2026-04-30T11:00:35.987Z</time></trkpt><trkpt lat="42.7029707" lon="12.0812223"><ele>413.0</ele><time>2026-04-30T11:00:36.988Z</time></trkpt><trkpt lat="42.7027736" lon="12.0811692"><ele>413.0</ele><time>2026-04-30T11:00:37.988Z</time></trkpt><trkpt lat="42.7025863" lon="12.0810688"><ele>411.66666666666663</ele><time>2026-04-30T11:00:38.987Z</time></trkpt><trkpt lat="42.702414" lon="12.0809243"><ele>410.33333333333337</ele><time>2026-04-30T11:00:39.988Z</time></trkpt><trkpt lat="42.7022459" lon="12.080767"><ele>409.0</ele><time>2026-04-30T11:00:40.988Z</time></trkpt><trkpt lat="42.7020869" lon="12.0805994"><ele>410.6666666666667</ele><time>2026-04-30T11:00:41.988Z</time></trkpt><trkpt lat="42.7019332" lon="12.0804273"><ele>412.33333333333337</ele><time>2026-04-30T11:00:42.988Z</time></trkpt><trkpt lat="42.7017927" lon="12.0802356"><ele>414.0</ele><time>2026-04-30T11:00:43.987Z</time></trkpt><trkpt lat="42.7016916" lon="12.0800118"><ele>415.66666666666663</ele><time>2026-04-30T11:00:44.987Z</time></trkpt><trkpt lat="42.7016355" lon="12.0797686"><ele>417.3333333333333</ele><time>2026-04-30T11:00:45.987Z</time></trkpt><trkpt lat="42.7016138" lon="12.0795172"><ele>419.0</ele><time>2026-04-30T11:00:46.987Z</time></trkpt><trkpt lat="42.7016092" lon="12.0792543"><ele>419.3333333333333</ele><time>2026-04-30T11:00:47.987Z</time></trkpt><trkpt lat="42.7015948" lon="12.0789817"><ele>419.66666666666663</ele><time>2026-04-30T11:00:48.987Z</time></trkpt><trkpt lat="42.7015566" lon="12.0787001"><ele>420.0</ele><time>2026-04-30T11:00:49.988Z</time></trkpt><trkpt lat="42.7015088" lon="12.078414"><ele>421.33333333333337</ele><time>2026-04-30T11:00:50.987Z</time></trkpt><trkpt lat="42.7014535" lon="12.0781286"><ele>422.6666666666667</ele><time>2026-04-30T11:00:51.988Z</time></trkpt><trkpt lat="42.701397" lon="12.0778426"><ele>424.0</ele><time>2026-04-30T11:00:52.988Z</time></trkpt><trkpt lat="42.7013425" lon="12.0775566"><ele>426.6666666666667</ele><time>2026-04-30T11:00:53.987Z</time></trkpt><trkpt lat="42.7012864" lon="12.077273"><ele>429.33333333333337</ele><time>2026-04-30T11:00:54.987Z</time></trkpt><trkpt lat="42.7012321" lon="12.0769861"><ele>432.0</ele><time>2026-04-30T11:00:55.988Z</time></trkpt><trkpt lat="42.7011786" lon="12.076707"><ele>433.0</ele><time>2026-04-30T11:00:56.987Z</time></trkpt><trkpt lat="42.7011264" lon="12.0764483"><ele>434.0</ele><time>2026-04-30T11:00:57.987Z</time></trkpt><trkpt lat="42.7010872" lon="12.0762155"><ele>435.0</ele><time>2026-04-30T11:00:58.987Z</time></trkpt><trkpt lat="42.7010533" lon="12.0760105"><ele>435.0</ele><time>2026-04-30T11:00:59.987Z</time></trkpt><trkpt lat="42.7010254" lon="12.0758328"><ele>435.0</ele><time>2026-04-30T11:01:00.988Z</time></trkpt><trkpt lat="42.700996" lon="12.0756843"><ele>435.0</ele><time>2026-04-30T11:01:01.988Z</time></trkpt><trkpt lat="42.7009709" lon="12.0755474"><ele>435.0</ele><time>2026-04-30T11:01:02.987Z</time></trkpt><trkpt lat="42.7009506" lon="12.0754278"><ele>435.0</ele><time>2026-04-30T11:01:03.987Z</time></trkpt><trkpt lat="42.700925" lon="12.0753201"><ele>436.5</ele><time>2026-04-30T11:01:04.988Z</time></trkpt><trkpt lat="42.700899" lon="12.0752234"><ele>438.0</ele><time>2026-04-30T11:01:05.988Z</time></trkpt><trkpt lat="42.7008723" lon="12.0751281"><ele>439.5</ele><time>2026-04-30T11:01:06.987Z</time></trkpt><trkpt lat="42.700849" lon="12.0750254"><ele>441.0</ele><time>2026-04-30T11:01:07.987Z</time></trkpt><trkpt lat="42.7008208" lon="12.0749032"><ele>442.5</ele><time>2026-04-30T11:01:08.987Z</time></trkpt><trkpt lat="42.7007816" lon="12.0747646"><ele>444.0</ele><time>2026-04-30T11:01:09.987Z</time></trkpt><trkpt lat="42.70074" lon="12.0745975"><ele>446.0</ele><time>2026-04-30T11:01:10.987Z</time></trkpt><trkpt lat="42.7006983" lon="12.0744031"><ele>448.0</ele><time>2026-04-30T11:01:11.988Z</time></trkpt><trkpt lat="42.7006532" lon="12.0742006"><ele>450.0</ele><time>2026-04-30T11:01:12.987Z</time></trkpt><trkpt lat="42.7006105" lon="12.0739881"><ele>452.66666666666663</ele><time>2026-04-30T11:01:13.987Z</time></trkpt><trkpt lat="42.7005674" lon="12.0737668"><ele>455.3333333333333</ele><time>2026-04-30T11:01:14.987Z</time></trkpt><trkpt lat="42.7005254" lon="12.0735196"><ele>458.0</ele><time>2026-04-30T11:01:15.988Z</time></trkpt><trkpt lat="42.7004748" lon="12.0732687"><ele>460.0</ele><time>2026-04-30T11:01:16.988Z</time></trkpt><trkpt lat="42.7004203" lon="12.0729978"><ele>462.0</ele><time>2026-04-30T11:01:17.988Z</time></trkpt><trkpt lat="42.7003744" lon="12.0727275"><ele>464.0</ele><time>2026-04-30T11:01:18.988Z</time></trkpt><trkpt lat="42.7003271" lon="12.0724556"><ele>464.3333333333333</ele><time>2026-04-30T11:01:19.988Z</time></trkpt><trkpt lat="42.7002787" lon="12.0721735"><ele>464.66666666666663</ele><time>2026-04-30T11:01:20.987Z</time></trkpt><trkpt lat="42.7002279" lon="12.0718925"><ele>465.0</ele><time>2026-04-30T11:01:21.988Z</time></trkpt><trkpt lat="42.7001744" lon="12.0716132"><ele>464.66666666666663</ele><time>2026-04-30T11:01:22.987Z</time></trkpt><trkpt lat="42.7001078" lon="12.0713584"><ele>464.3333333333333</ele><time>2026-04-30T11:01:23.988Z</time></trkpt><trkpt lat="42.7000295" lon="12.0711291"><ele>464.0</ele><time>2026-04-30T11:01:24.987Z</time></trkpt><trkpt lat="42.6999361" lon="12.0709221"><ele>462.66666666666663</ele><time>2026-04-30T11:01:25.987Z</time></trkpt><trkpt lat="42.6998116" lon="12.0707616"><ele>461.33333333333337</ele><time>2026-04-30T11:01:26.987Z</time></trkpt><trkpt lat="42.6996684" lon="12.0706459"><ele>460.0</ele><time>2026-04-30T11:01:27.987Z</time></trkpt><trkpt lat="42.6995149" lon="12.0705646"><ele>461.33333333333337</ele><time>2026-04-30T11:01:28.987Z</time></trkpt><trkpt lat="42.6993536" lon="12.070497"><ele>462.66666666666663</ele><time>2026-04-30T11:01:29.988Z</time></trkpt><trkpt lat="42.6991818" lon="12.0704312"><ele>464.0</ele><time>2026-04-30T11:01:30.987Z</time></trkpt><trkpt lat="42.6990066" lon="12.0703564"><ele>464.0</ele><time>2026-04-30T11:01:31.987Z</time></trkpt><trkpt lat="42.6988304" lon="12.0702881"><ele>464.0</ele><time>2026-04-30T11:01:32.988Z</time></trkpt><trkpt lat="42.698656" lon="12.0702139"><ele>464.0</ele><time>2026-04-30T11:01:33.987Z</time></trkpt><trkpt lat="42.6984795" lon="12.0701414"><ele>465.0</ele><time>2026-04-30T11:01:34.987Z</time></trkpt><trkpt lat="42.698304" lon="12.0700729"><ele>466.0</ele><time>2026-04-30T11:01:35.987Z</time></trkpt><trkpt lat="42.6981305" lon="12.069999"><ele>467.0</ele><time>2026-04-30T11:01:36.987Z</time></trkpt><trkpt lat="42.6979668" lon="12.0699072"><ele>468.0</ele><time>2026-04-30T11:01:37.987Z</time></trkpt><trkpt lat="42.6978056" lon="12.069803"><ele>469.0</ele><time>2026-04-30T11:01:38.987Z</time></trkpt><trkpt lat="42.6976551" lon="12.0696782"><ele>470.0</ele><time>2026-04-30T11:01:39.987Z</time></trkpt><trkpt lat="42.6975065" lon="12.0695333"><ele>471.3333333333333</ele><time>2026-04-30T11:01:40.987Z</time></trkpt><trkpt lat="42.6973658" lon="12.0693809"><ele>472.66666666666663</ele><time>2026-04-30T11:01:41.987Z</time></trkpt><trkpt lat="42.6972291" lon="12.0692289"><ele>474.0</ele><time>2026-04-30T11:01:42.987Z</time></trkpt><trkpt lat="42.6970967" lon="12.0690751"><ele>474.33333333333337</ele><time>2026-04-30T11:01:43.987Z</time></trkpt><trkpt lat="42.6969746" lon="12.0689213"><ele>474.6666666666667</ele><time>2026-04-30T11:01:44.987Z</time></trkpt><trkpt lat="42.6968604" lon="12.0687664"><ele>475.0</ele><time>2026-04-30T11:01:45.988Z</time></trkpt><trkpt lat="42.6967486" lon="12.0686063"><ele>475.33333333333337</ele><time>2026-04-30T11:01:46.987Z</time></trkpt><trkpt lat="42.6966381" lon="12.0684401"><ele>475.66666666666663</ele><time>2026-04-30T11:01:47.987Z</time></trkpt><trkpt lat="42.6965283" lon="12.0682691"><ele>476.0</ele><time>2026-04-30T11:01:48.987Z</time></trkpt><trkpt lat="42.6964161" lon="12.0680943"><ele>476.0</ele><time>2026-04-30T11:01:49.987Z</time></trkpt><trkpt lat="42.6963024" lon="12.06792"><ele>476.0</ele><time>2026-04-30T11:01:50.987Z</time></trkpt><trkpt lat="42.6961981" lon="12.0677616"><ele>476.0</ele><time>2026-04-30T11:01:51.987Z</time></trkpt><trkpt lat="42.6960949" lon="12.067603"><ele>477.66666666666663</ele><time>2026-04-30T11:01:52.987Z</time></trkpt><trkpt lat="42.6959982" lon="12.0674536"><ele>479.33333333333337</ele><time>2026-04-30T11:01:53.987Z</time></trkpt><trkpt lat="42.6958979" lon="12.0672992"><ele>481.0</ele><time>2026-04-30T11:01:54.987Z</time></trkpt><trkpt lat="42.6957966" lon="12.0671301"><ele>481.0</ele><time>2026-04-30T11:01:55.988Z</time></trkpt><trkpt lat="42.6956993" lon="12.0669497"><ele>481.0</ele><time>2026-04-30T11:01:56.987Z</time></trkpt><trkpt lat="42.6955919" lon="12.0667506"><ele>481.0</ele><time>2026-04-30T11:01:57.987Z</time></trkpt><trkpt lat="42.6954771" lon="12.0665436"><ele>480.33333333333337</ele><time>2026-04-30T11:01:58.988Z</time></trkpt><trkpt lat="42.6953582" lon="12.0663227"><ele>479.66666666666663</ele><time>2026-04-30T11:01:59.987Z</time></trkpt><trkpt lat="42.6952332" lon="12.0660972"><ele>479.0</ele><time>2026-04-30T11:02:00.987Z</time></trkpt><trkpt lat="42.6951024" lon="12.0658716"><ele>481.0</ele><time>2026-04-30T11:02:01.987Z</time></trkpt><trkpt lat="42.6949614" lon="12.0656506"><ele>483.0</ele><time>2026-04-30T11:02:02.987Z</time></trkpt><trkpt lat="42.6948077" lon="12.0654545"><ele>485.0</ele><time>2026-04-30T11:02:03.987Z</time></trkpt><trkpt lat="42.6946503" lon="12.0652718"><ele>485.0</ele><time>2026-04-30T11:02:04.987Z</time></trkpt><trkpt lat="42.6944937" lon="12.0651091"><ele>485.0</ele><time>2026-04-30T11:02:05.988Z</time></trkpt><trkpt lat="42.6943255" lon="12.0649746"><ele>485.0</ele><time>2026-04-30T11:02:06.987Z</time></trkpt><trkpt lat="42.6941478" lon="12.0648619"><ele>485.0</ele><time>2026-04-30T11:02:07.987Z</time></trkpt><trkpt lat="42.6939688" lon="12.0647748"><ele>485.0</ele><time>2026-04-30T11:02:08.988Z</time></trkpt><trkpt lat="42.6937827" lon="12.0647063"><ele>485.0</ele><time>2026-04-30T11:02:09.987Z</time></trkpt><trkpt lat="42.6935954" lon="12.0646473"><ele>486.0</ele><time>2026-04-30T11:02:10.987Z</time></trkpt><trkpt lat="42.6934097" lon="12.0645955"><ele>487.0</ele><time>2026-04-30T11:02:11.987Z</time></trkpt><trkpt lat="42.6932212" lon="12.0645365"><ele>488.0</ele><time>2026-04-30T11:02:12.987Z</time></trkpt><trkpt lat="42.6930332" lon="12.0644812"><ele>488.0</ele><time>2026-04-30T11:02:13.987Z</time></trkpt><trkpt lat="42.692844" lon="12.0644192"><ele>488.0</ele><time>2026-04-30T11:02:14.988Z</time></trkpt><trkpt lat="42.6926606" lon="12.0643447"><ele>488.0</ele><time>2026-04-30T11:02:15.987Z</time></trkpt><trkpt lat="42.6924814" lon="12.064257"><ele>488.66666666666663</ele><time>2026-04-30T11:02:16.987Z</time></trkpt><trkpt lat="42.692306" lon="12.0641663"><ele>489.33333333333337</ele><time>2026-04-30T11:02:17.988Z</time></trkpt><trkpt lat="42.692132" lon="12.0640651"><ele>490.0</ele><time>2026-04-30T11:02:18.987Z</time></trkpt><trkpt lat="42.6919708" lon="12.0639479"><ele>492.0</ele><time>2026-04-30T11:02:19.987Z</time></trkpt><trkpt lat="42.6918156" lon="12.0638178"><ele>494.0</ele><time>2026-04-30T11:02:20.988Z</time></trkpt><trkpt lat="42.6916639" lon="12.0636963"><ele>496.0</ele><time>2026-04-30T11:02:21.987Z</time></trkpt><trkpt lat="42.6915124" lon="12.0635604"><ele>496.0</ele><time>2026-04-30T11:02:22.987Z</time></trkpt><trkpt lat="42.6913557" lon="12.063425"><ele>496.0</ele><time>2026-04-30T11:02:23.987Z</time></trkpt><trkpt lat="42.6911954" lon="12.0632925"><ele>496.0</ele><time>2026-04-30T11:02:24.988Z</time></trkpt><trkpt lat="42.691033" lon="12.0631522"><ele>497.33333333333337</ele><time>2026-04-30T11:02:25.988Z</time></trkpt><trkpt lat="42.6908699" lon="12.0630094"><ele>498.66666666666663</ele><time>2026-04-30T11:02:26.987Z</time></trkpt><trkpt lat="42.6907113" lon="12.0628804"><ele>500.0</ele><time>2026-04-30T11:02:27.988Z</time></trkpt><trkpt lat="42.6905551" lon="12.0627489"><ele>500.0</ele><time>2026-04-30T11:02:28.987Z</time></trkpt><trkpt lat="42.6903988" lon="12.0626143"><ele>500.0</ele><time>2026-04-30T11:02:29.987Z</time></trkpt><trkpt lat="42.6902423" lon="12.0624784"><ele>500.0</ele><time>2026-04-30T11:02:30.988Z</time></trkpt><trkpt lat="42.6900885" lon="12.0623397"><ele>500.66666666666663</ele><time>2026-04-30T11:02:31.987Z</time></trkpt><trkpt lat="42.6899408" lon="12.0621922"><ele>501.33333333333337</ele><time>2026-04-30T11:02:32.988Z</time></trkpt><trkpt lat="42.6897995" lon="12.0620338"><ele>502.0</ele><time>2026-04-30T11:02:33.987Z</time></trkpt><trkpt lat="42.6896732" lon="12.061857"><ele>502.0</ele><time>2026-04-30T11:02:34.987Z</time></trkpt><trkpt lat="42.6895661" lon="12.061662"><ele>502.0</ele><time>2026-04-30T11:02:35.987Z</time></trkpt><trkpt lat="42.6894746" lon="12.0614544"><ele>502.0</ele><time>2026-04-30T11:02:36.987Z</time></trkpt><trkpt lat="42.6893937" lon="12.0612363"><ele>503.6666666666667</ele><time>2026-04-30T11:02:37.987Z</time></trkpt><trkpt lat="42.6893179" lon="12.0610176"><ele>505.33333333333337</ele><time>2026-04-30T11:02:38.987Z</time></trkpt><trkpt lat="42.68925" lon="12.0608074"><ele>507.0</ele><time>2026-04-30T11:02:39.987Z</time></trkpt><trkpt lat="42.689186" lon="12.0606024"><ele>508.0</ele><time>2026-04-30T11:02:40.988Z</time></trkpt><trkpt lat="42.6890989" lon="12.0604068"><ele>509.0</ele><time>2026-04-30T11:02:41.987Z</time></trkpt><trkpt lat="42.6889954" lon="12.0602357"><ele>510.0</ele><time>2026-04-30T11:02:42.987Z</time></trkpt><trkpt lat="42.6888775" lon="12.0600836"><ele>510.0</ele><time>2026-04-30T11:02:43.988Z</time></trkpt><trkpt lat="42.688749" lon="12.0599343"><ele>510.0</ele><time>2026-04-30T11:02:44.987Z</time></trkpt><trkpt lat="42.6886169" lon="12.0597891"><ele>510.0</ele><time>2026-04-30T11:02:45.987Z</time></trkpt><trkpt lat="42.6884842" lon="12.0596412"><ele>511.66666666666663</ele><time>2026-04-30T11:02:46.987Z</time></trkpt><trkpt lat="42.6883592" lon="12.0594948"><ele>513.3333333333333</ele><time>2026-04-30T11:02:47.987Z</time></trkpt><trkpt lat="42.6882306" lon="12.0593536"><ele>515.0</ele><time>2026-04-30T11:02:48.988Z</time></trkpt><trkpt lat="42.6881087" lon="12.0592111"><ele>515.3333333333333</ele><time>2026-04-30T11:02:49.987Z</time></trkpt><trkpt lat="42.6879845" lon="12.0590687"><ele>515.6666666666666</ele><time>2026-04-30T11:02:50.987Z</time></trkpt><trkpt lat="42.6878631" lon="12.0589218"><ele>516.0</ele><time>2026-04-30T11:02:51.987Z</time></trkpt><trkpt lat="42.6877492" lon="12.0587617"><ele>515.3333333333334</ele><time>2026-04-30T11:02:52.987Z</time></trkpt><trkpt lat="42.6876482" lon="12.0585979"><ele>514.6666666666667</ele><time>2026-04-30T11:02:53.987Z</time></trkpt><trkpt lat="42.6875656" lon="12.0584242"><ele>514.0</ele><time>2026-04-30T11:02:54.987Z</time></trkpt><trkpt lat="42.6875021" lon="12.0582253"><ele>514.0</ele><time>2026-04-30T11:02:55.987Z</time></trkpt><trkpt lat="42.6874492" lon="12.0580236"><ele>514.0</ele><time>2026-04-30T11:02:56.987Z</time></trkpt><trkpt lat="42.6873945" lon="12.0578269"><ele>514.0</ele><time>2026-04-30T11:02:57.987Z</time></trkpt><trkpt lat="42.6873362" lon="12.0576336"><ele>514.0</ele><time>2026-04-30T11:02:58.987Z</time></trkpt><trkpt lat="42.6872706" lon="12.0574527"><ele>514.0</ele><time>2026-04-30T11:02:59.987Z</time></trkpt><trkpt lat="42.6871937" lon="12.0572797"><ele>514.0</ele><time>2026-04-30T11:03:00.987Z</time></trkpt><trkpt lat="42.6871094" lon="12.057107"><ele>514.0</ele><time>2026-04-30T11:03:01.987Z</time></trkpt><trkpt lat="42.6870214" lon="12.0569547"><ele>514.0</ele><time>2026-04-30T11:03:02.987Z</time></trkpt><trkpt lat="42.6869312" lon="12.0568196"><ele>514.0</ele><time>2026-04-30T11:03:03.988Z</time></trkpt><trkpt lat="42.6868582" lon="12.0567048"><ele>514.0</ele><time>2026-04-30T11:03:04.987Z</time></trkpt><trkpt lat="42.686818" lon="12.0566213"><ele>514.0</ele><time>2026-04-30T11:03:05.987Z</time></trkpt><trkpt lat="42.6868004" lon="12.0565026"><ele>514.0</ele><time>2026-04-30T11:03:07.988Z</time></trkpt><trkpt lat="42.6867729" lon="12.0564118"><ele>514.4</ele><time>2026-04-30T11:05:02.987Z</time></trkpt><trkpt lat="42.686687" lon="12.0562904"><ele>514.8</ele><time>2026-04-30T11:05:04.987Z</time></trkpt><trkpt lat="42.6866315" lon="12.0562331"><ele>515.2</ele><time>2026-04-30T11:05:05.987Z</time></trkpt><trkpt lat="42.6865777" lon="12.0561645"><ele>515.6</ele><time>2026-04-30T11:05:06.987Z</time></trkpt><trkpt lat="42.6865192" lon="12.0560836"><ele>516.0</ele><time>2026-04-30T11:05:07.988Z</time></trkpt><trkpt lat="42.6864536" lon="12.0559714"><ele>516.0</ele><time>2026-04-30T11:05:08.988Z</time></trkpt><trkpt lat="42.6863755" lon="12.0558497"><ele>516.0</ele><time>2026-04-30T11:05:09.988Z</time></trkpt><trkpt lat="42.6863044" lon="12.0557161"><ele>516.0</ele><time>2026-04-30T11:05:10.988Z</time></trkpt><trkpt lat="42.6862258" lon="12.0555649"><ele>516.0</ele><time>2026-04-30T11:05:11.988Z</time></trkpt><trkpt lat="42.6861293" lon="12.055399"><ele>516.3333333333334</ele><time>2026-04-30T11:05:12.987Z</time></trkpt><trkpt lat="42.6860334" lon="12.0552413"><ele>516.6666666666667</ele><time>2026-04-30T11:05:13.988Z</time></trkpt><trkpt lat="42.6859316" lon="12.0550801"><ele>517.0</ele><time>2026-04-30T11:05:14.987Z</time></trkpt><trkpt lat="42.6858239" lon="12.0549173"><ele>516.3333333333334</ele><time>2026-04-30T11:05:15.988Z</time></trkpt><trkpt lat="42.685703" lon="12.0547396"><ele>515.6666666666666</ele><time>2026-04-30T11:05:16.987Z</time></trkpt><trkpt lat="42.685585" lon="12.0545658"><ele>515.0</ele><time>2026-04-30T11:05:17.988Z</time></trkpt><trkpt lat="42.6854789" lon="12.054412"><ele>515.0</ele><time>2026-04-30T11:05:18.988Z</time></trkpt><trkpt lat="42.6853834" lon="12.054259"><ele>515.0</ele><time>2026-04-30T11:05:19.988Z</time></trkpt><trkpt lat="42.6853013" lon="12.0540871"><ele>515.0</ele><time>2026-04-30T11:05:20.988Z</time></trkpt><trkpt lat="42.6852529" lon="12.0538757"><ele>517.0</ele><time>2026-04-30T11:05:21.987Z</time></trkpt><trkpt lat="42.6852361" lon="12.0536292"><ele>519.0</ele><time>2026-04-30T11:05:22.987Z</time></trkpt><trkpt lat="42.68523" lon="12.0533681"><ele>521.0</ele><time>2026-04-30T11:05:23.988Z</time></trkpt><trkpt lat="42.685242" lon="12.0531008"><ele>521.6666666666666</ele><time>2026-04-30T11:05:24.987Z</time></trkpt><trkpt lat="42.6852508" lon="12.0528388"><ele>522.3333333333334</ele><time>2026-04-30T11:05:25.987Z</time></trkpt><trkpt lat="42.6852577" lon="12.0525723"><ele>523.0</ele><time>2026-04-30T11:05:26.988Z</time></trkpt><trkpt lat="42.6852507" lon="12.0522966"><ele>523.6666666666667</ele><time>2026-04-30T11:05:27.987Z</time></trkpt><trkpt lat="42.6852272" lon="12.0520215"><ele>524.3333333333334</ele><time>2026-04-30T11:05:28.987Z</time></trkpt><trkpt lat="42.6851703" lon="12.051735"><ele>525.0</ele><time>2026-04-30T11:05:29.987Z</time></trkpt><trkpt lat="42.6851004" lon="12.0514728"><ele>526.0</ele><time>2026-04-30T11:05:30.988Z</time></trkpt><trkpt lat="42.6850114" lon="12.0512043"><ele>527.0</ele><time>2026-04-30T11:05:31.987Z</time></trkpt><trkpt lat="42.6849086" lon="12.0509418"><ele>528.0</ele><time>2026-04-30T11:05:32.987Z</time></trkpt><trkpt lat="42.6847843" lon="12.0506797"><ele>528.0</ele><time>2026-04-30T11:05:33.987Z</time></trkpt><trkpt lat="42.6846459" lon="12.0504212"><ele>528.0</ele><time>2026-04-30T11:05:34.988Z</time></trkpt><trkpt lat="42.6844954" lon="12.0501555"><ele>529.0</ele><time>2026-04-30T11:05:35.987Z</time></trkpt><trkpt lat="42.6843487" lon="12.049886"><ele>530.0</ele><time>2026-04-30T11:05:36.988Z</time></trkpt><trkpt lat="42.6842034" lon="12.0496146"><ele>530.0</ele><time>2026-04-30T11:05:37.988Z</time></trkpt><trkpt lat="42.6840535" lon="12.0493408"><ele>530.0</ele><time>2026-04-30T11:05:38.987Z</time></trkpt><trkpt lat="42.6839017" lon="12.0490664"><ele>529.5</ele><time>2026-04-30T11:05:39.988Z</time></trkpt><trkpt lat="42.6837521" lon="12.0488038"><ele>529.0</ele><time>2026-04-30T11:05:40.988Z</time></trkpt><trkpt lat="42.6836049" lon="12.0485458"><ele>532.0</ele><time>2026-04-30T11:05:41.987Z</time></trkpt><trkpt lat="42.6834718" lon="12.0482902"><ele>535.0</ele><time>2026-04-30T11:05:42.988Z</time></trkpt><trkpt lat="42.6833391" lon="12.0480382"><ele>535.0</ele><time>2026-04-30T11:05:43.987Z</time></trkpt><trkpt lat="42.6832112" lon="12.0477903"><ele>535.0</ele><time>2026-04-30T11:05:44.987Z</time></trkpt><trkpt lat="42.6830798" lon="12.0475557"><ele>535.0</ele><time>2026-04-30T11:05:45.987Z</time></trkpt><trkpt lat="42.6829314" lon="12.0473416"><ele>535.6666666666667</ele><time>2026-04-30T11:05:46.987Z</time></trkpt><trkpt lat="42.6827755" lon="12.0471488"><ele>536.3333333333334</ele><time>2026-04-30T11:05:47.987Z</time></trkpt><trkpt lat="42.6826102" lon="12.0469562"><ele>537.0</ele><time>2026-04-30T11:05:48.987Z</time></trkpt><trkpt lat="42.6824457" lon="12.0467744"><ele>535.6666666666666</ele><time>2026-04-30T11:05:49.987Z</time></trkpt><trkpt lat="42.6822792" lon="12.0465954"><ele>534.3333333333333</ele><time>2026-04-30T11:05:50.987Z</time></trkpt><trkpt lat="42.6821223" lon="12.0464147"><ele>533.0</ele><time>2026-04-30T11:05:51.987Z</time></trkpt><trkpt lat="42.6819639" lon="12.04623"><ele>534.3333333333333</ele><time>2026-04-30T11:05:52.987Z</time></trkpt><trkpt lat="42.6818061" lon="12.0460412"><ele>535.6666666666666</ele><time>2026-04-30T11:05:53.988Z</time></trkpt><trkpt lat="42.681645" lon="12.0458473"><ele>537.0</ele><time>2026-04-30T11:05:54.987Z</time></trkpt><trkpt lat="42.6814929" lon="12.0456488"><ele>537.0</ele><time>2026-04-30T11:05:55.987Z</time></trkpt><trkpt lat="42.681348" lon="12.045444"><ele>537.0</ele><time>2026-04-30T11:05:56.987Z</time></trkpt><trkpt lat="42.6812051" lon="12.0452352"><ele>537.0</ele><time>2026-04-30T11:05:57.987Z</time></trkpt><trkpt lat="42.6810675" lon="12.0450159"><ele>538.6666666666666</ele><time>2026-04-30T11:05:58.987Z</time></trkpt><trkpt lat="42.6809322" lon="12.0447938"><ele>540.3333333333333</ele><time>2026-04-30T11:05:59.988Z</time></trkpt><trkpt lat="42.6807936" lon="12.0445765"><ele>542.0</ele><time>2026-04-30T11:06:00.987Z</time></trkpt><trkpt lat="42.6806577" lon="12.0443643"><ele>542.0</ele><time>2026-04-30T11:06:01.988Z</time></trkpt><trkpt lat="42.6805189" lon="12.0441525"><ele>542.0</ele><time>2026-04-30T11:06:02.987Z</time></trkpt><trkpt lat="42.6803808" lon="12.0439377"><ele>542.0</ele><time>2026-04-30T11:06:03.987Z</time></trkpt><trkpt lat="42.6802438" lon="12.0437276"><ele>543.3333333333333</ele><time>2026-04-30T11:06:04.987Z</time></trkpt><trkpt lat="42.6801044" lon="12.0435126"><ele>544.6666666666666</ele><time>2026-04-30T11:06:05.987Z</time></trkpt><trkpt lat="42.6799639" lon="12.0432924"><ele>546.0</ele><time>2026-04-30T11:06:06.987Z</time></trkpt><trkpt lat="42.6798308" lon="12.0430662"><ele>546.0</ele><time>2026-04-30T11:06:07.987Z</time></trkpt><trkpt lat="42.6797019" lon="12.042822"><ele>546.0</ele><time>2026-04-30T11:06:08.987Z</time></trkpt><trkpt lat="42.6795862" lon="12.0425586"><ele>546.0</ele><time>2026-04-30T11:06:09.987Z</time></trkpt><trkpt lat="42.6794826" lon="12.0422829"><ele>548.0</ele><time>2026-04-30T11:06:10.988Z</time></trkpt><trkpt lat="42.6793981" lon="12.0419899"><ele>550.0</ele><time>2026-04-30T11:06:11.987Z</time></trkpt><trkpt lat="42.6793293" lon="12.041702"><ele>550.3333333333334</ele><time>2026-04-30T11:06:12.987Z</time></trkpt><trkpt lat="42.6792724" lon="12.04141"><ele>550.6666666666666</ele><time>2026-04-30T11:06:13.987Z</time></trkpt><trkpt lat="42.6792217" lon="12.0411167"><ele>551.0</ele><time>2026-04-30T11:06:14.987Z</time></trkpt><trkpt lat="42.6791728" lon="12.0408218"><ele>551.6666666666666</ele><time>2026-04-30T11:06:15.987Z</time></trkpt><trkpt lat="42.6791187" lon="12.0405332"><ele>552.3333333333334</ele><time>2026-04-30T11:06:16.987Z</time></trkpt><trkpt lat="42.6790608" lon="12.0402486"><ele>553.0</ele><time>2026-04-30T11:06:17.987Z</time></trkpt><trkpt lat="42.6789971" lon="12.0399717"><ele>552.6666666666667</ele><time>2026-04-30T11:06:18.987Z</time></trkpt><trkpt lat="42.6789383" lon="12.0396922"><ele>552.3333333333334</ele><time>2026-04-30T11:06:19.987Z</time></trkpt><trkpt lat="42.6788811" lon="12.0394137"><ele>552.0</ele><time>2026-04-30T11:06:20.987Z</time></trkpt><trkpt lat="42.6788232" lon="12.0391441"><ele>552.3333333333334</ele><time>2026-04-30T11:06:21.987Z</time></trkpt><trkpt lat="42.6787699" lon="12.0388763"><ele>552.6666666666667</ele><time>2026-04-30T11:06:22.987Z</time></trkpt><trkpt lat="42.6787372" lon="12.0386053"><ele>553.0</ele><time>2026-04-30T11:06:23.988Z</time></trkpt><trkpt lat="42.6787079" lon="12.0383532"><ele>554.0</ele><time>2026-04-30T11:06:24.987Z</time></trkpt><trkpt lat="42.6786918" lon="12.0381037"><ele>555.0</ele><time>2026-04-30T11:06:25.988Z</time></trkpt><trkpt lat="42.6786929" lon="12.0378383"><ele>556.0</ele><time>2026-04-30T11:06:26.987Z</time></trkpt><trkpt lat="42.6787068" lon="12.0375585"><ele>557.0</ele><time>2026-04-30T11:06:27.987Z</time></trkpt><trkpt lat="42.6787307" lon="12.0372648"><ele>558.0</ele><time>2026-04-30T11:06:28.988Z</time></trkpt><trkpt lat="42.6787651" lon="12.0369491"><ele>559.5</ele><time>2026-04-30T11:06:29.987Z</time></trkpt><trkpt lat="42.6788076" lon="12.0366124"><ele>561.0</ele><time>2026-04-30T11:06:30.987Z</time></trkpt><trkpt lat="42.6788536" lon="12.0362699"><ele>561.0</ele><time>2026-04-30T11:06:31.987Z</time></trkpt><trkpt lat="42.6789037" lon="12.0359319"><ele>561.0</ele><time>2026-04-30T11:06:32.987Z</time></trkpt><trkpt lat="42.6789573" lon="12.035599"><ele>563.0</ele><time>2026-04-30T11:06:33.987Z</time></trkpt><trkpt lat="42.6790071" lon="12.0352678"><ele>565.0</ele><time>2026-04-30T11:06:34.987Z</time></trkpt><trkpt lat="42.6790429" lon="12.034938"><ele>566.0</ele><time>2026-04-30T11:06:35.987Z</time></trkpt><trkpt lat="42.6790615" lon="12.0346116"><ele>567.0</ele><time>2026-04-30T11:06:36.988Z</time></trkpt><trkpt lat="42.6790538" lon="12.0342853"><ele>566.5</ele><time>2026-04-30T11:06:37.987Z</time></trkpt><trkpt lat="42.679016" lon="12.0339649"><ele>566.0</ele><time>2026-04-30T11:06:38.988Z</time></trkpt><trkpt lat="42.6789448" lon="12.0336623"><ele>566.0</ele><time>2026-04-30T11:06:39.987Z</time></trkpt><trkpt lat="42.6788365" lon="12.0333831"><ele>566.0</ele><time>2026-04-30T11:06:40.987Z</time></trkpt><trkpt lat="42.6786998" lon="12.0331286"><ele>568.5</ele><time>2026-04-30T11:06:41.987Z</time></trkpt><trkpt lat="42.6785308" lon="12.0329067"><ele>571.0</ele><time>2026-04-30T11:06:42.987Z</time></trkpt><trkpt lat="42.6783489" lon="12.0327368"><ele>571.0</ele><time>2026-04-30T11:06:43.988Z</time></trkpt><trkpt lat="42.6781796" lon="12.0326226"><ele>571.0</ele><time>2026-04-30T11:06:44.987Z</time></trkpt><trkpt lat="42.6780231" lon="12.0325457"><ele>571.0</ele><time>2026-04-30T11:06:45.987Z</time></trkpt><trkpt lat="42.6778833" lon="12.0324865"><ele>571.75</ele><time>2026-04-30T11:06:46.987Z</time></trkpt><trkpt lat="42.677755" lon="12.0324512"><ele>572.5</ele><time>2026-04-30T11:06:47.988Z</time></trkpt><trkpt lat="42.6776394" lon="12.0324249"><ele>573.25</ele><time>2026-04-30T11:06:48.987Z</time></trkpt><trkpt lat="42.6775298" lon="12.0323976"><ele>574.0</ele><time>2026-04-30T11:06:49.987Z</time></trkpt><trkpt lat="42.6774087" lon="12.0323523"><ele>574.0</ele><time>2026-04-30T11:06:50.987Z</time></trkpt><trkpt lat="42.6772747" lon="12.0322988"><ele>574.0</ele><time>2026-04-30T11:06:51.987Z</time></trkpt><trkpt lat="42.6771274" lon="12.0322506"><ele>574.0</ele><time>2026-04-30T11:06:52.988Z</time></trkpt><trkpt lat="42.6769738" lon="12.0322046"><ele>574.0</ele><time>2026-04-30T11:06:53.988Z</time></trkpt><trkpt lat="42.6768101" lon="12.0321572"><ele>575.3333333333334</ele><time>2026-04-30T11:06:54.987Z</time></trkpt><trkpt lat="42.6766381" lon="12.0321071"><ele>576.6666666666666</ele><time>2026-04-30T11:06:55.987Z</time></trkpt><trkpt lat="42.6764562" lon="12.0320543"><ele>578.0</ele><time>2026-04-30T11:06:56.987Z</time></trkpt><trkpt lat="42.6762646" lon="12.0319992"><ele>577.3333333333333</ele><time>2026-04-30T11:06:57.988Z</time></trkpt><trkpt lat="42.6760678" lon="12.0319401"><ele>576.6666666666666</ele><time>2026-04-30T11:06:58.988Z</time></trkpt><trkpt lat="42.6758641" lon="12.0318804"><ele>576.0</ele><time>2026-04-30T11:06:59.987Z</time></trkpt><trkpt lat="42.6756505" lon="12.0318342"><ele>576.0</ele><time>2026-04-30T11:07:00.988Z</time></trkpt><trkpt lat="42.6754315" lon="12.0318043"><ele>576.0</ele><time>2026-04-30T11:07:01.987Z</time></trkpt><trkpt lat="42.6752061" lon="12.0317845"><ele>576.0</ele><time>2026-04-30T11:07:02.988Z</time></trkpt><trkpt lat="42.6749709" lon="12.0317792"><ele>573.5</ele><time>2026-04-30T11:07:03.987Z</time></trkpt><trkpt lat="42.6747362" lon="12.0317905"><ele>571.0</ele><time>2026-04-30T11:07:04.988Z</time></trkpt><trkpt lat="42.6744965" lon="12.0318148"><ele>568.0</ele><time>2026-04-30T11:07:05.987Z</time></trkpt><trkpt lat="42.6742572" lon="12.0318444"><ele>565.0</ele><time>2026-04-30T11:07:06.988Z</time></trkpt><trkpt lat="42.6740194" lon="12.0318761"><ele>565.0</ele><time>2026-04-30T11:07:07.987Z</time></trkpt><trkpt lat="42.6737822" lon="12.0318986"><ele>565.0</ele><time>2026-04-30T11:07:08.987Z</time></trkpt><trkpt lat="42.6735417" lon="12.031909"><ele>563.5</ele><time>2026-04-30T11:07:09.987Z</time></trkpt><trkpt lat="42.6732999" lon="12.0319024"><ele>562.0</ele><time>2026-04-30T11:07:10.987Z</time></trkpt><trkpt lat="42.6730604" lon="12.0318778"><ele>562.0</ele><time>2026-04-30T11:07:11.987Z</time></trkpt><trkpt lat="42.6728179" lon="12.0318395"><ele>562.0</ele><time>2026-04-30T11:07:12.987Z</time></trkpt><trkpt lat="42.6725755" lon="12.0317911"><ele>561.0</ele><time>2026-04-30T11:07:13.987Z</time></trkpt><trkpt lat="42.6723272" lon="12.0317393"><ele>560.0</ele><time>2026-04-30T11:07:14.988Z</time></trkpt><trkpt lat="42.6720715" lon="12.0316878"><ele>558.5</ele><time>2026-04-30T11:07:15.987Z</time></trkpt><trkpt lat="42.6718144" lon="12.0316466"><ele>557.0</ele><time>2026-04-30T11:07:16.988Z</time></trkpt><trkpt lat="42.6715535" lon="12.0316372"><ele>557.0</ele><time>2026-04-30T11:07:17.988Z</time></trkpt><trkpt lat="42.6712988" lon="12.031655"><ele>557.0</ele><time>2026-04-30T11:07:18.987Z</time></trkpt><trkpt lat="42.6710478" lon="12.0317105"><ele>554.0</ele><time>2026-04-30T11:07:19.987Z</time></trkpt><trkpt lat="42.6707935" lon="12.031801"><ele>551.0</ele><time>2026-04-30T11:07:20.987Z</time></trkpt><trkpt lat="42.6705517" lon="12.0319188"><ele>551.0</ele><time>2026-04-30T11:07:21.987Z</time></trkpt><trkpt lat="42.6703142" lon="12.0320578"><ele>551.0</ele><time>2026-04-30T11:07:22.987Z</time></trkpt><trkpt lat="42.6700774" lon="12.0322076"><ele>551.0</ele><time>2026-04-30T11:07:23.987Z</time></trkpt><trkpt lat="42.6698345" lon="12.0323529"><ele>551.0</ele><time>2026-04-30T11:07:24.987Z</time></trkpt><trkpt lat="42.6695882" lon="12.0324854"><ele>549.0</ele><time>2026-04-30T11:07:25.988Z</time></trkpt><trkpt lat="42.6693355" lon="12.0325956"><ele>547.0</ele><time>2026-04-30T11:07:26.987Z</time></trkpt><trkpt lat="42.6690762" lon="12.0326852"><ele>547.0</ele><time>2026-04-30T11:07:27.987Z</time></trkpt><trkpt lat="42.66881" lon="12.0327507"><ele>547.0</ele><time>2026-04-30T11:07:28.988Z</time></trkpt><trkpt lat="42.668551" lon="12.0327877"><ele>545.0</ele><time>2026-04-30T11:07:29.988Z</time></trkpt><trkpt lat="42.6682902" lon="12.0327909"><ele>543.0</ele><time>2026-04-30T11:07:30.988Z</time></trkpt><trkpt lat="42.6680259" lon="12.0327588"><ele>539.0</ele><time>2026-04-30T11:07:31.987Z</time></trkpt><trkpt lat="42.6677555" lon="12.0327092"><ele>535.0</ele><time>2026-04-30T11:07:32.987Z</time></trkpt><trkpt lat="42.6674785" lon="12.0326458"><ele>535.0</ele><time>2026-04-30T11:07:33.987Z</time></trkpt><trkpt lat="42.6672043" lon="12.0325812"><ele>535.0</ele><time>2026-04-30T11:07:34.987Z</time></trkpt><trkpt lat="42.6669313" lon="12.0325253"><ele>535.0</ele><time>2026-04-30T11:07:35.987Z</time></trkpt><trkpt lat="42.6666585" lon="12.032469"><ele>535.0</ele><time>2026-04-30T11:07:36.987Z</time></trkpt><trkpt lat="42.6663949" lon="12.0324125"><ele>535.0</ele><time>2026-04-30T11:07:37.987Z</time></trkpt><trkpt lat="42.6661304" lon="12.0323604"><ele>535.0</ele><time>2026-04-30T11:07:38.987Z</time></trkpt><trkpt lat="42.6658698" lon="12.0323043"><ele>533.0</ele><time>2026-04-30T11:07:39.987Z</time></trkpt><trkpt lat="42.6656113" lon="12.0322524"><ele>531.0</ele><time>2026-04-30T11:07:40.987Z</time></trkpt><trkpt lat="42.6653514" lon="12.0321909"><ele>531.5</ele><time>2026-04-30T11:07:41.987Z</time></trkpt><trkpt lat="42.6650898" lon="12.0321433"><ele>532.0</ele><time>2026-04-30T11:07:42.987Z</time></trkpt><trkpt lat="42.6648297" lon="12.0320978"><ele>532.0</ele><time>2026-04-30T11:07:43.988Z</time></trkpt><trkpt lat="42.664574" lon="12.0320498"><ele>532.0</ele><time>2026-04-30T11:07:44.987Z</time></trkpt><trkpt lat="42.6643279" lon="12.0319956"><ele>535.5</ele><time>2026-04-30T11:07:45.987Z</time></trkpt><trkpt lat="42.6640808" lon="12.0319482"><ele>539.0</ele><time>2026-04-30T11:07:46.987Z</time></trkpt><trkpt lat="42.6638356" lon="12.031891"><ele>540.5</ele><time>2026-04-30T11:07:47.987Z</time></trkpt><trkpt lat="42.6635884" lon="12.0318384"><ele>542.0</ele><time>2026-04-30T11:07:48.987Z</time></trkpt><trkpt lat="42.6633459" lon="12.0317954"><ele>542.0</ele><time>2026-04-30T11:07:49.987Z</time></trkpt><trkpt lat="42.6631031" lon="12.0317524"><ele>542.0</ele><time>2026-04-30T11:07:50.987Z</time></trkpt><trkpt lat="42.6628629" lon="12.0317214"><ele>541.5</ele><time>2026-04-30T11:07:51.987Z</time></trkpt><trkpt lat="42.662627" lon="12.031679"><ele>541.0</ele><time>2026-04-30T11:07:52.987Z</time></trkpt><trkpt lat="42.662391" lon="12.0316463"><ele>543.0</ele><time>2026-04-30T11:07:53.988Z</time></trkpt><trkpt lat="42.6621535" lon="12.0316273"><ele>545.0</ele><time>2026-04-30T11:07:54.987Z</time></trkpt><trkpt lat="42.6619168" lon="12.0316187"><ele>548.0</ele><time>2026-04-30T11:07:55.987Z</time></trkpt><trkpt lat="42.6616825" lon="12.0316095"><ele>551.0</ele><time>2026-04-30T11:07:56.987Z</time></trkpt><trkpt lat="42.6614427" lon="12.0316036"><ele>551.0</ele><time>2026-04-30T11:07:57.988Z</time></trkpt><trkpt lat="42.6612036" lon="12.0316021"><ele>551.0</ele><time>2026-04-30T11:07:58.987Z</time></trkpt><trkpt lat="42.6609634" lon="12.0316056"><ele>551.5</ele><time>2026-04-30T11:07:59.988Z</time></trkpt><trkpt lat="42.6607201" lon="12.031609"><ele>552.0</ele><time>2026-04-30T11:08:00.988Z</time></trkpt><trkpt lat="42.6604721" lon="12.0316137"><ele>550.0</ele><time>2026-04-30T11:08:01.987Z</time></trkpt><trkpt lat="42.6602189" lon="12.0316223"><ele>548.0</ele><time>2026-04-30T11:08:02.987Z</time></trkpt><trkpt lat="42.6599582" lon="12.031626"><ele>548.0</ele><time>2026-04-30T11:08:03.987Z</time></trkpt><trkpt lat="42.6596896" lon="12.0316255"><ele>548.0</ele><time>2026-04-30T11:08:04.988Z</time></trkpt><trkpt lat="42.6594191" lon="12.0316304"><ele>546.0</ele><time>2026-04-30T11:08:05.987Z</time></trkpt><trkpt lat="42.6591545" lon="12.0316317"><ele>544.0</ele><time>2026-04-30T11:08:06.987Z</time></trkpt><trkpt lat="42.6588919" lon="12.031637"><ele>542.5</ele><time>2026-04-30T11:08:07.987Z</time></trkpt><trkpt lat="42.6586278" lon="12.0316409"><ele>541.0</ele><time>2026-04-30T11:08:08.987Z</time></trkpt><trkpt lat="42.6583646" lon="12.0316456"><ele>540.5</ele><time>2026-04-30T11:08:09.987Z</time></trkpt><trkpt lat="42.6580989" lon="12.0316482"><ele>540.0</ele><time>2026-04-30T11:08:10.987Z</time></trkpt><trkpt lat="42.6578328" lon="12.0316476"><ele>540.5</ele><time>2026-04-30T11:08:11.987Z</time></trkpt><trkpt lat="42.6575688" lon="12.0316487"><ele>541.0</ele><time>2026-04-30T11:08:12.988Z</time></trkpt><trkpt lat="42.6573067" lon="12.0316465"><ele>541.0</ele><time>2026-04-30T11:08:13.987Z</time></trkpt><trkpt lat="42.6570476" lon="12.0316407"><ele>541.0</ele><time>2026-04-30T11:08:14.987Z</time></trkpt><trkpt lat="42.6567881" lon="12.0316414"><ele>542.0</ele><time>2026-04-30T11:08:15.988Z</time></trkpt><trkpt lat="42.6565312" lon="12.0316416"><ele>543.0</ele><time>2026-04-30T11:08:16.987Z</time></trkpt><trkpt lat="42.6562772" lon="12.0316367"><ele>544.5</ele><time>2026-04-30T11:08:17.987Z</time></trkpt><trkpt lat="42.6560216" lon="12.0316217"><ele>546.0</ele><time>2026-04-30T11:08:18.987Z</time></trkpt><trkpt lat="42.6557642" lon="12.0315989"><ele>546.0</ele><time>2026-04-30T11:08:19.987Z</time></trkpt><trkpt lat="42.6555134" lon="12.0315701"><ele>546.0</ele><time>2026-04-30T11:08:20.988Z</time></trkpt><trkpt lat="42.6552584" lon="12.0315327"><ele>546.0</ele><time>2026-04-30T11:08:21.988Z</time></trkpt><trkpt lat="42.6550037" lon="12.0314942"><ele>546.0</ele><time>2026-04-30T11:08:22.987Z</time></trkpt><trkpt lat="42.6547523" lon="12.0314519"><ele>546.0</ele><time>2026-04-30T11:08:23.987Z</time></trkpt><trkpt lat="42.6544921" lon="12.0314088"><ele>546.0</ele><time>2026-04-30T11:08:24.987Z</time></trkpt><trkpt lat="42.6542369" lon="12.0313704"><ele>548.0</ele><time>2026-04-30T11:08:25.987Z</time></trkpt><trkpt lat="42.6539898" lon="12.0313288"><ele>550.0</ele><time>2026-04-30T11:08:26.987Z</time></trkpt><trkpt lat="42.6537416" lon="12.031285"><ele>551.5</ele><time>2026-04-30T11:08:27.987Z</time></trkpt><trkpt lat="42.6534982" lon="12.031238"><ele>553.0</ele><time>2026-04-30T11:08:28.988Z</time></trkpt><trkpt lat="42.6532651" lon="12.0311938"><ele>553.0</ele><time>2026-04-30T11:08:29.987Z</time></trkpt><trkpt lat="42.6530433" lon="12.0311493"><ele>553.0</ele><time>2026-04-30T11:08:30.987Z</time></trkpt><trkpt lat="42.6528364" lon="12.0311061"><ele>553.0</ele><time>2026-04-30T11:08:31.987Z</time></trkpt><trkpt lat="42.6526314" lon="12.0310702"><ele>555.0</ele><time>2026-04-30T11:08:32.988Z</time></trkpt><trkpt lat="42.6524252" lon="12.0310352"><ele>557.0</ele><time>2026-04-30T11:08:33.987Z</time></trkpt><trkpt lat="42.652204" lon="12.031008"><ele>559.0</ele><time>2026-04-30T11:08:34.987Z</time></trkpt><trkpt lat="42.6519536" lon="12.0309706"><ele>559.5</ele><time>2026-04-30T11:08:35.987Z</time></trkpt><trkpt lat="42.6516839" lon="12.030909"><ele>560.0</ele><time>2026-04-30T11:08:36.987Z</time></trkpt><trkpt lat="42.6514128" lon="12.0308384"><ele>563.0</ele><time>2026-04-30T11:08:37.987Z</time></trkpt><trkpt lat="42.6511493" lon="12.0307784"><ele>566.0</ele><time>2026-04-30T11:08:38.987Z</time></trkpt><trkpt lat="42.6508933" lon="12.030731"><ele>566.0</ele><time>2026-04-30T11:08:39.988Z</time></trkpt><trkpt lat="42.6506385" lon="12.030685"><ele>566.0</ele><time>2026-04-30T11:08:40.987Z</time></trkpt><trkpt lat="42.6503834" lon="12.0306496"><ele>563.5</ele><time>2026-04-30T11:08:41.987Z</time></trkpt><trkpt lat="42.6501215" lon="12.0306377"><ele>561.0</ele><time>2026-04-30T11:08:42.987Z</time></trkpt><trkpt lat="42.6498633" lon="12.0306454"><ele>561.0</ele><time>2026-04-30T11:08:43.987Z</time></trkpt><trkpt lat="42.6496138" lon="12.0306799"><ele>561.0</ele><time>2026-04-30T11:08:44.987Z</time></trkpt><trkpt lat="42.6493727" lon="12.0307383"><ele>558.0</ele><time>2026-04-30T11:08:45.987Z</time></trkpt><trkpt lat="42.6491294" lon="12.0308188"><ele>555.0</ele><time>2026-04-30T11:08:46.987Z</time></trkpt><trkpt lat="42.6488956" lon="12.0309185"><ele>555.0</ele><time>2026-04-30T11:08:47.987Z</time></trkpt><trkpt lat="42.6486594" lon="12.0310363"><ele>555.0</ele><time>2026-04-30T11:08:48.987Z</time></trkpt><trkpt lat="42.6484339" lon="12.031175"><ele>558.0</ele><time>2026-04-30T11:08:49.988Z</time></trkpt><trkpt lat="42.6482131" lon="12.0313326"><ele>561.0</ele><time>2026-04-30T11:08:50.987Z</time></trkpt><trkpt lat="42.6479992" lon="12.0315023"><ele>562.5</ele><time>2026-04-30T11:08:51.987Z</time></trkpt><trkpt lat="42.6477837" lon="12.0316714"><ele>564.0</ele><time>2026-04-30T11:08:52.987Z</time></trkpt><trkpt lat="42.6475666" lon="12.0318386"><ele>564.0</ele><time>2026-04-30T11:08:53.987Z</time></trkpt><trkpt lat="42.6473463" lon="12.0320041"><ele>564.0</ele><time>2026-04-30T11:08:54.987Z</time></trkpt><trkpt lat="42.6471257" lon="12.0321622"><ele>566.5</ele><time>2026-04-30T11:08:55.987Z</time></trkpt><trkpt lat="42.6469055" lon="12.0323131"><ele>569.0</ele><time>2026-04-30T11:08:56.988Z</time></trkpt><trkpt lat="42.6466876" lon="12.0324588"><ele>567.5</ele><time>2026-04-30T11:08:57.988Z</time></trkpt><trkpt lat="42.6464719" lon="12.032602"><ele>566.0</ele><time>2026-04-30T11:08:58.987Z</time></trkpt><trkpt lat="42.6462584" lon="12.0327439"><ele>566.5</ele><time>2026-04-30T11:08:59.987Z</time></trkpt><trkpt lat="42.6460472" lon="12.0328822"><ele>567.0</ele><time>2026-04-30T11:09:00.987Z</time></trkpt><trkpt lat="42.6458318" lon="12.0330214"><ele>567.0</ele><time>2026-04-30T11:09:01.987Z</time></trkpt><trkpt lat="42.6456187" lon="12.0331625"><ele>567.0</ele><time>2026-04-30T11:09:02.988Z</time></trkpt><trkpt lat="42.6454017" lon="12.0332946"><ele>568.5</ele><time>2026-04-30T11:09:03.987Z</time></trkpt><trkpt lat="42.6451893" lon="12.0334319"><ele>570.0</ele><time>2026-04-30T11:09:04.987Z</time></trkpt><trkpt lat="42.6449744" lon="12.0335629"><ele>570.0</ele><time>2026-04-30T11:09:05.988Z</time></trkpt><trkpt lat="42.6447636" lon="12.0336892"><ele>570.0</ele><time>2026-04-30T11:09:06.988Z</time></trkpt><trkpt lat="42.6445474" lon="12.0338045"><ele>571.5</ele><time>2026-04-30T11:09:07.987Z</time></trkpt><trkpt lat="42.644327" lon="12.0338984"><ele>573.0</ele><time>2026-04-30T11:09:08.987Z</time></trkpt><trkpt lat="42.6441017" lon="12.0339736"><ele>573.0</ele><time>2026-04-30T11:09:09.987Z</time></trkpt><trkpt lat="42.6438811" lon="12.0340271"><ele>573.0</ele><time>2026-04-30T11:09:10.988Z</time></trkpt><trkpt lat="42.6436636" lon="12.034079"><ele>573.0</ele><time>2026-04-30T11:09:11.988Z</time></trkpt><trkpt lat="42.6434456" lon="12.0341329"><ele>571.6666666666666</ele><time>2026-04-30T11:09:12.988Z</time></trkpt><trkpt lat="42.64323" lon="12.0341806"><ele>570.3333333333333</ele><time>2026-04-30T11:09:13.987Z</time></trkpt><trkpt lat="42.6430093" lon="12.0342372"><ele>569.0</ele><time>2026-04-30T11:09:14.987Z</time></trkpt><trkpt lat="42.6427882" lon="12.0342881"><ele>568.0</ele><time>2026-04-30T11:09:15.988Z</time></trkpt><trkpt lat="42.6425717" lon="12.0343349"><ele>567.0</ele><time>2026-04-30T11:09:16.987Z</time></trkpt><trkpt lat="42.6423528" lon="12.034397"><ele>566.0</ele><time>2026-04-30T11:09:17.987Z</time></trkpt><trkpt lat="42.6421388" lon="12.0344819"><ele>565.0</ele><time>2026-04-30T11:09:18.988Z</time></trkpt><trkpt lat="42.6419266" lon="12.0345958"><ele>564.0</ele><time>2026-04-30T11:09:19.988Z</time></trkpt><trkpt lat="42.6417196" lon="12.0347236"><ele>564.0</ele><time>2026-04-30T11:09:20.987Z</time></trkpt><trkpt lat="42.6415223" lon="12.0348685"><ele>564.0</ele><time>2026-04-30T11:09:21.987Z</time></trkpt><trkpt lat="42.641333" lon="12.0350338"><ele>564.0</ele><time>2026-04-30T11:09:22.987Z</time></trkpt><trkpt lat="42.6411512" lon="12.0352204"><ele>564.0</ele><time>2026-04-30T11:09:23.987Z</time></trkpt><trkpt lat="42.640974" lon="12.0354178"><ele>564.0</ele><time>2026-04-30T11:09:24.988Z</time></trkpt><trkpt lat="42.6407928" lon="12.035604"><ele>564.0</ele><time>2026-04-30T11:09:25.987Z</time></trkpt><trkpt lat="42.6405955" lon="12.035757"><ele>564.0</ele><time>2026-04-30T11:09:26.988Z</time></trkpt><trkpt lat="42.640385" lon="12.0358727"><ele>560.5</ele><time>2026-04-30T11:09:27.987Z</time></trkpt><trkpt lat="42.6401612" lon="12.0359506"><ele>557.0</ele><time>2026-04-30T11:09:28.987Z</time></trkpt><trkpt lat="42.6399354" lon="12.0359912"><ele>557.0</ele><time>2026-04-30T11:09:29.987Z</time></trkpt><trkpt lat="42.639705" lon="12.0360122"><ele>557.0</ele><time>2026-04-30T11:09:30.988Z</time></trkpt><trkpt lat="42.6394753" lon="12.0360229"><ele>556.0</ele><time>2026-04-30T11:09:31.987Z</time></trkpt><trkpt lat="42.639244" lon="12.0360242"><ele>555.0</ele><time>2026-04-30T11:09:32.987Z</time></trkpt><trkpt lat="42.63901" lon="12.0360209"><ele>555.0</ele><time>2026-04-30T11:09:33.987Z</time></trkpt><trkpt lat="42.6387811" lon="12.0360395"><ele>555.0</ele><time>2026-04-30T11:09:34.987Z</time></trkpt><trkpt lat="42.6385462" lon="12.0360674"><ele>554.0</ele><time>2026-04-30T11:09:35.987Z</time></trkpt><trkpt lat="42.6383101" lon="12.0360912"><ele>553.0</ele><time>2026-04-30T11:09:36.988Z</time></trkpt><trkpt lat="42.6380739" lon="12.0361188"><ele>553.0</ele><time>2026-04-30T11:09:37.987Z</time></trkpt><trkpt lat="42.6378296" lon="12.0361407"><ele>553.0</ele><time>2026-04-30T11:09:38.987Z</time></trkpt><trkpt lat="42.6375859" lon="12.0361588"><ele>550.0</ele><time>2026-04-30T11:09:39.987Z</time></trkpt><trkpt lat="42.637345" lon="12.0361695"><ele>547.0</ele><time>2026-04-30T11:09:40.988Z</time></trkpt><trkpt lat="42.6371048" lon="12.0361755"><ele>548.0</ele><time>2026-04-30T11:09:41.987Z</time></trkpt><trkpt lat="42.636859" lon="12.0361819"><ele>549.0</ele><time>2026-04-30T11:09:42.987Z</time></trkpt><trkpt lat="42.6366152" lon="12.0361945"><ele>549.0</ele><time>2026-04-30T11:09:43.987Z</time></trkpt><trkpt lat="42.6363744" lon="12.036214"><ele>549.0</ele><time>2026-04-30T11:09:44.987Z</time></trkpt><trkpt lat="42.6361305" lon="12.0362452"><ele>549.5</ele><time>2026-04-30T11:09:45.987Z</time></trkpt><trkpt lat="42.6358944" lon="12.036282"><ele>550.0</ele><time>2026-04-30T11:09:46.987Z</time></trkpt><trkpt lat="42.6356569" lon="12.036324"><ele>550.0</ele><time>2026-04-30T11:09:47.987Z</time></trkpt><trkpt lat="42.63542" lon="12.0363719"><ele>550.0</ele><time>2026-04-30T11:09:48.987Z</time></trkpt><trkpt lat="42.6351839" lon="12.0364151"><ele>548.6666666666667</ele><time>2026-04-30T11:09:49.987Z</time></trkpt><trkpt lat="42.6349548" lon="12.03645"><ele>547.3333333333334</ele><time>2026-04-30T11:09:50.987Z</time></trkpt><trkpt lat="42.6347375" lon="12.0364794"><ele>546.0</ele><time>2026-04-30T11:09:51.987Z</time></trkpt><trkpt lat="42.6345242" lon="12.036505"><ele>543.6666666666666</ele><time>2026-04-30T11:09:52.988Z</time></trkpt><trkpt lat="42.6343126" lon="12.0365189"><ele>541.3333333333333</ele><time>2026-04-30T11:09:53.988Z</time></trkpt><trkpt lat="42.6341" lon="12.0365088"><ele>539.0</ele><time>2026-04-30T11:09:54.987Z</time></trkpt><trkpt lat="42.6338894" lon="12.0364756"><ele>539.0</ele><time>2026-04-30T11:09:55.987Z</time></trkpt><trkpt lat="42.6336735" lon="12.0364345"><ele>539.0</ele><time>2026-04-30T11:09:56.987Z</time></trkpt><trkpt lat="42.6334609" lon="12.0363839"><ele>539.0</ele><time>2026-04-30T11:09:57.987Z</time></trkpt><trkpt lat="42.6332457" lon="12.0363273"><ele>536.6666666666666</ele><time>2026-04-30T11:09:58.987Z</time></trkpt><trkpt lat="42.6330332" lon="12.0362657"><ele>534.3333333333334</ele><time>2026-04-30T11:09:59.988Z</time></trkpt><trkpt lat="42.6328186" lon="12.0361986"><ele>532.0</ele><time>2026-04-30T11:10:00.987Z</time></trkpt><trkpt lat="42.6326061" lon="12.0361185"><ele>531.3333333333334</ele><time>2026-04-30T11:10:01.987Z</time></trkpt><trkpt lat="42.632398" lon="12.0360313"><ele>530.6666666666666</ele><time>2026-04-30T11:10:02.987Z</time></trkpt><trkpt lat="42.6321879" lon="12.0359306"><ele>530.0</ele><time>2026-04-30T11:10:03.987Z</time></trkpt><trkpt lat="42.6319846" lon="12.0358163"><ele>529.0</ele><time>2026-04-30T11:10:04.987Z</time></trkpt><trkpt lat="42.6317816" lon="12.0357036"><ele>528.0</ele><time>2026-04-30T11:10:05.987Z</time></trkpt><trkpt lat="42.6315771" lon="12.0356026"><ele>527.0</ele><time>2026-04-30T11:10:06.987Z</time></trkpt><trkpt lat="42.6313695" lon="12.0355209"><ele>527.0</ele><time>2026-04-30T11:10:07.987Z</time></trkpt><trkpt lat="42.6311619" lon="12.0354681"><ele>527.0</ele><time>2026-04-30T11:10:08.987Z</time></trkpt><trkpt lat="42.6309451" lon="12.0354523"><ele>527.0</ele><time>2026-04-30T11:10:09.988Z</time></trkpt><trkpt lat="42.6307369" lon="12.0354643"><ele>526.0</ele><time>2026-04-30T11:10:10.987Z</time></trkpt><trkpt lat="42.6305405" lon="12.0355003"><ele>525.0</ele><time>2026-04-30T11:10:11.988Z</time></trkpt><trkpt lat="42.6303584" lon="12.0355613"><ele>524.0</ele><time>2026-04-30T11:10:12.988Z</time></trkpt><trkpt lat="42.6301899" lon="12.0356471"><ele>523.0</ele><time>2026-04-30T11:10:13.987Z</time></trkpt><trkpt lat="42.6300254" lon="12.0357383"><ele>522.0</ele><time>2026-04-30T11:10:14.987Z</time></trkpt><trkpt lat="42.6298635" lon="12.035824"><ele>521.0</ele><time>2026-04-30T11:10:15.987Z</time></trkpt><trkpt lat="42.6297064" lon="12.035918"><ele>522.3333333333333</ele><time>2026-04-30T11:10:16.987Z</time></trkpt><trkpt lat="42.6295477" lon="12.0360009"><ele>523.6666666666666</ele><time>2026-04-30T11:10:17.988Z</time></trkpt><trkpt lat="42.6293868" lon="12.036057"><ele>525.0</ele><time>2026-04-30T11:10:18.987Z</time></trkpt><trkpt lat="42.6292232" lon="12.0360867"><ele>525.0</ele><time>2026-04-30T11:10:19.987Z</time></trkpt><trkpt lat="42.6290526" lon="12.0360991"><ele>525.0</ele><time>2026-04-30T11:10:20.987Z</time></trkpt><trkpt lat="42.6288794" lon="12.0361033"><ele>525.0</ele><time>2026-04-30T11:10:21.987Z</time></trkpt><trkpt lat="42.6287073" lon="12.0361201"><ele>524.3333333333334</ele><time>2026-04-30T11:10:22.987Z</time></trkpt><trkpt lat="42.6285382" lon="12.0361358"><ele>523.6666666666667</ele><time>2026-04-30T11:10:23.987Z</time></trkpt><trkpt lat="42.6283717" lon="12.0361575"><ele>523.0</ele><time>2026-04-30T11:10:24.988Z</time></trkpt><trkpt lat="42.6282093" lon="12.0361768"><ele>523.0</ele><time>2026-04-30T11:10:25.987Z</time></trkpt><trkpt lat="42.6280451" lon="12.0361847"><ele>523.0</ele><time>2026-04-30T11:10:26.987Z</time></trkpt><trkpt lat="42.6278784" lon="12.0361989"><ele>523.0</ele><time>2026-04-30T11:10:27.987Z</time></trkpt><trkpt lat="42.6277096" lon="12.0362066"><ele>522.0</ele><time>2026-04-30T11:10:28.987Z</time></trkpt><trkpt lat="42.6275303" lon="12.0362184"><ele>521.0</ele><time>2026-04-30T11:10:29.987Z</time></trkpt><trkpt lat="42.6273429" lon="12.0362291"><ele>520.0</ele><time>2026-04-30T11:10:30.988Z</time></trkpt><trkpt lat="42.6271482" lon="12.0362373"><ele>519.6666666666667</ele><time>2026-04-30T11:10:31.988Z</time></trkpt><trkpt lat="42.6269506" lon="12.0362391"><ele>519.3333333333334</ele><time>2026-04-30T11:10:32.988Z</time></trkpt><trkpt lat="42.6267464" lon="12.0362215"><ele>519.0</ele><time>2026-04-30T11:10:33.987Z</time></trkpt><trkpt lat="42.6265426" lon="12.0361854"><ele>519.0</ele><time>2026-04-30T11:10:34.988Z</time></trkpt><trkpt lat="42.6263331" lon="12.0361486"><ele>519.0</ele><time>2026-04-30T11:10:35.988Z</time></trkpt><trkpt lat="42.626116" lon="12.0361246"><ele>519.0</ele><time>2026-04-30T11:10:36.988Z</time></trkpt><trkpt lat="42.6258974" lon="12.0361208"><ele>519.3333333333334</ele><time>2026-04-30T11:10:37.987Z</time></trkpt><trkpt lat="42.625682" lon="12.0361342"><ele>519.6666666666667</ele><time>2026-04-30T11:10:38.988Z</time></trkpt><trkpt lat="42.6254602" lon="12.0361493"><ele>520.0</ele><time>2026-04-30T11:10:39.987Z</time></trkpt><trkpt lat="42.6252393" lon="12.036165"><ele>521.0</ele><time>2026-04-30T11:10:40.987Z</time></trkpt><trkpt lat="42.6250177" lon="12.0361905"><ele>522.0</ele><time>2026-04-30T11:10:41.987Z</time></trkpt><trkpt lat="42.6247921" lon="12.0362219"><ele>523.0</ele><time>2026-04-30T11:10:42.987Z</time></trkpt><trkpt lat="42.62457" lon="12.0362718"><ele>522.5</ele><time>2026-04-30T11:10:43.987Z</time></trkpt><trkpt lat="42.624349" lon="12.0363271"><ele>522.0</ele><time>2026-04-30T11:10:44.987Z</time></trkpt><trkpt lat="42.6241272" lon="12.0363853"><ele>522.0</ele><time>2026-04-30T11:10:45.988Z</time></trkpt><trkpt lat="42.6239004" lon="12.0364471"><ele>522.0</ele><time>2026-04-30T11:10:46.988Z</time></trkpt><trkpt lat="42.6236673" lon="12.0365068"><ele>523.0</ele><time>2026-04-30T11:10:47.988Z</time></trkpt><trkpt lat="42.6234411" lon="12.0365652"><ele>524.0</ele><time>2026-04-30T11:10:48.987Z</time></trkpt><trkpt lat="42.6232168" lon="12.0366181"><ele>523.3333333333333</ele><time>2026-04-30T11:10:49.987Z</time></trkpt><trkpt lat="42.6229956" lon="12.0366781"><ele>522.6666666666666</ele><time>2026-04-30T11:10:50.987Z</time></trkpt><trkpt lat="42.6227876" lon="12.0367343"><ele>522.0</ele><time>2026-04-30T11:10:51.987Z</time></trkpt><trkpt lat="42.622583" lon="12.0367868"><ele>523.3333333333334</ele><time>2026-04-30T11:10:52.987Z</time></trkpt><trkpt lat="42.6223818" lon="12.036834"><ele>524.6666666666667</ele><time>2026-04-30T11:10:53.987Z</time></trkpt><trkpt lat="42.6221781" lon="12.0368847"><ele>526.0</ele><time>2026-04-30T11:10:54.988Z</time></trkpt><trkpt lat="42.6219682" lon="12.036933"><ele>528.5</ele><time>2026-04-30T11:10:55.987Z</time></trkpt><trkpt lat="42.6217468" lon="12.0369812"><ele>531.0</ele><time>2026-04-30T11:10:56.987Z</time></trkpt><trkpt lat="42.621521" lon="12.0370295"><ele>531.0</ele><time>2026-04-30T11:10:57.988Z</time></trkpt><trkpt lat="42.6212952" lon="12.037079"><ele>531.0</ele><time>2026-04-30T11:10:58.988Z</time></trkpt><trkpt lat="42.6210682" lon="12.0371292"><ele>532.5</ele><time>2026-04-30T11:10:59.987Z</time></trkpt><trkpt lat="42.6208384" lon="12.0371731"><ele>534.0</ele><time>2026-04-30T11:11:00.987Z</time></trkpt><trkpt lat="42.6206153" lon="12.0372182"><ele>534.0</ele><time>2026-04-30T11:11:01.987Z</time></trkpt><trkpt lat="42.620397" lon="12.0372655"><ele>534.0</ele><time>2026-04-30T11:11:02.988Z</time></trkpt><trkpt lat="42.6201807" lon="12.0373109"><ele>534.0</ele><time>2026-04-30T11:11:03.987Z</time></trkpt><trkpt lat="42.6199667" lon="12.0373587"><ele>534.0</ele><time>2026-04-30T11:11:04.988Z</time></trkpt><trkpt lat="42.6197522" lon="12.037408"><ele>534.0</ele><time>2026-04-30T11:11:05.987Z</time></trkpt><trkpt lat="42.6195346" lon="12.0374553"><ele>534.0</ele><time>2026-04-30T11:11:06.987Z</time></trkpt><trkpt lat="42.6193268" lon="12.0374996"><ele>533.6666666666666</ele><time>2026-04-30T11:11:07.987Z</time></trkpt><trkpt lat="42.61912" lon="12.0375404"><ele>533.3333333333333</ele><time>2026-04-30T11:11:08.988Z</time></trkpt><trkpt lat="42.6189123" lon="12.037578"><ele>533.0</ele><time>2026-04-30T11:11:09.987Z</time></trkpt><trkpt lat="42.618702" lon="12.0376289"><ele>533.0</ele><time>2026-04-30T11:11:10.987Z</time></trkpt><trkpt lat="42.6184855" lon="12.037676"><ele>533.0</ele><time>2026-04-30T11:11:11.987Z</time></trkpt><trkpt lat="42.6182673" lon="12.0377278"><ele>533.0</ele><time>2026-04-30T11:11:12.988Z</time></trkpt><trkpt lat="42.6180537" lon="12.0377703"><ele>533.0</ele><time>2026-04-30T11:11:13.987Z</time></trkpt><trkpt lat="42.6178329" lon="12.0378169"><ele>533.0</ele><time>2026-04-30T11:11:14.988Z</time></trkpt><trkpt lat="42.6176116" lon="12.0378651"><ele>533.0</ele><time>2026-04-30T11:11:15.987Z</time></trkpt><trkpt lat="42.6173909" lon="12.0379051"><ele>533.3333333333333</ele><time>2026-04-30T11:11:16.987Z</time></trkpt><trkpt lat="42.6171736" lon="12.0379485"><ele>533.6666666666666</ele><time>2026-04-30T11:11:17.987Z</time></trkpt><trkpt lat="42.6169579" lon="12.0379919"><ele>534.0</ele><time>2026-04-30T11:11:18.987Z</time></trkpt><trkpt lat="42.6167416" lon="12.0380398"><ele>535.0</ele><time>2026-04-30T11:11:19.988Z</time></trkpt><trkpt lat="42.6165223" lon="12.038094"><ele>536.0</ele><time>2026-04-30T11:11:20.987Z</time></trkpt><trkpt lat="42.6163072" lon="12.0381454"><ele>537.0</ele><time>2026-04-30T11:11:21.987Z</time></trkpt><trkpt lat="42.6160905" lon="12.038191"><ele>536.3333333333334</ele><time>2026-04-30T11:11:22.988Z</time></trkpt><trkpt lat="42.6158693" lon="12.0382336"><ele>535.6666666666667</ele><time>2026-04-30T11:11:23.987Z</time></trkpt><trkpt lat="42.6156551" lon="12.0382799"><ele>535.0</ele><time>2026-04-30T11:11:24.987Z</time></trkpt><trkpt lat="42.6154431" lon="12.0383274"><ele>535.3333333333334</ele><time>2026-04-30T11:11:25.987Z</time></trkpt><trkpt lat="42.6152303" lon="12.0383676"><ele>535.6666666666666</ele><time>2026-04-30T11:11:26.987Z</time></trkpt><trkpt lat="42.6150164" lon="12.0384122"><ele>536.0</ele><time>2026-04-30T11:11:27.988Z</time></trkpt><trkpt lat="42.6148015" lon="12.038466"><ele>536.0</ele><time>2026-04-30T11:11:28.988Z</time></trkpt><trkpt lat="42.6145899" lon="12.0385413"><ele>536.0</ele><time>2026-04-30T11:11:29.988Z</time></trkpt><trkpt lat="42.6143813" lon="12.0386501"><ele>536.0</ele><time>2026-04-30T11:11:30.987Z</time></trkpt><trkpt lat="42.6141637" lon="12.0387931"><ele>536.0</ele><time>2026-04-30T11:11:31.987Z</time></trkpt><trkpt lat="42.6139402" lon="12.0389526"><ele>536.0</ele><time>2026-04-30T11:11:32.987Z</time></trkpt><trkpt lat="42.6137015" lon="12.0391186"><ele>536.0</ele><time>2026-04-30T11:11:33.988Z</time></trkpt><trkpt lat="42.6134688" lon="12.0392763"><ele>536.0</ele><time>2026-04-30T11:11:34.987Z</time></trkpt><trkpt lat="42.613227" lon="12.0394263"><ele>536.0</ele><time>2026-04-30T11:11:35.988Z</time></trkpt><trkpt lat="42.6129845" lon="12.0395763"><ele>536.0</ele><time>2026-04-30T11:11:36.987Z</time></trkpt><trkpt lat="42.6127462" lon="12.0397274"><ele>536.5</ele><time>2026-04-30T11:11:37.987Z</time></trkpt><trkpt lat="42.6125089" lon="12.0398811"><ele>537.0</ele><time>2026-04-30T11:11:38.988Z</time></trkpt><trkpt lat="42.612273" lon="12.0400352"><ele>538.0</ele><time>2026-04-30T11:11:39.987Z</time></trkpt><trkpt lat="42.6120454" lon="12.0401859"><ele>539.0</ele><time>2026-04-30T11:11:40.988Z</time></trkpt><trkpt lat="42.611822" lon="12.0403273"><ele>540.0</ele><time>2026-04-30T11:11:41.987Z</time></trkpt><trkpt lat="42.6116073" lon="12.0404734"><ele>541.0</ele><time>2026-04-30T11:11:42.988Z</time></trkpt><trkpt lat="42.6113984" lon="12.0406121"><ele>541.0</ele><time>2026-04-30T11:11:43.987Z</time></trkpt><trkpt lat="42.6111984" lon="12.0407491"><ele>541.0</ele><time>2026-04-30T11:11:44.987Z</time></trkpt><trkpt lat="42.6110145" lon="12.040882"><ele>541.0</ele><time>2026-04-30T11:11:45.988Z</time></trkpt><trkpt lat="42.6108383" lon="12.0410175"><ele>543.6666666666667</ele><time>2026-04-30T11:11:46.987Z</time></trkpt><trkpt lat="42.610662" lon="12.0411559"><ele>546.3333333333334</ele><time>2026-04-30T11:11:47.988Z</time></trkpt><trkpt lat="42.61049" lon="12.0412949"><ele>549.0</ele><time>2026-04-30T11:11:48.987Z</time></trkpt><trkpt lat="42.6103245" lon="12.0414363"><ele>550.0</ele><time>2026-04-30T11:11:49.987Z</time></trkpt><trkpt lat="42.6101608" lon="12.0415685"><ele>551.0</ele><time>2026-04-30T11:11:50.987Z</time></trkpt><trkpt lat="42.6099894" lon="12.0416716"><ele>552.0</ele><time>2026-04-30T11:11:51.988Z</time></trkpt><trkpt lat="42.609796" lon="12.0417386"><ele>552.3333333333334</ele><time>2026-04-30T11:11:52.988Z</time></trkpt><trkpt lat="42.6096073" lon="12.0417887"><ele>552.6666666666667</ele><time>2026-04-30T11:11:53.987Z</time></trkpt><trkpt lat="42.6094053" lon="12.0418226"><ele>553.0</ele><time>2026-04-30T11:11:54.988Z</time></trkpt><trkpt lat="42.6091987" lon="12.0418365"><ele>552.3333333333334</ele><time>2026-04-30T11:11:55.988Z</time></trkpt><trkpt lat="42.6089944" lon="12.041819"><ele>551.6666666666666</ele><time>2026-04-30T11:11:56.987Z</time></trkpt><trkpt lat="42.6087887" lon="12.0417776"><ele>551.0</ele><time>2026-04-30T11:11:57.987Z</time></trkpt><trkpt lat="42.6085817" lon="12.041723"><ele>551.3333333333333</ele><time>2026-04-30T11:11:58.987Z</time></trkpt><trkpt lat="42.6083718" lon="12.0416563"><ele>551.6666666666666</ele><time>2026-04-30T11:11:59.987Z</time></trkpt><trkpt lat="42.6081586" lon="12.0415794"><ele>552.0</ele><time>2026-04-30T11:12:00.987Z</time></trkpt><trkpt lat="42.6079459" lon="12.0414972"><ele>550.0</ele><time>2026-04-30T11:12:01.987Z</time></trkpt><trkpt lat="42.6077271" lon="12.0414133"><ele>548.0</ele><time>2026-04-30T11:12:02.988Z</time></trkpt><trkpt lat="42.6075026" lon="12.0413448"><ele>548.0</ele><time>2026-04-30T11:12:03.987Z</time></trkpt><trkpt lat="42.6072718" lon="12.0412897"><ele>548.0</ele><time>2026-04-30T11:12:04.988Z</time></trkpt><trkpt lat="42.607038" lon="12.0412423"><ele>545.0</ele><time>2026-04-30T11:12:05.987Z</time></trkpt><trkpt lat="42.6067981" lon="12.0412104"><ele>542.0</ele><time>2026-04-30T11:12:06.987Z</time></trkpt><trkpt lat="42.6065471" lon="12.0411947"><ele>542.0</ele><time>2026-04-30T11:12:07.987Z</time></trkpt><trkpt lat="42.6062971" lon="12.0411829"><ele>542.0</ele><time>2026-04-30T11:12:08.987Z</time></trkpt><trkpt lat="42.6060462" lon="12.0411766"><ele>538.5</ele><time>2026-04-30T11:12:09.987Z</time></trkpt><trkpt lat="42.6057929" lon="12.0411731"><ele>535.0</ele><time>2026-04-30T11:12:10.987Z</time></trkpt><trkpt lat="42.6055379" lon="12.0411773"><ele>533.5</ele><time>2026-04-30T11:12:11.987Z</time></trkpt><trkpt lat="42.6052833" lon="12.0411837"><ele>532.0</ele><time>2026-04-30T11:12:12.987Z</time></trkpt><trkpt lat="42.6050346" lon="12.0411939"><ele>532.0</ele><time>2026-04-30T11:12:13.987Z</time></trkpt><trkpt lat="42.6047957" lon="12.0412015"><ele>532.0</ele><time>2026-04-30T11:12:14.987Z</time></trkpt><trkpt lat="42.6045537" lon="12.0412108"><ele>531.5</ele><time>2026-04-30T11:12:15.987Z</time></trkpt><trkpt lat="42.6043154" lon="12.0412194"><ele>531.0</ele><time>2026-04-30T11:12:16.987Z</time></trkpt><trkpt lat="42.6040723" lon="12.0412252"><ele>531.0</ele><time>2026-04-30T11:12:17.987Z</time></trkpt><trkpt lat="42.6038231" lon="12.0412304"><ele>531.0</ele><time>2026-04-30T11:12:18.988Z</time></trkpt><trkpt lat="42.6035882" lon="12.0412332"><ele>530.0</ele><time>2026-04-30T11:12:19.987Z</time></trkpt><trkpt lat="42.6033522" lon="12.041234"><ele>529.0</ele><time>2026-04-30T11:12:20.987Z</time></trkpt><trkpt lat="42.6031157" lon="12.0412475"><ele>529.0</ele><time>2026-04-30T11:12:21.987Z</time></trkpt><trkpt lat="42.6028775" lon="12.0412533"><ele>529.0</ele><time>2026-04-30T11:12:22.987Z</time></trkpt><trkpt lat="42.6026266" lon="12.0412516"><ele>526.5</ele><time>2026-04-30T11:12:23.987Z</time></trkpt><trkpt lat="42.6023832" lon="12.0412485"><ele>524.0</ele><time>2026-04-30T11:12:24.988Z</time></trkpt><trkpt lat="42.6021374" lon="12.041256"><ele>524.0</ele><time>2026-04-30T11:12:25.988Z</time></trkpt><trkpt lat="42.6018935" lon="12.0412569"><ele>524.0</ele><time>2026-04-30T11:12:26.987Z</time></trkpt><trkpt lat="42.6016516" lon="12.0412631"><ele>524.0</ele><time>2026-04-30T11:12:27.987Z</time></trkpt><trkpt lat="42.6014178" lon="12.0412697"><ele>524.0</ele><time>2026-04-30T11:12:28.987Z</time></trkpt><trkpt lat="42.6011837" lon="12.0412738"><ele>523.5</ele><time>2026-04-30T11:12:29.988Z</time></trkpt><trkpt lat="42.6009467" lon="12.041275"><ele>523.0</ele><time>2026-04-30T11:12:30.988Z</time></trkpt><trkpt lat="42.6007064" lon="12.0412742"><ele>523.0</ele><time>2026-04-30T11:12:31.987Z</time></trkpt><trkpt lat="42.6004702" lon="12.0412777"><ele>523.0</ele><time>2026-04-30T11:12:32.987Z</time></trkpt><trkpt lat="42.6002377" lon="12.0412859"><ele>522.0</ele><time>2026-04-30T11:12:33.988Z</time></trkpt><trkpt lat="42.6000024" lon="12.0412968"><ele>521.0</ele><time>2026-04-30T11:12:34.987Z</time></trkpt><trkpt lat="42.5997708" lon="12.0413046"><ele>521.0</ele><time>2026-04-30T11:12:35.988Z</time></trkpt><trkpt lat="42.5995356" lon="12.041319"><ele>521.0</ele><time>2026-04-30T11:12:36.987Z</time></trkpt><trkpt lat="42.5993058" lon="12.0413339"><ele>521.0</ele><time>2026-04-30T11:12:37.987Z</time></trkpt><trkpt lat="42.5990797" lon="12.0413489"><ele>521.0</ele><time>2026-04-30T11:12:38.987Z</time></trkpt><trkpt lat="42.5988498" lon="12.0413557"><ele>520.5</ele><time>2026-04-30T11:12:39.987Z</time></trkpt><trkpt lat="42.5986228" lon="12.0413695"><ele>520.0</ele><time>2026-04-30T11:12:40.987Z</time></trkpt><trkpt lat="42.5983976" lon="12.0413879"><ele>520.0</ele><time>2026-04-30T11:12:41.987Z</time></trkpt><trkpt lat="42.598165" lon="12.0414136"><ele>520.0</ele><time>2026-04-30T11:12:42.987Z</time></trkpt><trkpt lat="42.5979317" lon="12.04144"><ele>521.0</ele><time>2026-04-30T11:12:43.987Z</time></trkpt><trkpt lat="42.5976983" lon="12.0414668"><ele>522.0</ele><time>2026-04-30T11:12:44.987Z</time></trkpt><trkpt lat="42.5974658" lon="12.0414948"><ele>522.0</ele><time>2026-04-30T11:12:45.987Z</time></trkpt><trkpt lat="42.5972331" lon="12.0415216"><ele>522.0</ele><time>2026-04-30T11:12:46.987Z</time></trkpt><trkpt lat="42.5969947" lon="12.0415397"><ele>519.5</ele><time>2026-04-30T11:12:47.987Z</time></trkpt><trkpt lat="42.5967545" lon="12.0415455"><ele>517.0</ele><time>2026-04-30T11:12:48.987Z</time></trkpt><trkpt lat="42.5965123" lon="12.0415412"><ele>512.0</ele><time>2026-04-30T11:12:49.987Z</time></trkpt><trkpt lat="42.5960233" lon="12.0415291"><ele>512.0</ele><time>2026-04-30T11:12:51.987Z</time></trkpt><trkpt lat="42.5957734" lon="12.0415289"><ele>512.0</ele><time>2026-04-30T11:12:52.987Z</time></trkpt><trkpt lat="42.5955234" lon="12.0415337"><ele>510.0</ele><time>2026-04-30T11:12:53.987Z</time></trkpt><trkpt lat="42.5952799" lon="12.0415477"><ele>508.0</ele><time>2026-04-30T11:12:54.987Z</time></trkpt><trkpt lat="42.5950343" lon="12.0415725"><ele>508.0</ele><time>2026-04-30T11:12:55.988Z</time></trkpt><trkpt lat="42.5947943" lon="12.0415941"><ele>508.0</ele><time>2026-04-30T11:12:56.987Z</time></trkpt><trkpt lat="42.59455" lon="12.0416195"><ele>508.0</ele><time>2026-04-30T11:12:57.988Z</time></trkpt><trkpt lat="42.5943086" lon="12.0416495"><ele>508.0</ele><time>2026-04-30T11:12:58.987Z</time></trkpt><trkpt lat="42.5940737" lon="12.0416806"><ele>508.0</ele><time>2026-04-30T11:12:59.987Z</time></trkpt><trkpt lat="42.5938438" lon="12.0417098"><ele>508.0</ele><time>2026-04-30T11:13:00.987Z</time></trkpt><trkpt lat="42.5936066" lon="12.0417331"><ele>507.5</ele><time>2026-04-30T11:13:01.987Z</time></trkpt><trkpt lat="42.593378" lon="12.0417421"><ele>507.0</ele><time>2026-04-30T11:13:02.987Z</time></trkpt><trkpt lat="42.5931421" lon="12.0417465"><ele>507.0</ele><time>2026-04-30T11:13:03.987Z</time></trkpt><trkpt lat="42.5929017" lon="12.0417519"><ele>507.0</ele><time>2026-04-30T11:13:04.987Z</time></trkpt><trkpt lat="42.592665" lon="12.0417434"><ele>506.0</ele><time>2026-04-30T11:13:05.987Z</time></trkpt><trkpt lat="42.5924256" lon="12.0417287"><ele>505.0</ele><time>2026-04-30T11:13:06.987Z</time></trkpt><trkpt lat="42.5921906" lon="12.0417124"><ele>504.0</ele><time>2026-04-30T11:13:07.987Z</time></trkpt><trkpt lat="42.5919557" lon="12.0417059"><ele>503.0</ele><time>2026-04-30T11:13:08.987Z</time></trkpt><trkpt lat="42.5917208" lon="12.0416977"><ele>503.0</ele><time>2026-04-30T11:13:09.987Z</time></trkpt><trkpt lat="42.5914821" lon="12.0416956"><ele>503.0</ele><time>2026-04-30T11:13:10.987Z</time></trkpt><trkpt lat="42.5912474" lon="12.04169"><ele>502.5</ele><time>2026-04-30T11:13:11.987Z</time></trkpt><trkpt lat="42.5910127" lon="12.0416773"><ele>502.0</ele><time>2026-04-30T11:13:12.987Z</time></trkpt><trkpt lat="42.5907793" lon="12.0416335"><ele>502.0</ele><time>2026-04-30T11:13:13.988Z</time></trkpt><trkpt lat="42.5905455" lon="12.0415525"><ele>502.0</ele><time>2026-04-30T11:13:14.987Z</time></trkpt><trkpt lat="42.5903214" lon="12.0414551"><ele>502.0</ele><time>2026-04-30T11:13:15.987Z</time></trkpt><trkpt lat="42.5901024" lon="12.0413506"><ele>502.0</ele><time>2026-04-30T11:13:16.988Z</time></trkpt><trkpt lat="42.589882" lon="12.0412542"><ele>502.0</ele><time>2026-04-30T11:13:17.988Z</time></trkpt><trkpt lat="42.5896596" lon="12.0411628"><ele>502.0</ele><time>2026-04-30T11:13:18.987Z</time></trkpt><trkpt lat="42.589428" lon="12.0410716"><ele>502.5</ele><time>2026-04-30T11:13:19.987Z</time></trkpt><trkpt lat="42.589197" lon="12.0409798"><ele>503.0</ele><time>2026-04-30T11:13:20.987Z</time></trkpt><trkpt lat="42.5889646" lon="12.040894"><ele>503.0</ele><time>2026-04-30T11:13:21.987Z</time></trkpt><trkpt lat="42.5887296" lon="12.0408078"><ele>503.0</ele><time>2026-04-30T11:13:22.988Z</time></trkpt><trkpt lat="42.5884927" lon="12.0407538"><ele>509.5</ele><time>2026-04-30T11:13:23.987Z</time></trkpt><trkpt lat="42.5882457" lon="12.0407173"><ele>516.0</ele><time>2026-04-30T11:13:24.988Z</time></trkpt><trkpt lat="42.5879986" lon="12.0406928"><ele>519.5</ele><time>2026-04-30T11:13:25.988Z</time></trkpt><trkpt lat="42.5877628" lon="12.0406813"><ele>523.0</ele><time>2026-04-30T11:13:26.987Z</time></trkpt><trkpt lat="42.5875293" lon="12.0406685"><ele>523.0</ele><time>2026-04-30T11:13:27.987Z</time></trkpt><trkpt lat="42.5873074" lon="12.0406599"><ele>523.0</ele><time>2026-04-30T11:13:28.987Z</time></trkpt><trkpt lat="42.587084" lon="12.0406603"><ele>523.0</ele><time>2026-04-30T11:13:29.987Z</time></trkpt><trkpt lat="42.5868601" lon="12.040651"><ele>524.6666666666667</ele><time>2026-04-30T11:13:30.988Z</time></trkpt><trkpt lat="42.5866356" lon="12.0406316"><ele>526.3333333333334</ele><time>2026-04-30T11:13:31.988Z</time></trkpt><trkpt lat="42.5864156" lon="12.0406045"><ele>528.0</ele><time>2026-04-30T11:13:32.988Z</time></trkpt><trkpt lat="42.5861894" lon="12.0405843"><ele>526.3333333333334</ele><time>2026-04-30T11:13:33.988Z</time></trkpt><trkpt lat="42.5859628" lon="12.0405884"><ele>524.6666666666667</ele><time>2026-04-30T11:13:34.987Z</time></trkpt><trkpt lat="42.5857409" lon="12.0406046"><ele>523.0</ele><time>2026-04-30T11:13:35.987Z</time></trkpt><trkpt lat="42.5855033" lon="12.0406457"><ele>522.0</ele><time>2026-04-30T11:13:36.987Z</time></trkpt><trkpt lat="42.5852713" lon="12.040703"><ele>521.0</ele><time>2026-04-30T11:13:37.987Z</time></trkpt><trkpt lat="42.5850433" lon="12.0407664"><ele>522.3333333333333</ele><time>2026-04-30T11:13:38.987Z</time></trkpt><trkpt lat="42.5848232" lon="12.0408288"><ele>523.6666666666666</ele><time>2026-04-30T11:13:39.987Z</time></trkpt><trkpt lat="42.5846063" lon="12.0408904"><ele>525.0</ele><time>2026-04-30T11:13:40.987Z</time></trkpt><trkpt lat="42.5843929" lon="12.04095"><ele>527.0</ele><time>2026-04-30T11:13:41.987Z</time></trkpt><trkpt lat="42.5841764" lon="12.0410116"><ele>529.0</ele><time>2026-04-30T11:13:42.987Z</time></trkpt><trkpt lat="42.5839637" lon="12.0410675"><ele>531.0</ele><time>2026-04-30T11:13:43.987Z</time></trkpt><trkpt lat="42.5837592" lon="12.0411216"><ele>534.3333333333334</ele><time>2026-04-30T11:13:44.988Z</time></trkpt><trkpt lat="42.5835487" lon="12.04117"><ele>537.6666666666667</ele><time>2026-04-30T11:13:45.987Z</time></trkpt><trkpt lat="42.5833386" lon="12.0412227"><ele>541.0</ele><time>2026-04-30T11:13:46.988Z</time></trkpt><trkpt lat="42.5831251" lon="12.0412675"><ele>541.0</ele><time>2026-04-30T11:13:47.987Z</time></trkpt><trkpt lat="42.5829211" lon="12.0413063"><ele>541.0</ele><time>2026-04-30T11:13:48.987Z</time></trkpt><trkpt lat="42.5827315" lon="12.0413493"><ele>541.0</ele><time>2026-04-30T11:13:49.987Z</time></trkpt><trkpt lat="42.5825396" lon="12.0413951"><ele>542.0</ele><time>2026-04-30T11:13:50.987Z</time></trkpt><trkpt lat="42.5823594" lon="12.0414394"><ele>543.0</ele><time>2026-04-30T11:13:51.988Z</time></trkpt><trkpt lat="42.5821795" lon="12.0414956"><ele>544.0</ele><time>2026-04-30T11:13:52.987Z</time></trkpt><trkpt lat="42.5820276" lon="12.0416094"><ele>542.3333333333334</ele><time>2026-04-30T11:13:53.988Z</time></trkpt><trkpt lat="42.5819037" lon="12.0417909"><ele>540.6666666666666</ele><time>2026-04-30T11:13:54.988Z</time></trkpt><trkpt lat="42.5818097" lon="12.0420133"><ele>539.0</ele><time>2026-04-30T11:13:55.987Z</time></trkpt><trkpt lat="42.5817376" lon="12.0422535"><ele>538.3333333333333</ele><time>2026-04-30T11:13:56.987Z</time></trkpt><trkpt lat="42.5816698" lon="12.0424913"><ele>537.6666666666666</ele><time>2026-04-30T11:13:57.987Z</time></trkpt><trkpt lat="42.5815951" lon="12.0427541"><ele>537.0</ele><time>2026-04-30T11:13:58.987Z</time></trkpt><trkpt lat="42.5815126" lon="12.0430256"><ele>537.0</ele><time>2026-04-30T11:13:59.988Z</time></trkpt><trkpt lat="42.5814318" lon="12.0432923"><ele>537.0</ele><time>2026-04-30T11:14:00.987Z</time></trkpt><trkpt lat="42.5813502" lon="12.043547"><ele>537.0</ele><time>2026-04-30T11:14:01.987Z</time></trkpt><trkpt lat="42.5812682" lon="12.0437969"><ele>537.0</ele><time>2026-04-30T11:14:02.987Z</time></trkpt><trkpt lat="42.5811836" lon="12.0440548"><ele>537.0</ele><time>2026-04-30T11:14:03.988Z</time></trkpt><trkpt lat="42.5810974" lon="12.0443143"><ele>537.0</ele><time>2026-04-30T11:14:04.987Z</time></trkpt><trkpt lat="42.5810095" lon="12.0445888"><ele>537.0</ele><time>2026-04-30T11:14:05.987Z</time></trkpt><trkpt lat="42.5809202" lon="12.0448675"><ele>537.0</ele><time>2026-04-30T11:14:06.987Z</time></trkpt><trkpt lat="42.5808338" lon="12.0451446"><ele>537.0</ele><time>2026-04-30T11:14:07.987Z</time></trkpt><trkpt lat="42.5807431" lon="12.0454342"><ele>537.0</ele><time>2026-04-30T11:14:08.987Z</time></trkpt><trkpt lat="42.5806503" lon="12.045721"><ele>537.0</ele><time>2026-04-30T11:14:09.987Z</time></trkpt><trkpt lat="42.5805594" lon="12.0460068"><ele>537.5</ele><time>2026-04-30T11:14:10.987Z</time></trkpt><trkpt lat="42.5804664" lon="12.046292"><ele>538.0</ele><time>2026-04-30T11:14:11.987Z</time></trkpt><trkpt lat="42.5803679" lon="12.0465708"><ele>537.6666666666667</ele><time>2026-04-30T11:14:12.987Z</time></trkpt><trkpt lat="42.5802731" lon="12.0468464"><ele>537.3333333333334</ele><time>2026-04-30T11:14:13.987Z</time></trkpt><trkpt lat="42.5801818" lon="12.0471157"><ele>537.0</ele><time>2026-04-30T11:14:14.987Z</time></trkpt><trkpt lat="42.5800797" lon="12.0473874"><ele>538.0</ele><time>2026-04-30T11:14:15.987Z</time></trkpt><trkpt lat="42.5799557" lon="12.0476297"><ele>539.0</ele><time>2026-04-30T11:14:16.988Z</time></trkpt><trkpt lat="42.5798051" lon="12.0478188"><ele>540.0</ele><time>2026-04-30T11:14:17.988Z</time></trkpt><trkpt lat="42.5796381" lon="12.0479432"><ele>538.3333333333334</ele><time>2026-04-30T11:14:18.988Z</time></trkpt><trkpt lat="42.5794373" lon="12.0480503"><ele>536.6666666666667</ele><time>2026-04-30T11:14:19.988Z</time></trkpt><trkpt lat="42.5792338" lon="12.0481463"><ele>535.0</ele><time>2026-04-30T11:14:20.987Z</time></trkpt><trkpt lat="42.5790311" lon="12.048235"><ele>535.0</ele><time>2026-04-30T11:14:21.987Z</time></trkpt><trkpt lat="42.57882" lon="12.0483264"><ele>535.0</ele><time>2026-04-30T11:14:22.988Z</time></trkpt><trkpt lat="42.5786112" lon="12.0484151"><ele>535.0</ele><time>2026-04-30T11:14:23.987Z</time></trkpt><trkpt lat="42.5784077" lon="12.0484909"><ele>535.3333333333334</ele><time>2026-04-30T11:14:24.987Z</time></trkpt><trkpt lat="42.5782016" lon="12.0485619"><ele>535.6666666666666</ele><time>2026-04-30T11:14:25.987Z</time></trkpt><trkpt lat="42.5779889" lon="12.0486178"><ele>536.0</ele><time>2026-04-30T11:14:26.987Z</time></trkpt><trkpt lat="42.5777698" lon="12.0486822"><ele>535.0</ele><time>2026-04-30T11:14:27.987Z</time></trkpt><trkpt lat="42.5775507" lon="12.048746"><ele>534.0</ele><time>2026-04-30T11:14:28.987Z</time></trkpt><trkpt lat="42.5773361" lon="12.0488084"><ele>533.0</ele><time>2026-04-30T11:14:29.988Z</time></trkpt><trkpt lat="42.5771231" lon="12.048869"><ele>532.0</ele><time>2026-04-30T11:14:30.987Z</time></trkpt><trkpt lat="42.5769039" lon="12.0489302"><ele>531.0</ele><time>2026-04-30T11:14:31.987Z</time></trkpt><trkpt lat="42.5766845" lon="12.0489932"><ele>530.0</ele><time>2026-04-30T11:14:32.987Z</time></trkpt><trkpt lat="42.5764752" lon="12.0490496"><ele>530.0</ele><time>2026-04-30T11:14:33.988Z</time></trkpt><trkpt lat="42.5762682" lon="12.0491091"><ele>530.0</ele><time>2026-04-30T11:14:34.987Z</time></trkpt><trkpt lat="42.5760692" lon="12.0491696"><ele>530.0</ele><time>2026-04-30T11:14:35.987Z</time></trkpt><trkpt lat="42.575869" lon="12.0492226"><ele>528.6666666666666</ele><time>2026-04-30T11:14:36.987Z</time></trkpt><trkpt lat="42.5756656" lon="12.0492803"><ele>527.3333333333334</ele><time>2026-04-30T11:14:37.988Z</time></trkpt><trkpt lat="42.5754625" lon="12.0493362"><ele>526.0</ele><time>2026-04-30T11:14:38.987Z</time></trkpt><trkpt lat="42.5752594" lon="12.0493962"><ele>525.3333333333334</ele><time>2026-04-30T11:14:39.987Z</time></trkpt><trkpt lat="42.5750627" lon="12.0494541"><ele>524.6666666666666</ele><time>2026-04-30T11:14:40.987Z</time></trkpt><trkpt lat="42.574863" lon="12.0495087"><ele>524.0</ele><time>2026-04-30T11:14:41.987Z</time></trkpt><trkpt lat="42.5746535" lon="12.0495625"><ele>522.0</ele><time>2026-04-30T11:14:42.987Z</time></trkpt><trkpt lat="42.5744453" lon="12.0495903"><ele>520.0</ele><time>2026-04-30T11:14:43.987Z</time></trkpt><trkpt lat="42.5742385" lon="12.0495589"><ele>518.0</ele><time>2026-04-30T11:14:44.987Z</time></trkpt><trkpt lat="42.5740307" lon="12.0494764"><ele>518.0</ele><time>2026-04-30T11:14:45.987Z</time></trkpt><trkpt lat="42.5738188" lon="12.049386"><ele>518.0</ele><time>2026-04-30T11:14:46.987Z</time></trkpt><trkpt lat="42.573605" lon="12.0492973"><ele>518.0</ele><time>2026-04-30T11:14:47.987Z</time></trkpt><trkpt lat="42.573393" lon="12.0492086"><ele>518.0</ele><time>2026-04-30T11:14:48.988Z</time></trkpt><trkpt lat="42.5731837" lon="12.0491224"><ele>518.0</ele><time>2026-04-30T11:14:49.988Z</time></trkpt><trkpt lat="42.5729758" lon="12.0490376"><ele>518.0</ele><time>2026-04-30T11:14:50.987Z</time></trkpt><trkpt lat="42.5727661" lon="12.0489604"><ele>519.3333333333333</ele><time>2026-04-30T11:14:51.987Z</time></trkpt><trkpt lat="42.5725484" lon="12.0489079"><ele>520.6666666666666</ele><time>2026-04-30T11:14:52.987Z</time></trkpt><trkpt lat="42.572327" lon="12.0488868"><ele>522.0</ele><time>2026-04-30T11:14:53.988Z</time></trkpt><trkpt lat="42.572101" lon="12.0488807"><ele>523.0</ele><time>2026-04-30T11:14:54.987Z</time></trkpt><trkpt lat="42.5718827" lon="12.0488762"><ele>524.0</ele><time>2026-04-30T11:14:55.987Z</time></trkpt><trkpt lat="42.5716613" lon="12.0488595"><ele>525.0</ele><time>2026-04-30T11:14:56.988Z</time></trkpt><trkpt lat="42.5714428" lon="12.0488221"><ele>525.0</ele><time>2026-04-30T11:14:57.988Z</time></trkpt><trkpt lat="42.5712302" lon="12.0487749"><ele>525.0</ele><time>2026-04-30T11:14:58.988Z</time></trkpt><trkpt lat="42.5710262" lon="12.0487084"><ele>525.0</ele><time>2026-04-30T11:14:59.987Z</time></trkpt><trkpt lat="42.5708246" lon="12.0486281"><ele>525.0</ele><time>2026-04-30T11:15:00.987Z</time></trkpt><trkpt lat="42.570625" lon="12.0485443"><ele>525.0</ele><time>2026-04-30T11:15:01.988Z</time></trkpt><trkpt lat="42.5704145" lon="12.0484716"><ele>525.0</ele><time>2026-04-30T11:15:02.988Z</time></trkpt><trkpt lat="42.5701889" lon="12.0484346"><ele>522.0</ele><time>2026-04-30T11:15:03.987Z</time></trkpt><trkpt lat="42.5699603" lon="12.0484341"><ele>519.0</ele><time>2026-04-30T11:15:04.988Z</time></trkpt><trkpt lat="42.5697251" lon="12.0484624"><ele>515.5</ele><time>2026-04-30T11:15:05.987Z</time></trkpt><trkpt lat="42.5694841" lon="12.0485053"><ele>512.0</ele><time>2026-04-30T11:15:06.988Z</time></trkpt><trkpt lat="42.56925" lon="12.0485532"><ele>512.0</ele><time>2026-04-30T11:15:07.987Z</time></trkpt><trkpt lat="42.5690105" lon="12.0485851"><ele>512.0</ele><time>2026-04-30T11:15:08.987Z</time></trkpt><trkpt lat="42.5687727" lon="12.0486125"><ele>512.0</ele><time>2026-04-30T11:15:09.987Z</time></trkpt><trkpt lat="42.5685356" lon="12.0486338"><ele>512.0</ele><time>2026-04-30T11:15:10.987Z</time></trkpt><trkpt lat="42.5683082" lon="12.0486478"><ele>512.0</ele><time>2026-04-30T11:15:11.987Z</time></trkpt><trkpt lat="42.5680814" lon="12.0486516"><ele>512.0</ele><time>2026-04-30T11:15:12.987Z</time></trkpt><trkpt lat="42.5678563" lon="12.048639"><ele>509.0</ele><time>2026-04-30T11:15:13.987Z</time></trkpt><trkpt lat="42.5676269" lon="12.0486109"><ele>506.0</ele><time>2026-04-30T11:15:14.987Z</time></trkpt><trkpt lat="42.5673984" lon="12.0485818"><ele>506.0</ele><time>2026-04-30T11:15:15.988Z</time></trkpt><trkpt lat="42.5671689" lon="12.0485509"><ele>506.0</ele><time>2026-04-30T11:15:16.988Z</time></trkpt><trkpt lat="42.5669489" lon="12.048519"><ele>506.3333333333333</ele><time>2026-04-30T11:15:17.987Z</time></trkpt><trkpt lat="42.5667316" lon="12.0484726"><ele>506.66666666666663</ele><time>2026-04-30T11:15:18.987Z</time></trkpt><trkpt lat="42.5665101" lon="12.0484218"><ele>507.0</ele><time>2026-04-30T11:15:19.988Z</time></trkpt><trkpt lat="42.5662865" lon="12.048358"><ele>507.66666666666663</ele><time>2026-04-30T11:15:20.988Z</time></trkpt><trkpt lat="42.5660672" lon="12.0482827"><ele>508.3333333333333</ele><time>2026-04-30T11:15:21.987Z</time></trkpt><trkpt lat="42.5658542" lon="12.0481962"><ele>509.0</ele><time>2026-04-30T11:15:22.987Z</time></trkpt><trkpt lat="42.565636" lon="12.0481071"><ele>509.0</ele><time>2026-04-30T11:15:23.987Z</time></trkpt><trkpt lat="42.5654212" lon="12.0480063"><ele>509.0</ele><time>2026-04-30T11:15:24.987Z</time></trkpt><trkpt lat="42.5652068" lon="12.0478975"><ele>508.0</ele><time>2026-04-30T11:15:25.988Z</time></trkpt><trkpt lat="42.5649902" lon="12.0477779"><ele>507.0</ele><time>2026-04-30T11:15:26.988Z</time></trkpt><trkpt lat="42.5647858" lon="12.0476381"><ele>507.0</ele><time>2026-04-30T11:15:27.987Z</time></trkpt><trkpt lat="42.5645986" lon="12.047466"><ele>507.0</ele><time>2026-04-30T11:15:28.987Z</time></trkpt><trkpt lat="42.5644116" lon="12.0472799"><ele>505.0</ele><time>2026-04-30T11:15:29.988Z</time></trkpt><trkpt lat="42.5642225" lon="12.0470807"><ele>503.0</ele><time>2026-04-30T11:15:30.987Z</time></trkpt><trkpt lat="42.5640345" lon="12.046893"><ele>503.0</ele><time>2026-04-30T11:15:31.987Z</time></trkpt><trkpt lat="42.5638489" lon="12.0467026"><ele>503.0</ele><time>2026-04-30T11:15:32.987Z</time></trkpt><trkpt lat="42.5636721" lon="12.046515"><ele>502.66666666666663</ele><time>2026-04-30T11:15:33.987Z</time></trkpt><trkpt lat="42.5635004" lon="12.0463344"><ele>502.33333333333337</ele><time>2026-04-30T11:15:34.987Z</time></trkpt><trkpt lat="42.5633258" lon="12.0461596"><ele>502.0</ele><time>2026-04-30T11:15:35.987Z</time></trkpt><trkpt lat="42.5631528" lon="12.045992"><ele>502.0</ele><time>2026-04-30T11:15:36.988Z</time></trkpt><trkpt lat="42.5629775" lon="12.0458297"><ele>502.0</ele><time>2026-04-30T11:15:37.987Z</time></trkpt><trkpt lat="42.5628018" lon="12.0456685"><ele>502.0</ele><time>2026-04-30T11:15:38.988Z</time></trkpt><trkpt lat="42.5626199" lon="12.0455211"><ele>501.6666666666667</ele><time>2026-04-30T11:15:39.987Z</time></trkpt><trkpt lat="42.5624375" lon="12.045383"><ele>501.33333333333337</ele><time>2026-04-30T11:15:40.987Z</time></trkpt><trkpt lat="42.5622438" lon="12.0452584"><ele>501.0</ele><time>2026-04-30T11:15:41.987Z</time></trkpt><trkpt lat="42.5620493" lon="12.0451373"><ele>501.33333333333337</ele><time>2026-04-30T11:15:42.987Z</time></trkpt><trkpt lat="42.5618561" lon="12.0450254"><ele>501.6666666666667</ele><time>2026-04-30T11:15:43.988Z</time></trkpt><trkpt lat="42.561655" lon="12.0449116"><ele>502.0</ele><time>2026-04-30T11:15:44.987Z</time></trkpt><trkpt lat="42.5614615" lon="12.0447901"><ele>502.0</ele><time>2026-04-30T11:15:45.987Z</time></trkpt><trkpt lat="42.5612683" lon="12.0446673"><ele>502.0</ele><time>2026-04-30T11:15:46.988Z</time></trkpt><trkpt lat="42.5610781" lon="12.0445395"><ele>502.0</ele><time>2026-04-30T11:15:47.987Z</time></trkpt><trkpt lat="42.5608855" lon="12.0444124"><ele>505.6666666666667</ele><time>2026-04-30T11:15:48.988Z</time></trkpt><trkpt lat="42.5606834" lon="12.0442921"><ele>509.33333333333337</ele><time>2026-04-30T11:15:49.988Z</time></trkpt><trkpt lat="42.5604797" lon="12.044178"><ele>513.0</ele><time>2026-04-30T11:15:50.987Z</time></trkpt><trkpt lat="42.5602711" lon="12.0440853"><ele>513.6666666666666</ele><time>2026-04-30T11:15:51.987Z</time></trkpt><trkpt lat="42.5600605" lon="12.0440069"><ele>514.3333333333333</ele><time>2026-04-30T11:15:52.987Z</time></trkpt><trkpt lat="42.5598446" lon="12.0439458"><ele>515.0</ele><time>2026-04-30T11:15:53.987Z</time></trkpt><trkpt lat="42.5596166" lon="12.0439119"><ele>515.3333333333333</ele><time>2026-04-30T11:15:54.988Z</time></trkpt><trkpt lat="42.5593927" lon="12.0439053"><ele>515.6666666666666</ele><time>2026-04-30T11:15:55.987Z</time></trkpt><trkpt lat="42.5591763" lon="12.0438994"><ele>516.0</ele><time>2026-04-30T11:15:56.987Z</time></trkpt><trkpt lat="42.558971" lon="12.0439058"><ele>516.0</ele><time>2026-04-30T11:15:57.987Z</time></trkpt><trkpt lat="42.5587656" lon="12.0439141"><ele>516.0</ele><time>2026-04-30T11:15:58.988Z</time></trkpt><trkpt lat="42.5585601" lon="12.0439092"><ele>516.0</ele><time>2026-04-30T11:15:59.987Z</time></trkpt><trkpt lat="42.5583568" lon="12.0438676"><ele>516.0</ele><time>2026-04-30T11:16:00.988Z</time></trkpt><trkpt lat="42.5581556" lon="12.0438011"><ele>516.0</ele><time>2026-04-30T11:16:01.988Z</time></trkpt><trkpt lat="42.5579558" lon="12.0437335"><ele>516.0</ele><time>2026-04-30T11:16:02.987Z</time></trkpt><trkpt lat="42.5577546" lon="12.0436699"><ele>514.0</ele><time>2026-04-30T11:16:03.987Z</time></trkpt><trkpt lat="42.5575468" lon="12.0436186"><ele>512.0</ele><time>2026-04-30T11:16:04.988Z</time></trkpt><trkpt lat="42.5573395" lon="12.0435787"><ele>510.0</ele><time>2026-04-30T11:16:05.987Z</time></trkpt><trkpt lat="42.5571325" lon="12.0435486"><ele>513.3333333333334</ele><time>2026-04-30T11:16:06.987Z</time></trkpt><trkpt lat="42.5569222" lon="12.0435426"><ele>516.6666666666667</ele><time>2026-04-30T11:16:07.987Z</time></trkpt><trkpt lat="42.5567275" lon="12.0435544"><ele>520.0</ele><time>2026-04-30T11:16:08.987Z</time></trkpt><trkpt lat="42.5565314" lon="12.0435755"><ele>520.0</ele><time>2026-04-30T11:16:09.988Z</time></trkpt><trkpt lat="42.55635" lon="12.0435894"><ele>520.0</ele><time>2026-04-30T11:16:10.987Z</time></trkpt><trkpt lat="42.5561855" lon="12.0435916"><ele>520.0</ele><time>2026-04-30T11:16:11.988Z</time></trkpt><trkpt lat="42.5560332" lon="12.0435794"><ele>521.0</ele><time>2026-04-30T11:16:12.987Z</time></trkpt><trkpt lat="42.5558798" lon="12.0435557"><ele>522.0</ele><time>2026-04-30T11:16:13.988Z</time></trkpt><trkpt lat="42.5557355" lon="12.043533"><ele>523.0</ele><time>2026-04-30T11:16:14.987Z</time></trkpt><trkpt lat="42.5555937" lon="12.0434971"><ele>524.0</ele><time>2026-04-30T11:16:15.987Z</time></trkpt><trkpt lat="42.5554586" lon="12.0434432"><ele>523.0</ele><time>2026-04-30T11:16:16.988Z</time></trkpt><trkpt lat="42.5553327" lon="12.043379"><ele>522.0</ele><time>2026-04-30T11:16:17.988Z</time></trkpt><trkpt lat="42.5552051" lon="12.0433007"><ele>521.0</ele><time>2026-04-30T11:16:18.988Z</time></trkpt><trkpt lat="42.5550802" lon="12.0432072"><ele>520.0</ele><time>2026-04-30T11:16:19.987Z</time></trkpt><trkpt lat="42.5549545" lon="12.0430997"><ele>520.0</ele><time>2026-04-30T11:16:20.987Z</time></trkpt><trkpt lat="42.5548266" lon="12.042995"><ele>520.0</ele><time>2026-04-30T11:16:21.987Z</time></trkpt><trkpt lat="42.5546912" lon="12.042888"><ele>520.0</ele><time>2026-04-30T11:16:22.987Z</time></trkpt><trkpt lat="42.554552" lon="12.0427994"><ele>518.6666666666667</ele><time>2026-04-30T11:16:23.987Z</time></trkpt><trkpt lat="42.5544031" lon="12.0427487"><ele>517.3333333333334</ele><time>2026-04-30T11:16:24.987Z</time></trkpt><trkpt lat="42.5542455" lon="12.0427328"><ele>516.0</ele><time>2026-04-30T11:16:25.988Z</time></trkpt><trkpt lat="42.55408" lon="12.0427587"><ele>516.0</ele><time>2026-04-30T11:16:26.987Z</time></trkpt><trkpt lat="42.5539103" lon="12.0427975"><ele>516.0</ele><time>2026-04-30T11:16:27.987Z</time></trkpt><trkpt lat="42.5537405" lon="12.042817"><ele>516.0</ele><time>2026-04-30T11:16:28.987Z</time></trkpt><trkpt lat="42.5535634" lon="12.0428098"><ele>516.3333333333334</ele><time>2026-04-30T11:16:29.987Z</time></trkpt><trkpt lat="42.553382" lon="12.0427635"><ele>516.6666666666667</ele><time>2026-04-30T11:16:30.987Z</time></trkpt><trkpt lat="42.5532052" lon="12.0426803"><ele>517.0</ele><time>2026-04-30T11:16:31.988Z</time></trkpt><trkpt lat="42.553034" lon="12.042584"><ele>517.0</ele><time>2026-04-30T11:16:32.987Z</time></trkpt><trkpt lat="42.5528765" lon="12.0424808"><ele>517.0</ele><time>2026-04-30T11:16:33.988Z</time></trkpt><trkpt lat="42.5527187" lon="12.0423827"><ele>517.0</ele><time>2026-04-30T11:16:34.987Z</time></trkpt><trkpt lat="42.5525599" lon="12.0422907"><ele>515.3333333333334</ele><time>2026-04-30T11:16:35.987Z</time></trkpt><trkpt lat="42.5523975" lon="12.042214"><ele>513.6666666666666</ele><time>2026-04-30T11:16:36.987Z</time></trkpt><trkpt lat="42.5522259" lon="12.0421415"><ele>512.0</ele><time>2026-04-30T11:16:37.988Z</time></trkpt><trkpt lat="42.5520456" lon="12.0420761"><ele>512.6666666666666</ele><time>2026-04-30T11:16:38.987Z</time></trkpt><trkpt lat="42.5518594" lon="12.0420238"><ele>513.3333333333334</ele><time>2026-04-30T11:16:39.988Z</time></trkpt><trkpt lat="42.5516679" lon="12.0419894"><ele>514.0</ele><time>2026-04-30T11:16:40.987Z</time></trkpt><trkpt lat="42.551475" lon="12.0419733"><ele>514.0</ele><time>2026-04-30T11:16:41.988Z</time></trkpt><trkpt lat="42.5512875" lon="12.0419508"><ele>514.0</ele><time>2026-04-30T11:16:42.988Z</time></trkpt><trkpt lat="42.5510988" lon="12.0419214"><ele>514.0</ele><time>2026-04-30T11:16:43.987Z</time></trkpt><trkpt lat="42.5509191" lon="12.0418774"><ele>514.6666666666667</ele><time>2026-04-30T11:16:44.987Z</time></trkpt><trkpt lat="42.5507444" lon="12.0418268"><ele>515.3333333333334</ele><time>2026-04-30T11:16:45.987Z</time></trkpt><trkpt lat="42.550569" lon="12.0417683"><ele>516.0</ele><time>2026-04-30T11:16:46.987Z</time></trkpt><trkpt lat="42.5504017" lon="12.0416959"><ele>516.0</ele><time>2026-04-30T11:16:47.988Z</time></trkpt><trkpt lat="42.5502332" lon="12.0416156"><ele>516.0</ele><time>2026-04-30T11:16:48.987Z</time></trkpt><trkpt lat="42.550066" lon="12.0415191"><ele>516.0</ele><time>2026-04-30T11:16:49.987Z</time></trkpt><trkpt lat="42.549906" lon="12.041405"><ele>516.0</ele><time>2026-04-30T11:16:50.987Z</time></trkpt><trkpt lat="42.54975" lon="12.0412834"><ele>516.0</ele><time>2026-04-30T11:16:51.987Z</time></trkpt><trkpt lat="42.5495983" lon="12.0411551"><ele>516.0</ele><time>2026-04-30T11:16:52.987Z</time></trkpt><trkpt lat="42.5494534" lon="12.0410217"><ele>516.3333333333334</ele><time>2026-04-30T11:16:53.987Z</time></trkpt><trkpt lat="42.5493108" lon="12.0408847"><ele>516.6666666666667</ele><time>2026-04-30T11:16:54.987Z</time></trkpt><trkpt lat="42.5491617" lon="12.0407544"><ele>517.0</ele><time>2026-04-30T11:16:55.988Z</time></trkpt><trkpt lat="42.5490058" lon="12.0406304"><ele>517.0</ele><time>2026-04-30T11:16:56.988Z</time></trkpt><trkpt lat="42.5488475" lon="12.0405199"><ele>517.0</ele><time>2026-04-30T11:16:57.987Z</time></trkpt><trkpt lat="42.5486874" lon="12.0404254"><ele>517.0</ele><time>2026-04-30T11:16:58.988Z</time></trkpt><trkpt lat="42.5485256" lon="12.0403487"><ele>518.6666666666667</ele><time>2026-04-30T11:16:59.987Z</time></trkpt><trkpt lat="42.5483557" lon="12.0402801"><ele>520.3333333333334</ele><time>2026-04-30T11:17:00.987Z</time></trkpt><trkpt lat="42.5481813" lon="12.0402132"><ele>522.0</ele><time>2026-04-30T11:17:01.987Z</time></trkpt><trkpt lat="42.5480044" lon="12.0401615"><ele>523.3333333333334</ele><time>2026-04-30T11:17:02.987Z</time></trkpt><trkpt lat="42.547826" lon="12.0401159"><ele>524.6666666666667</ele><time>2026-04-30T11:17:03.987Z</time></trkpt><trkpt lat="42.5476482" lon="12.0400757"><ele>526.0</ele><time>2026-04-30T11:17:04.987Z</time></trkpt><trkpt lat="42.5474687" lon="12.0400415"><ele>526.0</ele><time>2026-04-30T11:17:05.987Z</time></trkpt><trkpt lat="42.5472969" lon="12.0400047"><ele>526.0</ele><time>2026-04-30T11:17:06.987Z</time></trkpt><trkpt lat="42.5471204" lon="12.03997"><ele>526.0</ele><time>2026-04-30T11:17:07.987Z</time></trkpt><trkpt lat="42.5469462" lon="12.0399276"><ele>530.0</ele><time>2026-04-30T11:17:08.987Z</time></trkpt><trkpt lat="42.546775" lon="12.0398798"><ele>534.0</ele><time>2026-04-30T11:17:09.987Z</time></trkpt><trkpt lat="42.54661" lon="12.0398415"><ele>538.0</ele><time>2026-04-30T11:17:10.987Z</time></trkpt><trkpt lat="42.5464571" lon="12.0398093"><ele>538.0</ele><time>2026-04-30T11:17:11.987Z</time></trkpt><trkpt lat="42.5463093" lon="12.0397855"><ele>538.0</ele><time>2026-04-30T11:17:12.988Z</time></trkpt><trkpt lat="42.5461658" lon="12.0397685"><ele>538.0</ele><time>2026-04-30T11:17:13.987Z</time></trkpt><trkpt lat="42.5460265" lon="12.0397502"><ele>538.0</ele><time>2026-04-30T11:17:14.987Z</time></trkpt><trkpt lat="42.5458994" lon="12.0397172"><ele>537.75</ele><time>2026-04-30T11:17:15.987Z</time></trkpt><trkpt lat="42.5457803" lon="12.0396813"><ele>537.5</ele><time>2026-04-30T11:17:16.988Z</time></trkpt><trkpt lat="42.5456623" lon="12.0396265"><ele>537.25</ele><time>2026-04-30T11:17:17.987Z</time></trkpt><trkpt lat="42.5455484" lon="12.0395602"><ele>537.0</ele><time>2026-04-30T11:17:18.988Z</time></trkpt><trkpt lat="42.5454378" lon="12.0394945"><ele>534.75</ele><time>2026-04-30T11:17:19.987Z</time></trkpt><trkpt lat="42.5453328" lon="12.0394152"><ele>532.5</ele><time>2026-04-30T11:17:20.988Z</time></trkpt><trkpt lat="42.5452281" lon="12.0393383"><ele>530.25</ele><time>2026-04-30T11:17:21.987Z</time></trkpt><trkpt lat="42.5451272" lon="12.0392584"><ele>528.0</ele><time>2026-04-30T11:17:22.987Z</time></trkpt><trkpt lat="42.5450293" lon="12.0391683"><ele>529.5</ele><time>2026-04-30T11:17:23.987Z</time></trkpt><trkpt lat="42.5449365" lon="12.0390673"><ele>531.0</ele><time>2026-04-30T11:17:24.987Z</time></trkpt><trkpt lat="42.544843" lon="12.0389541"><ele>532.5</ele><time>2026-04-30T11:17:25.987Z</time></trkpt><trkpt lat="42.5447492" lon="12.0388308"><ele>534.0</ele><time>2026-04-30T11:17:26.987Z</time></trkpt><trkpt lat="42.5446587" lon="12.038709"><ele>534.0</ele><time>2026-04-30T11:17:27.987Z</time></trkpt><trkpt lat="42.5445603" lon="12.0385961"><ele>534.0</ele><time>2026-04-30T11:17:28.987Z</time></trkpt><trkpt lat="42.5444695" lon="12.0384803"><ele>534.0</ele><time>2026-04-30T11:17:29.987Z</time></trkpt><trkpt lat="42.5443801" lon="12.0383689"><ele>534.0</ele><time>2026-04-30T11:17:30.988Z</time></trkpt><trkpt lat="42.5442901" lon="12.0382693"><ele>533.8</ele><time>2026-04-30T11:17:31.987Z</time></trkpt><trkpt lat="42.5442037" lon="12.0381972"><ele>533.5999999999999</ele><time>2026-04-30T11:17:32.988Z</time></trkpt><trkpt lat="42.5441352" lon="12.0381478"><ele>533.4</ele><time>2026-04-30T11:17:33.987Z</time></trkpt><trkpt lat="42.5440663" lon="12.038108"><ele>533.1999999999999</ele><time>2026-04-30T11:17:35.988Z</time></trkpt><trkpt lat="42.5439476" lon="12.038073"><ele>533.0</ele><time>2026-04-30T11:17:37.987Z</time></trkpt><trkpt lat="42.5438521" lon="12.038046"><ele>533.0</ele><time>2026-04-30T11:17:38.988Z</time></trkpt><trkpt lat="42.5437388" lon="12.0380202"><ele>533.0</ele><time>2026-04-30T11:17:39.987Z</time></trkpt><trkpt lat="42.5436175" lon="12.0379954"><ele>533.0</ele><time>2026-04-30T11:17:40.987Z</time></trkpt><trkpt lat="42.5434967" lon="12.0379623"><ele>533.0</ele><time>2026-04-30T11:17:41.987Z</time></trkpt><trkpt lat="42.5433786" lon="12.0379173"><ele>533.25</ele><time>2026-04-30T11:17:42.987Z</time></trkpt><trkpt lat="42.5432706" lon="12.0378485"><ele>533.5</ele><time>2026-04-30T11:17:43.987Z</time></trkpt><trkpt lat="42.5431843" lon="12.0377571"><ele>533.75</ele><time>2026-04-30T11:17:44.988Z</time></trkpt><trkpt lat="42.5431138" lon="12.0376322"><ele>534.0</ele><time>2026-04-30T11:17:45.988Z</time></trkpt><trkpt lat="42.5430532" lon="12.0374917"><ele>534.0</ele><time>2026-04-30T11:17:46.988Z</time></trkpt><trkpt lat="42.5429947" lon="12.0373582"><ele>534.0</ele><time>2026-04-30T11:17:47.987Z</time></trkpt><trkpt lat="42.5429369" lon="12.0372283"><ele>534.0</ele><time>2026-04-30T11:17:48.987Z</time></trkpt><trkpt lat="42.5428807" lon="12.0370977"><ele>534.0</ele><time>2026-04-30T11:17:49.987Z</time></trkpt><trkpt lat="42.5428314" lon="12.0369667"><ele>534.0</ele><time>2026-04-30T11:17:50.988Z</time></trkpt><trkpt lat="42.5427783" lon="12.036844"><ele>534.0</ele><time>2026-04-30T11:17:51.987Z</time></trkpt><trkpt lat="42.5427057" lon="12.036729"><ele>534.0</ele><time>2026-04-30T11:17:52.987Z</time></trkpt><trkpt lat="42.5426239" lon="12.0366322"><ele>534.0</ele><time>2026-04-30T11:17:53.987Z</time></trkpt><trkpt lat="42.5425382" lon="12.0365476"><ele>534.0</ele><time>2026-04-30T11:17:54.988Z</time></trkpt><trkpt lat="42.5424571" lon="12.0364817"><ele>534.0</ele><time>2026-04-30T11:17:55.987Z</time></trkpt><trkpt lat="42.5423717" lon="12.0364267"><ele>534.6</ele><time>2026-04-30T11:17:56.987Z</time></trkpt><trkpt lat="42.5422855" lon="12.0363746"><ele>535.2</ele><time>2026-04-30T11:17:57.987Z</time></trkpt><trkpt lat="42.5422017" lon="12.0363242"><ele>535.8000000000001</ele><time>2026-04-30T11:17:58.987Z</time></trkpt><trkpt lat="42.5421197" lon="12.0362748"><ele>536.4</ele><time>2026-04-30T11:17:59.987Z</time></trkpt><trkpt lat="42.5420354" lon="12.0362244"><ele>537.0</ele><time>2026-04-30T11:18:00.988Z</time></trkpt><trkpt lat="42.5419478" lon="12.0361788"><ele>538.0</ele><time>2026-04-30T11:18:01.987Z</time></trkpt><trkpt lat="42.5418566" lon="12.0361405"><ele>539.0</ele><time>2026-04-30T11:18:02.987Z</time></trkpt><trkpt lat="42.5417659" lon="12.0361065"><ele>540.0</ele><time>2026-04-30T11:18:03.988Z</time></trkpt><trkpt lat="42.5416768" lon="12.0360685"><ele>541.0</ele><time>2026-04-30T11:18:04.987Z</time></trkpt><trkpt lat="42.5415895" lon="12.0360342"><ele>542.0</ele><time>2026-04-30T11:18:05.988Z</time></trkpt><trkpt lat="42.5414979" lon="12.0360036"><ele>542.0</ele><time>2026-04-30T11:18:06.987Z</time></trkpt><trkpt lat="42.5414162" lon="12.0359842"><ele>542.0</ele><time>2026-04-30T11:18:07.987Z</time></trkpt><trkpt lat="42.5413312" lon="12.0359606"><ele>542.0</ele><time>2026-04-30T11:18:08.987Z</time></trkpt><trkpt lat="42.5412399" lon="12.0359367"><ele>542.0</ele><time>2026-04-30T11:18:09.988Z</time></trkpt><trkpt lat="42.541153" lon="12.03593"><ele>542.0</ele><time>2026-04-30T11:18:10.988Z</time></trkpt><trkpt lat="42.5410612" lon="12.0359196"><ele>542.0</ele><time>2026-04-30T11:18:11.988Z</time></trkpt><trkpt lat="42.540967" lon="12.0358994"><ele>544.0</ele><time>2026-04-30T11:18:12.988Z</time></trkpt><trkpt lat="42.5408746" lon="12.0358838"><ele>546.0</ele><time>2026-04-30T11:18:13.987Z</time></trkpt><trkpt lat="42.5407876" lon="12.0358701"><ele>548.0</ele><time>2026-04-30T11:18:14.987Z</time></trkpt><trkpt lat="42.5407008" lon="12.0358543"><ele>550.0</ele><time>2026-04-30T11:18:15.987Z</time></trkpt><trkpt lat="42.5406141" lon="12.0358399"><ele>552.0</ele><time>2026-04-30T11:18:16.987Z</time></trkpt><trkpt lat="42.5405253" lon="12.035825"><ele>554.0</ele><time>2026-04-30T11:18:17.987Z</time></trkpt><trkpt lat="42.5404423" lon="12.035809"><ele>555.1666666666666</ele><time>2026-04-30T11:18:18.987Z</time></trkpt><trkpt lat="42.540375" lon="12.0358"><ele>556.3333333333333</ele><time>2026-04-30T11:18:19.987Z</time></trkpt><trkpt lat="42.5403037" lon="12.0357948"><ele>557.5</ele><time>2026-04-30T11:18:21.987Z</time></trkpt><trkpt lat="42.5402237" lon="12.0357768"><ele>558.6666666666666</ele><time>2026-04-30T11:18:24.987Z</time></trkpt><trkpt lat="42.5401204" lon="12.0357592"><ele>559.8333333333334</ele><time>2026-04-30T11:18:26.988Z</time></trkpt><trkpt lat="42.5400209" lon="12.0357459"><ele>561.0</ele><time>2026-04-30T11:18:28.987Z</time></trkpt><trkpt lat="42.5399518" lon="12.0357272"><ele>561.0</ele><time>2026-04-30T11:18:30.987Z</time></trkpt><trkpt lat="42.539851" lon="12.0357131"><ele>561.0</ele><time>2026-04-30T11:18:33.987Z</time></trkpt><trkpt lat="42.5397458" lon="12.0356829"><ele>561.0</ele><time>2026-04-30T11:18:35.987Z</time></trkpt><trkpt lat="42.5396768" lon="12.0356658"><ele>561.0</ele><time>2026-04-30T11:18:36.987Z</time></trkpt><trkpt lat="42.5396002" lon="12.0356432"><ele>561.0</ele><time>2026-04-30T11:18:37.987Z</time></trkpt><trkpt lat="42.5395196" lon="12.0356179"><ele>561.0</ele><time>2026-04-30T11:18:38.987Z</time></trkpt><trkpt lat="42.539441" lon="12.0355922"><ele>560.5714285714286</ele><time>2026-04-30T11:18:39.987Z</time></trkpt><trkpt lat="42.5393605" lon="12.0355628"><ele>560.1428571428571</ele><time>2026-04-30T11:18:40.988Z</time></trkpt><trkpt lat="42.5392825" lon="12.0355374"><ele>559.7142857142857</ele><time>2026-04-30T11:18:41.987Z</time></trkpt><trkpt lat="42.5392082" lon="12.0355149"><ele>559.2857142857142</ele><time>2026-04-30T11:18:42.987Z</time></trkpt><trkpt lat="42.5391366" lon="12.0354947"><ele>558.8571428571429</ele><time>2026-04-30T11:18:43.987Z</time></trkpt><trkpt lat="42.5390694" lon="12.0354714"><ele>558.4285714285713</ele><time>2026-04-30T11:18:44.987Z</time></trkpt><trkpt lat="42.5390079" lon="12.0354435"><ele>558.0</ele><time>2026-04-30T11:18:45.987Z</time></trkpt><trkpt lat="42.5389463" lon="12.0354168"><ele>558.0</ele><time>2026-04-30T11:18:46.988Z</time></trkpt><trkpt lat="42.5388808" lon="12.0354002"><ele>558.0</ele><time>2026-04-30T11:18:47.987Z</time></trkpt><trkpt lat="42.5388156" lon="12.0353997"><ele>558.0</ele><time>2026-04-30T11:18:48.988Z</time></trkpt><trkpt lat="42.5387054" lon="12.035442"><ele>558.0</ele><time>2026-04-30T11:18:50.988Z</time></trkpt><trkpt lat="42.5386283" lon="12.0355063"><ele>558.0</ele><time>2026-04-30T11:18:52.987Z</time></trkpt><trkpt lat="42.5385533" lon="12.0355833"><ele>558.0</ele><time>2026-04-30T11:19:12.988Z</time></trkpt><trkpt lat="42.5384717" lon="12.0357067"><ele>555.8</ele><time>2026-04-30T11:19:14.987Z</time></trkpt><trkpt lat="42.5383983" lon="12.0358133"><ele>553.5999999999999</ele><time>2026-04-30T11:19:16.988Z</time></trkpt><trkpt lat="42.5383167" lon="12.03592"><ele>551.4000000000001</ele><time>2026-04-30T11:19:18.987Z</time></trkpt><trkpt lat="42.538245" lon="12.0360367"><ele>549.2</ele><time>2026-04-30T11:19:20.987Z</time></trkpt><trkpt lat="42.5382017" lon="12.0361017"><ele>547.0</ele><time>2026-04-30T11:19:21.987Z</time></trkpt><trkpt lat="42.5381167" lon="12.0362383"><ele>547.0</ele><time>2026-04-30T11:19:23.988Z</time></trkpt><trkpt lat="42.5380617" lon="12.03631"><ele>547.0</ele><time>2026-04-30T11:19:24.987Z</time></trkpt><trkpt lat="42.5380083" lon="12.036375"><ele>547.0</ele><time>2026-04-30T11:19:25.988Z</time></trkpt><trkpt lat="42.537965" lon="12.0364417"><ele>547.0</ele><time>2026-04-30T11:19:26.988Z</time></trkpt><trkpt lat="42.53791" lon="12.0365183"><ele>547.0</ele><time>2026-04-30T11:19:28.987Z</time></trkpt><trkpt lat="42.5378617" lon="12.0365833"><ele>547.0</ele><time>2026-04-30T11:19:51.987Z</time></trkpt><trkpt lat="42.5377833" lon="12.036695"><ele>546.4</ele><time>2026-04-30T11:19:53.987Z</time></trkpt><trkpt lat="42.537735" lon="12.0367583"><ele>545.8000000000001</ele><time>2026-04-30T11:19:54.987Z</time></trkpt><trkpt lat="42.53765" lon="12.03687"><ele>545.2</ele><time>2026-04-30T11:19:56.988Z</time></trkpt><trkpt lat="42.5375567" lon="12.036995"><ele>544.6</ele><time>2026-04-30T11:19:58.987Z</time></trkpt><trkpt lat="42.5374967" lon="12.0370633"><ele>544.0</ele><time>2026-04-30T11:19:59.987Z</time></trkpt><trkpt lat="42.5374383" lon="12.0371333"><ele>544.0</ele><time>2026-04-30T11:20:00.988Z</time></trkpt><trkpt lat="42.5373833" lon="12.0372133"><ele>544.0</ele><time>2026-04-30T11:20:01.987Z</time></trkpt><trkpt lat="42.53731" lon="12.0372967"><ele>544.0</ele><time>2026-04-30T11:20:02.988Z</time></trkpt><trkpt lat="42.5372367" lon="12.0373883"><ele>544.0</ele><time>2026-04-30T11:20:03.987Z</time></trkpt><trkpt lat="42.5371633" lon="12.0374917"><ele>544.0</ele><time>2026-04-30T11:20:04.987Z</time></trkpt><trkpt lat="42.5370917" lon="12.0375983"><ele>542.75</ele><time>2026-04-30T11:20:05.987Z</time></trkpt><trkpt lat="42.5370167" lon="12.0376983"><ele>541.5</ele><time>2026-04-30T11:20:06.987Z</time></trkpt><trkpt lat="42.53694" lon="12.0378083"><ele>540.25</ele><time>2026-04-30T11:20:07.987Z</time></trkpt><trkpt lat="42.5368633" lon="12.037925"><ele>539.0</ele><time>2026-04-30T11:20:08.988Z</time></trkpt><trkpt lat="42.5367717" lon="12.0380467"><ele>539.0</ele><time>2026-04-30T11:20:09.988Z</time></trkpt><trkpt lat="42.536695" lon="12.0381683"><ele>539.0</ele><time>2026-04-30T11:20:10.988Z</time></trkpt><trkpt lat="42.5366033" lon="12.0382883"><ele>539.0</ele><time>2026-04-30T11:20:11.987Z</time></trkpt><trkpt lat="42.5365017" lon="12.038425"><ele>539.0</ele><time>2026-04-30T11:20:12.987Z</time></trkpt><trkpt lat="42.5364" lon="12.0385767"><ele>539.25</ele><time>2026-04-30T11:20:13.987Z</time></trkpt><trkpt lat="42.536295" lon="12.038715"><ele>539.5</ele><time>2026-04-30T11:20:14.988Z</time></trkpt><trkpt lat="42.536185" lon="12.0388467"><ele>539.75</ele><time>2026-04-30T11:20:15.987Z</time></trkpt><trkpt lat="42.5360733" lon="12.0389867"><ele>540.0</ele><time>2026-04-30T11:20:16.988Z</time></trkpt><trkpt lat="42.5359417" lon="12.03915"><ele>538.6666666666666</ele><time>2026-04-30T11:20:17.987Z</time></trkpt><trkpt lat="42.5358167" lon="12.0393083"><ele>537.3333333333333</ele><time>2026-04-30T11:20:18.987Z</time></trkpt><trkpt lat="42.5356783" lon="12.0394517"><ele>536.0</ele><time>2026-04-30T11:20:19.987Z</time></trkpt><trkpt lat="42.53555" lon="12.0396267"><ele>536.0</ele><time>2026-04-30T11:20:20.987Z</time></trkpt><trkpt lat="42.5354183" lon="12.03979"><ele>536.0</ele><time>2026-04-30T11:20:21.987Z</time></trkpt><trkpt lat="42.5352833" lon="12.0399633"><ele>536.0</ele><time>2026-04-30T11:20:22.987Z</time></trkpt><trkpt lat="42.53514" lon="12.040135"><ele>534.0</ele><time>2026-04-30T11:20:23.987Z</time></trkpt><trkpt lat="42.5350067" lon="12.040315"><ele>532.0</ele><time>2026-04-30T11:20:24.988Z</time></trkpt><trkpt lat="42.534895" lon="12.0404917"><ele>530.0</ele><time>2026-04-30T11:20:25.987Z</time></trkpt><trkpt lat="42.5347817" lon="12.0406683"><ele>528.0</ele><time>2026-04-30T11:20:26.988Z</time></trkpt><trkpt lat="42.5346733" lon="12.0408483"><ele>526.0</ele><time>2026-04-30T11:20:27.987Z</time></trkpt><trkpt lat="42.5345667" lon="12.0410233"><ele>524.0</ele><time>2026-04-30T11:20:28.988Z</time></trkpt><trkpt lat="42.534475" lon="12.0412067"><ele>524.0</ele><time>2026-04-30T11:20:29.987Z</time></trkpt><trkpt lat="42.5343717" lon="12.041395"><ele>524.0</ele><time>2026-04-30T11:20:30.987Z</time></trkpt><trkpt lat="42.5342733" lon="12.041585"><ele>524.0</ele><time>2026-04-30T11:20:31.987Z</time></trkpt><trkpt lat="42.5341767" lon="12.0417783"><ele>522.3333333333333</ele><time>2026-04-30T11:20:32.987Z</time></trkpt><trkpt lat="42.534095" lon="12.0419683"><ele>520.6666666666666</ele><time>2026-04-30T11:20:33.988Z</time></trkpt><trkpt lat="42.5340117" lon="12.0421567"><ele>519.0</ele><time>2026-04-30T11:20:34.988Z</time></trkpt><trkpt lat="42.5339183" lon="12.0423217"><ele>518.0</ele><time>2026-04-30T11:20:35.988Z</time></trkpt><trkpt lat="42.5338233" lon="12.0424967"><ele>517.0</ele><time>2026-04-30T11:20:36.987Z</time></trkpt><trkpt lat="42.5337317" lon="12.042675"><ele>516.0</ele><time>2026-04-30T11:20:37.988Z</time></trkpt><trkpt lat="42.53363" lon="12.04285"><ele>514.3333333333334</ele><time>2026-04-30T11:20:38.987Z</time></trkpt><trkpt lat="42.5335233" lon="12.043035"><ele>512.6666666666667</ele><time>2026-04-30T11:20:39.988Z</time></trkpt><trkpt lat="42.533415" lon="12.0432183"><ele>511.0</ele><time>2026-04-30T11:20:40.988Z</time></trkpt><trkpt lat="42.5333133" lon="12.0434033"><ele>511.0</ele><time>2026-04-30T11:20:41.987Z</time></trkpt><trkpt lat="42.5332017" lon="12.04358"><ele>511.0</ele><time>2026-04-30T11:20:42.987Z</time></trkpt><trkpt lat="42.53309" lon="12.0437533"><ele>511.0</ele><time>2026-04-30T11:20:43.987Z</time></trkpt><trkpt lat="42.5329933" lon="12.0439217"><ele>511.0</ele><time>2026-04-30T11:20:44.988Z</time></trkpt><trkpt lat="42.5328967" lon="12.044095"><ele>511.0</ele><time>2026-04-30T11:20:45.987Z</time></trkpt><trkpt lat="42.5328017" lon="12.0442483"><ele>511.0</ele><time>2026-04-30T11:20:46.987Z</time></trkpt><trkpt lat="42.5327133" lon="12.0444183"><ele>508.0</ele><time>2026-04-30T11:20:47.987Z</time></trkpt><trkpt lat="42.5326417" lon="12.044605"><ele>505.0</ele><time>2026-04-30T11:20:48.987Z</time></trkpt><trkpt lat="42.53258" lon="12.0447983"><ele>502.0</ele><time>2026-04-30T11:20:49.987Z</time></trkpt><trkpt lat="42.532525" lon="12.0449983"><ele>501.6666666666667</ele><time>2026-04-30T11:20:50.987Z</time></trkpt><trkpt lat="42.5324817" lon="12.0451933"><ele>501.33333333333337</ele><time>2026-04-30T11:20:51.987Z</time></trkpt><trkpt lat="42.5324533" lon="12.0453983"><ele>501.0</ele><time>2026-04-30T11:20:52.987Z</time></trkpt><trkpt lat="42.5324133" lon="12.045605"><ele>499.66666666666663</ele><time>2026-04-30T11:20:53.987Z</time></trkpt><trkpt lat="42.5323533" lon="12.0458133"><ele>498.3333333333333</ele><time>2026-04-30T11:20:54.987Z</time></trkpt><trkpt lat="42.5323133" lon="12.0460367"><ele>497.0</ele><time>2026-04-30T11:20:55.987Z</time></trkpt><trkpt lat="42.53228" lon="12.0462483"><ele>497.0</ele><time>2026-04-30T11:20:56.987Z</time></trkpt><trkpt lat="42.5322383" lon="12.0464517"><ele>497.0</ele><time>2026-04-30T11:20:57.987Z</time></trkpt><trkpt lat="42.5321917" lon="12.0466617"><ele>497.0</ele><time>2026-04-30T11:20:58.987Z</time></trkpt><trkpt lat="42.5321367" lon="12.0468783"><ele>495.3333333333333</ele><time>2026-04-30T11:20:59.987Z</time></trkpt><trkpt lat="42.5320783" lon="12.0470867"><ele>493.66666666666663</ele><time>2026-04-30T11:21:00.988Z</time></trkpt><trkpt lat="42.5320267" lon="12.0472967"><ele>492.0</ele><time>2026-04-30T11:21:01.987Z</time></trkpt><trkpt lat="42.5319617" lon="12.047485"><ele>490.33333333333337</ele><time>2026-04-30T11:21:02.987Z</time></trkpt><trkpt lat="42.53189" lon="12.047675"><ele>488.6666666666667</ele><time>2026-04-30T11:21:03.988Z</time></trkpt><trkpt lat="42.5318217" lon="12.0478683"><ele>487.0</ele><time>2026-04-30T11:21:04.987Z</time></trkpt><trkpt lat="42.5317667" lon="12.04805"><ele>487.0</ele><time>2026-04-30T11:21:05.988Z</time></trkpt><trkpt lat="42.531725" lon="12.0482383"><ele>487.0</ele><time>2026-04-30T11:21:06.987Z</time></trkpt><trkpt lat="42.5316817" lon="12.04842"><ele>487.0</ele><time>2026-04-30T11:21:07.987Z</time></trkpt><trkpt lat="42.5316433" lon="12.0486083"><ele>487.0</ele><time>2026-04-30T11:21:08.987Z</time></trkpt><trkpt lat="42.5316117" lon="12.04879"><ele>487.25</ele><time>2026-04-30T11:21:09.987Z</time></trkpt><trkpt lat="42.5315767" lon="12.04897"><ele>487.5</ele><time>2026-04-30T11:21:10.987Z</time></trkpt><trkpt lat="42.5315583" lon="12.04914"><ele>487.75</ele><time>2026-04-30T11:21:11.988Z</time></trkpt><trkpt lat="42.5315133" lon="12.0493283"><ele>488.0</ele><time>2026-04-30T11:21:12.987Z</time></trkpt><trkpt lat="42.531475" lon="12.0495"><ele>487.0</ele><time>2026-04-30T11:21:13.987Z</time></trkpt><trkpt lat="42.5314417" lon="12.0496783"><ele>486.0</ele><time>2026-04-30T11:21:14.987Z</time></trkpt><trkpt lat="42.5314033" lon="12.0498483"><ele>485.0</ele><time>2026-04-30T11:21:15.987Z</time></trkpt><trkpt lat="42.5313633" lon="12.05002"><ele>484.0</ele><time>2026-04-30T11:21:16.987Z</time></trkpt><trkpt lat="42.5313217" lon="12.0501883"><ele>483.25</ele><time>2026-04-30T11:21:17.987Z</time></trkpt><trkpt lat="42.531285" lon="12.050355"><ele>482.5</ele><time>2026-04-30T11:21:18.987Z</time></trkpt><trkpt lat="42.5312533" lon="12.0505083"><ele>481.75</ele><time>2026-04-30T11:21:19.987Z</time></trkpt><trkpt lat="42.5312217" lon="12.0506683"><ele>481.0</ele><time>2026-04-30T11:21:20.987Z</time></trkpt><trkpt lat="42.5311967" lon="12.05083"><ele>480.4</ele><time>2026-04-30T11:21:21.987Z</time></trkpt><trkpt lat="42.5311783" lon="12.050985"><ele>479.8</ele><time>2026-04-30T11:21:22.987Z</time></trkpt><trkpt lat="42.5311583" lon="12.0511117"><ele>479.19999999999993</ele><time>2026-04-30T11:21:23.987Z</time></trkpt><trkpt lat="42.531135" lon="12.0512117"><ele>478.59999999999997</ele><time>2026-04-30T11:21:24.988Z</time></trkpt><trkpt lat="42.531105" lon="12.05134"><ele>478.0</ele><time>2026-04-30T11:21:26.987Z</time></trkpt><trkpt lat="42.5310917" lon="12.05145"><ele>478.0</ele><time>2026-04-30T11:21:28.987Z</time></trkpt><trkpt lat="42.5310667" lon="12.0515633"><ele>477.99999999999994</ele><time>2026-04-30T11:21:30.988Z</time></trkpt><trkpt lat="42.5310383" lon="12.0516817"><ele>477.99999999999994</ele><time>2026-04-30T11:21:32.987Z</time></trkpt><trkpt lat="42.5310183" lon="12.0518033"><ele>478.0</ele><time>2026-04-30T11:21:34.987Z</time></trkpt><trkpt lat="42.5309883" lon="12.0519717"><ele>478.0</ele><time>2026-04-30T11:21:36.987Z</time></trkpt><trkpt lat="42.5309633" lon="12.052085"><ele>477.00000000000006</ele><time>2026-04-30T11:21:37.987Z</time></trkpt><trkpt lat="42.5309333" lon="12.052195"><ele>476.0</ele><time>2026-04-30T11:21:38.987Z</time></trkpt><trkpt lat="42.5309083" lon="12.0523067"><ele>475.0</ele><time>2026-04-30T11:21:39.987Z</time></trkpt><trkpt lat="42.53089" lon="12.0524267"><ele>474.0</ele><time>2026-04-30T11:21:40.988Z</time></trkpt><trkpt lat="42.5308783" lon="12.0525417"><ele>473.00000000000006</ele><time>2026-04-30T11:21:41.987Z</time></trkpt><trkpt lat="42.53086" lon="12.0526617"><ele>472.0</ele><time>2026-04-30T11:21:42.986Z</time></trkpt><trkpt lat="42.530835" lon="12.0528017"><ele>471.75</ele><time>2026-04-30T11:21:43.986Z</time></trkpt><trkpt lat="42.5308017" lon="12.0529517"><ele>471.5</ele><time>2026-04-30T11:21:44.986Z</time></trkpt><trkpt lat="42.5307433" lon="12.0530917"><ele>471.25</ele><time>2026-04-30T11:21:45.987Z</time></trkpt><trkpt lat="42.5306783" lon="12.0532217"><ele>471.0</ele><time>2026-04-30T11:21:46.986Z</time></trkpt><trkpt lat="42.5305833" lon="12.053315"><ele>471.0</ele><time>2026-04-30T11:21:47.986Z</time></trkpt><trkpt lat="42.53046" lon="12.053375"><ele>471.0</ele><time>2026-04-30T11:21:48.987Z</time></trkpt><trkpt lat="42.5303283" lon="12.05341"><ele>471.0</ele><time>2026-04-30T11:21:49.986Z</time></trkpt><trkpt lat="42.53019" lon="12.0534333"><ele>471.0</ele><time>2026-04-30T11:21:50.987Z</time></trkpt><trkpt lat="42.5300583" lon="12.053475"><ele>469.75</ele><time>2026-04-30T11:21:51.987Z</time></trkpt><trkpt lat="42.5299267" lon="12.05353"><ele>468.5</ele><time>2026-04-30T11:21:52.986Z</time></trkpt><trkpt lat="42.5297933" lon="12.05358"><ele>467.25</ele><time>2026-04-30T11:21:53.987Z</time></trkpt><trkpt lat="42.5296633" lon="12.053615"><ele>466.0</ele><time>2026-04-30T11:21:54.987Z</time></trkpt><trkpt lat="42.5295417" lon="12.0536483"><ele>465.0</ele><time>2026-04-30T11:21:55.986Z</time></trkpt><trkpt lat="42.529425" lon="12.0536917"><ele>464.0</ele><time>2026-04-30T11:21:56.987Z</time></trkpt><trkpt lat="42.5293167" lon="12.0537183"><ele>463.0</ele><time>2026-04-30T11:21:57.986Z</time></trkpt><trkpt lat="42.5292" lon="12.053745"><ele>462.0</ele><time>2026-04-30T11:21:58.986Z</time></trkpt><trkpt lat="42.529085" lon="12.0537783"><ele>462.0</ele><time>2026-04-30T11:21:59.986Z</time></trkpt><trkpt lat="42.5289733" lon="12.0538033"><ele>462.0</ele><time>2026-04-30T11:22:00.986Z</time></trkpt><trkpt lat="42.52886" lon="12.053825"><ele>462.0</ele><time>2026-04-30T11:22:01.986Z</time></trkpt><trkpt lat="42.5287467" lon="12.0538433"><ele>462.0</ele><time>2026-04-30T11:22:02.987Z</time></trkpt><trkpt lat="42.5286367" lon="12.05385"><ele>460.8</ele><time>2026-04-30T11:22:03.986Z</time></trkpt><trkpt lat="42.528535" lon="12.0538517"><ele>459.6</ele><time>2026-04-30T11:22:04.987Z</time></trkpt><trkpt lat="42.528435" lon="12.0538433"><ele>458.40000000000003</ele><time>2026-04-30T11:22:05.986Z</time></trkpt><trkpt lat="42.5283417" lon="12.0538183"><ele>457.20000000000005</ele><time>2026-04-30T11:22:06.986Z</time></trkpt><trkpt lat="42.528245" lon="12.0537833"><ele>456.0</ele><time>2026-04-30T11:22:07.987Z</time></trkpt><trkpt lat="42.5281467" lon="12.0537433"><ele>456.0</ele><time>2026-04-30T11:22:08.987Z</time></trkpt><trkpt lat="42.5280383" lon="12.0537"><ele>456.0</ele><time>2026-04-30T11:22:09.987Z</time></trkpt><trkpt lat="42.5279333" lon="12.053665"><ele>456.0</ele><time>2026-04-30T11:22:10.986Z</time></trkpt><trkpt lat="42.5278267" lon="12.05364"><ele>456.0</ele><time>2026-04-30T11:22:11.987Z</time></trkpt><trkpt lat="42.5277233" lon="12.0536067"><ele>456.0</ele><time>2026-04-30T11:22:12.986Z</time></trkpt><trkpt lat="42.5276267" lon="12.0535917"><ele>455.5</ele><time>2026-04-30T11:22:13.987Z</time></trkpt><trkpt lat="42.5275367" lon="12.0535733"><ele>455.0</ele><time>2026-04-30T11:22:14.986Z</time></trkpt><trkpt lat="42.5274617" lon="12.0535633"><ele>454.5</ele><time>2026-04-30T11:22:15.986Z</time></trkpt><trkpt lat="42.5273967" lon="12.0535583"><ele>454.0</ele><time>2026-04-30T11:22:16.987Z</time></trkpt><trkpt lat="42.5273017" lon="12.0535433"><ele>453.5</ele><time>2026-04-30T11:22:18.987Z</time></trkpt><trkpt lat="42.5272233" lon="12.0535283"><ele>453.0</ele><time>2026-04-30T11:22:20.986Z</time></trkpt><trkpt lat="42.5271417" lon="12.0535217"><ele>453.0</ele><time>2026-04-30T11:22:22.987Z</time></trkpt><trkpt lat="42.5270617" lon="12.0535183"><ele>453.0</ele><time>2026-04-30T11:22:24.986Z</time></trkpt><trkpt lat="42.52695" lon="12.05351"><ele>453.0</ele><time>2026-04-30T11:22:26.986Z</time></trkpt><trkpt lat="42.526885" lon="12.0535033"><ele>453.0</ele><time>2026-04-30T11:22:27.986Z</time></trkpt><trkpt lat="42.5268033" lon="12.053505"><ele>453.0</ele><time>2026-04-30T11:22:28.986Z</time></trkpt><trkpt lat="42.526715" lon="12.0535117"><ele>453.0</ele><time>2026-04-30T11:22:29.987Z</time></trkpt><trkpt lat="42.5266217" lon="12.0534983"><ele>452.0</ele><time>2026-04-30T11:22:30.986Z</time></trkpt><trkpt lat="42.5265217" lon="12.0535"><ele>450.99999999999994</ele><time>2026-04-30T11:22:31.986Z</time></trkpt><trkpt lat="42.5264167" lon="12.0534833"><ele>449.99999999999994</ele><time>2026-04-30T11:22:32.986Z</time></trkpt><trkpt lat="42.5263" lon="12.0534883"><ele>449.0</ele><time>2026-04-30T11:22:33.986Z</time></trkpt><trkpt lat="42.5261867" lon="12.053475"><ele>448.0</ele><time>2026-04-30T11:22:34.986Z</time></trkpt><trkpt lat="42.5260667" lon="12.053475"><ele>447.25</ele><time>2026-04-30T11:22:35.987Z</time></trkpt><trkpt lat="42.5259267" lon="12.0534833"><ele>446.5</ele><time>2026-04-30T11:22:36.987Z</time></trkpt><trkpt lat="42.5258" lon="12.0534817"><ele>445.75</ele><time>2026-04-30T11:22:37.987Z</time></trkpt><trkpt lat="42.5256617" lon="12.0534717"><ele>445.0</ele><time>2026-04-30T11:22:38.986Z</time></trkpt><trkpt lat="42.5255317" lon="12.0534567"><ele>445.0</ele><time>2026-04-30T11:22:39.986Z</time></trkpt><trkpt lat="42.52541" lon="12.053425"><ele>445.0</ele><time>2026-04-30T11:22:40.986Z</time></trkpt><trkpt lat="42.525295" lon="12.05338"><ele>445.0</ele><time>2026-04-30T11:22:41.987Z</time></trkpt><trkpt lat="42.5251817" lon="12.05334"><ele>445.0</ele><time>2026-04-30T11:22:42.986Z</time></trkpt><trkpt lat="42.5250833" lon="12.053285"><ele>443.75</ele><time>2026-04-30T11:22:43.986Z</time></trkpt><trkpt lat="42.5249817" lon="12.0532317"><ele>442.5</ele><time>2026-04-30T11:22:44.987Z</time></trkpt><trkpt lat="42.5248733" lon="12.0531617"><ele>441.25</ele><time>2026-04-30T11:22:45.986Z</time></trkpt><trkpt lat="42.5247717" lon="12.0530817"><ele>440.0</ele><time>2026-04-30T11:22:46.986Z</time></trkpt><trkpt lat="42.5246833" lon="12.0529867"><ele>440.0</ele><time>2026-04-30T11:22:47.986Z</time></trkpt><trkpt lat="42.524595" lon="12.0529"><ele>440.0</ele><time>2026-04-30T11:22:48.986Z</time></trkpt><trkpt lat="42.52452" lon="12.052775"><ele>440.0</ele><time>2026-04-30T11:22:49.987Z</time></trkpt><trkpt lat="42.524455" lon="12.0526517"><ele>440.0</ele><time>2026-04-30T11:22:50.986Z</time></trkpt><trkpt lat="42.5243833" lon="12.0525117"><ele>438.5</ele><time>2026-04-30T11:22:51.987Z</time></trkpt><trkpt lat="42.5243033" lon="12.0523767"><ele>437.0</ele><time>2026-04-30T11:22:52.986Z</time></trkpt><trkpt lat="42.5242283" lon="12.0522317"><ele>435.5</ele><time>2026-04-30T11:22:53.986Z</time></trkpt><trkpt lat="42.5241483" lon="12.05208"><ele>434.0</ele><time>2026-04-30T11:22:54.987Z</time></trkpt><trkpt lat="42.5240717" lon="12.05193"><ele>434.0</ele><time>2026-04-30T11:22:55.986Z</time></trkpt><trkpt lat="42.5239883" lon="12.05177"><ele>434.0</ele><time>2026-04-30T11:22:56.987Z</time></trkpt><trkpt lat="42.5239117" lon="12.0516133"><ele>434.0</ele><time>2026-04-30T11:22:57.987Z</time></trkpt><trkpt lat="42.52383" lon="12.0514483"><ele>434.0</ele><time>2026-04-30T11:22:58.986Z</time></trkpt><trkpt lat="42.52375" lon="12.0512867"><ele>432.75</ele><time>2026-04-30T11:22:59.986Z</time></trkpt><trkpt lat="42.5236617" lon="12.051125"><ele>431.5</ele><time>2026-04-30T11:23:00.986Z</time></trkpt><trkpt lat="42.5235667" lon="12.0509733"><ele>430.25</ele><time>2026-04-30T11:23:01.986Z</time></trkpt><trkpt lat="42.5234733" lon="12.0508167"><ele>429.0</ele><time>2026-04-30T11:23:02.986Z</time></trkpt><trkpt lat="42.5233833" lon="12.0506467"><ele>427.33333333333337</ele><time>2026-04-30T11:23:03.986Z</time></trkpt><trkpt lat="42.5232983" lon="12.05048"><ele>425.6666666666667</ele><time>2026-04-30T11:23:04.986Z</time></trkpt><trkpt lat="42.5232067" lon="12.0503133"><ele>424.0</ele><time>2026-04-30T11:23:05.986Z</time></trkpt><trkpt lat="42.523115" lon="12.0501383"><ele>424.0</ele><time>2026-04-30T11:23:06.986Z</time></trkpt><trkpt lat="42.5230133" lon="12.0499733"><ele>424.0</ele><time>2026-04-30T11:23:07.986Z</time></trkpt><trkpt lat="42.5229183" lon="12.0498083"><ele>424.0</ele><time>2026-04-30T11:23:08.986Z</time></trkpt><trkpt lat="42.52283" lon="12.049645"><ele>422.33333333333337</ele><time>2026-04-30T11:23:09.986Z</time></trkpt><trkpt lat="42.5227283" lon="12.0494767"><ele>420.66666666666663</ele><time>2026-04-30T11:23:10.986Z</time></trkpt><trkpt lat="42.522625" lon="12.049315"><ele>419.0</ele><time>2026-04-30T11:23:11.986Z</time></trkpt><trkpt lat="42.5225167" lon="12.049155"><ele>416.66666666666663</ele><time>2026-04-30T11:23:12.986Z</time></trkpt><trkpt lat="42.5223983" lon="12.0490083"><ele>414.33333333333337</ele><time>2026-04-30T11:23:13.986Z</time></trkpt><trkpt lat="42.5222667" lon="12.0488667"><ele>412.0</ele><time>2026-04-30T11:23:14.986Z</time></trkpt><trkpt lat="42.522135" lon="12.0487233"><ele>411.0</ele><time>2026-04-30T11:23:15.986Z</time></trkpt><trkpt lat="42.522005" lon="12.048585"><ele>410.0</ele><time>2026-04-30T11:23:16.987Z</time></trkpt><trkpt lat="42.5218667" lon="12.0484533"><ele>409.0</ele><time>2026-04-30T11:23:17.986Z</time></trkpt><trkpt lat="42.5217217" lon="12.0483467"><ele>408.0</ele><time>2026-04-30T11:23:18.986Z</time></trkpt><trkpt lat="42.521565" lon="12.0482483"><ele>407.0</ele><time>2026-04-30T11:23:19.986Z</time></trkpt><trkpt lat="42.52141" lon="12.0481733"><ele>406.0</ele><time>2026-04-30T11:23:20.987Z</time></trkpt><trkpt lat="42.521245" lon="12.0481"><ele>406.0</ele><time>2026-04-30T11:23:21.987Z</time></trkpt><trkpt lat="42.521075" lon="12.0480417"><ele>406.0</ele><time>2026-04-30T11:23:22.986Z</time></trkpt><trkpt lat="42.520905" lon="12.0479917"><ele>406.0</ele><time>2026-04-30T11:23:23.986Z</time></trkpt><trkpt lat="42.52073" lon="12.0479617"><ele>406.0</ele><time>2026-04-30T11:23:24.986Z</time></trkpt><trkpt lat="42.52055" lon="12.0479417"><ele>406.0</ele><time>2026-04-30T11:23:25.986Z</time></trkpt><trkpt lat="42.5203717" lon="12.0479483"><ele>406.0</ele><time>2026-04-30T11:23:26.986Z</time></trkpt><trkpt lat="42.5201933" lon="12.0479667"><ele>406.33333333333337</ele><time>2026-04-30T11:23:27.986Z</time></trkpt><trkpt lat="42.5200183" lon="12.047995"><ele>406.66666666666663</ele><time>2026-04-30T11:23:28.986Z</time></trkpt><trkpt lat="42.519845" lon="12.04803"><ele>407.0</ele><time>2026-04-30T11:23:29.986Z</time></trkpt><trkpt lat="42.5196783" lon="12.0480783"><ele>408.66666666666663</ele><time>2026-04-30T11:23:30.987Z</time></trkpt><trkpt lat="42.519515" lon="12.0481433"><ele>410.33333333333337</ele><time>2026-04-30T11:23:31.986Z</time></trkpt><trkpt lat="42.5193683" lon="12.0482217"><ele>412.0</ele><time>2026-04-30T11:23:32.987Z</time></trkpt><trkpt lat="42.519225" lon="12.0483083"><ele>412.0</ele><time>2026-04-30T11:23:33.986Z</time></trkpt><trkpt lat="42.519095" lon="12.0484"><ele>412.0</ele><time>2026-04-30T11:23:34.986Z</time></trkpt><trkpt lat="42.51897" lon="12.0485"><ele>412.0</ele><time>2026-04-30T11:23:35.987Z</time></trkpt><trkpt lat="42.51884" lon="12.04862"><ele>412.0</ele><time>2026-04-30T11:23:36.986Z</time></trkpt><trkpt lat="42.518715" lon="12.0487367"><ele>412.0</ele><time>2026-04-30T11:23:37.986Z</time></trkpt><trkpt lat="42.5185883" lon="12.0488617"><ele>412.0</ele><time>2026-04-30T11:23:38.986Z</time></trkpt><trkpt lat="42.51847" lon="12.0489917"><ele>412.0</ele><time>2026-04-30T11:23:39.986Z</time></trkpt><trkpt lat="42.51834" lon="12.0491317"><ele>412.0</ele><time>2026-04-30T11:23:40.986Z</time></trkpt><trkpt lat="42.5182133" lon="12.0492733"><ele>412.0</ele><time>2026-04-30T11:23:41.987Z</time></trkpt><trkpt lat="42.5180817" lon="12.0494183"><ele>412.0</ele><time>2026-04-30T11:23:42.987Z</time></trkpt><trkpt lat="42.51795" lon="12.049565"><ele>411.0</ele><time>2026-04-30T11:23:43.986Z</time></trkpt><trkpt lat="42.5178233" lon="12.0497133"><ele>410.0</ele><time>2026-04-30T11:23:44.987Z</time></trkpt><trkpt lat="42.517695" lon="12.04986"><ele>409.0</ele><time>2026-04-30T11:23:45.986Z</time></trkpt><trkpt lat="42.5175683" lon="12.050005"><ele>407.0</ele><time>2026-04-30T11:23:46.986Z</time></trkpt><trkpt lat="42.5174367" lon="12.0501567"><ele>405.0</ele><time>2026-04-30T11:23:47.986Z</time></trkpt><trkpt lat="42.517305" lon="12.0503083"><ele>403.0</ele><time>2026-04-30T11:23:48.986Z</time></trkpt><trkpt lat="42.5171683" lon="12.0504617"><ele>402.33333333333337</ele><time>2026-04-30T11:23:49.986Z</time></trkpt><trkpt lat="42.517035" lon="12.05062"><ele>401.66666666666663</ele><time>2026-04-30T11:23:50.986Z</time></trkpt><trkpt lat="42.5169" lon="12.0507767"><ele>401.0</ele><time>2026-04-30T11:23:51.986Z</time></trkpt><trkpt lat="42.5167667" lon="12.05094"><ele>399.3333333333333</ele><time>2026-04-30T11:23:52.987Z</time></trkpt><trkpt lat="42.5166283" lon="12.0510967"><ele>397.66666666666663</ele><time>2026-04-30T11:23:53.986Z</time></trkpt><trkpt lat="42.5164883" lon="12.0512417"><ele>396.0</ele><time>2026-04-30T11:23:54.986Z</time></trkpt><trkpt lat="42.5163517" lon="12.051385"><ele>394.33333333333337</ele><time>2026-04-30T11:23:55.986Z</time></trkpt><trkpt lat="42.51622" lon="12.0515283"><ele>392.6666666666667</ele><time>2026-04-30T11:23:56.986Z</time></trkpt><trkpt lat="42.5160917" lon="12.051665"><ele>391.0</ele><time>2026-04-30T11:23:57.987Z</time></trkpt><trkpt lat="42.5159683" lon="12.0517983"><ele>390.6666666666667</ele><time>2026-04-30T11:23:58.986Z</time></trkpt><trkpt lat="42.5158383" lon="12.0519283"><ele>390.33333333333337</ele><time>2026-04-30T11:23:59.986Z</time></trkpt><trkpt lat="42.5157083" lon="12.0520417"><ele>390.0</ele><time>2026-04-30T11:24:00.986Z</time></trkpt><trkpt lat="42.5155733" lon="12.0521433"><ele>390.0</ele><time>2026-04-30T11:24:01.987Z</time></trkpt><trkpt lat="42.5154367" lon="12.052245"><ele>390.0</ele><time>2026-04-30T11:24:02.986Z</time></trkpt><trkpt lat="42.5152967" lon="12.0523383"><ele>390.0</ele><time>2026-04-30T11:24:03.986Z</time></trkpt><trkpt lat="42.5151483" lon="12.0524267"><ele>389.0</ele><time>2026-04-30T11:24:04.986Z</time></trkpt><trkpt lat="42.515015" lon="12.0525317"><ele>388.0</ele><time>2026-04-30T11:24:05.986Z</time></trkpt><trkpt lat="42.5148733" lon="12.0526217"><ele>387.0</ele><time>2026-04-30T11:24:06.987Z</time></trkpt><trkpt lat="42.5147383" lon="12.0527183"><ele>387.0</ele><time>2026-04-30T11:24:07.986Z</time></trkpt><trkpt lat="42.5145983" lon="12.0528033"><ele>387.0</ele><time>2026-04-30T11:24:08.986Z</time></trkpt><trkpt lat="42.5144633" lon="12.0528917"><ele>387.0</ele><time>2026-04-30T11:24:09.986Z</time></trkpt><trkpt lat="42.5143267" lon="12.0529817"><ele>385.5</ele><time>2026-04-30T11:24:10.986Z</time></trkpt><trkpt lat="42.51419" lon="12.0530633"><ele>384.0</ele><time>2026-04-30T11:24:11.987Z</time></trkpt><trkpt lat="42.5140633" lon="12.0531483"><ele>382.5</ele><time>2026-04-30T11:24:12.986Z</time></trkpt><trkpt lat="42.5139283" lon="12.0532333"><ele>381.0</ele><time>2026-04-30T11:24:13.986Z</time></trkpt><trkpt lat="42.513795" lon="12.0533167"><ele>380.25</ele><time>2026-04-30T11:24:14.986Z</time></trkpt><trkpt lat="42.5136633" lon="12.0534017"><ele>379.5</ele><time>2026-04-30T11:24:15.987Z</time></trkpt><trkpt lat="42.5135367" lon="12.05349"><ele>378.75</ele><time>2026-04-30T11:24:16.987Z</time></trkpt><trkpt lat="42.5134083" lon="12.053575"><ele>378.0</ele><time>2026-04-30T11:24:17.986Z</time></trkpt><trkpt lat="42.51328" lon="12.05366"><ele>378.0</ele><time>2026-04-30T11:24:18.986Z</time></trkpt><trkpt lat="42.513155" lon="12.0537433"><ele>378.0</ele><time>2026-04-30T11:24:19.986Z</time></trkpt><trkpt lat="42.5130267" lon="12.0538283"><ele>378.0</ele><time>2026-04-30T11:24:20.986Z</time></trkpt><trkpt lat="42.5128983" lon="12.0539167"><ele>378.0</ele><time>2026-04-30T11:24:21.987Z</time></trkpt><trkpt lat="42.512765" lon="12.0539983"><ele>377.0</ele><time>2026-04-30T11:24:22.986Z</time></trkpt><trkpt lat="42.5126367" lon="12.0540817"><ele>376.0</ele><time>2026-04-30T11:24:23.986Z</time></trkpt><trkpt lat="42.5125083" lon="12.0541717"><ele>375.0</ele><time>2026-04-30T11:24:24.987Z</time></trkpt><trkpt lat="42.51238" lon="12.0542633"><ele>374.0</ele><time>2026-04-30T11:24:25.986Z</time></trkpt><trkpt lat="42.5122433" lon="12.054355"><ele>373.33333333333337</ele><time>2026-04-30T11:24:26.986Z</time></trkpt><trkpt lat="42.5121017" lon="12.0544533"><ele>372.6666666666667</ele><time>2026-04-30T11:24:27.986Z</time></trkpt><trkpt lat="42.5119567" lon="12.05456"><ele>372.0</ele><time>2026-04-30T11:24:28.986Z</time></trkpt><trkpt lat="42.5118" lon="12.054675"><ele>370.3333333333333</ele><time>2026-04-30T11:24:29.987Z</time></trkpt><trkpt lat="42.5116433" lon="12.0547967"><ele>368.66666666666663</ele><time>2026-04-30T11:24:30.987Z</time></trkpt><trkpt lat="42.5114783" lon="12.0549217"><ele>367.0</ele><time>2026-04-30T11:24:31.987Z</time></trkpt><trkpt lat="42.5112967" lon="12.055055"><ele>365.3333333333333</ele><time>2026-04-30T11:24:32.986Z</time></trkpt><trkpt lat="42.5111117" lon="12.05519"><ele>363.6666666666667</ele><time>2026-04-30T11:24:33.987Z</time></trkpt><trkpt lat="42.5109267" lon="12.0553283"><ele>362.0</ele><time>2026-04-30T11:24:34.986Z</time></trkpt><trkpt lat="42.5107433" lon="12.0554767"><ele>362.0</ele><time>2026-04-30T11:24:35.986Z</time></trkpt><trkpt lat="42.5105467" lon="12.0556333"><ele>362.0</ele><time>2026-04-30T11:24:36.986Z</time></trkpt><trkpt lat="42.5103467" lon="12.055785"><ele>359.5</ele><time>2026-04-30T11:24:37.986Z</time></trkpt><trkpt lat="42.5101483" lon="12.05593"><ele>357.0</ele><time>2026-04-30T11:24:38.986Z</time></trkpt><trkpt lat="42.5099433" lon="12.056075"><ele>357.0</ele><time>2026-04-30T11:24:39.986Z</time></trkpt><trkpt lat="42.5097417" lon="12.05622"><ele>357.0</ele><time>2026-04-30T11:24:40.987Z</time></trkpt><trkpt lat="42.5095383" lon="12.0563667"><ele>356.0</ele><time>2026-04-30T11:24:41.986Z</time></trkpt><trkpt lat="42.509345" lon="12.05651"><ele>355.0</ele><time>2026-04-30T11:24:42.986Z</time></trkpt><trkpt lat="42.5091567" lon="12.0566483"><ele>354.0</ele><time>2026-04-30T11:24:43.986Z</time></trkpt><trkpt lat="42.5089567" lon="12.05679"><ele>354.0</ele><time>2026-04-30T11:24:44.986Z</time></trkpt><trkpt lat="42.508755" lon="12.0569217"><ele>354.0</ele><time>2026-04-30T11:24:45.987Z</time></trkpt><trkpt lat="42.5085667" lon="12.0570517"><ele>354.0</ele><time>2026-04-30T11:24:46.986Z</time></trkpt><trkpt lat="42.5083717" lon="12.0571767"><ele>353.6666666666667</ele><time>2026-04-30T11:24:47.987Z</time></trkpt><trkpt lat="42.508175" lon="12.0573"><ele>353.33333333333337</ele><time>2026-04-30T11:24:48.986Z</time></trkpt><trkpt lat="42.507975" lon="12.057425"><ele>353.0</ele><time>2026-04-30T11:24:49.986Z</time></trkpt><trkpt lat="42.507775" lon="12.0575417"><ele>352.0</ele><time>2026-04-30T11:24:50.986Z</time></trkpt><trkpt lat="42.50758" lon="12.0576583"><ele>351.0</ele><time>2026-04-30T11:24:51.986Z</time></trkpt><trkpt lat="42.5073867" lon="12.0577733"><ele>350.0</ele><time>2026-04-30T11:24:52.986Z</time></trkpt><trkpt lat="42.5071883" lon="12.0578717"><ele>348.6666666666667</ele><time>2026-04-30T11:24:53.986Z</time></trkpt><trkpt lat="42.507" lon="12.0579617"><ele>347.3333333333333</ele><time>2026-04-30T11:24:54.986Z</time></trkpt><trkpt lat="42.506805" lon="12.0580517"><ele>346.0</ele><time>2026-04-30T11:24:55.986Z</time></trkpt><trkpt lat="42.5066117" lon="12.05813"><ele>346.0</ele><time>2026-04-30T11:24:56.986Z</time></trkpt><trkpt lat="42.5064167" lon="12.0582104"><ele>346.0</ele><time>2026-04-30T11:24:57.986Z</time></trkpt><trkpt lat="42.5062265" lon="12.0582876"><ele>346.0</ele><time>2026-04-30T11:24:58.987Z</time></trkpt><trkpt lat="42.506036" lon="12.0583648"><ele>346.3333333333333</ele><time>2026-04-30T11:24:59.987Z</time></trkpt><trkpt lat="42.5058541" lon="12.0584496"><ele>346.6666666666667</ele><time>2026-04-30T11:25:00.987Z</time></trkpt><trkpt lat="42.5056802" lon="12.0585475"><ele>347.0</ele><time>2026-04-30T11:25:01.986Z</time></trkpt><trkpt lat="42.5055066" lon="12.0586648"><ele>346.6666666666667</ele><time>2026-04-30T11:25:02.986Z</time></trkpt><trkpt lat="42.5053353" lon="12.0587962"><ele>346.3333333333333</ele><time>2026-04-30T11:25:03.986Z</time></trkpt><trkpt lat="42.5051685" lon="12.0589302"><ele>346.0</ele><time>2026-04-30T11:25:04.987Z</time></trkpt><trkpt lat="42.5050049" lon="12.0590675"><ele>345.66666666666663</ele><time>2026-04-30T11:25:05.986Z</time></trkpt><trkpt lat="42.5048457" lon="12.059212"><ele>345.3333333333333</ele><time>2026-04-30T11:25:06.986Z</time></trkpt><trkpt lat="42.5046839" lon="12.0593544"><ele>345.0</ele><time>2026-04-30T11:25:07.987Z</time></trkpt><trkpt lat="42.5045204" lon="12.0594918"><ele>344.6666666666667</ele><time>2026-04-30T11:25:08.986Z</time></trkpt><trkpt lat="42.5043524" lon="12.0596161"><ele>344.33333333333337</ele><time>2026-04-30T11:25:09.986Z</time></trkpt><trkpt lat="42.5041857" lon="12.0597314"><ele>344.0</ele><time>2026-04-30T11:25:10.986Z</time></trkpt><trkpt lat="42.5040133" lon="12.0598371"><ele>344.0</ele><time>2026-04-30T11:25:11.987Z</time></trkpt><trkpt lat="42.5038358" lon="12.0599389"><ele>344.0</ele><time>2026-04-30T11:25:12.987Z</time></trkpt><trkpt lat="42.5036584" lon="12.0600369"><ele>344.0</ele><time>2026-04-30T11:25:13.987Z</time></trkpt><trkpt lat="42.503485" lon="12.060135"><ele>344.0</ele><time>2026-04-30T11:25:14.986Z</time></trkpt><trkpt lat="42.5033071" lon="12.0602272"><ele>344.0</ele><time>2026-04-30T11:25:15.986Z</time></trkpt><trkpt lat="42.5031284" lon="12.0603131"><ele>344.0</ele><time>2026-04-30T11:25:16.986Z</time></trkpt><trkpt lat="42.5029444" lon="12.0603864"><ele>344.0</ele><time>2026-04-30T11:25:17.986Z</time></trkpt><trkpt lat="42.5027563" lon="12.0604562"><ele>344.0</ele><time>2026-04-30T11:25:18.986Z</time></trkpt><trkpt lat="42.5025684" lon="12.0605321"><ele>344.0</ele><time>2026-04-30T11:25:19.986Z</time></trkpt><trkpt lat="42.5023749" lon="12.0606079"><ele>344.0</ele><time>2026-04-30T11:25:20.986Z</time></trkpt><trkpt lat="42.5021756" lon="12.0606789"><ele>344.0</ele><time>2026-04-30T11:25:21.986Z</time></trkpt><trkpt lat="42.5019758" lon="12.060753"><ele>344.0</ele><time>2026-04-30T11:25:22.987Z</time></trkpt><trkpt lat="42.5017722" lon="12.0608284"><ele>343.0</ele><time>2026-04-30T11:25:23.986Z</time></trkpt><trkpt lat="42.5015644" lon="12.060906"><ele>342.0</ele><time>2026-04-30T11:25:24.986Z</time></trkpt><trkpt lat="42.5013578" lon="12.0609844"><ele>341.0</ele><time>2026-04-30T11:25:25.986Z</time></trkpt><trkpt lat="42.5011499" lon="12.0610664"><ele>339.6666666666667</ele><time>2026-04-30T11:25:26.986Z</time></trkpt><trkpt lat="42.5009471" lon="12.06115"><ele>338.3333333333333</ele><time>2026-04-30T11:25:27.986Z</time></trkpt><trkpt lat="42.5007535" lon="12.0612259"><ele>337.0</ele><time>2026-04-30T11:25:28.986Z</time></trkpt><trkpt lat="42.5005578" lon="12.0612951"><ele>334.0</ele><time>2026-04-30T11:25:29.986Z</time></trkpt><trkpt lat="42.5003643" lon="12.0613668"><ele>331.0</ele><time>2026-04-30T11:25:30.986Z</time></trkpt><trkpt lat="42.5001658" lon="12.0614411"><ele>328.0</ele><time>2026-04-30T11:25:31.986Z</time></trkpt><trkpt lat="42.4999726" lon="12.0615122"><ele>328.0</ele><time>2026-04-30T11:25:32.987Z</time></trkpt><trkpt lat="42.4997778" lon="12.0615856"><ele>328.0</ele><time>2026-04-30T11:25:33.987Z</time></trkpt><trkpt lat="42.4995868" lon="12.0616554"><ele>328.0</ele><time>2026-04-30T11:25:34.987Z</time></trkpt><trkpt lat="42.4993976" lon="12.061726"><ele>326.66666666666663</ele><time>2026-04-30T11:25:35.987Z</time></trkpt><trkpt lat="42.4992148" lon="12.0617934"><ele>325.3333333333333</ele><time>2026-04-30T11:25:36.986Z</time></trkpt><trkpt lat="42.4990347" lon="12.0618646"><ele>324.0</ele><time>2026-04-30T11:25:37.986Z</time></trkpt><trkpt lat="42.4988549" lon="12.0619304"><ele>322.0</ele><time>2026-04-30T11:25:38.986Z</time></trkpt><trkpt lat="42.4986807" lon="12.0619988"><ele>320.0</ele><time>2026-04-30T11:25:39.987Z</time></trkpt><trkpt lat="42.4985097" lon="12.0620643"><ele>318.0</ele><time>2026-04-30T11:25:40.986Z</time></trkpt><trkpt lat="42.4983477" lon="12.0621288"><ele>318.0</ele><time>2026-04-30T11:25:41.986Z</time></trkpt><trkpt lat="42.4981855" lon="12.0621897"><ele>318.0</ele><time>2026-04-30T11:25:42.987Z</time></trkpt><trkpt lat="42.4980209" lon="12.062256"><ele>318.0</ele><time>2026-04-30T11:25:43.987Z</time></trkpt><trkpt lat="42.4978505" lon="12.0623228"><ele>318.0</ele><time>2026-04-30T11:25:44.987Z</time></trkpt><trkpt lat="42.4976772" lon="12.0623911"><ele>318.0</ele><time>2026-04-30T11:25:45.986Z</time></trkpt><trkpt lat="42.4974986" lon="12.0624549"><ele>318.0</ele><time>2026-04-30T11:25:46.986Z</time></trkpt><trkpt lat="42.4973228" lon="12.0625218"><ele>317.3333333333333</ele><time>2026-04-30T11:25:47.986Z</time></trkpt><trkpt lat="42.4971453" lon="12.062592"><ele>316.66666666666663</ele><time>2026-04-30T11:25:48.986Z</time></trkpt><trkpt lat="42.496967" lon="12.0626574"><ele>316.0</ele><time>2026-04-30T11:25:49.987Z</time></trkpt><trkpt lat="42.4967907" lon="12.0627263"><ele>316.0</ele><time>2026-04-30T11:25:50.986Z</time></trkpt><trkpt lat="42.4966148" lon="12.062795"><ele>316.0</ele><time>2026-04-30T11:25:51.986Z</time></trkpt><trkpt lat="42.4964318" lon="12.0628615"><ele>316.0</ele><time>2026-04-30T11:25:52.986Z</time></trkpt><trkpt lat="42.4962497" lon="12.0629337"><ele>315.3333333333333</ele><time>2026-04-30T11:25:53.986Z</time></trkpt><trkpt lat="42.4960736" lon="12.0630046"><ele>314.6666666666667</ele><time>2026-04-30T11:25:54.987Z</time></trkpt><trkpt lat="42.4958895" lon="12.0630715"><ele>314.0</ele><time>2026-04-30T11:25:55.986Z</time></trkpt><trkpt lat="42.4957033" lon="12.0631396"><ele>314.0</ele><time>2026-04-30T11:25:56.986Z</time></trkpt><trkpt lat="42.4955215" lon="12.0632091"><ele>314.0</ele><time>2026-04-30T11:25:57.986Z</time></trkpt><trkpt lat="42.4953446" lon="12.0632789"><ele>314.0</ele><time>2026-04-30T11:25:58.986Z</time></trkpt><trkpt lat="42.4951617" lon="12.0633498"><ele>313.33333333333337</ele><time>2026-04-30T11:25:59.986Z</time></trkpt><trkpt lat="42.4949781" lon="12.0634144"><ele>312.6666666666667</ele><time>2026-04-30T11:26:00.986Z</time></trkpt><trkpt lat="42.4947904" lon="12.0634756"><ele>312.0</ele><time>2026-04-30T11:26:01.986Z</time></trkpt><trkpt lat="42.4945968" lon="12.0635314"><ele>311.6666666666667</ele><time>2026-04-30T11:26:02.986Z</time></trkpt><trkpt lat="42.4944015" lon="12.0635746"><ele>311.33333333333337</ele><time>2026-04-30T11:26:03.986Z</time></trkpt><trkpt lat="42.4942032" lon="12.063614"><ele>311.0</ele><time>2026-04-30T11:26:04.987Z</time></trkpt><trkpt lat="42.4940017" lon="12.0636323"><ele>311.0</ele><time>2026-04-30T11:26:05.986Z</time></trkpt><trkpt lat="42.4937997" lon="12.063653"><ele>311.0</ele><time>2026-04-30T11:26:06.986Z</time></trkpt><trkpt lat="42.4935963" lon="12.0636732"><ele>311.0</ele><time>2026-04-30T11:26:07.986Z</time></trkpt><trkpt lat="42.4933928" lon="12.0636957"><ele>311.0</ele><time>2026-04-30T11:26:08.986Z</time></trkpt><trkpt lat="42.4931924" lon="12.0637359"><ele>311.0</ele><time>2026-04-30T11:26:09.986Z</time></trkpt><trkpt lat="42.4929923" lon="12.0637915"><ele>311.0</ele><time>2026-04-30T11:26:10.986Z</time></trkpt><trkpt lat="42.4928039" lon="12.0638608"><ele>312.33333333333337</ele><time>2026-04-30T11:26:11.986Z</time></trkpt><trkpt lat="42.4926152" lon="12.0639481"><ele>313.6666666666667</ele><time>2026-04-30T11:26:12.986Z</time></trkpt><trkpt lat="42.4924314" lon="12.0640503"><ele>315.0</ele><time>2026-04-30T11:26:13.986Z</time></trkpt><trkpt lat="42.4922538" lon="12.0641654"><ele>315.3333333333333</ele><time>2026-04-30T11:26:14.986Z</time></trkpt><trkpt lat="42.4920791" lon="12.0642897"><ele>315.66666666666663</ele><time>2026-04-30T11:26:15.986Z</time></trkpt><trkpt lat="42.4919038" lon="12.0644171"><ele>316.0</ele><time>2026-04-30T11:26:16.986Z</time></trkpt><trkpt lat="42.491739" lon="12.0645485"><ele>316.0</ele><time>2026-04-30T11:26:17.987Z</time></trkpt><trkpt lat="42.4915745" lon="12.0646752"><ele>316.0</ele><time>2026-04-30T11:26:18.986Z</time></trkpt><trkpt lat="42.4914102" lon="12.0647995"><ele>316.0</ele><time>2026-04-30T11:26:19.986Z</time></trkpt><trkpt lat="42.4912413" lon="12.0649285"><ele>316.3333333333333</ele><time>2026-04-30T11:26:20.986Z</time></trkpt><trkpt lat="42.4910748" lon="12.0650617"><ele>316.6666666666667</ele><time>2026-04-30T11:26:21.986Z</time></trkpt><trkpt lat="42.490916" lon="12.0651953"><ele>317.0</ele><time>2026-04-30T11:26:22.986Z</time></trkpt><trkpt lat="42.4907601" lon="12.0653303"><ele>317.0</ele><time>2026-04-30T11:26:23.987Z</time></trkpt><trkpt lat="42.4906075" lon="12.0654689"><ele>317.0</ele><time>2026-04-30T11:26:24.986Z</time></trkpt><trkpt lat="42.4904533" lon="12.0656099"><ele>317.0</ele><time>2026-04-30T11:26:25.986Z</time></trkpt><trkpt lat="42.4902962" lon="12.0657582"><ele>317.6666666666667</ele><time>2026-04-30T11:26:26.986Z</time></trkpt><trkpt lat="42.4901329" lon="12.0659033"><ele>318.3333333333333</ele><time>2026-04-30T11:26:27.986Z</time></trkpt><trkpt lat="42.4899677" lon="12.0660457"><ele>319.0</ele><time>2026-04-30T11:26:28.987Z</time></trkpt><trkpt lat="42.4898009" lon="12.0661851"><ele>319.0</ele><time>2026-04-30T11:26:29.986Z</time></trkpt><trkpt lat="42.4896312" lon="12.0663215"><ele>319.0</ele><time>2026-04-30T11:26:30.986Z</time></trkpt><trkpt lat="42.4894604" lon="12.0664478"><ele>319.0</ele><time>2026-04-30T11:26:31.986Z</time></trkpt><trkpt lat="42.4892832" lon="12.0665672"><ele>320.3333333333333</ele><time>2026-04-30T11:26:32.986Z</time></trkpt><trkpt lat="42.4891004" lon="12.0666731"><ele>321.6666666666667</ele><time>2026-04-30T11:26:33.986Z</time></trkpt><trkpt lat="42.4889189" lon="12.0667709"><ele>323.0</ele><time>2026-04-30T11:26:34.987Z</time></trkpt><trkpt lat="42.4887353" lon="12.0668559"><ele>323.6666666666667</ele><time>2026-04-30T11:26:35.986Z</time></trkpt><trkpt lat="42.48855" lon="12.0669378"><ele>324.3333333333333</ele><time>2026-04-30T11:26:36.986Z</time></trkpt><trkpt lat="42.4883647" lon="12.06702"><ele>325.0</ele><time>2026-04-30T11:26:37.987Z</time></trkpt><trkpt lat="42.4881769" lon="12.0670997"><ele>325.0</ele><time>2026-04-30T11:26:38.986Z</time></trkpt><trkpt lat="42.4879874" lon="12.0671769"><ele>325.0</ele><time>2026-04-30T11:26:39.986Z</time></trkpt><trkpt lat="42.487795" lon="12.0672492"><ele>325.0</ele><time>2026-04-30T11:26:40.986Z</time></trkpt><trkpt lat="42.4876031" lon="12.0673242"><ele>324.0</ele><time>2026-04-30T11:26:41.987Z</time></trkpt><trkpt lat="42.4874077" lon="12.0673908"><ele>323.0</ele><time>2026-04-30T11:26:42.987Z</time></trkpt><trkpt lat="42.4872174" lon="12.067455"><ele>322.0</ele><time>2026-04-30T11:26:43.987Z</time></trkpt><trkpt lat="42.4870311" lon="12.0675113"><ele>321.0</ele><time>2026-04-30T11:26:44.987Z</time></trkpt><trkpt lat="42.486846" lon="12.0675725"><ele>320.0</ele><time>2026-04-30T11:26:45.986Z</time></trkpt><trkpt lat="42.4866599" lon="12.0676303"><ele>319.0</ele><time>2026-04-30T11:26:46.986Z</time></trkpt><trkpt lat="42.4864723" lon="12.0676946"><ele>319.0</ele><time>2026-04-30T11:26:47.986Z</time></trkpt><trkpt lat="42.4862818" lon="12.0677617"><ele>319.0</ele><time>2026-04-30T11:26:48.986Z</time></trkpt><trkpt lat="42.4860941" lon="12.0678273"><ele>319.0</ele><time>2026-04-30T11:26:49.986Z</time></trkpt><trkpt lat="42.4859108" lon="12.0678937"><ele>319.3333333333333</ele><time>2026-04-30T11:26:50.987Z</time></trkpt><trkpt lat="42.4857266" lon="12.067953"><ele>319.6666666666667</ele><time>2026-04-30T11:26:51.986Z</time></trkpt><trkpt lat="42.4855492" lon="12.0680125"><ele>320.0</ele><time>2026-04-30T11:26:52.986Z</time></trkpt><trkpt lat="42.4853967" lon="12.0680658"><ele>319.6</ele><time>2026-04-30T11:26:53.986Z</time></trkpt><trkpt lat="42.4852707" lon="12.0681082"><ele>319.2</ele><time>2026-04-30T11:26:54.987Z</time></trkpt><trkpt lat="42.4851664" lon="12.0681458"><ele>318.8</ele><time>2026-04-30T11:26:55.986Z</time></trkpt><trkpt lat="42.4850946" lon="12.0681781"><ele>318.4</ele><time>2026-04-30T11:26:56.986Z</time></trkpt><trkpt lat="42.4850061" lon="12.0682221"><ele>318.0</ele><time>2026-04-30T11:26:58.986Z</time></trkpt><trkpt lat="42.4848809" lon="12.0682818"><ele>317.75</ele><time>2026-04-30T11:27:00.986Z</time></trkpt><trkpt lat="42.4847893" lon="12.0683129"><ele>317.5</ele><time>2026-04-30T11:27:01.986Z</time></trkpt><trkpt lat="42.4846818" lon="12.0683442"><ele>317.25</ele><time>2026-04-30T11:27:02.986Z</time></trkpt><trkpt lat="42.4845598" lon="12.0683695"><ele>317.0</ele><time>2026-04-30T11:27:03.986Z</time></trkpt><trkpt lat="42.4844206" lon="12.0684007"><ele>317.0</ele><time>2026-04-30T11:27:04.986Z</time></trkpt><trkpt lat="42.4842714" lon="12.0684396"><ele>317.0</ele><time>2026-04-30T11:27:05.986Z</time></trkpt><trkpt lat="42.4841156" lon="12.0684873"><ele>317.0</ele><time>2026-04-30T11:27:06.986Z</time></trkpt><trkpt lat="42.483951" lon="12.0685395"><ele>317.0</ele><time>2026-04-30T11:27:07.986Z</time></trkpt><trkpt lat="42.4837816" lon="12.0685959"><ele>317.0</ele><time>2026-04-30T11:27:08.986Z</time></trkpt><trkpt lat="42.4836128" lon="12.0686626"><ele>317.0</ele><time>2026-04-30T11:27:09.986Z</time></trkpt><trkpt lat="42.4834489" lon="12.0687201"><ele>317.33333333333337</ele><time>2026-04-30T11:27:10.987Z</time></trkpt><trkpt lat="42.483284" lon="12.0687762"><ele>317.6666666666667</ele><time>2026-04-30T11:27:11.987Z</time></trkpt><trkpt lat="42.4831213" lon="12.0688334"><ele>318.0</ele><time>2026-04-30T11:27:12.987Z</time></trkpt><trkpt lat="42.4829571" lon="12.0688888"><ele>318.0</ele><time>2026-04-30T11:27:13.986Z</time></trkpt><trkpt lat="42.4827862" lon="12.0689415"><ele>318.0</ele><time>2026-04-30T11:27:14.986Z</time></trkpt><trkpt lat="42.4826097" lon="12.0689983"><ele>318.0</ele><time>2026-04-30T11:27:15.987Z</time></trkpt><trkpt lat="42.482435" lon="12.0690578"><ele>318.6666666666667</ele><time>2026-04-30T11:27:16.986Z</time></trkpt><trkpt lat="42.4822608" lon="12.0691214"><ele>319.33333333333337</ele><time>2026-04-30T11:27:17.986Z</time></trkpt><trkpt lat="42.4820847" lon="12.0691856"><ele>320.0</ele><time>2026-04-30T11:27:18.986Z</time></trkpt><trkpt lat="42.4819091" lon="12.0692437"><ele>320.6666666666667</ele><time>2026-04-30T11:27:19.987Z</time></trkpt><trkpt lat="42.4817281" lon="12.0693012"><ele>321.3333333333333</ele><time>2026-04-30T11:27:20.986Z</time></trkpt><trkpt lat="42.4815435" lon="12.0693632"><ele>322.0</ele><time>2026-04-30T11:27:21.986Z</time></trkpt><trkpt lat="42.4813493" lon="12.0694297"><ele>322.66666666666663</ele><time>2026-04-30T11:27:22.986Z</time></trkpt><trkpt lat="42.4811493" lon="12.0694933"><ele>323.3333333333333</ele><time>2026-04-30T11:27:23.986Z</time></trkpt><trkpt lat="42.4809399" lon="12.0695641"><ele>324.0</ele><time>2026-04-30T11:27:24.986Z</time></trkpt><trkpt lat="42.4807306" lon="12.0696396"><ele>324.0</ele><time>2026-04-30T11:27:25.986Z</time></trkpt><trkpt lat="42.4805122" lon="12.069713"><ele>324.0</ele><time>2026-04-30T11:27:26.986Z</time></trkpt><trkpt lat="42.4802927" lon="12.069784"><ele>325.5</ele><time>2026-04-30T11:27:27.986Z</time></trkpt><trkpt lat="42.4800732" lon="12.0698544"><ele>327.0</ele><time>2026-04-30T11:27:28.987Z</time></trkpt><trkpt lat="42.47985" lon="12.0699339"><ele>327.0</ele><time>2026-04-30T11:27:29.986Z</time></trkpt><trkpt lat="42.4796238" lon="12.0700167"><ele>327.0</ele><time>2026-04-30T11:27:30.986Z</time></trkpt><trkpt lat="42.4793975" lon="12.0700897"><ele>325.5</ele><time>2026-04-30T11:27:31.986Z</time></trkpt><trkpt lat="42.479168" lon="12.0701586"><ele>324.0</ele><time>2026-04-30T11:27:32.986Z</time></trkpt><trkpt lat="42.4789393" lon="12.070226"><ele>322.5</ele><time>2026-04-30T11:27:33.986Z</time></trkpt><trkpt lat="42.4787132" lon="12.0702974"><ele>321.0</ele><time>2026-04-30T11:27:34.986Z</time></trkpt><trkpt lat="42.4784926" lon="12.0703775"><ele>321.0</ele><time>2026-04-30T11:27:35.986Z</time></trkpt><trkpt lat="42.4782668" lon="12.0704577"><ele>321.0</ele><time>2026-04-30T11:27:36.986Z</time></trkpt><trkpt lat="42.4780393" lon="12.0705428"><ele>321.0</ele><time>2026-04-30T11:27:37.987Z</time></trkpt><trkpt lat="42.4778148" lon="12.0706402"><ele>321.0</ele><time>2026-04-30T11:27:38.986Z</time></trkpt><trkpt lat="42.4775942" lon="12.0707578"><ele>319.5</ele><time>2026-04-30T11:27:39.986Z</time></trkpt><trkpt lat="42.4773766" lon="12.0708841"><ele>318.0</ele><time>2026-04-30T11:27:40.986Z</time></trkpt><trkpt lat="42.4771567" lon="12.0710078"><ele>318.5</ele><time>2026-04-30T11:27:41.986Z</time></trkpt><trkpt lat="42.4769392" lon="12.071129"><ele>319.0</ele><time>2026-04-30T11:27:42.986Z</time></trkpt><trkpt lat="42.4767216" lon="12.0712525"><ele>319.0</ele><time>2026-04-30T11:27:43.986Z</time></trkpt><trkpt lat="42.476507" lon="12.0713781"><ele>319.0</ele><time>2026-04-30T11:27:44.986Z</time></trkpt><trkpt lat="42.476296" lon="12.0715008"><ele>318.0</ele><time>2026-04-30T11:27:45.987Z</time></trkpt><trkpt lat="42.4760896" lon="12.0716213"><ele>317.0</ele><time>2026-04-30T11:27:46.986Z</time></trkpt><trkpt lat="42.4758729" lon="12.0717403"><ele>317.0</ele><time>2026-04-30T11:27:47.986Z</time></trkpt><trkpt lat="42.4756587" lon="12.0718575"><ele>317.0</ele><time>2026-04-30T11:27:48.987Z</time></trkpt><trkpt lat="42.4754417" lon="12.0719768"><ele>317.5</ele><time>2026-04-30T11:27:49.986Z</time></trkpt><trkpt lat="42.4752262" lon="12.0721014"><ele>318.0</ele><time>2026-04-30T11:27:50.986Z</time></trkpt><trkpt lat="42.4750107" lon="12.0722216"><ele>318.0</ele><time>2026-04-30T11:27:51.986Z</time></trkpt><trkpt lat="42.4747972" lon="12.0723512"><ele>318.0</ele><time>2026-04-30T11:27:52.986Z</time></trkpt><trkpt lat="42.4745855" lon="12.0724835"><ele>317.0</ele><time>2026-04-30T11:27:53.986Z</time></trkpt><trkpt lat="42.4743763" lon="12.0726166"><ele>316.0</ele><time>2026-04-30T11:27:54.986Z</time></trkpt><trkpt lat="42.4741665" lon="12.0727486"><ele>316.0</ele><time>2026-04-30T11:27:55.986Z</time></trkpt><trkpt lat="42.473951" lon="12.0728693"><ele>316.0</ele><time>2026-04-30T11:27:56.986Z</time></trkpt><trkpt lat="42.4737296" lon="12.072981"><ele>316.5</ele><time>2026-04-30T11:27:57.986Z</time></trkpt><trkpt lat="42.4735059" lon="12.0730805"><ele>317.0</ele><time>2026-04-30T11:27:58.986Z</time></trkpt><trkpt lat="42.4732837" lon="12.0731715"><ele>317.0</ele><time>2026-04-30T11:27:59.986Z</time></trkpt><trkpt lat="42.4730544" lon="12.0732653"><ele>317.0</ele><time>2026-04-30T11:28:00.987Z</time></trkpt><trkpt lat="42.4728126" lon="12.073364"><ele>315.0</ele><time>2026-04-30T11:28:01.986Z</time></trkpt><trkpt lat="42.4725608" lon="12.0734597"><ele>313.0</ele><time>2026-04-30T11:28:02.986Z</time></trkpt><trkpt lat="42.4723021" lon="12.0735387"><ele>312.0</ele><time>2026-04-30T11:28:03.986Z</time></trkpt><trkpt lat="42.4720439" lon="12.0736004"><ele>311.0</ele><time>2026-04-30T11:28:04.986Z</time></trkpt><trkpt lat="42.4717901" lon="12.0736524"><ele>311.0</ele><time>2026-04-30T11:28:05.987Z</time></trkpt><trkpt lat="42.4715332" lon="12.0736999"><ele>311.0</ele><time>2026-04-30T11:28:06.986Z</time></trkpt><trkpt lat="42.4712818" lon="12.0737413"><ele>310.0</ele><time>2026-04-30T11:28:07.986Z</time></trkpt><trkpt lat="42.4710307" lon="12.0737753"><ele>309.0</ele><time>2026-04-30T11:28:08.987Z</time></trkpt><trkpt lat="42.4707825" lon="12.073809"><ele>309.0</ele><time>2026-04-30T11:28:09.987Z</time></trkpt><trkpt lat="42.4705404" lon="12.0738435"><ele>309.0</ele><time>2026-04-30T11:28:10.986Z</time></trkpt><trkpt lat="42.4702943" lon="12.0738766"><ele>312.0</ele><time>2026-04-30T11:28:11.986Z</time></trkpt><trkpt lat="42.4700595" lon="12.0739087"><ele>315.0</ele><time>2026-04-30T11:28:12.986Z</time></trkpt><trkpt lat="42.4698177" lon="12.0739308"><ele>315.5</ele><time>2026-04-30T11:28:13.986Z</time></trkpt><trkpt lat="42.4695766" lon="12.0739396"><ele>316.0</ele><time>2026-04-30T11:28:14.987Z</time></trkpt><trkpt lat="42.4693367" lon="12.0739256"><ele>316.0</ele><time>2026-04-30T11:28:15.986Z</time></trkpt><trkpt lat="42.4690989" lon="12.0738893"><ele>316.0</ele><time>2026-04-30T11:28:16.986Z</time></trkpt><trkpt lat="42.4688674" lon="12.0738467"><ele>315.5</ele><time>2026-04-30T11:28:17.986Z</time></trkpt><trkpt lat="42.468638" lon="12.0737994"><ele>315.0</ele><time>2026-04-30T11:28:18.986Z</time></trkpt><trkpt lat="42.468411" lon="12.0737606"><ele>315.0</ele><time>2026-04-30T11:28:19.987Z</time></trkpt><trkpt lat="42.4681985" lon="12.0737249"><ele>315.0</ele><time>2026-04-30T11:28:20.986Z</time></trkpt><trkpt lat="42.4680015" lon="12.0736846"><ele>315.0</ele><time>2026-04-30T11:28:21.987Z</time></trkpt><trkpt lat="42.4678101" lon="12.0736462"><ele>315.3333333333333</ele><time>2026-04-30T11:28:22.986Z</time></trkpt><trkpt lat="42.4676231" lon="12.0736136"><ele>315.66666666666663</ele><time>2026-04-30T11:28:23.986Z</time></trkpt><trkpt lat="42.4674364" lon="12.0735796"><ele>316.0</ele><time>2026-04-30T11:28:24.986Z</time></trkpt><trkpt lat="42.467253" lon="12.0735485"><ele>316.66666666666663</ele><time>2026-04-30T11:28:25.986Z</time></trkpt><trkpt lat="42.4670673" lon="12.0735114"><ele>317.3333333333333</ele><time>2026-04-30T11:28:26.986Z</time></trkpt><trkpt lat="42.4668786" lon="12.0734709"><ele>318.0</ele><time>2026-04-30T11:28:27.987Z</time></trkpt><trkpt lat="42.4666829" lon="12.0734233"><ele>318.0</ele><time>2026-04-30T11:28:28.986Z</time></trkpt><trkpt lat="42.4664832" lon="12.0733767"><ele>318.0</ele><time>2026-04-30T11:28:29.987Z</time></trkpt><trkpt lat="42.4662798" lon="12.0733321"><ele>318.0</ele><time>2026-04-30T11:28:30.987Z</time></trkpt><trkpt lat="42.4660778" lon="12.073292"><ele>318.3333333333333</ele><time>2026-04-30T11:28:31.986Z</time></trkpt><trkpt lat="42.465871" lon="12.0732554"><ele>318.66666666666663</ele><time>2026-04-30T11:28:32.986Z</time></trkpt><trkpt lat="42.4656608" lon="12.0732276"><ele>319.0</ele><time>2026-04-30T11:28:33.986Z</time></trkpt><trkpt lat="42.4654495" lon="12.0732215"><ele>318.0</ele><time>2026-04-30T11:28:34.986Z</time></trkpt><trkpt lat="42.4652456" lon="12.0732419"><ele>317.0</ele><time>2026-04-30T11:28:35.987Z</time></trkpt><trkpt lat="42.4650412" lon="12.073288"><ele>316.0</ele><time>2026-04-30T11:28:36.986Z</time></trkpt><trkpt lat="42.4648411" lon="12.0733493"><ele>315.66666666666663</ele><time>2026-04-30T11:28:37.986Z</time></trkpt><trkpt lat="42.4646405" lon="12.0734135"><ele>315.3333333333333</ele><time>2026-04-30T11:28:38.986Z</time></trkpt><trkpt lat="42.4644474" lon="12.0734764"><ele>315.0</ele><time>2026-04-30T11:28:39.987Z</time></trkpt><trkpt lat="42.4642533" lon="12.073536"><ele>315.0</ele><time>2026-04-30T11:28:40.986Z</time></trkpt><trkpt lat="42.4640582" lon="12.0735882"><ele>315.0</ele><time>2026-04-30T11:28:41.987Z</time></trkpt><trkpt lat="42.4638699" lon="12.0736372"><ele>315.0</ele><time>2026-04-30T11:28:42.986Z</time></trkpt><trkpt lat="42.4636886" lon="12.0736935"><ele>315.0</ele><time>2026-04-30T11:28:43.986Z</time></trkpt><trkpt lat="42.4635157" lon="12.0737651"><ele>315.0</ele><time>2026-04-30T11:28:44.986Z</time></trkpt><trkpt lat="42.4633506" lon="12.0738531"><ele>315.0</ele><time>2026-04-30T11:28:45.986Z</time></trkpt><trkpt lat="42.4631881" lon="12.0739423"><ele>315.0</ele><time>2026-04-30T11:28:46.986Z</time></trkpt><trkpt lat="42.4630223" lon="12.0740319"><ele>315.0</ele><time>2026-04-30T11:28:47.986Z</time></trkpt><trkpt lat="42.4628583" lon="12.0741171"><ele>315.0</ele><time>2026-04-30T11:28:48.986Z</time></trkpt><trkpt lat="42.4626946" lon="12.0742046"><ele>314.3333333333333</ele><time>2026-04-30T11:28:49.986Z</time></trkpt><trkpt lat="42.4625314" lon="12.0742903"><ele>313.66666666666663</ele><time>2026-04-30T11:28:50.987Z</time></trkpt><trkpt lat="42.4623802" lon="12.0743745"><ele>313.0</ele><time>2026-04-30T11:28:51.986Z</time></trkpt><trkpt lat="42.4622391" lon="12.0744556"><ele>313.0</ele><time>2026-04-30T11:28:52.986Z</time></trkpt><trkpt lat="42.4620981" lon="12.0745327"><ele>313.0</ele><time>2026-04-30T11:28:53.986Z</time></trkpt><trkpt lat="42.4619583" lon="12.074607"><ele>313.0</ele><time>2026-04-30T11:28:54.986Z</time></trkpt><trkpt lat="42.4618197" lon="12.0746829"><ele>313.0</ele><time>2026-04-30T11:28:55.986Z</time></trkpt><trkpt lat="42.46168" lon="12.074754"><ele>313.0</ele><time>2026-04-30T11:28:56.986Z</time></trkpt><trkpt lat="42.4615374" lon="12.0748252"><ele>313.0</ele><time>2026-04-30T11:28:57.986Z</time></trkpt><trkpt lat="42.461397" lon="12.0748942"><ele>313.0</ele><time>2026-04-30T11:28:58.987Z</time></trkpt><trkpt lat="42.4612651" lon="12.0749654"><ele>313.0</ele><time>2026-04-30T11:28:59.986Z</time></trkpt><trkpt lat="42.4611454" lon="12.0750336"><ele>313.0</ele><time>2026-04-30T11:29:00.986Z</time></trkpt><trkpt lat="42.4610291" lon="12.0750967"><ele>313.0</ele><time>2026-04-30T11:29:01.986Z</time></trkpt><trkpt lat="42.4609144" lon="12.0751619"><ele>313.0</ele><time>2026-04-30T11:29:02.986Z</time></trkpt><trkpt lat="42.4607966" lon="12.075228"><ele>313.0</ele><time>2026-04-30T11:29:03.986Z</time></trkpt><trkpt lat="42.460664" lon="12.0752967"><ele>313.0</ele><time>2026-04-30T11:29:04.986Z</time></trkpt><trkpt lat="42.4605221" lon="12.0753699"><ele>313.0</ele><time>2026-04-30T11:29:05.986Z</time></trkpt><trkpt lat="42.4603791" lon="12.0754431"><ele>313.0</ele><time>2026-04-30T11:29:06.987Z</time></trkpt><trkpt lat="42.4602468" lon="12.0755209"><ele>313.0</ele><time>2026-04-30T11:29:07.986Z</time></trkpt><trkpt lat="42.4601183" lon="12.0755943"><ele>313.0</ele><time>2026-04-30T11:29:08.986Z</time></trkpt><trkpt lat="42.459992" lon="12.0756759"><ele>313.0</ele><time>2026-04-30T11:29:09.986Z</time></trkpt><trkpt lat="42.4598648" lon="12.075755"><ele>313.0</ele><time>2026-04-30T11:29:10.986Z</time></trkpt><trkpt lat="42.4597299" lon="12.0758317"><ele>313.0</ele><time>2026-04-30T11:29:11.987Z</time></trkpt><trkpt lat="42.4595845" lon="12.0759083"><ele>313.0</ele><time>2026-04-30T11:29:12.986Z</time></trkpt><trkpt lat="42.4594338" lon="12.07599"><ele>312.66666666666663</ele><time>2026-04-30T11:29:13.987Z</time></trkpt><trkpt lat="42.4592867" lon="12.0760846"><ele>312.3333333333333</ele><time>2026-04-30T11:29:14.986Z</time></trkpt><trkpt lat="42.4591419" lon="12.0761845"><ele>312.0</ele><time>2026-04-30T11:29:15.986Z</time></trkpt><trkpt lat="42.4589979" lon="12.0762885"><ele>312.0</ele><time>2026-04-30T11:29:16.986Z</time></trkpt><trkpt lat="42.4588522" lon="12.0763908"><ele>312.0</ele><time>2026-04-30T11:29:17.986Z</time></trkpt><trkpt lat="42.4587038" lon="12.0764923"><ele>312.0</ele><time>2026-04-30T11:29:18.986Z</time></trkpt><trkpt lat="42.4585597" lon="12.0765861"><ele>310.6666666666667</ele><time>2026-04-30T11:29:19.986Z</time></trkpt><trkpt lat="42.4584238" lon="12.0766792"><ele>309.33333333333337</ele><time>2026-04-30T11:29:20.987Z</time></trkpt><trkpt lat="42.458287" lon="12.076769"><ele>308.0</ele><time>2026-04-30T11:29:21.987Z</time></trkpt><trkpt lat="42.4581428" lon="12.0768597"><ele>308.0</ele><time>2026-04-30T11:29:22.986Z</time></trkpt><trkpt lat="42.457998" lon="12.0769524"><ele>308.0</ele><time>2026-04-30T11:29:23.987Z</time></trkpt><trkpt lat="42.4578531" lon="12.0770483"><ele>308.0</ele><time>2026-04-30T11:29:24.986Z</time></trkpt><trkpt lat="42.4577094" lon="12.0771477"><ele>307.6666666666667</ele><time>2026-04-30T11:29:25.986Z</time></trkpt><trkpt lat="42.4575659" lon="12.0772408"><ele>307.3333333333333</ele><time>2026-04-30T11:29:26.986Z</time></trkpt><trkpt lat="42.4574271" lon="12.0773438"><ele>307.0</ele><time>2026-04-30T11:29:27.987Z</time></trkpt><trkpt lat="42.4571426" lon="12.0775448"><ele>307.3333333333333</ele><time>2026-04-30T11:29:29.986Z</time></trkpt><trkpt lat="42.4569949" lon="12.0776437"><ele>307.6666666666667</ele><time>2026-04-30T11:29:30.986Z</time></trkpt><trkpt lat="42.4568503" lon="12.077746"><ele>308.0</ele><time>2026-04-30T11:29:31.987Z</time></trkpt><trkpt lat="42.4567054" lon="12.0778483"><ele>308.0</ele><time>2026-04-30T11:29:32.986Z</time></trkpt><trkpt lat="42.4565603" lon="12.0779489"><ele>308.0</ele><time>2026-04-30T11:29:33.986Z</time></trkpt><trkpt lat="42.4564138" lon="12.0780502"><ele>308.0</ele><time>2026-04-30T11:29:34.986Z</time></trkpt><trkpt lat="42.4562645" lon="12.0781497"><ele>307.33333333333337</ele><time>2026-04-30T11:29:35.986Z</time></trkpt><trkpt lat="42.456117" lon="12.07825"><ele>306.6666666666667</ele><time>2026-04-30T11:29:36.987Z</time></trkpt><trkpt lat="42.4559625" lon="12.0783566"><ele>306.0</ele><time>2026-04-30T11:29:37.986Z</time></trkpt><trkpt lat="42.455806" lon="12.0784599"><ele>306.0</ele><time>2026-04-30T11:29:38.986Z</time></trkpt><trkpt lat="42.4556537" lon="12.0785645"><ele>306.0</ele><time>2026-04-30T11:29:39.987Z</time></trkpt><trkpt lat="42.4555004" lon="12.0786706"><ele>306.0</ele><time>2026-04-30T11:29:40.986Z</time></trkpt><trkpt lat="42.4553446" lon="12.0787811"><ele>306.3333333333333</ele><time>2026-04-30T11:29:41.986Z</time></trkpt><trkpt lat="42.4551944" lon="12.0788968"><ele>306.66666666666663</ele><time>2026-04-30T11:29:42.986Z</time></trkpt><trkpt lat="42.4550472" lon="12.0790144"><ele>307.0</ele><time>2026-04-30T11:29:43.986Z</time></trkpt><trkpt lat="42.4549048" lon="12.0791333"><ele>307.0</ele><time>2026-04-30T11:29:44.987Z</time></trkpt><trkpt lat="42.4547613" lon="12.0792437"><ele>307.0</ele><time>2026-04-30T11:29:45.986Z</time></trkpt><trkpt lat="42.4546211" lon="12.0793535"><ele>307.0</ele><time>2026-04-30T11:29:46.987Z</time></trkpt><trkpt lat="42.4544831" lon="12.079462"><ele>307.0</ele><time>2026-04-30T11:29:47.986Z</time></trkpt><trkpt lat="42.4543514" lon="12.0795813"><ele>307.0</ele><time>2026-04-30T11:29:48.986Z</time></trkpt><trkpt lat="42.4542178" lon="12.0796967"><ele>307.0</ele><time>2026-04-30T11:29:49.986Z</time></trkpt><trkpt lat="42.4540836" lon="12.0798136"><ele>307.0</ele><time>2026-04-30T11:29:50.986Z</time></trkpt><trkpt lat="42.4539563" lon="12.0799204"><ele>307.0</ele><time>2026-04-30T11:29:51.986Z</time></trkpt><trkpt lat="42.4538214" lon="12.080034"><ele>307.0</ele><time>2026-04-30T11:29:52.986Z</time></trkpt><trkpt lat="42.4536844" lon="12.0801435"><ele>307.66666666666663</ele><time>2026-04-30T11:29:53.986Z</time></trkpt><trkpt lat="42.4535526" lon="12.0802508"><ele>308.3333333333333</ele><time>2026-04-30T11:29:54.986Z</time></trkpt><trkpt lat="42.4534321" lon="12.0803616"><ele>309.0</ele><time>2026-04-30T11:29:55.986Z</time></trkpt><trkpt lat="42.4533013" lon="12.0804724"><ele>309.0</ele><time>2026-04-30T11:29:56.986Z</time></trkpt><trkpt lat="42.4531797" lon="12.0805836"><ele>309.0</ele><time>2026-04-30T11:29:57.986Z</time></trkpt><trkpt lat="42.4530558" lon="12.0806926"><ele>309.0</ele><time>2026-04-30T11:29:58.986Z</time></trkpt><trkpt lat="42.4529239" lon="12.0807983"><ele>309.0</ele><time>2026-04-30T11:29:59.986Z</time></trkpt><trkpt lat="42.452789" lon="12.0808875"><ele>310.0</ele><time>2026-04-30T11:30:00.986Z</time></trkpt><trkpt lat="42.4526431" lon="12.0809643"><ele>311.0</ele><time>2026-04-30T11:30:01.987Z</time></trkpt><trkpt lat="42.4524959" lon="12.0810333"><ele>312.0</ele><time>2026-04-30T11:30:02.986Z</time></trkpt><trkpt lat="42.4523461" lon="12.0810886"><ele>312.0</ele><time>2026-04-30T11:30:03.987Z</time></trkpt><trkpt lat="42.4522001" lon="12.0811442"><ele>312.0</ele><time>2026-04-30T11:30:04.987Z</time></trkpt><trkpt lat="42.4520512" lon="12.0812131"><ele>312.0</ele><time>2026-04-30T11:30:05.986Z</time></trkpt><trkpt lat="42.4519062" lon="12.0812874"><ele>312.3333333333333</ele><time>2026-04-30T11:30:06.986Z</time></trkpt><trkpt lat="42.4517684" lon="12.0813675"><ele>312.66666666666663</ele><time>2026-04-30T11:30:07.986Z</time></trkpt><trkpt lat="42.4516245" lon="12.0814642"><ele>313.0</ele><time>2026-04-30T11:30:08.986Z</time></trkpt><trkpt lat="42.4514765" lon="12.0815579"><ele>313.0</ele><time>2026-04-30T11:30:09.987Z</time></trkpt><trkpt lat="42.4513356" lon="12.0816581"><ele>313.0</ele><time>2026-04-30T11:30:10.986Z</time></trkpt><trkpt lat="42.4511955" lon="12.0817666"><ele>313.0</ele><time>2026-04-30T11:30:11.986Z</time></trkpt><trkpt lat="42.451049" lon="12.0818671"><ele>313.66666666666663</ele><time>2026-04-30T11:30:12.986Z</time></trkpt><trkpt lat="42.4509092" lon="12.0819775"><ele>314.3333333333333</ele><time>2026-04-30T11:30:13.987Z</time></trkpt><trkpt lat="42.4507654" lon="12.0820843"><ele>315.0</ele><time>2026-04-30T11:30:14.986Z</time></trkpt><trkpt lat="42.4506256" lon="12.0821943"><ele>315.0</ele><time>2026-04-30T11:30:15.986Z</time></trkpt><trkpt lat="42.450485" lon="12.0823013"><ele>315.0</ele><time>2026-04-30T11:30:16.987Z</time></trkpt><trkpt lat="42.4503513" lon="12.0823992"><ele>315.0</ele><time>2026-04-30T11:30:17.986Z</time></trkpt><trkpt lat="42.4502147" lon="12.0825073"><ele>315.3333333333333</ele><time>2026-04-30T11:30:18.987Z</time></trkpt><trkpt lat="42.4500759" lon="12.0826096"><ele>315.66666666666663</ele><time>2026-04-30T11:30:19.987Z</time></trkpt><trkpt lat="42.4499381" lon="12.0827065"><ele>316.0</ele><time>2026-04-30T11:30:20.986Z</time></trkpt><trkpt lat="42.4498089" lon="12.0828008"><ele>316.0</ele><time>2026-04-30T11:30:21.987Z</time></trkpt><trkpt lat="42.4496774" lon="12.0828975"><ele>316.0</ele><time>2026-04-30T11:30:22.987Z</time></trkpt><trkpt lat="42.4495548" lon="12.0829857"><ele>316.0</ele><time>2026-04-30T11:30:23.987Z</time></trkpt><trkpt lat="42.4494355" lon="12.0830777"><ele>316.0</ele><time>2026-04-30T11:30:24.986Z</time></trkpt><trkpt lat="42.4493098" lon="12.0831694"><ele>316.0</ele><time>2026-04-30T11:30:25.986Z</time></trkpt><trkpt lat="42.449191" lon="12.0832658"><ele>316.0</ele><time>2026-04-30T11:30:26.986Z</time></trkpt><trkpt lat="42.4490747" lon="12.0833593"><ele>316.0</ele><time>2026-04-30T11:30:27.986Z</time></trkpt><trkpt lat="42.4489624" lon="12.0834466"><ele>316.0</ele><time>2026-04-30T11:30:28.986Z</time></trkpt><trkpt lat="42.4488485" lon="12.0835334"><ele>316.0</ele><time>2026-04-30T11:30:29.986Z</time></trkpt><trkpt lat="42.4487283" lon="12.0836185"><ele>316.0</ele><time>2026-04-30T11:30:30.986Z</time></trkpt><trkpt lat="42.4486074" lon="12.083704"><ele>316.0</ele><time>2026-04-30T11:30:31.987Z</time></trkpt><trkpt lat="42.4484869" lon="12.0837844"><ele>316.0</ele><time>2026-04-30T11:30:32.986Z</time></trkpt><trkpt lat="42.4483638" lon="12.0838747"><ele>316.0</ele><time>2026-04-30T11:30:33.987Z</time></trkpt><trkpt lat="42.4482398" lon="12.0839678"><ele>316.0</ele><time>2026-04-30T11:30:34.986Z</time></trkpt><trkpt lat="42.4481164" lon="12.0840618"><ele>316.0</ele><time>2026-04-30T11:30:35.986Z</time></trkpt><trkpt lat="42.4479989" lon="12.0841537"><ele>316.0</ele><time>2026-04-30T11:30:36.986Z</time></trkpt><trkpt lat="42.447892" lon="12.0842581"><ele>316.0</ele><time>2026-04-30T11:30:37.987Z</time></trkpt><trkpt lat="42.4477928" lon="12.0843722"><ele>316.0</ele><time>2026-04-30T11:30:38.986Z</time></trkpt><trkpt lat="42.4476975" lon="12.0844779"><ele>316.0</ele><time>2026-04-30T11:30:39.986Z</time></trkpt><trkpt lat="42.4475942" lon="12.0845732"><ele>316.0</ele><time>2026-04-30T11:30:40.986Z</time></trkpt><trkpt lat="42.4474983" lon="12.0846671"><ele>316.0</ele><time>2026-04-30T11:30:41.986Z</time></trkpt><trkpt lat="42.4474016" lon="12.0847583"><ele>316.0</ele><time>2026-04-30T11:30:42.986Z</time></trkpt><trkpt lat="42.4472922" lon="12.0848539"><ele>316.0</ele><time>2026-04-30T11:30:43.986Z</time></trkpt><trkpt lat="42.4471767" lon="12.0849403"><ele>316.0</ele><time>2026-04-30T11:30:44.986Z</time></trkpt><trkpt lat="42.4470618" lon="12.0850254"><ele>315.5</ele><time>2026-04-30T11:30:45.986Z</time></trkpt><trkpt lat="42.446945" lon="12.085115"><ele>315.0</ele><time>2026-04-30T11:30:46.986Z</time></trkpt><trkpt lat="42.4468346" lon="12.0852019"><ele>314.5</ele><time>2026-04-30T11:30:47.986Z</time></trkpt><trkpt lat="42.4467285" lon="12.0852852"><ele>314.0</ele><time>2026-04-30T11:30:48.986Z</time></trkpt><trkpt lat="42.4466235" lon="12.085365"><ele>314.0</ele><time>2026-04-30T11:30:49.987Z</time></trkpt><trkpt lat="42.4465153" lon="12.0854352"><ele>314.0</ele><time>2026-04-30T11:30:50.986Z</time></trkpt><trkpt lat="42.4464055" lon="12.0854958"><ele>314.0</ele><time>2026-04-30T11:30:51.986Z</time></trkpt><trkpt lat="42.4462924" lon="12.0855506"><ele>314.0</ele><time>2026-04-30T11:30:52.986Z</time></trkpt><trkpt lat="42.4461751" lon="12.0856031"><ele>313.75</ele><time>2026-04-30T11:30:53.986Z</time></trkpt><trkpt lat="42.4460523" lon="12.0856549"><ele>313.5</ele><time>2026-04-30T11:30:54.987Z</time></trkpt><trkpt lat="42.4459348" lon="12.0857045"><ele>313.25</ele><time>2026-04-30T11:30:55.987Z</time></trkpt><trkpt lat="42.4458166" lon="12.0857547"><ele>313.0</ele><time>2026-04-30T11:30:56.986Z</time></trkpt><trkpt lat="42.4457046" lon="12.0858057"><ele>313.0</ele><time>2026-04-30T11:30:57.986Z</time></trkpt><trkpt lat="42.4455947" lon="12.0858623"><ele>313.0</ele><time>2026-04-30T11:30:58.986Z</time></trkpt><trkpt lat="42.4454859" lon="12.0859187"><ele>313.0</ele><time>2026-04-30T11:30:59.986Z</time></trkpt><trkpt lat="42.4453874" lon="12.0859864"><ele>313.0</ele><time>2026-04-30T11:31:00.986Z</time></trkpt><trkpt lat="42.4452943" lon="12.0860551"><ele>313.2</ele><time>2026-04-30T11:31:01.986Z</time></trkpt><trkpt lat="42.4452044" lon="12.0861199"><ele>313.4</ele><time>2026-04-30T11:31:02.986Z</time></trkpt><trkpt lat="42.445117" lon="12.0861826"><ele>313.59999999999997</ele><time>2026-04-30T11:31:03.986Z</time></trkpt><trkpt lat="42.4450236" lon="12.086251"><ele>313.8</ele><time>2026-04-30T11:31:04.987Z</time></trkpt><trkpt lat="42.4449288" lon="12.0863199"><ele>314.0</ele><time>2026-04-30T11:31:05.986Z</time></trkpt><trkpt lat="42.4448352" lon="12.0863919"><ele>314.0</ele><time>2026-04-30T11:31:06.986Z</time></trkpt><trkpt lat="42.4447456" lon="12.0864668"><ele>314.0</ele><time>2026-04-30T11:31:07.986Z</time></trkpt><trkpt lat="42.4446517" lon="12.0865439"><ele>314.0</ele><time>2026-04-30T11:31:08.986Z</time></trkpt><trkpt lat="42.4445525" lon="12.0866179"><ele>314.0</ele><time>2026-04-30T11:31:09.986Z</time></trkpt><trkpt lat="42.4444542" lon="12.0866984"><ele>314.0</ele><time>2026-04-30T11:31:10.986Z</time></trkpt><trkpt lat="42.4443465" lon="12.0867809"><ele>314.5</ele><time>2026-04-30T11:31:11.986Z</time></trkpt><trkpt lat="42.4442406" lon="12.0868712"><ele>315.0</ele><time>2026-04-30T11:31:12.986Z</time></trkpt><trkpt lat="42.4441373" lon="12.0869665"><ele>315.5</ele><time>2026-04-30T11:31:13.986Z</time></trkpt><trkpt lat="42.4440328" lon="12.0870648"><ele>316.0</ele><time>2026-04-30T11:31:14.987Z</time></trkpt><trkpt lat="42.443928" lon="12.087156"><ele>316.0</ele><time>2026-04-30T11:31:15.986Z</time></trkpt><trkpt lat="42.4438208" lon="12.0872502"><ele>316.0</ele><time>2026-04-30T11:31:16.987Z</time></trkpt><trkpt lat="42.4437154" lon="12.0873495"><ele>316.0</ele><time>2026-04-30T11:31:17.986Z</time></trkpt><trkpt lat="42.443611" lon="12.0874469"><ele>316.0</ele><time>2026-04-30T11:31:18.987Z</time></trkpt><trkpt lat="42.4435245" lon="12.0875404"><ele>316.5</ele><time>2026-04-30T11:31:19.986Z</time></trkpt><trkpt lat="42.4434502" lon="12.0876168"><ele>317.0</ele><time>2026-04-30T11:31:20.986Z</time></trkpt><trkpt lat="42.4433879" lon="12.0876732"><ele>317.5</ele><time>2026-04-30T11:31:21.986Z</time></trkpt><trkpt lat="42.4433351" lon="12.0877251"><ele>318.0</ele><time>2026-04-30T11:31:22.987Z</time></trkpt><trkpt lat="42.4432651" lon="12.0877806"><ele>318.5</ele><time>2026-04-30T11:31:24.987Z</time></trkpt><trkpt lat="42.4432088" lon="12.0878423"><ele>319.0</ele><time>2026-04-30T11:31:33.987Z</time></trkpt><trkpt lat="42.4431599" lon="12.0878978"><ele>319.0</ele><time>2026-04-30T11:31:34.986Z</time></trkpt><trkpt lat="42.4431059" lon="12.0879506"><ele>319.0</ele><time>2026-04-30T11:31:35.986Z</time></trkpt><trkpt lat="42.4430469" lon="12.088002"><ele>319.0</ele><time>2026-04-30T11:31:36.987Z</time></trkpt><trkpt lat="42.4429807" lon="12.0880543"><ele>319.0</ele><time>2026-04-30T11:31:37.986Z</time></trkpt><trkpt lat="42.4429068" lon="12.0881089"><ele>319.0</ele><time>2026-04-30T11:31:38.986Z</time></trkpt><trkpt lat="42.4428232" lon="12.0881684"><ele>319.0</ele><time>2026-04-30T11:31:39.986Z</time></trkpt><trkpt lat="42.4427338" lon="12.0882243"><ele>318.59999999999997</ele><time>2026-04-30T11:31:40.986Z</time></trkpt><trkpt lat="42.44264" lon="12.0882817"><ele>318.2</ele><time>2026-04-30T11:31:41.986Z</time></trkpt><trkpt lat="42.4425417" lon="12.0883391"><ele>317.79999999999995</ele><time>2026-04-30T11:31:42.987Z</time></trkpt><trkpt lat="42.4424326" lon="12.0883941"><ele>317.4</ele><time>2026-04-30T11:31:43.987Z</time></trkpt><trkpt lat="42.4423241" lon="12.0884462"><ele>317.0</ele><time>2026-04-30T11:31:44.987Z</time></trkpt><trkpt lat="42.4422121" lon="12.0885051"><ele>316.25</ele><time>2026-04-30T11:31:45.986Z</time></trkpt><trkpt lat="42.4420955" lon="12.0885675"><ele>315.5</ele><time>2026-04-30T11:31:46.986Z</time></trkpt><trkpt lat="42.441968" lon="12.0886294"><ele>314.75</ele><time>2026-04-30T11:31:47.986Z</time></trkpt><trkpt lat="42.4418462" lon="12.0886897"><ele>314.0</ele><time>2026-04-30T11:31:48.986Z</time></trkpt><trkpt lat="42.4417231" lon="12.0887434"><ele>314.0</ele><time>2026-04-30T11:31:49.986Z</time></trkpt><trkpt lat="42.4416048" lon="12.088792"><ele>314.0</ele><time>2026-04-30T11:31:50.987Z</time></trkpt><trkpt lat="42.4414945" lon="12.0888362"><ele>314.0</ele><time>2026-04-30T11:31:51.986Z</time></trkpt><trkpt lat="42.4413896" lon="12.0888855"><ele>314.0</ele><time>2026-04-30T11:31:52.986Z</time></trkpt><trkpt lat="42.4412921" lon="12.0889336"><ele>313.59999999999997</ele><time>2026-04-30T11:31:53.986Z</time></trkpt><trkpt lat="42.4411891" lon="12.0889794"><ele>313.2</ele><time>2026-04-30T11:31:54.986Z</time></trkpt><trkpt lat="42.4410879" lon="12.0890083"><ele>312.79999999999995</ele><time>2026-04-30T11:31:55.987Z</time></trkpt><trkpt lat="42.440991" lon="12.0890285"><ele>312.4</ele><time>2026-04-30T11:31:56.986Z</time></trkpt><trkpt lat="42.4409041" lon="12.0890403"><ele>312.0</ele><time>2026-04-30T11:31:57.987Z</time></trkpt><trkpt lat="42.4408322" lon="12.0890443"><ele>312.0</ele><time>2026-04-30T11:31:58.986Z</time></trkpt><trkpt lat="42.4407609" lon="12.0890249"><ele>312.0</ele><time>2026-04-30T11:31:59.986Z</time></trkpt><trkpt lat="42.4406956" lon="12.0889798"><ele>312.0</ele><time>2026-04-30T11:32:00.986Z</time></trkpt><trkpt lat="42.4406307" lon="12.088923"><ele>312.0</ele><time>2026-04-30T11:32:01.987Z</time></trkpt><trkpt lat="42.4405591" lon="12.0888912"><ele>312.0</ele><time>2026-04-30T11:32:02.986Z</time></trkpt><trkpt lat="42.4404823" lon="12.0888921"><ele>312.0</ele><time>2026-04-30T11:32:03.986Z</time></trkpt><trkpt lat="42.4404124" lon="12.0889298"><ele>311.8333333333333</ele><time>2026-04-30T11:32:04.986Z</time></trkpt><trkpt lat="42.4403588" lon="12.0890014"><ele>311.6666666666667</ele><time>2026-04-30T11:32:05.986Z</time></trkpt><trkpt lat="42.4403227" lon="12.0890952"><ele>311.5</ele><time>2026-04-30T11:32:06.986Z</time></trkpt><trkpt lat="42.4403049" lon="12.0892128"><ele>311.33333333333337</ele><time>2026-04-30T11:32:07.986Z</time></trkpt><trkpt lat="42.4402916" lon="12.089343"><ele>311.1666666666667</ele><time>2026-04-30T11:32:08.986Z</time></trkpt><trkpt lat="42.4402618" lon="12.0894674"><ele>311.0</ele><time>2026-04-30T11:32:09.987Z</time></trkpt><trkpt lat="42.4402181" lon="12.0895852"><ele>311.0</ele><time>2026-04-30T11:32:10.986Z</time></trkpt><trkpt lat="42.4401528" lon="12.0897005"><ele>311.0</ele><time>2026-04-30T11:32:11.986Z</time></trkpt><trkpt lat="42.440075" lon="12.0898197"><ele>311.0</ele><time>2026-04-30T11:32:12.986Z</time></trkpt><trkpt lat="42.4399948" lon="12.0899423"><ele>311.0</ele><time>2026-04-30T11:32:13.987Z</time></trkpt><trkpt lat="42.4399036" lon="12.0900664"><ele>311.5</ele><time>2026-04-30T11:32:14.986Z</time></trkpt><trkpt lat="42.4398161" lon="12.0901949"><ele>312.0</ele><time>2026-04-30T11:32:15.986Z</time></trkpt><trkpt lat="42.4397327" lon="12.0903329"><ele>312.5</ele><time>2026-04-30T11:32:16.987Z</time></trkpt><trkpt lat="42.4396431" lon="12.0904759"><ele>313.0</ele><time>2026-04-30T11:32:17.986Z</time></trkpt><trkpt lat="42.439549" lon="12.0906248"><ele>314.75</ele><time>2026-04-30T11:32:18.986Z</time></trkpt><trkpt lat="42.4394564" lon="12.0907731"><ele>316.5</ele><time>2026-04-30T11:32:19.987Z</time></trkpt><trkpt lat="42.4393615" lon="12.0909189"><ele>318.25</ele><time>2026-04-30T11:32:20.986Z</time></trkpt><trkpt lat="42.4392651" lon="12.091081"><ele>320.0</ele><time>2026-04-30T11:32:21.986Z</time></trkpt><trkpt lat="42.4391736" lon="12.0912552"><ele>320.0</ele><time>2026-04-30T11:32:22.987Z</time></trkpt><trkpt lat="42.4390824" lon="12.0914298"><ele>320.0</ele><time>2026-04-30T11:32:23.986Z</time></trkpt><trkpt lat="42.4389989" lon="12.0915916"><ele>320.0</ele><time>2026-04-30T11:32:24.986Z</time></trkpt><trkpt lat="42.4389212" lon="12.0917534"><ele>320.0</ele><time>2026-04-30T11:32:25.986Z</time></trkpt><trkpt lat="42.4388446" lon="12.0919163"><ele>320.5</ele><time>2026-04-30T11:32:26.986Z</time></trkpt><trkpt lat="42.4387566" lon="12.0920847"><ele>321.0</ele><time>2026-04-30T11:32:27.986Z</time></trkpt><trkpt lat="42.4386657" lon="12.0922433"><ele>321.5</ele><time>2026-04-30T11:32:28.987Z</time></trkpt><trkpt lat="42.4385751" lon="12.0923945"><ele>322.0</ele><time>2026-04-30T11:32:29.986Z</time></trkpt><trkpt lat="42.4384879" lon="12.092533"><ele>322.75</ele><time>2026-04-30T11:32:30.986Z</time></trkpt><trkpt lat="42.4384153" lon="12.0926843"><ele>323.5</ele><time>2026-04-30T11:32:31.986Z</time></trkpt><trkpt lat="42.4383327" lon="12.0928305"><ele>324.25</ele><time>2026-04-30T11:32:32.986Z</time></trkpt><trkpt lat="42.4382276" lon="12.0929703"><ele>325.0</ele><time>2026-04-30T11:32:33.986Z</time></trkpt><trkpt lat="42.438113" lon="12.0931034"><ele>325.0</ele><time>2026-04-30T11:32:34.986Z</time></trkpt><trkpt lat="42.4379971" lon="12.0932354"><ele>325.0</ele><time>2026-04-30T11:32:35.986Z</time></trkpt><trkpt lat="42.437882" lon="12.0933573"><ele>325.0</ele><time>2026-04-30T11:32:36.986Z</time></trkpt><trkpt lat="42.4377674" lon="12.0934671"><ele>325.0</ele><time>2026-04-30T11:32:37.986Z</time></trkpt><trkpt lat="42.4376478" lon="12.093551"><ele>324.5</ele><time>2026-04-30T11:32:38.986Z</time></trkpt><trkpt lat="42.4375181" lon="12.0935983"><ele>324.0</ele><time>2026-04-30T11:32:39.987Z</time></trkpt><trkpt lat="42.4373869" lon="12.0936056"><ele>323.5</ele><time>2026-04-30T11:32:40.987Z</time></trkpt><trkpt lat="42.437254" lon="12.0935687"><ele>323.0</ele><time>2026-04-30T11:32:41.986Z</time></trkpt><trkpt lat="42.4371303" lon="12.0934945"><ele>322.5</ele><time>2026-04-30T11:32:42.986Z</time></trkpt><trkpt lat="42.4370144" lon="12.0933955"><ele>322.0</ele><time>2026-04-30T11:32:43.986Z</time></trkpt><trkpt lat="42.4369055" lon="12.0932723"><ele>321.5</ele><time>2026-04-30T11:32:44.986Z</time></trkpt><trkpt lat="42.4368066" lon="12.0931322"><ele>321.0</ele><time>2026-04-30T11:32:45.986Z</time></trkpt><trkpt lat="42.4367047" lon="12.0929775"><ele>321.0</ele><time>2026-04-30T11:32:46.986Z</time></trkpt><trkpt lat="42.4366175" lon="12.0928037"><ele>321.0</ele><time>2026-04-30T11:32:47.986Z</time></trkpt><trkpt lat="42.4365487" lon="12.0926111"><ele>321.0</ele><time>2026-04-30T11:32:48.986Z</time></trkpt><trkpt lat="42.4365133" lon="12.0924202"><ele>321.3333333333333</ele><time>2026-04-30T11:32:49.986Z</time></trkpt><trkpt lat="42.4365166" lon="12.0922166"><ele>321.66666666666663</ele><time>2026-04-30T11:32:50.986Z</time></trkpt><trkpt lat="42.4365548" lon="12.0920125"><ele>322.0</ele><time>2026-04-30T11:32:51.986Z</time></trkpt><trkpt lat="42.4366178" lon="12.0918136"><ele>322.0</ele><time>2026-04-30T11:32:52.986Z</time></trkpt><trkpt lat="42.4367129" lon="12.0916209"><ele>322.0</ele><time>2026-04-30T11:32:53.986Z</time></trkpt><trkpt lat="42.4368238" lon="12.091436"><ele>322.0</ele><time>2026-04-30T11:32:54.986Z</time></trkpt><trkpt lat="42.4369434" lon="12.0912461"><ele>322.0</ele><time>2026-04-30T11:32:55.986Z</time></trkpt><trkpt lat="42.4370614" lon="12.0910579"><ele>322.0</ele><time>2026-04-30T11:32:56.987Z</time></trkpt><trkpt lat="42.4371748" lon="12.0908722"><ele>322.0</ele><time>2026-04-30T11:32:57.986Z</time></trkpt><trkpt lat="42.4372911" lon="12.0906945"><ele>321.66666666666663</ele><time>2026-04-30T11:32:58.987Z</time></trkpt><trkpt lat="42.4373911" lon="12.0905113"><ele>321.3333333333333</ele><time>2026-04-30T11:32:59.986Z</time></trkpt><trkpt lat="42.4374922" lon="12.0903499"><ele>321.0</ele><time>2026-04-30T11:33:00.986Z</time></trkpt><trkpt lat="42.4375952" lon="12.0902016"><ele>321.0</ele><time>2026-04-30T11:33:01.986Z</time></trkpt><trkpt lat="42.4376918" lon="12.0900477"><ele>321.0</ele><time>2026-04-30T11:33:02.986Z</time></trkpt><trkpt lat="42.4377533" lon="12.0898739"><ele>321.0</ele><time>2026-04-30T11:33:03.986Z</time></trkpt><trkpt lat="42.4377605" lon="12.0896826"><ele>321.0</ele><time>2026-04-30T11:33:04.986Z</time></trkpt><trkpt lat="42.4377286" lon="12.0894914"><ele>320.25</ele><time>2026-04-30T11:33:05.986Z</time></trkpt><trkpt lat="42.4376516" lon="12.0893295"><ele>319.5</ele><time>2026-04-30T11:33:06.986Z</time></trkpt><trkpt lat="42.4375448" lon="12.0892138"><ele>318.75</ele><time>2026-04-30T11:33:07.986Z</time></trkpt><trkpt lat="42.4374141" lon="12.0891381"><ele>318.0</ele><time>2026-04-30T11:33:08.986Z</time></trkpt><trkpt lat="42.4372767" lon="12.0891128"><ele>318.0</ele><time>2026-04-30T11:33:09.987Z</time></trkpt><trkpt lat="42.4371393" lon="12.0891367"><ele>318.0</ele><time>2026-04-30T11:33:10.986Z</time></trkpt><trkpt lat="42.4370038" lon="12.0891996"><ele>318.0</ele><time>2026-04-30T11:33:11.986Z</time></trkpt><trkpt lat="42.4368674" lon="12.0892797"><ele>318.0</ele><time>2026-04-30T11:33:12.986Z</time></trkpt><trkpt lat="42.4367244" lon="12.0893507"><ele>318.3333333333333</ele><time>2026-04-30T11:33:13.987Z</time></trkpt><trkpt lat="42.4365721" lon="12.0893925"><ele>318.66666666666663</ele><time>2026-04-30T11:33:14.987Z</time></trkpt><trkpt lat="42.4364107" lon="12.0893959"><ele>319.0</ele><time>2026-04-30T11:33:15.987Z</time></trkpt><trkpt lat="42.4362427" lon="12.0893599"><ele>319.0</ele><time>2026-04-30T11:33:16.987Z</time></trkpt><trkpt lat="42.4360803" lon="12.0892698"><ele>319.0</ele><time>2026-04-30T11:33:17.987Z</time></trkpt><trkpt lat="42.4359202" lon="12.0891491"><ele>319.0</ele><time>2026-04-30T11:33:18.986Z</time></trkpt><trkpt lat="42.4357717" lon="12.0890092"><ele>318.3333333333333</ele><time>2026-04-30T11:33:19.986Z</time></trkpt><trkpt lat="42.4356208" lon="12.0888654"><ele>317.6666666666667</ele><time>2026-04-30T11:33:20.987Z</time></trkpt><trkpt lat="42.4354635" lon="12.0887129"><ele>317.0</ele><time>2026-04-30T11:33:21.986Z</time></trkpt><trkpt lat="42.4353017" lon="12.0885469"><ele>317.0</ele><time>2026-04-30T11:33:22.987Z</time></trkpt><trkpt lat="42.4351344" lon="12.0883759"><ele>317.0</ele><time>2026-04-30T11:33:23.986Z</time></trkpt><trkpt lat="42.4349572" lon="12.0882048"><ele>317.0</ele><time>2026-04-30T11:33:24.986Z</time></trkpt><trkpt lat="42.4347699" lon="12.0880236"><ele>316.0</ele><time>2026-04-30T11:33:25.986Z</time></trkpt><trkpt lat="42.4345793" lon="12.0878274"><ele>315.0</ele><time>2026-04-30T11:33:26.987Z</time></trkpt><trkpt lat="42.4343842" lon="12.0876272"><ele>314.0</ele><time>2026-04-30T11:33:27.986Z</time></trkpt><trkpt lat="42.4341856" lon="12.0874164"><ele>313.0</ele><time>2026-04-30T11:33:28.986Z</time></trkpt><trkpt lat="42.4339828" lon="12.0871977"><ele>314.5</ele><time>2026-04-30T11:33:29.986Z</time></trkpt><trkpt lat="42.4337755" lon="12.0869702"><ele>316.0</ele><time>2026-04-30T11:33:30.986Z</time></trkpt><trkpt lat="42.4335705" lon="12.0867409"><ele>316.0</ele><time>2026-04-30T11:33:31.987Z</time></trkpt><trkpt lat="42.4333674" lon="12.0865116"><ele>316.0</ele><time>2026-04-30T11:33:32.986Z</time></trkpt><trkpt lat="42.4331577" lon="12.086289"><ele>317.0</ele><time>2026-04-30T11:33:33.986Z</time></trkpt><trkpt lat="42.4329451" lon="12.0860692"><ele>318.0</ele><time>2026-04-30T11:33:34.986Z</time></trkpt><trkpt lat="42.4327357" lon="12.0858521"><ele>316.5</ele><time>2026-04-30T11:33:35.986Z</time></trkpt><trkpt lat="42.4325293" lon="12.0856345"><ele>315.0</ele><time>2026-04-30T11:33:36.987Z</time></trkpt><trkpt lat="42.4323237" lon="12.0854173"><ele>315.5</ele><time>2026-04-30T11:33:37.986Z</time></trkpt><trkpt lat="42.4321247" lon="12.0852046"><ele>316.0</ele><time>2026-04-30T11:33:38.986Z</time></trkpt><trkpt lat="42.4319229" lon="12.0849913"><ele>315.5</ele><time>2026-04-30T11:33:39.986Z</time></trkpt><trkpt lat="42.4317178" lon="12.0847902"><ele>315.0</ele><time>2026-04-30T11:33:40.986Z</time></trkpt><trkpt lat="42.4315167" lon="12.0845881"><ele>315.0</ele><time>2026-04-30T11:33:41.987Z</time></trkpt><trkpt lat="42.4313142" lon="12.0843907"><ele>315.0</ele><time>2026-04-30T11:33:42.986Z</time></trkpt><trkpt lat="42.4311087" lon="12.0841955"><ele>315.0</ele><time>2026-04-30T11:33:43.986Z</time></trkpt><trkpt lat="42.4308985" lon="12.0840069"><ele>315.0</ele><time>2026-04-30T11:33:44.986Z</time></trkpt><trkpt lat="42.4306856" lon="12.0838234"><ele>315.0</ele><time>2026-04-30T11:33:45.987Z</time></trkpt><trkpt lat="42.4304782" lon="12.0836399"><ele>315.0</ele><time>2026-04-30T11:33:46.986Z</time></trkpt><trkpt lat="42.4302724" lon="12.0834636"><ele>315.0</ele><time>2026-04-30T11:33:47.987Z</time></trkpt><trkpt lat="42.4300621" lon="12.0832919"><ele>315.0</ele><time>2026-04-30T11:33:48.986Z</time></trkpt><trkpt lat="42.4298442" lon="12.0831158"><ele>314.0</ele><time>2026-04-30T11:33:49.987Z</time></trkpt><trkpt lat="42.429629" lon="12.0829491"><ele>313.0</ele><time>2026-04-30T11:33:50.987Z</time></trkpt><trkpt lat="42.4294186" lon="12.0827873"><ele>313.0</ele><time>2026-04-30T11:33:51.986Z</time></trkpt><trkpt lat="42.4292084" lon="12.0826251"><ele>313.0</ele><time>2026-04-30T11:33:52.986Z</time></trkpt><trkpt lat="42.4289932" lon="12.0824691"><ele>310.5</ele><time>2026-04-30T11:33:53.986Z</time></trkpt><trkpt lat="42.4287793" lon="12.0823203"><ele>308.0</ele><time>2026-04-30T11:33:54.987Z</time></trkpt><trkpt lat="42.428561" lon="12.0821793"><ele>308.0</ele><time>2026-04-30T11:33:55.986Z</time></trkpt><trkpt lat="42.4283411" lon="12.0820406"><ele>308.0</ele><time>2026-04-30T11:33:56.986Z</time></trkpt><trkpt lat="42.4281232" lon="12.0819046"><ele>308.0</ele><time>2026-04-30T11:33:57.987Z</time></trkpt><trkpt lat="42.427907" lon="12.0817744"><ele>308.0</ele><time>2026-04-30T11:33:58.986Z</time></trkpt><trkpt lat="42.427685" lon="12.0816467"><ele>306.5</ele><time>2026-04-30T11:33:59.987Z</time></trkpt><trkpt lat="42.4274639" lon="12.0815234"><ele>305.0</ele><time>2026-04-30T11:34:00.986Z</time></trkpt><trkpt lat="42.4272359" lon="12.0814112"><ele>305.0</ele><time>2026-04-30T11:34:01.986Z</time></trkpt><trkpt lat="42.4270109" lon="12.0812997"><ele>305.0</ele><time>2026-04-30T11:34:02.986Z</time></trkpt><trkpt lat="42.4267819" lon="12.0811892"><ele>305.0</ele><time>2026-04-30T11:34:03.986Z</time></trkpt><trkpt lat="42.4265509" lon="12.0810845"><ele>305.0</ele><time>2026-04-30T11:34:04.987Z</time></trkpt><trkpt lat="42.4263204" lon="12.080987"><ele>304.5</ele><time>2026-04-30T11:34:05.986Z</time></trkpt><trkpt lat="42.4260873" lon="12.0808903"><ele>304.0</ele><time>2026-04-30T11:34:06.986Z</time></trkpt><trkpt lat="42.4258571" lon="12.0807973"><ele>303.5</ele><time>2026-04-30T11:34:07.987Z</time></trkpt><trkpt lat="42.4256267" lon="12.0807053"><ele>303.0</ele><time>2026-04-30T11:34:08.986Z</time></trkpt><trkpt lat="42.4253964" lon="12.080611"><ele>302.0</ele><time>2026-04-30T11:34:09.986Z</time></trkpt><trkpt lat="42.4251566" lon="12.0805222"><ele>301.0</ele><time>2026-04-30T11:34:10.986Z</time></trkpt><trkpt lat="42.4249164" lon="12.0804241"><ele>301.0</ele><time>2026-04-30T11:34:11.986Z</time></trkpt><trkpt lat="42.4246762" lon="12.0803293"><ele>301.0</ele><time>2026-04-30T11:34:12.986Z</time></trkpt><trkpt lat="42.4244321" lon="12.0802356"><ele>300.5</ele><time>2026-04-30T11:34:13.986Z</time></trkpt><trkpt lat="42.4241857" lon="12.0801434"><ele>300.0</ele><time>2026-04-30T11:34:14.987Z</time></trkpt><trkpt lat="42.4239404" lon="12.0800467"><ele>300.0</ele><time>2026-04-30T11:34:15.987Z</time></trkpt><trkpt lat="42.423704" lon="12.0799527"><ele>300.0</ele><time>2026-04-30T11:34:16.987Z</time></trkpt><trkpt lat="42.4234611" lon="12.0798559"><ele>299.5</ele><time>2026-04-30T11:34:17.986Z</time></trkpt><trkpt lat="42.423219" lon="12.0797609"><ele>299.0</ele><time>2026-04-30T11:34:18.986Z</time></trkpt><trkpt lat="42.4229796" lon="12.079661"><ele>297.5</ele><time>2026-04-30T11:34:19.986Z</time></trkpt><trkpt lat="42.4227374" lon="12.0795645"><ele>296.0</ele><time>2026-04-30T11:34:20.986Z</time></trkpt><trkpt lat="42.4224968" lon="12.0794667"><ele>296.0</ele><time>2026-04-30T11:34:21.987Z</time></trkpt><trkpt lat="42.4222578" lon="12.0793734"><ele>296.0</ele><time>2026-04-30T11:34:22.987Z</time></trkpt><trkpt lat="42.4220204" lon="12.0792866"><ele>296.5</ele><time>2026-04-30T11:34:23.986Z</time></trkpt><trkpt lat="42.4217809" lon="12.0792012"><ele>297.0</ele><time>2026-04-30T11:34:24.987Z</time></trkpt><trkpt lat="42.4215457" lon="12.0791101"><ele>294.5</ele><time>2026-04-30T11:34:25.987Z</time></trkpt><trkpt lat="42.4213046" lon="12.0790172"><ele>292.0</ele><time>2026-04-30T11:34:26.986Z</time></trkpt><trkpt lat="42.4210667" lon="12.078925"><ele>292.0</ele><time>2026-04-30T11:34:27.986Z</time></trkpt><trkpt lat="42.4208249" lon="12.0788366"><ele>292.0</ele><time>2026-04-30T11:34:28.986Z</time></trkpt><trkpt lat="42.4205809" lon="12.0787361"><ele>292.5</ele><time>2026-04-30T11:34:29.986Z</time></trkpt><trkpt lat="42.4203374" lon="12.0786407"><ele>293.0</ele><time>2026-04-30T11:34:30.986Z</time></trkpt><trkpt lat="42.4200977" lon="12.0785479"><ele>293.0</ele><time>2026-04-30T11:34:31.986Z</time></trkpt><trkpt lat="42.4198589" lon="12.0784524"><ele>293.0</ele><time>2026-04-30T11:34:32.986Z</time></trkpt><trkpt lat="42.4196168" lon="12.0783572"><ele>291.0</ele><time>2026-04-30T11:34:33.987Z</time></trkpt><trkpt lat="42.4193738" lon="12.0782633"><ele>289.0</ele><time>2026-04-30T11:34:34.987Z</time></trkpt><trkpt lat="42.4191369" lon="12.0781675"><ele>289.0</ele><time>2026-04-30T11:34:35.986Z</time></trkpt><trkpt lat="42.4189017" lon="12.0780749"><ele>289.0</ele><time>2026-04-30T11:34:36.987Z</time></trkpt><trkpt lat="42.4186572" lon="12.077983"><ele>288.0</ele><time>2026-04-30T11:34:37.986Z</time></trkpt><trkpt lat="42.418416" lon="12.0778877"><ele>287.0</ele><time>2026-04-30T11:34:38.987Z</time></trkpt><trkpt lat="42.4181794" lon="12.0777914"><ele>283.5</ele><time>2026-04-30T11:34:39.986Z</time></trkpt><trkpt lat="42.4179429" lon="12.0776998"><ele>280.0</ele><time>2026-04-30T11:34:40.986Z</time></trkpt><trkpt lat="42.4177078" lon="12.0776071"><ele>280.0</ele><time>2026-04-30T11:34:41.987Z</time></trkpt><trkpt lat="42.4174717" lon="12.0775079"><ele>280.0</ele><time>2026-04-30T11:34:42.986Z</time></trkpt><trkpt lat="42.4172401" lon="12.0774092"><ele>275.0</ele><time>2026-04-30T11:34:43.986Z</time></trkpt><trkpt lat="42.4170087" lon="12.077307"><ele>270.0</ele><time>2026-04-30T11:34:44.986Z</time></trkpt><trkpt lat="42.416775" lon="12.0771986"><ele>270.0</ele><time>2026-04-30T11:34:45.986Z</time></trkpt><trkpt lat="42.4165422" lon="12.0770779"><ele>270.0</ele><time>2026-04-30T11:34:46.987Z</time></trkpt><trkpt lat="42.416314" lon="12.0769513"><ele>273.0</ele><time>2026-04-30T11:34:47.986Z</time></trkpt><trkpt lat="42.4160856" lon="12.0768277"><ele>276.0</ele><time>2026-04-30T11:34:48.986Z</time></trkpt><trkpt lat="42.4158587" lon="12.0767007"><ele>273.5</ele><time>2026-04-30T11:34:49.986Z</time></trkpt><trkpt lat="42.4156272" lon="12.0765748"><ele>271.0</ele><time>2026-04-30T11:34:50.987Z</time></trkpt><trkpt lat="42.4153993" lon="12.0764434"><ele>278.0</ele><time>2026-04-30T11:34:51.986Z</time></trkpt><trkpt lat="42.4151736" lon="12.076309"><ele>285.0</ele><time>2026-04-30T11:34:52.986Z</time></trkpt><trkpt lat="42.4149413" lon="12.0761682"><ele>285.0</ele><time>2026-04-30T11:34:53.986Z</time></trkpt><trkpt lat="42.4147105" lon="12.0760297"><ele>285.0</ele><time>2026-04-30T11:34:54.986Z</time></trkpt><trkpt lat="42.4144817" lon="12.075885"><ele>284.5</ele><time>2026-04-30T11:34:55.987Z</time></trkpt><trkpt lat="42.4142547" lon="12.0757317"><ele>284.0</ele><time>2026-04-30T11:34:56.986Z</time></trkpt><trkpt lat="42.4140306" lon="12.0755778"><ele>281.0</ele><time>2026-04-30T11:34:57.986Z</time></trkpt><trkpt lat="42.4138062" lon="12.0754138"><ele>278.0</ele><time>2026-04-30T11:34:58.986Z</time></trkpt><trkpt lat="42.4135827" lon="12.0752501"><ele>278.0</ele><time>2026-04-30T11:34:59.986Z</time></trkpt><trkpt lat="42.4133629" lon="12.0750904"><ele>278.0</ele><time>2026-04-30T11:35:00.987Z</time></trkpt><trkpt lat="42.4131405" lon="12.0749373"><ele>276.0</ele><time>2026-04-30T11:35:01.986Z</time></trkpt><trkpt lat="42.4129189" lon="12.0747833"><ele>274.0</ele><time>2026-04-30T11:35:02.986Z</time></trkpt><trkpt lat="42.4126977" lon="12.0746275"><ele>274.0</ele><time>2026-04-30T11:35:03.986Z</time></trkpt><trkpt lat="42.4124802" lon="12.0744713"><ele>274.0</ele><time>2026-04-30T11:35:04.987Z</time></trkpt><trkpt lat="42.4122621" lon="12.074322"><ele>273.5</ele><time>2026-04-30T11:35:05.987Z</time></trkpt><trkpt lat="42.4120439" lon="12.0741722"><ele>273.0</ele><time>2026-04-30T11:35:06.986Z</time></trkpt><trkpt lat="42.4118267" lon="12.0740186"><ele>273.0</ele><time>2026-04-30T11:35:07.986Z</time></trkpt><trkpt lat="42.4116049" lon="12.0738603"><ele>273.0</ele><time>2026-04-30T11:35:08.986Z</time></trkpt><trkpt lat="42.4113803" lon="12.0737101"><ele>274.0</ele><time>2026-04-30T11:35:09.986Z</time></trkpt><trkpt lat="42.4111513" lon="12.0735488"><ele>275.0</ele><time>2026-04-30T11:35:10.987Z</time></trkpt><trkpt lat="42.410921" lon="12.0733856"><ele>273.5</ele><time>2026-04-30T11:35:11.986Z</time></trkpt><trkpt lat="42.4106906" lon="12.0732244"><ele>272.0</ele><time>2026-04-30T11:35:12.986Z</time></trkpt><trkpt lat="42.410462" lon="12.0730656"><ele>272.0</ele><time>2026-04-30T11:35:13.986Z</time></trkpt><trkpt lat="42.4102385" lon="12.0729084"><ele>272.0</ele><time>2026-04-30T11:35:14.987Z</time></trkpt><trkpt lat="42.4100116" lon="12.0727469"><ele>272.0</ele><time>2026-04-30T11:35:15.986Z</time></trkpt><trkpt lat="42.4097848" lon="12.0725876"><ele>272.0</ele><time>2026-04-30T11:35:16.986Z</time></trkpt><trkpt lat="42.4095582" lon="12.0724279"><ele>271.0</ele><time>2026-04-30T11:35:17.986Z</time></trkpt><trkpt lat="42.4093316" lon="12.0722727"><ele>270.0</ele><time>2026-04-30T11:35:18.987Z</time></trkpt><trkpt lat="42.4091049" lon="12.0721141"><ele>270.0</ele><time>2026-04-30T11:35:19.986Z</time></trkpt><trkpt lat="42.4088795" lon="12.0719603"><ele>270.0</ele><time>2026-04-30T11:35:20.987Z</time></trkpt><trkpt lat="42.4086523" lon="12.0717961"><ele>267.5</ele><time>2026-04-30T11:35:21.987Z</time></trkpt><trkpt lat="42.4084241" lon="12.071631"><ele>265.0</ele><time>2026-04-30T11:35:22.986Z</time></trkpt><trkpt lat="42.4082006" lon="12.0714671"><ele>264.0</ele><time>2026-04-30T11:35:23.986Z</time></trkpt><trkpt lat="42.4079782" lon="12.0712962"><ele>263.0</ele><time>2026-04-30T11:35:24.987Z</time></trkpt><trkpt lat="42.4077529" lon="12.0711268"><ele>263.0</ele><time>2026-04-30T11:35:25.986Z</time></trkpt><trkpt lat="42.4075281" lon="12.0709498"><ele>263.0</ele><time>2026-04-30T11:35:26.986Z</time></trkpt><trkpt lat="42.4073022" lon="12.0707779"><ele>264.5</ele><time>2026-04-30T11:35:27.986Z</time></trkpt><trkpt lat="42.4070754" lon="12.0705997"><ele>266.0</ele><time>2026-04-30T11:35:28.987Z</time></trkpt><trkpt lat="42.4068511" lon="12.0704276"><ele>266.0</ele><time>2026-04-30T11:35:29.986Z</time></trkpt><trkpt lat="42.4066313" lon="12.070262"><ele>266.0</ele><time>2026-04-30T11:35:30.986Z</time></trkpt><trkpt lat="42.4064077" lon="12.0700909"><ele>261.0</ele><time>2026-04-30T11:35:31.986Z</time></trkpt><trkpt lat="42.4061831" lon="12.0699145"><ele>256.0</ele><time>2026-04-30T11:35:32.987Z</time></trkpt><trkpt lat="42.4059607" lon="12.0697428"><ele>256.0</ele><time>2026-04-30T11:35:33.986Z</time></trkpt><trkpt lat="42.4057449" lon="12.0695708"><ele>256.0</ele><time>2026-04-30T11:35:34.987Z</time></trkpt><trkpt lat="42.405523" lon="12.069391"><ele>250.5</ele><time>2026-04-30T11:35:35.987Z</time></trkpt><trkpt lat="42.4053026" lon="12.0692133"><ele>245.0</ele><time>2026-04-30T11:35:36.987Z</time></trkpt><trkpt lat="42.4050824" lon="12.0690342"><ele>244.0</ele><time>2026-04-30T11:35:37.986Z</time></trkpt><trkpt lat="42.4048594" lon="12.0688616"><ele>243.0</ele><time>2026-04-30T11:35:38.986Z</time></trkpt><trkpt lat="42.4046307" lon="12.0686923"><ele>245.0</ele><time>2026-04-30T11:35:39.986Z</time></trkpt><trkpt lat="42.4044005" lon="12.0685311"><ele>247.0</ele><time>2026-04-30T11:35:40.987Z</time></trkpt><trkpt lat="42.4041665" lon="12.0683759"><ele>242.5</ele><time>2026-04-30T11:35:41.986Z</time></trkpt><trkpt lat="42.4039259" lon="12.0682259"><ele>238.0</ele><time>2026-04-30T11:35:42.986Z</time></trkpt><trkpt lat="42.4036836" lon="12.0680941"><ele>249.0</ele><time>2026-04-30T11:35:43.986Z</time></trkpt><trkpt lat="42.4034408" lon="12.0679698"><ele>260.0</ele><time>2026-04-30T11:35:44.987Z</time></trkpt><trkpt lat="42.4031991" lon="12.0678534"><ele>263.5</ele><time>2026-04-30T11:35:45.986Z</time></trkpt><trkpt lat="42.4029557" lon="12.0677329"><ele>267.0</ele><time>2026-04-30T11:35:46.986Z</time></trkpt><trkpt lat="42.4027119" lon="12.0676104"><ele>267.0</ele><time>2026-04-30T11:35:47.986Z</time></trkpt><trkpt lat="42.4024673" lon="12.0674839"><ele>267.0</ele><time>2026-04-30T11:35:48.986Z</time></trkpt><trkpt lat="42.4022257" lon="12.0673551"><ele>266.5</ele><time>2026-04-30T11:35:49.987Z</time></trkpt><trkpt lat="42.4019801" lon="12.0672247"><ele>266.0</ele><time>2026-04-30T11:35:50.987Z</time></trkpt><trkpt lat="42.4017352" lon="12.067102"><ele>266.0</ele><time>2026-04-30T11:35:51.986Z</time></trkpt><trkpt lat="42.4014915" lon="12.0669788"><ele>266.0</ele><time>2026-04-30T11:35:52.986Z</time></trkpt><trkpt lat="42.4012447" lon="12.066859"><ele>264.0</ele><time>2026-04-30T11:35:53.986Z</time></trkpt><trkpt lat="42.4009995" lon="12.0667313"><ele>262.0</ele><time>2026-04-30T11:35:54.987Z</time></trkpt><trkpt lat="42.4007503" lon="12.0666095"><ele>262.0</ele><time>2026-04-30T11:35:55.987Z</time></trkpt><trkpt lat="42.4005065" lon="12.066488"><ele>262.0</ele><time>2026-04-30T11:35:56.986Z</time></trkpt><trkpt lat="42.4002613" lon="12.066361"><ele>256.5</ele><time>2026-04-30T11:35:57.987Z</time></trkpt><trkpt lat="42.4000142" lon="12.0662355"><ele>251.0</ele><time>2026-04-30T11:35:58.987Z</time></trkpt><trkpt lat="42.3997664" lon="12.0661138"><ele>249.5</ele><time>2026-04-30T11:35:59.986Z</time></trkpt><trkpt lat="42.3995231" lon="12.0659923"><ele>248.0</ele><time>2026-04-30T11:36:00.986Z</time></trkpt><trkpt lat="42.3992829" lon="12.0658705"><ele>247.5</ele><time>2026-04-30T11:36:01.987Z</time></trkpt><trkpt lat="42.3990383" lon="12.0657431"><ele>247.0</ele><time>2026-04-30T11:36:02.986Z</time></trkpt><trkpt lat="42.3987899" lon="12.0656162"><ele>247.0</ele><time>2026-04-30T11:36:03.986Z</time></trkpt><trkpt lat="42.3985439" lon="12.0654918"><ele>247.0</ele><time>2026-04-30T11:36:04.986Z</time></trkpt><trkpt lat="42.3983047" lon="12.0653683"><ele>247.0</ele><time>2026-04-30T11:36:05.987Z</time></trkpt><trkpt lat="42.3980606" lon="12.065245"><ele>247.0</ele><time>2026-04-30T11:36:06.986Z</time></trkpt><trkpt lat="42.3978159" lon="12.065124"><ele>247.0</ele><time>2026-04-30T11:36:07.987Z</time></trkpt><trkpt lat="42.3975733" lon="12.065006"><ele>247.0</ele><time>2026-04-30T11:36:08.986Z</time></trkpt><trkpt lat="42.3973312" lon="12.064893"><ele>248.5</ele><time>2026-04-30T11:36:09.986Z</time></trkpt><trkpt lat="42.3970849" lon="12.0647787"><ele>250.0</ele><time>2026-04-30T11:36:10.987Z</time></trkpt><trkpt lat="42.3968442" lon="12.0646564"><ele>250.0</ele><time>2026-04-30T11:36:11.986Z</time></trkpt><trkpt lat="42.3966037" lon="12.0645343"><ele>250.0</ele><time>2026-04-30T11:36:12.986Z</time></trkpt><trkpt lat="42.3963588" lon="12.0644136"><ele>252.5</ele><time>2026-04-30T11:36:13.986Z</time></trkpt><trkpt lat="42.396108" lon="12.0642921"><ele>255.0</ele><time>2026-04-30T11:36:14.986Z</time></trkpt><trkpt lat="42.3958634" lon="12.0641671"><ele>254.0</ele><time>2026-04-30T11:36:15.986Z</time></trkpt><trkpt lat="42.3956236" lon="12.0640445"><ele>253.0</ele><time>2026-04-30T11:36:16.987Z</time></trkpt><trkpt lat="42.3953956" lon="12.0639275"><ele>253.0</ele><time>2026-04-30T11:36:17.987Z</time></trkpt><trkpt lat="42.3951701" lon="12.0638062"><ele>253.0</ele><time>2026-04-30T11:36:18.986Z</time></trkpt><trkpt lat="42.3949393" lon="12.063688"><ele>253.0</ele><time>2026-04-30T11:36:19.986Z</time></trkpt><trkpt lat="42.3947097" lon="12.0635677"><ele>253.0</ele><time>2026-04-30T11:36:20.986Z</time></trkpt><trkpt lat="42.3944875" lon="12.0634463"><ele>253.5</ele><time>2026-04-30T11:36:21.986Z</time></trkpt><trkpt lat="42.3942644" lon="12.0633172"><ele>254.0</ele><time>2026-04-30T11:36:22.986Z</time></trkpt><trkpt lat="42.3940474" lon="12.0631933"><ele>251.5</ele><time>2026-04-30T11:36:23.987Z</time></trkpt><trkpt lat="42.3938364" lon="12.0630631"><ele>249.0</ele><time>2026-04-30T11:36:24.987Z</time></trkpt><trkpt lat="42.3936283" lon="12.0629348"><ele>249.0</ele><time>2026-04-30T11:36:25.986Z</time></trkpt><trkpt lat="42.3934218" lon="12.0628148"><ele>249.0</ele><time>2026-04-30T11:36:26.986Z</time></trkpt><trkpt lat="42.3932119" lon="12.062696"><ele>249.5</ele><time>2026-04-30T11:36:27.986Z</time></trkpt><trkpt lat="42.3930056" lon="12.0625719"><ele>250.0</ele><time>2026-04-30T11:36:28.986Z</time></trkpt><trkpt lat="42.3928037" lon="12.0624387"><ele>249.0</ele><time>2026-04-30T11:36:29.987Z</time></trkpt><trkpt lat="42.3925935" lon="12.0623107"><ele>248.0</ele><time>2026-04-30T11:36:30.986Z</time></trkpt><trkpt lat="42.3923842" lon="12.0621834"><ele>248.0</ele><time>2026-04-30T11:36:31.987Z</time></trkpt><trkpt lat="42.3921732" lon="12.0620546"><ele>248.0</ele><time>2026-04-30T11:36:32.986Z</time></trkpt><trkpt lat="42.3919583" lon="12.0619205"><ele>247.0</ele><time>2026-04-30T11:36:33.986Z</time></trkpt><trkpt lat="42.3917361" lon="12.0617783"><ele>246.0</ele><time>2026-04-30T11:36:34.986Z</time></trkpt><trkpt lat="42.3915069" lon="12.0616408"><ele>244.5</ele><time>2026-04-30T11:36:35.986Z</time></trkpt><trkpt lat="42.3912793" lon="12.0615038"><ele>243.0</ele><time>2026-04-30T11:36:36.986Z</time></trkpt><trkpt lat="42.3910519" lon="12.0613679"><ele>243.0</ele><time>2026-04-30T11:36:37.986Z</time></trkpt><trkpt lat="42.3908227" lon="12.0612292"><ele>243.0</ele><time>2026-04-30T11:36:38.986Z</time></trkpt><trkpt lat="42.3905927" lon="12.0610906"><ele>243.0</ele><time>2026-04-30T11:36:39.986Z</time></trkpt><trkpt lat="42.3903614" lon="12.0609555"><ele>243.0</ele><time>2026-04-30T11:36:40.986Z</time></trkpt><trkpt lat="42.3901297" lon="12.0608159"><ele>243.0</ele><time>2026-04-30T11:36:41.986Z</time></trkpt><trkpt lat="42.3898978" lon="12.0606769"><ele>243.0</ele><time>2026-04-30T11:36:42.987Z</time></trkpt><trkpt lat="42.3896727" lon="12.0605348"><ele>243.0</ele><time>2026-04-30T11:36:43.987Z</time></trkpt><trkpt lat="42.3894491" lon="12.0603898"><ele>243.0</ele><time>2026-04-30T11:36:44.986Z</time></trkpt><trkpt lat="42.3892223" lon="12.0602425"><ele>243.0</ele><time>2026-04-30T11:36:45.986Z</time></trkpt><trkpt lat="42.388996" lon="12.0600986"><ele>243.0</ele><time>2026-04-30T11:36:46.986Z</time></trkpt><trkpt lat="42.3887667" lon="12.0599647"><ele>244.0</ele><time>2026-04-30T11:36:47.987Z</time></trkpt><trkpt lat="42.3885376" lon="12.059835"><ele>245.0</ele><time>2026-04-30T11:36:48.986Z</time></trkpt><trkpt lat="42.3883141" lon="12.0596968"><ele>245.0</ele><time>2026-04-30T11:36:49.986Z</time></trkpt><trkpt lat="42.3880862" lon="12.059555"><ele>245.0</ele><time>2026-04-30T11:36:50.986Z</time></trkpt><trkpt lat="42.3878527" lon="12.0594094"><ele>245.5</ele><time>2026-04-30T11:36:51.986Z</time></trkpt><trkpt lat="42.3876234" lon="12.0592704"><ele>246.0</ele><time>2026-04-30T11:36:52.986Z</time></trkpt><trkpt lat="42.3873959" lon="12.0591315"><ele>246.5</ele><time>2026-04-30T11:36:53.986Z</time></trkpt><trkpt lat="42.387164" lon="12.0589951"><ele>247.0</ele><time>2026-04-30T11:36:54.987Z</time></trkpt><trkpt lat="42.3869328" lon="12.0588629"><ele>247.0</ele><time>2026-04-30T11:36:55.986Z</time></trkpt><trkpt lat="42.3867032" lon="12.0587349"><ele>247.0</ele><time>2026-04-30T11:36:56.987Z</time></trkpt><trkpt lat="42.3864721" lon="12.0586003"><ele>247.0</ele><time>2026-04-30T11:36:57.987Z</time></trkpt><trkpt lat="42.3862362" lon="12.0584608"><ele>247.0</ele><time>2026-04-30T11:36:58.986Z</time></trkpt><trkpt lat="42.3860005" lon="12.0583208"><ele>245.0</ele><time>2026-04-30T11:36:59.986Z</time></trkpt><trkpt lat="42.3857627" lon="12.0581893"><ele>243.0</ele><time>2026-04-30T11:37:00.986Z</time></trkpt><trkpt lat="42.3855245" lon="12.0580613"><ele>244.0</ele><time>2026-04-30T11:37:01.986Z</time></trkpt><trkpt lat="42.3852865" lon="12.0579366"><ele>245.0</ele><time>2026-04-30T11:37:02.986Z</time></trkpt><trkpt lat="42.385052" lon="12.0578039"><ele>245.0</ele><time>2026-04-30T11:37:03.986Z</time></trkpt><trkpt lat="42.3848196" lon="12.0576721"><ele>245.0</ele><time>2026-04-30T11:37:04.986Z</time></trkpt><trkpt lat="42.3845838" lon="12.057542"><ele>245.0</ele><time>2026-04-30T11:37:05.986Z</time></trkpt><trkpt lat="42.3843556" lon="12.0574189"><ele>245.0</ele><time>2026-04-30T11:37:06.986Z</time></trkpt><trkpt lat="42.384124" lon="12.0572969"><ele>245.0</ele><time>2026-04-30T11:37:07.986Z</time></trkpt><trkpt lat="42.3838913" lon="12.0571763"><ele>245.0</ele><time>2026-04-30T11:37:08.987Z</time></trkpt><trkpt lat="42.3836632" lon="12.0570587"><ele>245.0</ele><time>2026-04-30T11:37:09.986Z</time></trkpt><trkpt lat="42.3834376" lon="12.0569407"><ele>245.0</ele><time>2026-04-30T11:37:10.987Z</time></trkpt><trkpt lat="42.3832116" lon="12.0568136"><ele>245.5</ele><time>2026-04-30T11:37:11.986Z</time></trkpt><trkpt lat="42.3829877" lon="12.0566949"><ele>246.0</ele><time>2026-04-30T11:37:12.987Z</time></trkpt><trkpt lat="42.3827618" lon="12.0565753"><ele>244.0</ele><time>2026-04-30T11:37:13.987Z</time></trkpt><trkpt lat="42.3825351" lon="12.0564583"><ele>242.0</ele><time>2026-04-30T11:37:14.986Z</time></trkpt><trkpt lat="42.3823065" lon="12.0563395"><ele>242.5</ele><time>2026-04-30T11:37:15.987Z</time></trkpt><trkpt lat="42.3820807" lon="12.0562223"><ele>243.0</ele><time>2026-04-30T11:37:16.987Z</time></trkpt><trkpt lat="42.3818544" lon="12.0561066"><ele>243.0</ele><time>2026-04-30T11:37:17.986Z</time></trkpt><trkpt lat="42.3816286" lon="12.0559911"><ele>243.0</ele><time>2026-04-30T11:37:18.986Z</time></trkpt><trkpt lat="42.3814012" lon="12.0558725"><ele>241.5</ele><time>2026-04-30T11:37:19.987Z</time></trkpt><trkpt lat="42.3811766" lon="12.0557567"><ele>240.0</ele><time>2026-04-30T11:37:20.986Z</time></trkpt><trkpt lat="42.380954" lon="12.0556364"><ele>240.0</ele><time>2026-04-30T11:37:21.987Z</time></trkpt><trkpt lat="42.3807328" lon="12.0555189"><ele>240.0</ele><time>2026-04-30T11:37:22.987Z</time></trkpt><trkpt lat="42.3805205" lon="12.0554026"><ele>238.5</ele><time>2026-04-30T11:37:23.987Z</time></trkpt><trkpt lat="42.3803039" lon="12.0552824"><ele>237.0</ele><time>2026-04-30T11:37:24.987Z</time></trkpt><trkpt lat="42.3800858" lon="12.0551685"><ele>237.0</ele><time>2026-04-30T11:37:25.986Z</time></trkpt><trkpt lat="42.3798651" lon="12.0550587"><ele>237.0</ele><time>2026-04-30T11:37:26.986Z</time></trkpt><trkpt lat="42.3796439" lon="12.0549498"><ele>237.5</ele><time>2026-04-30T11:37:27.986Z</time></trkpt><trkpt lat="42.379427" lon="12.0548398"><ele>238.0</ele><time>2026-04-30T11:37:28.986Z</time></trkpt><trkpt lat="42.3792195" lon="12.0547322"><ele>238.0</ele><time>2026-04-30T11:37:29.987Z</time></trkpt><trkpt lat="42.3790194" lon="12.0546209"><ele>238.0</ele><time>2026-04-30T11:37:30.986Z</time></trkpt><trkpt lat="42.3788193" lon="12.054506"><ele>238.0</ele><time>2026-04-30T11:37:31.986Z</time></trkpt><trkpt lat="42.3786211" lon="12.0543855"><ele>238.66666666666666</ele><time>2026-04-30T11:37:32.986Z</time></trkpt><trkpt lat="42.3784219" lon="12.0542711"><ele>239.33333333333331</ele><time>2026-04-30T11:37:33.987Z</time></trkpt><trkpt lat="42.3782238" lon="12.054154"><ele>240.0</ele><time>2026-04-30T11:37:34.986Z</time></trkpt><trkpt lat="42.3780297" lon="12.0540337"><ele>239.66666666666669</ele><time>2026-04-30T11:37:35.986Z</time></trkpt><trkpt lat="42.3778346" lon="12.0539014"><ele>239.33333333333334</ele><time>2026-04-30T11:37:36.986Z</time></trkpt><trkpt lat="42.3776443" lon="12.0537588"><ele>239.0</ele><time>2026-04-30T11:37:37.986Z</time></trkpt><trkpt lat="42.3774573" lon="12.0535998"><ele>239.0</ele><time>2026-04-30T11:37:38.987Z</time></trkpt><trkpt lat="42.3772817" lon="12.053419"><ele>239.0</ele><time>2026-04-30T11:37:39.986Z</time></trkpt><trkpt lat="42.3771267" lon="12.0532136"><ele>239.0</ele><time>2026-04-30T11:37:40.986Z</time></trkpt><trkpt lat="42.3769833" lon="12.0529855"><ele>238.0</ele><time>2026-04-30T11:37:41.986Z</time></trkpt><trkpt lat="42.3768463" lon="12.0527561"><ele>237.0</ele><time>2026-04-30T11:37:42.986Z</time></trkpt><trkpt lat="42.3767049" lon="12.0525308"><ele>236.0</ele><time>2026-04-30T11:37:43.987Z</time></trkpt><trkpt lat="42.3765558" lon="12.0523085"><ele>235.33333333333334</ele><time>2026-04-30T11:37:44.987Z</time></trkpt><trkpt lat="42.3764032" lon="12.0520979"><ele>234.66666666666669</ele><time>2026-04-30T11:37:45.986Z</time></trkpt><trkpt lat="42.3762378" lon="12.051908"><ele>234.0</ele><time>2026-04-30T11:37:46.987Z</time></trkpt><trkpt lat="42.3760585" lon="12.0517392"><ele>233.33333333333331</ele><time>2026-04-30T11:37:47.987Z</time></trkpt><trkpt lat="42.3758637" lon="12.0516039"><ele>232.66666666666666</ele><time>2026-04-30T11:37:48.986Z</time></trkpt><trkpt lat="42.3756514" lon="12.0515028"><ele>232.0</ele><time>2026-04-30T11:37:49.986Z</time></trkpt><trkpt lat="42.3754201" lon="12.0514368"><ele>232.0</ele><time>2026-04-30T11:37:50.986Z</time></trkpt><trkpt lat="42.3751877" lon="12.0514116"><ele>232.0</ele><time>2026-04-30T11:37:51.987Z</time></trkpt><trkpt lat="42.3749661" lon="12.0514173"><ele>232.0</ele><time>2026-04-30T11:37:52.986Z</time></trkpt><trkpt lat="42.374758" lon="12.051458"><ele>232.0</ele><time>2026-04-30T11:37:53.987Z</time></trkpt><trkpt lat="42.3745617" lon="12.0515278"><ele>232.0</ele><time>2026-04-30T11:37:54.986Z</time></trkpt><trkpt lat="42.3743826" lon="12.0516242"><ele>233.33333333333331</ele><time>2026-04-30T11:37:55.986Z</time></trkpt><trkpt lat="42.3742149" lon="12.0517445"><ele>234.66666666666669</ele><time>2026-04-30T11:37:56.986Z</time></trkpt><trkpt lat="42.3740583" lon="12.0518796"><ele>236.0</ele><time>2026-04-30T11:37:57.986Z</time></trkpt><trkpt lat="42.3739117" lon="12.0520244"><ele>236.0</ele><time>2026-04-30T11:37:58.986Z</time></trkpt><trkpt lat="42.3737739" lon="12.0521854"><ele>236.0</ele><time>2026-04-30T11:37:59.986Z</time></trkpt><trkpt lat="42.3736446" lon="12.0523707"><ele>236.0</ele><time>2026-04-30T11:38:00.987Z</time></trkpt><trkpt lat="42.3735252" lon="12.052587"><ele>236.0</ele><time>2026-04-30T11:38:01.986Z</time></trkpt><trkpt lat="42.3734013" lon="12.0528214"><ele>236.0</ele><time>2026-04-30T11:38:02.986Z</time></trkpt><trkpt lat="42.3732639" lon="12.0530655"><ele>236.0</ele><time>2026-04-30T11:38:03.986Z</time></trkpt><trkpt lat="42.3731247" lon="12.0533091"><ele>234.5</ele><time>2026-04-30T11:38:04.986Z</time></trkpt><trkpt lat="42.3729762" lon="12.0535514"><ele>233.0</ele><time>2026-04-30T11:38:05.986Z</time></trkpt><trkpt lat="42.3728319" lon="12.0537992"><ele>233.0</ele><time>2026-04-30T11:38:06.986Z</time></trkpt><trkpt lat="42.3726903" lon="12.0540536"><ele>233.0</ele><time>2026-04-30T11:38:07.986Z</time></trkpt><trkpt lat="42.3725511" lon="12.054298"><ele>234.0</ele><time>2026-04-30T11:38:08.986Z</time></trkpt><trkpt lat="42.3724231" lon="12.0545436"><ele>235.0</ele><time>2026-04-30T11:38:09.986Z</time></trkpt><trkpt lat="42.3722931" lon="12.0547845"><ele>236.0</ele><time>2026-04-30T11:38:10.986Z</time></trkpt><trkpt lat="42.372167" lon="12.055023"><ele>236.66666666666669</ele><time>2026-04-30T11:38:11.987Z</time></trkpt><trkpt lat="42.3720457" lon="12.055258"><ele>237.33333333333331</ele><time>2026-04-30T11:38:12.986Z</time></trkpt><trkpt lat="42.3719252" lon="12.0554832"><ele>238.0</ele><time>2026-04-30T11:38:13.986Z</time></trkpt><trkpt lat="42.3718004" lon="12.0557072"><ele>239.0</ele><time>2026-04-30T11:38:14.987Z</time></trkpt><trkpt lat="42.3716727" lon="12.0559258"><ele>240.0</ele><time>2026-04-30T11:38:15.986Z</time></trkpt><trkpt lat="42.3715418" lon="12.0561481"><ele>241.0</ele><time>2026-04-30T11:38:16.986Z</time></trkpt><trkpt lat="42.3714075" lon="12.0563619"><ele>240.66666666666666</ele><time>2026-04-30T11:38:17.987Z</time></trkpt><trkpt lat="42.3712702" lon="12.0565765"><ele>240.33333333333331</ele><time>2026-04-30T11:38:18.986Z</time></trkpt><trkpt lat="42.3711257" lon="12.0567837"><ele>240.0</ele><time>2026-04-30T11:38:19.986Z</time></trkpt><trkpt lat="42.3709756" lon="12.0569765"><ele>241.66666666666669</ele><time>2026-04-30T11:38:20.986Z</time></trkpt><trkpt lat="42.3708191" lon="12.057155"><ele>243.33333333333334</ele><time>2026-04-30T11:38:21.987Z</time></trkpt><trkpt lat="42.3706589" lon="12.057326"><ele>245.0</ele><time>2026-04-30T11:38:22.986Z</time></trkpt><trkpt lat="42.3704978" lon="12.0574893"><ele>246.33333333333334</ele><time>2026-04-30T11:38:23.986Z</time></trkpt><trkpt lat="42.370338" lon="12.0576323"><ele>247.66666666666669</ele><time>2026-04-30T11:38:24.986Z</time></trkpt><trkpt lat="42.3701762" lon="12.0577621"><ele>249.0</ele><time>2026-04-30T11:38:25.986Z</time></trkpt><trkpt lat="42.3700134" lon="12.0578734"><ele>249.0</ele><time>2026-04-30T11:38:26.986Z</time></trkpt><trkpt lat="42.3698495" lon="12.0579619"><ele>249.0</ele><time>2026-04-30T11:38:27.987Z</time></trkpt><trkpt lat="42.3696898" lon="12.058032"><ele>249.0</ele><time>2026-04-30T11:38:28.986Z</time></trkpt><trkpt lat="42.3695245" lon="12.0580881"><ele>249.0</ele><time>2026-04-30T11:38:29.986Z</time></trkpt><trkpt lat="42.3693575" lon="12.0581365"><ele>249.0</ele><time>2026-04-30T11:38:30.987Z</time></trkpt><trkpt lat="42.3691863" lon="12.0581765"><ele>249.0</ele><time>2026-04-30T11:38:31.986Z</time></trkpt><trkpt lat="42.3690186" lon="12.0582101"><ele>249.66666666666669</ele><time>2026-04-30T11:38:32.986Z</time></trkpt><trkpt lat="42.3688464" lon="12.0582419"><ele>250.33333333333334</ele><time>2026-04-30T11:38:33.986Z</time></trkpt><trkpt lat="42.3686755" lon="12.0582763"><ele>251.0</ele><time>2026-04-30T11:38:34.987Z</time></trkpt><trkpt lat="42.3685" lon="12.0583074"><ele>251.66666666666669</ele><time>2026-04-30T11:38:35.986Z</time></trkpt><trkpt lat="42.3683172" lon="12.0583392"><ele>252.33333333333331</ele><time>2026-04-30T11:38:36.986Z</time></trkpt><trkpt lat="42.3681346" lon="12.0583709"><ele>253.0</ele><time>2026-04-30T11:38:37.986Z</time></trkpt><trkpt lat="42.3679574" lon="12.0584014"><ele>253.66666666666666</ele><time>2026-04-30T11:38:38.987Z</time></trkpt><trkpt lat="42.3677839" lon="12.0584316"><ele>254.33333333333331</ele><time>2026-04-30T11:38:39.986Z</time></trkpt><trkpt lat="42.3676103" lon="12.0584611"><ele>255.0</ele><time>2026-04-30T11:38:40.986Z</time></trkpt><trkpt lat="42.367435" lon="12.0584897"><ele>255.0</ele><time>2026-04-30T11:38:41.987Z</time></trkpt><trkpt lat="42.3672588" lon="12.0585157"><ele>255.0</ele><time>2026-04-30T11:38:42.987Z</time></trkpt><trkpt lat="42.3670823" lon="12.0585472"><ele>255.0</ele><time>2026-04-30T11:38:43.986Z</time></trkpt><trkpt lat="42.3669067" lon="12.0585788"><ele>256.3333333333333</ele><time>2026-04-30T11:38:44.986Z</time></trkpt><trkpt lat="42.3667312" lon="12.0586057"><ele>257.66666666666663</ele><time>2026-04-30T11:38:45.986Z</time></trkpt><trkpt lat="42.3665567" lon="12.05863"><ele>259.0</ele><time>2026-04-30T11:38:46.987Z</time></trkpt><trkpt lat="42.3663757" lon="12.0586608"><ele>259.3333333333333</ele><time>2026-04-30T11:38:47.986Z</time></trkpt><trkpt lat="42.3661859" lon="12.0586925"><ele>259.6666666666667</ele><time>2026-04-30T11:38:48.986Z</time></trkpt><trkpt lat="42.3659958" lon="12.0587225"><ele>260.0</ele><time>2026-04-30T11:38:49.986Z</time></trkpt><trkpt lat="42.3658135" lon="12.0587531"><ele>260.0</ele><time>2026-04-30T11:38:50.987Z</time></trkpt><trkpt lat="42.3656361" lon="12.058782"><ele>260.0</ele><time>2026-04-30T11:38:51.986Z</time></trkpt><trkpt lat="42.365471" lon="12.0588138"><ele>260.0</ele><time>2026-04-30T11:38:52.986Z</time></trkpt><trkpt lat="42.3653043" lon="12.0588479"><ele>260.33333333333337</ele><time>2026-04-30T11:38:53.987Z</time></trkpt><trkpt lat="42.3651366" lon="12.0588847"><ele>260.6666666666667</ele><time>2026-04-30T11:38:54.986Z</time></trkpt><trkpt lat="42.3649656" lon="12.0589217"><ele>261.0</ele><time>2026-04-30T11:38:55.986Z</time></trkpt><trkpt lat="42.364782" lon="12.0589588"><ele>262.0</ele><time>2026-04-30T11:38:56.986Z</time></trkpt><trkpt lat="42.364598" lon="12.058996"><ele>263.0</ele><time>2026-04-30T11:38:57.986Z</time></trkpt><trkpt lat="42.3644111" lon="12.0590355"><ele>264.0</ele><time>2026-04-30T11:38:58.986Z</time></trkpt><trkpt lat="42.3642212" lon="12.0590779"><ele>265.6666666666667</ele><time>2026-04-30T11:38:59.986Z</time></trkpt><trkpt lat="42.3640114" lon="12.0591368"><ele>267.33333333333337</ele><time>2026-04-30T11:39:00.986Z</time></trkpt><trkpt lat="42.3637891" lon="12.0591996"><ele>269.0</ele><time>2026-04-30T11:39:01.986Z</time></trkpt><trkpt lat="42.3635473" lon="12.0592553"><ele>269.0</ele><time>2026-04-30T11:39:02.986Z</time></trkpt><trkpt lat="42.3633053" lon="12.0592906"><ele>269.0</ele><time>2026-04-30T11:39:03.986Z</time></trkpt><trkpt lat="42.3630627" lon="12.0593167"><ele>270.0</ele><time>2026-04-30T11:39:04.986Z</time></trkpt><trkpt lat="42.3628048" lon="12.0593564"><ele>271.0</ele><time>2026-04-30T11:39:05.986Z</time></trkpt><trkpt lat="42.3625525" lon="12.059403"><ele>271.0</ele><time>2026-04-30T11:39:06.986Z</time></trkpt><trkpt lat="42.3623092" lon="12.0594515"><ele>271.0</ele><time>2026-04-30T11:39:07.986Z</time></trkpt><trkpt lat="42.3620749" lon="12.0595071"><ele>273.0</ele><time>2026-04-30T11:39:08.987Z</time></trkpt><trkpt lat="42.3618405" lon="12.0595533"><ele>275.0</ele><time>2026-04-30T11:39:09.987Z</time></trkpt><trkpt lat="42.3616015" lon="12.0595958"><ele>275.0</ele><time>2026-04-30T11:39:10.986Z</time></trkpt><trkpt lat="42.3613687" lon="12.0596488"><ele>275.0</ele><time>2026-04-30T11:39:11.986Z</time></trkpt><trkpt lat="42.3611404" lon="12.0597244"><ele>278.0</ele><time>2026-04-30T11:39:12.986Z</time></trkpt><trkpt lat="42.3609228" lon="12.0598292"><ele>281.0</ele><time>2026-04-30T11:39:13.986Z</time></trkpt><trkpt lat="42.3607177" lon="12.0599632"><ele>280.5</ele><time>2026-04-30T11:39:14.986Z</time></trkpt><trkpt lat="42.3605282" lon="12.0601317"><ele>280.0</ele><time>2026-04-30T11:39:15.987Z</time></trkpt><trkpt lat="42.3603521" lon="12.0603365"><ele>280.0</ele><time>2026-04-30T11:39:16.986Z</time></trkpt><trkpt lat="42.3601906" lon="12.0605573"><ele>280.0</ele><time>2026-04-30T11:39:17.986Z</time></trkpt><trkpt lat="42.3600223" lon="12.060767"><ele>281.3333333333333</ele><time>2026-04-30T11:39:18.986Z</time></trkpt><trkpt lat="42.3598634" lon="12.0609676"><ele>282.6666666666667</ele><time>2026-04-30T11:39:19.986Z</time></trkpt><trkpt lat="42.3596982" lon="12.0611559"><ele>284.0</ele><time>2026-04-30T11:39:20.986Z</time></trkpt><trkpt lat="42.3595242" lon="12.0613204"><ele>285.5</ele><time>2026-04-30T11:39:21.986Z</time></trkpt><trkpt lat="42.3593282" lon="12.0614572"><ele>287.0</ele><time>2026-04-30T11:39:22.986Z</time></trkpt><trkpt lat="42.359111" lon="12.0615737"><ele>287.5</ele><time>2026-04-30T11:39:23.986Z</time></trkpt><trkpt lat="42.3588901" lon="12.0616575"><ele>288.0</ele><time>2026-04-30T11:39:24.986Z</time></trkpt><trkpt lat="42.3586698" lon="12.0617119"><ele>292.5</ele><time>2026-04-30T11:39:25.986Z</time></trkpt><trkpt lat="42.3584432" lon="12.0617308"><ele>297.0</ele><time>2026-04-30T11:39:26.986Z</time></trkpt><trkpt lat="42.3582156" lon="12.061718"><ele>300.5</ele><time>2026-04-30T11:39:27.986Z</time></trkpt><trkpt lat="42.3579917" lon="12.061689"><ele>304.0</ele><time>2026-04-30T11:39:28.987Z</time></trkpt><trkpt lat="42.3577648" lon="12.061663"><ele>304.0</ele><time>2026-04-30T11:39:29.986Z</time></trkpt><trkpt lat="42.3575418" lon="12.0616377"><ele>304.0</ele><time>2026-04-30T11:39:30.986Z</time></trkpt><trkpt lat="42.3573219" lon="12.0616184"><ele>304.0</ele><time>2026-04-30T11:39:31.986Z</time></trkpt><trkpt lat="42.3570976" lon="12.0615985"><ele>306.5</ele><time>2026-04-30T11:39:32.986Z</time></trkpt><trkpt lat="42.3568648" lon="12.061583"><ele>309.0</ele><time>2026-04-30T11:39:33.986Z</time></trkpt><trkpt lat="42.3566214" lon="12.0615666"><ele>309.0</ele><time>2026-04-30T11:39:34.986Z</time></trkpt><trkpt lat="42.3563746" lon="12.0615534"><ele>309.0</ele><time>2026-04-30T11:39:35.986Z</time></trkpt><trkpt lat="42.3561321" lon="12.0615377"><ele>311.0</ele><time>2026-04-30T11:39:36.986Z</time></trkpt><trkpt lat="42.3558844" lon="12.0615168"><ele>313.0</ele><time>2026-04-30T11:39:37.987Z</time></trkpt><trkpt lat="42.3556421" lon="12.0614966"><ele>314.5</ele><time>2026-04-30T11:39:38.986Z</time></trkpt><trkpt lat="42.3554006" lon="12.0614788"><ele>316.0</ele><time>2026-04-30T11:39:39.986Z</time></trkpt><trkpt lat="42.3551647" lon="12.061455"><ele>316.0</ele><time>2026-04-30T11:39:40.986Z</time></trkpt><trkpt lat="42.3549301" lon="12.0614338"><ele>316.0</ele><time>2026-04-30T11:39:41.986Z</time></trkpt><trkpt lat="42.3547002" lon="12.0614158"><ele>316.5</ele><time>2026-04-30T11:39:42.987Z</time></trkpt><trkpt lat="42.3544727" lon="12.0614026"><ele>317.0</ele><time>2026-04-30T11:39:43.986Z</time></trkpt><trkpt lat="42.354245" lon="12.0613882"><ele>317.0</ele><time>2026-04-30T11:39:44.987Z</time></trkpt><trkpt lat="42.3540192" lon="12.0613638"><ele>317.0</ele><time>2026-04-30T11:39:45.986Z</time></trkpt><trkpt lat="42.3537981" lon="12.0613361"><ele>317.0</ele><time>2026-04-30T11:39:46.986Z</time></trkpt><trkpt lat="42.3535676" lon="12.0613197"><ele>315.0</ele><time>2026-04-30T11:39:47.986Z</time></trkpt><trkpt lat="42.3533306" lon="12.061313"><ele>313.0</ele><time>2026-04-30T11:39:48.986Z</time></trkpt><trkpt lat="42.3530837" lon="12.0613005"><ele>310.5</ele><time>2026-04-30T11:39:49.987Z</time></trkpt><trkpt lat="42.3528389" lon="12.0612889"><ele>308.0</ele><time>2026-04-30T11:39:50.986Z</time></trkpt><trkpt lat="42.3526046" lon="12.061286"><ele>308.0</ele><time>2026-04-30T11:39:51.987Z</time></trkpt><trkpt lat="42.3523661" lon="12.0612864"><ele>308.0</ele><time>2026-04-30T11:39:52.987Z</time></trkpt><trkpt lat="42.3521208" lon="12.0612893"><ele>302.5</ele><time>2026-04-30T11:39:53.987Z</time></trkpt><trkpt lat="42.3518843" lon="12.0612914"><ele>297.0</ele><time>2026-04-30T11:39:54.987Z</time></trkpt><trkpt lat="42.3516462" lon="12.0612956"><ele>297.0</ele><time>2026-04-30T11:39:55.986Z</time></trkpt><trkpt lat="42.3514131" lon="12.0612931"><ele>297.0</ele><time>2026-04-30T11:39:56.986Z</time></trkpt><trkpt lat="42.3511846" lon="12.061296"><ele>298.0</ele><time>2026-04-30T11:39:57.986Z</time></trkpt><trkpt lat="42.3509591" lon="12.0613016"><ele>299.0</ele><time>2026-04-30T11:39:58.986Z</time></trkpt><trkpt lat="42.3507382" lon="12.0613043"><ele>300.0</ele><time>2026-04-30T11:39:59.986Z</time></trkpt><trkpt lat="42.3505162" lon="12.0613075"><ele>302.3333333333333</ele><time>2026-04-30T11:40:00.986Z</time></trkpt><trkpt lat="42.350287" lon="12.0613156"><ele>304.66666666666663</ele><time>2026-04-30T11:40:01.987Z</time></trkpt><trkpt lat="42.3500742" lon="12.061318"><ele>307.0</ele><time>2026-04-30T11:40:02.986Z</time></trkpt><trkpt lat="42.3498642" lon="12.0613193"><ele>307.0</ele><time>2026-04-30T11:40:03.986Z</time></trkpt><trkpt lat="42.3496722" lon="12.0613189"><ele>307.0</ele><time>2026-04-30T11:40:04.986Z</time></trkpt><trkpt lat="42.3494772" lon="12.0613233"><ele>307.0</ele><time>2026-04-30T11:40:05.987Z</time></trkpt><trkpt lat="42.3492951" lon="12.0613282"><ele>307.0</ele><time>2026-04-30T11:40:06.986Z</time></trkpt><trkpt lat="42.3491074" lon="12.0613295"><ele>307.0</ele><time>2026-04-30T11:40:07.986Z</time></trkpt><trkpt lat="42.3489107" lon="12.0613275"><ele>307.0</ele><time>2026-04-30T11:40:08.986Z</time></trkpt><trkpt lat="42.3487165" lon="12.0613306"><ele>305.66666666666663</ele><time>2026-04-30T11:40:09.986Z</time></trkpt><trkpt lat="42.3485322" lon="12.0613302"><ele>304.3333333333333</ele><time>2026-04-30T11:40:10.987Z</time></trkpt><trkpt lat="42.3483559" lon="12.0613325"><ele>303.0</ele><time>2026-04-30T11:40:11.986Z</time></trkpt><trkpt lat="42.3481829" lon="12.0613401"><ele>302.3333333333333</ele><time>2026-04-30T11:40:12.987Z</time></trkpt><trkpt lat="42.348007" lon="12.0613461"><ele>301.66666666666663</ele><time>2026-04-30T11:40:13.987Z</time></trkpt><trkpt lat="42.3478359" lon="12.0613477"><ele>301.0</ele><time>2026-04-30T11:40:14.987Z</time></trkpt><trkpt lat="42.3476586" lon="12.061348"><ele>301.0</ele><time>2026-04-30T11:40:15.987Z</time></trkpt><trkpt lat="42.3474851" lon="12.0613424"><ele>301.0</ele><time>2026-04-30T11:40:16.986Z</time></trkpt><trkpt lat="42.3473106" lon="12.061338"><ele>301.0</ele><time>2026-04-30T11:40:17.986Z</time></trkpt><trkpt lat="42.3471438" lon="12.0613132"><ele>302.66666666666663</ele><time>2026-04-30T11:40:18.986Z</time></trkpt><trkpt lat="42.3469908" lon="12.0612651"><ele>304.3333333333333</ele><time>2026-04-30T11:40:19.986Z</time></trkpt><trkpt lat="42.3468342" lon="12.0612001"><ele>306.0</ele><time>2026-04-30T11:40:20.986Z</time></trkpt><trkpt lat="42.3466855" lon="12.0611198"><ele>306.0</ele><time>2026-04-30T11:40:21.986Z</time></trkpt><trkpt lat="42.3465503" lon="12.0610293"><ele>306.0</ele><time>2026-04-30T11:40:22.986Z</time></trkpt><trkpt lat="42.3464204" lon="12.0609397"><ele>306.0</ele><time>2026-04-30T11:40:23.987Z</time></trkpt><trkpt lat="42.3462963" lon="12.0608501"><ele>306.0</ele><time>2026-04-30T11:40:24.986Z</time></trkpt><trkpt lat="42.3461672" lon="12.0607639"><ele>306.0</ele><time>2026-04-30T11:40:25.986Z</time></trkpt><trkpt lat="42.3460391" lon="12.0606689"><ele>306.0</ele><time>2026-04-30T11:40:26.986Z</time></trkpt><trkpt lat="42.3459145" lon="12.0605673"><ele>306.0</ele><time>2026-04-30T11:40:27.986Z</time></trkpt><trkpt lat="42.3457806" lon="12.060473"><ele>306.0</ele><time>2026-04-30T11:40:28.986Z</time></trkpt><trkpt lat="42.3456424" lon="12.060387"><ele>305.0</ele><time>2026-04-30T11:40:29.986Z</time></trkpt><trkpt lat="42.3454945" lon="12.060305"><ele>304.0</ele><time>2026-04-30T11:40:30.987Z</time></trkpt><trkpt lat="42.3453489" lon="12.0602248"><ele>303.0</ele><time>2026-04-30T11:40:31.986Z</time></trkpt><trkpt lat="42.3452033" lon="12.0601401"><ele>303.0</ele><time>2026-04-30T11:40:32.986Z</time></trkpt><trkpt lat="42.3450591" lon="12.0600516"><ele>303.0</ele><time>2026-04-30T11:40:33.986Z</time></trkpt><trkpt lat="42.3449113" lon="12.0599689"><ele>303.0</ele><time>2026-04-30T11:40:34.987Z</time></trkpt><trkpt lat="42.3447609" lon="12.0598782"><ele>301.0</ele><time>2026-04-30T11:40:35.986Z</time></trkpt><trkpt lat="42.3446013" lon="12.0597902"><ele>299.0</ele><time>2026-04-30T11:40:36.986Z</time></trkpt><trkpt lat="42.3444447" lon="12.0596988"><ele>297.0</ele><time>2026-04-30T11:40:37.987Z</time></trkpt><trkpt lat="42.3442871" lon="12.0596131"><ele>297.0</ele><time>2026-04-30T11:40:38.986Z</time></trkpt><trkpt lat="42.3441294" lon="12.0595183"><ele>297.0</ele><time>2026-04-30T11:40:39.987Z</time></trkpt><trkpt lat="42.3439709" lon="12.0594242"><ele>297.0</ele><time>2026-04-30T11:40:40.986Z</time></trkpt><trkpt lat="42.3438064" lon="12.0593293"><ele>296.6666666666667</ele><time>2026-04-30T11:40:41.987Z</time></trkpt><trkpt lat="42.343639" lon="12.0592342"><ele>296.33333333333337</ele><time>2026-04-30T11:40:42.986Z</time></trkpt><trkpt lat="42.3434686" lon="12.0591356"><ele>296.0</ele><time>2026-04-30T11:40:43.986Z</time></trkpt><trkpt lat="42.343272" lon="12.0590266"><ele>294.5</ele><time>2026-04-30T11:40:44.986Z</time></trkpt><trkpt lat="42.3430503" lon="12.0589132"><ele>293.0</ele><time>2026-04-30T11:40:45.986Z</time></trkpt><trkpt lat="42.3428261" lon="12.0587931"><ele>292.5</ele><time>2026-04-30T11:40:46.986Z</time></trkpt><trkpt lat="42.3426177" lon="12.0586624"><ele>292.0</ele><time>2026-04-30T11:40:47.986Z</time></trkpt><trkpt lat="42.3424139" lon="12.058539"><ele>292.0</ele><time>2026-04-30T11:40:48.987Z</time></trkpt><trkpt lat="42.3422226" lon="12.0584219"><ele>292.0</ele><time>2026-04-30T11:40:49.986Z</time></trkpt><trkpt lat="42.3420376" lon="12.0583226"><ele>292.0</ele><time>2026-04-30T11:40:50.986Z</time></trkpt><trkpt lat="42.3418505" lon="12.0582241"><ele>291.0</ele><time>2026-04-30T11:40:51.986Z</time></trkpt><trkpt lat="42.341668" lon="12.0581361"><ele>290.0</ele><time>2026-04-30T11:40:52.986Z</time></trkpt><trkpt lat="42.3415054" lon="12.0580435"><ele>289.0</ele><time>2026-04-30T11:40:53.987Z</time></trkpt><trkpt lat="42.3413457" lon="12.057951"><ele>286.66666666666663</ele><time>2026-04-30T11:40:54.986Z</time></trkpt><trkpt lat="42.3411862" lon="12.057857"><ele>284.3333333333333</ele><time>2026-04-30T11:40:55.986Z</time></trkpt><trkpt lat="42.3410295" lon="12.0577605"><ele>282.0</ele><time>2026-04-30T11:40:56.986Z</time></trkpt><trkpt lat="42.3408759" lon="12.05767"><ele>282.0</ele><time>2026-04-30T11:40:57.987Z</time></trkpt><trkpt lat="42.3407224" lon="12.057581"><ele>282.0</ele><time>2026-04-30T11:40:58.986Z</time></trkpt><trkpt lat="42.3405585" lon="12.0574928"><ele>282.0</ele><time>2026-04-30T11:40:59.986Z</time></trkpt><trkpt lat="42.3403907" lon="12.0574066"><ele>279.3333333333333</ele><time>2026-04-30T11:41:00.986Z</time></trkpt><trkpt lat="42.3402204" lon="12.0573274"><ele>276.66666666666663</ele><time>2026-04-30T11:41:01.986Z</time></trkpt><trkpt lat="42.3400486" lon="12.0572589"><ele>274.0</ele><time>2026-04-30T11:41:02.986Z</time></trkpt><trkpt lat="42.3398708" lon="12.0572057"><ele>276.0</ele><time>2026-04-30T11:41:03.986Z</time></trkpt><trkpt lat="42.3396723" lon="12.0571661"><ele>278.0</ele><time>2026-04-30T11:41:04.986Z</time></trkpt><trkpt lat="42.3394464" lon="12.057128"><ele>280.0</ele><time>2026-04-30T11:41:05.986Z</time></trkpt><trkpt lat="42.3392022" lon="12.0570751"><ele>280.0</ele><time>2026-04-30T11:41:06.986Z</time></trkpt><trkpt lat="42.3389534" lon="12.0569989"><ele>280.0</ele><time>2026-04-30T11:41:07.986Z</time></trkpt><trkpt lat="42.3387098" lon="12.0569341"><ele>282.0</ele><time>2026-04-30T11:41:08.986Z</time></trkpt><trkpt lat="42.3384711" lon="12.0568748"><ele>284.0</ele><time>2026-04-30T11:41:09.986Z</time></trkpt><trkpt lat="42.3382367" lon="12.0568266"><ele>284.33333333333337</ele><time>2026-04-30T11:41:10.986Z</time></trkpt><trkpt lat="42.3380128" lon="12.0567857"><ele>284.6666666666667</ele><time>2026-04-30T11:41:11.987Z</time></trkpt><trkpt lat="42.3378023" lon="12.0567451"><ele>285.0</ele><time>2026-04-30T11:41:12.986Z</time></trkpt><trkpt lat="42.3375974" lon="12.0567006"><ele>285.0</ele><time>2026-04-30T11:41:13.987Z</time></trkpt><trkpt lat="42.3373955" lon="12.0566558"><ele>285.0</ele><time>2026-04-30T11:41:14.986Z</time></trkpt><trkpt lat="42.3371998" lon="12.0565967"><ele>285.0</ele><time>2026-04-30T11:41:15.986Z</time></trkpt><trkpt lat="42.3370172" lon="12.0565336"><ele>285.0</ele><time>2026-04-30T11:41:16.986Z</time></trkpt><trkpt lat="42.3368407" lon="12.0564554"><ele>285.0</ele><time>2026-04-30T11:41:17.986Z</time></trkpt><trkpt lat="42.3366762" lon="12.0563586"><ele>285.0</ele><time>2026-04-30T11:41:18.986Z</time></trkpt><trkpt lat="42.3365154" lon="12.0562424"><ele>285.3333333333333</ele><time>2026-04-30T11:41:19.986Z</time></trkpt><trkpt lat="42.3363594" lon="12.0561155"><ele>285.66666666666663</ele><time>2026-04-30T11:41:20.987Z</time></trkpt><trkpt lat="42.3362054" lon="12.0559868"><ele>286.0</ele><time>2026-04-30T11:41:21.986Z</time></trkpt><trkpt lat="42.3360531" lon="12.0558593"><ele>285.0</ele><time>2026-04-30T11:41:22.986Z</time></trkpt><trkpt lat="42.3359003" lon="12.0557325"><ele>284.0</ele><time>2026-04-30T11:41:23.986Z</time></trkpt><trkpt lat="42.3357463" lon="12.0555996"><ele>283.0</ele><time>2026-04-30T11:41:24.987Z</time></trkpt><trkpt lat="42.3355935" lon="12.0554591"><ele>283.3333333333333</ele><time>2026-04-30T11:41:25.986Z</time></trkpt><trkpt lat="42.335438" lon="12.0553176"><ele>283.6666666666667</ele><time>2026-04-30T11:41:26.986Z</time></trkpt><trkpt lat="42.3352825" lon="12.0551796"><ele>284.0</ele><time>2026-04-30T11:41:27.986Z</time></trkpt><trkpt lat="42.3351348" lon="12.0550428"><ele>283.6666666666667</ele><time>2026-04-30T11:41:28.986Z</time></trkpt><trkpt lat="42.3349866" lon="12.0549121"><ele>283.3333333333333</ele><time>2026-04-30T11:41:29.986Z</time></trkpt><trkpt lat="42.3348323" lon="12.0547842"><ele>283.0</ele><time>2026-04-30T11:41:30.986Z</time></trkpt><trkpt lat="42.3346786" lon="12.0546526"><ele>283.0</ele><time>2026-04-30T11:41:31.987Z</time></trkpt><trkpt lat="42.3345287" lon="12.0545206"><ele>283.0</ele><time>2026-04-30T11:41:32.987Z</time></trkpt><trkpt lat="42.3343752" lon="12.0543846"><ele>283.0</ele><time>2026-04-30T11:41:33.986Z</time></trkpt><trkpt lat="42.3342163" lon="12.0542653"><ele>283.0</ele><time>2026-04-30T11:41:34.987Z</time></trkpt><trkpt lat="42.3340449" lon="12.0541667"><ele>283.0</ele><time>2026-04-30T11:41:35.986Z</time></trkpt><trkpt lat="42.3338733" lon="12.054089"><ele>283.0</ele><time>2026-04-30T11:41:36.986Z</time></trkpt><trkpt lat="42.333695" lon="12.0540234"><ele>281.66666666666663</ele><time>2026-04-30T11:41:37.986Z</time></trkpt><trkpt lat="42.333524" lon="12.0539611"><ele>280.3333333333333</ele><time>2026-04-30T11:41:38.986Z</time></trkpt><trkpt lat="42.3333529" lon="12.0539028"><ele>279.0</ele><time>2026-04-30T11:41:39.987Z</time></trkpt><trkpt lat="42.3331795" lon="12.0538405"><ele>280.6666666666667</ele><time>2026-04-30T11:41:40.986Z</time></trkpt><trkpt lat="42.3330036" lon="12.0537784"><ele>282.33333333333337</ele><time>2026-04-30T11:41:41.986Z</time></trkpt><trkpt lat="42.3328318" lon="12.0537141"><ele>284.0</ele><time>2026-04-30T11:41:42.986Z</time></trkpt><trkpt lat="42.3326586" lon="12.0536553"><ele>284.0</ele><time>2026-04-30T11:41:43.986Z</time></trkpt><trkpt lat="42.3324913" lon="12.053592"><ele>284.0</ele><time>2026-04-30T11:41:44.986Z</time></trkpt><trkpt lat="42.3323175" lon="12.0535311"><ele>284.0</ele><time>2026-04-30T11:41:45.986Z</time></trkpt><trkpt lat="42.3321521" lon="12.0534713"><ele>285.0</ele><time>2026-04-30T11:41:46.986Z</time></trkpt><trkpt lat="42.3319847" lon="12.0534244"><ele>286.0</ele><time>2026-04-30T11:41:47.987Z</time></trkpt><trkpt lat="42.3318282" lon="12.0533947"><ele>287.0</ele><time>2026-04-30T11:41:48.987Z</time></trkpt><trkpt lat="42.331672" lon="12.0533845"><ele>287.0</ele><time>2026-04-30T11:41:49.986Z</time></trkpt><trkpt lat="42.3315193" lon="12.0533907"><ele>287.0</ele><time>2026-04-30T11:41:50.986Z</time></trkpt><trkpt lat="42.3313612" lon="12.0533994"><ele>287.0</ele><time>2026-04-30T11:41:51.987Z</time></trkpt><trkpt lat="42.3311975" lon="12.0534114"><ele>287.33333333333337</ele><time>2026-04-30T11:41:52.986Z</time></trkpt><trkpt lat="42.3310217" lon="12.0534232"><ele>287.6666666666667</ele><time>2026-04-30T11:41:53.986Z</time></trkpt><trkpt lat="42.3308387" lon="12.0534219"><ele>288.0</ele><time>2026-04-30T11:41:54.987Z</time></trkpt><trkpt lat="42.3306641" lon="12.0534051"><ele>288.6666666666667</ele><time>2026-04-30T11:41:55.986Z</time></trkpt><trkpt lat="42.3305011" lon="12.0533768"><ele>289.33333333333337</ele><time>2026-04-30T11:41:56.986Z</time></trkpt><trkpt lat="42.3303484" lon="12.053349"><ele>290.0</ele><time>2026-04-30T11:41:57.987Z</time></trkpt><trkpt lat="42.3302031" lon="12.0533176"><ele>289.75</ele><time>2026-04-30T11:41:58.986Z</time></trkpt><trkpt lat="42.3300567" lon="12.0532866"><ele>289.5</ele><time>2026-04-30T11:41:59.987Z</time></trkpt><trkpt lat="42.3299109" lon="12.0532608"><ele>289.25</ele><time>2026-04-30T11:42:00.986Z</time></trkpt><trkpt lat="42.3297647" lon="12.053238"><ele>289.0</ele><time>2026-04-30T11:42:01.987Z</time></trkpt><trkpt lat="42.3296132" lon="12.053227"><ele>289.0</ele><time>2026-04-30T11:42:02.986Z</time></trkpt><trkpt lat="42.3294486" lon="12.0532455"><ele>289.0</ele><time>2026-04-30T11:42:03.986Z</time></trkpt><trkpt lat="42.3292808" lon="12.0532812"><ele>289.0</ele><time>2026-04-30T11:42:04.986Z</time></trkpt><trkpt lat="42.3291146" lon="12.0533264"><ele>289.0</ele><time>2026-04-30T11:42:05.986Z</time></trkpt><trkpt lat="42.3289516" lon="12.0533962"><ele>289.0</ele><time>2026-04-30T11:42:06.987Z</time></trkpt><trkpt lat="42.3287968" lon="12.0534675"><ele>289.0</ele><time>2026-04-30T11:42:07.986Z</time></trkpt><trkpt lat="42.3286461" lon="12.0535376"><ele>288.66666666666663</ele><time>2026-04-30T11:42:08.987Z</time></trkpt><trkpt lat="42.3284963" lon="12.0536071"><ele>288.3333333333333</ele><time>2026-04-30T11:42:09.987Z</time></trkpt><trkpt lat="42.3283524" lon="12.0536736"><ele>288.0</ele><time>2026-04-30T11:42:10.986Z</time></trkpt><trkpt lat="42.328209" lon="12.0537446"><ele>288.0</ele><time>2026-04-30T11:42:11.986Z</time></trkpt><trkpt lat="42.3280605" lon="12.053812"><ele>288.0</ele><time>2026-04-30T11:42:12.987Z</time></trkpt><trkpt lat="42.3279138" lon="12.053874"><ele>288.0</ele><time>2026-04-30T11:42:13.986Z</time></trkpt><trkpt lat="42.3277697" lon="12.0539238"><ele>288.0</ele><time>2026-04-30T11:42:14.987Z</time></trkpt><trkpt lat="42.3276193" lon="12.0539559"><ele>288.0</ele><time>2026-04-30T11:42:15.986Z</time></trkpt><trkpt lat="42.3274625" lon="12.0539838"><ele>288.0</ele><time>2026-04-30T11:42:16.986Z</time></trkpt><trkpt lat="42.3273045" lon="12.0540054"><ele>289.5</ele><time>2026-04-30T11:42:17.987Z</time></trkpt><trkpt lat="42.3271575" lon="12.0540253"><ele>291.0</ele><time>2026-04-30T11:42:18.986Z</time></trkpt><trkpt lat="42.3270082" lon="12.0540524"><ele>292.5</ele><time>2026-04-30T11:42:19.986Z</time></trkpt><trkpt lat="42.3268755" lon="12.054074"><ele>294.0</ele><time>2026-04-30T11:42:20.987Z</time></trkpt><trkpt lat="42.3267395" lon="12.0541061"><ele>293.5</ele><time>2026-04-30T11:42:21.986Z</time></trkpt><trkpt lat="42.3266033" lon="12.0541406"><ele>293.0</ele><time>2026-04-30T11:42:22.986Z</time></trkpt><trkpt lat="42.3264718" lon="12.0541659"><ele>292.5</ele><time>2026-04-30T11:42:23.987Z</time></trkpt><trkpt lat="42.3263364" lon="12.0541824"><ele>292.0</ele><time>2026-04-30T11:42:24.986Z</time></trkpt><trkpt lat="42.3262012" lon="12.0541855"><ele>291.0</ele><time>2026-04-30T11:42:25.986Z</time></trkpt><trkpt lat="42.326065" lon="12.054191"><ele>290.0</ele><time>2026-04-30T11:42:26.986Z</time></trkpt><trkpt lat="42.3259307" lon="12.054201"><ele>289.0</ele><time>2026-04-30T11:42:27.986Z</time></trkpt><trkpt lat="42.3257981" lon="12.0541914"><ele>288.0</ele><time>2026-04-30T11:42:28.987Z</time></trkpt><trkpt lat="42.3256601" lon="12.0541819"><ele>285.25</ele><time>2026-04-30T11:42:29.987Z</time></trkpt><trkpt lat="42.3255144" lon="12.0541586"><ele>282.5</ele><time>2026-04-30T11:42:30.986Z</time></trkpt><trkpt lat="42.3253688" lon="12.0541255"><ele>279.75</ele><time>2026-04-30T11:42:31.986Z</time></trkpt><trkpt lat="42.3252288" lon="12.05408"><ele>277.0</ele><time>2026-04-30T11:42:32.986Z</time></trkpt><trkpt lat="42.3250936" lon="12.0540183"><ele>277.0</ele><time>2026-04-30T11:42:33.986Z</time></trkpt><trkpt lat="42.3249734" lon="12.0539457"><ele>277.0</ele><time>2026-04-30T11:42:34.987Z</time></trkpt><trkpt lat="42.3248596" lon="12.0538801"><ele>277.0</ele><time>2026-04-30T11:42:35.987Z</time></trkpt><trkpt lat="42.3247526" lon="12.053806"><ele>277.0</ele><time>2026-04-30T11:42:36.986Z</time></trkpt><trkpt lat="42.3246453" lon="12.0537154"><ele>280.25</ele><time>2026-04-30T11:42:37.986Z</time></trkpt><trkpt lat="42.3245573" lon="12.0535935"><ele>283.5</ele><time>2026-04-30T11:42:38.986Z</time></trkpt><trkpt lat="42.324502" lon="12.0534385"><ele>286.75</ele><time>2026-04-30T11:42:39.986Z</time></trkpt><trkpt lat="42.3244757" lon="12.0532799"><ele>290.0</ele><time>2026-04-30T11:42:40.986Z</time></trkpt><trkpt lat="42.3244577" lon="12.0531227"><ele>290.25</ele><time>2026-04-30T11:42:41.986Z</time></trkpt><trkpt lat="42.3244424" lon="12.052966"><ele>290.5</ele><time>2026-04-30T11:42:42.986Z</time></trkpt><trkpt lat="42.3244407" lon="12.0528024"><ele>290.75</ele><time>2026-04-30T11:42:43.987Z</time></trkpt><trkpt lat="42.3244476" lon="12.0526393"><ele>291.0</ele><time>2026-04-30T11:42:44.986Z</time></trkpt><trkpt lat="42.324469" lon="12.0524704"><ele>290.6</ele><time>2026-04-30T11:42:45.987Z</time></trkpt><trkpt lat="42.3244802" lon="12.0523032"><ele>290.20000000000005</ele><time>2026-04-30T11:42:46.986Z</time></trkpt><trkpt lat="42.3244794" lon="12.0521507"><ele>289.79999999999995</ele><time>2026-04-30T11:42:47.987Z</time></trkpt><trkpt lat="42.3244758" lon="12.0520029"><ele>289.4</ele><time>2026-04-30T11:42:48.987Z</time></trkpt><trkpt lat="42.3244611" lon="12.0518687"><ele>289.0</ele><time>2026-04-30T11:42:49.986Z</time></trkpt><trkpt lat="42.3244346" lon="12.0517503"><ele>289.0</ele><time>2026-04-30T11:42:50.986Z</time></trkpt><trkpt lat="42.3244007" lon="12.0516252"><ele>289.0</ele><time>2026-04-30T11:42:51.987Z</time></trkpt><trkpt lat="42.3243548" lon="12.0514948"><ele>289.0</ele><time>2026-04-30T11:42:52.987Z</time></trkpt><trkpt lat="42.3242945" lon="12.0513536"><ele>289.0</ele><time>2026-04-30T11:42:53.986Z</time></trkpt><trkpt lat="42.3242206" lon="12.0512165"><ele>288.2</ele><time>2026-04-30T11:42:54.987Z</time></trkpt><trkpt lat="42.3241414" lon="12.0510967"><ele>287.4</ele><time>2026-04-30T11:42:55.986Z</time></trkpt><trkpt lat="42.3240529" lon="12.0510052"><ele>286.6</ele><time>2026-04-30T11:42:56.986Z</time></trkpt><trkpt lat="42.323965" lon="12.0509248"><ele>285.8</ele><time>2026-04-30T11:42:57.986Z</time></trkpt><trkpt lat="42.3238646" lon="12.0508807"><ele>285.0</ele><time>2026-04-30T11:42:58.986Z</time></trkpt><trkpt lat="42.3237616" lon="12.0508718"><ele>284.0</ele><time>2026-04-30T11:42:59.986Z</time></trkpt><trkpt lat="42.3236652" lon="12.0508926"><ele>283.0</ele><time>2026-04-30T11:43:00.986Z</time></trkpt><trkpt lat="42.3235821" lon="12.050928"><ele>282.0</ele><time>2026-04-30T11:43:01.986Z</time></trkpt><trkpt lat="42.3235011" lon="12.0509855"><ele>281.0</ele><time>2026-04-30T11:43:02.986Z</time></trkpt><trkpt lat="42.3234233" lon="12.0510508"><ele>280.0</ele><time>2026-04-30T11:43:03.986Z</time></trkpt><trkpt lat="42.3233431" lon="12.0511317"><ele>280.0</ele><time>2026-04-30T11:43:04.987Z</time></trkpt><trkpt lat="42.3232688" lon="12.0512354"><ele>280.0</ele><time>2026-04-30T11:43:05.986Z</time></trkpt><trkpt lat="42.3232104" lon="12.0513576"><ele>280.0</ele><time>2026-04-30T11:43:06.986Z</time></trkpt><trkpt lat="42.323165" lon="12.0514917"><ele>280.0</ele><time>2026-04-30T11:43:07.986Z</time></trkpt><trkpt lat="42.32312" lon="12.0516183"><ele>280.0</ele><time>2026-04-30T11:43:08.987Z</time></trkpt><trkpt lat="42.3230717" lon="12.0517567"><ele>282.25</ele><time>2026-04-30T11:43:09.987Z</time></trkpt><trkpt lat="42.3230183" lon="12.051895"><ele>284.5</ele><time>2026-04-30T11:43:10.986Z</time></trkpt><trkpt lat="42.3229667" lon="12.0520417"><ele>286.75</ele><time>2026-04-30T11:43:11.986Z</time></trkpt><trkpt lat="42.322915" lon="12.052175"><ele>289.0</ele><time>2026-04-30T11:43:12.986Z</time></trkpt><trkpt lat="42.3228667" lon="12.0523117"><ele>289.0</ele><time>2026-04-30T11:43:13.986Z</time></trkpt><trkpt lat="42.3228167" lon="12.052445"><ele>289.0</ele><time>2026-04-30T11:43:14.987Z</time></trkpt><trkpt lat="42.3227617" lon="12.052575"><ele>289.0</ele><time>2026-04-30T11:43:15.986Z</time></trkpt><trkpt lat="42.3227083" lon="12.0527067"><ele>289.0</ele><time>2026-04-30T11:43:16.986Z</time></trkpt><trkpt lat="42.32266" lon="12.05283"><ele>289.0</ele><time>2026-04-30T11:43:17.986Z</time></trkpt><trkpt lat="42.322615" lon="12.0529583"><ele>288.59999999999997</ele><time>2026-04-30T11:43:18.987Z</time></trkpt><trkpt lat="42.3225683" lon="12.053095"><ele>288.2</ele><time>2026-04-30T11:43:19.986Z</time></trkpt><trkpt lat="42.3225183" lon="12.0532217"><ele>287.79999999999995</ele><time>2026-04-30T11:43:20.986Z</time></trkpt><trkpt lat="42.3224767" lon="12.0533667"><ele>287.4</ele><time>2026-04-30T11:43:21.986Z</time></trkpt><trkpt lat="42.3224217" lon="12.0534967"><ele>287.0</ele><time>2026-04-30T11:43:22.986Z</time></trkpt><trkpt lat="42.3223733" lon="12.05363"><ele>287.8</ele><time>2026-04-30T11:43:23.986Z</time></trkpt><trkpt lat="42.3223217" lon="12.0537567"><ele>288.6</ele><time>2026-04-30T11:43:24.986Z</time></trkpt><trkpt lat="42.32227" lon="12.0538783"><ele>289.40000000000003</ele><time>2026-04-30T11:43:25.986Z</time></trkpt><trkpt lat="42.32222" lon="12.054005"><ele>290.2</ele><time>2026-04-30T11:43:26.987Z</time></trkpt><trkpt lat="42.3221833" lon="12.0541283"><ele>291.0</ele><time>2026-04-30T11:43:27.986Z</time></trkpt><trkpt lat="42.3221333" lon="12.05424"><ele>292.0</ele><time>2026-04-30T11:43:28.986Z</time></trkpt><trkpt lat="42.3220867" lon="12.05436"><ele>293.0</ele><time>2026-04-30T11:43:29.986Z</time></trkpt><trkpt lat="42.3220383" lon="12.0544883"><ele>294.0</ele><time>2026-04-30T11:43:30.986Z</time></trkpt><trkpt lat="42.32199" lon="12.0546167"><ele>295.0</ele><time>2026-04-30T11:43:31.986Z</time></trkpt><trkpt lat="42.3219467" lon="12.05474"><ele>296.0</ele><time>2026-04-30T11:43:32.986Z</time></trkpt><trkpt lat="42.3218967" lon="12.0548717"><ele>295.40000000000003</ele><time>2026-04-30T11:43:33.986Z</time></trkpt><trkpt lat="42.3218567" lon="12.0549883"><ele>294.8</ele><time>2026-04-30T11:43:34.986Z</time></trkpt><trkpt lat="42.3218167" lon="12.0550917"><ele>294.20000000000005</ele><time>2026-04-30T11:43:35.986Z</time></trkpt><trkpt lat="42.3217767" lon="12.0551933"><ele>293.6</ele><time>2026-04-30T11:43:36.986Z</time></trkpt><trkpt lat="42.32174" lon="12.0552833"><ele>293.0</ele><time>2026-04-30T11:43:37.986Z</time></trkpt><trkpt lat="42.3216917" lon="12.0554183"><ele>293.0</ele><time>2026-04-30T11:43:39.986Z</time></trkpt><trkpt lat="42.32165" lon="12.055505"><ele>293.0</ele><time>2026-04-30T11:43:41.987Z</time></trkpt><trkpt lat="42.3215833" lon="12.0556633"><ele>293.0</ele><time>2026-04-30T11:43:43.986Z</time></trkpt><trkpt lat="42.3215467" lon="12.0557717"><ele>293.0</ele><time>2026-04-30T11:43:44.986Z</time></trkpt><trkpt lat="42.3214983" lon="12.0559067"><ele>293.0</ele><time>2026-04-30T11:43:45.986Z</time></trkpt><trkpt lat="42.32144" lon="12.05606"><ele>294.0</ele><time>2026-04-30T11:43:46.987Z</time></trkpt><trkpt lat="42.321355" lon="12.0562233"><ele>295.0</ele><time>2026-04-30T11:43:47.986Z</time></trkpt><trkpt lat="42.3212733" lon="12.05641"><ele>296.0</ele><time>2026-04-30T11:43:48.986Z</time></trkpt><trkpt lat="42.3211917" lon="12.0566083"><ele>296.0</ele><time>2026-04-30T11:43:49.987Z</time></trkpt><trkpt lat="42.3211083" lon="12.0568083"><ele>296.0</ele><time>2026-04-30T11:43:50.986Z</time></trkpt><trkpt lat="42.3210317" lon="12.0570317"><ele>296.0</ele><time>2026-04-30T11:43:51.987Z</time></trkpt><trkpt lat="42.320955" lon="12.0572433"><ele>297.0</ele><time>2026-04-30T11:43:52.986Z</time></trkpt><trkpt lat="42.3208817" lon="12.05746"><ele>298.0</ele><time>2026-04-30T11:43:53.986Z</time></trkpt><trkpt lat="42.3208" lon="12.0576683"><ele>299.0</ele><time>2026-04-30T11:43:54.987Z</time></trkpt><trkpt lat="42.3207317" lon="12.0578517"><ele>299.0</ele><time>2026-04-30T11:43:55.987Z</time></trkpt><trkpt lat="42.32066" lon="12.0580333"><ele>299.0</ele><time>2026-04-30T11:43:56.986Z</time></trkpt><trkpt lat="42.3205917" lon="12.0582233"><ele>299.0</ele><time>2026-04-30T11:43:57.986Z</time></trkpt><trkpt lat="42.320515" lon="12.05841"><ele>301.33333333333337</ele><time>2026-04-30T11:43:58.986Z</time></trkpt><trkpt lat="42.32043" lon="12.058605"><ele>303.6666666666667</ele><time>2026-04-30T11:43:59.986Z</time></trkpt><trkpt lat="42.3203583" lon="12.0588017"><ele>306.0</ele><time>2026-04-30T11:44:00.987Z</time></trkpt><trkpt lat="42.3202833" lon="12.058995"><ele>305.6666666666667</ele><time>2026-04-30T11:44:01.986Z</time></trkpt><trkpt lat="42.3202083" lon="12.0591967"><ele>305.33333333333337</ele><time>2026-04-30T11:44:02.986Z</time></trkpt><trkpt lat="42.320125" lon="12.0593933"><ele>305.0</ele><time>2026-04-30T11:44:03.986Z</time></trkpt><trkpt lat="42.320035" lon="12.0595917"><ele>305.0</ele><time>2026-04-30T11:44:04.986Z</time></trkpt><trkpt lat="42.3199483" lon="12.0597833"><ele>305.0</ele><time>2026-04-30T11:44:05.986Z</time></trkpt><trkpt lat="42.3198717" lon="12.05998"><ele>305.0</ele><time>2026-04-30T11:44:06.986Z</time></trkpt><trkpt lat="42.3198017" lon="12.0601817"><ele>306.0</ele><time>2026-04-30T11:44:07.987Z</time></trkpt><trkpt lat="42.3197267" lon="12.0603767"><ele>307.0</ele><time>2026-04-30T11:44:08.986Z</time></trkpt><trkpt lat="42.3196667" lon="12.0605667"><ele>308.0</ele><time>2026-04-30T11:44:09.987Z</time></trkpt><trkpt lat="42.3195933" lon="12.06076"><ele>308.33333333333337</ele><time>2026-04-30T11:44:10.987Z</time></trkpt><trkpt lat="42.31952" lon="12.060945"><ele>308.6666666666667</ele><time>2026-04-30T11:44:11.987Z</time></trkpt><trkpt lat="42.3194433" lon="12.0611383"><ele>309.0</ele><time>2026-04-30T11:44:12.986Z</time></trkpt><trkpt lat="42.319355" lon="12.0613417"><ele>309.0</ele><time>2026-04-30T11:44:13.986Z</time></trkpt><trkpt lat="42.3192717" lon="12.0615283"><ele>309.0</ele><time>2026-04-30T11:44:14.986Z</time></trkpt><trkpt lat="42.3191983" lon="12.0617217"><ele>309.0</ele><time>2026-04-30T11:44:15.986Z</time></trkpt><trkpt lat="42.31911" lon="12.0619067"><ele>309.6666666666667</ele><time>2026-04-30T11:44:16.986Z</time></trkpt><trkpt lat="42.3190117" lon="12.0620883"><ele>310.33333333333337</ele><time>2026-04-30T11:44:17.987Z</time></trkpt><trkpt lat="42.3188967" lon="12.0622383"><ele>311.0</ele><time>2026-04-30T11:44:18.986Z</time></trkpt><trkpt lat="42.3187517" lon="12.06233"><ele>312.33333333333337</ele><time>2026-04-30T11:44:19.986Z</time></trkpt><trkpt lat="42.3185833" lon="12.06239"><ele>313.6666666666667</ele><time>2026-04-30T11:44:20.986Z</time></trkpt><trkpt lat="42.3184133" lon="12.0624117"><ele>315.0</ele><time>2026-04-30T11:44:21.987Z</time></trkpt><trkpt lat="42.3182367" lon="12.0624233"><ele>315.0</ele><time>2026-04-30T11:44:22.986Z</time></trkpt><trkpt lat="42.31807" lon="12.062435"><ele>315.0</ele><time>2026-04-30T11:44:23.986Z</time></trkpt><trkpt lat="42.3179133" lon="12.0624383"><ele>315.0</ele><time>2026-04-30T11:44:24.986Z</time></trkpt><trkpt lat="42.317755" lon="12.0624533"><ele>316.0</ele><time>2026-04-30T11:44:25.987Z</time></trkpt><trkpt lat="42.3176117" lon="12.0624633"><ele>317.0</ele><time>2026-04-30T11:44:26.986Z</time></trkpt><trkpt lat="42.3174817" lon="12.0624783"><ele>318.0</ele><time>2026-04-30T11:44:27.986Z</time></trkpt><trkpt lat="42.3173567" lon="12.0624917"><ele>319.0</ele><time>2026-04-30T11:44:28.986Z</time></trkpt><trkpt lat="42.3172433" lon="12.0624917"><ele>320.0</ele><time>2026-04-30T11:44:29.986Z</time></trkpt><trkpt lat="42.3171383" lon="12.062495"><ele>321.0</ele><time>2026-04-30T11:44:30.987Z</time></trkpt><trkpt lat="42.317045" lon="12.0625"><ele>322.0</ele><time>2026-04-30T11:44:31.986Z</time></trkpt><trkpt lat="42.3169517" lon="12.0625067"><ele>323.0</ele><time>2026-04-30T11:44:32.986Z</time></trkpt><trkpt lat="42.3168617" lon="12.0625133"><ele>324.0</ele><time>2026-04-30T11:44:33.986Z</time></trkpt><trkpt lat="42.3167767" lon="12.06252"><ele>324.0</ele><time>2026-04-30T11:44:34.986Z</time></trkpt><trkpt lat="42.3166733" lon="12.0625233"><ele>324.0</ele><time>2026-04-30T11:44:35.987Z</time></trkpt><trkpt lat="42.3165533" lon="12.062525"><ele>324.0</ele><time>2026-04-30T11:44:36.986Z</time></trkpt><trkpt lat="42.3164267" lon="12.062515"><ele>324.0</ele><time>2026-04-30T11:44:37.987Z</time></trkpt><trkpt lat="42.3163" lon="12.062515"><ele>324.6</ele><time>2026-04-30T11:44:38.986Z</time></trkpt><trkpt lat="42.3161783" lon="12.0625267"><ele>325.2</ele><time>2026-04-30T11:44:39.986Z</time></trkpt><trkpt lat="42.3160733" lon="12.0625283"><ele>325.8</ele><time>2026-04-30T11:44:40.986Z</time></trkpt><trkpt lat="42.3159867" lon="12.0625133"><ele>326.40000000000003</ele><time>2026-04-30T11:44:41.986Z</time></trkpt><trkpt lat="42.3159183" lon="12.0624883"><ele>327.0</ele><time>2026-04-30T11:44:42.986Z</time></trkpt><trkpt lat="42.3158533" lon="12.0624533"><ele>327.0</ele><time>2026-04-30T11:44:43.986Z</time></trkpt><trkpt lat="42.31579" lon="12.0624533"><ele>327.0</ele><time>2026-04-30T11:44:44.986Z</time></trkpt><trkpt lat="42.3157333" lon="12.0624917"><ele>327.0</ele><time>2026-04-30T11:44:45.986Z</time></trkpt><trkpt lat="42.3156783" lon="12.0625583"><ele>327.0</ele><time>2026-04-30T11:44:46.986Z</time></trkpt><trkpt lat="42.3156217" lon="12.062635"><ele>327.0</ele><time>2026-04-30T11:44:47.986Z</time></trkpt><trkpt lat="42.315555" lon="12.062705"><ele>327.0</ele><time>2026-04-30T11:44:48.986Z</time></trkpt><trkpt lat="42.315485" lon="12.062775"><ele>327.75</ele><time>2026-04-30T11:44:49.986Z</time></trkpt><trkpt lat="42.3154067" lon="12.06287"><ele>328.5</ele><time>2026-04-30T11:44:50.986Z</time></trkpt><trkpt lat="42.3153117" lon="12.0629833"><ele>329.25</ele><time>2026-04-30T11:44:51.986Z</time></trkpt><trkpt lat="42.315195" lon="12.0631167"><ele>330.0</ele><time>2026-04-30T11:44:52.986Z</time></trkpt><trkpt lat="42.3150683" lon="12.0632533"><ele>331.0</ele><time>2026-04-30T11:44:53.986Z</time></trkpt><trkpt lat="42.31493" lon="12.0633833"><ele>332.0</ele><time>2026-04-30T11:44:54.986Z</time></trkpt><trkpt lat="42.3147967" lon="12.0635217"><ele>333.0</ele><time>2026-04-30T11:44:55.986Z</time></trkpt><trkpt lat="42.31467" lon="12.0636617"><ele>333.0</ele><time>2026-04-30T11:44:56.986Z</time></trkpt><trkpt lat="42.3145433" lon="12.063805"><ele>333.0</ele><time>2026-04-30T11:44:57.986Z</time></trkpt><trkpt lat="42.3144283" lon="12.0639483"><ele>333.0</ele><time>2026-04-30T11:44:58.986Z</time></trkpt><trkpt lat="42.3143117" lon="12.064085"><ele>333.6666666666667</ele><time>2026-04-30T11:44:59.986Z</time></trkpt><trkpt lat="42.31418" lon="12.0642267"><ele>334.33333333333337</ele><time>2026-04-30T11:45:00.987Z</time></trkpt><trkpt lat="42.3140633" lon="12.06437"><ele>335.0</ele><time>2026-04-30T11:45:01.987Z</time></trkpt><trkpt lat="42.3139467" lon="12.064495"><ele>333.6666666666667</ele><time>2026-04-30T11:45:02.986Z</time></trkpt><trkpt lat="42.3138117" lon="12.0646267"><ele>332.3333333333333</ele><time>2026-04-30T11:45:03.986Z</time></trkpt><trkpt lat="42.31368" lon="12.0647617"><ele>331.0</ele><time>2026-04-30T11:45:04.986Z</time></trkpt><trkpt lat="42.3135533" lon="12.0649067"><ele>334.66666666666663</ele><time>2026-04-30T11:45:05.986Z</time></trkpt><trkpt lat="42.313435" lon="12.06505"><ele>338.3333333333333</ele><time>2026-04-30T11:45:06.987Z</time></trkpt><trkpt lat="42.31331" lon="12.06519"><ele>342.0</ele><time>2026-04-30T11:45:07.986Z</time></trkpt><trkpt lat="42.3131683" lon="12.065325"><ele>341.3333333333333</ele><time>2026-04-30T11:45:08.986Z</time></trkpt><trkpt lat="42.3130433" lon="12.0654667"><ele>340.66666666666663</ele><time>2026-04-30T11:45:09.986Z</time></trkpt><trkpt lat="42.3129233" lon="12.0656067"><ele>340.0</ele><time>2026-04-30T11:45:10.986Z</time></trkpt><trkpt lat="42.3127917" lon="12.065745"><ele>342.66666666666663</ele><time>2026-04-30T11:45:11.986Z</time></trkpt><trkpt lat="42.3126767" lon="12.0658883"><ele>345.3333333333333</ele><time>2026-04-30T11:45:12.986Z</time></trkpt><trkpt lat="42.3125567" lon="12.0660317"><ele>348.0</ele><time>2026-04-30T11:45:13.986Z</time></trkpt><trkpt lat="42.3124367" lon="12.0661683"><ele>348.0</ele><time>2026-04-30T11:45:14.986Z</time></trkpt><trkpt lat="42.3123133" lon="12.0663033"><ele>348.0</ele><time>2026-04-30T11:45:15.986Z</time></trkpt><trkpt lat="42.3121817" lon="12.06645"><ele>348.0</ele><time>2026-04-30T11:45:16.987Z</time></trkpt><trkpt lat="42.31205" lon="12.0665983"><ele>350.6666666666667</ele><time>2026-04-30T11:45:17.987Z</time></trkpt><trkpt lat="42.31191" lon="12.066755"><ele>353.33333333333337</ele><time>2026-04-30T11:45:18.986Z</time></trkpt><trkpt lat="42.31176" lon="12.0669183"><ele>356.0</ele><time>2026-04-30T11:45:19.987Z</time></trkpt><trkpt lat="42.3116267" lon="12.067085"><ele>356.0</ele><time>2026-04-30T11:45:20.986Z</time></trkpt><trkpt lat="42.3115" lon="12.0672683"><ele>356.0</ele><time>2026-04-30T11:45:21.987Z</time></trkpt><trkpt lat="42.3113967" lon="12.0674633"><ele>356.0</ele><time>2026-04-30T11:45:22.987Z</time></trkpt><trkpt lat="42.31131" lon="12.06768"><ele>358.6666666666667</ele><time>2026-04-30T11:45:23.986Z</time></trkpt><trkpt lat="42.3112433" lon="12.06792"><ele>361.3333333333333</ele><time>2026-04-30T11:45:24.986Z</time></trkpt><trkpt lat="42.3111883" lon="12.0681583"><ele>364.0</ele><time>2026-04-30T11:45:25.986Z</time></trkpt><trkpt lat="42.311135" lon="12.0683933"><ele>364.3333333333333</ele><time>2026-04-30T11:45:26.987Z</time></trkpt><trkpt lat="42.3110933" lon="12.068615"><ele>364.6666666666667</ele><time>2026-04-30T11:45:27.986Z</time></trkpt><trkpt lat="42.311055" lon="12.0688467"><ele>365.0</ele><time>2026-04-30T11:45:28.987Z</time></trkpt><trkpt lat="42.3110067" lon="12.0690817"><ele>365.33333333333337</ele><time>2026-04-30T11:45:29.987Z</time></trkpt><trkpt lat="42.3109617" lon="12.069305"><ele>365.6666666666667</ele><time>2026-04-30T11:45:30.987Z</time></trkpt><trkpt lat="42.31091" lon="12.069535"><ele>366.0</ele><time>2026-04-30T11:45:31.986Z</time></trkpt><trkpt lat="42.3108583" lon="12.0697733"><ele>365.6666666666667</ele><time>2026-04-30T11:45:32.986Z</time></trkpt><trkpt lat="42.3108117" lon="12.0700033"><ele>365.33333333333337</ele><time>2026-04-30T11:45:33.986Z</time></trkpt><trkpt lat="42.310765" lon="12.070245"><ele>365.0</ele><time>2026-04-30T11:45:34.987Z</time></trkpt><trkpt lat="42.3107333" lon="12.07047"><ele>365.0</ele><time>2026-04-30T11:45:35.987Z</time></trkpt><trkpt lat="42.310685" lon="12.07068"><ele>365.0</ele><time>2026-04-30T11:45:36.986Z</time></trkpt><trkpt lat="42.310635" lon="12.070895"><ele>365.0</ele><time>2026-04-30T11:45:37.986Z</time></trkpt><trkpt lat="42.31059" lon="12.071115"><ele>367.0</ele><time>2026-04-30T11:45:38.986Z</time></trkpt><trkpt lat="42.310545" lon="12.0713317"><ele>369.0</ele><time>2026-04-30T11:45:39.986Z</time></trkpt><trkpt lat="42.310495" lon="12.0715467"><ele>371.0</ele><time>2026-04-30T11:45:40.986Z</time></trkpt><trkpt lat="42.3104533" lon="12.0717467"><ele>371.6666666666667</ele><time>2026-04-30T11:45:41.986Z</time></trkpt><trkpt lat="42.3104083" lon="12.07195"><ele>372.3333333333333</ele><time>2026-04-30T11:45:42.986Z</time></trkpt><trkpt lat="42.3103617" lon="12.0721533"><ele>373.0</ele><time>2026-04-30T11:45:43.987Z</time></trkpt><trkpt lat="42.31032" lon="12.07235"><ele>374.0</ele><time>2026-04-30T11:45:44.986Z</time></trkpt><trkpt lat="42.3102767" lon="12.07255"><ele>375.0</ele><time>2026-04-30T11:45:45.987Z</time></trkpt><trkpt lat="42.31024" lon="12.0727367"><ele>376.0</ele><time>2026-04-30T11:45:46.986Z</time></trkpt><trkpt lat="42.3102033" lon="12.0729267"><ele>377.0</ele><time>2026-04-30T11:45:47.987Z</time></trkpt><trkpt lat="42.31017" lon="12.0731167"><ele>377.33333333333337</ele><time>2026-04-30T11:45:48.986Z</time></trkpt><trkpt lat="42.3101317" lon="12.0733133"><ele>377.6666666666667</ele><time>2026-04-30T11:45:49.986Z</time></trkpt><trkpt lat="42.3100883" lon="12.0735133"><ele>378.0</ele><time>2026-04-30T11:45:50.986Z</time></trkpt><trkpt lat="42.3100433" lon="12.07371"><ele>378.0</ele><time>2026-04-30T11:45:51.986Z</time></trkpt><trkpt lat="42.310005" lon="12.073915"><ele>378.0</ele><time>2026-04-30T11:45:52.986Z</time></trkpt><trkpt lat="42.3099483" lon="12.0741117"><ele>378.0</ele><time>2026-04-30T11:45:53.986Z</time></trkpt><trkpt lat="42.309885" lon="12.0742917"><ele>378.75</ele><time>2026-04-30T11:45:54.987Z</time></trkpt><trkpt lat="42.3098383" lon="12.07446"><ele>379.5</ele><time>2026-04-30T11:45:55.987Z</time></trkpt><trkpt lat="42.3097933" lon="12.0746117"><ele>380.25</ele><time>2026-04-30T11:45:56.986Z</time></trkpt><trkpt lat="42.309745" lon="12.0747417"><ele>381.0</ele><time>2026-04-30T11:45:57.986Z</time></trkpt><trkpt lat="42.3097" lon="12.0748667"><ele>381.6666666666667</ele><time>2026-04-30T11:45:58.986Z</time></trkpt><trkpt lat="42.309665" lon="12.0749583"><ele>382.33333333333337</ele><time>2026-04-30T11:45:59.986Z</time></trkpt><trkpt lat="42.3096333" lon="12.0750333"><ele>383.0</ele><time>2026-04-30T11:46:02.986Z</time></trkpt><trkpt lat="42.3095967" lon="12.07512"><ele>383.6666666666667</ele><time>2026-04-30T11:46:09.986Z</time></trkpt><trkpt lat="42.3095583" lon="12.0752467"><ele>384.33333333333337</ele><time>2026-04-30T11:46:11.986Z</time></trkpt><trkpt lat="42.30952" lon="12.0753633"><ele>385.0</ele><time>2026-04-30T11:46:13.986Z</time></trkpt><trkpt lat="42.309465" lon="12.0754817"><ele>385.0</ele><time>2026-04-30T11:46:15.986Z</time></trkpt><trkpt lat="42.3094167" lon="12.0756033"><ele>385.0</ele><time>2026-04-30T11:46:17.986Z</time></trkpt><trkpt lat="42.30938" lon="12.0757233"><ele>385.0</ele><time>2026-04-30T11:46:19.986Z</time></trkpt><trkpt lat="42.3093233" lon="12.0758517"><ele>385.0</ele><time>2026-04-30T11:46:21.987Z</time></trkpt><trkpt lat="42.3092817" lon="12.0759633"><ele>385.0</ele><time>2026-04-30T11:46:23.986Z</time></trkpt><trkpt lat="42.309245" lon="12.0760683"><ele>385.2</ele><time>2026-04-30T11:46:25.986Z</time></trkpt><trkpt lat="42.3092183" lon="12.0761717"><ele>385.4</ele><time>2026-04-30T11:46:27.986Z</time></trkpt><trkpt lat="42.3091783" lon="12.0762783"><ele>385.6</ele><time>2026-04-30T11:46:30.987Z</time></trkpt><trkpt lat="42.3091483" lon="12.0764017"><ele>385.8</ele><time>2026-04-30T11:46:32.986Z</time></trkpt><trkpt lat="42.3090983" lon="12.0765483"><ele>386.0</ele><time>2026-04-30T11:46:34.986Z</time></trkpt><trkpt lat="42.3090517" lon="12.0767067"><ele>385.99999999999994</ele><time>2026-04-30T11:46:36.986Z</time></trkpt><trkpt lat="42.3090233" lon="12.0767933"><ele>386.0</ele><time>2026-04-30T11:46:37.987Z</time></trkpt><trkpt lat="42.308985" lon="12.0768933"><ele>386.0</ele><time>2026-04-30T11:46:38.987Z</time></trkpt><trkpt lat="42.3089517" lon="12.077005"><ele>386.0</ele><time>2026-04-30T11:46:39.986Z</time></trkpt><trkpt lat="42.3089083" lon="12.07711"><ele>385.99999999999994</ele><time>2026-04-30T11:46:40.986Z</time></trkpt><trkpt lat="42.3088667" lon="12.07721"><ele>386.0</ele><time>2026-04-30T11:46:41.986Z</time></trkpt><trkpt lat="42.3088317" lon="12.077305"><ele>386.16666666666663</ele><time>2026-04-30T11:46:42.986Z</time></trkpt><trkpt lat="42.3087967" lon="12.0773933"><ele>386.3333333333333</ele><time>2026-04-30T11:46:43.986Z</time></trkpt><trkpt lat="42.3087633" lon="12.0774833"><ele>386.5</ele><time>2026-04-30T11:46:44.986Z</time></trkpt><trkpt lat="42.3087217" lon="12.0775733"><ele>386.66666666666663</ele><time>2026-04-30T11:46:45.986Z</time></trkpt><trkpt lat="42.3086867" lon="12.0776683"><ele>386.8333333333333</ele><time>2026-04-30T11:46:46.986Z</time></trkpt><trkpt lat="42.30865" lon="12.077765"><ele>387.0</ele><time>2026-04-30T11:46:47.986Z</time></trkpt><trkpt lat="42.30861" lon="12.0778667"><ele>387.0</ele><time>2026-04-30T11:46:48.986Z</time></trkpt><trkpt lat="42.3085767" lon="12.0779717"><ele>387.0</ele><time>2026-04-30T11:46:49.986Z</time></trkpt><trkpt lat="42.308555" lon="12.0780633"><ele>387.0</ele><time>2026-04-30T11:46:50.987Z</time></trkpt><trkpt lat="42.308525" lon="12.07815"><ele>387.0</ele><time>2026-04-30T11:46:51.986Z</time></trkpt><trkpt lat="42.308475" lon="12.0782733"><ele>387.0</ele><time>2026-04-30T11:46:53.986Z</time></trkpt><trkpt lat="42.3084333" lon="12.0783833"><ele>387.0</ele><time>2026-04-30T11:46:55.987Z</time></trkpt><trkpt lat="42.3083933" lon="12.0784883"><ele>387.20000000000005</ele><time>2026-04-30T11:46:57.987Z</time></trkpt><trkpt lat="42.308355" lon="12.0785933"><ele>387.4</ele><time>2026-04-30T11:47:05.987Z</time></trkpt><trkpt lat="42.3083267" lon="12.0787017"><ele>387.6</ele><time>2026-04-30T11:47:07.986Z</time></trkpt><trkpt lat="42.3082817" lon="12.078825"><ele>387.79999999999995</ele><time>2026-04-30T11:47:09.986Z</time></trkpt><trkpt lat="42.3082333" lon="12.0789633"><ele>388.0</ele><time>2026-04-30T11:47:11.986Z</time></trkpt><trkpt lat="42.3081883" lon="12.0790683"><ele>388.2</ele><time>2026-04-30T11:47:13.986Z</time></trkpt><trkpt lat="42.30815" lon="12.079165"><ele>388.4</ele><time>2026-04-30T11:47:15.987Z</time></trkpt><trkpt lat="42.308125" lon="12.079285"><ele>388.59999999999997</ele><time>2026-04-30T11:47:17.986Z</time></trkpt><trkpt lat="42.3080933" lon="12.0794117"><ele>388.79999999999995</ele><time>2026-04-30T11:47:19.986Z</time></trkpt><trkpt lat="42.3080483" lon="12.07954"><ele>389.0</ele><time>2026-04-30T11:47:21.986Z</time></trkpt><trkpt lat="42.3079983" lon="12.07967"><ele>388.6</ele><time>2026-04-30T11:47:23.987Z</time></trkpt><trkpt lat="42.307945" lon="12.0797967"><ele>388.2</ele><time>2026-04-30T11:47:25.986Z</time></trkpt><trkpt lat="42.3078983" lon="12.0799117"><ele>387.8</ele><time>2026-04-30T11:47:27.986Z</time></trkpt><trkpt lat="42.3078483" lon="12.0800333"><ele>387.40000000000003</ele><time>2026-04-30T11:47:29.986Z</time></trkpt><trkpt lat="42.3078017" lon="12.0801717"><ele>387.0</ele><time>2026-04-30T11:47:31.986Z</time></trkpt><trkpt lat="42.30777" lon="12.08025"><ele>387.0</ele><time>2026-04-30T11:47:32.986Z</time></trkpt><trkpt lat="42.3077183" lon="12.0804"><ele>387.0</ele><time>2026-04-30T11:47:34.987Z</time></trkpt><trkpt lat="42.3076883" lon="12.0804767"><ele>387.0</ele><time>2026-04-30T11:47:35.986Z</time></trkpt><trkpt lat="42.30766" lon="12.0805567"><ele>387.0</ele><time>2026-04-30T11:47:36.986Z</time></trkpt><trkpt lat="42.30763" lon="12.08064"><ele>387.0</ele><time>2026-04-30T11:47:37.986Z</time></trkpt><trkpt lat="42.3075983" lon="12.080725"><ele>387.0</ele><time>2026-04-30T11:47:38.987Z</time></trkpt><trkpt lat="42.3075617" lon="12.08081"><ele>387.14285714285717</ele><time>2026-04-30T11:47:39.986Z</time></trkpt><trkpt lat="42.3075233" lon="12.0808917"><ele>387.28571428571433</ele><time>2026-04-30T11:47:40.986Z</time></trkpt><trkpt lat="42.30749" lon="12.0809767"><ele>387.42857142857144</ele><time>2026-04-30T11:47:41.987Z</time></trkpt><trkpt lat="42.307455" lon="12.0810617"><ele>387.57142857142856</ele><time>2026-04-30T11:47:42.987Z</time></trkpt><trkpt lat="42.3074183" lon="12.0811467"><ele>387.7142857142857</ele><time>2026-04-30T11:47:43.986Z</time></trkpt><trkpt lat="42.3073833" lon="12.081235"><ele>387.85714285714283</ele><time>2026-04-30T11:47:44.987Z</time></trkpt><trkpt lat="42.307345" lon="12.0813217"><ele>388.0</ele><time>2026-04-30T11:47:45.986Z</time></trkpt><trkpt lat="42.3073033" lon="12.0814067"><ele>388.00000000000006</ele><time>2026-04-30T11:47:46.986Z</time></trkpt><trkpt lat="42.3072633" lon="12.0814867"><ele>388.0</ele><time>2026-04-30T11:47:47.987Z</time></trkpt><trkpt lat="42.30722" lon="12.081565"><ele>388.0</ele><time>2026-04-30T11:47:48.986Z</time></trkpt><trkpt lat="42.3071783" lon="12.0816383"><ele>388.0</ele><time>2026-04-30T11:47:49.986Z</time></trkpt><trkpt lat="42.3071" lon="12.0817617"><ele>388.00000000000006</ele><time>2026-04-30T11:47:51.986Z</time></trkpt><trkpt lat="42.30704" lon="12.0818467"><ele>388.0</ele><time>2026-04-30T11:47:53.986Z</time></trkpt><trkpt lat="42.306985" lon="12.081935"><ele>388.00000000000006</ele><time>2026-04-30T11:47:55.986Z</time></trkpt><trkpt lat="42.3069083" lon="12.082075"><ele>388.0</ele><time>2026-04-30T11:47:57.986Z</time></trkpt><trkpt lat="42.30686" lon="12.08215"><ele>388.0</ele><time>2026-04-30T11:47:58.986Z</time></trkpt><trkpt lat="42.306805" lon="12.082225"><ele>388.0</ele><time>2026-04-30T11:47:59.986Z</time></trkpt><trkpt lat="42.30675" lon="12.0823"><ele>388.00000000000006</ele><time>2026-04-30T11:48:00.986Z</time></trkpt><trkpt lat="42.3066967" lon="12.082375"><ele>388.0</ele><time>2026-04-30T11:48:01.986Z</time></trkpt><trkpt lat="42.3066483" lon="12.0824483"><ele>388.0</ele><time>2026-04-30T11:48:02.986Z</time></trkpt><trkpt lat="42.3066017" lon="12.082525"><ele>388.0</ele><time>2026-04-30T11:48:03.986Z</time></trkpt><trkpt lat="42.3065583" lon="12.082605"><ele>388.0</ele><time>2026-04-30T11:48:04.986Z</time></trkpt><trkpt lat="42.30651" lon="12.0826817"><ele>388.0</ele><time>2026-04-30T11:48:05.986Z</time></trkpt><trkpt lat="42.3064533" lon="12.08276"><ele>388.0</ele><time>2026-04-30T11:48:06.986Z</time></trkpt><trkpt lat="42.30641" lon="12.082835"><ele>388.0</ele><time>2026-04-30T11:48:07.986Z</time></trkpt><trkpt lat="42.3063667" lon="12.08291"><ele>388.0</ele><time>2026-04-30T11:48:08.987Z</time></trkpt><trkpt lat="42.3063167" lon="12.0829833"><ele>388.6666666666667</ele><time>2026-04-30T11:48:09.986Z</time></trkpt><trkpt lat="42.30627" lon="12.0830483"><ele>389.33333333333337</ele><time>2026-04-30T11:48:10.987Z</time></trkpt><trkpt lat="42.306235" lon="12.0831233"><ele>390.0</ele><time>2026-04-30T11:48:11.987Z</time></trkpt><trkpt lat="42.30619" lon="12.0831883"><ele>390.66666666666663</ele><time>2026-04-30T11:48:12.986Z</time></trkpt><trkpt lat="42.3060983" lon="12.0833133"><ele>391.3333333333333</ele><time>2026-04-30T11:48:14.987Z</time></trkpt><trkpt lat="42.3060433" lon="12.083385"><ele>392.0</ele><time>2026-04-30T11:48:15.987Z</time></trkpt><trkpt lat="42.306" lon="12.08346"><ele>391.99999999999994</ele><time>2026-04-30T11:48:16.986Z</time></trkpt><trkpt lat="42.305945" lon="12.083545"><ele>392.0</ele><time>2026-04-30T11:48:17.986Z</time></trkpt><trkpt lat="42.3058833" lon="12.0836333"><ele>392.0</ele><time>2026-04-30T11:48:18.986Z</time></trkpt><trkpt lat="42.30581" lon="12.0837167"><ele>392.0</ele><time>2026-04-30T11:48:19.987Z</time></trkpt><trkpt lat="42.305745" lon="12.0838067"><ele>391.99999999999994</ele><time>2026-04-30T11:48:20.986Z</time></trkpt><trkpt lat="42.3056817" lon="12.083885"><ele>392.0</ele><time>2026-04-30T11:48:21.986Z</time></trkpt><trkpt lat="42.3056217" lon="12.083965"><ele>392.40000000000003</ele><time>2026-04-30T11:48:22.986Z</time></trkpt><trkpt lat="42.3055617" lon="12.084045"><ele>392.8</ele><time>2026-04-30T11:48:23.986Z</time></trkpt><trkpt lat="42.3055033" lon="12.08413"><ele>393.2</ele><time>2026-04-30T11:48:24.986Z</time></trkpt><trkpt lat="42.30544" lon="12.0842267"><ele>393.6</ele><time>2026-04-30T11:48:25.986Z</time></trkpt><trkpt lat="42.3053833" lon="12.0843317"><ele>394.0</ele><time>2026-04-30T11:48:26.986Z</time></trkpt><trkpt lat="42.3053167" lon="12.084445"><ele>394.0</ele><time>2026-04-30T11:48:27.986Z</time></trkpt><trkpt lat="42.305255" lon="12.08454"><ele>394.0</ele><time>2026-04-30T11:48:28.986Z</time></trkpt><trkpt lat="42.305205" lon="12.0846483"><ele>394.0</ele><time>2026-04-30T11:48:29.986Z</time></trkpt><trkpt lat="42.3051317" lon="12.0847483"><ele>394.0</ele><time>2026-04-30T11:48:30.986Z</time></trkpt><trkpt lat="42.305055" lon="12.0848483"><ele>394.0</ele><time>2026-04-30T11:48:31.987Z</time></trkpt><trkpt lat="42.304985" lon="12.0849567"><ele>393.79999999999995</ele><time>2026-04-30T11:48:32.986Z</time></trkpt><trkpt lat="42.304915" lon="12.0850567"><ele>393.59999999999997</ele><time>2026-04-30T11:48:33.986Z</time></trkpt><trkpt lat="42.304845" lon="12.0851517"><ele>393.4</ele><time>2026-04-30T11:48:34.986Z</time></trkpt><trkpt lat="42.3047767" lon="12.0852517"><ele>393.2</ele><time>2026-04-30T11:48:35.986Z</time></trkpt><trkpt lat="42.3047083" lon="12.08535"><ele>393.0</ele><time>2026-04-30T11:48:36.986Z</time></trkpt><trkpt lat="42.3046433" lon="12.0854567"><ele>393.0</ele><time>2026-04-30T11:48:37.986Z</time></trkpt><trkpt lat="42.3045817" lon="12.085565"><ele>393.0</ele><time>2026-04-30T11:48:38.986Z</time></trkpt><trkpt lat="42.3044967" lon="12.0856783"><ele>393.0</ele><time>2026-04-30T11:48:39.986Z</time></trkpt><trkpt lat="42.3044233" lon="12.0858"><ele>393.0</ele><time>2026-04-30T11:48:40.986Z</time></trkpt><trkpt lat="42.3043483" lon="12.0859117"><ele>393.0</ele><time>2026-04-30T11:48:41.986Z</time></trkpt><trkpt lat="42.3042733" lon="12.0860217"><ele>392.79999999999995</ele><time>2026-04-30T11:48:42.986Z</time></trkpt><trkpt lat="42.3041917" lon="12.0861417"><ele>392.6</ele><time>2026-04-30T11:48:43.986Z</time></trkpt><trkpt lat="42.3041217" lon="12.0862383"><ele>392.4</ele><time>2026-04-30T11:48:44.986Z</time></trkpt><trkpt lat="42.30405" lon="12.086335"><ele>392.20000000000005</ele><time>2026-04-30T11:48:45.986Z</time></trkpt><trkpt lat="42.3039783" lon="12.0864367"><ele>392.0</ele><time>2026-04-30T11:48:46.986Z</time></trkpt><trkpt lat="42.3039083" lon="12.086525"><ele>393.0</ele><time>2026-04-30T11:48:47.987Z</time></trkpt><trkpt lat="42.30384" lon="12.0866267"><ele>394.0</ele><time>2026-04-30T11:48:48.986Z</time></trkpt><trkpt lat="42.30377" lon="12.0867317"><ele>395.0</ele><time>2026-04-30T11:48:49.986Z</time></trkpt><trkpt lat="42.3036967" lon="12.08684"><ele>396.0</ele><time>2026-04-30T11:48:50.986Z</time></trkpt><trkpt lat="42.30362" lon="12.08695"><ele>397.0</ele><time>2026-04-30T11:48:51.987Z</time></trkpt><trkpt lat="42.303545" lon="12.087065"><ele>397.0</ele><time>2026-04-30T11:48:52.986Z</time></trkpt><trkpt lat="42.3034683" lon="12.08718"><ele>397.0</ele><time>2026-04-30T11:48:53.986Z</time></trkpt><trkpt lat="42.30339" lon="12.0872933"><ele>397.0</ele><time>2026-04-30T11:48:54.986Z</time></trkpt><trkpt lat="42.3033217" lon="12.0874"><ele>397.0</ele><time>2026-04-30T11:48:55.987Z</time></trkpt><trkpt lat="42.3032533" lon="12.087505"><ele>397.0</ele><time>2026-04-30T11:48:56.986Z</time></trkpt><trkpt lat="42.3031833" lon="12.087615"><ele>397.20000000000005</ele><time>2026-04-30T11:48:57.986Z</time></trkpt><trkpt lat="42.30312" lon="12.08772"><ele>397.4</ele><time>2026-04-30T11:48:58.986Z</time></trkpt><trkpt lat="42.3030567" lon="12.087825"><ele>397.6</ele><time>2026-04-30T11:48:59.986Z</time></trkpt><trkpt lat="42.3029917" lon="12.0879317"><ele>397.79999999999995</ele><time>2026-04-30T11:49:00.987Z</time></trkpt><trkpt lat="42.3029233" lon="12.088035"><ele>398.0</ele><time>2026-04-30T11:49:01.986Z</time></trkpt><trkpt lat="42.3028533" lon="12.0881383"><ele>398.4</ele><time>2026-04-30T11:49:02.986Z</time></trkpt><trkpt lat="42.3027817" lon="12.0882417"><ele>398.79999999999995</ele><time>2026-04-30T11:49:03.986Z</time></trkpt><trkpt lat="42.3027133" lon="12.08835"><ele>399.2</ele><time>2026-04-30T11:49:04.986Z</time></trkpt><trkpt lat="42.3026483" lon="12.0884483"><ele>399.6</ele><time>2026-04-30T11:49:05.986Z</time></trkpt><trkpt lat="42.3025783" lon="12.0885583"><ele>400.0</ele><time>2026-04-30T11:49:06.986Z</time></trkpt><trkpt lat="42.302495" lon="12.0886617"><ele>400.0</ele><time>2026-04-30T11:49:07.986Z</time></trkpt><trkpt lat="42.30241" lon="12.0887717"><ele>400.0</ele><time>2026-04-30T11:49:08.987Z</time></trkpt><trkpt lat="42.3023367" lon="12.08888"><ele>400.0</ele><time>2026-04-30T11:49:09.986Z</time></trkpt><trkpt lat="42.302255" lon="12.0889817"><ele>400.0</ele><time>2026-04-30T11:49:10.986Z</time></trkpt><trkpt lat="42.302175" lon="12.0890983"><ele>400.0</ele><time>2026-04-30T11:49:11.987Z</time></trkpt><trkpt lat="42.3020917" lon="12.089225"><ele>400.0</ele><time>2026-04-30T11:49:12.986Z</time></trkpt><trkpt lat="42.30201" lon="12.0893533"><ele>400.0</ele><time>2026-04-30T11:49:13.986Z</time></trkpt><trkpt lat="42.3019233" lon="12.0894767"><ele>400.0</ele><time>2026-04-30T11:49:14.986Z</time></trkpt><trkpt lat="42.3018433" lon="12.0895933"><ele>400.0</ele><time>2026-04-30T11:49:15.986Z</time></trkpt><trkpt lat="42.301765" lon="12.0897133"><ele>400.0</ele><time>2026-04-30T11:49:16.986Z</time></trkpt><trkpt lat="42.301695" lon="12.0898317"><ele>400.0</ele><time>2026-04-30T11:49:17.986Z</time></trkpt><trkpt lat="42.3016283" lon="12.0899267"><ele>400.0</ele><time>2026-04-30T11:49:18.986Z</time></trkpt><trkpt lat="42.3015633" lon="12.0900183"><ele>400.0</ele><time>2026-04-30T11:49:19.987Z</time></trkpt><trkpt lat="42.3014967" lon="12.0901083"><ele>400.1666666666667</ele><time>2026-04-30T11:49:20.986Z</time></trkpt><trkpt lat="42.3014383" lon="12.0901933"><ele>400.33333333333337</ele><time>2026-04-30T11:49:21.986Z</time></trkpt><trkpt lat="42.3014033" lon="12.0902883"><ele>400.5</ele><time>2026-04-30T11:49:22.987Z</time></trkpt><trkpt lat="42.301365" lon="12.09039"><ele>400.66666666666663</ele><time>2026-04-30T11:49:23.986Z</time></trkpt><trkpt lat="42.3013383" lon="12.0904867"><ele>400.8333333333333</ele><time>2026-04-30T11:49:24.986Z</time></trkpt><trkpt lat="42.3013067" lon="12.090565"><ele>401.0</ele><time>2026-04-30T11:49:25.986Z</time></trkpt><trkpt lat="42.301285" lon="12.0906517"><ele>401.0</ele><time>2026-04-30T11:49:26.986Z</time></trkpt><trkpt lat="42.3012733" lon="12.0907567"><ele>401.0</ele><time>2026-04-30T11:49:27.987Z</time></trkpt><trkpt lat="42.30125" lon="12.0908783"><ele>401.0</ele><time>2026-04-30T11:49:28.986Z</time></trkpt><trkpt lat="42.3012233" lon="12.0910267"><ele>401.0</ele><time>2026-04-30T11:49:29.986Z</time></trkpt><trkpt lat="42.30119" lon="12.0911733"><ele>401.0</ele><time>2026-04-30T11:49:30.987Z</time></trkpt><trkpt lat="42.301165" lon="12.0913283"><ele>401.5</ele><time>2026-04-30T11:49:31.987Z</time></trkpt><trkpt lat="42.3011267" lon="12.09149"><ele>402.0</ele><time>2026-04-30T11:49:32.986Z</time></trkpt><trkpt lat="42.3010983" lon="12.0916533"><ele>402.5</ele><time>2026-04-30T11:49:33.986Z</time></trkpt><trkpt lat="42.3010667" lon="12.0918167"><ele>403.0</ele><time>2026-04-30T11:49:34.986Z</time></trkpt><trkpt lat="42.3010467" lon="12.0919683"><ele>403.75</ele><time>2026-04-30T11:49:35.986Z</time></trkpt><trkpt lat="42.30101" lon="12.0921317"><ele>404.5</ele><time>2026-04-30T11:49:36.986Z</time></trkpt><trkpt lat="42.3009633" lon="12.0923"><ele>405.25</ele><time>2026-04-30T11:49:37.987Z</time></trkpt><trkpt lat="42.300925" lon="12.0924683"><ele>406.0</ele><time>2026-04-30T11:49:38.986Z</time></trkpt><trkpt lat="42.300885" lon="12.092625"><ele>406.75</ele><time>2026-04-30T11:49:39.986Z</time></trkpt><trkpt lat="42.3008467" lon="12.092785"><ele>407.5</ele><time>2026-04-30T11:49:40.986Z</time></trkpt><trkpt lat="42.30081" lon="12.09295"><ele>408.25</ele><time>2026-04-30T11:49:41.986Z</time></trkpt><trkpt lat="42.300765" lon="12.0931133"><ele>409.0</ele><time>2026-04-30T11:49:42.987Z</time></trkpt><trkpt lat="42.3007333" lon="12.0932783"><ele>409.25</ele><time>2026-04-30T11:49:43.986Z</time></trkpt><trkpt lat="42.3006967" lon="12.0934433"><ele>409.5</ele><time>2026-04-30T11:49:44.987Z</time></trkpt><trkpt lat="42.300655" lon="12.0936033"><ele>409.75</ele><time>2026-04-30T11:49:45.986Z</time></trkpt><trkpt lat="42.30063" lon="12.09376"><ele>410.0</ele><time>2026-04-30T11:49:46.987Z</time></trkpt><trkpt lat="42.3006183" lon="12.0939067"><ele>410.0</ele><time>2026-04-30T11:49:47.986Z</time></trkpt><trkpt lat="42.300595" lon="12.0940533"><ele>410.0</ele><time>2026-04-30T11:49:48.987Z</time></trkpt><trkpt lat="42.3005883" lon="12.0942"><ele>410.0</ele><time>2026-04-30T11:49:49.986Z</time></trkpt><trkpt lat="42.3005617" lon="12.0943433"><ele>410.0</ele><time>2026-04-30T11:49:50.986Z</time></trkpt><trkpt lat="42.300535" lon="12.0944817"><ele>410.0</ele><time>2026-04-30T11:49:51.987Z</time></trkpt><trkpt lat="42.3005133" lon="12.0946183"><ele>410.0</ele><time>2026-04-30T11:49:52.986Z</time></trkpt><trkpt lat="42.30048" lon="12.0947583"><ele>410.0</ele><time>2026-04-30T11:49:53.986Z</time></trkpt><trkpt lat="42.3004483" lon="12.0948867"><ele>410.0</ele><time>2026-04-30T11:49:54.986Z</time></trkpt><trkpt lat="42.3004233" lon="12.095005"><ele>410.0</ele><time>2026-04-30T11:49:55.986Z</time></trkpt><trkpt lat="42.3003867" lon="12.09512"><ele>410.0</ele><time>2026-04-30T11:49:56.987Z</time></trkpt><trkpt lat="42.30036" lon="12.0952267"><ele>409.99999999999994</ele><time>2026-04-30T11:49:57.986Z</time></trkpt><trkpt lat="42.3003233" lon="12.0953283"><ele>410.0</ele><time>2026-04-30T11:49:58.987Z</time></trkpt><trkpt lat="42.300285" lon="12.0954267"><ele>410.0</ele><time>2026-04-30T11:49:59.986Z</time></trkpt><trkpt lat="42.3002517" lon="12.095525"><ele>410.0</ele><time>2026-04-30T11:50:00.986Z</time></trkpt><trkpt lat="42.3002217" lon="12.0956183"><ele>409.99999999999994</ele><time>2026-04-30T11:50:01.987Z</time></trkpt><trkpt lat="42.3001917" lon="12.0957067"><ele>410.0</ele><time>2026-04-30T11:50:02.986Z</time></trkpt><trkpt lat="42.30011" lon="12.095845"><ele>410.16666666666663</ele><time>2026-04-30T11:50:04.986Z</time></trkpt><trkpt lat="42.3000667" lon="12.0959267"><ele>410.3333333333333</ele><time>2026-04-30T11:50:05.986Z</time></trkpt><trkpt lat="42.30002" lon="12.0960267"><ele>410.5</ele><time>2026-04-30T11:50:06.986Z</time></trkpt><trkpt lat="42.299965" lon="12.0961067"><ele>410.66666666666663</ele><time>2026-04-30T11:50:07.986Z</time></trkpt><trkpt lat="42.299905" lon="12.0961783"><ele>410.8333333333333</ele><time>2026-04-30T11:50:08.986Z</time></trkpt><trkpt lat="42.299845" lon="12.096265"><ele>411.0</ele><time>2026-04-30T11:50:09.987Z</time></trkpt><trkpt lat="42.2997783" lon="12.0963517"><ele>411.0</ele><time>2026-04-30T11:50:10.986Z</time></trkpt><trkpt lat="42.29971" lon="12.096435"><ele>411.0</ele><time>2026-04-30T11:50:11.986Z</time></trkpt><trkpt lat="42.29963" lon="12.0965417"><ele>411.0</ele><time>2026-04-30T11:50:12.986Z</time></trkpt><trkpt lat="42.2995467" lon="12.0966783"><ele>411.0</ele><time>2026-04-30T11:50:13.987Z</time></trkpt><trkpt lat="42.29945" lon="12.0968067"><ele>411.66666666666663</ele><time>2026-04-30T11:50:14.986Z</time></trkpt><trkpt lat="42.2993367" lon="12.0969383"><ele>412.3333333333333</ele><time>2026-04-30T11:50:15.986Z</time></trkpt><trkpt lat="42.2992167" lon="12.0970683"><ele>413.0</ele><time>2026-04-30T11:50:16.987Z</time></trkpt><trkpt lat="42.2990833" lon="12.0972067"><ele>413.0</ele><time>2026-04-30T11:50:17.987Z</time></trkpt><trkpt lat="42.2989567" lon="12.0973567"><ele>413.0</ele><time>2026-04-30T11:50:18.986Z</time></trkpt><trkpt lat="42.298825" lon="12.0975083"><ele>413.0</ele><time>2026-04-30T11:50:19.987Z</time></trkpt><trkpt lat="42.298705" lon="12.0976583"><ele>414.0</ele><time>2026-04-30T11:50:20.986Z</time></trkpt><trkpt lat="42.29859" lon="12.0978183"><ele>415.0</ele><time>2026-04-30T11:50:21.987Z</time></trkpt><trkpt lat="42.2984667" lon="12.0979783"><ele>416.0</ele><time>2026-04-30T11:50:22.987Z</time></trkpt><trkpt lat="42.29834" lon="12.098145"><ele>416.66666666666663</ele><time>2026-04-30T11:50:23.986Z</time></trkpt><trkpt lat="42.298215" lon="12.0983033"><ele>417.33333333333337</ele><time>2026-04-30T11:50:24.986Z</time></trkpt><trkpt lat="42.2980917" lon="12.09845"><ele>418.0</ele><time>2026-04-30T11:50:25.986Z</time></trkpt><trkpt lat="42.29798" lon="12.09859"><ele>419.75</ele><time>2026-04-30T11:50:26.986Z</time></trkpt><trkpt lat="42.297875" lon="12.0987183"><ele>421.5</ele><time>2026-04-30T11:50:27.986Z</time></trkpt><trkpt lat="42.2977733" lon="12.098825"><ele>423.25</ele><time>2026-04-30T11:50:28.986Z</time></trkpt><trkpt lat="42.2976783" lon="12.0989267"><ele>425.0</ele><time>2026-04-30T11:50:29.986Z</time></trkpt><trkpt lat="42.297595" lon="12.0990117"><ele>424.3333333333333</ele><time>2026-04-30T11:50:30.986Z</time></trkpt><trkpt lat="42.297525" lon="12.0990867"><ele>423.66666666666663</ele><time>2026-04-30T11:50:31.986Z</time></trkpt><trkpt lat="42.29746" lon="12.09914"><ele>423.0</ele><time>2026-04-30T11:50:32.987Z</time></trkpt><trkpt lat="42.2973883" lon="12.0991767"><ele>422.33333333333337</ele><time>2026-04-30T11:50:33.987Z</time></trkpt><trkpt lat="42.2973183" lon="12.0992183"><ele>421.6666666666667</ele><time>2026-04-30T11:50:34.986Z</time></trkpt><trkpt lat="42.2972533" lon="12.0992833"><ele>421.0</ele><time>2026-04-30T11:50:35.986Z</time></trkpt><trkpt lat="42.2972033" lon="12.0993483"><ele>423.50000000000006</ele><time>2026-04-30T11:50:36.987Z</time></trkpt><trkpt lat="42.2971467" lon="12.0993983"><ele>426.0</ele><time>2026-04-30T11:50:37.987Z</time></trkpt><trkpt lat="42.2970867" lon="12.0994467"><ele>428.5</ele><time>2026-04-30T11:50:38.986Z</time></trkpt><trkpt lat="42.2970233" lon="12.0994983"><ele>431.0</ele><time>2026-04-30T11:50:39.986Z</time></trkpt><trkpt lat="42.2969517" lon="12.09956"><ele>433.50000000000006</ele><time>2026-04-30T11:50:40.986Z</time></trkpt><trkpt lat="42.296875" lon="12.0996267"><ele>436.0</ele><time>2026-04-30T11:50:41.986Z</time></trkpt><trkpt lat="42.296795" lon="12.0996983"><ele>436.0</ele><time>2026-04-30T11:50:42.987Z</time></trkpt><trkpt lat="42.29671" lon="12.09977"><ele>436.0</ele><time>2026-04-30T11:50:43.986Z</time></trkpt><trkpt lat="42.29663" lon="12.09985"><ele>436.0</ele><time>2026-04-30T11:50:44.986Z</time></trkpt><trkpt lat="42.2965417" lon="12.0999333"><ele>436.0</ele><time>2026-04-30T11:50:45.986Z</time></trkpt><trkpt lat="42.296465" lon="12.10002"><ele>436.0</ele><time>2026-04-30T11:50:46.986Z</time></trkpt><trkpt lat="42.296385" lon="12.10011"><ele>437.8</ele><time>2026-04-30T11:50:47.986Z</time></trkpt><trkpt lat="42.296305" lon="12.1002033"><ele>439.6</ele><time>2026-04-30T11:50:48.986Z</time></trkpt><trkpt lat="42.2962367" lon="12.1003"><ele>441.4</ele><time>2026-04-30T11:50:49.986Z</time></trkpt><trkpt lat="42.2961617" lon="12.1004"><ele>443.2</ele><time>2026-04-30T11:50:50.987Z</time></trkpt><trkpt lat="42.2960683" lon="12.100515"><ele>445.0</ele><time>2026-04-30T11:50:51.986Z</time></trkpt><trkpt lat="42.2959767" lon="12.1006483"><ele>446.0</ele><time>2026-04-30T11:50:52.986Z</time></trkpt><trkpt lat="42.2958583" lon="12.1008233"><ele>447.0</ele><time>2026-04-30T11:50:53.986Z</time></trkpt><trkpt lat="42.2957133" lon="12.10102"><ele>448.0</ele><time>2026-04-30T11:50:54.986Z</time></trkpt><trkpt lat="42.29556" lon="12.1012083"><ele>448.0</ele><time>2026-04-30T11:50:55.986Z</time></trkpt><trkpt lat="42.2954267" lon="12.1013867"><ele>448.0</ele><time>2026-04-30T11:50:56.986Z</time></trkpt><trkpt lat="42.2952833" lon="12.101575"><ele>448.0</ele><time>2026-04-30T11:50:57.987Z</time></trkpt><trkpt lat="42.2951467" lon="12.10177"><ele>448.33333333333337</ele><time>2026-04-30T11:50:58.986Z</time></trkpt><trkpt lat="42.2950183" lon="12.1019717"><ele>448.66666666666663</ele><time>2026-04-30T11:50:59.986Z</time></trkpt><trkpt lat="42.2948883" lon="12.1021667"><ele>449.0</ele><time>2026-04-30T11:51:00.986Z</time></trkpt><trkpt lat="42.29475" lon="12.1023617"><ele>450.3333333333333</ele><time>2026-04-30T11:51:01.987Z</time></trkpt><trkpt lat="42.29462" lon="12.1025617"><ele>451.66666666666663</ele><time>2026-04-30T11:51:02.986Z</time></trkpt><trkpt lat="42.2944933" lon="12.10276"><ele>453.0</ele><time>2026-04-30T11:51:03.986Z</time></trkpt><trkpt lat="42.2943667" lon="12.1029617"><ele>453.0</ele><time>2026-04-30T11:51:04.987Z</time></trkpt><trkpt lat="42.2942333" lon="12.1031467"><ele>453.0</ele><time>2026-04-30T11:51:05.987Z</time></trkpt><trkpt lat="42.29409" lon="12.1033367"><ele>453.0</ele><time>2026-04-30T11:51:06.986Z</time></trkpt><trkpt lat="42.2939417" lon="12.1035233"><ele>454.66666666666663</ele><time>2026-04-30T11:51:07.987Z</time></trkpt><trkpt lat="42.2937933" lon="12.1036967"><ele>456.3333333333333</ele><time>2026-04-30T11:51:08.986Z</time></trkpt><trkpt lat="42.2936583" lon="12.103885"><ele>458.0</ele><time>2026-04-30T11:51:09.987Z</time></trkpt><trkpt lat="42.2935133" lon="12.104075"><ele>458.3333333333333</ele><time>2026-04-30T11:51:10.987Z</time></trkpt><trkpt lat="42.2933683" lon="12.1042533"><ele>458.66666666666663</ele><time>2026-04-30T11:51:11.986Z</time></trkpt><trkpt lat="42.293225" lon="12.1044467"><ele>459.0</ele><time>2026-04-30T11:51:12.987Z</time></trkpt><trkpt lat="42.2930767" lon="12.10462"><ele>459.0</ele><time>2026-04-30T11:51:13.986Z</time></trkpt><trkpt lat="42.292925" lon="12.1048"><ele>459.0</ele><time>2026-04-30T11:51:14.986Z</time></trkpt><trkpt lat="42.292795" lon="12.1050017"><ele>459.0</ele><time>2026-04-30T11:51:15.986Z</time></trkpt><trkpt lat="42.292655" lon="12.1052217"><ele>459.0</ele><time>2026-04-30T11:51:16.986Z</time></trkpt><trkpt lat="42.2925567" lon="12.105465"><ele>459.0</ele><time>2026-04-30T11:51:17.986Z</time></trkpt><trkpt lat="42.2924767" lon="12.1056983"><ele>459.0</ele><time>2026-04-30T11:51:18.986Z</time></trkpt><trkpt lat="42.292415" lon="12.1059483"><ele>460.0</ele><time>2026-04-30T11:51:19.987Z</time></trkpt><trkpt lat="42.2923633" lon="12.106195"><ele>461.0</ele><time>2026-04-30T11:51:20.986Z</time></trkpt><trkpt lat="42.2923217" lon="12.1064483"><ele>462.0</ele><time>2026-04-30T11:51:21.987Z</time></trkpt><trkpt lat="42.2922733" lon="12.1066983"><ele>462.0</ele><time>2026-04-30T11:51:22.986Z</time></trkpt><trkpt lat="42.292235" lon="12.1069469"><ele>462.0</ele><time>2026-04-30T11:51:23.986Z</time></trkpt><trkpt lat="42.2921951" lon="12.1071996"><ele>462.0</ele><time>2026-04-30T11:51:24.986Z</time></trkpt><trkpt lat="42.2921576" lon="12.1074527"><ele>462.0</ele><time>2026-04-30T11:51:25.987Z</time></trkpt><trkpt lat="42.2921194" lon="12.1077054"><ele>462.0</ele><time>2026-04-30T11:51:26.986Z</time></trkpt><trkpt lat="42.2920822" lon="12.1079569"><ele>462.0</ele><time>2026-04-30T11:51:27.987Z</time></trkpt><trkpt lat="42.2920418" lon="12.1082045"><ele>462.0</ele><time>2026-04-30T11:51:28.986Z</time></trkpt><trkpt lat="42.2920071" lon="12.1084649"><ele>462.0</ele><time>2026-04-30T11:51:29.987Z</time></trkpt><trkpt lat="42.2919624" lon="12.1087244"><ele>462.0</ele><time>2026-04-30T11:51:30.987Z</time></trkpt><trkpt lat="42.2919182" lon="12.1089876"><ele>462.33333333333337</ele><time>2026-04-30T11:51:31.987Z</time></trkpt><trkpt lat="42.291874" lon="12.1092609"><ele>462.6666666666667</ele><time>2026-04-30T11:51:32.986Z</time></trkpt><trkpt lat="42.2918216" lon="12.109531"><ele>463.0</ele><time>2026-04-30T11:51:33.987Z</time></trkpt><trkpt lat="42.2917674" lon="12.1098032"><ele>463.33333333333337</ele><time>2026-04-30T11:51:34.987Z</time></trkpt><trkpt lat="42.2917201" lon="12.110077"><ele>463.66666666666663</ele><time>2026-04-30T11:51:35.987Z</time></trkpt><trkpt lat="42.2916641" lon="12.1103515"><ele>464.0</ele><time>2026-04-30T11:51:36.986Z</time></trkpt><trkpt lat="42.2916073" lon="12.1106298"><ele>464.0</ele><time>2026-04-30T11:51:37.986Z</time></trkpt><trkpt lat="42.2915494" lon="12.1109123"><ele>464.0</ele><time>2026-04-30T11:51:38.987Z</time></trkpt><trkpt lat="42.2914865" lon="12.1111995"><ele>464.0</ele><time>2026-04-30T11:51:39.986Z</time></trkpt><trkpt lat="42.2914298" lon="12.1114805"><ele>463.66666666666663</ele><time>2026-04-30T11:51:40.987Z</time></trkpt><trkpt lat="42.2913695" lon="12.1117675"><ele>463.33333333333337</ele><time>2026-04-30T11:51:41.986Z</time></trkpt><trkpt lat="42.2913058" lon="12.1120612"><ele>463.0</ele><time>2026-04-30T11:51:42.986Z</time></trkpt><trkpt lat="42.2912398" lon="12.1123636"><ele>463.5</ele><time>2026-04-30T11:51:43.986Z</time></trkpt><trkpt lat="42.2911733" lon="12.1126618"><ele>464.0</ele><time>2026-04-30T11:51:44.986Z</time></trkpt><trkpt lat="42.2911099" lon="12.1129666"><ele>464.5</ele><time>2026-04-30T11:51:45.986Z</time></trkpt><trkpt lat="42.2910432" lon="12.1132655"><ele>465.0</ele><time>2026-04-30T11:51:46.986Z</time></trkpt><trkpt lat="42.29098" lon="12.1135702"><ele>465.0</ele><time>2026-04-30T11:51:47.986Z</time></trkpt><trkpt lat="42.2909203" lon="12.1138608"><ele>465.0</ele><time>2026-04-30T11:51:48.987Z</time></trkpt><trkpt lat="42.2908595" lon="12.1141489"><ele>465.0</ele><time>2026-04-30T11:51:49.986Z</time></trkpt><trkpt lat="42.2907971" lon="12.1144346"><ele>465.66666666666663</ele><time>2026-04-30T11:51:50.986Z</time></trkpt><trkpt lat="42.2907375" lon="12.1147185"><ele>466.3333333333333</ele><time>2026-04-30T11:51:51.986Z</time></trkpt><trkpt lat="42.29068" lon="12.1150003"><ele>467.0</ele><time>2026-04-30T11:51:52.987Z</time></trkpt><trkpt lat="42.2906233" lon="12.1152821"><ele>467.0</ele><time>2026-04-30T11:51:53.986Z</time></trkpt><trkpt lat="42.290561" lon="12.115558"><ele>467.0</ele><time>2026-04-30T11:51:54.986Z</time></trkpt><trkpt lat="42.2904935" lon="12.1158383"><ele>467.0</ele><time>2026-04-30T11:51:55.986Z</time></trkpt><trkpt lat="42.29042" lon="12.1161163"><ele>467.0</ele><time>2026-04-30T11:51:56.986Z</time></trkpt><trkpt lat="42.2903455" lon="12.1163913"><ele>467.0</ele><time>2026-04-30T11:51:57.986Z</time></trkpt><trkpt lat="42.2902708" lon="12.1166561"><ele>467.0</ele><time>2026-04-30T11:51:58.986Z</time></trkpt><trkpt lat="42.2901891" lon="12.1169194"><ele>467.66666666666663</ele><time>2026-04-30T11:51:59.986Z</time></trkpt><trkpt lat="42.2901062" lon="12.1171837"><ele>468.33333333333337</ele><time>2026-04-30T11:52:00.986Z</time></trkpt><trkpt lat="42.2900184" lon="12.1174504"><ele>469.0</ele><time>2026-04-30T11:52:01.986Z</time></trkpt><trkpt lat="42.2899256" lon="12.1177158"><ele>470.0</ele><time>2026-04-30T11:52:02.986Z</time></trkpt><trkpt lat="42.2898358" lon="12.1179821"><ele>471.0</ele><time>2026-04-30T11:52:03.986Z</time></trkpt><trkpt lat="42.2897436" lon="12.1182496"><ele>472.0</ele><time>2026-04-30T11:52:04.986Z</time></trkpt><trkpt lat="42.2896504" lon="12.1185143"><ele>472.6666666666667</ele><time>2026-04-30T11:52:05.986Z</time></trkpt><trkpt lat="42.2895479" lon="12.1187837"><ele>473.33333333333337</ele><time>2026-04-30T11:52:06.987Z</time></trkpt><trkpt lat="42.2894413" lon="12.1190485"><ele>474.0</ele><time>2026-04-30T11:52:07.986Z</time></trkpt><trkpt lat="42.2893222" lon="12.1193068"><ele>475.5</ele><time>2026-04-30T11:52:08.986Z</time></trkpt><trkpt lat="42.2891972" lon="12.1195612"><ele>477.0</ele><time>2026-04-30T11:52:09.987Z</time></trkpt><trkpt lat="42.2890633" lon="12.1198099"><ele>478.5</ele><time>2026-04-30T11:52:10.986Z</time></trkpt><trkpt lat="42.2889216" lon="12.1200487"><ele>480.0</ele><time>2026-04-30T11:52:11.987Z</time></trkpt><trkpt lat="42.2887734" lon="12.1202785"><ele>480.0</ele><time>2026-04-30T11:52:12.986Z</time></trkpt><trkpt lat="42.2886278" lon="12.1205115"><ele>480.0</ele><time>2026-04-30T11:52:13.987Z</time></trkpt><trkpt lat="42.2884855" lon="12.1207411"><ele>480.0</ele><time>2026-04-30T11:52:14.986Z</time></trkpt><trkpt lat="42.2883451" lon="12.1209729"><ele>479.33333333333337</ele><time>2026-04-30T11:52:15.987Z</time></trkpt><trkpt lat="42.288203" lon="12.121204"><ele>478.6666666666667</ele><time>2026-04-30T11:52:16.986Z</time></trkpt><trkpt lat="42.2880599" lon="12.1214357"><ele>478.0</ele><time>2026-04-30T11:52:17.986Z</time></trkpt><trkpt lat="42.28792" lon="12.1216709"><ele>477.0</ele><time>2026-04-30T11:52:18.986Z</time></trkpt><trkpt lat="42.2877751" lon="12.1219077"><ele>476.0</ele><time>2026-04-30T11:52:19.986Z</time></trkpt><trkpt lat="42.2876273" lon="12.1221427"><ele>476.0</ele><time>2026-04-30T11:52:20.986Z</time></trkpt><trkpt lat="42.2874734" lon="12.1223719"><ele>476.0</ele><time>2026-04-30T11:52:21.987Z</time></trkpt><trkpt lat="42.2873071" lon="12.1226006"><ele>474.0</ele><time>2026-04-30T11:52:22.986Z</time></trkpt><trkpt lat="42.2871395" lon="12.1228279"><ele>472.0</ele><time>2026-04-30T11:52:23.987Z</time></trkpt><trkpt lat="42.2869628" lon="12.123053"><ele>470.0</ele><time>2026-04-30T11:52:24.986Z</time></trkpt><trkpt lat="42.2867969" lon="12.1232878"><ele>468.0</ele><time>2026-04-30T11:52:25.986Z</time></trkpt><trkpt lat="42.2866443" lon="12.1235478"><ele>468.0</ele><time>2026-04-30T11:52:26.986Z</time></trkpt><trkpt lat="42.286508" lon="12.1238229"><ele>468.0</ele><time>2026-04-30T11:52:27.986Z</time></trkpt><trkpt lat="42.2863995" lon="12.124111"><ele>470.0</ele><time>2026-04-30T11:52:28.987Z</time></trkpt><trkpt lat="42.2863108" lon="12.1244135"><ele>472.0</ele><time>2026-04-30T11:52:29.986Z</time></trkpt><trkpt lat="42.2862354" lon="12.1247104"><ele>471.0</ele><time>2026-04-30T11:52:30.986Z</time></trkpt><trkpt lat="42.2861582" lon="12.1250093"><ele>470.0</ele><time>2026-04-30T11:52:31.987Z</time></trkpt><trkpt lat="42.2860643" lon="12.1253012"><ele>470.0</ele><time>2026-04-30T11:52:32.986Z</time></trkpt><trkpt lat="42.285955" lon="12.125581"><ele>470.0</ele><time>2026-04-30T11:52:33.986Z</time></trkpt><trkpt lat="42.2858417" lon="12.1258591"><ele>469.5</ele><time>2026-04-30T11:52:34.986Z</time></trkpt><trkpt lat="42.2857262" lon="12.1261353"><ele>469.0</ele><time>2026-04-30T11:52:35.987Z</time></trkpt><trkpt lat="42.2856145" lon="12.1264054"><ele>470.0</ele><time>2026-04-30T11:52:36.987Z</time></trkpt><trkpt lat="42.2855032" lon="12.1266733"><ele>471.0</ele><time>2026-04-30T11:52:37.987Z</time></trkpt><trkpt lat="42.2853901" lon="12.1269353"><ele>471.0</ele><time>2026-04-30T11:52:38.986Z</time></trkpt><trkpt lat="42.2852806" lon="12.1271924"><ele>471.0</ele><time>2026-04-30T11:52:39.986Z</time></trkpt><trkpt lat="42.2851762" lon="12.1274475"><ele>471.0</ele><time>2026-04-30T11:52:40.986Z</time></trkpt><trkpt lat="42.2850702" lon="12.1276973"><ele>471.0</ele><time>2026-04-30T11:52:41.986Z</time></trkpt><trkpt lat="42.2849679" lon="12.1279463"><ele>471.0</ele><time>2026-04-30T11:52:42.986Z</time></trkpt><trkpt lat="42.2848595" lon="12.1281976"><ele>471.0</ele><time>2026-04-30T11:52:43.986Z</time></trkpt><trkpt lat="42.2847537" lon="12.128453"><ele>471.0</ele><time>2026-04-30T11:52:44.986Z</time></trkpt><trkpt lat="42.2846496" lon="12.1287066"><ele>471.0</ele><time>2026-04-30T11:52:45.986Z</time></trkpt><trkpt lat="42.2845445" lon="12.1289688"><ele>471.0</ele><time>2026-04-30T11:52:46.987Z</time></trkpt><trkpt lat="42.2844441" lon="12.1292317"><ele>471.33333333333337</ele><time>2026-04-30T11:52:47.986Z</time></trkpt><trkpt lat="42.2843382" lon="12.1294892"><ele>471.6666666666667</ele><time>2026-04-30T11:52:48.986Z</time></trkpt><trkpt lat="42.284227" lon="12.1297448"><ele>472.0</ele><time>2026-04-30T11:52:49.986Z</time></trkpt><trkpt lat="42.2841124" lon="12.1299973"><ele>472.33333333333337</ele><time>2026-04-30T11:52:50.986Z</time></trkpt><trkpt lat="42.2840022" lon="12.1302535"><ele>472.66666666666663</ele><time>2026-04-30T11:52:51.987Z</time></trkpt><trkpt lat="42.2838948" lon="12.130507"><ele>473.0</ele><time>2026-04-30T11:52:52.986Z</time></trkpt><trkpt lat="42.2837868" lon="12.1307601"><ele>474.0</ele><time>2026-04-30T11:52:53.987Z</time></trkpt><trkpt lat="42.2836793" lon="12.1310025"><ele>475.0</ele><time>2026-04-30T11:52:54.986Z</time></trkpt><trkpt lat="42.2835776" lon="12.1312358"><ele>476.0</ele><time>2026-04-30T11:52:55.986Z</time></trkpt><trkpt lat="42.2834846" lon="12.1314536"><ele>477.3333333333333</ele><time>2026-04-30T11:52:56.986Z</time></trkpt><trkpt lat="42.2833982" lon="12.1316681"><ele>478.66666666666663</ele><time>2026-04-30T11:52:57.986Z</time></trkpt><trkpt lat="42.2833151" lon="12.1318882"><ele>480.0</ele><time>2026-04-30T11:52:58.986Z</time></trkpt><trkpt lat="42.2832311" lon="12.132103"><ele>480.0</ele><time>2026-04-30T11:52:59.986Z</time></trkpt><trkpt lat="42.2831495" lon="12.1323193"><ele>480.0</ele><time>2026-04-30T11:53:00.986Z</time></trkpt><trkpt lat="42.283073" lon="12.1325233"><ele>480.0</ele><time>2026-04-30T11:53:01.987Z</time></trkpt><trkpt lat="42.2829944" lon="12.1327208"><ele>480.25</ele><time>2026-04-30T11:53:02.987Z</time></trkpt><trkpt lat="42.2829229" lon="12.1329141"><ele>480.5</ele><time>2026-04-30T11:53:03.986Z</time></trkpt><trkpt lat="42.2828571" lon="12.1330822"><ele>480.75</ele><time>2026-04-30T11:53:04.986Z</time></trkpt><trkpt lat="42.2828023" lon="12.1332205"><ele>481.0</ele><time>2026-04-30T11:53:05.986Z</time></trkpt><trkpt lat="42.2827516" lon="12.1333408"><ele>481.33333333333337</ele><time>2026-04-30T11:53:06.986Z</time></trkpt><trkpt lat="42.2826997" lon="12.1334483"><ele>481.6666666666667</ele><time>2026-04-30T11:53:07.986Z</time></trkpt><trkpt lat="42.2826524" lon="12.1335471"><ele>482.0</ele><time>2026-04-30T11:53:08.987Z</time></trkpt><trkpt lat="42.2826042" lon="12.1336325"><ele>482.33333333333337</ele><time>2026-04-30T11:53:09.986Z</time></trkpt><trkpt lat="42.2825455" lon="12.1337078"><ele>482.6666666666667</ele><time>2026-04-30T11:53:10.986Z</time></trkpt><trkpt lat="42.2824789" lon="12.1337663"><ele>483.0</ele><time>2026-04-30T11:53:11.987Z</time></trkpt><trkpt lat="42.282408" lon="12.1338262"><ele>483.0</ele><time>2026-04-30T11:53:12.986Z</time></trkpt><trkpt lat="42.2823541" lon="12.1339103"><ele>482.99999999999994</ele><time>2026-04-30T11:53:13.986Z</time></trkpt><trkpt lat="42.2823214" lon="12.1340162"><ele>482.99999999999994</ele><time>2026-04-30T11:53:14.986Z</time></trkpt><trkpt lat="42.282308" lon="12.1341519"><ele>483.0</ele><time>2026-04-30T11:53:15.986Z</time></trkpt><trkpt lat="42.282277" lon="12.1343163"><ele>483.0</ele><time>2026-04-30T11:53:16.986Z</time></trkpt><trkpt lat="42.2822167" lon="12.1345062"><ele>483.33333333333337</ele><time>2026-04-30T11:53:17.986Z</time></trkpt><trkpt lat="42.2821365" lon="12.1347066"><ele>483.6666666666667</ele><time>2026-04-30T11:53:18.986Z</time></trkpt><trkpt lat="42.2820546" lon="12.1349072"><ele>484.0</ele><time>2026-04-30T11:53:19.986Z</time></trkpt><trkpt lat="42.2819558" lon="12.1351293"><ele>484.0</ele><time>2026-04-30T11:53:20.986Z</time></trkpt><trkpt lat="42.2818503" lon="12.1353608"><ele>484.0</ele><time>2026-04-30T11:53:21.986Z</time></trkpt><trkpt lat="42.2817427" lon="12.1355838"><ele>484.0</ele><time>2026-04-30T11:53:22.986Z</time></trkpt><trkpt lat="42.2816297" lon="12.1358162"><ele>484.0</ele><time>2026-04-30T11:53:23.986Z</time></trkpt><trkpt lat="42.2815102" lon="12.1360464"><ele>484.0</ele><time>2026-04-30T11:53:24.986Z</time></trkpt><trkpt lat="42.2813888" lon="12.1362823"><ele>484.0</ele><time>2026-04-30T11:53:25.986Z</time></trkpt><trkpt lat="42.2812643" lon="12.1365124"><ele>481.33333333333337</ele><time>2026-04-30T11:53:26.987Z</time></trkpt><trkpt lat="42.2811427" lon="12.1367327"><ele>478.66666666666663</ele><time>2026-04-30T11:53:27.986Z</time></trkpt><trkpt lat="42.2810216" lon="12.1369404"><ele>476.0</ele><time>2026-04-30T11:53:28.986Z</time></trkpt><trkpt lat="42.2808988" lon="12.1371553"><ele>476.0</ele><time>2026-04-30T11:53:29.986Z</time></trkpt><trkpt lat="42.280764" lon="12.1373596"><ele>476.0</ele><time>2026-04-30T11:53:30.986Z</time></trkpt><trkpt lat="42.2806204" lon="12.137548"><ele>476.0</ele><time>2026-04-30T11:53:31.986Z</time></trkpt><trkpt lat="42.2804831" lon="12.1377282"><ele>473.3333333333333</ele><time>2026-04-30T11:53:32.986Z</time></trkpt><trkpt lat="42.2803481" lon="12.1379025"><ele>470.66666666666663</ele><time>2026-04-30T11:53:33.986Z</time></trkpt><trkpt lat="42.2802093" lon="12.1380762"><ele>468.0</ele><time>2026-04-30T11:53:34.986Z</time></trkpt><trkpt lat="42.2800612" lon="12.138273"><ele>468.0</ele><time>2026-04-30T11:53:35.986Z</time></trkpt><trkpt lat="42.2798951" lon="12.1384971"><ele>468.0</ele><time>2026-04-30T11:53:36.986Z</time></trkpt><trkpt lat="42.2797037" lon="12.1387322"><ele>466.5</ele><time>2026-04-30T11:53:37.986Z</time></trkpt><trkpt lat="42.2794929" lon="12.1389853"><ele>465.0</ele><time>2026-04-30T11:53:38.986Z</time></trkpt><trkpt lat="42.2792705" lon="12.1392496"><ele>465.0</ele><time>2026-04-30T11:53:39.986Z</time></trkpt><trkpt lat="42.2790444" lon="12.1395145"><ele>465.0</ele><time>2026-04-30T11:53:40.986Z</time></trkpt><trkpt lat="42.2788246" lon="12.139788"><ele>463.0</ele><time>2026-04-30T11:53:41.986Z</time></trkpt><trkpt lat="42.2786057" lon="12.1400569"><ele>461.0</ele><time>2026-04-30T11:53:42.986Z</time></trkpt><trkpt lat="42.2783819" lon="12.1403197"><ele>461.0</ele><time>2026-04-30T11:53:43.987Z</time></trkpt><trkpt lat="42.2781446" lon="12.1405544"><ele>461.0</ele><time>2026-04-30T11:53:44.987Z</time></trkpt><trkpt lat="42.2779045" lon="12.1407734"><ele>464.5</ele><time>2026-04-30T11:53:45.986Z</time></trkpt><trkpt lat="42.2776572" lon="12.1409739"><ele>468.0</ele><time>2026-04-30T11:53:46.986Z</time></trkpt><trkpt lat="42.2774102" lon="12.1411486"><ele>469.0</ele><time>2026-04-30T11:53:47.987Z</time></trkpt><trkpt lat="42.2771549" lon="12.1413032"><ele>470.0</ele><time>2026-04-30T11:53:48.986Z</time></trkpt><trkpt lat="42.2769034" lon="12.1414547"><ele>469.5</ele><time>2026-04-30T11:53:49.986Z</time></trkpt><trkpt lat="42.2766647" lon="12.1416164"><ele>469.0</ele><time>2026-04-30T11:53:50.987Z</time></trkpt><trkpt lat="42.2764331" lon="12.1417742"><ele>469.0</ele><time>2026-04-30T11:53:51.986Z</time></trkpt><trkpt lat="42.2762012" lon="12.1419347"><ele>469.0</ele><time>2026-04-30T11:53:52.986Z</time></trkpt><trkpt lat="42.2759606" lon="12.1421009"><ele>469.0</ele><time>2026-04-30T11:53:53.987Z</time></trkpt><trkpt lat="42.2757253" lon="12.1422752"><ele>469.0</ele><time>2026-04-30T11:53:54.985Z</time></trkpt><trkpt lat="42.2754998" lon="12.1424659"><ele>466.5</ele><time>2026-04-30T11:53:55.985Z</time></trkpt><trkpt lat="42.2752824" lon="12.142666"><ele>464.0</ele><time>2026-04-30T11:53:56.985Z</time></trkpt><trkpt lat="42.2750769" lon="12.1428747"><ele>464.0</ele><time>2026-04-30T11:53:57.985Z</time></trkpt><trkpt lat="42.2748738" lon="12.1430801"><ele>464.0</ele><time>2026-04-30T11:53:58.985Z</time></trkpt><trkpt lat="42.2746776" lon="12.1433014"><ele>463.5</ele><time>2026-04-30T11:53:59.985Z</time></trkpt><trkpt lat="42.2744879" lon="12.143541"><ele>463.0</ele><time>2026-04-30T11:54:00.986Z</time></trkpt><trkpt lat="42.2743126" lon="12.1437916"><ele>463.0</ele><time>2026-04-30T11:54:01.985Z</time></trkpt><trkpt lat="42.2741573" lon="12.144031"><ele>463.0</ele><time>2026-04-30T11:54:02.986Z</time></trkpt><trkpt lat="42.2740199" lon="12.1442489"><ele>463.0</ele><time>2026-04-30T11:54:03.985Z</time></trkpt><trkpt lat="42.2738999" lon="12.1444533"><ele>463.6666666666667</ele><time>2026-04-30T11:54:04.986Z</time></trkpt><trkpt lat="42.2737819" lon="12.1446396"><ele>464.33333333333337</ele><time>2026-04-30T11:54:05.985Z</time></trkpt><trkpt lat="42.2736634" lon="12.1448197"><ele>465.0</ele><time>2026-04-30T11:54:06.986Z</time></trkpt><trkpt lat="42.273548" lon="12.1449998"><ele>463.66666666666663</ele><time>2026-04-30T11:54:07.985Z</time></trkpt><trkpt lat="42.2734329" lon="12.1451755"><ele>462.3333333333333</ele><time>2026-04-30T11:54:08.986Z</time></trkpt><trkpt lat="42.2733136" lon="12.1453667"><ele>461.0</ele><time>2026-04-30T11:54:09.985Z</time></trkpt><trkpt lat="42.2731972" lon="12.145562"><ele>458.3333333333333</ele><time>2026-04-30T11:54:10.985Z</time></trkpt><trkpt lat="42.2730823" lon="12.1457601"><ele>455.66666666666663</ele><time>2026-04-30T11:54:11.985Z</time></trkpt><trkpt lat="42.2729661" lon="12.1459601"><ele>453.0</ele><time>2026-04-30T11:54:12.985Z</time></trkpt><trkpt lat="42.272839" lon="12.1461773"><ele>453.0</ele><time>2026-04-30T11:54:13.985Z</time></trkpt><trkpt lat="42.2726956" lon="12.1464226"><ele>453.0</ele><time>2026-04-30T11:54:14.985Z</time></trkpt><trkpt lat="42.2725302" lon="12.1466716"><ele>454.0</ele><time>2026-04-30T11:54:15.985Z</time></trkpt><trkpt lat="42.272366" lon="12.1469172"><ele>455.0</ele><time>2026-04-30T11:54:16.985Z</time></trkpt><trkpt lat="42.2722084" lon="12.1471582"><ele>458.5</ele><time>2026-04-30T11:54:17.986Z</time></trkpt><trkpt lat="42.2720533" lon="12.1474004"><ele>462.0</ele><time>2026-04-30T11:54:18.985Z</time></trkpt><trkpt lat="42.2718961" lon="12.1476386"><ele>462.0</ele><time>2026-04-30T11:54:19.985Z</time></trkpt><trkpt lat="42.2717471" lon="12.1478737"><ele>462.0</ele><time>2026-04-30T11:54:20.985Z</time></trkpt><trkpt lat="42.2715878" lon="12.1480941"><ele>462.33333333333337</ele><time>2026-04-30T11:54:21.985Z</time></trkpt><trkpt lat="42.2714276" lon="12.1483046"><ele>462.6666666666667</ele><time>2026-04-30T11:54:22.985Z</time></trkpt><trkpt lat="42.271259" lon="12.1485004"><ele>463.0</ele><time>2026-04-30T11:54:23.985Z</time></trkpt><trkpt lat="42.2710838" lon="12.1486876"><ele>463.0</ele><time>2026-04-30T11:54:24.985Z</time></trkpt><trkpt lat="42.2709018" lon="12.1488643"><ele>463.0</ele><time>2026-04-30T11:54:25.986Z</time></trkpt><trkpt lat="42.2707284" lon="12.1490272"><ele>463.0</ele><time>2026-04-30T11:54:26.985Z</time></trkpt><trkpt lat="42.2705553" lon="12.1491888"><ele>461.6666666666667</ele><time>2026-04-30T11:54:27.986Z</time></trkpt><trkpt lat="42.270384" lon="12.1493588"><ele>460.33333333333337</ele><time>2026-04-30T11:54:28.985Z</time></trkpt><trkpt lat="42.270218" lon="12.149548"><ele>459.0</ele><time>2026-04-30T11:54:29.986Z</time></trkpt><trkpt lat="42.2700507" lon="12.1497427"><ele>459.33333333333337</ele><time>2026-04-30T11:54:30.985Z</time></trkpt><trkpt lat="42.2698829" lon="12.1499401"><ele>459.6666666666667</ele><time>2026-04-30T11:54:31.985Z</time></trkpt><trkpt lat="42.2697169" lon="12.1501212"><ele>460.0</ele><time>2026-04-30T11:54:32.985Z</time></trkpt><trkpt lat="42.2695579" lon="12.1503017"><ele>460.33333333333337</ele><time>2026-04-30T11:54:33.985Z</time></trkpt><trkpt lat="42.2694142" lon="12.1504988"><ele>460.66666666666663</ele><time>2026-04-30T11:54:34.985Z</time></trkpt><trkpt lat="42.2692839" lon="12.150719"><ele>461.0</ele><time>2026-04-30T11:54:35.985Z</time></trkpt><trkpt lat="42.2691765" lon="12.1509588"><ele>461.0</ele><time>2026-04-30T11:54:36.985Z</time></trkpt><trkpt lat="42.2690998" lon="12.15121"><ele>461.0</ele><time>2026-04-30T11:54:37.985Z</time></trkpt><trkpt lat="42.2690337" lon="12.151462"><ele>461.0</ele><time>2026-04-30T11:54:38.986Z</time></trkpt><trkpt lat="42.2689604" lon="12.1517083"><ele>459.66666666666663</ele><time>2026-04-30T11:54:39.985Z</time></trkpt><trkpt lat="42.2688653" lon="12.1519401"><ele>458.33333333333337</ele><time>2026-04-30T11:54:40.985Z</time></trkpt><trkpt lat="42.2687575" lon="12.1521692"><ele>457.0</ele><time>2026-04-30T11:54:41.985Z</time></trkpt><trkpt lat="42.2686311" lon="12.152391"><ele>456.6666666666667</ele><time>2026-04-30T11:54:42.986Z</time></trkpt><trkpt lat="42.2684942" lon="12.1526144"><ele>456.33333333333337</ele><time>2026-04-30T11:54:43.986Z</time></trkpt><trkpt lat="42.2683486" lon="12.1528295"><ele>456.0</ele><time>2026-04-30T11:54:44.985Z</time></trkpt><trkpt lat="42.2681959" lon="12.1530328"><ele>454.33333333333337</ele><time>2026-04-30T11:54:45.985Z</time></trkpt><trkpt lat="42.2680257" lon="12.153223"><ele>452.6666666666667</ele><time>2026-04-30T11:54:46.985Z</time></trkpt><trkpt lat="42.2678523" lon="12.1534"><ele>451.0</ele><time>2026-04-30T11:54:47.985Z</time></trkpt><trkpt lat="42.2676806" lon="12.1535643"><ele>451.0</ele><time>2026-04-30T11:54:48.985Z</time></trkpt><trkpt lat="42.2675109" lon="12.153729"><ele>451.0</ele><time>2026-04-30T11:54:49.986Z</time></trkpt><trkpt lat="42.2673431" lon="12.1538875"><ele>451.0</ele><time>2026-04-30T11:54:50.985Z</time></trkpt><trkpt lat="42.2671792" lon="12.1540436"><ele>450.6666666666667</ele><time>2026-04-30T11:54:51.985Z</time></trkpt><trkpt lat="42.2670133" lon="12.1541991"><ele>450.33333333333337</ele><time>2026-04-30T11:54:52.985Z</time></trkpt><trkpt lat="42.2668461" lon="12.1543682"><ele>450.0</ele><time>2026-04-30T11:54:53.986Z</time></trkpt><trkpt lat="42.2666834" lon="12.1545507"><ele>450.0</ele><time>2026-04-30T11:54:54.985Z</time></trkpt><trkpt lat="42.2665254" lon="12.154741"><ele>450.0</ele><time>2026-04-30T11:54:55.985Z</time></trkpt><trkpt lat="42.2663669" lon="12.1549364"><ele>450.0</ele><time>2026-04-30T11:54:56.985Z</time></trkpt><trkpt lat="42.2662032" lon="12.1551327"><ele>448.0</ele><time>2026-04-30T11:54:57.985Z</time></trkpt><trkpt lat="42.2660305" lon="12.1553358"><ele>446.0</ele><time>2026-04-30T11:54:58.985Z</time></trkpt><trkpt lat="42.2658489" lon="12.1555312"><ele>446.5</ele><time>2026-04-30T11:54:59.985Z</time></trkpt><trkpt lat="42.2656651" lon="12.1557258"><ele>447.0</ele><time>2026-04-30T11:55:00.985Z</time></trkpt><trkpt lat="42.2654786" lon="12.1559265"><ele>443.0</ele><time>2026-04-30T11:55:01.985Z</time></trkpt><trkpt lat="42.2652949" lon="12.1561243"><ele>439.0</ele><time>2026-04-30T11:55:02.985Z</time></trkpt><trkpt lat="42.2651129" lon="12.1563242"><ele>439.0</ele><time>2026-04-30T11:55:03.985Z</time></trkpt><trkpt lat="42.2649371" lon="12.1565305"><ele>439.0</ele><time>2026-04-30T11:55:04.986Z</time></trkpt><trkpt lat="42.2647625" lon="12.1567376"><ele>436.5</ele><time>2026-04-30T11:55:05.985Z</time></trkpt><trkpt lat="42.2645919" lon="12.156942"><ele>434.0</ele><time>2026-04-30T11:55:06.985Z</time></trkpt><trkpt lat="42.2644247" lon="12.1571392"><ele>434.0</ele><time>2026-04-30T11:55:07.985Z</time></trkpt><trkpt lat="42.2642529" lon="12.1573315"><ele>434.0</ele><time>2026-04-30T11:55:08.986Z</time></trkpt><trkpt lat="42.2640724" lon="12.1575192"><ele>433.5</ele><time>2026-04-30T11:55:09.985Z</time></trkpt><trkpt lat="42.2638982" lon="12.1577108"><ele>433.0</ele><time>2026-04-30T11:55:10.986Z</time></trkpt><trkpt lat="42.2637224" lon="12.1579057"><ele>433.0</ele><time>2026-04-30T11:55:11.985Z</time></trkpt><trkpt lat="42.2635337" lon="12.158076"><ele>433.0</ele><time>2026-04-30T11:55:12.985Z</time></trkpt><trkpt lat="42.2633399" lon="12.1582282"><ele>432.6666666666667</ele><time>2026-04-30T11:55:13.985Z</time></trkpt><trkpt lat="42.263156" lon="12.1583947"><ele>432.33333333333337</ele><time>2026-04-30T11:55:14.986Z</time></trkpt><trkpt lat="42.2629882" lon="12.1585904"><ele>432.0</ele><time>2026-04-30T11:55:15.986Z</time></trkpt><trkpt lat="42.2628384" lon="12.158808"><ele>431.0</ele><time>2026-04-30T11:55:16.986Z</time></trkpt><trkpt lat="42.2627127" lon="12.1590428"><ele>430.0</ele><time>2026-04-30T11:55:17.985Z</time></trkpt><trkpt lat="42.2626017" lon="12.1592925"><ele>429.0</ele><time>2026-04-30T11:55:18.985Z</time></trkpt><trkpt lat="42.2624977" lon="12.1595532"><ele>429.0</ele><time>2026-04-30T11:55:19.985Z</time></trkpt><trkpt lat="42.2624073" lon="12.1598245"><ele>429.0</ele><time>2026-04-30T11:55:20.985Z</time></trkpt><trkpt lat="42.2623243" lon="12.1600981"><ele>429.0</ele><time>2026-04-30T11:55:21.986Z</time></trkpt><trkpt lat="42.2622348" lon="12.16037"><ele>427.33333333333337</ele><time>2026-04-30T11:55:22.986Z</time></trkpt><trkpt lat="42.2621358" lon="12.1606376"><ele>425.6666666666667</ele><time>2026-04-30T11:55:23.985Z</time></trkpt><trkpt lat="42.2620313" lon="12.1609041"><ele>424.0</ele><time>2026-04-30T11:55:24.985Z</time></trkpt><trkpt lat="42.2619183" lon="12.1611611"><ele>424.0</ele><time>2026-04-30T11:55:25.985Z</time></trkpt><trkpt lat="42.2617971" lon="12.1614151"><ele>424.0</ele><time>2026-04-30T11:55:26.985Z</time></trkpt><trkpt lat="42.261668" lon="12.1616625"><ele>424.0</ele><time>2026-04-30T11:55:27.985Z</time></trkpt><trkpt lat="42.2615445" lon="12.1619103"><ele>422.0</ele><time>2026-04-30T11:55:28.985Z</time></trkpt><trkpt lat="42.2614192" lon="12.1621597"><ele>420.0</ele><time>2026-04-30T11:55:29.986Z</time></trkpt><trkpt lat="42.2613105" lon="12.1624277"><ele>418.0</ele><time>2026-04-30T11:55:30.985Z</time></trkpt><trkpt lat="42.2612085" lon="12.1627045"><ele>417.5</ele><time>2026-04-30T11:55:31.986Z</time></trkpt><trkpt lat="42.261106" lon="12.1629773"><ele>417.0</ele><time>2026-04-30T11:55:32.985Z</time></trkpt><trkpt lat="42.2609961" lon="12.1632534"><ele>415.5</ele><time>2026-04-30T11:55:33.986Z</time></trkpt><trkpt lat="42.2608778" lon="12.1635245"><ele>414.0</ele><time>2026-04-30T11:55:34.985Z</time></trkpt><trkpt lat="42.2607601" lon="12.1637862"><ele>414.5</ele><time>2026-04-30T11:55:35.985Z</time></trkpt><trkpt lat="42.2606446" lon="12.1640508"><ele>415.0</ele><time>2026-04-30T11:55:36.985Z</time></trkpt><trkpt lat="42.2605315" lon="12.1643211"><ele>413.6666666666667</ele><time>2026-04-30T11:55:37.985Z</time></trkpt><trkpt lat="42.2604233" lon="12.1645832"><ele>412.33333333333337</ele><time>2026-04-30T11:55:38.985Z</time></trkpt><trkpt lat="42.2603476" lon="12.1648376"><ele>411.0</ele><time>2026-04-30T11:55:39.985Z</time></trkpt><trkpt lat="42.2603077" lon="12.1650875"><ele>410.33333333333337</ele><time>2026-04-30T11:55:40.985Z</time></trkpt><trkpt lat="42.2603052" lon="12.1653523"><ele>409.6666666666667</ele><time>2026-04-30T11:55:41.985Z</time></trkpt><trkpt lat="42.260331" lon="12.1656175"><ele>409.0</ele><time>2026-04-30T11:55:42.986Z</time></trkpt><trkpt lat="42.2603927" lon="12.1658702"><ele>408.33333333333337</ele><time>2026-04-30T11:55:43.985Z</time></trkpt><trkpt lat="42.2604707" lon="12.1661153"><ele>407.66666666666663</ele><time>2026-04-30T11:55:44.986Z</time></trkpt><trkpt lat="42.2605417" lon="12.1663528"><ele>407.0</ele><time>2026-04-30T11:55:45.985Z</time></trkpt><trkpt lat="42.2606094" lon="12.1665819"><ele>408.0</ele><time>2026-04-30T11:55:46.985Z</time></trkpt><trkpt lat="42.2606474" lon="12.1668102"><ele>409.0</ele><time>2026-04-30T11:55:47.985Z</time></trkpt><trkpt lat="42.26063" lon="12.1670121"><ele>410.0</ele><time>2026-04-30T11:55:48.985Z</time></trkpt><trkpt lat="42.2605613" lon="12.1671808"><ele>409.0</ele><time>2026-04-30T11:55:49.985Z</time></trkpt><trkpt lat="42.2604634" lon="12.1673051"><ele>408.0</ele><time>2026-04-30T11:55:50.986Z</time></trkpt><trkpt lat="42.2603438" lon="12.1674121"><ele>407.0</ele><time>2026-04-30T11:55:51.985Z</time></trkpt><trkpt lat="42.2602159" lon="12.1675249"><ele>406.0</ele><time>2026-04-30T11:55:52.986Z</time></trkpt><trkpt lat="42.2600895" lon="12.1676433"><ele>406.0</ele><time>2026-04-30T11:55:53.985Z</time></trkpt><trkpt lat="42.2599652" lon="12.1677444"><ele>406.0</ele><time>2026-04-30T11:55:54.985Z</time></trkpt><trkpt lat="42.2598517" lon="12.1678347"><ele>406.0</ele><time>2026-04-30T11:55:55.986Z</time></trkpt><trkpt lat="42.2597423" lon="12.1679247"><ele>406.0</ele><time>2026-04-30T11:55:56.985Z</time></trkpt><trkpt lat="42.2596358" lon="12.1680281"><ele>405.0</ele><time>2026-04-30T11:55:57.985Z</time></trkpt><trkpt lat="42.2595394" lon="12.1681532"><ele>404.0</ele><time>2026-04-30T11:55:58.985Z</time></trkpt><trkpt lat="42.2594523" lon="12.1682953"><ele>403.0</ele><time>2026-04-30T11:55:59.985Z</time></trkpt><trkpt lat="42.2593767" lon="12.1684656"><ele>402.0</ele><time>2026-04-30T11:56:00.985Z</time></trkpt><trkpt lat="42.2593068" lon="12.168635"><ele>402.0</ele><time>2026-04-30T11:56:01.985Z</time></trkpt><trkpt lat="42.2592468" lon="12.168807"><ele>402.0</ele><time>2026-04-30T11:56:02.985Z</time></trkpt><trkpt lat="42.2591947" lon="12.1689884"><ele>402.0</ele><time>2026-04-30T11:56:03.985Z</time></trkpt><trkpt lat="42.2591483" lon="12.169164"><ele>402.0</ele><time>2026-04-30T11:56:04.986Z</time></trkpt><trkpt lat="42.2591041" lon="12.1693196"><ele>401.6</ele><time>2026-04-30T11:56:05.985Z</time></trkpt><trkpt lat="42.25906" lon="12.1694616"><ele>401.20000000000005</ele><time>2026-04-30T11:56:06.985Z</time></trkpt><trkpt lat="42.2590283" lon="12.1695815"><ele>400.8</ele><time>2026-04-30T11:56:07.985Z</time></trkpt><trkpt lat="42.2590039" lon="12.16968"><ele>400.4</ele><time>2026-04-30T11:56:08.986Z</time></trkpt><trkpt lat="42.2589611" lon="12.1698156"><ele>400.0</ele><time>2026-04-30T11:56:10.986Z</time></trkpt><trkpt lat="42.2589253" lon="12.1699013"><ele>396.2</ele><time>2026-04-30T11:56:12.986Z</time></trkpt><trkpt lat="42.2588865" lon="12.1699816"><ele>392.4</ele><time>2026-04-30T11:56:38.985Z</time></trkpt><trkpt lat="42.2588661" lon="12.1701481"><ele>388.6</ele><time>2026-04-30T11:56:40.986Z</time></trkpt><trkpt lat="42.2588491" lon="12.1702471"><ele>384.8</ele><time>2026-04-30T11:56:41.985Z</time></trkpt><trkpt lat="42.2588329" lon="12.1703639"><ele>381.0</ele><time>2026-04-30T11:56:42.985Z</time></trkpt><trkpt lat="42.2588105" lon="12.1704938"><ele>381.0</ele><time>2026-04-30T11:56:43.985Z</time></trkpt><trkpt lat="42.2587767" lon="12.1706318"><ele>381.0</ele><time>2026-04-30T11:56:44.985Z</time></trkpt><trkpt lat="42.258739" lon="12.1707788"><ele>381.0</ele><time>2026-04-30T11:56:45.985Z</time></trkpt><trkpt lat="42.2587041" lon="12.1709343"><ele>381.0</ele><time>2026-04-30T11:56:46.985Z</time></trkpt><trkpt lat="42.2586748" lon="12.1710861"><ele>380.75</ele><time>2026-04-30T11:56:47.985Z</time></trkpt><trkpt lat="42.2586323" lon="12.1712595"><ele>380.5</ele><time>2026-04-30T11:56:48.985Z</time></trkpt><trkpt lat="42.2585936" lon="12.1714501"><ele>380.25</ele><time>2026-04-30T11:56:49.985Z</time></trkpt><trkpt lat="42.2585509" lon="12.1716584"><ele>380.0</ele><time>2026-04-30T11:56:50.985Z</time></trkpt><trkpt lat="42.2585033" lon="12.1718698"><ele>380.5</ele><time>2026-04-30T11:56:51.986Z</time></trkpt><trkpt lat="42.2584592" lon="12.1720706"><ele>381.0</ele><time>2026-04-30T11:56:52.985Z</time></trkpt><trkpt lat="42.2584171" lon="12.1722641"><ele>381.5</ele><time>2026-04-30T11:56:53.985Z</time></trkpt><trkpt lat="42.2583774" lon="12.1724384"><ele>382.0</ele><time>2026-04-30T11:56:54.985Z</time></trkpt><trkpt lat="42.2583384" lon="12.1726042"><ele>382.8</ele><time>2026-04-30T11:56:55.986Z</time></trkpt><trkpt lat="42.2583168" lon="12.1727568"><ele>383.6</ele><time>2026-04-30T11:56:56.985Z</time></trkpt><trkpt lat="42.2583023" lon="12.1728801"><ele>384.40000000000003</ele><time>2026-04-30T11:56:57.985Z</time></trkpt><trkpt lat="42.2582829" lon="12.1729836"><ele>385.20000000000005</ele><time>2026-04-30T11:56:58.985Z</time></trkpt><trkpt lat="42.2582444" lon="12.1730838"><ele>386.0</ele><time>2026-04-30T11:56:59.985Z</time></trkpt><trkpt lat="42.2582008" lon="12.1731861"><ele>386.6</ele><time>2026-04-30T11:57:00.985Z</time></trkpt><trkpt lat="42.2581582" lon="12.1732924"><ele>387.20000000000005</ele><time>2026-04-30T11:57:01.985Z</time></trkpt><trkpt lat="42.2581194" lon="12.1733989"><ele>387.79999999999995</ele><time>2026-04-30T11:57:02.985Z</time></trkpt><trkpt lat="42.2580741" lon="12.1735028"><ele>388.4</ele><time>2026-04-30T11:57:03.985Z</time></trkpt><trkpt lat="42.2580235" lon="12.1736087"><ele>389.0</ele><time>2026-04-30T11:57:04.985Z</time></trkpt><trkpt lat="42.2579779" lon="12.1737236"><ele>387.79999999999995</ele><time>2026-04-30T11:57:05.986Z</time></trkpt><trkpt lat="42.2579404" lon="12.173832"><ele>386.59999999999997</ele><time>2026-04-30T11:57:06.985Z</time></trkpt><trkpt lat="42.257906" lon="12.1739494"><ele>385.4</ele><time>2026-04-30T11:57:07.986Z</time></trkpt><trkpt lat="42.2578697" lon="12.1740693"><ele>384.2</ele><time>2026-04-30T11:57:08.985Z</time></trkpt><trkpt lat="42.2578415" lon="12.174192"><ele>383.0</ele><time>2026-04-30T11:57:09.985Z</time></trkpt><trkpt lat="42.2578179" lon="12.1743142"><ele>383.0</ele><time>2026-04-30T11:57:10.986Z</time></trkpt><trkpt lat="42.2577896" lon="12.1744399"><ele>383.0</ele><time>2026-04-30T11:57:11.985Z</time></trkpt><trkpt lat="42.2577506" lon="12.1745604"><ele>383.0</ele><time>2026-04-30T11:57:12.986Z</time></trkpt><trkpt lat="42.2577119" lon="12.174684"><ele>383.0</ele><time>2026-04-30T11:57:13.985Z</time></trkpt><trkpt lat="42.2576624" lon="12.1748026"><ele>383.0</ele><time>2026-04-30T11:57:14.985Z</time></trkpt><trkpt lat="42.2576163" lon="12.174921"><ele>383.5</ele><time>2026-04-30T11:57:15.985Z</time></trkpt><trkpt lat="42.2575759" lon="12.1750414"><ele>384.0</ele><time>2026-04-30T11:57:16.985Z</time></trkpt><trkpt lat="42.2575436" lon="12.1751473"><ele>384.5</ele><time>2026-04-30T11:57:17.985Z</time></trkpt><trkpt lat="42.2575048" lon="12.1752378"><ele>385.0</ele><time>2026-04-30T11:57:18.985Z</time></trkpt><trkpt lat="42.257463" lon="12.1753289"><ele>385.49999999999994</ele><time>2026-04-30T11:57:19.986Z</time></trkpt><trkpt lat="42.2574176" lon="12.1754185"><ele>386.0</ele><time>2026-04-30T11:57:20.986Z</time></trkpt><trkpt lat="42.2573739" lon="12.1755268"><ele>385.99999999999994</ele><time>2026-04-30T11:57:21.985Z</time></trkpt><trkpt lat="42.2573413" lon="12.1756455"><ele>386.0</ele><time>2026-04-30T11:57:22.985Z</time></trkpt><trkpt lat="42.2573065" lon="12.1757604"><ele>386.0</ele><time>2026-04-30T11:57:23.985Z</time></trkpt><trkpt lat="42.2572725" lon="12.1758675"><ele>386.0</ele><time>2026-04-30T11:57:24.985Z</time></trkpt><trkpt lat="42.2572381" lon="12.1759697"><ele>385.99999999999994</ele><time>2026-04-30T11:57:25.985Z</time></trkpt><trkpt lat="42.2571976" lon="12.1760644"><ele>386.0</ele><time>2026-04-30T11:57:26.985Z</time></trkpt><trkpt lat="42.2571612" lon="12.176155"><ele>382.8333333333333</ele><time>2026-04-30T11:57:27.985Z</time></trkpt><trkpt lat="42.2571211" lon="12.1762422"><ele>379.66666666666663</ele><time>2026-04-30T11:57:28.985Z</time></trkpt><trkpt lat="42.2570912" lon="12.1763319"><ele>376.5</ele><time>2026-04-30T11:57:29.985Z</time></trkpt><trkpt lat="42.2570581" lon="12.1764139"><ele>373.3333333333333</ele><time>2026-04-30T11:57:30.985Z</time></trkpt><trkpt lat="42.2570306" lon="12.1764926"><ele>370.16666666666663</ele><time>2026-04-30T11:57:31.985Z</time></trkpt><trkpt lat="42.2570116" lon="12.1766405"><ele>367.0</ele><time>2026-04-30T11:57:33.985Z</time></trkpt><trkpt lat="42.2571031" lon="12.1767466"><ele>367.0</ele><time>2026-04-30T11:57:35.986Z</time></trkpt><trkpt lat="42.2571844" lon="12.1767525"><ele>367.0</ele><time>2026-04-30T11:57:36.985Z</time></trkpt><trkpt lat="42.2572653" lon="12.1767212"><ele>367.0</ele><time>2026-04-30T11:57:37.985Z</time></trkpt><trkpt lat="42.2573354" lon="12.1766469"><ele>367.0</ele><time>2026-04-30T11:57:38.985Z</time></trkpt><trkpt lat="42.2574004" lon="12.1765527"><ele>367.0</ele><time>2026-04-30T11:57:39.985Z</time></trkpt><trkpt lat="42.2574596" lon="12.1764566"><ele>367.0</ele><time>2026-04-30T11:57:40.986Z</time></trkpt><trkpt lat="42.257517" lon="12.1763595"><ele>369.6</ele><time>2026-04-30T11:57:41.986Z</time></trkpt><trkpt lat="42.2575792" lon="12.1762552"><ele>372.20000000000005</ele><time>2026-04-30T11:57:42.985Z</time></trkpt><trkpt lat="42.2576281" lon="12.1761466"><ele>374.8</ele><time>2026-04-30T11:57:43.985Z</time></trkpt><trkpt lat="42.2577037" lon="12.1760522"><ele>377.4</ele><time>2026-04-30T11:57:44.985Z</time></trkpt><trkpt lat="42.2577757" lon="12.1759636"><ele>380.0</ele><time>2026-04-30T11:57:45.986Z</time></trkpt><trkpt lat="42.2578458" lon="12.1758831"><ele>380.0</ele><time>2026-04-30T11:57:46.985Z</time></trkpt><trkpt lat="42.2579144" lon="12.1758037"><ele>380.0</ele><time>2026-04-30T11:57:47.985Z</time></trkpt><trkpt lat="42.2579864" lon="12.1757249"><ele>380.0</ele><time>2026-04-30T11:57:48.985Z</time></trkpt><trkpt lat="42.2580707" lon="12.1756527"><ele>380.0</ele><time>2026-04-30T11:57:49.985Z</time></trkpt><trkpt lat="42.2581631" lon="12.1755965"><ele>380.0</ele><time>2026-04-30T11:57:50.986Z</time></trkpt><trkpt lat="42.2582593" lon="12.1755356"><ele>381.0</ele><time>2026-04-30T11:57:51.985Z</time></trkpt><trkpt lat="42.2583609" lon="12.1754659"><ele>382.0</ele><time>2026-04-30T11:57:52.986Z</time></trkpt><trkpt lat="42.2584654" lon="12.1753887"><ele>383.0</ele><time>2026-04-30T11:57:53.985Z</time></trkpt><trkpt lat="42.2585627" lon="12.1753169"><ele>384.0</ele><time>2026-04-30T11:57:54.985Z</time></trkpt><trkpt lat="42.2586513" lon="12.1752518"><ele>385.0</ele><time>2026-04-30T11:57:55.985Z</time></trkpt><trkpt lat="42.2587414" lon="12.1751887"><ele>385.0</ele><time>2026-04-30T11:57:56.986Z</time></trkpt><trkpt lat="42.2588255" lon="12.1751219"><ele>385.0</ele><time>2026-04-30T11:57:57.986Z</time></trkpt><trkpt lat="42.2589042" lon="12.1750436"><ele>385.0</ele><time>2026-04-30T11:57:58.985Z</time></trkpt><trkpt lat="42.2589778" lon="12.1749612"><ele>385.0</ele><time>2026-04-30T11:57:59.985Z</time></trkpt><trkpt lat="42.2590436" lon="12.1748754"><ele>385.0</ele><time>2026-04-30T11:58:00.985Z</time></trkpt><trkpt lat="42.2591064" lon="12.1747921"><ele>383.4</ele><time>2026-04-30T11:58:01.985Z</time></trkpt><trkpt lat="42.2591691" lon="12.174709"><ele>381.8</ele><time>2026-04-30T11:58:02.985Z</time></trkpt><trkpt lat="42.2592331" lon="12.1746506"><ele>380.20000000000005</ele><time>2026-04-30T11:58:03.985Z</time></trkpt><trkpt lat="42.2593061" lon="12.1745972"><ele>378.6</ele><time>2026-04-30T11:58:04.986Z</time></trkpt><trkpt lat="42.2593794" lon="12.1745583"><ele>377.0</ele><time>2026-04-30T11:58:05.985Z</time></trkpt><trkpt lat="42.2594876" lon="12.1746605"><ele>377.0</ele><time>2026-04-30T11:58:07.985Z</time></trkpt><trkpt lat="42.2595213" lon="12.1747553"><ele>377.0</ele><time>2026-04-30T11:58:08.986Z</time></trkpt><trkpt lat="42.2595301" lon="12.1748592"><ele>377.0</ele><time>2026-04-30T11:58:09.985Z</time></trkpt><trkpt lat="42.2595185" lon="12.1749571"><ele>377.0</ele><time>2026-04-30T11:58:10.986Z</time></trkpt><trkpt lat="42.2594736" lon="12.1750477"><ele>377.0</ele><time>2026-04-30T11:58:11.985Z</time></trkpt><trkpt lat="42.2594023" lon="12.1751299"><ele>377.0</ele><time>2026-04-30T11:58:12.985Z</time></trkpt><trkpt lat="42.2593022" lon="12.1752037"><ele>379.0</ele><time>2026-04-30T11:58:13.985Z</time></trkpt><trkpt lat="42.2591954" lon="12.1752792"><ele>381.0</ele><time>2026-04-30T11:58:14.985Z</time></trkpt><trkpt lat="42.2590954" lon="12.1753613"><ele>383.0</ele><time>2026-04-30T11:58:15.985Z</time></trkpt><trkpt lat="42.2590014" lon="12.1754464"><ele>385.0</ele><time>2026-04-30T11:58:16.985Z</time></trkpt><trkpt lat="42.2589109" lon="12.1755362"><ele>385.0</ele><time>2026-04-30T11:58:17.985Z</time></trkpt><trkpt lat="42.2588203" lon="12.1756309"><ele>385.0</ele><time>2026-04-30T11:58:18.985Z</time></trkpt><trkpt lat="42.2587303" lon="12.1757263"><ele>385.0</ele><time>2026-04-30T11:58:19.985Z</time></trkpt><trkpt lat="42.2586447" lon="12.1758228"><ele>385.0</ele><time>2026-04-30T11:58:20.985Z</time></trkpt><trkpt lat="42.2585643" lon="12.1759221"><ele>385.0</ele><time>2026-04-30T11:58:21.985Z</time></trkpt><trkpt lat="42.2584854" lon="12.1760239"><ele>380.25</ele><time>2026-04-30T11:58:22.985Z</time></trkpt><trkpt lat="42.2584125" lon="12.1761298"><ele>375.5</ele><time>2026-04-30T11:58:23.986Z</time></trkpt><trkpt lat="42.2583397" lon="12.1762442"><ele>370.75</ele><time>2026-04-30T11:58:24.986Z</time></trkpt><trkpt lat="42.2582634" lon="12.1763675"><ele>366.0</ele><time>2026-04-30T11:58:25.986Z</time></trkpt><trkpt lat="42.2582024" lon="12.1765145"><ele>365.5</ele><time>2026-04-30T11:58:26.985Z</time></trkpt><trkpt lat="42.2581511" lon="12.1766798"><ele>365.0</ele><time>2026-04-30T11:58:27.985Z</time></trkpt><trkpt lat="42.258106" lon="12.1768598"><ele>364.5</ele><time>2026-04-30T11:58:28.986Z</time></trkpt><trkpt lat="42.2580645" lon="12.1770502"><ele>364.0</ele><time>2026-04-30T11:58:29.985Z</time></trkpt><trkpt lat="42.2580224" lon="12.1772449"><ele>363.0</ele><time>2026-04-30T11:58:30.986Z</time></trkpt><trkpt lat="42.2579887" lon="12.1774548"><ele>362.0</ele><time>2026-04-30T11:58:31.985Z</time></trkpt><trkpt lat="42.2579554" lon="12.1776681"><ele>361.0</ele><time>2026-04-30T11:58:32.985Z</time></trkpt><trkpt lat="42.2579142" lon="12.177866"><ele>361.0</ele><time>2026-04-30T11:58:33.986Z</time></trkpt><trkpt lat="42.2578686" lon="12.1780487"><ele>361.0</ele><time>2026-04-30T11:58:34.986Z</time></trkpt><trkpt lat="42.2578211" lon="12.1782323"><ele>361.0</ele><time>2026-04-30T11:58:35.985Z</time></trkpt><trkpt lat="42.2577776" lon="12.1784138"><ele>361.0</ele><time>2026-04-30T11:58:36.985Z</time></trkpt><trkpt lat="42.2577392" lon="12.1785986"><ele>358.75</ele><time>2026-04-30T11:58:37.986Z</time></trkpt><trkpt lat="42.2576998" lon="12.1787827"><ele>356.5</ele><time>2026-04-30T11:58:38.985Z</time></trkpt><trkpt lat="42.2576483" lon="12.1789543"><ele>354.25</ele><time>2026-04-30T11:58:39.985Z</time></trkpt><trkpt lat="42.2576" lon="12.1791267"><ele>352.0</ele><time>2026-04-30T11:58:40.986Z</time></trkpt><trkpt lat="42.2575517" lon="12.1793067"><ele>350.75</ele><time>2026-04-30T11:58:41.985Z</time></trkpt><trkpt lat="42.25751" lon="12.17948"><ele>349.5</ele><time>2026-04-30T11:58:42.985Z</time></trkpt><trkpt lat="42.25747" lon="12.17966"><ele>348.25</ele><time>2026-04-30T11:58:43.985Z</time></trkpt><trkpt lat="42.2574183" lon="12.1798467"><ele>347.0</ele><time>2026-04-30T11:58:44.985Z</time></trkpt><trkpt lat="42.257365" lon="12.1800367"><ele>346.75</ele><time>2026-04-30T11:58:45.985Z</time></trkpt><trkpt lat="42.25731" lon="12.18022"><ele>346.5</ele><time>2026-04-30T11:58:46.986Z</time></trkpt><trkpt lat="42.2572467" lon="12.1804017"><ele>346.25</ele><time>2026-04-30T11:58:47.985Z</time></trkpt><trkpt lat="42.2571917" lon="12.180585"><ele>346.0</ele><time>2026-04-30T11:58:48.985Z</time></trkpt><trkpt lat="42.2571383" lon="12.180765"><ele>347.25</ele><time>2026-04-30T11:58:49.985Z</time></trkpt><trkpt lat="42.2570967" lon="12.1809383"><ele>348.5</ele><time>2026-04-30T11:58:50.986Z</time></trkpt><trkpt lat="42.257055" lon="12.1811117"><ele>349.75</ele><time>2026-04-30T11:58:51.986Z</time></trkpt><trkpt lat="42.2570117" lon="12.1812817"><ele>351.0</ele><time>2026-04-30T11:58:52.985Z</time></trkpt><trkpt lat="42.25697" lon="12.1814567"><ele>349.5</ele><time>2026-04-30T11:58:53.985Z</time></trkpt><trkpt lat="42.2569267" lon="12.1816333"><ele>348.0</ele><time>2026-04-30T11:58:54.986Z</time></trkpt><trkpt lat="42.256885" lon="12.1818033"><ele>346.5</ele><time>2026-04-30T11:58:55.985Z</time></trkpt><trkpt lat="42.2568383" lon="12.1819733"><ele>345.0</ele><time>2026-04-30T11:58:56.986Z</time></trkpt><trkpt lat="42.256795" lon="12.18215"><ele>345.0</ele><time>2026-04-30T11:58:57.985Z</time></trkpt><trkpt lat="42.2567483" lon="12.1823333"><ele>345.0</ele><time>2026-04-30T11:58:58.985Z</time></trkpt><trkpt lat="42.2566933" lon="12.1825133"><ele>345.0</ele><time>2026-04-30T11:58:59.985Z</time></trkpt><trkpt lat="42.25664" lon="12.182695"><ele>345.0</ele><time>2026-04-30T11:59:00.985Z</time></trkpt><trkpt lat="42.2565683" lon="12.1828733"><ele>344.6666666666667</ele><time>2026-04-30T11:59:01.985Z</time></trkpt><trkpt lat="42.2564867" lon="12.183055"><ele>344.33333333333337</ele><time>2026-04-30T11:59:02.986Z</time></trkpt><trkpt lat="42.2563933" lon="12.1832383"><ele>344.0</ele><time>2026-04-30T11:59:03.985Z</time></trkpt><trkpt lat="42.256305" lon="12.1834067"><ele>346.6666666666667</ele><time>2026-04-30T11:59:04.985Z</time></trkpt><trkpt lat="42.2562167" lon="12.1835867"><ele>349.3333333333333</ele><time>2026-04-30T11:59:05.985Z</time></trkpt><trkpt lat="42.25613" lon="12.1837583"><ele>352.0</ele><time>2026-04-30T11:59:06.986Z</time></trkpt><trkpt lat="42.2560233" lon="12.183925"><ele>345.5</ele><time>2026-04-30T11:59:07.985Z</time></trkpt><trkpt lat="42.255925" lon="12.1840733"><ele>339.0</ele><time>2026-04-30T11:59:08.985Z</time></trkpt><trkpt lat="42.2558283" lon="12.184225"><ele>332.5</ele><time>2026-04-30T11:59:09.986Z</time></trkpt><trkpt lat="42.2557383" lon="12.184375"><ele>326.0</ele><time>2026-04-30T11:59:10.985Z</time></trkpt><trkpt lat="42.25565" lon="12.1844983"><ele>325.5</ele><time>2026-04-30T11:59:11.985Z</time></trkpt><trkpt lat="42.2555467" lon="12.1845933"><ele>325.0</ele><time>2026-04-30T11:59:12.985Z</time></trkpt><trkpt lat="42.2554483" lon="12.1846717"><ele>324.5</ele><time>2026-04-30T11:59:13.985Z</time></trkpt><trkpt lat="42.2553317" lon="12.1847583"><ele>324.0</ele><time>2026-04-30T11:59:14.985Z</time></trkpt><trkpt lat="42.2552183" lon="12.1848667"><ele>321.25</ele><time>2026-04-30T11:59:15.985Z</time></trkpt><trkpt lat="42.2551217" lon="12.1849867"><ele>318.5</ele><time>2026-04-30T11:59:16.985Z</time></trkpt><trkpt lat="42.2550417" lon="12.185115"><ele>315.75</ele><time>2026-04-30T11:59:17.985Z</time></trkpt><trkpt lat="42.25497" lon="12.1852567"><ele>313.0</ele><time>2026-04-30T11:59:18.985Z</time></trkpt><trkpt lat="42.254905" lon="12.1854"><ele>313.0</ele><time>2026-04-30T11:59:19.985Z</time></trkpt><trkpt lat="42.2548367" lon="12.1855433"><ele>313.0</ele><time>2026-04-30T11:59:20.985Z</time></trkpt><trkpt lat="42.2547683" lon="12.1856883"><ele>313.0</ele><time>2026-04-30T11:59:21.986Z</time></trkpt><trkpt lat="42.2546933" lon="12.1858317"><ele>313.0</ele><time>2026-04-30T11:59:22.985Z</time></trkpt><trkpt lat="42.2546183" lon="12.185975"><ele>313.0</ele><time>2026-04-30T11:59:23.985Z</time></trkpt><trkpt lat="42.25456" lon="12.186155"><ele>313.0</ele><time>2026-04-30T11:59:24.985Z</time></trkpt><trkpt lat="42.254515" lon="12.1863467"><ele>313.0</ele><time>2026-04-30T11:59:25.985Z</time></trkpt><trkpt lat="42.2544783" lon="12.1865383"><ele>313.0</ele><time>2026-04-30T11:59:26.985Z</time></trkpt><trkpt lat="42.2544533" lon="12.1867283"><ele>312.75</ele><time>2026-04-30T11:59:27.985Z</time></trkpt><trkpt lat="42.2544383" lon="12.18692"><ele>312.5</ele><time>2026-04-30T11:59:28.985Z</time></trkpt><trkpt lat="42.2544333" lon="12.187115"><ele>312.25</ele><time>2026-04-30T11:59:29.985Z</time></trkpt><trkpt lat="42.254425" lon="12.18732"><ele>312.0</ele><time>2026-04-30T11:59:30.986Z</time></trkpt><trkpt lat="42.2544133" lon="12.187515"><ele>312.75</ele><time>2026-04-30T11:59:31.986Z</time></trkpt><trkpt lat="42.254405" lon="12.1877133"><ele>313.5</ele><time>2026-04-30T11:59:32.985Z</time></trkpt><trkpt lat="42.2543983" lon="12.1879083"><ele>314.25</ele><time>2026-04-30T11:59:33.985Z</time></trkpt><trkpt lat="42.2543933" lon="12.1881"><ele>315.0</ele><time>2026-04-30T11:59:34.985Z</time></trkpt><trkpt lat="42.25437" lon="12.188285"><ele>316.0</ele><time>2026-04-30T11:59:35.986Z</time></trkpt><trkpt lat="42.25433" lon="12.1884667"><ele>317.0</ele><time>2026-04-30T11:59:36.985Z</time></trkpt><trkpt lat="42.2542667" lon="12.18866"><ele>318.0</ele><time>2026-04-30T11:59:37.985Z</time></trkpt><trkpt lat="42.2541917" lon="12.1888517"><ele>315.6666666666667</ele><time>2026-04-30T11:59:38.986Z</time></trkpt><trkpt lat="42.2541067" lon="12.189035"><ele>313.33333333333337</ele><time>2026-04-30T11:59:39.985Z</time></trkpt><trkpt lat="42.2539917" lon="12.189205"><ele>311.0</ele><time>2026-04-30T11:59:40.985Z</time></trkpt><trkpt lat="42.2538883" lon="12.1893733"><ele>314.6666666666667</ele><time>2026-04-30T11:59:41.985Z</time></trkpt><trkpt lat="42.2537783" lon="12.18954"><ele>318.3333333333333</ele><time>2026-04-30T11:59:42.985Z</time></trkpt><trkpt lat="42.2536683" lon="12.189695"><ele>322.0</ele><time>2026-04-30T11:59:43.986Z</time></trkpt><trkpt lat="42.25357" lon="12.1898567"><ele>322.0</ele><time>2026-04-30T11:59:44.986Z</time></trkpt><trkpt lat="42.253475" lon="12.1900233"><ele>322.0</ele><time>2026-04-30T11:59:45.985Z</time></trkpt><trkpt lat="42.25338" lon="12.1901867"><ele>322.0</ele><time>2026-04-30T11:59:46.985Z</time></trkpt><trkpt lat="42.253305" lon="12.1903833"><ele>322.0</ele><time>2026-04-30T11:59:47.985Z</time></trkpt><trkpt lat="42.2532083" lon="12.1906167"><ele>322.0</ele><time>2026-04-30T11:59:48.985Z</time></trkpt><trkpt lat="42.253105" lon="12.1908917"><ele>322.0</ele><time>2026-04-30T11:59:49.985Z</time></trkpt><trkpt lat="42.2529917" lon="12.1911717"><ele>320.0</ele><time>2026-04-30T11:59:50.985Z</time></trkpt><trkpt lat="42.2528683" lon="12.191435"><ele>318.0</ele><time>2026-04-30T11:59:51.985Z</time></trkpt><trkpt lat="42.25276" lon="12.19169"><ele>316.0</ele><time>2026-04-30T11:59:52.985Z</time></trkpt><trkpt lat="42.2526533" lon="12.1919283"><ele>315.0</ele><time>2026-04-30T11:59:53.985Z</time></trkpt><trkpt lat="42.2525567" lon="12.1921517"><ele>314.0</ele><time>2026-04-30T11:59:54.985Z</time></trkpt><trkpt lat="42.252475" lon="12.1923667"><ele>313.0</ele><time>2026-04-30T11:59:55.985Z</time></trkpt><trkpt lat="42.2524117" lon="12.1925683"><ele>313.0</ele><time>2026-04-30T11:59:56.985Z</time></trkpt><trkpt lat="42.2523733" lon="12.192755"><ele>313.0</ele><time>2026-04-30T11:59:57.985Z</time></trkpt><trkpt lat="42.25236" lon="12.1929183"><ele>313.0</ele><time>2026-04-30T11:59:58.985Z</time></trkpt><trkpt lat="42.2523617" lon="12.1930717"><ele>313.0</ele><time>2026-04-30T11:59:59.986Z</time></trkpt><trkpt lat="42.2523683" lon="12.1932183"><ele>312.75</ele><time>2026-04-30T12:00:00.985Z</time></trkpt><trkpt lat="42.252385" lon="12.1933633"><ele>312.5</ele><time>2026-04-30T12:00:01.985Z</time></trkpt><trkpt lat="42.2524017" lon="12.19352"><ele>312.25</ele><time>2026-04-30T12:00:02.985Z</time></trkpt><trkpt lat="42.2524133" lon="12.193675"><ele>312.0</ele><time>2026-04-30T12:00:03.985Z</time></trkpt><trkpt lat="42.25241" lon="12.19383"><ele>312.0</ele><time>2026-04-30T12:00:04.985Z</time></trkpt><trkpt lat="42.2523883" lon="12.19399"><ele>312.0</ele><time>2026-04-30T12:00:05.985Z</time></trkpt><trkpt lat="42.25237" lon="12.1941467"><ele>312.0</ele><time>2026-04-30T12:00:06.985Z</time></trkpt><trkpt lat="42.252325" lon="12.1942967"><ele>312.0</ele><time>2026-04-30T12:00:07.985Z</time></trkpt><trkpt lat="42.25227" lon="12.19444"><ele>313.0</ele><time>2026-04-30T12:00:08.985Z</time></trkpt><trkpt lat="42.2522" lon="12.19456"><ele>314.0</ele><time>2026-04-30T12:00:09.986Z</time></trkpt><trkpt lat="42.2521067" lon="12.1946517"><ele>315.0</ele><time>2026-04-30T12:00:10.985Z</time></trkpt><trkpt lat="42.252" lon="12.19474"><ele>316.0</ele><time>2026-04-30T12:00:11.985Z</time></trkpt><trkpt lat="42.2518933" lon="12.1948"><ele>315.0</ele><time>2026-04-30T12:00:12.986Z</time></trkpt><trkpt lat="42.251785" lon="12.194845"><ele>314.0</ele><time>2026-04-30T12:00:13.985Z</time></trkpt><trkpt lat="42.2516817" lon="12.1948917"><ele>313.0</ele><time>2026-04-30T12:00:14.986Z</time></trkpt><trkpt lat="42.251585" lon="12.194935"><ele>312.0</ele><time>2026-04-30T12:00:15.985Z</time></trkpt><trkpt lat="42.2514917" lon="12.194985"><ele>311.0</ele><time>2026-04-30T12:00:16.986Z</time></trkpt><trkpt lat="42.2514017" lon="12.1950633"><ele>309.5</ele><time>2026-04-30T12:00:17.985Z</time></trkpt><trkpt lat="42.2513283" lon="12.1951783"><ele>308.0</ele><time>2026-04-30T12:00:18.985Z</time></trkpt><trkpt lat="42.25127" lon="12.195325"><ele>306.5</ele><time>2026-04-30T12:00:19.985Z</time></trkpt><trkpt lat="42.251235" lon="12.195495"><ele>305.0</ele><time>2026-04-30T12:00:20.986Z</time></trkpt><trkpt lat="42.2512" lon="12.19568"><ele>303.75</ele><time>2026-04-30T12:00:21.985Z</time></trkpt><trkpt lat="42.25117" lon="12.195865"><ele>302.5</ele><time>2026-04-30T12:00:22.986Z</time></trkpt><trkpt lat="42.2511367" lon="12.19605"><ele>301.25</ele><time>2026-04-30T12:00:23.985Z</time></trkpt><trkpt lat="42.2511133" lon="12.1962317"><ele>300.0</ele><time>2026-04-30T12:00:24.986Z</time></trkpt><trkpt lat="42.2510983" lon="12.1964117"><ele>299.0</ele><time>2026-04-30T12:00:25.985Z</time></trkpt><trkpt lat="42.2511167" lon="12.1966133"><ele>298.0</ele><time>2026-04-30T12:00:26.986Z</time></trkpt><trkpt lat="42.251175" lon="12.1968433"><ele>297.0</ele><time>2026-04-30T12:00:27.985Z</time></trkpt><trkpt lat="42.251235" lon="12.19713"><ele>296.0</ele><time>2026-04-30T12:00:28.985Z</time></trkpt><trkpt lat="42.2512883" lon="12.1974483"><ele>295.0</ele><time>2026-04-30T12:00:29.986Z</time></trkpt><trkpt lat="42.251305" lon="12.1978033"><ele>294.5</ele><time>2026-04-30T12:00:30.985Z</time></trkpt><trkpt lat="42.2512883" lon="12.1981717"><ele>294.0</ele><time>2026-04-30T12:00:31.985Z</time></trkpt><trkpt lat="42.2512517" lon="12.1985383"><ele>294.0</ele><time>2026-04-30T12:00:32.985Z</time></trkpt><trkpt lat="42.2511917" lon="12.1988733"><ele>294.0</ele><time>2026-04-30T12:00:33.985Z</time></trkpt><trkpt lat="42.2510983" lon="12.1991633"><ele>294.0</ele><time>2026-04-30T12:00:34.985Z</time></trkpt><trkpt lat="42.25098" lon="12.1994267"><ele>294.0</ele><time>2026-04-30T12:00:35.985Z</time></trkpt><trkpt lat="42.2508183" lon="12.199635"><ele>292.5</ele><time>2026-04-30T12:00:36.985Z</time></trkpt><trkpt lat="42.25063" lon="12.1998433"><ele>291.0</ele><time>2026-04-30T12:00:37.985Z</time></trkpt><trkpt lat="42.2504117" lon="12.2000633"><ele>291.0</ele><time>2026-04-30T12:00:38.985Z</time></trkpt><trkpt lat="42.2501967" lon="12.20028"><ele>291.0</ele><time>2026-04-30T12:00:39.985Z</time></trkpt><trkpt lat="42.2499983" lon="12.2005033"><ele>289.0</ele><time>2026-04-30T12:00:40.986Z</time></trkpt><trkpt lat="42.2497983" lon="12.2007167"><ele>287.0</ele><time>2026-04-30T12:00:41.985Z</time></trkpt><trkpt lat="42.2496017" lon="12.200925"><ele>287.0</ele><time>2026-04-30T12:00:42.986Z</time></trkpt><trkpt lat="42.24941" lon="12.20113"><ele>287.0</ele><time>2026-04-30T12:00:43.986Z</time></trkpt><trkpt lat="42.249225" lon="12.20134"><ele>287.5</ele><time>2026-04-30T12:00:44.985Z</time></trkpt><trkpt lat="42.249045" lon="12.201555"><ele>288.0</ele><time>2026-04-30T12:00:45.985Z</time></trkpt><trkpt lat="42.2488583" lon="12.201755"><ele>289.5</ele><time>2026-04-30T12:00:46.985Z</time></trkpt><trkpt lat="42.2486767" lon="12.20196"><ele>291.0</ele><time>2026-04-30T12:00:47.985Z</time></trkpt><trkpt lat="42.2484983" lon="12.202165"><ele>290.0</ele><time>2026-04-30T12:00:48.986Z</time></trkpt><trkpt lat="42.2483117" lon="12.20237"><ele>289.0</ele><time>2026-04-30T12:00:49.985Z</time></trkpt><trkpt lat="42.248135" lon="12.2025767"><ele>289.0</ele><time>2026-04-30T12:00:50.985Z</time></trkpt><trkpt lat="42.2479583" lon="12.2027867"><ele>289.0</ele><time>2026-04-30T12:00:51.985Z</time></trkpt><trkpt lat="42.2478017" lon="12.2029883"><ele>289.3333333333333</ele><time>2026-04-30T12:00:52.986Z</time></trkpt><trkpt lat="42.24765" lon="12.2032133"><ele>289.6666666666667</ele><time>2026-04-30T12:00:53.986Z</time></trkpt><trkpt lat="42.2475083" lon="12.2034417"><ele>290.0</ele><time>2026-04-30T12:00:54.985Z</time></trkpt><trkpt lat="42.2473717" lon="12.2036917"><ele>290.0</ele><time>2026-04-30T12:00:55.985Z</time></trkpt><trkpt lat="42.24726" lon="12.2039583"><ele>290.0</ele><time>2026-04-30T12:00:56.985Z</time></trkpt><trkpt lat="42.24716" lon="12.20423"><ele>289.6666666666667</ele><time>2026-04-30T12:00:57.986Z</time></trkpt><trkpt lat="42.2470567" lon="12.204495"><ele>289.3333333333333</ele><time>2026-04-30T12:00:58.986Z</time></trkpt><trkpt lat="42.24696" lon="12.2047717"><ele>289.0</ele><time>2026-04-30T12:00:59.985Z</time></trkpt><trkpt lat="42.2468583" lon="12.205045"><ele>289.0</ele><time>2026-04-30T12:01:00.986Z</time></trkpt><trkpt lat="42.24676" lon="12.205305"><ele>289.0</ele><time>2026-04-30T12:01:01.986Z</time></trkpt><trkpt lat="42.2466567" lon="12.2055667"><ele>289.0</ele><time>2026-04-30T12:01:02.986Z</time></trkpt><trkpt lat="42.2465667" lon="12.2058383"><ele>287.5</ele><time>2026-04-30T12:01:03.985Z</time></trkpt><trkpt lat="42.2464817" lon="12.2061283"><ele>286.0</ele><time>2026-04-30T12:01:04.985Z</time></trkpt><trkpt lat="42.2464" lon="12.2064317"><ele>286.0</ele><time>2026-04-30T12:01:05.985Z</time></trkpt><trkpt lat="42.24632" lon="12.2067417"><ele>286.0</ele><time>2026-04-30T12:01:06.986Z</time></trkpt><trkpt lat="42.246245" lon="12.20705"><ele>285.5</ele><time>2026-04-30T12:01:07.986Z</time></trkpt><trkpt lat="42.24617" lon="12.2073483"><ele>285.0</ele><time>2026-04-30T12:01:08.985Z</time></trkpt><trkpt lat="42.2460983" lon="12.2076467"><ele>285.0</ele><time>2026-04-30T12:01:09.986Z</time></trkpt><trkpt lat="42.2460333" lon="12.2079467"><ele>285.0</ele><time>2026-04-30T12:01:10.985Z</time></trkpt><trkpt lat="42.2459683" lon="12.20825"><ele>286.0</ele><time>2026-04-30T12:01:11.985Z</time></trkpt><trkpt lat="42.2459117" lon="12.2085617"><ele>287.0</ele><time>2026-04-30T12:01:12.985Z</time></trkpt><trkpt lat="42.245875" lon="12.208865"><ele>285.5</ele><time>2026-04-30T12:01:13.986Z</time></trkpt><trkpt lat="42.245865" lon="12.209185"><ele>284.0</ele><time>2026-04-30T12:01:14.985Z</time></trkpt><trkpt lat="42.2458483" lon="12.2094883"><ele>284.0</ele><time>2026-04-30T12:01:15.986Z</time></trkpt><trkpt lat="42.2458167" lon="12.2097933"><ele>284.0</ele><time>2026-04-30T12:01:16.985Z</time></trkpt><trkpt lat="42.24575" lon="12.2101"><ele>282.5</ele><time>2026-04-30T12:01:17.985Z</time></trkpt><trkpt lat="42.2456517" lon="12.2103867"><ele>281.0</ele><time>2026-04-30T12:01:18.986Z</time></trkpt><trkpt lat="42.2455433" lon="12.2106567"><ele>280.0</ele><time>2026-04-30T12:01:19.986Z</time></trkpt><trkpt lat="42.2454167" lon="12.2109117"><ele>279.0</ele><time>2026-04-30T12:01:20.986Z</time></trkpt><trkpt lat="42.2452817" lon="12.2111517"><ele>279.0</ele><time>2026-04-30T12:01:21.985Z</time></trkpt><trkpt lat="42.2451283" lon="12.2113667"><ele>279.0</ele><time>2026-04-30T12:01:22.985Z</time></trkpt><trkpt lat="42.24496" lon="12.2115667"><ele>279.0</ele><time>2026-04-30T12:01:23.985Z</time></trkpt><trkpt lat="42.2447817" lon="12.2117633"><ele>279.0</ele><time>2026-04-30T12:01:24.985Z</time></trkpt><trkpt lat="42.2445967" lon="12.211965"><ele>279.0</ele><time>2026-04-30T12:01:25.986Z</time></trkpt><trkpt lat="42.2444033" lon="12.212165"><ele>284.0</ele><time>2026-04-30T12:01:26.985Z</time></trkpt><trkpt lat="42.2442267" lon="12.21236"><ele>289.0</ele><time>2026-04-30T12:01:27.985Z</time></trkpt><trkpt lat="42.2440433" lon="12.2125633"><ele>286.5</ele><time>2026-04-30T12:01:28.986Z</time></trkpt><trkpt lat="42.24386" lon="12.212765"><ele>284.0</ele><time>2026-04-30T12:01:29.985Z</time></trkpt><trkpt lat="42.2436783" lon="12.212975"><ele>281.5</ele><time>2026-04-30T12:01:30.985Z</time></trkpt><trkpt lat="42.2435017" lon="12.21319"><ele>279.0</ele><time>2026-04-30T12:01:31.985Z</time></trkpt><trkpt lat="42.243345" lon="12.213425"><ele>279.0</ele><time>2026-04-30T12:01:32.986Z</time></trkpt><trkpt lat="42.2431817" lon="12.21366"><ele>279.0</ele><time>2026-04-30T12:01:33.985Z</time></trkpt><trkpt lat="42.2430233" lon="12.21391"><ele>278.0</ele><time>2026-04-30T12:01:34.986Z</time></trkpt><trkpt lat="42.2428783" lon="12.2141767"><ele>277.0</ele><time>2026-04-30T12:01:35.986Z</time></trkpt><trkpt lat="42.2427533" lon="12.2144567"><ele>277.0</ele><time>2026-04-30T12:01:36.985Z</time></trkpt><trkpt lat="42.2426417" lon="12.2147383"><ele>277.0</ele><time>2026-04-30T12:01:37.986Z</time></trkpt><trkpt lat="42.2425483" lon="12.2150217"><ele>276.5</ele><time>2026-04-30T12:01:38.985Z</time></trkpt><trkpt lat="42.2424483" lon="12.2153167"><ele>276.0</ele><time>2026-04-30T12:01:39.985Z</time></trkpt><trkpt lat="42.2423683" lon="12.215615"><ele>278.5</ele><time>2026-04-30T12:01:40.985Z</time></trkpt><trkpt lat="42.2423033" lon="12.2159233"><ele>281.0</ele><time>2026-04-30T12:01:41.985Z</time></trkpt><trkpt lat="42.2422617" lon="12.2162367"><ele>278.5</ele><time>2026-04-30T12:01:42.986Z</time></trkpt><trkpt lat="42.242235" lon="12.2165467"><ele>276.0</ele><time>2026-04-30T12:01:43.985Z</time></trkpt><trkpt lat="42.242215" lon="12.2168433"><ele>276.0</ele><time>2026-04-30T12:01:44.985Z</time></trkpt><trkpt lat="42.242205" lon="12.2171467"><ele>276.0</ele><time>2026-04-30T12:01:45.986Z</time></trkpt><trkpt lat="42.2422083" lon="12.217465"><ele>275.6666666666667</ele><time>2026-04-30T12:01:46.985Z</time></trkpt><trkpt lat="42.2422117" lon="12.2177783"><ele>275.33333333333337</ele><time>2026-04-30T12:01:47.985Z</time></trkpt><trkpt lat="42.24221" lon="12.2180667"><ele>275.0</ele><time>2026-04-30T12:01:48.985Z</time></trkpt><trkpt lat="42.2422117" lon="12.218345"><ele>274.6666666666667</ele><time>2026-04-30T12:01:49.986Z</time></trkpt><trkpt lat="42.242205" lon="12.2185967"><ele>274.3333333333333</ele><time>2026-04-30T12:01:50.986Z</time></trkpt><trkpt lat="42.2421917" lon="12.2188267"><ele>274.0</ele><time>2026-04-30T12:01:51.985Z</time></trkpt><trkpt lat="42.2421883" lon="12.2190283"><ele>274.0</ele><time>2026-04-30T12:01:52.985Z</time></trkpt><trkpt lat="42.2421883" lon="12.2192167"><ele>274.0</ele><time>2026-04-30T12:01:53.986Z</time></trkpt><trkpt lat="42.242185" lon="12.219405"><ele>274.0</ele><time>2026-04-30T12:01:54.985Z</time></trkpt><trkpt lat="42.2421833" lon="12.2195833"><ele>274.0</ele><time>2026-04-30T12:01:55.986Z</time></trkpt><trkpt lat="42.2421783" lon="12.2197383"><ele>273.59999999999997</ele><time>2026-04-30T12:01:56.985Z</time></trkpt><trkpt lat="42.24217" lon="12.2198867"><ele>273.2</ele><time>2026-04-30T12:01:57.985Z</time></trkpt><trkpt lat="42.2421683" lon="12.2200467"><ele>272.79999999999995</ele><time>2026-04-30T12:01:58.985Z</time></trkpt><trkpt lat="42.2421683" lon="12.2201967"><ele>272.4</ele><time>2026-04-30T12:01:59.985Z</time></trkpt><trkpt lat="42.2421633" lon="12.2203317"><ele>272.0</ele><time>2026-04-30T12:02:00.985Z</time></trkpt><trkpt lat="42.24216" lon="12.22043"><ele>272.0</ele><time>2026-04-30T12:02:01.986Z</time></trkpt><trkpt lat="42.2421483" lon="12.2205317"><ele>272.0</ele><time>2026-04-30T12:02:03.985Z</time></trkpt><trkpt lat="42.2421483" lon="12.22062"><ele>272.0</ele><time>2026-04-30T12:02:13.986Z</time></trkpt><trkpt lat="42.2421483" lon="12.220725"><ele>272.0</ele><time>2026-04-30T12:02:14.985Z</time></trkpt><trkpt lat="42.2421433" lon="12.220845"><ele>272.0</ele><time>2026-04-30T12:02:15.985Z</time></trkpt><trkpt lat="42.2421367" lon="12.22096"><ele>272.0</ele><time>2026-04-30T12:02:16.985Z</time></trkpt><trkpt lat="42.2421267" lon="12.22108"><ele>271.85714285714283</ele><time>2026-04-30T12:02:17.986Z</time></trkpt><trkpt lat="42.2421083" lon="12.2211867"><ele>271.7142857142857</ele><time>2026-04-30T12:02:18.985Z</time></trkpt><trkpt lat="42.242085" lon="12.2212783"><ele>271.57142857142856</ele><time>2026-04-30T12:02:19.985Z</time></trkpt><trkpt lat="42.24206" lon="12.2213683"><ele>271.42857142857144</ele><time>2026-04-30T12:02:20.985Z</time></trkpt><trkpt lat="42.2420333" lon="12.22145"><ele>271.2857142857143</ele><time>2026-04-30T12:02:21.986Z</time></trkpt><trkpt lat="42.2420033" lon="12.2215333"><ele>271.1428571428571</ele><time>2026-04-30T12:02:22.985Z</time></trkpt><trkpt lat="42.241975" lon="12.221615"><ele>271.0</ele><time>2026-04-30T12:02:23.985Z</time></trkpt><trkpt lat="42.2419433" lon="12.2217"><ele>271.8</ele><time>2026-04-30T12:02:24.985Z</time></trkpt><trkpt lat="42.2419033" lon="12.2217967"><ele>272.6</ele><time>2026-04-30T12:02:25.985Z</time></trkpt><trkpt lat="42.2418567" lon="12.2218917"><ele>273.4</ele><time>2026-04-30T12:02:26.985Z</time></trkpt><trkpt lat="42.2418117" lon="12.2219817"><ele>274.2</ele><time>2026-04-30T12:02:27.986Z</time></trkpt><trkpt lat="42.24175" lon="12.22209"><ele>275.0</ele><time>2026-04-30T12:02:28.985Z</time></trkpt><trkpt lat="42.2416717" lon="12.2222267"><ele>273.5</ele><time>2026-04-30T12:02:29.985Z</time></trkpt><trkpt lat="42.2415733" lon="12.2223717"><ele>272.0</ele><time>2026-04-30T12:02:30.985Z</time></trkpt><trkpt lat="42.2414833" lon="12.22251"><ele>270.5</ele><time>2026-04-30T12:02:31.985Z</time></trkpt><trkpt lat="42.2414017" lon="12.2226433"><ele>269.0</ele><time>2026-04-30T12:02:32.986Z</time></trkpt><trkpt lat="42.2413367" lon="12.2227767"><ele>269.0</ele><time>2026-04-30T12:02:33.985Z</time></trkpt><trkpt lat="42.2412667" lon="12.2229083"><ele>269.0</ele><time>2026-04-30T12:02:34.985Z</time></trkpt><trkpt lat="42.2412017" lon="12.223045"><ele>269.0</ele><time>2026-04-30T12:02:35.985Z</time></trkpt><trkpt lat="42.24114" lon="12.223185"><ele>269.0</ele><time>2026-04-30T12:02:36.985Z</time></trkpt><trkpt lat="42.24108" lon="12.2233333"><ele>270.0</ele><time>2026-04-30T12:02:37.985Z</time></trkpt><trkpt lat="42.2410167" lon="12.2235"><ele>271.0</ele><time>2026-04-30T12:02:38.985Z</time></trkpt><trkpt lat="42.24096" lon="12.2236667"><ele>272.0</ele><time>2026-04-30T12:02:39.985Z</time></trkpt><trkpt lat="42.240905" lon="12.2238467"><ele>273.0</ele><time>2026-04-30T12:02:40.985Z</time></trkpt><trkpt lat="42.2408483" lon="12.2240167"><ele>274.0</ele><time>2026-04-30T12:02:41.985Z</time></trkpt><trkpt lat="42.2407917" lon="12.2241917"><ele>275.0</ele><time>2026-04-30T12:02:42.985Z</time></trkpt><trkpt lat="42.2407333" lon="12.2243633"><ele>276.0</ele><time>2026-04-30T12:02:43.986Z</time></trkpt><trkpt lat="42.2406717" lon="12.2245433"><ele>277.0</ele><time>2026-04-30T12:02:44.985Z</time></trkpt><trkpt lat="42.2406083" lon="12.22473"><ele>274.0</ele><time>2026-04-30T12:02:45.986Z</time></trkpt><trkpt lat="42.2405533" lon="12.224935"><ele>271.0</ele><time>2026-04-30T12:02:46.985Z</time></trkpt><trkpt lat="42.2405283" lon="12.2251333"><ele>268.0</ele><time>2026-04-30T12:02:47.985Z</time></trkpt><trkpt lat="42.24053" lon="12.2253217"><ele>268.0</ele><time>2026-04-30T12:02:48.985Z</time></trkpt><trkpt lat="42.2405567" lon="12.2255317"><ele>268.0</ele><time>2026-04-30T12:02:49.985Z</time></trkpt><trkpt lat="42.2405983" lon="12.2257733"><ele>268.0</ele><time>2026-04-30T12:02:50.986Z</time></trkpt><trkpt lat="42.2406433" lon="12.226015"><ele>269.66666666666663</ele><time>2026-04-30T12:02:51.985Z</time></trkpt><trkpt lat="42.240635" lon="12.226255"><ele>271.3333333333333</ele><time>2026-04-30T12:02:52.985Z</time></trkpt><trkpt lat="42.2405967" lon="12.2264667"><ele>273.0</ele><time>2026-04-30T12:02:53.985Z</time></trkpt><trkpt lat="42.2405667" lon="12.2266733"><ele>273.75</ele><time>2026-04-30T12:02:54.985Z</time></trkpt><trkpt lat="42.2405467" lon="12.2268717"><ele>274.5</ele><time>2026-04-30T12:02:55.986Z</time></trkpt><trkpt lat="42.24052" lon="12.2270667"><ele>275.25</ele><time>2026-04-30T12:02:56.985Z</time></trkpt><trkpt lat="42.2404983" lon="12.227235"><ele>276.0</ele><time>2026-04-30T12:02:57.985Z</time></trkpt><trkpt lat="42.2404833" lon="12.2273967"><ele>276.40000000000003</ele><time>2026-04-30T12:02:58.986Z</time></trkpt><trkpt lat="42.240465" lon="12.2275433"><ele>276.8</ele><time>2026-04-30T12:02:59.985Z</time></trkpt><trkpt lat="42.2404483" lon="12.2276833"><ele>277.20000000000005</ele><time>2026-04-30T12:03:00.986Z</time></trkpt><trkpt lat="42.2404367" lon="12.227835"><ele>277.6</ele><time>2026-04-30T12:03:01.986Z</time></trkpt><trkpt lat="42.2404133" lon="12.2279883"><ele>278.0</ele><time>2026-04-30T12:03:02.985Z</time></trkpt><trkpt lat="42.2403967" lon="12.2281383"><ele>277.2</ele><time>2026-04-30T12:03:03.986Z</time></trkpt><trkpt lat="42.2403817" lon="12.2282817"><ele>276.4</ele><time>2026-04-30T12:03:04.985Z</time></trkpt><trkpt lat="42.2403633" lon="12.2284183"><ele>275.59999999999997</ele><time>2026-04-30T12:03:05.985Z</time></trkpt><trkpt lat="42.2403367" lon="12.228555"><ele>274.8</ele><time>2026-04-30T12:03:06.985Z</time></trkpt><trkpt lat="42.2402983" lon="12.2286983"><ele>274.0</ele><time>2026-04-30T12:03:07.985Z</time></trkpt><trkpt lat="42.24025" lon="12.2288333"><ele>274.0</ele><time>2026-04-30T12:03:08.986Z</time></trkpt><trkpt lat="42.2401933" lon="12.2289667"><ele>274.0</ele><time>2026-04-30T12:03:09.986Z</time></trkpt><trkpt lat="42.240115" lon="12.2290967"><ele>274.0</ele><time>2026-04-30T12:03:10.986Z</time></trkpt><trkpt lat="42.2400317" lon="12.229225"><ele>274.0</ele><time>2026-04-30T12:03:11.985Z</time></trkpt><trkpt lat="42.239935" lon="12.22933"><ele>273.5</ele><time>2026-04-30T12:03:12.986Z</time></trkpt><trkpt lat="42.2398367" lon="12.2294217"><ele>273.0</ele><time>2026-04-30T12:03:13.985Z</time></trkpt><trkpt lat="42.239735" lon="12.2295183"><ele>272.5</ele><time>2026-04-30T12:03:14.985Z</time></trkpt><trkpt lat="42.2396233" lon="12.2296233"><ele>272.0</ele><time>2026-04-30T12:03:15.986Z</time></trkpt><trkpt lat="42.2395217" lon="12.22974"><ele>270.75</ele><time>2026-04-30T12:03:16.986Z</time></trkpt><trkpt lat="42.2394217" lon="12.2298467"><ele>269.5</ele><time>2026-04-30T12:03:17.985Z</time></trkpt><trkpt lat="42.2393183" lon="12.2299633"><ele>268.25</ele><time>2026-04-30T12:03:18.985Z</time></trkpt><trkpt lat="42.2392167" lon="12.23007"><ele>267.0</ele><time>2026-04-30T12:03:19.986Z</time></trkpt><trkpt lat="42.2391167" lon="12.2301617"><ele>267.0</ele><time>2026-04-30T12:03:20.985Z</time></trkpt><trkpt lat="42.2390133" lon="12.2302583"><ele>267.0</ele><time>2026-04-30T12:03:21.985Z</time></trkpt><trkpt lat="42.2389067" lon="12.2303617"><ele>267.0</ele><time>2026-04-30T12:03:22.986Z</time></trkpt><trkpt lat="42.2388033" lon="12.2304733"><ele>267.0</ele><time>2026-04-30T12:03:23.986Z</time></trkpt><trkpt lat="42.2386983" lon="12.23058"><ele>267.25</ele><time>2026-04-30T12:03:24.985Z</time></trkpt><trkpt lat="42.2385867" lon="12.2306967"><ele>267.5</ele><time>2026-04-30T12:03:25.986Z</time></trkpt><trkpt lat="42.2384683" lon="12.2308267"><ele>267.75</ele><time>2026-04-30T12:03:26.985Z</time></trkpt><trkpt lat="42.2383483" lon="12.2309533"><ele>268.0</ele><time>2026-04-30T12:03:27.985Z</time></trkpt><trkpt lat="42.238235" lon="12.2310783"><ele>273.0</ele><time>2026-04-30T12:03:28.985Z</time></trkpt><trkpt lat="42.2381117" lon="12.2312"><ele>278.0</ele><time>2026-04-30T12:03:29.986Z</time></trkpt><trkpt lat="42.2379767" lon="12.2313283"><ele>283.0</ele><time>2026-04-30T12:03:30.985Z</time></trkpt><trkpt lat="42.2378417" lon="12.2314533"><ele>279.66666666666663</ele><time>2026-04-30T12:03:31.985Z</time></trkpt><trkpt lat="42.237705" lon="12.2315817"><ele>276.3333333333333</ele><time>2026-04-30T12:03:32.986Z</time></trkpt><trkpt lat="42.2375617" lon="12.231705"><ele>273.0</ele><time>2026-04-30T12:03:33.985Z</time></trkpt><trkpt lat="42.237425" lon="12.23182"><ele>276.3333333333333</ele><time>2026-04-30T12:03:34.986Z</time></trkpt><trkpt lat="42.2372833" lon="12.2319267"><ele>279.66666666666663</ele><time>2026-04-30T12:03:35.986Z</time></trkpt><trkpt lat="42.2371467" lon="12.232025"><ele>283.0</ele><time>2026-04-30T12:03:36.985Z</time></trkpt><trkpt lat="42.2369917" lon="12.2321033"><ele>283.0</ele><time>2026-04-30T12:03:37.986Z</time></trkpt><trkpt lat="42.2368333" lon="12.2321567"><ele>283.0</ele><time>2026-04-30T12:03:38.986Z</time></trkpt><trkpt lat="42.23667" lon="12.2322117"><ele>283.0</ele><time>2026-04-30T12:03:39.985Z</time></trkpt><trkpt lat="42.2365083" lon="12.23227"><ele>282.0</ele><time>2026-04-30T12:03:40.985Z</time></trkpt><trkpt lat="42.2363367" lon="12.2323283"><ele>281.0</ele><time>2026-04-30T12:03:41.985Z</time></trkpt><trkpt lat="42.2361783" lon="12.2324083"><ele>280.0</ele><time>2026-04-30T12:03:42.985Z</time></trkpt><trkpt lat="42.2360217" lon="12.2324983"><ele>280.0</ele><time>2026-04-30T12:03:43.985Z</time></trkpt><trkpt lat="42.235865" lon="12.23259"><ele>280.0</ele><time>2026-04-30T12:03:44.986Z</time></trkpt><trkpt lat="42.23572" lon="12.23269"><ele>280.0</ele><time>2026-04-30T12:03:45.985Z</time></trkpt><trkpt lat="42.2355733" lon="12.2328133"><ele>279.0</ele><time>2026-04-30T12:03:46.986Z</time></trkpt><trkpt lat="42.2354533" lon="12.232935"><ele>278.0</ele><time>2026-04-30T12:03:47.985Z</time></trkpt><trkpt lat="42.2353083" lon="12.233065"><ele>277.0</ele><time>2026-04-30T12:03:48.986Z</time></trkpt><trkpt lat="42.2351767" lon="12.233215"><ele>276.66666666666663</ele><time>2026-04-30T12:03:49.985Z</time></trkpt><trkpt lat="42.2350633" lon="12.233385"><ele>276.3333333333333</ele><time>2026-04-30T12:03:50.985Z</time></trkpt><trkpt lat="42.23497" lon="12.23358"><ele>276.0</ele><time>2026-04-30T12:03:51.985Z</time></trkpt><trkpt lat="42.234885" lon="12.2337767"><ele>276.0</ele><time>2026-04-30T12:03:52.986Z</time></trkpt><trkpt lat="42.234795" lon="12.23398"><ele>276.0</ele><time>2026-04-30T12:03:53.985Z</time></trkpt><trkpt lat="42.234725" lon="12.2341783"><ele>276.0</ele><time>2026-04-30T12:03:54.985Z</time></trkpt><trkpt lat="42.2346483" lon="12.2343733"><ele>276.0</ele><time>2026-04-30T12:03:55.985Z</time></trkpt><trkpt lat="42.23458" lon="12.2345767"><ele>276.0</ele><time>2026-04-30T12:03:56.985Z</time></trkpt><trkpt lat="42.2344983" lon="12.234775"><ele>276.0</ele><time>2026-04-30T12:03:57.986Z</time></trkpt><trkpt lat="42.234415" lon="12.2349717"><ele>276.0</ele><time>2026-04-30T12:03:58.985Z</time></trkpt><trkpt lat="42.23433" lon="12.2351667"><ele>276.0</ele><time>2026-04-30T12:03:59.985Z</time></trkpt><trkpt lat="42.23425" lon="12.2353583"><ele>276.0</ele><time>2026-04-30T12:04:00.985Z</time></trkpt><trkpt lat="42.2341667" lon="12.2355517"><ele>276.6666666666667</ele><time>2026-04-30T12:04:01.986Z</time></trkpt><trkpt lat="42.2340833" lon="12.23574"><ele>277.33333333333337</ele><time>2026-04-30T12:04:02.985Z</time></trkpt><trkpt lat="42.234005" lon="12.2359267"><ele>278.0</ele><time>2026-04-30T12:04:03.985Z</time></trkpt><trkpt lat="42.23393" lon="12.2361117"><ele>278.0</ele><time>2026-04-30T12:04:04.985Z</time></trkpt><trkpt lat="42.2338583" lon="12.2362867"><ele>278.0</ele><time>2026-04-30T12:04:05.985Z</time></trkpt><trkpt lat="42.2337817" lon="12.2364617"><ele>278.0</ele><time>2026-04-30T12:04:06.986Z</time></trkpt><trkpt lat="42.23371" lon="12.2366233"><ele>278.0</ele><time>2026-04-30T12:04:07.985Z</time></trkpt><trkpt lat="42.233645" lon="12.236775"><ele>277.0</ele><time>2026-04-30T12:04:08.985Z</time></trkpt><trkpt lat="42.2335817" lon="12.2369233"><ele>276.0</ele><time>2026-04-30T12:04:09.986Z</time></trkpt><trkpt lat="42.2335133" lon="12.2370767"><ele>275.0</ele><time>2026-04-30T12:04:10.985Z</time></trkpt><trkpt lat="42.233445" lon="12.237235"><ele>274.0</ele><time>2026-04-30T12:04:11.985Z</time></trkpt><trkpt lat="42.2333817" lon="12.2373733"><ele>272.75</ele><time>2026-04-30T12:04:12.985Z</time></trkpt><trkpt lat="42.2333233" lon="12.2375217"><ele>271.5</ele><time>2026-04-30T12:04:13.985Z</time></trkpt><trkpt lat="42.23328" lon="12.2376783"><ele>270.25</ele><time>2026-04-30T12:04:14.986Z</time></trkpt><trkpt lat="42.23324" lon="12.2378367"><ele>269.0</ele><time>2026-04-30T12:04:15.985Z</time></trkpt><trkpt lat="42.2332117" lon="12.23799"><ele>268.0</ele><time>2026-04-30T12:04:16.986Z</time></trkpt><trkpt lat="42.2331817" lon="12.2381567"><ele>267.0</ele><time>2026-04-30T12:04:17.985Z</time></trkpt><trkpt lat="42.23316" lon="12.238335"><ele>266.0</ele><time>2026-04-30T12:04:18.985Z</time></trkpt><trkpt lat="42.2331417" lon="12.2385217"><ele>265.0</ele><time>2026-04-30T12:04:19.985Z</time></trkpt><trkpt lat="42.2331417" lon="12.2387067"><ele>265.0</ele><time>2026-04-30T12:04:20.985Z</time></trkpt><trkpt lat="42.23317" lon="12.2389"><ele>265.0</ele><time>2026-04-30T12:04:21.985Z</time></trkpt><trkpt lat="42.233205" lon="12.2391217"><ele>265.0</ele><time>2026-04-30T12:04:22.985Z</time></trkpt><trkpt lat="42.2332517" lon="12.2393333"><ele>265.3333333333333</ele><time>2026-04-30T12:04:23.986Z</time></trkpt><trkpt lat="42.2332867" lon="12.2395383"><ele>265.6666666666667</ele><time>2026-04-30T12:04:24.985Z</time></trkpt><trkpt lat="42.2333133" lon="12.23974"><ele>266.0</ele><time>2026-04-30T12:04:25.986Z</time></trkpt><trkpt lat="42.2333433" lon="12.239945"><ele>266.33333333333337</ele><time>2026-04-30T12:04:26.986Z</time></trkpt><trkpt lat="42.23337" lon="12.24015"><ele>266.6666666666667</ele><time>2026-04-30T12:04:27.985Z</time></trkpt><trkpt lat="42.2334067" lon="12.2403483"><ele>267.0</ele><time>2026-04-30T12:04:28.985Z</time></trkpt><trkpt lat="42.2334283" lon="12.2405417"><ele>266.6666666666667</ele><time>2026-04-30T12:04:29.986Z</time></trkpt><trkpt lat="42.2334383" lon="12.24075"><ele>266.33333333333337</ele><time>2026-04-30T12:04:30.986Z</time></trkpt><trkpt lat="42.233435" lon="12.2409667"><ele>266.0</ele><time>2026-04-30T12:04:31.986Z</time></trkpt><trkpt lat="42.2334117" lon="12.2411883"><ele>266.0</ele><time>2026-04-30T12:04:32.985Z</time></trkpt><trkpt lat="42.233385" lon="12.2414017"><ele>266.0</ele><time>2026-04-30T12:04:33.986Z</time></trkpt><trkpt lat="42.2333617" lon="12.2416217"><ele>266.0</ele><time>2026-04-30T12:04:34.985Z</time></trkpt><trkpt lat="42.2333383" lon="12.2418333"><ele>266.6666666666667</ele><time>2026-04-30T12:04:35.985Z</time></trkpt><trkpt lat="42.233295" lon="12.2420417"><ele>267.3333333333333</ele><time>2026-04-30T12:04:36.986Z</time></trkpt><trkpt lat="42.2332567" lon="12.2422433"><ele>268.0</ele><time>2026-04-30T12:04:37.986Z</time></trkpt><trkpt lat="42.233215" lon="12.2424367"><ele>268.0</ele><time>2026-04-30T12:04:38.985Z</time></trkpt><trkpt lat="42.23318" lon="12.2426233"><ele>268.0</ele><time>2026-04-30T12:04:39.985Z</time></trkpt><trkpt lat="42.2331383" lon="12.242825"><ele>268.0</ele><time>2026-04-30T12:04:40.985Z</time></trkpt><trkpt lat="42.2331017" lon="12.243025"><ele>267.66666666666663</ele><time>2026-04-30T12:04:41.985Z</time></trkpt><trkpt lat="42.2330667" lon="12.243235"><ele>267.3333333333333</ele><time>2026-04-30T12:04:42.985Z</time></trkpt><trkpt lat="42.2330233" lon="12.243465"><ele>267.0</ele><time>2026-04-30T12:04:43.985Z</time></trkpt><trkpt lat="42.2329967" lon="12.2436917"><ele>267.0</ele><time>2026-04-30T12:04:44.985Z</time></trkpt><trkpt lat="42.232975" lon="12.2439117"><ele>267.0</ele><time>2026-04-30T12:04:45.985Z</time></trkpt><trkpt lat="42.2329517" lon="12.244125"><ele>267.0</ele><time>2026-04-30T12:04:46.985Z</time></trkpt><trkpt lat="42.232935" lon="12.2443367"><ele>268.0</ele><time>2026-04-30T12:04:47.986Z</time></trkpt><trkpt lat="42.232915" lon="12.244555"><ele>269.0</ele><time>2026-04-30T12:04:48.985Z</time></trkpt><trkpt lat="42.2329" lon="12.24476"><ele>270.0</ele><time>2026-04-30T12:04:49.985Z</time></trkpt><trkpt lat="42.2328833" lon="12.244965"><ele>270.75</ele><time>2026-04-30T12:04:50.986Z</time></trkpt><trkpt lat="42.23287" lon="12.2451683"><ele>271.5</ele><time>2026-04-30T12:04:51.985Z</time></trkpt><trkpt lat="42.2328633" lon="12.24536"><ele>272.25</ele><time>2026-04-30T12:04:52.985Z</time></trkpt><trkpt lat="42.2328567" lon="12.24555"><ele>273.0</ele><time>2026-04-30T12:04:53.985Z</time></trkpt><trkpt lat="42.2328417" lon="12.2457433"><ele>273.75</ele><time>2026-04-30T12:04:54.985Z</time></trkpt><trkpt lat="42.232825" lon="12.2459383"><ele>274.5</ele><time>2026-04-30T12:04:55.986Z</time></trkpt><trkpt lat="42.2328183" lon="12.2461333"><ele>275.25</ele><time>2026-04-30T12:04:56.985Z</time></trkpt><trkpt lat="42.2327983" lon="12.246335"><ele>276.0</ele><time>2026-04-30T12:04:57.986Z</time></trkpt><trkpt lat="42.2327833" lon="12.24653"><ele>276.0</ele><time>2026-04-30T12:04:58.985Z</time></trkpt><trkpt lat="42.2327633" lon="12.2467283"><ele>276.0</ele><time>2026-04-30T12:04:59.985Z</time></trkpt><trkpt lat="42.23274" lon="12.2469333"><ele>276.0</ele><time>2026-04-30T12:05:00.985Z</time></trkpt><trkpt lat="42.2327167" lon="12.2471383"><ele>275.0</ele><time>2026-04-30T12:05:01.986Z</time></trkpt><trkpt lat="42.2327033" lon="12.2473483"><ele>274.0</ele><time>2026-04-30T12:05:02.985Z</time></trkpt><trkpt lat="42.232685" lon="12.24757"><ele>273.0</ele><time>2026-04-30T12:05:03.986Z</time></trkpt><trkpt lat="42.23267" lon="12.2477833"><ele>273.0</ele><time>2026-04-30T12:05:04.985Z</time></trkpt><trkpt lat="42.2326517" lon="12.2480033"><ele>273.0</ele><time>2026-04-30T12:05:05.985Z</time></trkpt><trkpt lat="42.232625" lon="12.2482267"><ele>273.0</ele><time>2026-04-30T12:05:06.986Z</time></trkpt><trkpt lat="42.2325883" lon="12.2484517"><ele>272.6666666666667</ele><time>2026-04-30T12:05:07.985Z</time></trkpt><trkpt lat="42.2325367" lon="12.2486767"><ele>272.33333333333337</ele><time>2026-04-30T12:05:08.985Z</time></trkpt><trkpt lat="42.2324767" lon="12.2489"><ele>272.0</ele><time>2026-04-30T12:05:09.985Z</time></trkpt><trkpt lat="42.2324017" lon="12.2491233"><ele>271.6666666666667</ele><time>2026-04-30T12:05:10.986Z</time></trkpt><trkpt lat="42.2323267" lon="12.2493533"><ele>271.3333333333333</ele><time>2026-04-30T12:05:11.985Z</time></trkpt><trkpt lat="42.232245" lon="12.2495817"><ele>271.0</ele><time>2026-04-30T12:05:12.985Z</time></trkpt><trkpt lat="42.23217" lon="12.2498033"><ele>272.3333333333333</ele><time>2026-04-30T12:05:13.985Z</time></trkpt><trkpt lat="42.2320983" lon="12.25002"><ele>273.6666666666667</ele><time>2026-04-30T12:05:14.985Z</time></trkpt><trkpt lat="42.2320233" lon="12.25023"><ele>275.0</ele><time>2026-04-30T12:05:15.985Z</time></trkpt><trkpt lat="42.2319533" lon="12.25045"><ele>275.33333333333337</ele><time>2026-04-30T12:05:16.985Z</time></trkpt><trkpt lat="42.2318817" lon="12.2506633"><ele>275.6666666666667</ele><time>2026-04-30T12:05:17.986Z</time></trkpt><trkpt lat="42.2318067" lon="12.250885"><ele>276.0</ele><time>2026-04-30T12:05:18.985Z</time></trkpt><trkpt lat="42.23174" lon="12.2511133"><ele>276.0</ele><time>2026-04-30T12:05:19.985Z</time></trkpt><trkpt lat="42.2316733" lon="12.25133"><ele>276.0</ele><time>2026-04-30T12:05:20.986Z</time></trkpt><trkpt lat="42.2316067" lon="12.25155"><ele>276.0</ele><time>2026-04-30T12:05:21.985Z</time></trkpt><trkpt lat="42.23154" lon="12.2517667"><ele>276.0</ele><time>2026-04-30T12:05:22.985Z</time></trkpt><trkpt lat="42.2314683" lon="12.2519967"><ele>276.0</ele><time>2026-04-30T12:05:23.985Z</time></trkpt><trkpt lat="42.2313967" lon="12.252225"><ele>276.0</ele><time>2026-04-30T12:05:24.985Z</time></trkpt><trkpt lat="42.231325" lon="12.25245"><ele>276.0</ele><time>2026-04-30T12:05:25.985Z</time></trkpt><trkpt lat="42.2312583" lon="12.2526883"><ele>276.0</ele><time>2026-04-30T12:05:26.985Z</time></trkpt><trkpt lat="42.2312067" lon="12.2529267"><ele>276.0</ele><time>2026-04-30T12:05:27.986Z</time></trkpt><trkpt lat="42.23116" lon="12.25317"><ele>276.0</ele><time>2026-04-30T12:05:28.985Z</time></trkpt><trkpt lat="42.2311267" lon="12.2534117"><ele>276.0</ele><time>2026-04-30T12:05:29.985Z</time></trkpt><trkpt lat="42.2310917" lon="12.2536467"><ele>276.0</ele><time>2026-04-30T12:05:30.985Z</time></trkpt><trkpt lat="42.2310733" lon="12.25388"><ele>276.0</ele><time>2026-04-30T12:05:31.985Z</time></trkpt><trkpt lat="42.2310567" lon="12.254115"><ele>276.0</ele><time>2026-04-30T12:05:32.985Z</time></trkpt><trkpt lat="42.231045" lon="12.254345"><ele>276.0</ele><time>2026-04-30T12:05:33.985Z</time></trkpt><trkpt lat="42.2310367" lon="12.2545717"><ele>275.6666666666667</ele><time>2026-04-30T12:05:34.985Z</time></trkpt><trkpt lat="42.231035" lon="12.2547983"><ele>275.33333333333337</ele><time>2026-04-30T12:05:35.985Z</time></trkpt><trkpt lat="42.23103" lon="12.2550217"><ele>275.0</ele><time>2026-04-30T12:05:36.986Z</time></trkpt><trkpt lat="42.2310283" lon="12.2552417"><ele>275.0</ele><time>2026-04-30T12:05:37.985Z</time></trkpt><trkpt lat="42.2310317" lon="12.2554617"><ele>275.0</ele><time>2026-04-30T12:05:38.986Z</time></trkpt><trkpt lat="42.231035" lon="12.2556717"><ele>275.0</ele><time>2026-04-30T12:05:39.985Z</time></trkpt><trkpt lat="42.2310383" lon="12.25588"><ele>274.6666666666667</ele><time>2026-04-30T12:05:40.985Z</time></trkpt><trkpt lat="42.2310383" lon="12.2560967"><ele>274.3333333333333</ele><time>2026-04-30T12:05:41.985Z</time></trkpt><trkpt lat="42.23104" lon="12.25631"><ele>274.0</ele><time>2026-04-30T12:05:42.986Z</time></trkpt><trkpt lat="42.2310283" lon="12.2565367"><ele>274.0</ele><time>2026-04-30T12:05:43.985Z</time></trkpt><trkpt lat="42.2310283" lon="12.2567583"><ele>274.0</ele><time>2026-04-30T12:05:44.985Z</time></trkpt><trkpt lat="42.2310233" lon="12.256975"><ele>274.0</ele><time>2026-04-30T12:05:45.985Z</time></trkpt><trkpt lat="42.231025" lon="12.2572017"><ele>273.3333333333333</ele><time>2026-04-30T12:05:46.985Z</time></trkpt><trkpt lat="42.23101" lon="12.2574233"><ele>272.6666666666667</ele><time>2026-04-30T12:05:47.985Z</time></trkpt><trkpt lat="42.23099" lon="12.2576517"><ele>272.0</ele><time>2026-04-30T12:05:48.986Z</time></trkpt><trkpt lat="42.2309617" lon="12.2578517"><ele>272.0</ele><time>2026-04-30T12:05:49.985Z</time></trkpt><trkpt lat="42.2309183" lon="12.258055"><ele>272.0</ele><time>2026-04-30T12:05:50.985Z</time></trkpt><trkpt lat="42.230865" lon="12.25824"><ele>272.0</ele><time>2026-04-30T12:05:51.985Z</time></trkpt><trkpt lat="42.2308083" lon="12.25842"><ele>272.0</ele><time>2026-04-30T12:05:52.985Z</time></trkpt><trkpt lat="42.2307467" lon="12.25861"><ele>271.0</ele><time>2026-04-30T12:05:53.985Z</time></trkpt><trkpt lat="42.2306767" lon="12.2587983"><ele>270.0</ele><time>2026-04-30T12:05:54.985Z</time></trkpt><trkpt lat="42.23061" lon="12.2589983"><ele>269.0</ele><time>2026-04-30T12:05:55.986Z</time></trkpt><trkpt lat="42.2305367" lon="12.2592067"><ele>268.6666666666667</ele><time>2026-04-30T12:05:56.985Z</time></trkpt><trkpt lat="42.2304733" lon="12.2594217"><ele>268.3333333333333</ele><time>2026-04-30T12:05:57.985Z</time></trkpt><trkpt lat="42.2304017" lon="12.2596367"><ele>268.0</ele><time>2026-04-30T12:05:58.985Z</time></trkpt><trkpt lat="42.230325" lon="12.259865"><ele>269.3333333333333</ele><time>2026-04-30T12:05:59.985Z</time></trkpt><trkpt lat="42.2302567" lon="12.26009"><ele>270.6666666666667</ele><time>2026-04-30T12:06:00.985Z</time></trkpt><trkpt lat="42.2301867" lon="12.2603117"><ele>272.0</ele><time>2026-04-30T12:06:01.986Z</time></trkpt><trkpt lat="42.2301083" lon="12.260545"><ele>272.0</ele><time>2026-04-30T12:06:02.986Z</time></trkpt><trkpt lat="42.2300217" lon="12.2607733"><ele>272.0</ele><time>2026-04-30T12:06:03.985Z</time></trkpt><trkpt lat="42.2299433" lon="12.2609983"><ele>272.0</ele><time>2026-04-30T12:06:04.985Z</time></trkpt><trkpt lat="42.229875" lon="12.2612183"><ele>272.0</ele><time>2026-04-30T12:06:05.985Z</time></trkpt><trkpt lat="42.2298183" lon="12.2614333"><ele>272.0</ele><time>2026-04-30T12:06:06.985Z</time></trkpt><trkpt lat="42.229755" lon="12.2616117"><ele>272.0</ele><time>2026-04-30T12:06:07.985Z</time></trkpt><trkpt lat="42.2296983" lon="12.2617933"><ele>272.0</ele><time>2026-04-30T12:06:08.986Z</time></trkpt><trkpt lat="42.2296417" lon="12.26197"><ele>272.0</ele><time>2026-04-30T12:06:09.985Z</time></trkpt><trkpt lat="42.22958" lon="12.2621533"><ele>272.0</ele><time>2026-04-30T12:06:10.985Z</time></trkpt><trkpt lat="42.22952" lon="12.26235"><ele>272.0</ele><time>2026-04-30T12:06:11.985Z</time></trkpt><trkpt lat="42.229455" lon="12.26254"><ele>271.33333333333337</ele><time>2026-04-30T12:06:12.985Z</time></trkpt><trkpt lat="42.2293917" lon="12.262745"><ele>270.6666666666667</ele><time>2026-04-30T12:06:13.985Z</time></trkpt><trkpt lat="42.2293217" lon="12.2629517"><ele>270.0</ele><time>2026-04-30T12:06:14.986Z</time></trkpt><trkpt lat="42.2292517" lon="12.2631617"><ele>270.0</ele><time>2026-04-30T12:06:15.985Z</time></trkpt><trkpt lat="42.2291817" lon="12.263385"><ele>270.0</ele><time>2026-04-30T12:06:16.985Z</time></trkpt><trkpt lat="42.2291083" lon="12.2636017"><ele>270.0</ele><time>2026-04-30T12:06:17.985Z</time></trkpt><trkpt lat="42.22903" lon="12.26383"><ele>267.6666666666667</ele><time>2026-04-30T12:06:18.986Z</time></trkpt><trkpt lat="42.2289583" lon="12.2640583"><ele>265.33333333333337</ele><time>2026-04-30T12:06:19.985Z</time></trkpt><trkpt lat="42.2288883" lon="12.264285"><ele>263.0</ele><time>2026-04-30T12:06:20.985Z</time></trkpt><trkpt lat="42.2288033" lon="12.26451"><ele>263.0</ele><time>2026-04-30T12:06:21.985Z</time></trkpt><trkpt lat="42.2287217" lon="12.2647467"><ele>263.0</ele><time>2026-04-30T12:06:22.985Z</time></trkpt><trkpt lat="42.2286367" lon="12.2650017"><ele>263.0</ele><time>2026-04-30T12:06:23.985Z</time></trkpt><trkpt lat="42.2285483" lon="12.2652467"><ele>263.0</ele><time>2026-04-30T12:06:24.985Z</time></trkpt><trkpt lat="42.228465" lon="12.2654883"><ele>263.0</ele><time>2026-04-30T12:06:25.985Z</time></trkpt><trkpt lat="42.2283717" lon="12.265735"><ele>263.0</ele><time>2026-04-30T12:06:26.985Z</time></trkpt><trkpt lat="42.2282867" lon="12.2659783"><ele>263.0</ele><time>2026-04-30T12:06:27.986Z</time></trkpt><trkpt lat="42.22819" lon="12.2662183"><ele>263.0</ele><time>2026-04-30T12:06:28.986Z</time></trkpt><trkpt lat="42.2280967" lon="12.2664417"><ele>263.0</ele><time>2026-04-30T12:06:29.985Z</time></trkpt><trkpt lat="42.228005" lon="12.2666533"><ele>260.33333333333337</ele><time>2026-04-30T12:06:30.985Z</time></trkpt><trkpt lat="42.2278767" lon="12.2668567"><ele>257.6666666666667</ele><time>2026-04-30T12:06:31.985Z</time></trkpt><trkpt lat="42.22772" lon="12.2670417"><ele>255.0</ele><time>2026-04-30T12:06:32.985Z</time></trkpt><trkpt lat="42.2275583" lon="12.2672083"><ele>255.66666666666669</ele><time>2026-04-30T12:06:33.986Z</time></trkpt><trkpt lat="42.227375" lon="12.2673633"><ele>256.33333333333337</ele><time>2026-04-30T12:06:34.986Z</time></trkpt><trkpt lat="42.2271867" lon="12.2675133"><ele>257.0</ele><time>2026-04-30T12:06:35.985Z</time></trkpt><trkpt lat="42.2270117" lon="12.2676567"><ele>256.6666666666667</ele><time>2026-04-30T12:06:36.985Z</time></trkpt><trkpt lat="42.2268417" lon="12.2678033"><ele>256.3333333333333</ele><time>2026-04-30T12:06:37.985Z</time></trkpt><trkpt lat="42.2266733" lon="12.2679617"><ele>256.0</ele><time>2026-04-30T12:06:38.985Z</time></trkpt><trkpt lat="42.2265" lon="12.2681233"><ele>254.0</ele><time>2026-04-30T12:06:39.985Z</time></trkpt><trkpt lat="42.22632" lon="12.2682767"><ele>252.0</ele><time>2026-04-30T12:06:40.985Z</time></trkpt><trkpt lat="42.22614" lon="12.2684317"><ele>250.0</ele><time>2026-04-30T12:06:41.985Z</time></trkpt><trkpt lat="42.2259633" lon="12.2686033"><ele>250.0</ele><time>2026-04-30T12:06:42.985Z</time></trkpt><trkpt lat="42.2257817" lon="12.2687583"><ele>250.0</ele><time>2026-04-30T12:06:43.985Z</time></trkpt><trkpt lat="42.2255883" lon="12.2689133"><ele>250.0</ele><time>2026-04-30T12:06:44.985Z</time></trkpt><trkpt lat="42.2254067" lon="12.26909"><ele>250.0</ele><time>2026-04-30T12:06:45.985Z</time></trkpt><trkpt lat="42.2252267" lon="12.2692733"><ele>250.0</ele><time>2026-04-30T12:06:46.985Z</time></trkpt><trkpt lat="42.225055" lon="12.2694317"><ele>250.0</ele><time>2026-04-30T12:06:47.985Z</time></trkpt><trkpt lat="42.2248917" lon="12.2695767"><ele>249.66666666666666</ele><time>2026-04-30T12:06:48.985Z</time></trkpt><trkpt lat="42.2247333" lon="12.2697183"><ele>249.33333333333331</ele><time>2026-04-30T12:06:49.985Z</time></trkpt><trkpt lat="42.2245783" lon="12.2698617"><ele>249.0</ele><time>2026-04-30T12:06:50.985Z</time></trkpt><trkpt lat="42.2244217" lon="12.2699967"><ele>249.0</ele><time>2026-04-30T12:06:51.985Z</time></trkpt><trkpt lat="42.22427" lon="12.2701317"><ele>249.0</ele><time>2026-04-30T12:06:52.985Z</time></trkpt><trkpt lat="42.2241217" lon="12.2702683"><ele>249.0</ele><time>2026-04-30T12:06:53.985Z</time></trkpt><trkpt lat="42.2239683" lon="12.2704033"><ele>249.0</ele><time>2026-04-30T12:06:54.985Z</time></trkpt><trkpt lat="42.2238133" lon="12.2705467"><ele>249.0</ele><time>2026-04-30T12:06:55.985Z</time></trkpt><trkpt lat="42.22366" lon="12.2706983"><ele>249.0</ele><time>2026-04-30T12:06:56.985Z</time></trkpt><trkpt lat="42.2235" lon="12.2708417"><ele>249.0</ele><time>2026-04-30T12:06:57.986Z</time></trkpt><trkpt lat="42.2233433" lon="12.2709867"><ele>249.0</ele><time>2026-04-30T12:06:58.986Z</time></trkpt><trkpt lat="42.2231833" lon="12.2711417"><ele>249.0</ele><time>2026-04-30T12:06:59.986Z</time></trkpt><trkpt lat="42.2230183" lon="12.2712917"><ele>248.33333333333331</ele><time>2026-04-30T12:07:00.985Z</time></trkpt><trkpt lat="42.2228483" lon="12.2714417"><ele>247.66666666666666</ele><time>2026-04-30T12:07:01.985Z</time></trkpt><trkpt lat="42.2226833" lon="12.2715867"><ele>247.0</ele><time>2026-04-30T12:07:02.986Z</time></trkpt><trkpt lat="42.22252" lon="12.271725"><ele>247.0</ele><time>2026-04-30T12:07:03.985Z</time></trkpt><trkpt lat="42.2223567" lon="12.27186"><ele>247.0</ele><time>2026-04-30T12:07:04.986Z</time></trkpt><trkpt lat="42.2221917" lon="12.2719967"><ele>247.0</ele><time>2026-04-30T12:07:05.986Z</time></trkpt><trkpt lat="42.2220317" lon="12.27214"><ele>246.66666666666666</ele><time>2026-04-30T12:07:06.985Z</time></trkpt><trkpt lat="42.2218733" lon="12.27228"><ele>246.33333333333331</ele><time>2026-04-30T12:07:07.985Z</time></trkpt><trkpt lat="42.2217083" lon="12.2724267"><ele>246.0</ele><time>2026-04-30T12:07:08.985Z</time></trkpt><trkpt lat="42.221545" lon="12.2725783"><ele>245.66666666666669</ele><time>2026-04-30T12:07:09.986Z</time></trkpt><trkpt lat="42.2213833" lon="12.27272"><ele>245.33333333333334</ele><time>2026-04-30T12:07:10.985Z</time></trkpt><trkpt lat="42.2212267" lon="12.2728567"><ele>245.0</ele><time>2026-04-30T12:07:11.986Z</time></trkpt><trkpt lat="42.22107" lon="12.2729983"><ele>245.0</ele><time>2026-04-30T12:07:12.985Z</time></trkpt><trkpt lat="42.2209083" lon="12.2731467"><ele>245.0</ele><time>2026-04-30T12:07:13.986Z</time></trkpt><trkpt lat="42.220755" lon="12.2732983"><ele>245.0</ele><time>2026-04-30T12:07:14.985Z</time></trkpt><trkpt lat="42.2206" lon="12.2734483"><ele>244.33333333333334</ele><time>2026-04-30T12:07:15.985Z</time></trkpt><trkpt lat="42.2204417" lon="12.2735967"><ele>243.66666666666669</ele><time>2026-04-30T12:07:16.985Z</time></trkpt><trkpt lat="42.2202783" lon="12.2737417"><ele>243.0</ele><time>2026-04-30T12:07:17.985Z</time></trkpt><trkpt lat="42.2201183" lon="12.2738833"><ele>243.66666666666669</ele><time>2026-04-30T12:07:18.985Z</time></trkpt><trkpt lat="42.2199667" lon="12.2740183"><ele>244.33333333333334</ele><time>2026-04-30T12:07:19.986Z</time></trkpt><trkpt lat="42.2198167" lon="12.274145"><ele>245.0</ele><time>2026-04-30T12:07:20.986Z</time></trkpt><trkpt lat="42.21967" lon="12.2742817"><ele>245.0</ele><time>2026-04-30T12:07:21.985Z</time></trkpt><trkpt lat="42.2195233" lon="12.2744217"><ele>245.0</ele><time>2026-04-30T12:07:22.986Z</time></trkpt><trkpt lat="42.2193717" lon="12.2745533"><ele>245.0</ele><time>2026-04-30T12:07:23.986Z</time></trkpt><trkpt lat="42.2192167" lon="12.2746867"><ele>245.0</ele><time>2026-04-30T12:07:24.985Z</time></trkpt><trkpt lat="42.219065" lon="12.2748217"><ele>245.0</ele><time>2026-04-30T12:07:25.985Z</time></trkpt><trkpt lat="42.2189183" lon="12.2749467"><ele>245.0</ele><time>2026-04-30T12:07:26.985Z</time></trkpt><trkpt lat="42.2187833" lon="12.2750783"><ele>245.0</ele><time>2026-04-30T12:07:27.985Z</time></trkpt><trkpt lat="42.2186333" lon="12.27521"><ele>245.0</ele><time>2026-04-30T12:07:28.986Z</time></trkpt><trkpt lat="42.2184833" lon="12.2753417"><ele>245.0</ele><time>2026-04-30T12:07:29.986Z</time></trkpt><trkpt lat="42.2183417" lon="12.2754767"><ele>245.0</ele><time>2026-04-30T12:07:30.985Z</time></trkpt><trkpt lat="42.2181983" lon="12.2756"><ele>245.0</ele><time>2026-04-30T12:07:31.986Z</time></trkpt><trkpt lat="42.2180517" lon="12.27573"><ele>245.0</ele><time>2026-04-30T12:07:32.985Z</time></trkpt><trkpt lat="42.217895" lon="12.2758617"><ele>244.33333333333334</ele><time>2026-04-30T12:07:33.985Z</time></trkpt><trkpt lat="42.217755" lon="12.2759833"><ele>243.66666666666669</ele><time>2026-04-30T12:07:34.985Z</time></trkpt><trkpt lat="42.21761" lon="12.2761133"><ele>243.0</ele><time>2026-04-30T12:07:35.985Z</time></trkpt><trkpt lat="42.2174717" lon="12.2762333"><ele>243.0</ele><time>2026-04-30T12:07:36.985Z</time></trkpt><trkpt lat="42.2173433" lon="12.2763567"><ele>243.0</ele><time>2026-04-30T12:07:37.986Z</time></trkpt><trkpt lat="42.21722" lon="12.2764817"><ele>243.0</ele><time>2026-04-30T12:07:38.985Z</time></trkpt><trkpt lat="42.2171017" lon="12.2766033"><ele>242.66666666666669</ele><time>2026-04-30T12:07:39.985Z</time></trkpt><trkpt lat="42.2169783" lon="12.276715"><ele>242.33333333333334</ele><time>2026-04-30T12:07:40.985Z</time></trkpt><trkpt lat="42.2168567" lon="12.276835"><ele>242.0</ele><time>2026-04-30T12:07:41.986Z</time></trkpt><trkpt lat="42.2167283" lon="12.2769617"><ele>242.0</ele><time>2026-04-30T12:07:42.986Z</time></trkpt><trkpt lat="42.2166033" lon="12.277085"><ele>242.0</ele><time>2026-04-30T12:07:43.985Z</time></trkpt><trkpt lat="42.216475" lon="12.2772167"><ele>242.0</ele><time>2026-04-30T12:07:44.986Z</time></trkpt><trkpt lat="42.216345" lon="12.2773533"><ele>242.0</ele><time>2026-04-30T12:07:45.985Z</time></trkpt><trkpt lat="42.21622" lon="12.27749"><ele>242.0</ele><time>2026-04-30T12:07:46.985Z</time></trkpt><trkpt lat="42.216095" lon="12.2776367"><ele>242.0</ele><time>2026-04-30T12:07:47.985Z</time></trkpt><trkpt lat="42.2159717" lon="12.277785"><ele>242.0</ele><time>2026-04-30T12:07:48.985Z</time></trkpt><trkpt lat="42.2158533" lon="12.2779467"><ele>242.0</ele><time>2026-04-30T12:07:49.985Z</time></trkpt><trkpt lat="42.215735" lon="12.2781183"><ele>242.0</ele><time>2026-04-30T12:07:50.985Z</time></trkpt><trkpt lat="42.21563" lon="12.278295"><ele>242.0</ele><time>2026-04-30T12:07:51.986Z</time></trkpt><trkpt lat="42.2155233" lon="12.2784767"><ele>242.0</ele><time>2026-04-30T12:07:52.985Z</time></trkpt><trkpt lat="42.2154183" lon="12.27866"><ele>242.0</ele><time>2026-04-30T12:07:53.986Z</time></trkpt><trkpt lat="42.2153267" lon="12.2788567"><ele>242.0</ele><time>2026-04-30T12:07:54.985Z</time></trkpt><trkpt lat="42.2152417" lon="12.279065"><ele>242.0</ele><time>2026-04-30T12:07:55.986Z</time></trkpt><trkpt lat="42.21517" lon="12.27928"><ele>242.0</ele><time>2026-04-30T12:07:56.986Z</time></trkpt><trkpt lat="42.2150967" lon="12.2795"><ele>242.0</ele><time>2026-04-30T12:07:57.986Z</time></trkpt><trkpt lat="42.215025" lon="12.2797183"><ele>242.0</ele><time>2026-04-30T12:07:58.985Z</time></trkpt><trkpt lat="42.2149667" lon="12.2799533"><ele>242.0</ele><time>2026-04-30T12:07:59.985Z</time></trkpt><trkpt lat="42.2149117" lon="12.2801917"><ele>242.0</ele><time>2026-04-30T12:08:00.985Z</time></trkpt><trkpt lat="42.21486" lon="12.2804483"><ele>242.0</ele><time>2026-04-30T12:08:01.985Z</time></trkpt><trkpt lat="42.2148233" lon="12.2807083"><ele>242.0</ele><time>2026-04-30T12:08:02.985Z</time></trkpt><trkpt lat="42.214795" lon="12.2809833"><ele>242.0</ele><time>2026-04-30T12:08:03.985Z</time></trkpt><trkpt lat="42.2147733" lon="12.2812617"><ele>242.0</ele><time>2026-04-30T12:08:04.985Z</time></trkpt><trkpt lat="42.21476" lon="12.2815367"><ele>242.0</ele><time>2026-04-30T12:08:05.985Z</time></trkpt><trkpt lat="42.2147617" lon="12.2818183"><ele>242.0</ele><time>2026-04-30T12:08:06.985Z</time></trkpt><trkpt lat="42.2147633" lon="12.2821283"><ele>242.0</ele><time>2026-04-30T12:08:07.985Z</time></trkpt><trkpt lat="42.21479" lon="12.2824483"><ele>242.33333333333334</ele><time>2026-04-30T12:08:08.985Z</time></trkpt><trkpt lat="42.21481" lon="12.28275"><ele>242.66666666666669</ele><time>2026-04-30T12:08:09.986Z</time></trkpt><trkpt lat="42.2148317" lon="12.28303"><ele>243.0</ele><time>2026-04-30T12:08:10.986Z</time></trkpt><trkpt lat="42.2148533" lon="12.2832933"><ele>242.66666666666669</ele><time>2026-04-30T12:08:11.986Z</time></trkpt><trkpt lat="42.2148767" lon="12.2835733"><ele>242.33333333333334</ele><time>2026-04-30T12:08:12.986Z</time></trkpt><trkpt lat="42.2149017" lon="12.2838433"><ele>242.0</ele><time>2026-04-30T12:08:13.986Z</time></trkpt><trkpt lat="42.214915" lon="12.28413"><ele>242.0</ele><time>2026-04-30T12:08:14.986Z</time></trkpt><trkpt lat="42.2149283" lon="12.2844067"><ele>242.0</ele><time>2026-04-30T12:08:15.985Z</time></trkpt><trkpt lat="42.21495" lon="12.2846733"><ele>242.0</ele><time>2026-04-30T12:08:16.986Z</time></trkpt><trkpt lat="42.2149617" lon="12.284945"><ele>242.0</ele><time>2026-04-30T12:08:17.985Z</time></trkpt><trkpt lat="42.214975" lon="12.2852233"><ele>242.0</ele><time>2026-04-30T12:08:18.986Z</time></trkpt><trkpt lat="42.2149983" lon="12.2855"><ele>242.0</ele><time>2026-04-30T12:08:19.985Z</time></trkpt><trkpt lat="42.21502" lon="12.2857683"><ele>242.0</ele><time>2026-04-30T12:08:20.985Z</time></trkpt><trkpt lat="42.2150383" lon="12.28605"><ele>242.0</ele><time>2026-04-30T12:08:21.985Z</time></trkpt><trkpt lat="42.2150567" lon="12.286325"><ele>242.0</ele><time>2026-04-30T12:08:22.986Z</time></trkpt><trkpt lat="42.215075" lon="12.2866"><ele>242.33333333333334</ele><time>2026-04-30T12:08:23.985Z</time></trkpt><trkpt lat="42.2150883" lon="12.28687"><ele>242.66666666666669</ele><time>2026-04-30T12:08:24.985Z</time></trkpt><trkpt lat="42.2151067" lon="12.2871333"><ele>243.0</ele><time>2026-04-30T12:08:25.985Z</time></trkpt><trkpt lat="42.2151217" lon="12.2874"><ele>243.0</ele><time>2026-04-30T12:08:26.985Z</time></trkpt><trkpt lat="42.21514" lon="12.2876617"><ele>243.0</ele><time>2026-04-30T12:08:27.986Z</time></trkpt><trkpt lat="42.2151483" lon="12.2879383"><ele>243.0</ele><time>2026-04-30T12:08:28.985Z</time></trkpt><trkpt lat="42.215165" lon="12.288205"><ele>243.0</ele><time>2026-04-30T12:08:29.986Z</time></trkpt><trkpt lat="42.2151767" lon="12.28846"><ele>243.0</ele><time>2026-04-30T12:08:30.985Z</time></trkpt><trkpt lat="42.2152" lon="12.2887033"><ele>243.0</ele><time>2026-04-30T12:08:31.985Z</time></trkpt><trkpt lat="42.215225" lon="12.2889483"><ele>243.66666666666669</ele><time>2026-04-30T12:08:32.985Z</time></trkpt><trkpt lat="42.215245" lon="12.2891983"><ele>244.33333333333334</ele><time>2026-04-30T12:08:33.986Z</time></trkpt><trkpt lat="42.21526" lon="12.289435"><ele>245.0</ele><time>2026-04-30T12:08:34.985Z</time></trkpt><trkpt lat="42.21528" lon="12.2896783"><ele>246.33333333333334</ele><time>2026-04-30T12:08:35.986Z</time></trkpt><trkpt lat="42.2152933" lon="12.289925"><ele>247.66666666666669</ele><time>2026-04-30T12:08:36.985Z</time></trkpt><trkpt lat="42.2153033" lon="12.2901767"><ele>249.0</ele><time>2026-04-30T12:08:37.985Z</time></trkpt><trkpt lat="42.2153017" lon="12.290435"><ele>248.66666666666669</ele><time>2026-04-30T12:08:38.985Z</time></trkpt><trkpt lat="42.21529" lon="12.2906933"><ele>248.33333333333334</ele><time>2026-04-30T12:08:39.985Z</time></trkpt><trkpt lat="42.215275" lon="12.2909417"><ele>248.0</ele><time>2026-04-30T12:08:40.986Z</time></trkpt><trkpt lat="42.2152383" lon="12.291175"><ele>248.0</ele><time>2026-04-30T12:08:41.986Z</time></trkpt><trkpt lat="42.2152017" lon="12.291395"><ele>248.0</ele><time>2026-04-30T12:08:42.986Z</time></trkpt><trkpt lat="42.2151417" lon="12.2916"><ele>248.0</ele><time>2026-04-30T12:08:43.986Z</time></trkpt><trkpt lat="42.2150717" lon="12.2918017"><ele>247.66666666666669</ele><time>2026-04-30T12:08:44.985Z</time></trkpt><trkpt lat="42.2149833" lon="12.292005"><ele>247.33333333333331</ele><time>2026-04-30T12:08:45.985Z</time></trkpt><trkpt lat="42.214875" lon="12.2922"><ele>247.0</ele><time>2026-04-30T12:08:46.985Z</time></trkpt><trkpt lat="42.214745" lon="12.2924017"><ele>247.0</ele><time>2026-04-30T12:08:47.986Z</time></trkpt><trkpt lat="42.214605" lon="12.2925833"><ele>247.0</ele><time>2026-04-30T12:08:48.986Z</time></trkpt><trkpt lat="42.21447" lon="12.292755"><ele>247.0</ele><time>2026-04-30T12:08:49.986Z</time></trkpt><trkpt lat="42.214315" lon="12.2929367"><ele>246.0</ele><time>2026-04-30T12:08:50.986Z</time></trkpt><trkpt lat="42.214155" lon="12.2931117"><ele>245.0</ele><time>2026-04-30T12:08:51.985Z</time></trkpt><trkpt lat="42.2139967" lon="12.2932817"><ele>244.0</ele><time>2026-04-30T12:08:52.986Z</time></trkpt><trkpt lat="42.213845" lon="12.2934567"><ele>243.0</ele><time>2026-04-30T12:08:53.985Z</time></trkpt><trkpt lat="42.2136817" lon="12.29362"><ele>242.0</ele><time>2026-04-30T12:08:54.986Z</time></trkpt><trkpt lat="42.2135367" lon="12.293805"><ele>241.0</ele><time>2026-04-30T12:08:55.985Z</time></trkpt><trkpt lat="42.21338" lon="12.2939683"><ele>239.66666666666666</ele><time>2026-04-30T12:08:56.986Z</time></trkpt><trkpt lat="42.2132317" lon="12.2941367"><ele>238.33333333333331</ele><time>2026-04-30T12:08:57.985Z</time></trkpt><trkpt lat="42.2130733" lon="12.2943117"><ele>237.0</ele><time>2026-04-30T12:08:58.985Z</time></trkpt><trkpt lat="42.2129217" lon="12.2944933"><ele>237.0</ele><time>2026-04-30T12:08:59.985Z</time></trkpt><trkpt lat="42.2127633" lon="12.294675"><ele>237.0</ele><time>2026-04-30T12:09:00.985Z</time></trkpt><trkpt lat="42.2126017" lon="12.294865"><ele>237.0</ele><time>2026-04-30T12:09:01.985Z</time></trkpt><trkpt lat="42.2124267" lon="12.2950783"><ele>238.0</ele><time>2026-04-30T12:09:02.985Z</time></trkpt><trkpt lat="42.212245" lon="12.29529"><ele>239.0</ele><time>2026-04-30T12:09:03.985Z</time></trkpt><trkpt lat="42.2120717" lon="12.295495"><ele>239.0</ele><time>2026-04-30T12:09:04.985Z</time></trkpt><trkpt lat="42.2119017" lon="12.295715"><ele>239.0</ele><time>2026-04-30T12:09:05.986Z</time></trkpt><trkpt lat="42.21175" lon="12.2959433"><ele>239.0</ele><time>2026-04-30T12:09:06.985Z</time></trkpt><trkpt lat="42.2116117" lon="12.2961717"><ele>239.0</ele><time>2026-04-30T12:09:07.985Z</time></trkpt><trkpt lat="42.2114883" lon="12.2964183"><ele>239.0</ele><time>2026-04-30T12:09:08.986Z</time></trkpt><trkpt lat="42.2113683" lon="12.296665"><ele>240.66666666666669</ele><time>2026-04-30T12:09:09.986Z</time></trkpt><trkpt lat="42.2112583" lon="12.2969233"><ele>242.33333333333331</ele><time>2026-04-30T12:09:10.986Z</time></trkpt><trkpt lat="42.211155" lon="12.2971917"><ele>244.0</ele><time>2026-04-30T12:09:11.985Z</time></trkpt><trkpt lat="42.2110583" lon="12.297475"><ele>244.0</ele><time>2026-04-30T12:09:12.985Z</time></trkpt><trkpt lat="42.21091" lon="12.2980383"><ele>244.0</ele><time>2026-04-30T12:09:14.986Z</time></trkpt><trkpt lat="42.210845" lon="12.29832"><ele>243.0</ele><time>2026-04-30T12:09:15.985Z</time></trkpt><trkpt lat="42.2107833" lon="12.298585"><ele>242.0</ele><time>2026-04-30T12:09:16.986Z</time></trkpt><trkpt lat="42.2107217" lon="12.2988433"><ele>241.0</ele><time>2026-04-30T12:09:17.985Z</time></trkpt><trkpt lat="42.2106583" lon="12.299105"><ele>242.33333333333331</ele><time>2026-04-30T12:09:18.985Z</time></trkpt><trkpt lat="42.2106067" lon="12.2993633"><ele>243.66666666666669</ele><time>2026-04-30T12:09:19.985Z</time></trkpt><trkpt lat="42.210545" lon="12.2996217"><ele>245.0</ele><time>2026-04-30T12:09:20.985Z</time></trkpt><trkpt lat="42.2104733" lon="12.2998733"><ele>246.0</ele><time>2026-04-30T12:09:21.986Z</time></trkpt><trkpt lat="42.2104033" lon="12.3001267"><ele>247.0</ele><time>2026-04-30T12:09:22.985Z</time></trkpt><trkpt lat="42.210315" lon="12.3003733"><ele>248.0</ele><time>2026-04-30T12:09:23.986Z</time></trkpt><trkpt lat="42.2102283" lon="12.3006133"><ele>248.0</ele><time>2026-04-30T12:09:24.985Z</time></trkpt><trkpt lat="42.2101253" lon="12.300846"><ele>248.0</ele><time>2026-04-30T12:09:25.985Z</time></trkpt><trkpt lat="42.2100131" lon="12.3010681"><ele>248.0</ele><time>2026-04-30T12:09:26.986Z</time></trkpt><trkpt lat="42.2099002" lon="12.3012877"><ele>246.33333333333334</ele><time>2026-04-30T12:09:27.985Z</time></trkpt><trkpt lat="42.2097849" lon="12.3014962"><ele>244.66666666666669</ele><time>2026-04-30T12:09:28.985Z</time></trkpt><trkpt lat="42.2096643" lon="12.3017013"><ele>243.0</ele><time>2026-04-30T12:09:29.986Z</time></trkpt><trkpt lat="42.2095526" lon="12.3019053"><ele>243.0</ele><time>2026-04-30T12:09:30.985Z</time></trkpt><trkpt lat="42.2094385" lon="12.3021086"><ele>243.0</ele><time>2026-04-30T12:09:31.985Z</time></trkpt><trkpt lat="42.2093239" lon="12.3023131"><ele>243.0</ele><time>2026-04-30T12:09:32.985Z</time></trkpt><trkpt lat="42.209212" lon="12.3025183"><ele>243.66666666666669</ele><time>2026-04-30T12:09:33.985Z</time></trkpt><trkpt lat="42.2091009" lon="12.3027276"><ele>244.33333333333334</ele><time>2026-04-30T12:09:34.985Z</time></trkpt><trkpt lat="42.208989" lon="12.3029251"><ele>245.0</ele><time>2026-04-30T12:09:35.986Z</time></trkpt><trkpt lat="42.2088809" lon="12.3031298"><ele>243.33333333333334</ele><time>2026-04-30T12:09:36.986Z</time></trkpt><trkpt lat="42.208769" lon="12.3033327"><ele>241.66666666666669</ele><time>2026-04-30T12:09:37.985Z</time></trkpt><trkpt lat="42.2086548" lon="12.3035373"><ele>240.0</ele><time>2026-04-30T12:09:38.986Z</time></trkpt><trkpt lat="42.2085373" lon="12.3037407"><ele>242.33333333333331</ele><time>2026-04-30T12:09:39.985Z</time></trkpt><trkpt lat="42.2084263" lon="12.3039377"><ele>244.66666666666666</ele><time>2026-04-30T12:09:40.986Z</time></trkpt><trkpt lat="42.2083231" lon="12.3041239"><ele>247.0</ele><time>2026-04-30T12:09:41.985Z</time></trkpt><trkpt lat="42.208222" lon="12.3043076"><ele>246.66666666666666</ele><time>2026-04-30T12:09:42.985Z</time></trkpt><trkpt lat="42.2081271" lon="12.3044865"><ele>246.33333333333331</ele><time>2026-04-30T12:09:43.985Z</time></trkpt><trkpt lat="42.208027" lon="12.3046586"><ele>246.0</ele><time>2026-04-30T12:09:44.986Z</time></trkpt><trkpt lat="42.207929" lon="12.3048253"><ele>246.0</ele><time>2026-04-30T12:09:45.985Z</time></trkpt><trkpt lat="42.207844" lon="12.3049844"><ele>246.0</ele><time>2026-04-30T12:09:46.985Z</time></trkpt><trkpt lat="42.2077615" lon="12.305137"><ele>246.0</ele><time>2026-04-30T12:09:47.985Z</time></trkpt><trkpt lat="42.2076832" lon="12.3052851"><ele>246.0</ele><time>2026-04-30T12:09:48.986Z</time></trkpt><trkpt lat="42.2076066" lon="12.3054262"><ele>246.0</ele><time>2026-04-30T12:09:49.985Z</time></trkpt><trkpt lat="42.2075298" lon="12.3055543"><ele>246.00000000000003</ele><time>2026-04-30T12:09:50.985Z</time></trkpt><trkpt lat="42.2074551" lon="12.3056691"><ele>246.00000000000003</ele><time>2026-04-30T12:09:51.985Z</time></trkpt><trkpt lat="42.207382" lon="12.3057704"><ele>246.0</ele><time>2026-04-30T12:09:52.986Z</time></trkpt><trkpt lat="42.2073155" lon="12.3058671"><ele>246.0</ele><time>2026-04-30T12:09:53.985Z</time></trkpt><trkpt lat="42.2072521" lon="12.3059703"><ele>246.0</ele><time>2026-04-30T12:09:54.985Z</time></trkpt><trkpt lat="42.2071905" lon="12.3060935"><ele>246.00000000000003</ele><time>2026-04-30T12:09:55.985Z</time></trkpt><trkpt lat="42.2071372" lon="12.3062173"><ele>246.00000000000003</ele><time>2026-04-30T12:09:56.986Z</time></trkpt><trkpt lat="42.2070737" lon="12.3063332"><ele>246.0</ele><time>2026-04-30T12:09:57.985Z</time></trkpt><trkpt lat="42.2069889" lon="12.3064379"><ele>246.0</ele><time>2026-04-30T12:09:58.986Z</time></trkpt><trkpt lat="42.2068955" lon="12.3065362"><ele>246.0</ele><time>2026-04-30T12:09:59.985Z</time></trkpt><trkpt lat="42.2067904" lon="12.3066388"><ele>246.0</ele><time>2026-04-30T12:10:00.985Z</time></trkpt><trkpt lat="42.2066713" lon="12.3067418"><ele>246.0</ele><time>2026-04-30T12:10:01.985Z</time></trkpt><trkpt lat="42.2065467" lon="12.3068498"><ele>246.0</ele><time>2026-04-30T12:10:02.985Z</time></trkpt><trkpt lat="42.2064202" lon="12.3069604"><ele>245.0</ele><time>2026-04-30T12:10:03.986Z</time></trkpt><trkpt lat="42.2062879" lon="12.307077"><ele>244.0</ele><time>2026-04-30T12:10:04.985Z</time></trkpt><trkpt lat="42.206141" lon="12.307193"><ele>243.0</ele><time>2026-04-30T12:10:05.985Z</time></trkpt><trkpt lat="42.2059836" lon="12.3073033"><ele>242.0</ele><time>2026-04-30T12:10:06.985Z</time></trkpt><trkpt lat="42.2058221" lon="12.3074112"><ele>241.0</ele><time>2026-04-30T12:10:07.986Z</time></trkpt><trkpt lat="42.20566" lon="12.3075178"><ele>240.0</ele><time>2026-04-30T12:10:08.985Z</time></trkpt><trkpt lat="42.2054905" lon="12.3076233"><ele>239.66666666666669</ele><time>2026-04-30T12:10:09.985Z</time></trkpt><trkpt lat="42.2053145" lon="12.3077316"><ele>239.33333333333334</ele><time>2026-04-30T12:10:10.985Z</time></trkpt><trkpt lat="42.2051349" lon="12.3078374"><ele>239.0</ele><time>2026-04-30T12:10:11.985Z</time></trkpt><trkpt lat="42.2049488" lon="12.3079444"><ele>238.66666666666669</ele><time>2026-04-30T12:10:12.985Z</time></trkpt><trkpt lat="42.2047621" lon="12.3080554"><ele>238.33333333333331</ele><time>2026-04-30T12:10:13.984Z</time></trkpt><trkpt lat="42.2045756" lon="12.3081685"><ele>238.0</ele><time>2026-04-30T12:10:14.984Z</time></trkpt><trkpt lat="42.2043774" lon="12.308279"><ele>237.33333333333331</ele><time>2026-04-30T12:10:15.984Z</time></trkpt><trkpt lat="42.2041719" lon="12.3083897"><ele>236.66666666666669</ele><time>2026-04-30T12:10:16.984Z</time></trkpt><trkpt lat="42.2039614" lon="12.3085027"><ele>236.0</ele><time>2026-04-30T12:10:17.984Z</time></trkpt><trkpt lat="42.2037634" lon="12.3086143"><ele>237.66666666666669</ele><time>2026-04-30T12:10:18.984Z</time></trkpt><trkpt lat="42.2035791" lon="12.308725"><ele>239.33333333333331</ele><time>2026-04-30T12:10:19.984Z</time></trkpt><trkpt lat="42.2034004" lon="12.308835"><ele>241.0</ele><time>2026-04-30T12:10:20.985Z</time></trkpt><trkpt lat="42.2032246" lon="12.3089396"><ele>240.66666666666666</ele><time>2026-04-30T12:10:21.984Z</time></trkpt><trkpt lat="42.2030536" lon="12.3090475"><ele>240.33333333333331</ele><time>2026-04-30T12:10:22.984Z</time></trkpt><trkpt lat="42.2028788" lon="12.3091523"><ele>240.0</ele><time>2026-04-30T12:10:23.984Z</time></trkpt><trkpt lat="42.2027067" lon="12.3092642"><ele>240.0</ele><time>2026-04-30T12:10:24.985Z</time></trkpt><trkpt lat="42.2025417" lon="12.3093792"><ele>240.0</ele><time>2026-04-30T12:10:25.984Z</time></trkpt><trkpt lat="42.2023703" lon="12.3095011"><ele>240.0</ele><time>2026-04-30T12:10:26.984Z</time></trkpt><trkpt lat="42.2022057" lon="12.3096209"><ele>241.0</ele><time>2026-04-30T12:10:27.984Z</time></trkpt><trkpt lat="42.202046" lon="12.3097463"><ele>242.0</ele><time>2026-04-30T12:10:28.984Z</time></trkpt><trkpt lat="42.201888" lon="12.3098771"><ele>243.0</ele><time>2026-04-30T12:10:29.984Z</time></trkpt><trkpt lat="42.2017257" lon="12.310018"><ele>243.0</ele><time>2026-04-30T12:10:30.985Z</time></trkpt><trkpt lat="42.2015609" lon="12.3101604"><ele>243.0</ele><time>2026-04-30T12:10:31.984Z</time></trkpt><trkpt lat="42.2013981" lon="12.3102996"><ele>243.0</ele><time>2026-04-30T12:10:32.985Z</time></trkpt><trkpt lat="42.2012344" lon="12.3104518"><ele>244.33333333333331</ele><time>2026-04-30T12:10:33.984Z</time></trkpt><trkpt lat="42.2010661" lon="12.3106179"><ele>245.66666666666666</ele><time>2026-04-30T12:10:34.984Z</time></trkpt><trkpt lat="42.2008934" lon="12.3107925"><ele>247.0</ele><time>2026-04-30T12:10:35.985Z</time></trkpt><trkpt lat="42.2007153" lon="12.3109702"><ele>248.33333333333331</ele><time>2026-04-30T12:10:36.985Z</time></trkpt><trkpt lat="42.200537" lon="12.3111448"><ele>249.66666666666669</ele><time>2026-04-30T12:10:37.984Z</time></trkpt><trkpt lat="42.2003545" lon="12.3113198"><ele>251.0</ele><time>2026-04-30T12:10:38.984Z</time></trkpt><trkpt lat="42.2001641" lon="12.3114955"><ele>252.0</ele><time>2026-04-30T12:10:39.985Z</time></trkpt><trkpt lat="42.1999626" lon="12.3116641"><ele>253.0</ele><time>2026-04-30T12:10:40.984Z</time></trkpt><trkpt lat="42.1997559" lon="12.3118292"><ele>254.5</ele><time>2026-04-30T12:10:41.984Z</time></trkpt><trkpt lat="42.1995469" lon="12.3119883"><ele>256.0</ele><time>2026-04-30T12:10:42.984Z</time></trkpt><trkpt lat="42.1993274" lon="12.3121339"><ele>255.5</ele><time>2026-04-30T12:10:43.984Z</time></trkpt><trkpt lat="42.1991041" lon="12.3122588"><ele>255.0</ele><time>2026-04-30T12:10:44.985Z</time></trkpt><trkpt lat="42.1988708" lon="12.3123758"><ele>255.0</ele><time>2026-04-30T12:10:45.984Z</time></trkpt><trkpt lat="42.1986332" lon="12.3124845"><ele>255.0</ele><time>2026-04-30T12:10:46.984Z</time></trkpt><trkpt lat="42.1983936" lon="12.3125728"><ele>255.5</ele><time>2026-04-30T12:10:47.984Z</time></trkpt><trkpt lat="42.1981496" lon="12.3126521"><ele>256.0</ele><time>2026-04-30T12:10:48.984Z</time></trkpt><trkpt lat="42.1979019" lon="12.3127193"><ele>256.0</ele><time>2026-04-30T12:10:49.984Z</time></trkpt><trkpt lat="42.1976591" lon="12.3127808"><ele>256.0</ele><time>2026-04-30T12:10:50.984Z</time></trkpt><trkpt lat="42.1974148" lon="12.3128416"><ele>257.0</ele><time>2026-04-30T12:10:51.985Z</time></trkpt><trkpt lat="42.1971604" lon="12.3129037"><ele>258.0</ele><time>2026-04-30T12:10:52.985Z</time></trkpt><trkpt lat="42.1969115" lon="12.312968"><ele>258.0</ele><time>2026-04-30T12:10:53.984Z</time></trkpt><trkpt lat="42.1966584" lon="12.313027"><ele>258.0</ele><time>2026-04-30T12:10:54.984Z</time></trkpt><trkpt lat="42.1964055" lon="12.3130833"><ele>257.0</ele><time>2026-04-30T12:10:55.985Z</time></trkpt><trkpt lat="42.1961566" lon="12.3131324"><ele>256.0</ele><time>2026-04-30T12:10:56.984Z</time></trkpt><trkpt lat="42.1959067" lon="12.3131764"><ele>258.0</ele><time>2026-04-30T12:10:57.985Z</time></trkpt><trkpt lat="42.1956582" lon="12.3132256"><ele>260.0</ele><time>2026-04-30T12:10:58.984Z</time></trkpt><trkpt lat="42.1954078" lon="12.3132828"><ele>260.0</ele><time>2026-04-30T12:10:59.984Z</time></trkpt><trkpt lat="42.1951544" lon="12.3133421"><ele>260.0</ele><time>2026-04-30T12:11:00.984Z</time></trkpt><trkpt lat="42.1949026" lon="12.3134001"><ele>260.0</ele><time>2026-04-30T12:11:01.985Z</time></trkpt><trkpt lat="42.1946514" lon="12.3134639"><ele>260.0</ele><time>2026-04-30T12:11:02.985Z</time></trkpt><trkpt lat="42.1944012" lon="12.3135285"><ele>260.0</ele><time>2026-04-30T12:11:03.985Z</time></trkpt><trkpt lat="42.1941471" lon="12.3135988"><ele>260.0</ele><time>2026-04-30T12:11:04.985Z</time></trkpt><trkpt lat="42.1938868" lon="12.3136782"><ele>260.0</ele><time>2026-04-30T12:11:05.985Z</time></trkpt><trkpt lat="42.1936263" lon="12.3137815"><ele>260.0</ele><time>2026-04-30T12:11:06.985Z</time></trkpt><trkpt lat="42.1933706" lon="12.313895"><ele>259.0</ele><time>2026-04-30T12:11:07.984Z</time></trkpt><trkpt lat="42.1931253" lon="12.3140172"><ele>258.0</ele><time>2026-04-30T12:11:08.984Z</time></trkpt><trkpt lat="42.1928908" lon="12.3141541"><ele>258.0</ele><time>2026-04-30T12:11:09.984Z</time></trkpt><trkpt lat="42.1926663" lon="12.3143036"><ele>258.0</ele><time>2026-04-30T12:11:10.984Z</time></trkpt><trkpt lat="42.1924568" lon="12.3144649"><ele>258.0</ele><time>2026-04-30T12:11:11.985Z</time></trkpt><trkpt lat="42.1922513" lon="12.3146381"><ele>258.0</ele><time>2026-04-30T12:11:12.984Z</time></trkpt><trkpt lat="42.1920448" lon="12.314837"><ele>257.0</ele><time>2026-04-30T12:11:13.985Z</time></trkpt><trkpt lat="42.1918456" lon="12.3150587"><ele>256.0</ele><time>2026-04-30T12:11:14.984Z</time></trkpt><trkpt lat="42.1916522" lon="12.3152973"><ele>255.5</ele><time>2026-04-30T12:11:15.984Z</time></trkpt><trkpt lat="42.1914612" lon="12.3155432"><ele>255.0</ele><time>2026-04-30T12:11:16.984Z</time></trkpt><trkpt lat="42.1912732" lon="12.3158004"><ele>253.0</ele><time>2026-04-30T12:11:17.984Z</time></trkpt><trkpt lat="42.1910876" lon="12.3160644"><ele>251.0</ele><time>2026-04-30T12:11:18.984Z</time></trkpt><trkpt lat="42.1908946" lon="12.3163372"><ele>250.0</ele><time>2026-04-30T12:11:19.984Z</time></trkpt><trkpt lat="42.1907068" lon="12.3166137"><ele>249.0</ele><time>2026-04-30T12:11:20.985Z</time></trkpt><trkpt lat="42.1905158" lon="12.3168928"><ele>247.5</ele><time>2026-04-30T12:11:21.984Z</time></trkpt><trkpt lat="42.1903211" lon="12.3171729"><ele>246.0</ele><time>2026-04-30T12:11:22.985Z</time></trkpt><trkpt lat="42.1901249" lon="12.3174529"><ele>245.5</ele><time>2026-04-30T12:11:23.984Z</time></trkpt><trkpt lat="42.189927" lon="12.3177321"><ele>245.0</ele><time>2026-04-30T12:11:24.984Z</time></trkpt><trkpt lat="42.1897343" lon="12.3180122"><ele>244.0</ele><time>2026-04-30T12:11:25.984Z</time></trkpt><trkpt lat="42.1895385" lon="12.3182958"><ele>243.0</ele><time>2026-04-30T12:11:26.984Z</time></trkpt><trkpt lat="42.1893353" lon="12.3185687"><ele>243.0</ele><time>2026-04-30T12:11:27.984Z</time></trkpt><trkpt lat="42.1891214" lon="12.3188301"><ele>243.0</ele><time>2026-04-30T12:11:28.984Z</time></trkpt><trkpt lat="42.1888922" lon="12.3190759"><ele>241.5</ele><time>2026-04-30T12:11:29.984Z</time></trkpt><trkpt lat="42.1886552" lon="12.3193084"><ele>240.0</ele><time>2026-04-30T12:11:30.984Z</time></trkpt><trkpt lat="42.1884108" lon="12.3195184"><ele>240.0</ele><time>2026-04-30T12:11:31.985Z</time></trkpt><trkpt lat="42.188156" lon="12.3197073"><ele>240.0</ele><time>2026-04-30T12:11:32.984Z</time></trkpt><trkpt lat="42.187893" lon="12.3198678"><ele>240.0</ele><time>2026-04-30T12:11:33.984Z</time></trkpt><trkpt lat="42.1876224" lon="12.3199994"><ele>240.0</ele><time>2026-04-30T12:11:34.985Z</time></trkpt><trkpt lat="42.1873502" lon="12.3201155"><ele>240.0</ele><time>2026-04-30T12:11:35.985Z</time></trkpt><trkpt lat="42.1870725" lon="12.3202254"><ele>240.0</ele><time>2026-04-30T12:11:36.985Z</time></trkpt><trkpt lat="42.1867959" lon="12.3203292"><ele>240.0</ele><time>2026-04-30T12:11:37.984Z</time></trkpt><trkpt lat="42.1865195" lon="12.3204299"><ele>240.0</ele><time>2026-04-30T12:11:38.984Z</time></trkpt><trkpt lat="42.1862428" lon="12.3205169"><ele>240.5</ele><time>2026-04-30T12:11:39.984Z</time></trkpt><trkpt lat="42.1859695" lon="12.3206054"><ele>241.0</ele><time>2026-04-30T12:11:40.985Z</time></trkpt><trkpt lat="42.1857031" lon="12.3206926"><ele>241.5</ele><time>2026-04-30T12:11:41.984Z</time></trkpt><trkpt lat="42.1854291" lon="12.3207827"><ele>242.0</ele><time>2026-04-30T12:11:42.984Z</time></trkpt><trkpt lat="42.1851354" lon="12.3208669"><ele>242.0</ele><time>2026-04-30T12:11:43.985Z</time></trkpt><trkpt lat="42.1848232" lon="12.3209527"><ele>242.0</ele><time>2026-04-30T12:11:44.984Z</time></trkpt><trkpt lat="42.1845029" lon="12.3210604"><ele>242.0</ele><time>2026-04-30T12:11:45.984Z</time></trkpt><trkpt lat="42.184179" lon="12.3211853"><ele>242.0</ele><time>2026-04-30T12:11:46.984Z</time></trkpt><trkpt lat="42.1838487" lon="12.3213151"><ele>244.5</ele><time>2026-04-30T12:11:47.984Z</time></trkpt><trkpt lat="42.183517" lon="12.3214399"><ele>247.0</ele><time>2026-04-30T12:11:48.984Z</time></trkpt><trkpt lat="42.1831902" lon="12.3215646"><ele>248.5</ele><time>2026-04-30T12:11:49.984Z</time></trkpt><trkpt lat="42.1828781" lon="12.3216715"><ele>250.0</ele><time>2026-04-30T12:11:50.984Z</time></trkpt><trkpt lat="42.1825771" lon="12.3217851"><ele>253.0</ele><time>2026-04-30T12:11:51.984Z</time></trkpt><trkpt lat="42.182284" lon="12.3218956"><ele>256.0</ele><time>2026-04-30T12:11:52.985Z</time></trkpt><trkpt lat="42.1819928" lon="12.3220015"><ele>256.0</ele><time>2026-04-30T12:11:53.985Z</time></trkpt><trkpt lat="42.1817045" lon="12.3221062"><ele>256.0</ele><time>2026-04-30T12:11:54.984Z</time></trkpt><trkpt lat="42.1814262" lon="12.3222157"><ele>259.0</ele><time>2026-04-30T12:11:55.984Z</time></trkpt><trkpt lat="42.1811492" lon="12.3223206"><ele>262.0</ele><time>2026-04-30T12:11:56.984Z</time></trkpt><trkpt lat="42.1808761" lon="12.3224237"><ele>263.0</ele><time>2026-04-30T12:11:57.984Z</time></trkpt><trkpt lat="42.180606" lon="12.3225259"><ele>264.0</ele><time>2026-04-30T12:11:58.984Z</time></trkpt><trkpt lat="42.1803472" lon="12.3226283"><ele>264.0</ele><time>2026-04-30T12:11:59.985Z</time></trkpt><trkpt lat="42.1800895" lon="12.32273"><ele>264.0</ele><time>2026-04-30T12:12:00.985Z</time></trkpt><trkpt lat="42.1798301" lon="12.3228368"><ele>263.5</ele><time>2026-04-30T12:12:01.984Z</time></trkpt><trkpt lat="42.1795732" lon="12.3229511"><ele>263.0</ele><time>2026-04-30T12:12:02.984Z</time></trkpt><trkpt lat="42.1793187" lon="12.3230705"><ele>261.5</ele><time>2026-04-30T12:12:03.984Z</time></trkpt><trkpt lat="42.1790682" lon="12.323194"><ele>260.0</ele><time>2026-04-30T12:12:04.984Z</time></trkpt><trkpt lat="42.1788124" lon="12.323314"><ele>260.0</ele><time>2026-04-30T12:12:05.985Z</time></trkpt><trkpt lat="42.1785561" lon="12.3234316"><ele>260.0</ele><time>2026-04-30T12:12:06.984Z</time></trkpt><trkpt lat="42.1783004" lon="12.323558"><ele>258.5</ele><time>2026-04-30T12:12:07.984Z</time></trkpt><trkpt lat="42.1780448" lon="12.3236962"><ele>257.0</ele><time>2026-04-30T12:12:08.985Z</time></trkpt><trkpt lat="42.1777957" lon="12.3238481"><ele>256.5</ele><time>2026-04-30T12:12:09.984Z</time></trkpt><trkpt lat="42.1775475" lon="12.3239994"><ele>256.0</ele><time>2026-04-30T12:12:10.985Z</time></trkpt><trkpt lat="42.1772996" lon="12.3241517"><ele>257.0</ele><time>2026-04-30T12:12:11.984Z</time></trkpt><trkpt lat="42.1770475" lon="12.3243075"><ele>258.0</ele><time>2026-04-30T12:12:12.985Z</time></trkpt><trkpt lat="42.1767881" lon="12.3244643"><ele>258.0</ele><time>2026-04-30T12:12:13.984Z</time></trkpt><trkpt lat="42.1765329" lon="12.3246211"><ele>258.0</ele><time>2026-04-30T12:12:14.984Z</time></trkpt><trkpt lat="42.1762778" lon="12.3247788"><ele>258.5</ele><time>2026-04-30T12:12:15.984Z</time></trkpt><trkpt lat="42.1760251" lon="12.3249406"><ele>259.0</ele><time>2026-04-30T12:12:16.985Z</time></trkpt><trkpt lat="42.1757736" lon="12.3251018"><ele>258.0</ele><time>2026-04-30T12:12:17.985Z</time></trkpt><trkpt lat="42.1755213" lon="12.3252699"><ele>257.0</ele><time>2026-04-30T12:12:18.985Z</time></trkpt><trkpt lat="42.1752696" lon="12.3254472"><ele>257.0</ele><time>2026-04-30T12:12:19.984Z</time></trkpt><trkpt lat="42.175021" lon="12.3256293"><ele>257.0</ele><time>2026-04-30T12:12:20.985Z</time></trkpt><trkpt lat="42.1747769" lon="12.3258197"><ele>255.0</ele><time>2026-04-30T12:12:21.985Z</time></trkpt><trkpt lat="42.174539" lon="12.3260162"><ele>253.0</ele><time>2026-04-30T12:12:22.984Z</time></trkpt><trkpt lat="42.1743081" lon="12.3262171"><ele>253.5</ele><time>2026-04-30T12:12:23.984Z</time></trkpt><trkpt lat="42.1740885" lon="12.3264257"><ele>254.0</ele><time>2026-04-30T12:12:24.984Z</time></trkpt><trkpt lat="42.1738792" lon="12.326639"><ele>251.5</ele><time>2026-04-30T12:12:25.984Z</time></trkpt><trkpt lat="42.1736839" lon="12.3268593"><ele>249.0</ele><time>2026-04-30T12:12:26.985Z</time></trkpt><trkpt lat="42.1734906" lon="12.3270986"><ele>249.0</ele><time>2026-04-30T12:12:27.985Z</time></trkpt><trkpt lat="42.1732998" lon="12.3273433"><ele>249.0</ele><time>2026-04-30T12:12:28.984Z</time></trkpt><trkpt lat="42.1731119" lon="12.3275941"><ele>247.5</ele><time>2026-04-30T12:12:29.984Z</time></trkpt><trkpt lat="42.1729187" lon="12.3278636"><ele>246.0</ele><time>2026-04-30T12:12:30.984Z</time></trkpt><trkpt lat="42.1727355" lon="12.3281598"><ele>246.0</ele><time>2026-04-30T12:12:31.984Z</time></trkpt><trkpt lat="42.172545" lon="12.3284782"><ele>246.0</ele><time>2026-04-30T12:12:32.984Z</time></trkpt><trkpt lat="42.1723496" lon="12.3288117"><ele>242.5</ele><time>2026-04-30T12:12:33.984Z</time></trkpt><trkpt lat="42.1721449" lon="12.3291442"><ele>239.0</ele><time>2026-04-30T12:12:34.984Z</time></trkpt><trkpt lat="42.1719491" lon="12.3294623"><ele>239.0</ele><time>2026-04-30T12:12:35.984Z</time></trkpt><trkpt lat="42.1717634" lon="12.3297625"><ele>239.0</ele><time>2026-04-30T12:12:36.985Z</time></trkpt><trkpt lat="42.1715842" lon="12.3300604"><ele>234.5</ele><time>2026-04-30T12:12:37.985Z</time></trkpt><trkpt lat="42.1714115" lon="12.3303539"><ele>230.0</ele><time>2026-04-30T12:12:38.984Z</time></trkpt><trkpt lat="42.1712384" lon="12.3306363"><ele>229.5</ele><time>2026-04-30T12:12:39.984Z</time></trkpt><trkpt lat="42.1710692" lon="12.330917"><ele>229.0</ele><time>2026-04-30T12:12:40.984Z</time></trkpt><trkpt lat="42.1708967" lon="12.3311951"><ele>230.0</ele><time>2026-04-30T12:12:41.985Z</time></trkpt><trkpt lat="42.1707321" lon="12.3314701"><ele>231.0</ele><time>2026-04-30T12:12:42.985Z</time></trkpt><trkpt lat="42.1705676" lon="12.3317434"><ele>228.0</ele><time>2026-04-30T12:12:43.984Z</time></trkpt><trkpt lat="42.1704027" lon="12.3320142"><ele>225.0</ele><time>2026-04-30T12:12:44.984Z</time></trkpt><trkpt lat="42.1702339" lon="12.332289"><ele>224.5</ele><time>2026-04-30T12:12:45.985Z</time></trkpt><trkpt lat="42.1700655" lon="12.3325596"><ele>224.0</ele><time>2026-04-30T12:12:46.985Z</time></trkpt><trkpt lat="42.1698825" lon="12.3328205"><ele>221.5</ele><time>2026-04-30T12:12:47.984Z</time></trkpt><trkpt lat="42.1696698" lon="12.3330594"><ele>219.0</ele><time>2026-04-30T12:12:48.984Z</time></trkpt><trkpt lat="42.1694342" lon="12.3332718"><ele>219.0</ele><time>2026-04-30T12:12:49.985Z</time></trkpt><trkpt lat="42.1691752" lon="12.3334495"><ele>219.0</ele><time>2026-04-30T12:12:50.984Z</time></trkpt><trkpt lat="42.1689087" lon="12.3335888"><ele>219.0</ele><time>2026-04-30T12:12:51.984Z</time></trkpt><trkpt lat="42.1686338" lon="12.3337138"><ele>219.0</ele><time>2026-04-30T12:12:52.984Z</time></trkpt><trkpt lat="42.1683588" lon="12.3338254"><ele>218.0</ele><time>2026-04-30T12:12:53.985Z</time></trkpt><trkpt lat="42.1680819" lon="12.3339205"><ele>217.0</ele><time>2026-04-30T12:12:54.984Z</time></trkpt><trkpt lat="42.1677968" lon="12.3340158"><ele>217.0</ele><time>2026-04-30T12:12:55.984Z</time></trkpt><trkpt lat="42.1675124" lon="12.3341095"><ele>217.0</ele><time>2026-04-30T12:12:56.985Z</time></trkpt><trkpt lat="42.1672311" lon="12.3342041"><ele>216.0</ele><time>2026-04-30T12:12:57.985Z</time></trkpt><trkpt lat="42.166946" lon="12.3342977"><ele>215.0</ele><time>2026-04-30T12:12:58.984Z</time></trkpt><trkpt lat="42.1666646" lon="12.3343946"><ele>215.5</ele><time>2026-04-30T12:12:59.984Z</time></trkpt><trkpt lat="42.1663807" lon="12.3344938"><ele>216.0</ele><time>2026-04-30T12:13:00.985Z</time></trkpt><trkpt lat="42.1661011" lon="12.3345898"><ele>216.0</ele><time>2026-04-30T12:13:01.984Z</time></trkpt><trkpt lat="42.1658249" lon="12.3346849"><ele>216.0</ele><time>2026-04-30T12:13:02.984Z</time></trkpt><trkpt lat="42.1655484" lon="12.3347748"><ele>213.5</ele><time>2026-04-30T12:13:03.984Z</time></trkpt><trkpt lat="42.165271" lon="12.3348683"><ele>211.0</ele><time>2026-04-30T12:13:04.984Z</time></trkpt><trkpt lat="42.1649984" lon="12.3349629"><ele>210.0</ele><time>2026-04-30T12:13:05.984Z</time></trkpt><trkpt lat="42.1647296" lon="12.3350528"><ele>209.0</ele><time>2026-04-30T12:13:06.984Z</time></trkpt><trkpt lat="42.1644747" lon="12.3351404"><ele>209.0</ele><time>2026-04-30T12:13:07.985Z</time></trkpt><trkpt lat="42.1642297" lon="12.3352322"><ele>209.0</ele><time>2026-04-30T12:13:08.985Z</time></trkpt><trkpt lat="42.1639887" lon="12.3353364"><ele>209.0</ele><time>2026-04-30T12:13:09.984Z</time></trkpt><trkpt lat="42.1637486" lon="12.3354636"><ele>209.0</ele><time>2026-04-30T12:13:10.984Z</time></trkpt><trkpt lat="42.1635149" lon="12.3356097"><ele>209.0</ele><time>2026-04-30T12:13:11.984Z</time></trkpt><trkpt lat="42.1632868" lon="12.3357827"><ele>209.0</ele><time>2026-04-30T12:13:12.983Z</time></trkpt><trkpt lat="42.1630648" lon="12.33597"><ele>208.5</ele><time>2026-04-30T12:13:13.984Z</time></trkpt><trkpt lat="42.1628425" lon="12.3361567"><ele>208.0</ele><time>2026-04-30T12:13:14.984Z</time></trkpt><trkpt lat="42.1626149" lon="12.3363413"><ele>207.5</ele><time>2026-04-30T12:13:15.985Z</time></trkpt><trkpt lat="42.1623834" lon="12.3365261"><ele>207.0</ele><time>2026-04-30T12:13:16.984Z</time></trkpt><trkpt lat="42.1621546" lon="12.336712"><ele>205.5</ele><time>2026-04-30T12:13:17.985Z</time></trkpt><trkpt lat="42.1619336" lon="12.3368933"><ele>204.0</ele><time>2026-04-30T12:13:18.984Z</time></trkpt><trkpt lat="42.1617162" lon="12.3370773"><ele>205.0</ele><time>2026-04-30T12:13:19.984Z</time></trkpt><trkpt lat="42.1615023" lon="12.3372719"><ele>206.0</ele><time>2026-04-30T12:13:20.984Z</time></trkpt><trkpt lat="42.1612934" lon="12.3374685"><ele>206.0</ele><time>2026-04-30T12:13:21.984Z</time></trkpt><trkpt lat="42.1610894" lon="12.3376795"><ele>206.0</ele><time>2026-04-30T12:13:22.984Z</time></trkpt><trkpt lat="42.1608875" lon="12.3378941"><ele>208.5</ele><time>2026-04-30T12:13:23.984Z</time></trkpt><trkpt lat="42.160681" lon="12.3381165"><ele>211.0</ele><time>2026-04-30T12:13:24.984Z</time></trkpt><trkpt lat="42.1604715" lon="12.3383384"><ele>211.0</ele><time>2026-04-30T12:13:25.984Z</time></trkpt><trkpt lat="42.160243" lon="12.3385844"><ele>211.0</ele><time>2026-04-30T12:13:26.984Z</time></trkpt><trkpt lat="42.1600099" lon="12.3388472"><ele>211.0</ele><time>2026-04-30T12:13:27.984Z</time></trkpt><trkpt lat="42.1597615" lon="12.3391149"><ele>211.0</ele><time>2026-04-30T12:13:28.984Z</time></trkpt><trkpt lat="42.1595114" lon="12.3393735"><ele>211.0</ele><time>2026-04-30T12:13:29.985Z</time></trkpt><trkpt lat="42.1592652" lon="12.3396292"><ele>211.0</ele><time>2026-04-30T12:13:30.984Z</time></trkpt><trkpt lat="42.1590192" lon="12.339882"><ele>208.5</ele><time>2026-04-30T12:13:31.984Z</time></trkpt><trkpt lat="42.1587766" lon="12.3401289"><ele>206.0</ele><time>2026-04-30T12:13:32.984Z</time></trkpt><trkpt lat="42.1585378" lon="12.3403714"><ele>206.0</ele><time>2026-04-30T12:13:33.984Z</time></trkpt><trkpt lat="42.1582964" lon="12.3406079"><ele>206.0</ele><time>2026-04-30T12:13:34.984Z</time></trkpt><trkpt lat="42.1580552" lon="12.3408405"><ele>206.5</ele><time>2026-04-30T12:13:35.985Z</time></trkpt><trkpt lat="42.1578215" lon="12.3410716"><ele>207.0</ele><time>2026-04-30T12:13:36.984Z</time></trkpt><trkpt lat="42.1575983" lon="12.3413158"><ele>206.5</ele><time>2026-04-30T12:13:37.985Z</time></trkpt><trkpt lat="42.1573856" lon="12.3415694"><ele>206.0</ele><time>2026-04-30T12:13:38.984Z</time></trkpt><trkpt lat="42.1571751" lon="12.3418206"><ele>206.0</ele><time>2026-04-30T12:13:39.984Z</time></trkpt><trkpt lat="42.156962" lon="12.3420732"><ele>206.0</ele><time>2026-04-30T12:13:40.985Z</time></trkpt><trkpt lat="42.1567495" lon="12.342328"><ele>204.0</ele><time>2026-04-30T12:13:41.984Z</time></trkpt><trkpt lat="42.1565511" lon="12.3425693"><ele>202.0</ele><time>2026-04-30T12:13:42.984Z</time></trkpt><trkpt lat="42.1563596" lon="12.3427963"><ele>201.5</ele><time>2026-04-30T12:13:43.984Z</time></trkpt><trkpt lat="42.1561754" lon="12.3430248"><ele>201.0</ele><time>2026-04-30T12:13:44.984Z</time></trkpt><trkpt lat="42.1559915" lon="12.3432499"><ele>200.0</ele><time>2026-04-30T12:13:45.984Z</time></trkpt><trkpt lat="42.155808" lon="12.3434662"><ele>199.0</ele><time>2026-04-30T12:13:46.984Z</time></trkpt><trkpt lat="42.1556283" lon="12.34368"><ele>197.5</ele><time>2026-04-30T12:13:47.984Z</time></trkpt><trkpt lat="42.1554526" lon="12.3438915"><ele>196.0</ele><time>2026-04-30T12:13:48.984Z</time></trkpt><trkpt lat="42.1552778" lon="12.3441039"><ele>196.0</ele><time>2026-04-30T12:13:49.984Z</time></trkpt><trkpt lat="42.1551043" lon="12.3443147"><ele>196.0</ele><time>2026-04-30T12:13:50.985Z</time></trkpt><trkpt lat="42.1549351" lon="12.3445316"><ele>198.0</ele><time>2026-04-30T12:13:51.984Z</time></trkpt><trkpt lat="42.1547642" lon="12.3447501"><ele>200.0</ele><time>2026-04-30T12:13:52.984Z</time></trkpt><trkpt lat="42.1545952" lon="12.3449758"><ele>200.0</ele><time>2026-04-30T12:13:53.984Z</time></trkpt><trkpt lat="42.154424" lon="12.3452065"><ele>200.0</ele><time>2026-04-30T12:13:54.984Z</time></trkpt><trkpt lat="42.1542555" lon="12.3454333"><ele>199.0</ele><time>2026-04-30T12:13:55.984Z</time></trkpt><trkpt lat="42.1540766" lon="12.345661"><ele>198.0</ele><time>2026-04-30T12:13:56.985Z</time></trkpt><trkpt lat="42.153886" lon="12.3458764"><ele>197.5</ele><time>2026-04-30T12:13:57.984Z</time></trkpt><trkpt lat="42.1536889" lon="12.3460901"><ele>197.0</ele><time>2026-04-30T12:13:58.985Z</time></trkpt><trkpt lat="42.1534893" lon="12.346307"><ele>198.0</ele><time>2026-04-30T12:13:59.984Z</time></trkpt><trkpt lat="42.1532927" lon="12.3465185"><ele>199.0</ele><time>2026-04-30T12:14:00.985Z</time></trkpt><trkpt lat="42.1530982" lon="12.3467257"><ele>201.0</ele><time>2026-04-30T12:14:01.984Z</time></trkpt><trkpt lat="42.1529061" lon="12.346929"><ele>203.0</ele><time>2026-04-30T12:14:02.984Z</time></trkpt><trkpt lat="42.1527257" lon="12.3471166"><ele>202.66666666666669</ele><time>2026-04-30T12:14:03.984Z</time></trkpt><trkpt lat="42.1525535" lon="12.3472888"><ele>202.33333333333331</ele><time>2026-04-30T12:14:04.985Z</time></trkpt><trkpt lat="42.1523876" lon="12.347451"><ele>202.0</ele><time>2026-04-30T12:14:05.984Z</time></trkpt><trkpt lat="42.1522127" lon="12.3476039"><ele>202.66666666666666</ele><time>2026-04-30T12:14:06.985Z</time></trkpt><trkpt lat="42.1520372" lon="12.34775"><ele>203.33333333333331</ele><time>2026-04-30T12:14:07.985Z</time></trkpt><trkpt lat="42.1518554" lon="12.3478915"><ele>204.0</ele><time>2026-04-30T12:14:08.984Z</time></trkpt><trkpt lat="42.1516732" lon="12.3480315"><ele>204.66666666666669</ele><time>2026-04-30T12:14:09.985Z</time></trkpt><trkpt lat="42.1514871" lon="12.3481635"><ele>205.33333333333334</ele><time>2026-04-30T12:14:10.984Z</time></trkpt><trkpt lat="42.1513025" lon="12.3482875"><ele>206.0</ele><time>2026-04-30T12:14:11.984Z</time></trkpt><trkpt lat="42.1511137" lon="12.348405"><ele>206.0</ele><time>2026-04-30T12:14:12.984Z</time></trkpt><trkpt lat="42.1509224" lon="12.3485192"><ele>206.0</ele><time>2026-04-30T12:14:13.984Z</time></trkpt><trkpt lat="42.150734" lon="12.3486317"><ele>206.0</ele><time>2026-04-30T12:14:14.984Z</time></trkpt><trkpt lat="42.1505457" lon="12.3487373"><ele>207.0</ele><time>2026-04-30T12:14:15.984Z</time></trkpt><trkpt lat="42.1503679" lon="12.3488334"><ele>208.0</ele><time>2026-04-30T12:14:16.984Z</time></trkpt><trkpt lat="42.1501919" lon="12.348923"><ele>209.0</ele><time>2026-04-30T12:14:17.984Z</time></trkpt><trkpt lat="42.1500168" lon="12.3489979"><ele>209.33333333333334</ele><time>2026-04-30T12:14:18.984Z</time></trkpt><trkpt lat="42.1498341" lon="12.3490709"><ele>209.66666666666669</ele><time>2026-04-30T12:14:19.984Z</time></trkpt><trkpt lat="42.1496504" lon="12.3491418"><ele>210.0</ele><time>2026-04-30T12:14:20.985Z</time></trkpt><trkpt lat="42.1494599" lon="12.3492073"><ele>210.0</ele><time>2026-04-30T12:14:21.985Z</time></trkpt><trkpt lat="42.1492582" lon="12.3492675"><ele>210.0</ele><time>2026-04-30T12:14:22.985Z</time></trkpt><trkpt lat="42.1490482" lon="12.3493287"><ele>210.0</ele><time>2026-04-30T12:14:23.985Z</time></trkpt><trkpt lat="42.1488375" lon="12.349387"><ele>211.33333333333331</ele><time>2026-04-30T12:14:24.984Z</time></trkpt><trkpt lat="42.1486186" lon="12.3494436"><ele>212.66666666666666</ele><time>2026-04-30T12:14:25.984Z</time></trkpt><trkpt lat="42.1483985" lon="12.349504"><ele>214.0</ele><time>2026-04-30T12:14:26.984Z</time></trkpt><trkpt lat="42.1481766" lon="12.3495602"><ele>214.0</ele><time>2026-04-30T12:14:27.985Z</time></trkpt><trkpt lat="42.1479468" lon="12.3496164"><ele>214.0</ele><time>2026-04-30T12:14:28.985Z</time></trkpt><trkpt lat="42.1477133" lon="12.349671"><ele>214.5</ele><time>2026-04-30T12:14:29.985Z</time></trkpt><trkpt lat="42.1474778" lon="12.3497295"><ele>215.0</ele><time>2026-04-30T12:14:30.984Z</time></trkpt><trkpt lat="42.1472349" lon="12.3497927"><ele>216.5</ele><time>2026-04-30T12:14:31.984Z</time></trkpt><trkpt lat="42.1469939" lon="12.3498526"><ele>218.0</ele><time>2026-04-30T12:14:32.985Z</time></trkpt><trkpt lat="42.1467639" lon="12.3499126"><ele>219.0</ele><time>2026-04-30T12:14:33.985Z</time></trkpt><trkpt lat="42.1465334" lon="12.3499727"><ele>220.0</ele><time>2026-04-30T12:14:34.984Z</time></trkpt><trkpt lat="42.1462867" lon="12.3500307"><ele>220.0</ele><time>2026-04-30T12:14:35.984Z</time></trkpt><trkpt lat="42.1460396" lon="12.3500975"><ele>220.0</ele><time>2026-04-30T12:14:36.984Z</time></trkpt><trkpt lat="42.1457946" lon="12.3501668"><ele>220.5</ele><time>2026-04-30T12:14:37.984Z</time></trkpt><trkpt lat="42.1455517" lon="12.3502319"><ele>221.0</ele><time>2026-04-30T12:14:38.984Z</time></trkpt><trkpt lat="42.1453034" lon="12.3502897"><ele>221.0</ele><time>2026-04-30T12:14:39.985Z</time></trkpt><trkpt lat="42.1450576" lon="12.3503489"><ele>221.0</ele><time>2026-04-30T12:14:40.985Z</time></trkpt><trkpt lat="42.1448135" lon="12.3504083"><ele>222.5</ele><time>2026-04-30T12:14:41.985Z</time></trkpt><trkpt lat="42.1445778" lon="12.3504667"><ele>224.0</ele><time>2026-04-30T12:14:42.985Z</time></trkpt><trkpt lat="42.1443466" lon="12.3505249"><ele>224.5</ele><time>2026-04-30T12:14:43.984Z</time></trkpt><trkpt lat="42.1441159" lon="12.3505893"><ele>225.0</ele><time>2026-04-30T12:14:44.985Z</time></trkpt><trkpt lat="42.1438849" lon="12.3506506"><ele>226.0</ele><time>2026-04-30T12:14:45.984Z</time></trkpt><trkpt lat="42.1436608" lon="12.3507103"><ele>227.0</ele><time>2026-04-30T12:14:46.984Z</time></trkpt><trkpt lat="42.1434335" lon="12.3507711"><ele>230.0</ele><time>2026-04-30T12:14:47.984Z</time></trkpt><trkpt lat="42.1432058" lon="12.3508305"><ele>233.0</ele><time>2026-04-30T12:14:48.984Z</time></trkpt><trkpt lat="42.1429801" lon="12.35089"><ele>233.0</ele><time>2026-04-30T12:14:49.984Z</time></trkpt><trkpt lat="42.1427527" lon="12.350948"><ele>233.0</ele><time>2026-04-30T12:14:50.984Z</time></trkpt><trkpt lat="42.1425236" lon="12.3510084"><ele>234.0</ele><time>2026-04-30T12:14:51.985Z</time></trkpt><trkpt lat="42.1422972" lon="12.3510662"><ele>235.0</ele><time>2026-04-30T12:14:52.984Z</time></trkpt><trkpt lat="42.1420701" lon="12.3511221"><ele>235.0</ele><time>2026-04-30T12:14:53.985Z</time></trkpt><trkpt lat="42.1418432" lon="12.3511786"><ele>235.0</ele><time>2026-04-30T12:14:54.984Z</time></trkpt><trkpt lat="42.1416151" lon="12.3512341"><ele>237.0</ele><time>2026-04-30T12:14:55.984Z</time></trkpt><trkpt lat="42.1413784" lon="12.351294"><ele>239.0</ele><time>2026-04-30T12:14:56.984Z</time></trkpt><trkpt lat="42.1411433" lon="12.3513578"><ele>241.5</ele><time>2026-04-30T12:14:57.984Z</time></trkpt><trkpt lat="42.1409021" lon="12.3514192"><ele>244.0</ele><time>2026-04-30T12:14:58.984Z</time></trkpt><trkpt lat="42.1406653" lon="12.3514819"><ele>244.5</ele><time>2026-04-30T12:14:59.984Z</time></trkpt><trkpt lat="42.1404272" lon="12.3515484"><ele>245.0</ele><time>2026-04-30T12:15:00.984Z</time></trkpt><trkpt lat="42.1401886" lon="12.3516135"><ele>245.0</ele><time>2026-04-30T12:15:01.984Z</time></trkpt><trkpt lat="42.1399505" lon="12.351668"><ele>245.0</ele><time>2026-04-30T12:15:02.984Z</time></trkpt><trkpt lat="42.1397155" lon="12.3517207"><ele>247.0</ele><time>2026-04-30T12:15:03.984Z</time></trkpt><trkpt lat="42.1394839" lon="12.3517784"><ele>249.0</ele><time>2026-04-30T12:15:04.984Z</time></trkpt><trkpt lat="42.1392561" lon="12.3518364"><ele>253.0</ele><time>2026-04-30T12:15:05.984Z</time></trkpt><trkpt lat="42.1390211" lon="12.3518936"><ele>257.0</ele><time>2026-04-30T12:15:06.984Z</time></trkpt><trkpt lat="42.1387909" lon="12.3519508"><ele>257.0</ele><time>2026-04-30T12:15:07.984Z</time></trkpt><trkpt lat="42.1385619" lon="12.3520128"><ele>257.0</ele><time>2026-04-30T12:15:08.985Z</time></trkpt><trkpt lat="42.1383303" lon="12.3520711"><ele>260.0</ele><time>2026-04-30T12:15:09.984Z</time></trkpt><trkpt lat="42.1380999" lon="12.3521271"><ele>263.0</ele><time>2026-04-30T12:15:10.984Z</time></trkpt><trkpt lat="42.1378615" lon="12.3521869"><ele>265.0</ele><time>2026-04-30T12:15:11.984Z</time></trkpt><trkpt lat="42.1376316" lon="12.3522444"><ele>267.0</ele><time>2026-04-30T12:15:12.984Z</time></trkpt><trkpt lat="42.1374052" lon="12.3523075"><ele>272.0</ele><time>2026-04-30T12:15:13.984Z</time></trkpt><trkpt lat="42.1371751" lon="12.352365"><ele>277.0</ele><time>2026-04-30T12:15:14.984Z</time></trkpt><trkpt lat="42.1369427" lon="12.3524343"><ele>277.0</ele><time>2026-04-30T12:15:15.984Z</time></trkpt><trkpt lat="42.136712" lon="12.3525253"><ele>277.0</ele><time>2026-04-30T12:15:16.984Z</time></trkpt><trkpt lat="42.136475" lon="12.3526297"><ele>279.5</ele><time>2026-04-30T12:15:17.985Z</time></trkpt><trkpt lat="42.1362498" lon="12.3527629"><ele>282.0</ele><time>2026-04-30T12:15:18.984Z</time></trkpt><trkpt lat="42.1360267" lon="12.3529119"><ele>282.0</ele><time>2026-04-30T12:15:19.984Z</time></trkpt><trkpt lat="42.1358166" lon="12.3530741"><ele>282.0</ele><time>2026-04-30T12:15:20.984Z</time></trkpt><trkpt lat="42.1356123" lon="12.3532422"><ele>282.0</ele><time>2026-04-30T12:15:21.984Z</time></trkpt><trkpt lat="42.1354009" lon="12.353404"><ele>282.0</ele><time>2026-04-30T12:15:22.984Z</time></trkpt><trkpt lat="42.1351869" lon="12.3535634"><ele>282.0</ele><time>2026-04-30T12:15:23.984Z</time></trkpt><trkpt lat="42.1349719" lon="12.3537191"><ele>282.0</ele><time>2026-04-30T12:15:24.985Z</time></trkpt><trkpt lat="42.1347543" lon="12.3538777"><ele>276.0</ele><time>2026-04-30T12:15:25.984Z</time></trkpt><trkpt lat="42.1345408" lon="12.3540361"><ele>270.0</ele><time>2026-04-30T12:15:26.985Z</time></trkpt><trkpt lat="42.1343247" lon="12.3542"><ele>270.0</ele><time>2026-04-30T12:15:27.984Z</time></trkpt><trkpt lat="42.134108" lon="12.3543694"><ele>270.0</ele><time>2026-04-30T12:15:28.984Z</time></trkpt><trkpt lat="42.1338874" lon="12.354541"><ele>267.5</ele><time>2026-04-30T12:15:29.984Z</time></trkpt><trkpt lat="42.1336622" lon="12.3547118"><ele>265.0</ele><time>2026-04-30T12:15:30.984Z</time></trkpt><trkpt lat="42.1334383" lon="12.3548784"><ele>263.5</ele><time>2026-04-30T12:15:31.985Z</time></trkpt><trkpt lat="42.133216" lon="12.355045"><ele>262.0</ele><time>2026-04-30T12:15:32.984Z</time></trkpt><trkpt lat="42.1329953" lon="12.3552121"><ele>262.0</ele><time>2026-04-30T12:15:33.985Z</time></trkpt><trkpt lat="42.132774" lon="12.3553846"><ele>262.0</ele><time>2026-04-30T12:15:34.985Z</time></trkpt><trkpt lat="42.1325521" lon="12.3555553"><ele>256.5</ele><time>2026-04-30T12:15:35.984Z</time></trkpt><trkpt lat="42.1323325" lon="12.3557245"><ele>251.0</ele><time>2026-04-30T12:15:36.984Z</time></trkpt><trkpt lat="42.1321099" lon="12.3558957"><ele>251.0</ele><time>2026-04-30T12:15:37.984Z</time></trkpt><trkpt lat="42.131884" lon="12.3560692"><ele>251.0</ele><time>2026-04-30T12:15:38.984Z</time></trkpt><trkpt lat="42.1316588" lon="12.3562412"><ele>247.0</ele><time>2026-04-30T12:15:39.984Z</time></trkpt><trkpt lat="42.1314363" lon="12.3564119"><ele>243.0</ele><time>2026-04-30T12:15:40.984Z</time></trkpt><trkpt lat="42.131213" lon="12.356587"><ele>243.0</ele><time>2026-04-30T12:15:41.984Z</time></trkpt><trkpt lat="42.1309844" lon="12.3567639"><ele>243.0</ele><time>2026-04-30T12:15:42.984Z</time></trkpt><trkpt lat="42.1307533" lon="12.3569434"><ele>241.0</ele><time>2026-04-30T12:15:43.984Z</time></trkpt><trkpt lat="42.1305288" lon="12.357131"><ele>239.0</ele><time>2026-04-30T12:15:44.984Z</time></trkpt><trkpt lat="42.1303028" lon="12.357322"><ele>239.0</ele><time>2026-04-30T12:15:45.985Z</time></trkpt><trkpt lat="42.1300794" lon="12.3575229"><ele>239.0</ele><time>2026-04-30T12:15:46.984Z</time></trkpt><trkpt lat="42.1298647" lon="12.3577458"><ele>236.5</ele><time>2026-04-30T12:15:47.984Z</time></trkpt><trkpt lat="42.1296515" lon="12.3579832"><ele>234.0</ele><time>2026-04-30T12:15:48.985Z</time></trkpt><trkpt lat="42.1294488" lon="12.3582302"><ele>234.0</ele><time>2026-04-30T12:15:49.984Z</time></trkpt><trkpt lat="42.1292552" lon="12.3584882"><ele>234.0</ele><time>2026-04-30T12:15:50.985Z</time></trkpt><trkpt lat="42.1290678" lon="12.3587586"><ele>232.0</ele><time>2026-04-30T12:15:51.984Z</time></trkpt><trkpt lat="42.1288941" lon="12.3590453"><ele>230.0</ele><time>2026-04-30T12:15:52.984Z</time></trkpt><trkpt lat="42.1287251" lon="12.3593408"><ele>230.0</ele><time>2026-04-30T12:15:53.984Z</time></trkpt><trkpt lat="42.128557" lon="12.3596396"><ele>230.0</ele><time>2026-04-30T12:15:54.985Z</time></trkpt><trkpt lat="42.1283922" lon="12.3599345"><ele>227.0</ele><time>2026-04-30T12:15:55.984Z</time></trkpt><trkpt lat="42.1282189" lon="12.3602226"><ele>224.0</ele><time>2026-04-30T12:15:56.985Z</time></trkpt><trkpt lat="42.1280329" lon="12.3605007"><ele>225.5</ele><time>2026-04-30T12:15:57.984Z</time></trkpt><trkpt lat="42.1278323" lon="12.3607644"><ele>227.0</ele><time>2026-04-30T12:15:58.984Z</time></trkpt><trkpt lat="42.1276199" lon="12.3610123"><ele>227.0</ele><time>2026-04-30T12:15:59.984Z</time></trkpt><trkpt lat="42.1273945" lon="12.3612406"><ele>227.0</ele><time>2026-04-30T12:16:00.984Z</time></trkpt><trkpt lat="42.127156" lon="12.3614517"><ele>228.0</ele><time>2026-04-30T12:16:01.984Z</time></trkpt><trkpt lat="42.1269073" lon="12.3616424"><ele>229.0</ele><time>2026-04-30T12:16:02.984Z</time></trkpt><trkpt lat="42.1266546" lon="12.36182"><ele>226.5</ele><time>2026-04-30T12:16:03.984Z</time></trkpt><trkpt lat="42.1263925" lon="12.3619743"><ele>224.0</ele><time>2026-04-30T12:16:04.984Z</time></trkpt><trkpt lat="42.1261231" lon="12.3621109"><ele>225.5</ele><time>2026-04-30T12:16:05.984Z</time></trkpt><trkpt lat="42.1258557" lon="12.3622422"><ele>227.0</ele><time>2026-04-30T12:16:06.985Z</time></trkpt><trkpt lat="42.125586" lon="12.3623785"><ele>227.0</ele><time>2026-04-30T12:16:07.984Z</time></trkpt><trkpt lat="42.1253137" lon="12.3625173"><ele>227.0</ele><time>2026-04-30T12:16:08.984Z</time></trkpt><trkpt lat="42.1250413" lon="12.362656"><ele>226.0</ele><time>2026-04-30T12:16:09.984Z</time></trkpt><trkpt lat="42.1247662" lon="12.3627905"><ele>225.0</ele><time>2026-04-30T12:16:10.984Z</time></trkpt><trkpt lat="42.1244891" lon="12.3629327"><ele>226.0</ele><time>2026-04-30T12:16:11.984Z</time></trkpt><trkpt lat="42.1242202" lon="12.3630747"><ele>227.0</ele><time>2026-04-30T12:16:12.984Z</time></trkpt><trkpt lat="42.1239468" lon="12.3632214"><ele>225.0</ele><time>2026-04-30T12:16:13.984Z</time></trkpt><trkpt lat="42.1236765" lon="12.363357"><ele>223.0</ele><time>2026-04-30T12:16:14.984Z</time></trkpt><trkpt lat="42.1234049" lon="12.3634834"><ele>221.5</ele><time>2026-04-30T12:16:15.984Z</time></trkpt><trkpt lat="42.1231287" lon="12.3635961"><ele>220.0</ele><time>2026-04-30T12:16:16.984Z</time></trkpt><trkpt lat="42.1228523" lon="12.3636983"><ele>220.0</ele><time>2026-04-30T12:16:17.985Z</time></trkpt><trkpt lat="42.1225719" lon="12.3637771"><ele>220.0</ele><time>2026-04-30T12:16:18.984Z</time></trkpt><trkpt lat="42.1222845" lon="12.3638335"><ele>220.0</ele><time>2026-04-30T12:16:19.984Z</time></trkpt><trkpt lat="42.1219943" lon="12.3638735"><ele>220.0</ele><time>2026-04-30T12:16:20.984Z</time></trkpt><trkpt lat="42.1217048" lon="12.3638946"><ele>218.5</ele><time>2026-04-30T12:16:21.984Z</time></trkpt><trkpt lat="42.1214228" lon="12.3638991"><ele>217.0</ele><time>2026-04-30T12:16:22.984Z</time></trkpt><trkpt lat="42.1211393" lon="12.363894"><ele>217.0</ele><time>2026-04-30T12:16:23.984Z</time></trkpt><trkpt lat="42.1208503" lon="12.3638934"><ele>217.0</ele><time>2026-04-30T12:16:24.984Z</time></trkpt><trkpt lat="42.120563" lon="12.3638923"><ele>217.5</ele><time>2026-04-30T12:16:25.984Z</time></trkpt><trkpt lat="42.1202843" lon="12.3638817"><ele>218.0</ele><time>2026-04-30T12:16:26.984Z</time></trkpt><trkpt lat="42.1200229" lon="12.3638759"><ele>216.0</ele><time>2026-04-30T12:16:27.984Z</time></trkpt><trkpt lat="42.1197579" lon="12.3638688"><ele>214.0</ele><time>2026-04-30T12:16:28.984Z</time></trkpt><trkpt lat="42.1194897" lon="12.3638608"><ele>213.5</ele><time>2026-04-30T12:16:29.985Z</time></trkpt><trkpt lat="42.1192236" lon="12.3638503"><ele>213.0</ele><time>2026-04-30T12:16:30.984Z</time></trkpt><trkpt lat="42.118957" lon="12.3638424"><ele>213.0</ele><time>2026-04-30T12:16:31.985Z</time></trkpt><trkpt lat="42.1186889" lon="12.3638377"><ele>213.0</ele><time>2026-04-30T12:16:32.984Z</time></trkpt><trkpt lat="42.1184154" lon="12.3638358"><ele>212.0</ele><time>2026-04-30T12:16:33.984Z</time></trkpt><trkpt lat="42.1181385" lon="12.3638353"><ele>211.0</ele><time>2026-04-30T12:16:34.984Z</time></trkpt><trkpt lat="42.117857" lon="12.3638328"><ele>211.0</ele><time>2026-04-30T12:16:35.984Z</time></trkpt><trkpt lat="42.1175668" lon="12.3638297"><ele>211.0</ele><time>2026-04-30T12:16:36.984Z</time></trkpt><trkpt lat="42.1172712" lon="12.3638231"><ele>211.5</ele><time>2026-04-30T12:16:37.984Z</time></trkpt><trkpt lat="42.1169724" lon="12.3638221"><ele>212.0</ele><time>2026-04-30T12:16:38.985Z</time></trkpt><trkpt lat="42.1166628" lon="12.3638126"><ele>213.0</ele><time>2026-04-30T12:16:39.984Z</time></trkpt><trkpt lat="42.1163465" lon="12.3638007"><ele>214.0</ele><time>2026-04-30T12:16:40.985Z</time></trkpt><trkpt lat="42.1160291" lon="12.3637945"><ele>214.0</ele><time>2026-04-30T12:16:41.984Z</time></trkpt><trkpt lat="42.1157108" lon="12.3637903"><ele>214.0</ele><time>2026-04-30T12:16:42.984Z</time></trkpt><trkpt lat="42.1153943" lon="12.3637844"><ele>214.0</ele><time>2026-04-30T12:16:43.984Z</time></trkpt><trkpt lat="42.1150841" lon="12.3637802"><ele>214.0</ele><time>2026-04-30T12:16:44.985Z</time></trkpt><trkpt lat="42.1147739" lon="12.3637721"><ele>214.0</ele><time>2026-04-30T12:16:45.985Z</time></trkpt><trkpt lat="42.1144636" lon="12.3637638"><ele>214.0</ele><time>2026-04-30T12:16:46.984Z</time></trkpt><trkpt lat="42.1141567" lon="12.3637578"><ele>215.5</ele><time>2026-04-30T12:16:47.985Z</time></trkpt><trkpt lat="42.1138487" lon="12.3637536"><ele>217.0</ele><time>2026-04-30T12:16:48.985Z</time></trkpt><trkpt lat="42.1135412" lon="12.3637488"><ele>217.0</ele><time>2026-04-30T12:16:49.985Z</time></trkpt><trkpt lat="42.1132394" lon="12.363735"><ele>217.0</ele><time>2026-04-30T12:16:50.984Z</time></trkpt><trkpt lat="42.1129357" lon="12.3637281"><ele>218.0</ele><time>2026-04-30T12:16:51.984Z</time></trkpt><trkpt lat="42.1126337" lon="12.3637203"><ele>219.0</ele><time>2026-04-30T12:16:52.984Z</time></trkpt><trkpt lat="42.112331" lon="12.3637144"><ele>220.0</ele><time>2026-04-30T12:16:53.984Z</time></trkpt><trkpt lat="42.1120334" lon="12.363708"><ele>221.0</ele><time>2026-04-30T12:16:54.984Z</time></trkpt><trkpt lat="42.1117403" lon="12.3636992"><ele>223.5</ele><time>2026-04-30T12:16:55.984Z</time></trkpt><trkpt lat="42.1114447" lon="12.363693"><ele>226.0</ele><time>2026-04-30T12:16:56.984Z</time></trkpt><trkpt lat="42.1111487" lon="12.3636842"><ele>226.0</ele><time>2026-04-30T12:16:57.984Z</time></trkpt><trkpt lat="42.1108539" lon="12.3636813"><ele>226.0</ele><time>2026-04-30T12:16:58.984Z</time></trkpt><trkpt lat="42.1105618" lon="12.3636848"><ele>229.0</ele><time>2026-04-30T12:16:59.985Z</time></trkpt><trkpt lat="42.1102666" lon="12.3636939"><ele>232.0</ele><time>2026-04-30T12:17:00.984Z</time></trkpt><trkpt lat="42.10997" lon="12.3636956"><ele>233.5</ele><time>2026-04-30T12:17:01.984Z</time></trkpt><trkpt lat="42.1096717" lon="12.3636941"><ele>235.0</ele><time>2026-04-30T12:17:02.985Z</time></trkpt><trkpt lat="42.1093759" lon="12.3636913"><ele>235.0</ele><time>2026-04-30T12:17:03.985Z</time></trkpt><trkpt lat="42.1090874" lon="12.363687"><ele>235.0</ele><time>2026-04-30T12:17:04.984Z</time></trkpt><trkpt lat="42.1087972" lon="12.3636766"><ele>237.0</ele><time>2026-04-30T12:17:05.984Z</time></trkpt><trkpt lat="42.1085037" lon="12.3636665"><ele>239.0</ele><time>2026-04-30T12:17:06.984Z</time></trkpt><trkpt lat="42.1082082" lon="12.3636553"><ele>240.5</ele><time>2026-04-30T12:17:07.984Z</time></trkpt><trkpt lat="42.1079125" lon="12.3636449"><ele>242.0</ele><time>2026-04-30T12:17:08.984Z</time></trkpt><trkpt lat="42.1076174" lon="12.3636371"><ele>244.5</ele><time>2026-04-30T12:17:09.984Z</time></trkpt><trkpt lat="42.1073207" lon="12.3636165"><ele>247.0</ele><time>2026-04-30T12:17:10.985Z</time></trkpt><trkpt lat="42.1070251" lon="12.3636044"><ele>247.0</ele><time>2026-04-30T12:17:11.984Z</time></trkpt><trkpt lat="42.1067282" lon="12.3636061"><ele>247.0</ele><time>2026-04-30T12:17:12.984Z</time></trkpt><trkpt lat="42.106429" lon="12.363629"><ele>249.0</ele><time>2026-04-30T12:17:13.985Z</time></trkpt><trkpt lat="42.1061349" lon="12.3636749"><ele>251.0</ele><time>2026-04-30T12:17:14.984Z</time></trkpt><trkpt lat="42.1058451" lon="12.3637493"><ele>253.0</ele><time>2026-04-30T12:17:15.985Z</time></trkpt><trkpt lat="42.1055549" lon="12.3638502"><ele>255.0</ele><time>2026-04-30T12:17:16.984Z</time></trkpt><trkpt lat="42.1052754" lon="12.363974"><ele>255.0</ele><time>2026-04-30T12:17:17.984Z</time></trkpt><trkpt lat="42.1050039" lon="12.3641145"><ele>255.0</ele><time>2026-04-30T12:17:18.984Z</time></trkpt><trkpt lat="42.1047273" lon="12.3642673"><ele>257.5</ele><time>2026-04-30T12:17:19.984Z</time></trkpt><trkpt lat="42.104454" lon="12.3644271"><ele>260.0</ele><time>2026-04-30T12:17:20.985Z</time></trkpt><trkpt lat="42.104178" lon="12.3645865"><ele>264.0</ele><time>2026-04-30T12:17:21.985Z</time></trkpt><trkpt lat="42.1039123" lon="12.3647367"><ele>268.0</ele><time>2026-04-30T12:17:22.985Z</time></trkpt><trkpt lat="42.1036328" lon="12.3648877"><ele>268.0</ele><time>2026-04-30T12:17:23.984Z</time></trkpt><trkpt lat="42.1033396" lon="12.3650489"><ele>268.0</ele><time>2026-04-30T12:17:24.985Z</time></trkpt><trkpt lat="42.1030483" lon="12.3652067"><ele>270.5</ele><time>2026-04-30T12:17:25.985Z</time></trkpt><trkpt lat="42.1027642" lon="12.3653576"><ele>273.0</ele><time>2026-04-30T12:17:26.984Z</time></trkpt><trkpt lat="42.1024951" lon="12.3655113"><ele>273.0</ele><time>2026-04-30T12:17:27.985Z</time></trkpt><trkpt lat="42.1022274" lon="12.3656715"><ele>273.0</ele><time>2026-04-30T12:17:28.984Z</time></trkpt><trkpt lat="42.1019629" lon="12.3658251"><ele>273.0</ele><time>2026-04-30T12:17:29.985Z</time></trkpt><trkpt lat="42.1016995" lon="12.3659777"><ele>273.0</ele><time>2026-04-30T12:17:30.984Z</time></trkpt><trkpt lat="42.1014394" lon="12.3661293"><ele>272.5</ele><time>2026-04-30T12:17:31.984Z</time></trkpt><trkpt lat="42.101185" lon="12.3662801"><ele>272.0</ele><time>2026-04-30T12:17:32.984Z</time></trkpt><trkpt lat="42.1009245" lon="12.3664319"><ele>277.0</ele><time>2026-04-30T12:17:33.984Z</time></trkpt><trkpt lat="42.1006741" lon="12.3665919"><ele>282.0</ele><time>2026-04-30T12:17:34.985Z</time></trkpt><trkpt lat="42.1004243" lon="12.3667505"><ele>282.0</ele><time>2026-04-30T12:17:35.985Z</time></trkpt><trkpt lat="42.1001777" lon="12.3669074"><ele>282.0</ele><time>2026-04-30T12:17:36.984Z</time></trkpt><trkpt lat="42.0999364" lon="12.3670613"><ele>284.5</ele><time>2026-04-30T12:17:37.984Z</time></trkpt><trkpt lat="42.0996868" lon="12.3672131"><ele>287.0</ele><time>2026-04-30T12:17:38.985Z</time></trkpt><trkpt lat="42.0994412" lon="12.3673648"><ele>287.0</ele><time>2026-04-30T12:17:39.985Z</time></trkpt><trkpt lat="42.0991917" lon="12.367511"><ele>287.0</ele><time>2026-04-30T12:17:40.984Z</time></trkpt><trkpt lat="42.098937" lon="12.3676381"><ele>286.5</ele><time>2026-04-30T12:17:41.985Z</time></trkpt><trkpt lat="42.0986748" lon="12.3677282"><ele>286.0</ele><time>2026-04-30T12:17:42.985Z</time></trkpt><trkpt lat="42.0984058" lon="12.3677914"><ele>289.0</ele><time>2026-04-30T12:17:43.984Z</time></trkpt><trkpt lat="42.0981316" lon="12.3678292"><ele>292.0</ele><time>2026-04-30T12:17:44.985Z</time></trkpt><trkpt lat="42.0978587" lon="12.3678365"><ele>292.0</ele><time>2026-04-30T12:17:45.984Z</time></trkpt><trkpt lat="42.0975911" lon="12.3678144"><ele>292.0</ele><time>2026-04-30T12:17:46.985Z</time></trkpt><trkpt lat="42.0973191" lon="12.367771"><ele>294.5</ele><time>2026-04-30T12:17:47.984Z</time></trkpt><trkpt lat="42.0970471" lon="12.3677041"><ele>297.0</ele><time>2026-04-30T12:17:48.984Z</time></trkpt><trkpt lat="42.0967765" lon="12.367632"><ele>302.0</ele><time>2026-04-30T12:17:49.984Z</time></trkpt><trkpt lat="42.0965031" lon="12.3675545"><ele>307.0</ele><time>2026-04-30T12:17:50.984Z</time></trkpt><trkpt lat="42.0962312" lon="12.3674762"><ele>307.0</ele><time>2026-04-30T12:17:51.985Z</time></trkpt><trkpt lat="42.0959595" lon="12.3673979"><ele>307.0</ele><time>2026-04-30T12:17:52.984Z</time></trkpt><trkpt lat="42.095688" lon="12.3673368"><ele>306.0</ele><time>2026-04-30T12:17:53.984Z</time></trkpt><trkpt lat="42.0954147" lon="12.3672901"><ele>305.0</ele><time>2026-04-30T12:17:54.984Z</time></trkpt><trkpt lat="42.0951405" lon="12.3672639"><ele>302.5</ele><time>2026-04-30T12:17:55.984Z</time></trkpt><trkpt lat="42.0948599" lon="12.3672623"><ele>300.0</ele><time>2026-04-30T12:17:56.985Z</time></trkpt><trkpt lat="42.0945878" lon="12.3672908"><ele>300.0</ele><time>2026-04-30T12:17:57.984Z</time></trkpt><trkpt lat="42.0943163" lon="12.3673412"><ele>300.0</ele><time>2026-04-30T12:17:58.984Z</time></trkpt><trkpt lat="42.0940454" lon="12.3674199"><ele>296.5</ele><time>2026-04-30T12:17:59.984Z</time></trkpt><trkpt lat="42.0937846" lon="12.3675356"><ele>293.0</ele><time>2026-04-30T12:18:00.984Z</time></trkpt><trkpt lat="42.0935235" lon="12.3676846"><ele>293.0</ele><time>2026-04-30T12:18:01.984Z</time></trkpt><trkpt lat="42.0932661" lon="12.3678569"><ele>293.0</ele><time>2026-04-30T12:18:02.984Z</time></trkpt><trkpt lat="42.0930157" lon="12.3680502"><ele>289.5</ele><time>2026-04-30T12:18:03.984Z</time></trkpt><trkpt lat="42.0927739" lon="12.3682675"><ele>286.0</ele><time>2026-04-30T12:18:04.984Z</time></trkpt><trkpt lat="42.0925422" lon="12.3685256"><ele>283.0</ele><time>2026-04-30T12:18:05.984Z</time></trkpt><trkpt lat="42.0923257" lon="12.3688041"><ele>280.0</ele><time>2026-04-30T12:18:06.985Z</time></trkpt><trkpt lat="42.0921189" lon="12.3690917"><ele>278.0</ele><time>2026-04-30T12:18:07.984Z</time></trkpt><trkpt lat="42.0919095" lon="12.3693867"><ele>276.0</ele><time>2026-04-30T12:18:08.984Z</time></trkpt><trkpt lat="42.0916966" lon="12.369684"><ele>274.5</ele><time>2026-04-30T12:18:09.985Z</time></trkpt><trkpt lat="42.0914794" lon="12.3699843"><ele>273.0</ele><time>2026-04-30T12:18:10.984Z</time></trkpt><trkpt lat="42.0912601" lon="12.3702798"><ele>273.5</ele><time>2026-04-30T12:18:11.985Z</time></trkpt><trkpt lat="42.0910435" lon="12.3705731"><ele>274.0</ele><time>2026-04-30T12:18:12.984Z</time></trkpt><trkpt lat="42.0908278" lon="12.3708728"><ele>273.0</ele><time>2026-04-30T12:18:13.984Z</time></trkpt><trkpt lat="42.0906101" lon="12.3711754"><ele>272.0</ele><time>2026-04-30T12:18:14.984Z</time></trkpt><trkpt lat="42.0903929" lon="12.37148"><ele>271.0</ele><time>2026-04-30T12:18:15.985Z</time></trkpt><trkpt lat="42.0901677" lon="12.3717812"><ele>270.0</ele><time>2026-04-30T12:18:16.984Z</time></trkpt><trkpt lat="42.0899429" lon="12.37208"><ele>268.0</ele><time>2026-04-30T12:18:17.985Z</time></trkpt><trkpt lat="42.0897193" lon="12.372377"><ele>266.0</ele><time>2026-04-30T12:18:18.984Z</time></trkpt><trkpt lat="42.0895043" lon="12.3726696"><ele>266.0</ele><time>2026-04-30T12:18:19.984Z</time></trkpt><trkpt lat="42.089285" lon="12.372956"><ele>266.0</ele><time>2026-04-30T12:18:20.984Z</time></trkpt><trkpt lat="42.0890457" lon="12.3732254"><ele>268.5</ele><time>2026-04-30T12:18:21.984Z</time></trkpt><trkpt lat="42.0887786" lon="12.3734719"><ele>271.0</ele><time>2026-04-30T12:18:22.984Z</time></trkpt><trkpt lat="42.0884845" lon="12.3736837"><ele>271.0</ele><time>2026-04-30T12:18:23.984Z</time></trkpt><trkpt lat="42.0881602" lon="12.3738437"><ele>271.0</ele><time>2026-04-30T12:18:24.984Z</time></trkpt><trkpt lat="42.0878182" lon="12.3739571"><ele>272.5</ele><time>2026-04-30T12:18:25.984Z</time></trkpt><trkpt lat="42.0874707" lon="12.374032"><ele>274.0</ele><time>2026-04-30T12:18:26.984Z</time></trkpt><trkpt lat="42.087125" lon="12.3740706"><ele>271.5</ele><time>2026-04-30T12:18:27.984Z</time></trkpt><trkpt lat="42.0867905" lon="12.3740756"><ele>269.0</ele><time>2026-04-30T12:18:28.984Z</time></trkpt><trkpt lat="42.0864661" lon="12.3740525"><ele>269.0</ele><time>2026-04-30T12:18:29.984Z</time></trkpt><trkpt lat="42.0861442" lon="12.37401"><ele>269.0</ele><time>2026-04-30T12:18:30.984Z</time></trkpt><trkpt lat="42.0858244" lon="12.373972"><ele>273.0</ele><time>2026-04-30T12:18:31.985Z</time></trkpt><trkpt lat="42.0855073" lon="12.3739314"><ele>277.0</ele><time>2026-04-30T12:18:32.984Z</time></trkpt><trkpt lat="42.0851946" lon="12.3738868"><ele>274.5</ele><time>2026-04-30T12:18:33.985Z</time></trkpt><trkpt lat="42.0848773" lon="12.3738454"><ele>272.0</ele><time>2026-04-30T12:18:34.984Z</time></trkpt><trkpt lat="42.0845584" lon="12.3738094"><ele>272.0</ele><time>2026-04-30T12:18:35.984Z</time></trkpt><trkpt lat="42.0842469" lon="12.3737743"><ele>272.0</ele><time>2026-04-30T12:18:36.985Z</time></trkpt><trkpt lat="42.0839392" lon="12.3737415"><ele>272.0</ele><time>2026-04-30T12:18:37.985Z</time></trkpt><trkpt lat="42.083628" lon="12.3737049"><ele>272.0</ele><time>2026-04-30T12:18:38.984Z</time></trkpt><trkpt lat="42.0833123" lon="12.3736628"><ele>272.0</ele><time>2026-04-30T12:18:39.984Z</time></trkpt><trkpt lat="42.0829958" lon="12.3736242"><ele>272.0</ele><time>2026-04-30T12:18:40.984Z</time></trkpt><trkpt lat="42.0826852" lon="12.373586"><ele>268.5</ele><time>2026-04-30T12:18:41.984Z</time></trkpt><trkpt lat="42.0823743" lon="12.3735472"><ele>265.0</ele><time>2026-04-30T12:18:42.984Z</time></trkpt><trkpt lat="42.0820617" lon="12.3735038"><ele>265.0</ele><time>2026-04-30T12:18:43.984Z</time></trkpt><trkpt lat="42.0817568" lon="12.3734624"><ele>265.0</ele><time>2026-04-30T12:18:44.984Z</time></trkpt><trkpt lat="42.0814534" lon="12.3734231"><ele>262.0</ele><time>2026-04-30T12:18:45.984Z</time></trkpt><trkpt lat="42.0811504" lon="12.3733845"><ele>259.0</ele><time>2026-04-30T12:18:46.984Z</time></trkpt><trkpt lat="42.0808485" lon="12.3733415"><ele>257.5</ele><time>2026-04-30T12:18:47.984Z</time></trkpt><trkpt lat="42.0805466" lon="12.3733097"><ele>256.0</ele><time>2026-04-30T12:18:48.984Z</time></trkpt><trkpt lat="42.0802425" lon="12.373278"><ele>256.0</ele><time>2026-04-30T12:18:49.985Z</time></trkpt><trkpt lat="42.0799353" lon="12.3732463"><ele>256.0</ele><time>2026-04-30T12:18:50.984Z</time></trkpt><trkpt lat="42.0796321" lon="12.3732145"><ele>251.0</ele><time>2026-04-30T12:18:51.985Z</time></trkpt><trkpt lat="42.0793254" lon="12.3731739"><ele>246.0</ele><time>2026-04-30T12:18:52.984Z</time></trkpt><trkpt lat="42.0790246" lon="12.3731382"><ele>243.5</ele><time>2026-04-30T12:18:53.984Z</time></trkpt><trkpt lat="42.0787244" lon="12.3730995"><ele>241.0</ele><time>2026-04-30T12:18:54.985Z</time></trkpt><trkpt lat="42.0784198" lon="12.3730624"><ele>239.0</ele><time>2026-04-30T12:18:55.984Z</time></trkpt><trkpt lat="42.0781151" lon="12.3730345"><ele>237.0</ele><time>2026-04-30T12:18:56.985Z</time></trkpt><trkpt lat="42.0778093" lon="12.3730007"><ele>234.5</ele><time>2026-04-30T12:18:57.984Z</time></trkpt><trkpt lat="42.0775041" lon="12.3729707"><ele>232.0</ele><time>2026-04-30T12:18:58.984Z</time></trkpt><trkpt lat="42.0772003" lon="12.372935"><ele>229.0</ele><time>2026-04-30T12:18:59.985Z</time></trkpt><trkpt lat="42.0768936" lon="12.3728974"><ele>226.0</ele><time>2026-04-30T12:19:00.985Z</time></trkpt><trkpt lat="42.0765918" lon="12.3728618"><ele>225.0</ele><time>2026-04-30T12:19:01.984Z</time></trkpt><trkpt lat="42.0762883" lon="12.3728243"><ele>224.0</ele><time>2026-04-30T12:19:02.984Z</time></trkpt><trkpt lat="42.0759872" lon="12.3727862"><ele>221.5</ele><time>2026-04-30T12:19:03.984Z</time></trkpt><trkpt lat="42.0756853" lon="12.3727469"><ele>219.0</ele><time>2026-04-30T12:19:04.984Z</time></trkpt><trkpt lat="42.0753833" lon="12.372716"><ele>219.0</ele><time>2026-04-30T12:19:05.985Z</time></trkpt><trkpt lat="42.0750789" lon="12.3726778"><ele>219.0</ele><time>2026-04-30T12:19:06.985Z</time></trkpt><trkpt lat="42.0747774" lon="12.3726486"><ele>217.5</ele><time>2026-04-30T12:19:07.985Z</time></trkpt><trkpt lat="42.0744724" lon="12.3726223"><ele>216.0</ele><time>2026-04-30T12:19:08.984Z</time></trkpt><trkpt lat="42.0741642" lon="12.3726037"><ele>215.0</ele><time>2026-04-30T12:19:09.984Z</time></trkpt><trkpt lat="42.0738616" lon="12.3725899"><ele>214.0</ele><time>2026-04-30T12:19:10.984Z</time></trkpt><trkpt lat="42.0735599" lon="12.3725887"><ele>213.5</ele><time>2026-04-30T12:19:11.985Z</time></trkpt><trkpt lat="42.0732626" lon="12.3725918"><ele>213.0</ele><time>2026-04-30T12:19:12.984Z</time></trkpt><trkpt lat="42.0729637" lon="12.3725974"><ele>213.0</ele><time>2026-04-30T12:19:13.984Z</time></trkpt><trkpt lat="42.0726675" lon="12.3726048"><ele>213.0</ele><time>2026-04-30T12:19:14.984Z</time></trkpt><trkpt lat="42.072367" lon="12.372605"><ele>211.0</ele><time>2026-04-30T12:19:15.984Z</time></trkpt><trkpt lat="42.0720646" lon="12.3726073"><ele>209.0</ele><time>2026-04-30T12:19:16.985Z</time></trkpt><trkpt lat="42.0717631" lon="12.3726091"><ele>205.0</ele><time>2026-04-30T12:19:17.984Z</time></trkpt><trkpt lat="42.0714558" lon="12.372611"><ele>201.0</ele><time>2026-04-30T12:19:18.984Z</time></trkpt><trkpt lat="42.0711517" lon="12.3726139"><ele>201.0</ele><time>2026-04-30T12:19:19.984Z</time></trkpt><trkpt lat="42.070852" lon="12.3726174"><ele>201.0</ele><time>2026-04-30T12:19:20.984Z</time></trkpt><trkpt lat="42.0705592" lon="12.3726127"><ele>198.0</ele><time>2026-04-30T12:19:21.985Z</time></trkpt><trkpt lat="42.0702629" lon="12.3726129"><ele>195.0</ele><time>2026-04-30T12:19:22.984Z</time></trkpt><trkpt lat="42.0699671" lon="12.3726131"><ele>193.0</ele><time>2026-04-30T12:19:23.984Z</time></trkpt><trkpt lat="42.0696684" lon="12.3726144"><ele>191.0</ele><time>2026-04-30T12:19:24.985Z</time></trkpt><trkpt lat="42.0693688" lon="12.3726182"><ele>189.5</ele><time>2026-04-30T12:19:25.984Z</time></trkpt><trkpt lat="42.0690666" lon="12.3726262"><ele>188.0</ele><time>2026-04-30T12:19:26.984Z</time></trkpt><trkpt lat="42.0687706" lon="12.3726264"><ele>188.0</ele><time>2026-04-30T12:19:27.984Z</time></trkpt><trkpt lat="42.068479" lon="12.3726267"><ele>188.0</ele><time>2026-04-30T12:19:28.984Z</time></trkpt><trkpt lat="42.0681805" lon="12.3726289"><ele>186.5</ele><time>2026-04-30T12:19:29.985Z</time></trkpt><trkpt lat="42.0678787" lon="12.3726296"><ele>185.0</ele><time>2026-04-30T12:19:30.984Z</time></trkpt><trkpt lat="42.0675812" lon="12.3726321"><ele>183.0</ele><time>2026-04-30T12:19:31.984Z</time></trkpt><trkpt lat="42.0672796" lon="12.3726352"><ele>181.0</ele><time>2026-04-30T12:19:32.985Z</time></trkpt><trkpt lat="42.0669792" lon="12.372652"><ele>181.0</ele><time>2026-04-30T12:19:33.984Z</time></trkpt><trkpt lat="42.0666763" lon="12.37267"><ele>181.0</ele><time>2026-04-30T12:19:34.985Z</time></trkpt><trkpt lat="42.0663744" lon="12.3726869"><ele>179.5</ele><time>2026-04-30T12:19:35.984Z</time></trkpt><trkpt lat="42.0660691" lon="12.3727025"><ele>178.0</ele><time>2026-04-30T12:19:36.984Z</time></trkpt><trkpt lat="42.0657696" lon="12.372711"><ele>177.0</ele><time>2026-04-30T12:19:37.984Z</time></trkpt><trkpt lat="42.0654699" lon="12.3727194"><ele>176.0</ele><time>2026-04-30T12:19:38.984Z</time></trkpt><trkpt lat="42.0651782" lon="12.3727265"><ele>173.0</ele><time>2026-04-30T12:19:39.984Z</time></trkpt><trkpt lat="42.0649005" lon="12.372732"><ele>170.0</ele><time>2026-04-30T12:19:40.984Z</time></trkpt><trkpt lat="42.0646343" lon="12.3727427"><ele>170.0</ele><time>2026-04-30T12:19:41.985Z</time></trkpt><trkpt lat="42.0643894" lon="12.3727591"><ele>170.0</ele><time>2026-04-30T12:19:42.984Z</time></trkpt><trkpt lat="42.0641595" lon="12.3727719"><ele>170.0</ele><time>2026-04-30T12:19:43.985Z</time></trkpt><trkpt lat="42.0639391" lon="12.3727848"><ele>170.0</ele><time>2026-04-30T12:19:44.984Z</time></trkpt><trkpt lat="42.0637241" lon="12.372799"><ele>170.0</ele><time>2026-04-30T12:19:45.984Z</time></trkpt><trkpt lat="42.06351" lon="12.3728114"><ele>170.0</ele><time>2026-04-30T12:19:46.984Z</time></trkpt><trkpt lat="42.0632978" lon="12.3728249"><ele>170.0</ele><time>2026-04-30T12:19:47.984Z</time></trkpt><trkpt lat="42.0630776" lon="12.3728417"><ele>170.0</ele><time>2026-04-30T12:19:48.984Z</time></trkpt><trkpt lat="42.0628609" lon="12.3728523"><ele>169.33333333333331</ele><time>2026-04-30T12:19:49.984Z</time></trkpt><trkpt lat="42.0626411" lon="12.3728686"><ele>168.66666666666666</ele><time>2026-04-30T12:19:50.984Z</time></trkpt><trkpt lat="42.0624246" lon="12.3728835"><ele>168.0</ele><time>2026-04-30T12:19:51.984Z</time></trkpt><trkpt lat="42.0622078" lon="12.3729019"><ele>167.0</ele><time>2026-04-30T12:19:52.985Z</time></trkpt><trkpt lat="42.0619844" lon="12.3729146"><ele>166.0</ele><time>2026-04-30T12:19:53.984Z</time></trkpt><trkpt lat="42.0617526" lon="12.3729302"><ele>166.5</ele><time>2026-04-30T12:19:54.984Z</time></trkpt><trkpt lat="42.06152" lon="12.3729455"><ele>167.0</ele><time>2026-04-30T12:19:55.984Z</time></trkpt><trkpt lat="42.0612766" lon="12.372959"><ele>167.0</ele><time>2026-04-30T12:19:56.985Z</time></trkpt><trkpt lat="42.0610222" lon="12.3729581"><ele>167.0</ele><time>2026-04-30T12:19:57.985Z</time></trkpt><trkpt lat="42.060767" lon="12.3729492"><ele>167.0</ele><time>2026-04-30T12:19:58.984Z</time></trkpt><trkpt lat="42.0605046" lon="12.372933"><ele>167.0</ele><time>2026-04-30T12:19:59.984Z</time></trkpt><trkpt lat="42.0602402" lon="12.3729077"><ele>167.0</ele><time>2026-04-30T12:20:00.984Z</time></trkpt><trkpt lat="42.0599706" lon="12.3728847"><ele>167.0</ele><time>2026-04-30T12:20:01.985Z</time></trkpt><trkpt lat="42.0596985" lon="12.3728621"><ele>165.5</ele><time>2026-04-30T12:20:02.984Z</time></trkpt><trkpt lat="42.0594244" lon="12.3728286"><ele>164.0</ele><time>2026-04-30T12:20:03.985Z</time></trkpt><trkpt lat="42.0591472" lon="12.372794"><ele>161.5</ele><time>2026-04-30T12:20:04.984Z</time></trkpt><trkpt lat="42.058866" lon="12.3727613"><ele>159.0</ele><time>2026-04-30T12:20:05.984Z</time></trkpt><trkpt lat="42.0585825" lon="12.3727327"><ele>159.0</ele><time>2026-04-30T12:20:06.985Z</time></trkpt><trkpt lat="42.0582982" lon="12.3727087"><ele>159.0</ele><time>2026-04-30T12:20:07.984Z</time></trkpt><trkpt lat="42.058013" lon="12.372684"><ele>158.5</ele><time>2026-04-30T12:20:08.984Z</time></trkpt><trkpt lat="42.0577238" lon="12.372661"><ele>158.0</ele><time>2026-04-30T12:20:09.984Z</time></trkpt><trkpt lat="42.0574361" lon="12.3726391"><ele>157.0</ele><time>2026-04-30T12:20:10.984Z</time></trkpt><trkpt lat="42.0571487" lon="12.3726215"><ele>156.0</ele><time>2026-04-30T12:20:11.984Z</time></trkpt><trkpt lat="42.0568564" lon="12.3726102"><ele>155.0</ele><time>2026-04-30T12:20:12.984Z</time></trkpt><trkpt lat="42.0565541" lon="12.3726229"><ele>154.0</ele><time>2026-04-30T12:20:13.984Z</time></trkpt><trkpt lat="42.0562452" lon="12.3726612"><ele>154.0</ele><time>2026-04-30T12:20:14.984Z</time></trkpt><trkpt lat="42.0559374" lon="12.3727276"><ele>154.0</ele><time>2026-04-30T12:20:15.984Z</time></trkpt><trkpt lat="42.0556368" lon="12.3728226"><ele>152.5</ele><time>2026-04-30T12:20:16.984Z</time></trkpt><trkpt lat="42.0553388" lon="12.3729483"><ele>151.0</ele><time>2026-04-30T12:20:17.984Z</time></trkpt><trkpt lat="42.0550445" lon="12.3731081"><ele>150.5</ele><time>2026-04-30T12:20:18.985Z</time></trkpt><trkpt lat="42.0547626" lon="12.3733008"><ele>150.0</ele><time>2026-04-30T12:20:19.985Z</time></trkpt><trkpt lat="42.0544937" lon="12.3735272"><ele>150.0</ele><time>2026-04-30T12:20:20.984Z</time></trkpt><trkpt lat="42.0542456" lon="12.3737849"><ele>150.0</ele><time>2026-04-30T12:20:21.984Z</time></trkpt><trkpt lat="42.0540096" lon="12.3740572"><ele>150.0</ele><time>2026-04-30T12:20:22.984Z</time></trkpt><trkpt lat="42.0537919" lon="12.3743544"><ele>150.0</ele><time>2026-04-30T12:20:23.985Z</time></trkpt><trkpt lat="42.0535966" lon="12.3746819"><ele>149.0</ele><time>2026-04-30T12:20:24.985Z</time></trkpt><trkpt lat="42.0534154" lon="12.375027"><ele>148.0</ele><time>2026-04-30T12:20:25.985Z</time></trkpt><trkpt lat="42.0532395" lon="12.3753778"><ele>147.0</ele><time>2026-04-30T12:20:26.984Z</time></trkpt><trkpt lat="42.0530673" lon="12.3757239"><ele>146.0</ele><time>2026-04-30T12:20:27.984Z</time></trkpt><trkpt lat="42.0528883" lon="12.3760646"><ele>146.0</ele><time>2026-04-30T12:20:28.985Z</time></trkpt><trkpt lat="42.0527039" lon="12.3764036"><ele>146.0</ele><time>2026-04-30T12:20:29.984Z</time></trkpt><trkpt lat="42.0525214" lon="12.3767433"><ele>146.0</ele><time>2026-04-30T12:20:30.985Z</time></trkpt><trkpt lat="42.0523383" lon="12.3770844"><ele>146.0</ele><time>2026-04-30T12:20:31.984Z</time></trkpt><trkpt lat="42.0521575" lon="12.3774258"><ele>145.0</ele><time>2026-04-30T12:20:32.985Z</time></trkpt><trkpt lat="42.0519767" lon="12.3777601"><ele>144.0</ele><time>2026-04-30T12:20:33.985Z</time></trkpt><trkpt lat="42.0517982" lon="12.3780933"><ele>141.5</ele><time>2026-04-30T12:20:34.985Z</time></trkpt><trkpt lat="42.0516209" lon="12.3784302"><ele>139.0</ele><time>2026-04-30T12:20:35.984Z</time></trkpt><trkpt lat="42.051442" lon="12.3787705"><ele>139.0</ele><time>2026-04-30T12:20:36.984Z</time></trkpt><trkpt lat="42.0512669" lon="12.3791103"><ele>139.0</ele><time>2026-04-30T12:20:37.984Z</time></trkpt><trkpt lat="42.0510926" lon="12.3794443"><ele>139.0</ele><time>2026-04-30T12:20:38.985Z</time></trkpt><trkpt lat="42.0509217" lon="12.379777"><ele>139.0</ele><time>2026-04-30T12:20:39.984Z</time></trkpt><trkpt lat="42.0507498" lon="12.3801067"><ele>139.0</ele><time>2026-04-30T12:20:40.984Z</time></trkpt><trkpt lat="42.0505769" lon="12.3804338"><ele>139.0</ele><time>2026-04-30T12:20:41.985Z</time></trkpt><trkpt lat="42.0504025" lon="12.3807627"><ele>139.5</ele><time>2026-04-30T12:20:42.984Z</time></trkpt><trkpt lat="42.0502206" lon="12.3810922"><ele>140.0</ele><time>2026-04-30T12:20:43.984Z</time></trkpt><trkpt lat="42.0500388" lon="12.3814184"><ele>139.5</ele><time>2026-04-30T12:20:44.984Z</time></trkpt><trkpt lat="42.0498621" lon="12.3817398"><ele>139.0</ele><time>2026-04-30T12:20:45.984Z</time></trkpt><trkpt lat="42.0496952" lon="12.3820599"><ele>132.0</ele><time>2026-04-30T12:20:46.984Z</time></trkpt><trkpt lat="42.0495298" lon="12.3823894"><ele>125.0</ele><time>2026-04-30T12:20:47.985Z</time></trkpt><trkpt lat="42.0493624" lon="12.3827174"><ele>121.0</ele><time>2026-04-30T12:20:48.984Z</time></trkpt><trkpt lat="42.0491952" lon="12.3830514"><ele>117.0</ele><time>2026-04-30T12:20:49.985Z</time></trkpt><trkpt lat="42.0490355" lon="12.3833896"><ele>117.0</ele><time>2026-04-30T12:20:50.985Z</time></trkpt><trkpt lat="42.0488743" lon="12.3837338"><ele>117.0</ele><time>2026-04-30T12:20:51.984Z</time></trkpt><trkpt lat="42.0487151" lon="12.3840798"><ele>111.5</ele><time>2026-04-30T12:20:52.984Z</time></trkpt><trkpt lat="42.0485649" lon="12.3844313"><ele>106.0</ele><time>2026-04-30T12:20:53.984Z</time></trkpt><trkpt lat="42.0484234" lon="12.3847891"><ele>106.0</ele><time>2026-04-30T12:20:54.984Z</time></trkpt><trkpt lat="42.0482898" lon="12.3851523"><ele>106.0</ele><time>2026-04-30T12:20:55.985Z</time></trkpt><trkpt lat="42.0481605" lon="12.3855117"><ele>106.0</ele><time>2026-04-30T12:20:56.984Z</time></trkpt><trkpt lat="42.0480294" lon="12.3858781"><ele>106.0</ele><time>2026-04-30T12:20:57.985Z</time></trkpt><trkpt lat="42.0479021" lon="12.3862391"><ele>106.0</ele><time>2026-04-30T12:20:58.984Z</time></trkpt><trkpt lat="42.047781" lon="12.3866022"><ele>106.0</ele><time>2026-04-30T12:20:59.985Z</time></trkpt><trkpt lat="42.0476659" lon="12.3869686"><ele>105.0</ele><time>2026-04-30T12:21:00.984Z</time></trkpt><trkpt lat="42.0475502" lon="12.3873412"><ele>104.0</ele><time>2026-04-30T12:21:01.984Z</time></trkpt><trkpt lat="42.0474391" lon="12.3877094"><ele>104.5</ele><time>2026-04-30T12:21:02.984Z</time></trkpt><trkpt lat="42.0473303" lon="12.3880736"><ele>105.0</ele><time>2026-04-30T12:21:03.984Z</time></trkpt><trkpt lat="42.0472279" lon="12.3884388"><ele>105.0</ele><time>2026-04-30T12:21:04.984Z</time></trkpt><trkpt lat="42.0471331" lon="12.3888114"><ele>105.0</ele><time>2026-04-30T12:21:05.985Z</time></trkpt><trkpt lat="42.0470419" lon="12.3891826"><ele>107.0</ele><time>2026-04-30T12:21:06.985Z</time></trkpt><trkpt lat="42.0469471" lon="12.389554"><ele>109.0</ele><time>2026-04-30T12:21:07.984Z</time></trkpt><trkpt lat="42.0468511" lon="12.3899167"><ele>111.0</ele><time>2026-04-30T12:21:08.985Z</time></trkpt><trkpt lat="42.0467556" lon="12.3902892"><ele>113.0</ele><time>2026-04-30T12:21:09.984Z</time></trkpt><trkpt lat="42.0466519" lon="12.3906551"><ele>116.5</ele><time>2026-04-30T12:21:10.985Z</time></trkpt><trkpt lat="42.0465518" lon="12.3910244"><ele>120.0</ele><time>2026-04-30T12:21:11.985Z</time></trkpt><trkpt lat="42.0464612" lon="12.3913943"><ele>123.5</ele><time>2026-04-30T12:21:12.984Z</time></trkpt><trkpt lat="42.0463751" lon="12.3917635"><ele>127.0</ele><time>2026-04-30T12:21:13.985Z</time></trkpt><trkpt lat="42.046288" lon="12.3921274"><ele>128.5</ele><time>2026-04-30T12:21:14.984Z</time></trkpt><trkpt lat="42.0462067" lon="12.3924823"><ele>130.0</ele><time>2026-04-30T12:21:15.984Z</time></trkpt><trkpt lat="42.0461218" lon="12.3928428"><ele>129.0</ele><time>2026-04-30T12:21:16.984Z</time></trkpt><trkpt lat="42.046027" lon="12.3932156"><ele>128.0</ele><time>2026-04-30T12:21:17.984Z</time></trkpt><trkpt lat="42.0459337" lon="12.3935912"><ele>126.5</ele><time>2026-04-30T12:21:18.985Z</time></trkpt><trkpt lat="42.0458401" lon="12.3939618"><ele>125.0</ele><time>2026-04-30T12:21:19.984Z</time></trkpt><trkpt lat="42.0457532" lon="12.3943146"><ele>125.0</ele><time>2026-04-30T12:21:20.985Z</time></trkpt><trkpt lat="42.0456641" lon="12.3946498"><ele>125.0</ele><time>2026-04-30T12:21:21.983Z</time></trkpt><trkpt lat="42.0455727" lon="12.3949837"><ele>125.0</ele><time>2026-04-30T12:21:22.983Z</time></trkpt><trkpt lat="42.0454791" lon="12.395341"><ele>125.0</ele><time>2026-04-30T12:21:23.984Z</time></trkpt><trkpt lat="42.0453646" lon="12.395708"><ele>124.5</ele><time>2026-04-30T12:21:24.983Z</time></trkpt><trkpt lat="42.0452529" lon="12.3960805"><ele>124.0</ele><time>2026-04-30T12:21:25.984Z</time></trkpt><trkpt lat="42.0451525" lon="12.3964629"><ele>123.5</ele><time>2026-04-30T12:21:26.983Z</time></trkpt><trkpt lat="42.0450656" lon="12.3968456"><ele>123.0</ele><time>2026-04-30T12:21:27.983Z</time></trkpt><trkpt lat="42.0449865" lon="12.3972396"><ele>122.5</ele><time>2026-04-30T12:21:28.983Z</time></trkpt><trkpt lat="42.0449203" lon="12.3976324"><ele>122.0</ele><time>2026-04-30T12:21:29.983Z</time></trkpt><trkpt lat="42.0448701" lon="12.3980154"><ele>122.0</ele><time>2026-04-30T12:21:30.983Z</time></trkpt><trkpt lat="42.0448285" lon="12.39838"><ele>122.0</ele><time>2026-04-30T12:21:31.983Z</time></trkpt><trkpt lat="42.0447957" lon="12.3987421"><ele>122.0</ele><time>2026-04-30T12:21:32.983Z</time></trkpt><trkpt lat="42.0447653" lon="12.3991048"><ele>122.0</ele><time>2026-04-30T12:21:33.983Z</time></trkpt><trkpt lat="42.0447461" lon="12.3994701"><ele>123.0</ele><time>2026-04-30T12:21:34.983Z</time></trkpt><trkpt lat="42.0447348" lon="12.3998346"><ele>124.0</ele><time>2026-04-30T12:21:35.983Z</time></trkpt><trkpt lat="42.0447274" lon="12.4001911"><ele>123.5</ele><time>2026-04-30T12:21:36.984Z</time></trkpt><trkpt lat="42.0447279" lon="12.4005499"><ele>123.0</ele><time>2026-04-30T12:21:37.983Z</time></trkpt><trkpt lat="42.0447363" lon="12.4009079"><ele>123.0</ele><time>2026-04-30T12:21:38.983Z</time></trkpt><trkpt lat="42.0447472" lon="12.4012643"><ele>123.0</ele><time>2026-04-30T12:21:39.983Z</time></trkpt><trkpt lat="42.0447553" lon="12.4016257"><ele>120.0</ele><time>2026-04-30T12:21:40.983Z</time></trkpt><trkpt lat="42.0447567" lon="12.4019875"><ele>117.0</ele><time>2026-04-30T12:21:41.984Z</time></trkpt><trkpt lat="42.044757" lon="12.4023592"><ele>114.0</ele><time>2026-04-30T12:21:42.984Z</time></trkpt><trkpt lat="42.0447524" lon="12.402751"><ele>111.0</ele><time>2026-04-30T12:21:43.984Z</time></trkpt><trkpt lat="42.0447378" lon="12.4031567"><ele>110.5</ele><time>2026-04-30T12:21:44.983Z</time></trkpt><trkpt lat="42.0447223" lon="12.4035707"><ele>110.0</ele><time>2026-04-30T12:21:45.984Z</time></trkpt><trkpt lat="42.0447021" lon="12.4039678"><ele>113.5</ele><time>2026-04-30T12:21:46.983Z</time></trkpt><trkpt lat="42.0446726" lon="12.4043556"><ele>117.0</ele><time>2026-04-30T12:21:47.983Z</time></trkpt><trkpt lat="42.0446435" lon="12.4047361"><ele>118.0</ele><time>2026-04-30T12:21:48.983Z</time></trkpt><trkpt lat="42.0446124" lon="12.4051171"><ele>119.0</ele><time>2026-04-30T12:21:49.984Z</time></trkpt><trkpt lat="42.0445805" lon="12.4055011"><ele>116.5</ele><time>2026-04-30T12:21:50.984Z</time></trkpt><trkpt lat="42.0445495" lon="12.4058834"><ele>114.0</ele><time>2026-04-30T12:21:51.983Z</time></trkpt><trkpt lat="42.0445086" lon="12.4062684"><ele>109.5</ele><time>2026-04-30T12:21:52.983Z</time></trkpt><trkpt lat="42.0444566" lon="12.4066446"><ele>105.0</ele><time>2026-04-30T12:21:53.984Z</time></trkpt><trkpt lat="42.0444056" lon="12.4070245"><ele>104.0</ele><time>2026-04-30T12:21:54.983Z</time></trkpt><trkpt lat="42.0443482" lon="12.4074096"><ele>103.0</ele><time>2026-04-30T12:21:55.983Z</time></trkpt><trkpt lat="42.0442925" lon="12.407796"><ele>104.0</ele><time>2026-04-30T12:21:56.984Z</time></trkpt><trkpt lat="42.0442384" lon="12.4081816"><ele>105.0</ele><time>2026-04-30T12:21:57.983Z</time></trkpt><trkpt lat="42.0441836" lon="12.4085738"><ele>102.0</ele><time>2026-04-30T12:21:58.983Z</time></trkpt><trkpt lat="42.0441264" lon="12.4089645"><ele>99.0</ele><time>2026-04-30T12:21:59.983Z</time></trkpt><trkpt lat="42.0440708" lon="12.4093355"><ele>102.0</ele><time>2026-04-30T12:22:00.983Z</time></trkpt><trkpt lat="42.0440138" lon="12.409695"><ele>105.0</ele><time>2026-04-30T12:22:01.983Z</time></trkpt><trkpt lat="42.0439582" lon="12.4100508"><ele>105.0</ele><time>2026-04-30T12:22:02.983Z</time></trkpt><trkpt lat="42.0439015" lon="12.4104203"><ele>105.0</ele><time>2026-04-30T12:22:03.984Z</time></trkpt><trkpt lat="42.0438435" lon="12.4107981"><ele>106.5</ele><time>2026-04-30T12:22:04.984Z</time></trkpt><trkpt lat="42.0437875" lon="12.4111846"><ele>108.0</ele><time>2026-04-30T12:22:05.983Z</time></trkpt><trkpt lat="42.0437323" lon="12.4115658"><ele>108.0</ele><time>2026-04-30T12:22:06.984Z</time></trkpt><trkpt lat="42.043675" lon="12.4119484"><ele>108.0</ele><time>2026-04-30T12:22:07.983Z</time></trkpt><trkpt lat="42.0436181" lon="12.4123222"><ele>107.5</ele><time>2026-04-30T12:22:08.983Z</time></trkpt><trkpt lat="42.0435648" lon="12.412704"><ele>107.0</ele><time>2026-04-30T12:22:09.983Z</time></trkpt><trkpt lat="42.0435125" lon="12.4130866"><ele>107.5</ele><time>2026-04-30T12:22:10.983Z</time></trkpt><trkpt lat="42.0434583" lon="12.41347"><ele>108.0</ele><time>2026-04-30T12:22:11.984Z</time></trkpt><trkpt lat="42.043408" lon="12.4138549"><ele>108.0</ele><time>2026-04-30T12:22:12.984Z</time></trkpt><trkpt lat="42.0433487" lon="12.4142434"><ele>108.0</ele><time>2026-04-30T12:22:13.983Z</time></trkpt><trkpt lat="42.0432932" lon="12.414627"><ele>107.5</ele><time>2026-04-30T12:22:14.983Z</time></trkpt><trkpt lat="42.0432345" lon="12.4150092"><ele>107.0</ele><time>2026-04-30T12:22:15.984Z</time></trkpt><trkpt lat="42.0431749" lon="12.4153911"><ele>105.0</ele><time>2026-04-30T12:22:16.983Z</time></trkpt><trkpt lat="42.0431107" lon="12.4157897"><ele>103.0</ele><time>2026-04-30T12:22:17.984Z</time></trkpt><trkpt lat="42.0430299" lon="12.4161894"><ele>103.0</ele><time>2026-04-30T12:22:18.984Z</time></trkpt><trkpt lat="42.0429368" lon="12.4165878"><ele>103.0</ele><time>2026-04-30T12:22:19.984Z</time></trkpt><trkpt lat="42.0428287" lon="12.4169832"><ele>101.0</ele><time>2026-04-30T12:22:20.984Z</time></trkpt><trkpt lat="42.0427059" lon="12.4173715"><ele>99.0</ele><time>2026-04-30T12:22:21.983Z</time></trkpt><trkpt lat="42.0425817" lon="12.417761"><ele>97.0</ele><time>2026-04-30T12:22:22.983Z</time></trkpt><trkpt lat="42.0424475" lon="12.4181536"><ele>95.0</ele><time>2026-04-30T12:22:23.983Z</time></trkpt><trkpt lat="42.0422968" lon="12.4185531"><ele>94.0</ele><time>2026-04-30T12:22:24.983Z</time></trkpt><trkpt lat="42.0421398" lon="12.4189507"><ele>93.0</ele><time>2026-04-30T12:22:25.983Z</time></trkpt><trkpt lat="42.0419602" lon="12.4193416"><ele>91.5</ele><time>2026-04-30T12:22:26.983Z</time></trkpt><trkpt lat="42.0417705" lon="12.4197205"><ele>90.0</ele><time>2026-04-30T12:22:27.983Z</time></trkpt><trkpt lat="42.0415744" lon="12.4200875"><ele>90.0</ele><time>2026-04-30T12:22:28.983Z</time></trkpt><trkpt lat="42.0413731" lon="12.4204381"><ele>90.0</ele><time>2026-04-30T12:22:29.983Z</time></trkpt><trkpt lat="42.0411641" lon="12.4207791"><ele>91.0</ele><time>2026-04-30T12:22:30.983Z</time></trkpt><trkpt lat="42.0409452" lon="12.4210986"><ele>92.0</ele><time>2026-04-30T12:22:31.983Z</time></trkpt><trkpt lat="42.0407176" lon="12.4214016"><ele>92.0</ele><time>2026-04-30T12:22:32.983Z</time></trkpt><trkpt lat="42.0404791" lon="12.4216914"><ele>92.0</ele><time>2026-04-30T12:22:33.983Z</time></trkpt><trkpt lat="42.0402313" lon="12.4219684"><ele>91.5</ele><time>2026-04-30T12:22:34.983Z</time></trkpt><trkpt lat="42.0399808" lon="12.4222352"><ele>91.0</ele><time>2026-04-30T12:22:35.983Z</time></trkpt><trkpt lat="42.0397224" lon="12.4224908"><ele>89.5</ele><time>2026-04-30T12:22:36.983Z</time></trkpt><trkpt lat="42.0394644" lon="12.4227367"><ele>88.0</ele><time>2026-04-30T12:22:37.983Z</time></trkpt><trkpt lat="42.0392091" lon="12.4229664"><ele>86.0</ele><time>2026-04-30T12:22:38.983Z</time></trkpt><trkpt lat="42.0389541" lon="12.423194"><ele>84.0</ele><time>2026-04-30T12:22:39.983Z</time></trkpt><trkpt lat="42.0386996" lon="12.4234248"><ele>84.0</ele><time>2026-04-30T12:22:40.983Z</time></trkpt><trkpt lat="42.0384506" lon="12.4236535"><ele>84.0</ele><time>2026-04-30T12:22:41.984Z</time></trkpt><trkpt lat="42.0382116" lon="12.4238713"><ele>84.0</ele><time>2026-04-30T12:22:42.984Z</time></trkpt><trkpt lat="42.0379803" lon="12.424069"><ele>84.0</ele><time>2026-04-30T12:22:43.983Z</time></trkpt><trkpt lat="42.0377584" lon="12.4242586"><ele>84.0</ele><time>2026-04-30T12:22:44.983Z</time></trkpt><trkpt lat="42.0375307" lon="12.4244555"><ele>84.0</ele><time>2026-04-30T12:22:45.984Z</time></trkpt><trkpt lat="42.0372975" lon="12.4246619"><ele>86.5</ele><time>2026-04-30T12:22:46.984Z</time></trkpt><trkpt lat="42.0370674" lon="12.4248755"><ele>89.0</ele><time>2026-04-30T12:22:47.983Z</time></trkpt><trkpt lat="42.0368387" lon="12.4250786"><ele>88.0</ele><time>2026-04-30T12:22:48.983Z</time></trkpt><trkpt lat="42.036613" lon="12.4252801"><ele>87.0</ele><time>2026-04-30T12:22:49.984Z</time></trkpt><trkpt lat="42.0363856" lon="12.425484"><ele>91.0</ele><time>2026-04-30T12:22:50.983Z</time></trkpt><trkpt lat="42.0361598" lon="12.4256853"><ele>95.0</ele><time>2026-04-30T12:22:51.984Z</time></trkpt><trkpt lat="42.0359398" lon="12.42589"><ele>92.5</ele><time>2026-04-30T12:22:52.984Z</time></trkpt><trkpt lat="42.0357287" lon="12.4260853"><ele>90.0</ele><time>2026-04-30T12:22:53.983Z</time></trkpt><trkpt lat="42.0355262" lon="12.4262724"><ele>94.0</ele><time>2026-04-30T12:22:54.984Z</time></trkpt><trkpt lat="42.0353203" lon="12.426455"><ele>98.0</ele><time>2026-04-30T12:22:55.983Z</time></trkpt><trkpt lat="42.0351155" lon="12.4266436"><ele>93.5</ele><time>2026-04-30T12:22:56.983Z</time></trkpt><trkpt lat="42.0349044" lon="12.4268401"><ele>89.0</ele><time>2026-04-30T12:22:57.983Z</time></trkpt><trkpt lat="42.0346983" lon="12.4270324"><ele>93.0</ele><time>2026-04-30T12:22:58.984Z</time></trkpt><trkpt lat="42.0344916" lon="12.4272131"><ele>97.0</ele><time>2026-04-30T12:22:59.983Z</time></trkpt><trkpt lat="42.0342923" lon="12.4273843"><ele>94.0</ele><time>2026-04-30T12:23:00.983Z</time></trkpt><trkpt lat="42.0341036" lon="12.4275527"><ele>91.0</ele><time>2026-04-30T12:23:01.983Z</time></trkpt><trkpt lat="42.0339188" lon="12.427722"><ele>91.0</ele><time>2026-04-30T12:23:02.984Z</time></trkpt><trkpt lat="42.0337402" lon="12.4278901"><ele>91.0</ele><time>2026-04-30T12:23:03.983Z</time></trkpt><trkpt lat="42.0335559" lon="12.4280553"><ele>91.0</ele><time>2026-04-30T12:23:04.984Z</time></trkpt><trkpt lat="42.0333638" lon="12.4282201"><ele>92.0</ele><time>2026-04-30T12:23:05.983Z</time></trkpt><trkpt lat="42.0331712" lon="12.4283882"><ele>93.0</ele><time>2026-04-30T12:23:06.983Z</time></trkpt><trkpt lat="42.0329725" lon="12.4285642"><ele>93.0</ele><time>2026-04-30T12:23:07.984Z</time></trkpt><trkpt lat="42.0327717" lon="12.4287458"><ele>93.0</ele><time>2026-04-30T12:23:08.984Z</time></trkpt><trkpt lat="42.0325697" lon="12.4289231"><ele>95.0</ele><time>2026-04-30T12:23:09.983Z</time></trkpt><trkpt lat="42.0323643" lon="12.4291002"><ele>97.0</ele><time>2026-04-30T12:23:10.983Z</time></trkpt><trkpt lat="42.0321466" lon="12.4292712"><ele>97.0</ele><time>2026-04-30T12:23:11.984Z</time></trkpt><trkpt lat="42.0319231" lon="12.4294399"><ele>97.0</ele><time>2026-04-30T12:23:12.983Z</time></trkpt><trkpt lat="42.0316951" lon="12.4296024"><ele>95.0</ele><time>2026-04-30T12:23:13.984Z</time></trkpt><trkpt lat="42.0314628" lon="12.4297703"><ele>93.0</ele><time>2026-04-30T12:23:14.983Z</time></trkpt><trkpt lat="42.0312258" lon="12.4299388"><ele>93.0</ele><time>2026-04-30T12:23:15.984Z</time></trkpt><trkpt lat="42.0309883" lon="12.4301006"><ele>93.0</ele><time>2026-04-30T12:23:16.983Z</time></trkpt><trkpt lat="42.0307436" lon="12.4302579"><ele>92.0</ele><time>2026-04-30T12:23:17.984Z</time></trkpt><trkpt lat="42.030487" lon="12.4304098"><ele>91.0</ele><time>2026-04-30T12:23:18.983Z</time></trkpt><trkpt lat="42.0302241" lon="12.4305614"><ele>90.5</ele><time>2026-04-30T12:23:19.983Z</time></trkpt><trkpt lat="42.0299506" lon="12.4307023"><ele>90.0</ele><time>2026-04-30T12:23:20.984Z</time></trkpt><trkpt lat="42.0296777" lon="12.4308361"><ele>90.0</ele><time>2026-04-30T12:23:21.984Z</time></trkpt><trkpt lat="42.0294131" lon="12.4309625"><ele>90.0</ele><time>2026-04-30T12:23:22.984Z</time></trkpt><trkpt lat="42.0291609" lon="12.4310838"><ele>89.0</ele><time>2026-04-30T12:23:23.983Z</time></trkpt><trkpt lat="42.0289068" lon="12.4311976"><ele>88.0</ele><time>2026-04-30T12:23:24.983Z</time></trkpt><trkpt lat="42.0286518" lon="12.4313028"><ele>91.5</ele><time>2026-04-30T12:23:25.983Z</time></trkpt><trkpt lat="42.0283956" lon="12.4314036"><ele>95.0</ele><time>2026-04-30T12:23:26.983Z</time></trkpt><trkpt lat="42.0281395" lon="12.4315057"><ele>95.0</ele><time>2026-04-30T12:23:27.983Z</time></trkpt><trkpt lat="42.0278826" lon="12.4316016"><ele>95.0</ele><time>2026-04-30T12:23:28.983Z</time></trkpt><trkpt lat="42.0276204" lon="12.431692"><ele>96.0</ele><time>2026-04-30T12:23:29.983Z</time></trkpt><trkpt lat="42.0273518" lon="12.4317751"><ele>97.0</ele><time>2026-04-30T12:23:30.983Z</time></trkpt><trkpt lat="42.0270829" lon="12.4318692"><ele>97.0</ele><time>2026-04-30T12:23:31.983Z</time></trkpt><trkpt lat="42.0268132" lon="12.4319627"><ele>97.0</ele><time>2026-04-30T12:23:32.983Z</time></trkpt><trkpt lat="42.0265462" lon="12.4320582"><ele>94.5</ele><time>2026-04-30T12:23:33.984Z</time></trkpt><trkpt lat="42.0262827" lon="12.4321471"><ele>92.0</ele><time>2026-04-30T12:23:34.983Z</time></trkpt><trkpt lat="42.0260251" lon="12.432235"><ele>92.5</ele><time>2026-04-30T12:23:35.984Z</time></trkpt><trkpt lat="42.0257772" lon="12.4323219"><ele>93.0</ele><time>2026-04-30T12:23:36.983Z</time></trkpt><trkpt lat="42.0255236" lon="12.432406"><ele>93.0</ele><time>2026-04-30T12:23:37.983Z</time></trkpt><trkpt lat="42.0252722" lon="12.4324929"><ele>93.0</ele><time>2026-04-30T12:23:38.983Z</time></trkpt><trkpt lat="42.0250306" lon="12.4325743"><ele>91.0</ele><time>2026-04-30T12:23:39.983Z</time></trkpt><trkpt lat="42.0247966" lon="12.4326599"><ele>89.0</ele><time>2026-04-30T12:23:40.983Z</time></trkpt><trkpt lat="42.0245728" lon="12.4327362"><ele>89.0</ele><time>2026-04-30T12:23:41.983Z</time></trkpt><trkpt lat="42.024345" lon="12.4328103"><ele>89.0</ele><time>2026-04-30T12:23:42.984Z</time></trkpt><trkpt lat="42.0241154" lon="12.4328851"><ele>88.0</ele><time>2026-04-30T12:23:43.983Z</time></trkpt><trkpt lat="42.0238838" lon="12.4329676"><ele>87.0</ele><time>2026-04-30T12:23:44.984Z</time></trkpt><trkpt lat="42.0236452" lon="12.433051"><ele>90.5</ele><time>2026-04-30T12:23:45.983Z</time></trkpt><trkpt lat="42.0233998" lon="12.4331383"><ele>94.0</ele><time>2026-04-30T12:23:46.983Z</time></trkpt><trkpt lat="42.0231498" lon="12.433228"><ele>95.0</ele><time>2026-04-30T12:23:47.983Z</time></trkpt><trkpt lat="42.022894" lon="12.4333148"><ele>96.0</ele><time>2026-04-30T12:23:48.983Z</time></trkpt><trkpt lat="42.0226344" lon="12.4334005"><ele>95.5</ele><time>2026-04-30T12:23:49.984Z</time></trkpt><trkpt lat="42.0223738" lon="12.4334848"><ele>95.0</ele><time>2026-04-30T12:23:50.984Z</time></trkpt><trkpt lat="42.0221192" lon="12.4335734"><ele>95.0</ele><time>2026-04-30T12:23:51.983Z</time></trkpt><trkpt lat="42.0218577" lon="12.4336631"><ele>95.0</ele><time>2026-04-30T12:23:52.983Z</time></trkpt><trkpt lat="42.0215954" lon="12.4337521"><ele>96.5</ele><time>2026-04-30T12:23:53.983Z</time></trkpt><trkpt lat="42.0213293" lon="12.4338469"><ele>98.0</ele><time>2026-04-30T12:23:54.983Z</time></trkpt><trkpt lat="42.0210563" lon="12.4339444"><ele>95.5</ele><time>2026-04-30T12:23:55.984Z</time></trkpt><trkpt lat="42.0207762" lon="12.4340403"><ele>93.0</ele><time>2026-04-30T12:23:56.983Z</time></trkpt><trkpt lat="42.0204965" lon="12.4341377"><ele>93.0</ele><time>2026-04-30T12:23:57.983Z</time></trkpt><trkpt lat="42.0202244" lon="12.434247"><ele>93.0</ele><time>2026-04-30T12:23:58.983Z</time></trkpt><trkpt lat="42.0199436" lon="12.4343572"><ele>91.0</ele><time>2026-04-30T12:23:59.983Z</time></trkpt><trkpt lat="42.0196639" lon="12.4344691"><ele>89.0</ele><time>2026-04-30T12:24:00.983Z</time></trkpt><trkpt lat="42.0193837" lon="12.4345812"><ele>83.5</ele><time>2026-04-30T12:24:01.983Z</time></trkpt><trkpt lat="42.0191033" lon="12.4346978"><ele>78.0</ele><time>2026-04-30T12:24:02.983Z</time></trkpt><trkpt lat="42.0188153" lon="12.43481"><ele>78.0</ele><time>2026-04-30T12:24:03.983Z</time></trkpt><trkpt lat="42.0185302" lon="12.4349245"><ele>78.0</ele><time>2026-04-30T12:24:04.983Z</time></trkpt><trkpt lat="42.018242" lon="12.4350348"><ele>73.5</ele><time>2026-04-30T12:24:05.983Z</time></trkpt><trkpt lat="42.0179444" lon="12.4351441"><ele>69.0</ele><time>2026-04-30T12:24:06.984Z</time></trkpt><trkpt lat="42.0176486" lon="12.4352665"><ele>70.0</ele><time>2026-04-30T12:24:07.984Z</time></trkpt><trkpt lat="42.0173482" lon="12.4353854"><ele>71.0</ele><time>2026-04-30T12:24:08.984Z</time></trkpt><trkpt lat="42.0170376" lon="12.4355067"><ele>71.0</ele><time>2026-04-30T12:24:09.983Z</time></trkpt><trkpt lat="42.0167233" lon="12.4356248"><ele>71.0</ele><time>2026-04-30T12:24:10.983Z</time></trkpt><trkpt lat="42.0164069" lon="12.4357476"><ele>67.0</ele><time>2026-04-30T12:24:11.984Z</time></trkpt><trkpt lat="42.0160892" lon="12.4358657"><ele>63.0</ele><time>2026-04-30T12:24:12.983Z</time></trkpt><trkpt lat="42.0157701" lon="12.4359784"><ele>55.5</ele><time>2026-04-30T12:24:13.984Z</time></trkpt><trkpt lat="42.0154576" lon="12.4360792"><ele>48.0</ele><time>2026-04-30T12:24:14.983Z</time></trkpt><trkpt lat="42.0151503" lon="12.436184"><ele>49.0</ele><time>2026-04-30T12:24:15.983Z</time></trkpt><trkpt lat="42.0148368" lon="12.4362931"><ele>50.0</ele><time>2026-04-30T12:24:16.983Z</time></trkpt><trkpt lat="42.014524" lon="12.4364078"><ele>50.0</ele><time>2026-04-30T12:24:17.983Z</time></trkpt><trkpt lat="42.0142166" lon="12.4365219"><ele>50.0</ele><time>2026-04-30T12:24:18.983Z</time></trkpt><trkpt lat="42.0139025" lon="12.4366344"><ele>64.5</ele><time>2026-04-30T12:24:19.984Z</time></trkpt><trkpt lat="42.0135905" lon="12.4367587"><ele>79.0</ele><time>2026-04-30T12:24:20.983Z</time></trkpt><trkpt lat="42.0132817" lon="12.4368821"><ele>80.0</ele><time>2026-04-30T12:24:21.983Z</time></trkpt><trkpt lat="42.012972" lon="12.4370043"><ele>81.0</ele><time>2026-04-30T12:24:22.983Z</time></trkpt><trkpt lat="42.0126559" lon="12.4371275"><ele>72.0</ele><time>2026-04-30T12:24:23.983Z</time></trkpt><trkpt lat="42.0123391" lon="12.4372484"><ele>63.0</ele><time>2026-04-30T12:24:24.983Z</time></trkpt><trkpt lat="42.0120197" lon="12.4373724"><ele>44.0</ele><time>2026-04-30T12:24:25.983Z</time></trkpt><trkpt lat="42.011395" lon="12.4376098"><ele>44.0</ele><time>2026-04-30T12:24:27.987Z</time></trkpt><trkpt lat="42.0111047" lon="12.437723"><ele>44.0</ele><time>2026-04-30T12:24:28.987Z</time></trkpt><trkpt lat="42.0108104" lon="12.437839"><ele>44.5</ele><time>2026-04-30T12:24:29.987Z</time></trkpt><trkpt lat="42.0105055" lon="12.4379521"><ele>45.0</ele><time>2026-04-30T12:24:30.987Z</time></trkpt><trkpt lat="42.0101976" lon="12.4380636"><ele>41.5</ele><time>2026-04-30T12:24:31.988Z</time></trkpt><trkpt lat="42.0098961" lon="12.4381784"><ele>38.0</ele><time>2026-04-30T12:24:32.987Z</time></trkpt><trkpt lat="42.0095731" lon="12.4383097"><ele>38.0</ele><time>2026-04-30T12:24:33.987Z</time></trkpt><trkpt lat="42.0092348" lon="12.4384457"><ele>38.0</ele><time>2026-04-30T12:24:34.988Z</time></trkpt><trkpt lat="42.0089114" lon="12.4385826"><ele>36.0</ele><time>2026-04-30T12:24:35.987Z</time></trkpt><trkpt lat="42.0086064" lon="12.4387186"><ele>34.0</ele><time>2026-04-30T12:24:36.988Z</time></trkpt><trkpt lat="42.0083181" lon="12.4388582"><ele>34.0</ele><time>2026-04-30T12:24:37.987Z</time></trkpt><trkpt lat="42.0080427" lon="12.4390125"><ele>34.0</ele><time>2026-04-30T12:24:38.987Z</time></trkpt><trkpt lat="42.0077835" lon="12.4391825"><ele>34.0</ele><time>2026-04-30T12:24:39.987Z</time></trkpt><trkpt lat="42.007537" lon="12.4393512"><ele>34.0</ele><time>2026-04-30T12:24:40.987Z</time></trkpt><trkpt lat="42.0072955" lon="12.4395324"><ele>36.5</ele><time>2026-04-30T12:24:41.987Z</time></trkpt><trkpt lat="42.007065" lon="12.4397249"><ele>39.0</ele><time>2026-04-30T12:24:42.987Z</time></trkpt><trkpt lat="42.0068451" lon="12.4399194"><ele>37.0</ele><time>2026-04-30T12:24:43.987Z</time></trkpt><trkpt lat="42.0066282" lon="12.4401127"><ele>35.0</ele><time>2026-04-30T12:24:44.988Z</time></trkpt><trkpt lat="42.0064024" lon="12.440317"><ele>35.5</ele><time>2026-04-30T12:24:45.988Z</time></trkpt><trkpt lat="42.0061883" lon="12.4405288"><ele>36.0</ele><time>2026-04-30T12:24:46.988Z</time></trkpt><trkpt lat="42.0059809" lon="12.4407533"><ele>34.5</ele><time>2026-04-30T12:24:47.987Z</time></trkpt><trkpt lat="42.0057769" lon="12.4409876"><ele>33.0</ele><time>2026-04-30T12:24:48.987Z</time></trkpt><trkpt lat="42.0055804" lon="12.4412281"><ele>33.5</ele><time>2026-04-30T12:24:49.987Z</time></trkpt><trkpt lat="42.0053995" lon="12.4414751"><ele>34.0</ele><time>2026-04-30T12:24:50.987Z</time></trkpt><trkpt lat="42.005222" lon="12.4417167"><ele>34.0</ele><time>2026-04-30T12:24:51.987Z</time></trkpt><trkpt lat="42.0050524" lon="12.4419645"><ele>34.0</ele><time>2026-04-30T12:24:52.987Z</time></trkpt><trkpt lat="42.0048923" lon="12.4422206"><ele>33.5</ele><time>2026-04-30T12:24:53.988Z</time></trkpt><trkpt lat="42.0047312" lon="12.4424833"><ele>33.0</ele><time>2026-04-30T12:24:54.987Z</time></trkpt><trkpt lat="42.0045743" lon="12.4427379"><ele>34.0</ele><time>2026-04-30T12:24:55.987Z</time></trkpt><trkpt lat="42.0044325" lon="12.4429936"><ele>35.0</ele><time>2026-04-30T12:24:56.987Z</time></trkpt><trkpt lat="42.004287" lon="12.44325"><ele>41.0</ele><time>2026-04-30T12:24:57.987Z</time></trkpt><trkpt lat="42.0041531" lon="12.4435163"><ele>47.0</ele><time>2026-04-30T12:24:58.987Z</time></trkpt><trkpt lat="42.0040228" lon="12.4437839"><ele>43.5</ele><time>2026-04-30T12:24:59.987Z</time></trkpt><trkpt lat="42.0038902" lon="12.4440552"><ele>40.0</ele><time>2026-04-30T12:25:00.987Z</time></trkpt><trkpt lat="42.0037506" lon="12.444331"><ele>40.0</ele><time>2026-04-30T12:25:01.987Z</time></trkpt><trkpt lat="42.0036085" lon="12.4446123"><ele>40.0</ele><time>2026-04-30T12:25:02.987Z</time></trkpt><trkpt lat="42.0034644" lon="12.4448842"><ele>36.5</ele><time>2026-04-30T12:25:03.987Z</time></trkpt><trkpt lat="42.0033132" lon="12.4451504"><ele>33.0</ele><time>2026-04-30T12:25:04.987Z</time></trkpt><trkpt lat="42.0031699" lon="12.4454249"><ele>32.5</ele><time>2026-04-30T12:25:05.987Z</time></trkpt><trkpt lat="42.0030279" lon="12.4457081"><ele>32.0</ele><time>2026-04-30T12:25:06.987Z</time></trkpt><trkpt lat="42.002886" lon="12.4459931"><ele>32.0</ele><time>2026-04-30T12:25:07.987Z</time></trkpt><trkpt lat="42.0027418" lon="12.4462826"><ele>32.0</ele><time>2026-04-30T12:25:08.988Z</time></trkpt><trkpt lat="42.0025991" lon="12.4465748"><ele>32.0</ele><time>2026-04-30T12:25:09.988Z</time></trkpt><trkpt lat="42.0024569" lon="12.446866"><ele>32.0</ele><time>2026-04-30T12:25:10.987Z</time></trkpt><trkpt lat="42.002309" lon="12.4471593"><ele>32.0</ele><time>2026-04-30T12:25:11.987Z</time></trkpt><trkpt lat="42.0021572" lon="12.4474545"><ele>32.0</ele><time>2026-04-30T12:25:12.987Z</time></trkpt><trkpt lat="42.0020086" lon="12.4477465"><ele>32.5</ele><time>2026-04-30T12:25:13.987Z</time></trkpt><trkpt lat="42.0018587" lon="12.4480399"><ele>33.0</ele><time>2026-04-30T12:25:14.987Z</time></trkpt><trkpt lat="42.0017108" lon="12.4483328"><ele>32.5</ele><time>2026-04-30T12:25:15.987Z</time></trkpt><trkpt lat="42.0015586" lon="12.448635"><ele>32.0</ele><time>2026-04-30T12:25:16.987Z</time></trkpt><trkpt lat="42.0013946" lon="12.4489408"><ele>32.0</ele><time>2026-04-30T12:25:17.987Z</time></trkpt><trkpt lat="42.0012293" lon="12.4492436"><ele>32.0</ele><time>2026-04-30T12:25:18.988Z</time></trkpt><trkpt lat="42.001069" lon="12.4495511"><ele>32.5</ele><time>2026-04-30T12:25:19.987Z</time></trkpt><trkpt lat="42.0009065" lon="12.4498684"><ele>33.0</ele><time>2026-04-30T12:25:20.987Z</time></trkpt><trkpt lat="42.0007455" lon="12.4501779"><ele>33.5</ele><time>2026-04-30T12:25:21.987Z</time></trkpt><trkpt lat="42.0005822" lon="12.4504925"><ele>34.0</ele><time>2026-04-30T12:25:22.987Z</time></trkpt><trkpt lat="42.0004206" lon="12.4508106"><ele>34.0</ele><time>2026-04-30T12:25:23.987Z</time></trkpt><trkpt lat="42.0002575" lon="12.4511342"><ele>34.0</ele><time>2026-04-30T12:25:24.987Z</time></trkpt><trkpt lat="42.0000976" lon="12.4514565"><ele>34.5</ele><time>2026-04-30T12:25:25.987Z</time></trkpt><trkpt lat="41.9999331" lon="12.4517771"><ele>35.0</ele><time>2026-04-30T12:25:26.987Z</time></trkpt><trkpt lat="41.9997695" lon="12.452093"><ele>33.5</ele><time>2026-04-30T12:25:27.987Z</time></trkpt><trkpt lat="41.9996107" lon="12.4524144"><ele>32.0</ele><time>2026-04-30T12:25:28.987Z</time></trkpt><trkpt lat="41.9994469" lon="12.4527367"><ele>31.5</ele><time>2026-04-30T12:25:29.987Z</time></trkpt><trkpt lat="41.9992858" lon="12.453054"><ele>31.0</ele><time>2026-04-30T12:25:30.988Z</time></trkpt><trkpt lat="41.9991325" lon="12.4533731"><ele>31.0</ele><time>2026-04-30T12:25:31.987Z</time></trkpt><trkpt lat="41.9989898" lon="12.453699"><ele>31.0</ele><time>2026-04-30T12:25:32.987Z</time></trkpt><trkpt lat="41.9988529" lon="12.4540303"><ele>31.5</ele><time>2026-04-30T12:25:33.987Z</time></trkpt><trkpt lat="41.9987222" lon="12.4543673"><ele>32.0</ele><time>2026-04-30T12:25:34.988Z</time></trkpt><trkpt lat="41.9986012" lon="12.4546918"><ele>32.0</ele><time>2026-04-30T12:25:35.987Z</time></trkpt><trkpt lat="41.9984866" lon="12.4550029"><ele>32.0</ele><time>2026-04-30T12:25:36.987Z</time></trkpt><trkpt lat="41.9983737" lon="12.455314"><ele>31.5</ele><time>2026-04-30T12:25:37.987Z</time></trkpt><trkpt lat="41.9982604" lon="12.4556301"><ele>31.0</ele><time>2026-04-30T12:25:38.987Z</time></trkpt><trkpt lat="41.9981425" lon="12.4559455"><ele>31.0</ele><time>2026-04-30T12:25:39.988Z</time></trkpt><trkpt lat="41.9980277" lon="12.4562618"><ele>31.0</ele><time>2026-04-30T12:25:40.988Z</time></trkpt><trkpt lat="41.9979056" lon="12.4565872"><ele>30.0</ele><time>2026-04-30T12:25:41.988Z</time></trkpt><trkpt lat="41.9977751" lon="12.4569197"><ele>29.0</ele><time>2026-04-30T12:25:42.988Z</time></trkpt><trkpt lat="41.9976506" lon="12.4572472"><ele>29.5</ele><time>2026-04-30T12:25:43.987Z</time></trkpt><trkpt lat="41.9975313" lon="12.4575663"><ele>30.0</ele><time>2026-04-30T12:25:44.987Z</time></trkpt><trkpt lat="41.9974137" lon="12.4578835"><ele>30.5</ele><time>2026-04-30T12:25:45.987Z</time></trkpt><trkpt lat="41.9972907" lon="12.4582028"><ele>31.0</ele><time>2026-04-30T12:25:46.987Z</time></trkpt><trkpt lat="41.9971695" lon="12.4585291"><ele>31.0</ele><time>2026-04-30T12:25:47.988Z</time></trkpt><trkpt lat="41.9970475" lon="12.4588578"><ele>31.0</ele><time>2026-04-30T12:25:48.987Z</time></trkpt><trkpt lat="41.9969242" lon="12.4591919"><ele>37.0</ele><time>2026-04-30T12:25:49.987Z</time></trkpt><trkpt lat="41.9966738" lon="12.4598498"><ele>34.5</ele><time>2026-04-30T12:25:51.987Z</time></trkpt><trkpt lat="41.9965487" lon="12.4601832"><ele>32.0</ele><time>2026-04-30T12:25:52.988Z</time></trkpt><trkpt lat="41.9964234" lon="12.4605327"><ele>32.0</ele><time>2026-04-30T12:25:53.987Z</time></trkpt><trkpt lat="41.9963013" lon="12.4608807"><ele>32.0</ele><time>2026-04-30T12:25:54.988Z</time></trkpt><trkpt lat="41.9961925" lon="12.4612564"><ele>32.0</ele><time>2026-04-30T12:25:55.987Z</time></trkpt><trkpt lat="41.9960905" lon="12.4616585"><ele>32.0</ele><time>2026-04-30T12:25:56.988Z</time></trkpt><trkpt lat="41.9959883" lon="12.4620541"><ele>33.0</ele><time>2026-04-30T12:25:57.988Z</time></trkpt><trkpt lat="41.9958859" lon="12.4624238"><ele>34.0</ele><time>2026-04-30T12:25:58.987Z</time></trkpt><trkpt lat="41.9957849" lon="12.4627827"><ele>31.0</ele><time>2026-04-30T12:25:59.987Z</time></trkpt><trkpt lat="41.9956877" lon="12.4631303"><ele>28.0</ele><time>2026-04-30T12:26:00.987Z</time></trkpt><trkpt lat="41.9955928" lon="12.4634693"><ele>27.0</ele><time>2026-04-30T12:26:01.987Z</time></trkpt><trkpt lat="41.9955031" lon="12.4638054"><ele>26.0</ele><time>2026-04-30T12:26:02.987Z</time></trkpt><trkpt lat="41.9954145" lon="12.4641368"><ele>26.0</ele><time>2026-04-30T12:26:03.988Z</time></trkpt><trkpt lat="41.9953193" lon="12.4644717"><ele>26.0</ele><time>2026-04-30T12:26:04.987Z</time></trkpt><trkpt lat="41.9952107" lon="12.4648007"><ele>27.0</ele><time>2026-04-30T12:26:05.987Z</time></trkpt><trkpt lat="41.9950844" lon="12.4651119"><ele>28.0</ele><time>2026-04-30T12:26:06.987Z</time></trkpt><trkpt lat="41.9949454" lon="12.4654128"><ele>28.5</ele><time>2026-04-30T12:26:07.987Z</time></trkpt><trkpt lat="41.9947963" lon="12.465691"><ele>29.0</ele><time>2026-04-30T12:26:08.987Z</time></trkpt><trkpt lat="41.9946368" lon="12.46595"><ele>29.0</ele><time>2026-04-30T12:26:09.987Z</time></trkpt><trkpt lat="41.9944657" lon="12.4661921"><ele>29.0</ele><time>2026-04-30T12:26:10.987Z</time></trkpt><trkpt lat="41.9942856" lon="12.466415"><ele>28.0</ele><time>2026-04-30T12:26:11.987Z</time></trkpt><trkpt lat="41.9940941" lon="12.4666261"><ele>27.0</ele><time>2026-04-30T12:26:12.987Z</time></trkpt><trkpt lat="41.9938978" lon="12.4668245"><ele>27.0</ele><time>2026-04-30T12:26:13.988Z</time></trkpt><trkpt lat="41.9937003" lon="12.4670062"><ele>27.0</ele><time>2026-04-30T12:26:14.987Z</time></trkpt><trkpt lat="41.9934955" lon="12.4671803"><ele>26.5</ele><time>2026-04-30T12:26:15.987Z</time></trkpt><trkpt lat="41.993281" lon="12.4673327"><ele>26.0</ele><time>2026-04-30T12:26:16.987Z</time></trkpt><trkpt lat="41.9930618" lon="12.4674772"><ele>26.0</ele><time>2026-04-30T12:26:17.987Z</time></trkpt><trkpt lat="41.9928375" lon="12.4676147"><ele>26.0</ele><time>2026-04-30T12:26:18.988Z</time></trkpt><trkpt lat="41.9926208" lon="12.4677512"><ele>26.5</ele><time>2026-04-30T12:26:19.987Z</time></trkpt><trkpt lat="41.9923979" lon="12.4678874"><ele>27.0</ele><time>2026-04-30T12:26:20.987Z</time></trkpt><trkpt lat="41.9921745" lon="12.4680262"><ele>27.0</ele><time>2026-04-30T12:26:21.987Z</time></trkpt><trkpt lat="41.9919546" lon="12.4681611"><ele>27.0</ele><time>2026-04-30T12:26:22.987Z</time></trkpt><trkpt lat="41.9917329" lon="12.4683025"><ele>28.0</ele><time>2026-04-30T12:26:23.987Z</time></trkpt><trkpt lat="41.9915077" lon="12.4684497"><ele>29.0</ele><time>2026-04-30T12:26:24.988Z</time></trkpt><trkpt lat="41.9912728" lon="12.4685975"><ele>29.0</ele><time>2026-04-30T12:26:25.987Z</time></trkpt><trkpt lat="41.9910377" lon="12.4687449"><ele>29.0</ele><time>2026-04-30T12:26:26.987Z</time></trkpt><trkpt lat="41.9907967" lon="12.4688976"><ele>26.5</ele><time>2026-04-30T12:26:27.987Z</time></trkpt><trkpt lat="41.9905546" lon="12.4690464"><ele>24.0</ele><time>2026-04-30T12:26:28.987Z</time></trkpt><trkpt lat="41.9903088" lon="12.4691944"><ele>24.0</ele><time>2026-04-30T12:26:29.988Z</time></trkpt><trkpt lat="41.9900639" lon="12.4693423"><ele>24.0</ele><time>2026-04-30T12:26:30.987Z</time></trkpt><trkpt lat="41.9898198" lon="12.4694993"><ele>25.5</ele><time>2026-04-30T12:26:31.988Z</time></trkpt><trkpt lat="41.9895712" lon="12.4696589"><ele>27.0</ele><time>2026-04-30T12:26:32.987Z</time></trkpt><trkpt lat="41.9893162" lon="12.4698223"><ele>28.5</ele><time>2026-04-30T12:26:33.988Z</time></trkpt><trkpt lat="41.9890623" lon="12.4700062"><ele>30.0</ele><time>2026-04-30T12:26:34.987Z</time></trkpt><trkpt lat="41.9888155" lon="12.4702086"><ele>30.0</ele><time>2026-04-30T12:26:35.987Z</time></trkpt><trkpt lat="41.9885798" lon="12.4704189"><ele>30.0</ele><time>2026-04-30T12:26:36.988Z</time></trkpt><trkpt lat="41.9883525" lon="12.4706399"><ele>30.0</ele><time>2026-04-30T12:26:37.987Z</time></trkpt><trkpt lat="41.9881345" lon="12.4708871"><ele>30.0</ele><time>2026-04-30T12:26:38.988Z</time></trkpt><trkpt lat="41.9879341" lon="12.4711491"><ele>28.0</ele><time>2026-04-30T12:26:39.988Z</time></trkpt><trkpt lat="41.9877466" lon="12.4714291"><ele>26.0</ele><time>2026-04-30T12:26:40.987Z</time></trkpt><trkpt lat="41.9875676" lon="12.471717"><ele>26.5</ele><time>2026-04-30T12:26:41.987Z</time></trkpt><trkpt lat="41.9873938" lon="12.4720096"><ele>27.0</ele><time>2026-04-30T12:26:42.987Z</time></trkpt><trkpt lat="41.987235" lon="12.4723068"><ele>27.0</ele><time>2026-04-30T12:26:43.987Z</time></trkpt><trkpt lat="41.9870969" lon="12.4726069"><ele>27.0</ele><time>2026-04-30T12:26:44.988Z</time></trkpt><trkpt lat="41.986968" lon="12.4729163"><ele>27.0</ele><time>2026-04-30T12:26:45.987Z</time></trkpt><trkpt lat="41.9868516" lon="12.473209"><ele>27.0</ele><time>2026-04-30T12:26:46.987Z</time></trkpt><trkpt lat="41.9867487" lon="12.4734923"><ele>34.0</ele><time>2026-04-30T12:26:47.987Z</time></trkpt><trkpt lat="41.9866498" lon="12.4737852"><ele>41.0</ele><time>2026-04-30T12:26:48.987Z</time></trkpt><trkpt lat="41.9865516" lon="12.4740719"><ele>41.0</ele><time>2026-04-30T12:26:49.988Z</time></trkpt><trkpt lat="41.986453" lon="12.474361"><ele>41.0</ele><time>2026-04-30T12:26:50.987Z</time></trkpt><trkpt lat="41.9863439" lon="12.4746505"><ele>39.5</ele><time>2026-04-30T12:26:51.987Z</time></trkpt><trkpt lat="41.9862331" lon="12.4749437"><ele>38.0</ele><time>2026-04-30T12:26:52.987Z</time></trkpt><trkpt lat="41.9861294" lon="12.4752282"><ele>36.0</ele><time>2026-04-30T12:26:53.987Z</time></trkpt><trkpt lat="41.9860309" lon="12.4755115"><ele>34.0</ele><time>2026-04-30T12:26:54.987Z</time></trkpt><trkpt lat="41.98594" lon="12.4757946"><ele>34.0</ele><time>2026-04-30T12:26:55.988Z</time></trkpt><trkpt lat="41.9858829" lon="12.476126"><ele>34.0</ele><time>2026-04-30T12:26:56.987Z</time></trkpt><trkpt lat="41.9858514" lon="12.4764643"><ele>37.0</ele><time>2026-04-30T12:26:57.988Z</time></trkpt><trkpt lat="41.9858243" lon="12.4767859"><ele>40.0</ele><time>2026-04-30T12:26:58.987Z</time></trkpt><trkpt lat="41.9858105" lon="12.4770981"><ele>40.0</ele><time>2026-04-30T12:26:59.987Z</time></trkpt><trkpt lat="41.9858111" lon="12.4774179"><ele>40.0</ele><time>2026-04-30T12:27:00.987Z</time></trkpt><trkpt lat="41.9858248" lon="12.4777544"><ele>39.0</ele><time>2026-04-30T12:27:01.987Z</time></trkpt><trkpt lat="41.9858447" lon="12.4780968"><ele>38.0</ele><time>2026-04-30T12:27:02.987Z</time></trkpt><trkpt lat="41.985873" lon="12.4784349"><ele>33.5</ele><time>2026-04-30T12:27:03.988Z</time></trkpt><trkpt lat="41.9859162" lon="12.4787578"><ele>29.0</ele><time>2026-04-30T12:27:04.987Z</time></trkpt><trkpt lat="41.9859677" lon="12.4790693"><ele>29.0</ele><time>2026-04-30T12:27:05.987Z</time></trkpt><trkpt lat="41.9860334" lon="12.4793782"><ele>29.0</ele><time>2026-04-30T12:27:06.987Z</time></trkpt><trkpt lat="41.9861012" lon="12.4796833"><ele>27.0</ele><time>2026-04-30T12:27:07.987Z</time></trkpt><trkpt lat="41.9861592" lon="12.4799939"><ele>25.0</ele><time>2026-04-30T12:27:08.987Z</time></trkpt><trkpt lat="41.9861995" lon="12.4803028"><ele>24.0</ele><time>2026-04-30T12:27:09.987Z</time></trkpt><trkpt lat="41.9862186" lon="12.4806095"><ele>23.0</ele><time>2026-04-30T12:27:10.987Z</time></trkpt><trkpt lat="41.9862235" lon="12.4809093"><ele>23.0</ele><time>2026-04-30T12:27:11.987Z</time></trkpt><trkpt lat="41.9862171" lon="12.4812056"><ele>23.0</ele><time>2026-04-30T12:27:12.988Z</time></trkpt><trkpt lat="41.9862053" lon="12.4815022"><ele>23.0</ele><time>2026-04-30T12:27:13.987Z</time></trkpt><trkpt lat="41.9861898" lon="12.4817967"><ele>23.0</ele><time>2026-04-30T12:27:14.988Z</time></trkpt><trkpt lat="41.9861746" lon="12.4820913"><ele>23.0</ele><time>2026-04-30T12:27:15.988Z</time></trkpt><trkpt lat="41.9861569" lon="12.4823799"><ele>23.0</ele><time>2026-04-30T12:27:16.987Z</time></trkpt><trkpt lat="41.98614" lon="12.4826652"><ele>23.333333333333336</ele><time>2026-04-30T12:27:17.987Z</time></trkpt><trkpt lat="41.9861158" lon="12.4829451"><ele>23.666666666666668</ele><time>2026-04-30T12:27:18.988Z</time></trkpt><trkpt lat="41.9860868" lon="12.4832163"><ele>24.0</ele><time>2026-04-30T12:27:19.988Z</time></trkpt><trkpt lat="41.9860555" lon="12.483472"><ele>24.0</ele><time>2026-04-30T12:27:20.987Z</time></trkpt><trkpt lat="41.9860293" lon="12.4837047"><ele>24.0</ele><time>2026-04-30T12:27:21.987Z</time></trkpt><trkpt lat="41.9860058" lon="12.4839059"><ele>24.0</ele><time>2026-04-30T12:27:22.987Z</time></trkpt><trkpt lat="41.9859875" lon="12.4840823"><ele>23.5</ele><time>2026-04-30T12:27:23.988Z</time></trkpt><trkpt lat="41.9859747" lon="12.4842575"><ele>23.0</ele><time>2026-04-30T12:27:24.987Z</time></trkpt><trkpt lat="41.985959" lon="12.4844296"><ele>22.5</ele><time>2026-04-30T12:27:25.987Z</time></trkpt><trkpt lat="41.9859428" lon="12.484606"><ele>22.0</ele><time>2026-04-30T12:27:26.988Z</time></trkpt><trkpt lat="41.9859234" lon="12.4847864"><ele>22.25</ele><time>2026-04-30T12:27:27.988Z</time></trkpt><trkpt lat="41.9859035" lon="12.4849725"><ele>22.5</ele><time>2026-04-30T12:27:28.987Z</time></trkpt><trkpt lat="41.9858824" lon="12.4851539"><ele>22.75</ele><time>2026-04-30T12:27:29.988Z</time></trkpt><trkpt lat="41.9858616" lon="12.4853375"><ele>23.0</ele><time>2026-04-30T12:27:30.987Z</time></trkpt><trkpt lat="41.9858438" lon="12.4855146"><ele>23.0</ele><time>2026-04-30T12:27:31.988Z</time></trkpt><trkpt lat="41.9858201" lon="12.4856945"><ele>23.0</ele><time>2026-04-30T12:27:32.988Z</time></trkpt><trkpt lat="41.9857963" lon="12.4858715"><ele>23.0</ele><time>2026-04-30T12:27:33.988Z</time></trkpt><trkpt lat="41.9857715" lon="12.4860467"><ele>23.0</ele><time>2026-04-30T12:27:34.987Z</time></trkpt><trkpt lat="41.985744" lon="12.4862236"><ele>23.25</ele><time>2026-04-30T12:27:35.988Z</time></trkpt><trkpt lat="41.9857171" lon="12.4863963"><ele>23.5</ele><time>2026-04-30T12:27:36.988Z</time></trkpt><trkpt lat="41.9856894" lon="12.4865642"><ele>23.75</ele><time>2026-04-30T12:27:37.988Z</time></trkpt><trkpt lat="41.9856649" lon="12.4867255"><ele>24.0</ele><time>2026-04-30T12:27:38.987Z</time></trkpt><trkpt lat="41.9856442" lon="12.4868863"><ele>24.0</ele><time>2026-04-30T12:27:39.987Z</time></trkpt><trkpt lat="41.9856252" lon="12.4870425"><ele>24.0</ele><time>2026-04-30T12:27:40.987Z</time></trkpt><trkpt lat="41.9856062" lon="12.4871969"><ele>24.0</ele><time>2026-04-30T12:27:41.988Z</time></trkpt><trkpt lat="41.9855849" lon="12.4873422"><ele>24.0</ele><time>2026-04-30T12:27:42.988Z</time></trkpt><trkpt lat="41.9855679" lon="12.48749"><ele>23.4</ele><time>2026-04-30T12:27:43.988Z</time></trkpt><trkpt lat="41.9855524" lon="12.4876363"><ele>22.799999999999997</ele><time>2026-04-30T12:27:44.988Z</time></trkpt><trkpt lat="41.9855379" lon="12.487781"><ele>22.200000000000003</ele><time>2026-04-30T12:27:45.988Z</time></trkpt><trkpt lat="41.985526" lon="12.4879246"><ele>21.6</ele><time>2026-04-30T12:27:46.987Z</time></trkpt><trkpt lat="41.9855121" lon="12.4880661"><ele>21.0</ele><time>2026-04-30T12:27:47.987Z</time></trkpt><trkpt lat="41.9855009" lon="12.4882063"><ele>21.0</ele><time>2026-04-30T12:27:48.987Z</time></trkpt><trkpt lat="41.9854956" lon="12.4883499"><ele>21.0</ele><time>2026-04-30T12:27:49.987Z</time></trkpt><trkpt lat="41.9854912" lon="12.4884841"><ele>21.0</ele><time>2026-04-30T12:27:50.987Z</time></trkpt><trkpt lat="41.9854893" lon="12.4886158"><ele>21.0</ele><time>2026-04-30T12:27:51.987Z</time></trkpt><trkpt lat="41.9854899" lon="12.4887556"><ele>21.0</ele><time>2026-04-30T12:27:52.988Z</time></trkpt><trkpt lat="41.9854934" lon="12.4889004"><ele>20.5</ele><time>2026-04-30T12:27:53.987Z</time></trkpt><trkpt lat="41.9854974" lon="12.4890515"><ele>20.0</ele><time>2026-04-30T12:27:54.987Z</time></trkpt><trkpt lat="41.9854999" lon="12.4892147"><ele>19.5</ele><time>2026-04-30T12:27:55.987Z</time></trkpt><trkpt lat="41.9855073" lon="12.4893864"><ele>19.0</ele><time>2026-04-30T12:27:56.987Z</time></trkpt><trkpt lat="41.985512" lon="12.4895632"><ele>18.75</ele><time>2026-04-30T12:27:57.987Z</time></trkpt><trkpt lat="41.9855228" lon="12.4897475"><ele>18.5</ele><time>2026-04-30T12:27:58.988Z</time></trkpt><trkpt lat="41.9855307" lon="12.489935"><ele>18.25</ele><time>2026-04-30T12:27:59.987Z</time></trkpt><trkpt lat="41.985539" lon="12.4901199"><ele>18.0</ele><time>2026-04-30T12:28:00.987Z</time></trkpt><trkpt lat="41.9855468" lon="12.4903027"><ele>18.75</ele><time>2026-04-30T12:28:01.988Z</time></trkpt><trkpt lat="41.9855566" lon="12.490466"><ele>19.5</ele><time>2026-04-30T12:28:02.987Z</time></trkpt><trkpt lat="41.9855602" lon="12.4906193"><ele>20.25</ele><time>2026-04-30T12:28:03.987Z</time></trkpt><trkpt lat="41.985556" lon="12.4907635"><ele>21.0</ele><time>2026-04-30T12:28:04.988Z</time></trkpt><trkpt lat="41.9855467" lon="12.4909065"><ele>21.0</ele><time>2026-04-30T12:28:05.987Z</time></trkpt><trkpt lat="41.9855146" lon="12.4910398"><ele>21.0</ele><time>2026-04-30T12:28:06.987Z</time></trkpt><trkpt lat="41.9854609" lon="12.4911604"><ele>21.0</ele><time>2026-04-30T12:28:07.987Z</time></trkpt><trkpt lat="41.9853971" lon="12.4912753"><ele>21.0</ele><time>2026-04-30T12:28:08.987Z</time></trkpt><trkpt lat="41.9853158" lon="12.4913693"><ele>21.0</ele><time>2026-04-30T12:28:09.987Z</time></trkpt><trkpt lat="41.9852251" lon="12.4914597"><ele>21.75</ele><time>2026-04-30T12:28:10.987Z</time></trkpt><trkpt lat="41.9851283" lon="12.4915414"><ele>22.5</ele><time>2026-04-30T12:28:11.987Z</time></trkpt><trkpt lat="41.9850297" lon="12.4916322"><ele>23.25</ele><time>2026-04-30T12:28:12.987Z</time></trkpt><trkpt lat="41.9849401" lon="12.4917456"><ele>24.0</ele><time>2026-04-30T12:28:13.987Z</time></trkpt><trkpt lat="41.9848764" lon="12.4918834"><ele>24.25</ele><time>2026-04-30T12:28:14.987Z</time></trkpt><trkpt lat="41.9848375" lon="12.4920396"><ele>24.5</ele><time>2026-04-30T12:28:15.987Z</time></trkpt><trkpt lat="41.9848327" lon="12.4922095"><ele>24.75</ele><time>2026-04-30T12:28:16.987Z</time></trkpt><trkpt lat="41.9848459" lon="12.492378"><ele>25.0</ele><time>2026-04-30T12:28:17.987Z</time></trkpt><trkpt lat="41.9848448" lon="12.4925282"><ele>25.000000000000004</ele><time>2026-04-30T12:28:18.987Z</time></trkpt><trkpt lat="41.9848173" lon="12.4926617"><ele>25.0</ele><time>2026-04-30T12:28:19.988Z</time></trkpt><trkpt lat="41.9847689" lon="12.4927699"><ele>25.0</ele><time>2026-04-30T12:28:20.987Z</time></trkpt><trkpt lat="41.9847154" lon="12.4928547"><ele>25.0</ele><time>2026-04-30T12:28:21.988Z</time></trkpt><trkpt lat="41.9846591" lon="12.4929126"><ele>25.000000000000004</ele><time>2026-04-30T12:28:22.987Z</time></trkpt><trkpt lat="41.9845953" lon="12.4929532"><ele>25.0</ele><time>2026-04-30T12:28:23.987Z</time></trkpt><trkpt lat="41.9845224" lon="12.4929867"><ele>25.0</ele><time>2026-04-30T12:28:24.987Z</time></trkpt><trkpt lat="41.9844427" lon="12.4930242"><ele>25.0</ele><time>2026-04-30T12:28:25.986Z</time></trkpt><trkpt lat="41.9843508" lon="12.4930721"><ele>25.0</ele><time>2026-04-30T12:28:26.986Z</time></trkpt><trkpt lat="41.9842491" lon="12.4931296"><ele>25.0</ele><time>2026-04-30T12:28:27.986Z</time></trkpt><trkpt lat="41.9841368" lon="12.4931901"><ele>25.0</ele><time>2026-04-30T12:28:28.986Z</time></trkpt><trkpt lat="41.9840217" lon="12.4932485"><ele>25.0</ele><time>2026-04-30T12:28:29.986Z</time></trkpt><trkpt lat="41.9839015" lon="12.4933163"><ele>25.0</ele><time>2026-04-30T12:28:30.986Z</time></trkpt><trkpt lat="41.9837778" lon="12.4933752"><ele>25.0</ele><time>2026-04-30T12:28:31.986Z</time></trkpt><trkpt lat="41.9836453" lon="12.4934256"><ele>25.0</ele><time>2026-04-30T12:28:32.986Z</time></trkpt><trkpt lat="41.9835044" lon="12.4934607"><ele>25.0</ele><time>2026-04-30T12:28:33.987Z</time></trkpt><trkpt lat="41.9833576" lon="12.4934868"><ele>25.0</ele><time>2026-04-30T12:28:34.987Z</time></trkpt><trkpt lat="41.9832043" lon="12.4934971"><ele>25.0</ele><time>2026-04-30T12:28:35.986Z</time></trkpt><trkpt lat="41.9830414" lon="12.4934987"><ele>27.0</ele><time>2026-04-30T12:28:36.986Z</time></trkpt><trkpt lat="41.9828633" lon="12.4935005"><ele>29.0</ele><time>2026-04-30T12:28:37.987Z</time></trkpt><trkpt lat="41.982674" lon="12.4934895"><ele>31.0</ele><time>2026-04-30T12:28:38.986Z</time></trkpt><trkpt lat="41.9824697" lon="12.4934709"><ele>32.66666666666667</ele><time>2026-04-30T12:28:39.987Z</time></trkpt><trkpt lat="41.9822606" lon="12.4934506"><ele>34.333333333333336</ele><time>2026-04-30T12:28:40.986Z</time></trkpt><trkpt lat="41.9820399" lon="12.4934186"><ele>36.0</ele><time>2026-04-30T12:28:41.986Z</time></trkpt><trkpt lat="41.9818079" lon="12.4933824"><ele>35.0</ele><time>2026-04-30T12:28:42.986Z</time></trkpt><trkpt lat="41.9815784" lon="12.4933659"><ele>34.0</ele><time>2026-04-30T12:28:43.986Z</time></trkpt><trkpt lat="41.9813429" lon="12.4933552"><ele>34.0</ele><time>2026-04-30T12:28:44.986Z</time></trkpt><trkpt lat="41.9810985" lon="12.49335"><ele>34.0</ele><time>2026-04-30T12:28:45.986Z</time></trkpt><trkpt lat="41.9808407" lon="12.4933619"><ele>32.5</ele><time>2026-04-30T12:28:46.986Z</time></trkpt><trkpt lat="41.9805731" lon="12.4933875"><ele>31.0</ele><time>2026-04-30T12:28:47.986Z</time></trkpt><trkpt lat="41.9803098" lon="12.4934315"><ele>31.0</ele><time>2026-04-30T12:28:48.986Z</time></trkpt><trkpt lat="41.9800629" lon="12.4934879"><ele>31.0</ele><time>2026-04-30T12:28:49.986Z</time></trkpt><trkpt lat="41.979824" lon="12.4935393"><ele>32.66666666666667</ele><time>2026-04-30T12:28:50.986Z</time></trkpt><trkpt lat="41.9795999" lon="12.493585"><ele>34.333333333333336</ele><time>2026-04-30T12:28:51.986Z</time></trkpt><trkpt lat="41.9793831" lon="12.4936281"><ele>36.0</ele><time>2026-04-30T12:28:52.987Z</time></trkpt><trkpt lat="41.9791641" lon="12.4936627"><ele>37.0</ele><time>2026-04-30T12:28:53.987Z</time></trkpt><trkpt lat="41.9789513" lon="12.4936898"><ele>38.0</ele><time>2026-04-30T12:28:54.987Z</time></trkpt><trkpt lat="41.9787412" lon="12.4937099"><ele>39.0</ele><time>2026-04-30T12:28:55.986Z</time></trkpt><trkpt lat="41.9785265" lon="12.4937166"><ele>38.0</ele><time>2026-04-30T12:28:56.987Z</time></trkpt><trkpt lat="41.9783078" lon="12.4937058"><ele>37.0</ele><time>2026-04-30T12:28:57.987Z</time></trkpt><trkpt lat="41.9780918" lon="12.4936759"><ele>36.0</ele><time>2026-04-30T12:28:58.986Z</time></trkpt><trkpt lat="41.9778744" lon="12.4936308"><ele>36.0</ele><time>2026-04-30T12:28:59.986Z</time></trkpt><trkpt lat="41.9776676" lon="12.4935739"><ele>36.0</ele><time>2026-04-30T12:29:00.986Z</time></trkpt><trkpt lat="41.9774553" lon="12.4935132"><ele>36.0</ele><time>2026-04-30T12:29:01.987Z</time></trkpt><trkpt lat="41.9772426" lon="12.4934489"><ele>32.333333333333336</ele><time>2026-04-30T12:29:02.986Z</time></trkpt><trkpt lat="41.9770283" lon="12.493374"><ele>28.666666666666668</ele><time>2026-04-30T12:29:03.986Z</time></trkpt><trkpt lat="41.9768145" lon="12.4932976"><ele>25.0</ele><time>2026-04-30T12:29:04.986Z</time></trkpt><trkpt lat="41.9766046" lon="12.4932282"><ele>24.666666666666668</ele><time>2026-04-30T12:29:05.986Z</time></trkpt><trkpt lat="41.976392" lon="12.4931635"><ele>24.333333333333336</ele><time>2026-04-30T12:29:06.987Z</time></trkpt><trkpt lat="41.9761773" lon="12.4931041"><ele>24.0</ele><time>2026-04-30T12:29:07.987Z</time></trkpt><trkpt lat="41.9759669" lon="12.4930416"><ele>24.333333333333336</ele><time>2026-04-30T12:29:08.986Z</time></trkpt><trkpt lat="41.9757517" lon="12.4929837"><ele>24.666666666666668</ele><time>2026-04-30T12:29:09.987Z</time></trkpt><trkpt lat="41.975539" lon="12.4929282"><ele>25.0</ele><time>2026-04-30T12:29:10.986Z</time></trkpt><trkpt lat="41.9753234" lon="12.4928725"><ele>29.0</ele><time>2026-04-30T12:29:11.986Z</time></trkpt><trkpt lat="41.9751119" lon="12.4928207"><ele>33.0</ele><time>2026-04-30T12:29:12.986Z</time></trkpt><trkpt lat="41.9749084" lon="12.4927686"><ele>37.0</ele><time>2026-04-30T12:29:13.987Z</time></trkpt><trkpt lat="41.9747068" lon="12.4927163"><ele>37.0</ele><time>2026-04-30T12:29:14.986Z</time></trkpt><trkpt lat="41.9745119" lon="12.4926779"><ele>37.0</ele><time>2026-04-30T12:29:15.986Z</time></trkpt><trkpt lat="41.9743191" lon="12.4926443"><ele>37.0</ele><time>2026-04-30T12:29:16.986Z</time></trkpt><trkpt lat="41.974123" lon="12.4926067"><ele>35.66666666666667</ele><time>2026-04-30T12:29:17.987Z</time></trkpt><trkpt lat="41.9739306" lon="12.4925666"><ele>34.333333333333336</ele><time>2026-04-30T12:29:18.986Z</time></trkpt><trkpt lat="41.9737414" lon="12.4925288"><ele>33.0</ele><time>2026-04-30T12:29:19.986Z</time></trkpt><trkpt lat="41.9735459" lon="12.4924873"><ele>31.666666666666664</ele><time>2026-04-30T12:29:20.986Z</time></trkpt><trkpt lat="41.9733489" lon="12.4924455"><ele>30.333333333333332</ele><time>2026-04-30T12:29:21.986Z</time></trkpt><trkpt lat="41.9731469" lon="12.4924023"><ele>29.0</ele><time>2026-04-30T12:29:22.987Z</time></trkpt><trkpt lat="41.9729442" lon="12.4923588"><ele>29.0</ele><time>2026-04-30T12:29:23.986Z</time></trkpt><trkpt lat="41.972738" lon="12.4923166"><ele>29.0</ele><time>2026-04-30T12:29:24.986Z</time></trkpt><trkpt lat="41.9725314" lon="12.4922794"><ele>29.0</ele><time>2026-04-30T12:29:25.986Z</time></trkpt><trkpt lat="41.9723281" lon="12.4922391"><ele>27.333333333333332</ele><time>2026-04-30T12:29:26.986Z</time></trkpt><trkpt lat="41.9721225" lon="12.4922024"><ele>25.666666666666664</ele><time>2026-04-30T12:29:27.986Z</time></trkpt><trkpt lat="41.9719198" lon="12.4921647"><ele>24.0</ele><time>2026-04-30T12:29:28.987Z</time></trkpt><trkpt lat="41.9717167" lon="12.492122"><ele>26.666666666666664</ele><time>2026-04-30T12:29:29.986Z</time></trkpt><trkpt lat="41.9715168" lon="12.4920834"><ele>29.333333333333332</ele><time>2026-04-30T12:29:30.986Z</time></trkpt><trkpt lat="41.9713158" lon="12.4920404"><ele>32.0</ele><time>2026-04-30T12:29:31.986Z</time></trkpt><trkpt lat="41.9711132" lon="12.4919926"><ele>32.0</ele><time>2026-04-30T12:29:32.986Z</time></trkpt><trkpt lat="41.970918" lon="12.4919443"><ele>32.0</ele><time>2026-04-30T12:29:33.986Z</time></trkpt><trkpt lat="41.9707272" lon="12.491895"><ele>32.0</ele><time>2026-04-30T12:29:34.986Z</time></trkpt><trkpt lat="41.9705407" lon="12.4918454"><ele>31.666666666666664</ele><time>2026-04-30T12:29:35.986Z</time></trkpt><trkpt lat="41.9703544" lon="12.4917897"><ele>31.333333333333336</ele><time>2026-04-30T12:29:36.986Z</time></trkpt><trkpt lat="41.9701695" lon="12.4917333"><ele>31.0</ele><time>2026-04-30T12:29:37.986Z</time></trkpt><trkpt lat="41.9699883" lon="12.4916732"><ele>31.0</ele><time>2026-04-30T12:29:38.987Z</time></trkpt><trkpt lat="41.9698048" lon="12.4916087"><ele>31.0</ele><time>2026-04-30T12:29:39.986Z</time></trkpt><trkpt lat="41.9696225" lon="12.4915446"><ele>31.0</ele><time>2026-04-30T12:29:40.986Z</time></trkpt><trkpt lat="41.9694368" lon="12.4914835"><ele>31.0</ele><time>2026-04-30T12:29:41.986Z</time></trkpt><trkpt lat="41.9692565" lon="12.4914209"><ele>31.0</ele><time>2026-04-30T12:29:42.987Z</time></trkpt><trkpt lat="41.9690787" lon="12.4913626"><ele>31.0</ele><time>2026-04-30T12:29:43.987Z</time></trkpt><trkpt lat="41.9689116" lon="12.4912981"><ele>36.66666666666667</ele><time>2026-04-30T12:29:44.987Z</time></trkpt><trkpt lat="41.9687511" lon="12.4912314"><ele>42.333333333333336</ele><time>2026-04-30T12:29:45.986Z</time></trkpt><trkpt lat="41.9685857" lon="12.4911614"><ele>48.0</ele><time>2026-04-30T12:29:46.986Z</time></trkpt><trkpt lat="41.9684213" lon="12.491097"><ele>43.0</ele><time>2026-04-30T12:29:47.987Z</time></trkpt><trkpt lat="41.9682552" lon="12.4910412"><ele>38.0</ele><time>2026-04-30T12:29:48.986Z</time></trkpt><trkpt lat="41.9680893" lon="12.4909748"><ele>33.0</ele><time>2026-04-30T12:29:49.986Z</time></trkpt><trkpt lat="41.9679346" lon="12.4909039"><ele>33.0</ele><time>2026-04-30T12:29:50.987Z</time></trkpt><trkpt lat="41.9677909" lon="12.4908421"><ele>33.0</ele><time>2026-04-30T12:29:51.986Z</time></trkpt><trkpt lat="41.9676454" lon="12.490791"><ele>33.0</ele><time>2026-04-30T12:29:52.987Z</time></trkpt><trkpt lat="41.9674975" lon="12.4907377"><ele>29.666666666666668</ele><time>2026-04-30T12:29:53.986Z</time></trkpt><trkpt lat="41.9673571" lon="12.4906742"><ele>26.333333333333336</ele><time>2026-04-30T12:29:54.986Z</time></trkpt><trkpt lat="41.9672159" lon="12.4906039"><ele>23.0</ele><time>2026-04-30T12:29:55.986Z</time></trkpt><trkpt lat="41.9670714" lon="12.4905346"><ele>23.0</ele><time>2026-04-30T12:29:56.987Z</time></trkpt><trkpt lat="41.9669304" lon="12.4904722"><ele>23.0</ele><time>2026-04-30T12:29:57.986Z</time></trkpt><trkpt lat="41.966787" lon="12.4904073"><ele>23.0</ele><time>2026-04-30T12:29:58.986Z</time></trkpt><trkpt lat="41.9666419" lon="12.4903505"><ele>23.5</ele><time>2026-04-30T12:29:59.986Z</time></trkpt><trkpt lat="41.966502" lon="12.4902929"><ele>24.0</ele><time>2026-04-30T12:30:00.986Z</time></trkpt><trkpt lat="41.9663575" lon="12.4902358"><ele>24.5</ele><time>2026-04-30T12:30:01.986Z</time></trkpt><trkpt lat="41.9662137" lon="12.4901779"><ele>25.0</ele><time>2026-04-30T12:30:02.986Z</time></trkpt><trkpt lat="41.9660714" lon="12.4901163"><ele>25.0</ele><time>2026-04-30T12:30:03.986Z</time></trkpt><trkpt lat="41.9659308" lon="12.4900553"><ele>25.0</ele><time>2026-04-30T12:30:04.986Z</time></trkpt><trkpt lat="41.9657878" lon="12.4899921"><ele>25.0</ele><time>2026-04-30T12:30:05.986Z</time></trkpt><trkpt lat="41.9656404" lon="12.4899386"><ele>24.333333333333336</ele><time>2026-04-30T12:30:06.987Z</time></trkpt><trkpt lat="41.9654908" lon="12.4898814"><ele>23.666666666666668</ele><time>2026-04-30T12:30:07.986Z</time></trkpt><trkpt lat="41.9653382" lon="12.4898193"><ele>23.0</ele><time>2026-04-30T12:30:08.986Z</time></trkpt><trkpt lat="41.965182" lon="12.4897586"><ele>23.0</ele><time>2026-04-30T12:30:09.986Z</time></trkpt><trkpt lat="41.9650247" lon="12.4896942"><ele>23.0</ele><time>2026-04-30T12:30:10.987Z</time></trkpt><trkpt lat="41.9648655" lon="12.4896295"><ele>23.0</ele><time>2026-04-30T12:30:11.987Z</time></trkpt><trkpt lat="41.9646953" lon="12.4895637"><ele>23.333333333333336</ele><time>2026-04-30T12:30:12.986Z</time></trkpt><trkpt lat="41.9645072" lon="12.4894933"><ele>23.666666666666668</ele><time>2026-04-30T12:30:13.986Z</time></trkpt><trkpt lat="41.964325" lon="12.4894193"><ele>24.0</ele><time>2026-04-30T12:30:14.986Z</time></trkpt><trkpt lat="41.9641594" lon="12.4893458"><ele>24.0</ele><time>2026-04-30T12:30:15.987Z</time></trkpt><trkpt lat="41.9639976" lon="12.4892702"><ele>24.0</ele><time>2026-04-30T12:30:16.987Z</time></trkpt><trkpt lat="41.9638386" lon="12.4891977"><ele>24.0</ele><time>2026-04-30T12:30:17.986Z</time></trkpt><trkpt lat="41.9636742" lon="12.4891245"><ele>24.0</ele><time>2026-04-30T12:30:18.986Z</time></trkpt><trkpt lat="41.9635032" lon="12.4890427"><ele>24.0</ele><time>2026-04-30T12:30:19.987Z</time></trkpt><trkpt lat="41.9633244" lon="12.4889693"><ele>24.0</ele><time>2026-04-30T12:30:20.986Z</time></trkpt><trkpt lat="41.9631508" lon="12.488897"><ele>23.333333333333332</ele><time>2026-04-30T12:30:21.987Z</time></trkpt><trkpt lat="41.9629842" lon="12.4888156"><ele>22.666666666666664</ele><time>2026-04-30T12:30:22.986Z</time></trkpt><trkpt lat="41.9628004" lon="12.4887246"><ele>22.0</ele><time>2026-04-30T12:30:23.987Z</time></trkpt><trkpt lat="41.9626122" lon="12.4886174"><ele>21.333333333333332</ele><time>2026-04-30T12:30:24.986Z</time></trkpt><trkpt lat="41.9624232" lon="12.4884909"><ele>20.666666666666668</ele><time>2026-04-30T12:30:25.986Z</time></trkpt><trkpt lat="41.9622353" lon="12.4883388"><ele>20.0</ele><time>2026-04-30T12:30:26.987Z</time></trkpt><trkpt lat="41.9620483" lon="12.4881725"><ele>20.0</ele><time>2026-04-30T12:30:27.986Z</time></trkpt><trkpt lat="41.9618809" lon="12.4880098"><ele>20.0</ele><time>2026-04-30T12:30:28.986Z</time></trkpt><trkpt lat="41.9617246" lon="12.4878542"><ele>20.0</ele><time>2026-04-30T12:30:29.986Z</time></trkpt><trkpt lat="41.9615663" lon="12.4877008"><ele>21.0</ele><time>2026-04-30T12:30:30.987Z</time></trkpt><trkpt lat="41.9614022" lon="12.4875584"><ele>22.0</ele><time>2026-04-30T12:30:31.987Z</time></trkpt><trkpt lat="41.9612351" lon="12.4874276"><ele>23.0</ele><time>2026-04-30T12:30:32.986Z</time></trkpt><trkpt lat="41.9610748" lon="12.4873085"><ele>23.0</ele><time>2026-04-30T12:30:33.986Z</time></trkpt><trkpt lat="41.9608973" lon="12.4871947"><ele>23.0</ele><time>2026-04-30T12:30:34.986Z</time></trkpt><trkpt lat="41.9606988" lon="12.4870946"><ele>23.0</ele><time>2026-04-30T12:30:35.986Z</time></trkpt><trkpt lat="41.9605046" lon="12.4870119"><ele>23.666666666666668</ele><time>2026-04-30T12:30:36.987Z</time></trkpt><trkpt lat="41.9603059" lon="12.4869389"><ele>24.333333333333336</ele><time>2026-04-30T12:30:37.986Z</time></trkpt><trkpt lat="41.9601052" lon="12.486869"><ele>25.0</ele><time>2026-04-30T12:30:38.986Z</time></trkpt><trkpt lat="41.959913" lon="12.4868049"><ele>25.0</ele><time>2026-04-30T12:30:39.986Z</time></trkpt><trkpt lat="41.9597184" lon="12.4867541"><ele>25.0</ele><time>2026-04-30T12:30:40.987Z</time></trkpt><trkpt lat="41.9595269" lon="12.4867028"><ele>25.0</ele><time>2026-04-30T12:30:41.986Z</time></trkpt><trkpt lat="41.95934" lon="12.4866555"><ele>24.666666666666668</ele><time>2026-04-30T12:30:42.987Z</time></trkpt><trkpt lat="41.9591622" lon="12.4866031"><ele>24.333333333333336</ele><time>2026-04-30T12:30:43.987Z</time></trkpt><trkpt lat="41.9589984" lon="12.486543"><ele>24.0</ele><time>2026-04-30T12:30:44.987Z</time></trkpt><trkpt lat="41.9588446" lon="12.486479"><ele>24.0</ele><time>2026-04-30T12:30:45.987Z</time></trkpt><trkpt lat="41.9586932" lon="12.4864134"><ele>24.0</ele><time>2026-04-30T12:30:46.986Z</time></trkpt><trkpt lat="41.9585529" lon="12.4863356"><ele>24.0</ele><time>2026-04-30T12:30:47.986Z</time></trkpt><trkpt lat="41.9584171" lon="12.486247"><ele>23.75</ele><time>2026-04-30T12:30:48.986Z</time></trkpt><trkpt lat="41.9582848" lon="12.4861568"><ele>23.5</ele><time>2026-04-30T12:30:49.987Z</time></trkpt><trkpt lat="41.958158" lon="12.4860511"><ele>23.25</ele><time>2026-04-30T12:30:50.986Z</time></trkpt><trkpt lat="41.9580357" lon="12.4859364"><ele>23.0</ele><time>2026-04-30T12:30:51.986Z</time></trkpt><trkpt lat="41.9579206" lon="12.4858124"><ele>23.0</ele><time>2026-04-30T12:30:52.986Z</time></trkpt><trkpt lat="41.9578037" lon="12.4856832"><ele>23.0</ele><time>2026-04-30T12:30:53.987Z</time></trkpt><trkpt lat="41.9576843" lon="12.4855504"><ele>23.0</ele><time>2026-04-30T12:30:54.986Z</time></trkpt><trkpt lat="41.9575747" lon="12.4854073"><ele>22.75</ele><time>2026-04-30T12:30:55.986Z</time></trkpt><trkpt lat="41.9574723" lon="12.4852681"><ele>22.5</ele><time>2026-04-30T12:30:56.986Z</time></trkpt><trkpt lat="41.9573725" lon="12.485132"><ele>22.25</ele><time>2026-04-30T12:30:57.986Z</time></trkpt><trkpt lat="41.9572831" lon="12.484993"><ele>22.0</ele><time>2026-04-30T12:30:58.986Z</time></trkpt><trkpt lat="41.9571975" lon="12.4848458"><ele>22.0</ele><time>2026-04-30T12:30:59.986Z</time></trkpt><trkpt lat="41.9571103" lon="12.4847111"><ele>22.0</ele><time>2026-04-30T12:31:00.986Z</time></trkpt><trkpt lat="41.9570177" lon="12.4845799"><ele>22.0</ele><time>2026-04-30T12:31:01.986Z</time></trkpt><trkpt lat="41.956921" lon="12.4844534"><ele>22.0</ele><time>2026-04-30T12:31:02.986Z</time></trkpt><trkpt lat="41.9568007" lon="12.4843633"><ele>22.666666666666664</ele><time>2026-04-30T12:31:03.987Z</time></trkpt><trkpt lat="41.9566609" lon="12.4843316"><ele>23.333333333333332</ele><time>2026-04-30T12:31:04.987Z</time></trkpt><trkpt lat="41.9564977" lon="12.4844946"><ele>24.0</ele><time>2026-04-30T12:31:05.986Z</time></trkpt><trkpt lat="41.9563591" lon="12.4846072"><ele>24.0</ele><time>2026-04-30T12:31:06.987Z</time></trkpt><trkpt lat="41.9562235" lon="12.4846508"><ele>24.0</ele><time>2026-04-30T12:31:07.986Z</time></trkpt><trkpt lat="41.9560854" lon="12.4846651"><ele>24.0</ele><time>2026-04-30T12:31:08.986Z</time></trkpt><trkpt lat="41.9559473" lon="12.4846701"><ele>24.0</ele><time>2026-04-30T12:31:09.986Z</time></trkpt><trkpt lat="41.9558198" lon="12.4846819"><ele>23.2</ele><time>2026-04-30T12:31:10.986Z</time></trkpt><trkpt lat="41.955703" lon="12.4846938"><ele>22.4</ele><time>2026-04-30T12:31:11.986Z</time></trkpt><trkpt lat="41.9555947" lon="12.4847018"><ele>21.6</ele><time>2026-04-30T12:31:12.986Z</time></trkpt><trkpt lat="41.9554877" lon="12.4847044"><ele>20.8</ele><time>2026-04-30T12:31:13.986Z</time></trkpt><trkpt lat="41.9553777" lon="12.4847127"><ele>20.0</ele><time>2026-04-30T12:31:14.986Z</time></trkpt><trkpt lat="41.9552589" lon="12.4847089"><ele>20.0</ele><time>2026-04-30T12:31:15.987Z</time></trkpt><trkpt lat="41.9551278" lon="12.4846979"><ele>20.0</ele><time>2026-04-30T12:31:16.986Z</time></trkpt><trkpt lat="41.9549887" lon="12.4846704"><ele>20.0</ele><time>2026-04-30T12:31:17.986Z</time></trkpt><trkpt lat="41.954845" lon="12.4846264"><ele>20.0</ele><time>2026-04-30T12:31:18.986Z</time></trkpt><trkpt lat="41.9546948" lon="12.4845592"><ele>20.333333333333336</ele><time>2026-04-30T12:31:19.987Z</time></trkpt><trkpt lat="41.9545367" lon="12.4844715"><ele>20.666666666666668</ele><time>2026-04-30T12:31:20.986Z</time></trkpt><trkpt lat="41.9543753" lon="12.484392"><ele>21.0</ele><time>2026-04-30T12:31:21.986Z</time></trkpt><trkpt lat="41.9542051" lon="12.4843322"><ele>21.0</ele><time>2026-04-30T12:31:22.986Z</time></trkpt><trkpt lat="41.9540364" lon="12.4842863"><ele>21.0</ele><time>2026-04-30T12:31:23.986Z</time></trkpt><trkpt lat="41.9538635" lon="12.4842759"><ele>21.0</ele><time>2026-04-30T12:31:24.987Z</time></trkpt><trkpt lat="41.9536904" lon="12.4842908"><ele>21.0</ele><time>2026-04-30T12:31:25.986Z</time></trkpt><trkpt lat="41.953528" lon="12.4843516"><ele>21.0</ele><time>2026-04-30T12:31:26.986Z</time></trkpt><trkpt lat="41.9533674" lon="12.4844484"><ele>21.0</ele><time>2026-04-30T12:31:27.986Z</time></trkpt><trkpt lat="41.9532096" lon="12.4845604"><ele>20.333333333333332</ele><time>2026-04-30T12:31:28.987Z</time></trkpt><trkpt lat="41.9530545" lon="12.4846609"><ele>19.666666666666664</ele><time>2026-04-30T12:31:29.986Z</time></trkpt><trkpt lat="41.952903" lon="12.4847319"><ele>19.0</ele><time>2026-04-30T12:31:30.986Z</time></trkpt><trkpt lat="41.9527429" lon="12.4847684"><ele>19.0</ele><time>2026-04-30T12:31:31.986Z</time></trkpt><trkpt lat="41.9525695" lon="12.4847714"><ele>19.0</ele><time>2026-04-30T12:31:32.986Z</time></trkpt><trkpt lat="41.9523906" lon="12.484769"><ele>19.0</ele><time>2026-04-30T12:31:33.986Z</time></trkpt><trkpt lat="41.9522073" lon="12.4847675"><ele>19.666666666666664</ele><time>2026-04-30T12:31:34.986Z</time></trkpt><trkpt lat="41.9520258" lon="12.4847696"><ele>20.333333333333332</ele><time>2026-04-30T12:31:35.987Z</time></trkpt><trkpt lat="41.9518476" lon="12.4847732"><ele>21.0</ele><time>2026-04-30T12:31:36.986Z</time></trkpt><trkpt lat="41.9516667" lon="12.4847785"><ele>21.0</ele><time>2026-04-30T12:31:37.986Z</time></trkpt><trkpt lat="41.9515007" lon="12.4847785"><ele>21.0</ele><time>2026-04-30T12:31:38.986Z</time></trkpt><trkpt lat="41.9513172" lon="12.4847727"><ele>21.0</ele><time>2026-04-30T12:31:39.986Z</time></trkpt><trkpt lat="41.9511309" lon="12.4847634"><ele>21.0</ele><time>2026-04-30T12:31:40.986Z</time></trkpt><trkpt lat="41.9509392" lon="12.4847515"><ele>21.0</ele><time>2026-04-30T12:31:41.987Z</time></trkpt><trkpt lat="41.9507533" lon="12.4847432"><ele>21.0</ele><time>2026-04-30T12:31:42.986Z</time></trkpt><trkpt lat="41.9505633" lon="12.4847233"><ele>20.666666666666668</ele><time>2026-04-30T12:31:43.986Z</time></trkpt><trkpt lat="41.950375" lon="12.4846767"><ele>20.333333333333336</ele><time>2026-04-30T12:31:44.987Z</time></trkpt><trkpt lat="41.9501933" lon="12.4846067"><ele>20.0</ele><time>2026-04-30T12:31:45.987Z</time></trkpt><trkpt lat="41.9500183" lon="12.4845217"><ele>21.333333333333336</ele><time>2026-04-30T12:31:46.986Z</time></trkpt><trkpt lat="41.949845" lon="12.48446"><ele>22.666666666666668</ele><time>2026-04-30T12:31:47.986Z</time></trkpt><trkpt lat="41.9496733" lon="12.48444"><ele>24.0</ele><time>2026-04-30T12:31:48.986Z</time></trkpt><trkpt lat="41.9495217" lon="12.4844667"><ele>24.0</ele><time>2026-04-30T12:31:49.987Z</time></trkpt><trkpt lat="41.9493817" lon="12.4845383"><ele>24.0</ele><time>2026-04-30T12:31:50.987Z</time></trkpt><trkpt lat="41.949255" lon="12.4846417"><ele>24.0</ele><time>2026-04-30T12:31:51.986Z</time></trkpt><trkpt lat="41.9491267" lon="12.48475"><ele>24.0</ele><time>2026-04-30T12:31:52.986Z</time></trkpt><trkpt lat="41.94899" lon="12.4848483"><ele>21.666666666666668</ele><time>2026-04-30T12:31:53.986Z</time></trkpt><trkpt lat="41.94886" lon="12.4849517"><ele>19.333333333333336</ele><time>2026-04-30T12:31:54.987Z</time></trkpt><trkpt lat="41.948725" lon="12.4850533"><ele>17.0</ele><time>2026-04-30T12:31:55.986Z</time></trkpt><trkpt lat="41.948585" lon="12.4851517"><ele>17.0</ele><time>2026-04-30T12:31:56.986Z</time></trkpt><trkpt lat="41.9484467" lon="12.485245"><ele>17.0</ele><time>2026-04-30T12:31:57.987Z</time></trkpt><trkpt lat="41.94831" lon="12.4853317"><ele>17.0</ele><time>2026-04-30T12:31:58.986Z</time></trkpt><trkpt lat="41.9481933" lon="12.48541"><ele>17.0</ele><time>2026-04-30T12:31:59.986Z</time></trkpt><trkpt lat="41.9480817" lon="12.4854917"><ele>17.166666666666668</ele><time>2026-04-30T12:32:00.986Z</time></trkpt><trkpt lat="41.9479817" lon="12.4855683"><ele>17.333333333333336</ele><time>2026-04-30T12:32:01.986Z</time></trkpt><trkpt lat="41.947895" lon="12.4856317"><ele>17.5</ele><time>2026-04-30T12:32:02.987Z</time></trkpt><trkpt lat="41.9478217" lon="12.4856833"><ele>17.666666666666668</ele><time>2026-04-30T12:32:03.987Z</time></trkpt><trkpt lat="41.9477583" lon="12.4857233"><ele>17.833333333333332</ele><time>2026-04-30T12:32:04.987Z</time></trkpt><trkpt lat="41.9476867" lon="12.4857667"><ele>18.0</ele><time>2026-04-30T12:32:06.986Z</time></trkpt><trkpt lat="41.9476183" lon="12.4858233"><ele>18.0</ele><time>2026-04-30T12:32:09.987Z</time></trkpt><trkpt lat="41.9475517" lon="12.485855"><ele>18.0</ele><time>2026-04-30T12:32:12.987Z</time></trkpt><trkpt lat="41.9474933" lon="12.4859"><ele>18.0</ele><time>2026-04-30T12:32:15.986Z</time></trkpt><trkpt lat="41.9474217" lon="12.48595"><ele>18.0</ele><time>2026-04-30T12:32:25.986Z</time></trkpt><trkpt lat="41.947295" lon="12.486025"><ele>18.0</ele><time>2026-04-30T12:32:27.987Z</time></trkpt><trkpt lat="41.9472033" lon="12.4860833"><ele>18.5</ele><time>2026-04-30T12:32:28.986Z</time></trkpt><trkpt lat="41.9471133" lon="12.486155"><ele>19.0</ele><time>2026-04-30T12:32:29.987Z</time></trkpt><trkpt lat="41.9470133" lon="12.486215"><ele>19.5</ele><time>2026-04-30T12:32:30.986Z</time></trkpt><trkpt lat="41.9468983" lon="12.48627"><ele>20.0</ele><time>2026-04-30T12:32:31.986Z</time></trkpt><trkpt lat="41.9467717" lon="12.4863267"><ele>20.25</ele><time>2026-04-30T12:32:32.986Z</time></trkpt><trkpt lat="41.9466433" lon="12.4863733"><ele>20.5</ele><time>2026-04-30T12:32:33.986Z</time></trkpt><trkpt lat="41.9465183" lon="12.4863783"><ele>20.75</ele><time>2026-04-30T12:32:34.986Z</time></trkpt><trkpt lat="41.9463883" lon="12.48636"><ele>21.0</ele><time>2026-04-30T12:32:35.986Z</time></trkpt><trkpt lat="41.946265" lon="12.4863333"><ele>21.0</ele><time>2026-04-30T12:32:36.986Z</time></trkpt><trkpt lat="41.94613" lon="12.486315"><ele>21.0</ele><time>2026-04-30T12:32:37.987Z</time></trkpt><trkpt lat="41.9460083" lon="12.48632"><ele>21.0</ele><time>2026-04-30T12:32:38.987Z</time></trkpt><trkpt lat="41.9459033" lon="12.4863333"><ele>21.0</ele><time>2026-04-30T12:32:39.986Z</time></trkpt><trkpt lat="41.9458133" lon="12.4863583"><ele>20.833333333333332</ele><time>2026-04-30T12:32:40.986Z</time></trkpt><trkpt lat="41.9457467" lon="12.4863717"><ele>20.666666666666668</ele><time>2026-04-30T12:32:41.986Z</time></trkpt><trkpt lat="41.9456617" lon="12.48638"><ele>20.5</ele><time>2026-04-30T12:32:43.986Z</time></trkpt><trkpt lat="41.9455817" lon="12.486375"><ele>20.333333333333336</ele><time>2026-04-30T12:32:47.987Z</time></trkpt><trkpt lat="41.9455083" lon="12.48639"><ele>20.166666666666668</ele><time>2026-04-30T12:32:49.986Z</time></trkpt><trkpt lat="41.9453967" lon="12.4864133"><ele>20.0</ele><time>2026-04-30T12:32:51.987Z</time></trkpt><trkpt lat="41.9452533" lon="12.4864067"><ele>20.0</ele><time>2026-04-30T12:32:53.987Z</time></trkpt><trkpt lat="41.94516" lon="12.4863767"><ele>20.0</ele><time>2026-04-30T12:32:54.986Z</time></trkpt><trkpt lat="41.9450583" lon="12.4863183"><ele>20.0</ele><time>2026-04-30T12:32:55.987Z</time></trkpt><trkpt lat="41.9449583" lon="12.48624"><ele>20.0</ele><time>2026-04-30T12:32:56.987Z</time></trkpt><trkpt lat="41.9448567" lon="12.4861417"><ele>20.0</ele><time>2026-04-30T12:32:57.986Z</time></trkpt><trkpt lat="41.94475" lon="12.48603"><ele>19.666666666666668</ele><time>2026-04-30T12:32:58.986Z</time></trkpt><trkpt lat="41.94464" lon="12.4858883"><ele>19.333333333333332</ele><time>2026-04-30T12:32:59.986Z</time></trkpt><trkpt lat="41.9445283" lon="12.4857433"><ele>19.0</ele><time>2026-04-30T12:33:00.987Z</time></trkpt><trkpt lat="41.9444067" lon="12.4856"><ele>19.0</ele><time>2026-04-30T12:33:01.987Z</time></trkpt><trkpt lat="41.9442817" lon="12.4854433"><ele>19.0</ele><time>2026-04-30T12:33:02.986Z</time></trkpt><trkpt lat="41.9441567" lon="12.48529"><ele>19.0</ele><time>2026-04-30T12:33:03.986Z</time></trkpt><trkpt lat="41.944025" lon="12.4851433"><ele>18.0</ele><time>2026-04-30T12:33:04.986Z</time></trkpt><trkpt lat="41.943905" lon="12.4849967"><ele>17.0</ele><time>2026-04-30T12:33:05.986Z</time></trkpt><trkpt lat="41.9437867" lon="12.484855"><ele>16.0</ele><time>2026-04-30T12:33:06.986Z</time></trkpt><trkpt lat="41.9436733" lon="12.484725"><ele>16.666666666666664</ele><time>2026-04-30T12:33:07.986Z</time></trkpt><trkpt lat="41.9435667" lon="12.484595"><ele>17.333333333333332</ele><time>2026-04-30T12:33:08.986Z</time></trkpt><trkpt lat="41.94345" lon="12.4844583"><ele>18.0</ele><time>2026-04-30T12:33:09.986Z</time></trkpt><trkpt lat="41.943325" lon="12.4843133"><ele>18.0</ele><time>2026-04-30T12:33:10.986Z</time></trkpt><trkpt lat="41.9432017" lon="12.4841683"><ele>18.0</ele><time>2026-04-30T12:33:11.986Z</time></trkpt><trkpt lat="41.9430817" lon="12.4840217"><ele>18.0</ele><time>2026-04-30T12:33:12.986Z</time></trkpt><trkpt lat="41.9429683" lon="12.483885"><ele>18.25</ele><time>2026-04-30T12:33:13.986Z</time></trkpt><trkpt lat="41.9428683" lon="12.483755"><ele>18.5</ele><time>2026-04-30T12:33:14.987Z</time></trkpt><trkpt lat="41.9427767" lon="12.483635"><ele>18.75</ele><time>2026-04-30T12:33:15.986Z</time></trkpt><trkpt lat="41.942685" lon="12.48352"><ele>19.0</ele><time>2026-04-30T12:33:16.986Z</time></trkpt><trkpt lat="41.9426117" lon="12.4834267"><ele>19.0</ele><time>2026-04-30T12:33:17.986Z</time></trkpt><trkpt lat="41.9425517" lon="12.4833383"><ele>19.0</ele><time>2026-04-30T12:33:18.986Z</time></trkpt><trkpt lat="41.9425133" lon="12.4832317"><ele>19.0</ele><time>2026-04-30T12:33:20.986Z</time></trkpt><trkpt lat="41.9424683" lon="12.4831517"><ele>19.0</ele><time>2026-04-30T12:33:25.986Z</time></trkpt><trkpt lat="41.94239" lon="12.4830633"><ele>19.0</ele><time>2026-04-30T12:33:26.986Z</time></trkpt><trkpt lat="41.9422933" lon="12.482945"><ele>18.25</ele><time>2026-04-30T12:33:27.987Z</time></trkpt><trkpt lat="41.94218" lon="12.482815"><ele>17.5</ele><time>2026-04-30T12:33:28.986Z</time></trkpt><trkpt lat="41.9420717" lon="12.4826817"><ele>16.75</ele><time>2026-04-30T12:33:29.987Z</time></trkpt><trkpt lat="41.9419667" lon="12.4825567"><ele>16.0</ele><time>2026-04-30T12:33:30.986Z</time></trkpt><trkpt lat="41.9418583" lon="12.48243"><ele>16.0</ele><time>2026-04-30T12:33:31.987Z</time></trkpt><trkpt lat="41.941745" lon="12.482295"><ele>16.0</ele><time>2026-04-30T12:33:32.987Z</time></trkpt><trkpt lat="41.9416417" lon="12.4821717"><ele>16.0</ele><time>2026-04-30T12:33:33.986Z</time></trkpt><trkpt lat="41.9415483" lon="12.4820567"><ele>16.0</ele><time>2026-04-30T12:33:34.986Z</time></trkpt><trkpt lat="41.9414567" lon="12.48195"><ele>16.0</ele><time>2026-04-30T12:33:35.986Z</time></trkpt><trkpt lat="41.94137" lon="12.4818483"><ele>16.0</ele><time>2026-04-30T12:33:36.986Z</time></trkpt><trkpt lat="41.9412967" lon="12.4817583"><ele>16.0</ele><time>2026-04-30T12:33:37.986Z</time></trkpt><trkpt lat="41.94122" lon="12.481655"><ele>16.0</ele><time>2026-04-30T12:33:38.986Z</time></trkpt><trkpt lat="41.9411367" lon="12.4815517"><ele>16.0</ele><time>2026-04-30T12:33:39.986Z</time></trkpt><trkpt lat="41.9410567" lon="12.4814517"><ele>16.0</ele><time>2026-04-30T12:33:40.986Z</time></trkpt><trkpt lat="41.9409717" lon="12.481355"><ele>16.0</ele><time>2026-04-30T12:33:41.986Z</time></trkpt><trkpt lat="41.9408883" lon="12.4812567"><ele>16.0</ele><time>2026-04-30T12:33:42.987Z</time></trkpt><trkpt lat="41.9407933" lon="12.4811583"><ele>16.0</ele><time>2026-04-30T12:33:43.987Z</time></trkpt><trkpt lat="41.94071" lon="12.4810533"><ele>16.0</ele><time>2026-04-30T12:33:44.986Z</time></trkpt><trkpt lat="41.9406433" lon="12.480925"><ele>16.0</ele><time>2026-04-30T12:33:45.986Z</time></trkpt><trkpt lat="41.940615" lon="12.4807933"><ele>16.0</ele><time>2026-04-30T12:33:46.986Z</time></trkpt><trkpt lat="41.9406133" lon="12.4806467"><ele>16.0</ele><time>2026-04-30T12:33:47.986Z</time></trkpt><trkpt lat="41.94063" lon="12.48047"><ele>16.333333333333332</ele><time>2026-04-30T12:33:48.986Z</time></trkpt><trkpt lat="41.94065" lon="12.4802783"><ele>16.666666666666668</ele><time>2026-04-30T12:33:49.986Z</time></trkpt><trkpt lat="41.9406667" lon="12.4800683"><ele>17.0</ele><time>2026-04-30T12:33:50.986Z</time></trkpt><trkpt lat="41.9406817" lon="12.4798517"><ele>17.0</ele><time>2026-04-30T12:33:51.986Z</time></trkpt><trkpt lat="41.9406833" lon="12.4796433"><ele>17.0</ele><time>2026-04-30T12:33:52.987Z</time></trkpt><trkpt lat="41.9406783" lon="12.4794333"><ele>17.0</ele><time>2026-04-30T12:33:53.986Z</time></trkpt><trkpt lat="41.940685" lon="12.4792267"><ele>17.0</ele><time>2026-04-30T12:33:54.986Z</time></trkpt><trkpt lat="41.9406833" lon="12.4790283"><ele>17.0</ele><time>2026-04-30T12:33:55.986Z</time></trkpt><trkpt lat="41.9406833" lon="12.4788467"><ele>17.0</ele><time>2026-04-30T12:33:56.987Z</time></trkpt><trkpt lat="41.9406833" lon="12.4786733"><ele>17.0</ele><time>2026-04-30T12:33:57.986Z</time></trkpt><trkpt lat="41.940685" lon="12.4785"><ele>17.0</ele><time>2026-04-30T12:33:58.986Z</time></trkpt><trkpt lat="41.9406933" lon="12.4783267"><ele>17.0</ele><time>2026-04-30T12:33:59.987Z</time></trkpt><trkpt lat="41.9407" lon="12.4781267"><ele>17.0</ele><time>2026-04-30T12:34:00.986Z</time></trkpt><trkpt lat="41.9407017" lon="12.4779067"><ele>17.0</ele><time>2026-04-30T12:34:01.986Z</time></trkpt><trkpt lat="41.9407067" lon="12.477665"><ele>18.333333333333336</ele><time>2026-04-30T12:34:02.986Z</time></trkpt><trkpt lat="41.9407117" lon="12.4774033"><ele>19.666666666666668</ele><time>2026-04-30T12:34:03.986Z</time></trkpt><trkpt lat="41.94071" lon="12.477135"><ele>21.0</ele><time>2026-04-30T12:34:04.986Z</time></trkpt><trkpt lat="41.940725" lon="12.476855"><ele>27.333333333333336</ele><time>2026-04-30T12:34:05.986Z</time></trkpt><trkpt lat="41.940735" lon="12.47658"><ele>33.66666666666667</ele><time>2026-04-30T12:34:06.986Z</time></trkpt><trkpt lat="41.9407417" lon="12.4763217"><ele>40.0</ele><time>2026-04-30T12:34:07.986Z</time></trkpt><trkpt lat="41.94076" lon="12.4760633"><ele>43.66666666666667</ele><time>2026-04-30T12:34:08.986Z</time></trkpt><trkpt lat="41.9407733" lon="12.4758"><ele>47.333333333333336</ele><time>2026-04-30T12:34:09.986Z</time></trkpt><trkpt lat="41.940785" lon="12.47554"><ele>51.0</ele><time>2026-04-30T12:34:10.986Z</time></trkpt><trkpt lat="41.940795" lon="12.4752783"><ele>52.66666666666667</ele><time>2026-04-30T12:34:11.986Z</time></trkpt><trkpt lat="41.940805" lon="12.4750167"><ele>54.333333333333336</ele><time>2026-04-30T12:34:12.986Z</time></trkpt><trkpt lat="41.9408164" lon="12.4747549"><ele>56.0</ele><time>2026-04-30T12:34:13.986Z</time></trkpt><trkpt lat="41.9406992" lon="12.4726658"><ele>51.0</ele><time>2026-04-30T12:34:21.989Z</time></trkpt><trkpt lat="41.9407306" lon="12.4724969"><ele>46.0</ele><time>2026-04-30T12:34:22.989Z</time></trkpt><trkpt lat="41.9407432" lon="12.4723179"><ele>41.0</ele><time>2026-04-30T12:34:23.989Z</time></trkpt><trkpt lat="41.9407671" lon="12.4721302"><ele>36.0</ele><time>2026-04-30T12:34:24.99Z</time></trkpt><trkpt lat="41.940783" lon="12.4719339"><ele>34.666666666666664</ele><time>2026-04-30T12:34:25.99Z</time></trkpt><trkpt lat="41.9407988" lon="12.4717231"><ele>33.33333333333333</ele><time>2026-04-30T12:34:26.988Z</time></trkpt><trkpt lat="41.9408177" lon="12.4715111"><ele>32.0</ele><time>2026-04-30T12:34:27.989Z</time></trkpt><trkpt lat="41.9408356" lon="12.4712973"><ele>31.0</ele><time>2026-04-30T12:34:28.988Z</time></trkpt><trkpt lat="41.9408538" lon="12.4710865"><ele>30.0</ele><time>2026-04-30T12:34:29.988Z</time></trkpt><trkpt lat="41.9408718" lon="12.4708759"><ele>29.0</ele><time>2026-04-30T12:34:30.988Z</time></trkpt><trkpt lat="41.9408801" lon="12.4706581"><ele>29.333333333333332</ele><time>2026-04-30T12:34:31.988Z</time></trkpt><trkpt lat="41.940891" lon="12.4704337"><ele>29.666666666666664</ele><time>2026-04-30T12:34:32.988Z</time></trkpt><trkpt lat="41.9409011" lon="12.4702001"><ele>30.0</ele><time>2026-04-30T12:34:33.988Z</time></trkpt><trkpt lat="41.9409112" lon="12.4699605"><ele>30.0</ele><time>2026-04-30T12:34:34.988Z</time></trkpt><trkpt lat="41.9409181" lon="12.4697232"><ele>30.0</ele><time>2026-04-30T12:34:35.989Z</time></trkpt><trkpt lat="41.9409313" lon="12.4694971"><ele>30.0</ele><time>2026-04-30T12:34:36.988Z</time></trkpt><trkpt lat="41.9409423" lon="12.4692723"><ele>32.0</ele><time>2026-04-30T12:34:37.989Z</time></trkpt><trkpt lat="41.9409513" lon="12.4690663"><ele>34.0</ele><time>2026-04-30T12:34:38.988Z</time></trkpt><trkpt lat="41.9409533" lon="12.4688664"><ele>36.0</ele><time>2026-04-30T12:34:39.989Z</time></trkpt><trkpt lat="41.9409615" lon="12.4686738"><ele>38.0</ele><time>2026-04-30T12:34:40.988Z</time></trkpt><trkpt lat="41.9409721" lon="12.4684781"><ele>43.666666666666664</ele><time>2026-04-30T12:34:41.989Z</time></trkpt><trkpt lat="41.9409857" lon="12.4682741"><ele>49.33333333333333</ele><time>2026-04-30T12:34:42.988Z</time></trkpt><trkpt lat="41.9410033" lon="12.4680694"><ele>55.0</ele><time>2026-04-30T12:34:43.989Z</time></trkpt><trkpt lat="41.9410106" lon="12.4678478"><ele>55.33333333333333</ele><time>2026-04-30T12:34:44.988Z</time></trkpt><trkpt lat="41.9410209" lon="12.4676214"><ele>55.66666666666667</ele><time>2026-04-30T12:34:45.988Z</time></trkpt><trkpt lat="41.9410286" lon="12.4674079"><ele>56.0</ele><time>2026-04-30T12:34:46.988Z</time></trkpt><trkpt lat="41.9410297" lon="12.4672007"><ele>54.66666666666667</ele><time>2026-04-30T12:34:47.988Z</time></trkpt><trkpt lat="41.9410251" lon="12.4669894"><ele>53.33333333333333</ele><time>2026-04-30T12:34:48.988Z</time></trkpt><trkpt lat="41.941025" lon="12.4667721"><ele>52.0</ele><time>2026-04-30T12:34:49.988Z</time></trkpt><trkpt lat="41.9410212" lon="12.4665562"><ele>52.0</ele><time>2026-04-30T12:34:50.988Z</time></trkpt><trkpt lat="41.941008" lon="12.4663397"><ele>52.0</ele><time>2026-04-30T12:34:51.988Z</time></trkpt><trkpt lat="41.9410031" lon="12.4661288"><ele>52.0</ele><time>2026-04-30T12:34:52.989Z</time></trkpt><trkpt lat="41.9409961" lon="12.4659223"><ele>51.666666666666664</ele><time>2026-04-30T12:34:53.989Z</time></trkpt><trkpt lat="41.9409834" lon="12.4657009"><ele>51.33333333333333</ele><time>2026-04-30T12:34:54.988Z</time></trkpt><trkpt lat="41.9409505" lon="12.4654828"><ele>51.0</ele><time>2026-04-30T12:34:55.989Z</time></trkpt><trkpt lat="41.9409007" lon="12.4652905"><ele>49.5</ele><time>2026-04-30T12:34:56.988Z</time></trkpt><trkpt lat="41.9408559" lon="12.4650994"><ele>48.0</ele><time>2026-04-30T12:34:57.988Z</time></trkpt><trkpt lat="41.9408179" lon="12.4649085"><ele>46.5</ele><time>2026-04-30T12:34:58.989Z</time></trkpt><trkpt lat="41.9407831" lon="12.4647298"><ele>45.0</ele><time>2026-04-30T12:34:59.989Z</time></trkpt><trkpt lat="41.9407411" lon="12.4645481"><ele>45.0</ele><time>2026-04-30T12:35:00.988Z</time></trkpt><trkpt lat="41.9406997" lon="12.4643665"><ele>45.0</ele><time>2026-04-30T12:35:01.988Z</time></trkpt><trkpt lat="41.9406646" lon="12.4641874"><ele>45.0</ele><time>2026-04-30T12:35:02.989Z</time></trkpt><trkpt lat="41.9406229" lon="12.4640138"><ele>45.0</ele><time>2026-04-30T12:35:03.988Z</time></trkpt><trkpt lat="41.9405824" lon="12.4638366"><ele>43.333333333333336</ele><time>2026-04-30T12:35:04.988Z</time></trkpt><trkpt lat="41.9405385" lon="12.4636557"><ele>41.66666666666667</ele><time>2026-04-30T12:35:05.988Z</time></trkpt><trkpt lat="41.9404909" lon="12.4634672"><ele>40.0</ele><time>2026-04-30T12:35:06.989Z</time></trkpt><trkpt lat="41.9404388" lon="12.4632616"><ele>40.0</ele><time>2026-04-30T12:35:07.989Z</time></trkpt><trkpt lat="41.9403915" lon="12.4630622"><ele>40.0</ele><time>2026-04-30T12:35:08.988Z</time></trkpt><trkpt lat="41.940342" lon="12.4628519"><ele>40.0</ele><time>2026-04-30T12:35:09.988Z</time></trkpt><trkpt lat="41.9402942" lon="12.4626333"><ele>38.66666666666667</ele><time>2026-04-30T12:35:10.988Z</time></trkpt><trkpt lat="41.9402484" lon="12.4624172"><ele>37.333333333333336</ele><time>2026-04-30T12:35:11.988Z</time></trkpt><trkpt lat="41.940198" lon="12.4622087"><ele>36.0</ele><time>2026-04-30T12:35:12.988Z</time></trkpt><trkpt lat="41.9401427" lon="12.4620148"><ele>36.0</ele><time>2026-04-30T12:35:13.988Z</time></trkpt><trkpt lat="41.9400864" lon="12.4618273"><ele>36.0</ele><time>2026-04-30T12:35:14.989Z</time></trkpt><trkpt lat="41.9400439" lon="12.4616423"><ele>36.0</ele><time>2026-04-30T12:35:15.989Z</time></trkpt><trkpt lat="41.9399942" lon="12.461478"><ele>36.0</ele><time>2026-04-30T12:35:16.988Z</time></trkpt><trkpt lat="41.9399431" lon="12.4613305"><ele>39.0</ele><time>2026-04-30T12:35:17.989Z</time></trkpt><trkpt lat="41.9398556" lon="12.4611674"><ele>42.0</ele><time>2026-04-30T12:35:18.988Z</time></trkpt><trkpt lat="41.9398118" lon="12.4609971"><ele>45.0</ele><time>2026-04-30T12:35:19.989Z</time></trkpt><trkpt lat="41.9397633" lon="12.4608149"><ele>48.0</ele><time>2026-04-30T12:35:20.988Z</time></trkpt><trkpt lat="41.939708" lon="12.4606251"><ele>47.0</ele><time>2026-04-30T12:35:21.988Z</time></trkpt><trkpt lat="41.9396467" lon="12.460419"><ele>46.0</ele><time>2026-04-30T12:35:22.988Z</time></trkpt><trkpt lat="41.9395842" lon="12.4601959"><ele>45.0</ele><time>2026-04-30T12:35:23.989Z</time></trkpt><trkpt lat="41.939519" lon="12.4599619"><ele>45.0</ele><time>2026-04-30T12:35:24.989Z</time></trkpt><trkpt lat="41.9394642" lon="12.4597372"><ele>45.0</ele><time>2026-04-30T12:35:25.988Z</time></trkpt><trkpt lat="41.9394256" lon="12.4595177"><ele>45.0</ele><time>2026-04-30T12:35:26.988Z</time></trkpt><trkpt lat="41.9393969" lon="12.459307"><ele>46.33333333333333</ele><time>2026-04-30T12:35:27.988Z</time></trkpt><trkpt lat="41.9393705" lon="12.4590884"><ele>47.666666666666664</ele><time>2026-04-30T12:35:28.988Z</time></trkpt><trkpt lat="41.939344" lon="12.4588509"><ele>49.0</ele><time>2026-04-30T12:35:29.988Z</time></trkpt><trkpt lat="41.9393158" lon="12.458593"><ele>49.0</ele><time>2026-04-30T12:35:30.988Z</time></trkpt><trkpt lat="41.9392922" lon="12.4583243"><ele>49.0</ele><time>2026-04-30T12:35:31.988Z</time></trkpt><trkpt lat="41.9392702" lon="12.4580585"><ele>49.0</ele><time>2026-04-30T12:35:32.989Z</time></trkpt><trkpt lat="41.9392484" lon="12.4577987"><ele>52.0</ele><time>2026-04-30T12:35:33.988Z</time></trkpt><trkpt lat="41.9392193" lon="12.4575338"><ele>55.0</ele><time>2026-04-30T12:35:34.988Z</time></trkpt><trkpt lat="41.9391906" lon="12.457269"><ele>58.0</ele><time>2026-04-30T12:35:35.988Z</time></trkpt><trkpt lat="41.9391608" lon="12.4570028"><ele>67.0</ele><time>2026-04-30T12:35:36.988Z</time></trkpt><trkpt lat="41.9391328" lon="12.4567356"><ele>76.0</ele><time>2026-04-30T12:35:37.989Z</time></trkpt><trkpt lat="41.9409717" lon="12.4418283"><ele>79.75</ele><time>2026-04-30T12:36:52.985Z</time></trkpt><trkpt lat="41.9409208" lon="12.4416906"><ele>83.5</ele><time>2026-04-30T12:36:53.985Z</time></trkpt><trkpt lat="41.9408645" lon="12.4415518"><ele>87.25</ele><time>2026-04-30T12:36:54.985Z</time></trkpt><trkpt lat="41.9408044" lon="12.4414021"><ele>91.0</ele><time>2026-04-30T12:36:55.985Z</time></trkpt><trkpt lat="41.9407332" lon="12.4412622"><ele>91.8</ele><time>2026-04-30T12:36:56.985Z</time></trkpt><trkpt lat="41.940662" lon="12.4411373"><ele>92.6</ele><time>2026-04-30T12:36:57.986Z</time></trkpt><trkpt lat="41.9406055" lon="12.4410284"><ele>93.4</ele><time>2026-04-30T12:36:58.985Z</time></trkpt><trkpt lat="41.9405458" lon="12.4409561"><ele>94.2</ele><time>2026-04-30T12:36:59.985Z</time></trkpt><trkpt lat="41.9404824" lon="12.4409307"><ele>95.0</ele><time>2026-04-30T12:37:00.986Z</time></trkpt><trkpt lat="41.940384" lon="12.4409623"><ele>95.0</ele><time>2026-04-30T12:37:02.985Z</time></trkpt><trkpt lat="41.9403322" lon="12.4410297"><ele>95.0</ele><time>2026-04-30T12:37:05.985Z</time></trkpt><trkpt lat="41.9402416" lon="12.441155"><ele>95.0</ele><time>2026-04-30T12:37:07.985Z</time></trkpt><trkpt lat="41.9401903" lon="12.4412324"><ele>95.0</ele><time>2026-04-30T12:37:08.985Z</time></trkpt><trkpt lat="41.9401383" lon="12.441297"><ele>95.0</ele><time>2026-04-30T12:37:09.986Z</time></trkpt><trkpt lat="41.9400704" lon="12.4413379"><ele>95.0</ele><time>2026-04-30T12:37:10.986Z</time></trkpt><trkpt lat="41.9399892" lon="12.441356"><ele>95.6</ele><time>2026-04-30T12:37:11.985Z</time></trkpt><trkpt lat="41.9398925" lon="12.4413643"><ele>96.2</ele><time>2026-04-30T12:37:12.985Z</time></trkpt><trkpt lat="41.9397894" lon="12.441377"><ele>96.80000000000001</ele><time>2026-04-30T12:37:13.985Z</time></trkpt><trkpt lat="41.9396756" lon="12.4413883"><ele>97.4</ele><time>2026-04-30T12:37:14.985Z</time></trkpt><trkpt lat="41.9395617" lon="12.4413901"><ele>98.0</ele><time>2026-04-30T12:37:15.985Z</time></trkpt><trkpt lat="41.939443" lon="12.4414003"><ele>98.0</ele><time>2026-04-30T12:37:16.985Z</time></trkpt><trkpt lat="41.9393273" lon="12.4414177"><ele>98.0</ele><time>2026-04-30T12:37:17.985Z</time></trkpt><trkpt lat="41.9392093" lon="12.4414284"><ele>98.0</ele><time>2026-04-30T12:37:18.986Z</time></trkpt><trkpt lat="41.9391001" lon="12.441443"><ele>98.0</ele><time>2026-04-30T12:37:19.985Z</time></trkpt><trkpt lat="41.9389959" lon="12.4414621"><ele>99.33333333333333</ele><time>2026-04-30T12:37:20.985Z</time></trkpt><trkpt lat="41.938897" lon="12.4414719"><ele>100.66666666666666</ele><time>2026-04-30T12:37:21.985Z</time></trkpt><trkpt lat="41.9388084" lon="12.4414793"><ele>102.0</ele><time>2026-04-30T12:37:22.985Z</time></trkpt><trkpt lat="41.9387243" lon="12.4414829"><ele>103.33333333333334</ele><time>2026-04-30T12:37:23.985Z</time></trkpt><trkpt lat="41.9386438" lon="12.4414857"><ele>104.66666666666667</ele><time>2026-04-30T12:37:24.985Z</time></trkpt><trkpt lat="41.9385714" lon="12.4414879"><ele>106.0</ele><time>2026-04-30T12:37:25.985Z</time></trkpt><trkpt lat="41.9385084" lon="12.4414897"><ele>106.00000000000001</ele><time>2026-04-30T12:37:26.985Z</time></trkpt><trkpt lat="41.9383912" lon="12.4414751"><ele>106.0</ele><time>2026-04-30T12:37:28.986Z</time></trkpt><trkpt lat="41.9383194" lon="12.4414669"><ele>106.0</ele><time>2026-04-30T12:37:30.985Z</time></trkpt><trkpt lat="41.9382402" lon="12.4414633"><ele>106.0</ele><time>2026-04-30T12:37:33.986Z</time></trkpt><trkpt lat="41.9381754" lon="12.4414553"><ele>106.00000000000001</ele><time>2026-04-30T12:37:37.985Z</time></trkpt><trkpt lat="41.9380963" lon="12.4414297"><ele>106.0</ele><time>2026-04-30T12:37:44.985Z</time></trkpt><trkpt lat="41.9379902" lon="12.441396"><ele>106.6</ele><time>2026-04-30T12:37:46.986Z</time></trkpt><trkpt lat="41.9379156" lon="12.4413765"><ele>107.19999999999999</ele><time>2026-04-30T12:37:47.985Z</time></trkpt><trkpt lat="41.9378298" lon="12.4413532"><ele>107.80000000000001</ele><time>2026-04-30T12:37:48.985Z</time></trkpt><trkpt lat="41.9377288" lon="12.4413242"><ele>108.4</ele><time>2026-04-30T12:37:49.985Z</time></trkpt><trkpt lat="41.9376125" lon="12.4412808"><ele>109.0</ele><time>2026-04-30T12:37:50.985Z</time></trkpt><trkpt lat="41.9374968" lon="12.4412319"><ele>111.0</ele><time>2026-04-30T12:37:51.986Z</time></trkpt><trkpt lat="41.9373828" lon="12.4411819"><ele>113.0</ele><time>2026-04-30T12:37:52.985Z</time></trkpt><trkpt lat="41.9372831" lon="12.4411248"><ele>115.0</ele><time>2026-04-30T12:37:53.985Z</time></trkpt><trkpt lat="41.9371868" lon="12.4410638"><ele>117.0</ele><time>2026-04-30T12:37:54.985Z</time></trkpt><trkpt lat="41.9370898" lon="12.4409977"><ele>119.0</ele><time>2026-04-30T12:37:55.985Z</time></trkpt><trkpt lat="41.9369977" lon="12.4409291"><ele>118.99999999999999</ele><time>2026-04-30T12:37:56.985Z</time></trkpt><trkpt lat="41.9369135" lon="12.4408718"><ele>119.0</ele><time>2026-04-30T12:37:57.985Z</time></trkpt><trkpt lat="41.9368433" lon="12.4408097"><ele>119.0</ele><time>2026-04-30T12:37:58.986Z</time></trkpt><trkpt lat="41.9367842" lon="12.44075"><ele>119.0</ele><time>2026-04-30T12:37:59.985Z</time></trkpt><trkpt lat="41.9367286" lon="12.4406867"><ele>118.99999999999999</ele><time>2026-04-30T12:38:00.985Z</time></trkpt><trkpt lat="41.9366516" lon="12.4405903"><ele>119.0</ele><time>2026-04-30T12:38:02.985Z</time></trkpt><trkpt lat="41.9365727" lon="12.4405138"><ele>120.4</ele><time>2026-04-30T12:38:05.985Z</time></trkpt><trkpt lat="41.9364802" lon="12.4404311"><ele>121.80000000000001</ele><time>2026-04-30T12:38:07.985Z</time></trkpt><trkpt lat="41.9363892" lon="12.440326"><ele>123.19999999999999</ele><time>2026-04-30T12:38:09.985Z</time></trkpt><trkpt lat="41.9363154" lon="12.44024"><ele>124.6</ele><time>2026-04-30T12:38:11.985Z</time></trkpt><trkpt lat="41.9362459" lon="12.4401689"><ele>126.0</ele><time>2026-04-30T12:38:13.985Z</time></trkpt><trkpt lat="41.9361558" lon="12.4400593"><ele>126.0</ele><time>2026-04-30T12:38:15.985Z</time></trkpt><trkpt lat="41.9361015" lon="12.4399916"><ele>126.0</ele><time>2026-04-30T12:38:16.985Z</time></trkpt><trkpt lat="41.936042" lon="12.4399251"><ele>126.0</ele><time>2026-04-30T12:38:17.985Z</time></trkpt><trkpt lat="41.9359943" lon="12.4398698"><ele>126.0</ele><time>2026-04-30T12:38:18.985Z</time></trkpt><trkpt lat="41.9359107" lon="12.4397617"><ele>126.0</ele><time>2026-04-30T12:38:20.985Z</time></trkpt><trkpt lat="41.9358204" lon="12.4396592"><ele>126.0</ele><time>2026-04-30T12:38:22.985Z</time></trkpt><trkpt lat="41.9357468" lon="12.4395513"><ele>126.16666666666667</ele><time>2026-04-30T12:38:24.986Z</time></trkpt><trkpt lat="41.935692" lon="12.4394861"><ele>126.33333333333334</ele><time>2026-04-30T12:38:25.986Z</time></trkpt><trkpt lat="41.9356324" lon="12.4394192"><ele>126.5</ele><time>2026-04-30T12:38:26.986Z</time></trkpt><trkpt lat="41.9355718" lon="12.4393353"><ele>126.66666666666667</ele><time>2026-04-30T12:38:27.985Z</time></trkpt><trkpt lat="41.9355108" lon="12.4392469"><ele>126.83333333333334</ele><time>2026-04-30T12:38:28.986Z</time></trkpt><trkpt lat="41.9354565" lon="12.4391644"><ele>127.0</ele><time>2026-04-30T12:38:29.985Z</time></trkpt><trkpt lat="41.9354132" lon="12.4390923"><ele>127.0</ele><time>2026-04-30T12:38:30.986Z</time></trkpt><trkpt lat="41.9353592" lon="12.4389946"><ele>126.99999999999999</ele><time>2026-04-30T12:38:32.985Z</time></trkpt><trkpt lat="41.9352743" lon="12.4389006"><ele>126.99999999999999</ele><time>2026-04-30T12:38:56.985Z</time></trkpt><trkpt lat="41.9352205" lon="12.4388304"><ele>127.0</ele><time>2026-04-30T12:38:58.985Z</time></trkpt><trkpt lat="41.9351731" lon="12.4387453"><ele>127.0</ele><time>2026-04-30T12:39:01.985Z</time></trkpt><trkpt lat="41.9351" lon="12.4386167"><ele>126.6</ele><time>2026-04-30T12:39:14.985Z</time></trkpt><trkpt lat="41.93503" lon="12.438595"><ele>126.19999999999999</ele><time>2026-04-30T12:39:16.986Z</time></trkpt><trkpt lat="41.93491" lon="12.43868"><ele>125.8</ele><time>2026-04-30T12:39:18.985Z</time></trkpt><trkpt lat="41.9348383" lon="12.4387617"><ele>125.4</ele><time>2026-04-30T12:39:19.985Z</time></trkpt><trkpt lat="41.9347567" lon="12.4388533"><ele>125.0</ele><time>2026-04-30T12:39:20.986Z</time></trkpt><trkpt lat="41.9346783" lon="12.4389483"><ele>125.0</ele><time>2026-04-30T12:39:21.986Z</time></trkpt><trkpt lat="41.9346083" lon="12.4390417"><ele>125.0</ele><time>2026-04-30T12:39:22.985Z</time></trkpt><trkpt lat="41.9345333" lon="12.43913"><ele>125.0</ele><time>2026-04-30T12:39:23.986Z</time></trkpt><trkpt lat="41.93446" lon="12.4392233"><ele>125.0</ele><time>2026-04-30T12:39:24.985Z</time></trkpt><trkpt lat="41.9343867" lon="12.43932"><ele>125.0</ele><time>2026-04-30T12:39:25.985Z</time></trkpt><trkpt lat="41.9343117" lon="12.4394017"><ele>125.0</ele><time>2026-04-30T12:39:26.986Z</time></trkpt><trkpt lat="41.9342367" lon="12.43948"><ele>125.0</ele><time>2026-04-30T12:39:27.985Z</time></trkpt><trkpt lat="41.9341583" lon="12.4395733"><ele>125.0</ele><time>2026-04-30T12:39:28.985Z</time></trkpt><trkpt lat="41.9340733" lon="12.4396667"><ele>125.0</ele><time>2026-04-30T12:39:29.986Z</time></trkpt><trkpt lat="41.9339917" lon="12.4397683"><ele>125.0</ele><time>2026-04-30T12:39:30.985Z</time></trkpt><trkpt lat="41.93391" lon="12.439855"><ele>125.6</ele><time>2026-04-30T12:39:31.985Z</time></trkpt><trkpt lat="41.9338283" lon="12.4399483"><ele>126.2</ele><time>2026-04-30T12:39:32.986Z</time></trkpt><trkpt lat="41.9337483" lon="12.4400467"><ele>126.80000000000001</ele><time>2026-04-30T12:39:33.986Z</time></trkpt><trkpt lat="41.9336667" lon="12.4401583"><ele>127.4</ele><time>2026-04-30T12:39:34.985Z</time></trkpt><trkpt lat="41.9335817" lon="12.44026"><ele>128.0</ele><time>2026-04-30T12:39:35.985Z</time></trkpt><trkpt lat="41.933485" lon="12.4403567"><ele>128.0</ele><time>2026-04-30T12:39:36.986Z</time></trkpt><trkpt lat="41.9333983" lon="12.4404567"><ele>128.0</ele><time>2026-04-30T12:39:37.985Z</time></trkpt><trkpt lat="41.933315" lon="12.440565"><ele>128.0</ele><time>2026-04-30T12:39:38.986Z</time></trkpt><trkpt lat="41.9332283" lon="12.440665"><ele>128.0</ele><time>2026-04-30T12:39:39.985Z</time></trkpt><trkpt lat="41.9331433" lon="12.4407617"><ele>127.25</ele><time>2026-04-30T12:39:40.985Z</time></trkpt><trkpt lat="41.9330483" lon="12.44087"><ele>126.5</ele><time>2026-04-30T12:39:41.985Z</time></trkpt><trkpt lat="41.932955" lon="12.4409767"><ele>125.75</ele><time>2026-04-30T12:39:42.985Z</time></trkpt><trkpt lat="41.9328583" lon="12.441085"><ele>125.0</ele><time>2026-04-30T12:39:43.985Z</time></trkpt><trkpt lat="41.9327633" lon="12.441205"><ele>125.75</ele><time>2026-04-30T12:39:44.985Z</time></trkpt><trkpt lat="41.9326767" lon="12.4413283"><ele>126.5</ele><time>2026-04-30T12:39:45.985Z</time></trkpt><trkpt lat="41.9325817" lon="12.4414717"><ele>127.25</ele><time>2026-04-30T12:39:46.985Z</time></trkpt><trkpt lat="41.93249" lon="12.44162"><ele>128.0</ele><time>2026-04-30T12:39:47.985Z</time></trkpt><trkpt lat="41.93242" lon="12.4417683"><ele>126.75</ele><time>2026-04-30T12:39:48.985Z</time></trkpt><trkpt lat="41.9323467" lon="12.4419233"><ele>125.5</ele><time>2026-04-30T12:39:49.986Z</time></trkpt><trkpt lat="41.93227" lon="12.44207"><ele>124.25</ele><time>2026-04-30T12:39:50.986Z</time></trkpt><trkpt lat="41.9322" lon="12.4422233"><ele>123.0</ele><time>2026-04-30T12:39:51.986Z</time></trkpt><trkpt lat="41.9321167" lon="12.442375"><ele>123.0</ele><time>2026-04-30T12:39:52.986Z</time></trkpt><trkpt lat="41.932" lon="12.4425017"><ele>123.0</ele><time>2026-04-30T12:39:53.986Z</time></trkpt><trkpt lat="41.9319017" lon="12.4426467"><ele>123.0</ele><time>2026-04-30T12:39:54.985Z</time></trkpt><trkpt lat="41.93179" lon="12.4427767"><ele>123.0</ele><time>2026-04-30T12:39:55.985Z</time></trkpt><trkpt lat="41.9316867" lon="12.442895"><ele>123.5</ele><time>2026-04-30T12:39:56.985Z</time></trkpt><trkpt lat="41.9316017" lon="12.4430233"><ele>124.0</ele><time>2026-04-30T12:39:57.985Z</time></trkpt><trkpt lat="41.9315133" lon="12.4431467"><ele>124.5</ele><time>2026-04-30T12:39:58.985Z</time></trkpt><trkpt lat="41.931415" lon="12.4432533"><ele>125.0</ele><time>2026-04-30T12:39:59.986Z</time></trkpt><trkpt lat="41.9313233" lon="12.4433617"><ele>125.0</ele><time>2026-04-30T12:40:00.986Z</time></trkpt><trkpt lat="41.931255" lon="12.4434783"><ele>125.0</ele><time>2026-04-30T12:40:01.986Z</time></trkpt><trkpt lat="41.93121" lon="12.4435867"><ele>125.0</ele><time>2026-04-30T12:40:02.985Z</time></trkpt><trkpt lat="41.9311667" lon="12.443695"><ele>125.0</ele><time>2026-04-30T12:40:03.985Z</time></trkpt><trkpt lat="41.9311133" lon="12.4437867"><ele>125.0</ele><time>2026-04-30T12:40:04.985Z</time></trkpt><trkpt lat="41.93105" lon="12.44389"><ele>126.25</ele><time>2026-04-30T12:40:05.985Z</time></trkpt><trkpt lat="41.9309733" lon="12.4439867"><ele>127.5</ele><time>2026-04-30T12:40:06.986Z</time></trkpt><trkpt lat="41.9309" lon="12.4440867"><ele>128.75</ele><time>2026-04-30T12:40:07.985Z</time></trkpt><trkpt lat="41.930805" lon="12.4441783"><ele>130.0</ele><time>2026-04-30T12:40:08.986Z</time></trkpt><trkpt lat="41.930695" lon="12.4442533"><ele>130.0</ele><time>2026-04-30T12:40:09.985Z</time></trkpt><trkpt lat="41.9305833" lon="12.44433"><ele>130.0</ele><time>2026-04-30T12:40:10.985Z</time></trkpt><trkpt lat="41.9304617" lon="12.4444183"><ele>130.0</ele><time>2026-04-30T12:40:11.985Z</time></trkpt><trkpt lat="41.930345" lon="12.4445033"><ele>130.0</ele><time>2026-04-30T12:40:12.985Z</time></trkpt><trkpt lat="41.9302517" lon="12.4446067"><ele>130.2</ele><time>2026-04-30T12:40:13.985Z</time></trkpt><trkpt lat="41.930145" lon="12.4446917"><ele>130.4</ele><time>2026-04-30T12:40:14.985Z</time></trkpt><trkpt lat="41.9300517" lon="12.4447683"><ele>130.6</ele><time>2026-04-30T12:40:15.985Z</time></trkpt><trkpt lat="41.92996" lon="12.4448533"><ele>130.8</ele><time>2026-04-30T12:40:16.985Z</time></trkpt><trkpt lat="41.9298767" lon="12.4449383"><ele>131.0</ele><time>2026-04-30T12:40:17.985Z</time></trkpt><trkpt lat="41.9297933" lon="12.4450117"><ele>132.6</ele><time>2026-04-30T12:40:18.986Z</time></trkpt><trkpt lat="41.9297117" lon="12.4450817"><ele>134.2</ele><time>2026-04-30T12:40:19.986Z</time></trkpt><trkpt lat="41.9296267" lon="12.4451567"><ele>135.8</ele><time>2026-04-30T12:40:20.985Z</time></trkpt><trkpt lat="41.9295483" lon="12.4452367"><ele>137.4</ele><time>2026-04-30T12:40:21.985Z</time></trkpt><trkpt lat="41.929465" lon="12.4453083"><ele>139.0</ele><time>2026-04-30T12:40:22.985Z</time></trkpt><trkpt lat="41.9293883" lon="12.445385"><ele>139.0</ele><time>2026-04-30T12:40:23.986Z</time></trkpt><trkpt lat="41.9293133" lon="12.4454467"><ele>139.0</ele><time>2026-04-30T12:40:24.986Z</time></trkpt><trkpt lat="41.9292383" lon="12.4455033"><ele>139.0</ele><time>2026-04-30T12:40:25.985Z</time></trkpt><trkpt lat="41.92916" lon="12.44553"><ele>139.0</ele><time>2026-04-30T12:40:26.985Z</time></trkpt><trkpt lat="41.9290883" lon="12.4455833"><ele>139.0</ele><time>2026-04-30T12:40:27.985Z</time></trkpt><trkpt lat="41.9290183" lon="12.4456217"><ele>139.0</ele><time>2026-04-30T12:40:28.985Z</time></trkpt><trkpt lat="41.928945" lon="12.4456817"><ele>139.16666666666669</ele><time>2026-04-30T12:40:29.985Z</time></trkpt><trkpt lat="41.928875" lon="12.4457417"><ele>139.33333333333334</ele><time>2026-04-30T12:40:30.985Z</time></trkpt><trkpt lat="41.9288" lon="12.44579"><ele>139.5</ele><time>2026-04-30T12:40:31.985Z</time></trkpt><trkpt lat="41.928725" lon="12.44584"><ele>139.66666666666666</ele><time>2026-04-30T12:40:32.986Z</time></trkpt><trkpt lat="41.928645" lon="12.4458967"><ele>139.83333333333331</ele><time>2026-04-30T12:40:33.985Z</time></trkpt><trkpt lat="41.9285583" lon="12.4459467"><ele>140.0</ele><time>2026-04-30T12:40:34.986Z</time></trkpt><trkpt lat="41.9284683" lon="12.4460083"><ele>139.4</ele><time>2026-04-30T12:40:35.985Z</time></trkpt><trkpt lat="41.92837" lon="12.4460433"><ele>138.8</ele><time>2026-04-30T12:40:36.986Z</time></trkpt><trkpt lat="41.9282733" lon="12.4460817"><ele>138.2</ele><time>2026-04-30T12:40:37.985Z</time></trkpt><trkpt lat="41.9281833" lon="12.4461333"><ele>137.6</ele><time>2026-04-30T12:40:38.986Z</time></trkpt><trkpt lat="41.9281117" lon="12.4461783"><ele>137.0</ele><time>2026-04-30T12:40:39.985Z</time></trkpt><trkpt lat="41.9280233" lon="12.44623"><ele>137.0</ele><time>2026-04-30T12:40:41.985Z</time></trkpt><trkpt lat="41.9279433" lon="12.4462817"><ele>137.0</ele><time>2026-04-30T12:40:43.985Z</time></trkpt><trkpt lat="41.9278817" lon="12.4463267"><ele>137.0</ele><time>2026-04-30T12:40:44.985Z</time></trkpt><trkpt lat="41.9277983" lon="12.44639"><ele>137.0</ele><time>2026-04-30T12:40:45.986Z</time></trkpt><trkpt lat="41.9276933" lon="12.4464667"><ele>137.0</ele><time>2026-04-30T12:40:46.985Z</time></trkpt><trkpt lat="41.92758" lon="12.4465533"><ele>136.75</ele><time>2026-04-30T12:40:47.986Z</time></trkpt><trkpt lat="41.92747" lon="12.44664"><ele>136.5</ele><time>2026-04-30T12:40:48.986Z</time></trkpt><trkpt lat="41.9273667" lon="12.4467233"><ele>136.25</ele><time>2026-04-30T12:40:49.985Z</time></trkpt><trkpt lat="41.9272667" lon="12.4468083"><ele>136.0</ele><time>2026-04-30T12:40:50.985Z</time></trkpt><trkpt lat="41.9271717" lon="12.4468917"><ele>136.0</ele><time>2026-04-30T12:40:51.986Z</time></trkpt><trkpt lat="41.9270783" lon="12.44697"><ele>136.0</ele><time>2026-04-30T12:40:52.985Z</time></trkpt><trkpt lat="41.9269867" lon="12.4470467"><ele>136.0</ele><time>2026-04-30T12:40:53.985Z</time></trkpt><trkpt lat="41.926895" lon="12.4471117"><ele>136.0</ele><time>2026-04-30T12:40:54.985Z</time></trkpt><trkpt lat="41.926795" lon="12.4471717"><ele>136.0</ele><time>2026-04-30T12:40:55.986Z</time></trkpt><trkpt lat="41.9266983" lon="12.447225"><ele>134.33333333333334</ele><time>2026-04-30T12:40:56.985Z</time></trkpt><trkpt lat="41.9266033" lon="12.4472767"><ele>132.66666666666669</ele><time>2026-04-30T12:40:57.985Z</time></trkpt><trkpt lat="41.9265167" lon="12.4473117"><ele>131.0</ele><time>2026-04-30T12:40:58.985Z</time></trkpt><trkpt lat="41.9264417" lon="12.4473433"><ele>129.33333333333334</ele><time>2026-04-30T12:40:59.985Z</time></trkpt><trkpt lat="41.926365" lon="12.44736"><ele>127.66666666666667</ele><time>2026-04-30T12:41:00.985Z</time></trkpt><trkpt lat="41.92629" lon="12.447345"><ele>126.0</ele><time>2026-04-30T12:41:01.985Z</time></trkpt><trkpt lat="41.92621" lon="12.4473283"><ele>126.0</ele><time>2026-04-30T12:41:02.985Z</time></trkpt><trkpt lat="41.9261267" lon="12.4473017"><ele>126.0</ele><time>2026-04-30T12:41:03.986Z</time></trkpt><trkpt lat="41.9260417" lon="12.4472583"><ele>126.0</ele><time>2026-04-30T12:41:04.985Z</time></trkpt><trkpt lat="41.925955" lon="12.4472067"><ele>126.0</ele><time>2026-04-30T12:41:05.985Z</time></trkpt><trkpt lat="41.9258783" lon="12.4471617"><ele>126.0</ele><time>2026-04-30T12:41:06.985Z</time></trkpt><trkpt lat="41.9257967" lon="12.44711"><ele>126.0</ele><time>2026-04-30T12:41:07.985Z</time></trkpt><trkpt lat="41.92571" lon="12.4470617"><ele>126.19999999999999</ele><time>2026-04-30T12:41:08.986Z</time></trkpt><trkpt lat="41.9256167" lon="12.447005"><ele>126.39999999999999</ele><time>2026-04-30T12:41:09.985Z</time></trkpt><trkpt lat="41.9255283" lon="12.446955"><ele>126.6</ele><time>2026-04-30T12:41:10.986Z</time></trkpt><trkpt lat="41.925445" lon="12.4469083"><ele>126.8</ele><time>2026-04-30T12:41:11.986Z</time></trkpt><trkpt lat="41.92536" lon="12.446855"><ele>127.0</ele><time>2026-04-30T12:41:12.986Z</time></trkpt><trkpt lat="41.925275" lon="12.4468033"><ele>127.0</ele><time>2026-04-30T12:41:13.985Z</time></trkpt><trkpt lat="41.9251867" lon="12.4467483"><ele>126.99999999999999</ele><time>2026-04-30T12:41:14.985Z</time></trkpt><trkpt lat="41.9250933" lon="12.4466983"><ele>126.99999999999999</ele><time>2026-04-30T12:41:15.986Z</time></trkpt><trkpt lat="41.9250083" lon="12.4466467"><ele>127.0</ele><time>2026-04-30T12:41:16.985Z</time></trkpt><trkpt lat="41.9249217" lon="12.446595"><ele>127.0</ele><time>2026-04-30T12:41:17.985Z</time></trkpt><trkpt lat="41.924835" lon="12.4465417"><ele>126.8</ele><time>2026-04-30T12:41:18.985Z</time></trkpt><trkpt lat="41.9247467" lon="12.4464867"><ele>126.6</ele><time>2026-04-30T12:41:19.986Z</time></trkpt><trkpt lat="41.9246617" lon="12.4464283"><ele>126.39999999999999</ele><time>2026-04-30T12:41:20.986Z</time></trkpt><trkpt lat="41.9245667" lon="12.44637"><ele>126.19999999999999</ele><time>2026-04-30T12:41:21.985Z</time></trkpt><trkpt lat="41.9244717" lon="12.44631"><ele>126.0</ele><time>2026-04-30T12:41:22.985Z</time></trkpt><trkpt lat="41.924375" lon="12.44625"><ele>126.0</ele><time>2026-04-30T12:41:23.985Z</time></trkpt><trkpt lat="41.92428" lon="12.4461933"><ele>126.0</ele><time>2026-04-30T12:41:24.986Z</time></trkpt><trkpt lat="41.9241883" lon="12.4461417"><ele>126.0</ele><time>2026-04-30T12:41:25.985Z</time></trkpt><trkpt lat="41.9240933" lon="12.4460917"><ele>126.0</ele><time>2026-04-30T12:41:26.986Z</time></trkpt><trkpt lat="41.9239967" lon="12.4460467"><ele>126.0</ele><time>2026-04-30T12:41:27.986Z</time></trkpt><trkpt lat="41.9239" lon="12.4460167"><ele>124.6</ele><time>2026-04-30T12:41:28.985Z</time></trkpt><trkpt lat="41.9238067" lon="12.4459967"><ele>123.19999999999999</ele><time>2026-04-30T12:41:29.985Z</time></trkpt><trkpt lat="41.9237117" lon="12.4459783"><ele>121.80000000000001</ele><time>2026-04-30T12:41:30.985Z</time></trkpt><trkpt lat="41.92362" lon="12.44596"><ele>120.4</ele><time>2026-04-30T12:41:31.985Z</time></trkpt><trkpt lat="41.92353" lon="12.4459333"><ele>119.0</ele><time>2026-04-30T12:41:32.986Z</time></trkpt><trkpt lat="41.92345" lon="12.4459033"><ele>117.16666666666666</ele><time>2026-04-30T12:41:33.985Z</time></trkpt><trkpt lat="41.9233717" lon="12.4458733"><ele>115.33333333333333</ele><time>2026-04-30T12:41:34.985Z</time></trkpt><trkpt lat="41.9233" lon="12.4458483"><ele>113.5</ele><time>2026-04-30T12:41:35.984Z</time></trkpt><trkpt lat="41.9232267" lon="12.44583"><ele>111.66666666666666</ele><time>2026-04-30T12:41:36.984Z</time></trkpt><trkpt lat="41.9231467" lon="12.445815"><ele>109.83333333333333</ele><time>2026-04-30T12:41:37.985Z</time></trkpt><trkpt lat="41.9230567" lon="12.4458083"><ele>108.0</ele><time>2026-04-30T12:41:38.985Z</time></trkpt><trkpt lat="41.9229667" lon="12.4458083"><ele>108.0</ele><time>2026-04-30T12:41:39.984Z</time></trkpt><trkpt lat="41.9228883" lon="12.4458233"><ele>108.00000000000001</ele><time>2026-04-30T12:41:40.984Z</time></trkpt><trkpt lat="41.9227983" lon="12.4458433"><ele>108.00000000000001</ele><time>2026-04-30T12:41:41.984Z</time></trkpt><trkpt lat="41.9226983" lon="12.4458583"><ele>108.0</ele><time>2026-04-30T12:41:42.984Z</time></trkpt><trkpt lat="41.9225983" lon="12.4458767"><ele>108.0</ele><time>2026-04-30T12:41:43.985Z</time></trkpt><trkpt lat="41.9224933" lon="12.4458867"><ele>107.80000000000001</ele><time>2026-04-30T12:41:44.984Z</time></trkpt><trkpt lat="41.9223933" lon="12.4458983"><ele>107.60000000000001</ele><time>2026-04-30T12:41:45.984Z</time></trkpt><trkpt lat="41.9222917" lon="12.4458983"><ele>107.39999999999999</ele><time>2026-04-30T12:41:46.985Z</time></trkpt><trkpt lat="41.9221867" lon="12.44589"><ele>107.19999999999999</ele><time>2026-04-30T12:41:47.984Z</time></trkpt><trkpt lat="41.922085" lon="12.445875"><ele>107.0</ele><time>2026-04-30T12:41:48.984Z</time></trkpt><trkpt lat="41.92198" lon="12.4458567"><ele>107.0</ele><time>2026-04-30T12:41:49.984Z</time></trkpt><trkpt lat="41.9218783" lon="12.4458283"><ele>106.99999999999999</ele><time>2026-04-30T12:41:50.985Z</time></trkpt><trkpt lat="41.9217767" lon="12.4457917"><ele>106.99999999999999</ele><time>2026-04-30T12:41:51.984Z</time></trkpt><trkpt lat="41.92168" lon="12.4457567"><ele>107.0</ele><time>2026-04-30T12:41:52.984Z</time></trkpt><trkpt lat="41.9215817" lon="12.4457317"><ele>107.0</ele><time>2026-04-30T12:41:53.984Z</time></trkpt><trkpt lat="41.92149" lon="12.4456917"><ele>106.39999999999999</ele><time>2026-04-30T12:41:54.984Z</time></trkpt><trkpt lat="41.921405" lon="12.445655"><ele>105.79999999999998</ele><time>2026-04-30T12:41:55.985Z</time></trkpt><trkpt lat="41.9213117" lon="12.4456067"><ele>105.2</ele><time>2026-04-30T12:41:56.985Z</time></trkpt><trkpt lat="41.92122" lon="12.445555"><ele>104.6</ele><time>2026-04-30T12:41:57.985Z</time></trkpt><trkpt lat="41.9211367" lon="12.4454983"><ele>104.0</ele><time>2026-04-30T12:41:58.984Z</time></trkpt><trkpt lat="41.9210583" lon="12.4454483"><ele>102.99999999999999</ele><time>2026-04-30T12:41:59.984Z</time></trkpt><trkpt lat="41.9209867" lon="12.4454017"><ele>102.0</ele><time>2026-04-30T12:42:00.984Z</time></trkpt><trkpt lat="41.9209217" lon="12.445345"><ele>101.0</ele><time>2026-04-30T12:42:01.984Z</time></trkpt><trkpt lat="41.9208617" lon="12.4452783"><ele>100.0</ele><time>2026-04-30T12:42:02.984Z</time></trkpt><trkpt lat="41.9207983" lon="12.4451883"><ele>98.99999999999999</ele><time>2026-04-30T12:42:03.984Z</time></trkpt><trkpt lat="41.9207333" lon="12.4450817"><ele>98.0</ele><time>2026-04-30T12:42:04.985Z</time></trkpt><trkpt lat="41.920655" lon="12.4449667"><ele>97.80000000000001</ele><time>2026-04-30T12:42:05.984Z</time></trkpt><trkpt lat="41.920585" lon="12.4448567"><ele>97.6</ele><time>2026-04-30T12:42:06.984Z</time></trkpt><trkpt lat="41.9205283" lon="12.4447567"><ele>97.4</ele><time>2026-04-30T12:42:07.984Z</time></trkpt><trkpt lat="41.9204717" lon="12.4446583"><ele>97.19999999999999</ele><time>2026-04-30T12:42:08.984Z</time></trkpt><trkpt lat="41.920435" lon="12.444565"><ele>97.0</ele><time>2026-04-30T12:42:09.984Z</time></trkpt><trkpt lat="41.9204033" lon="12.4444417"><ele>96.33333333333334</ele><time>2026-04-30T12:42:10.984Z</time></trkpt><trkpt lat="41.9203717" lon="12.4443383"><ele>95.66666666666667</ele><time>2026-04-30T12:42:11.984Z</time></trkpt><trkpt lat="41.9203417" lon="12.44423"><ele>95.0</ele><time>2026-04-30T12:42:12.984Z</time></trkpt><trkpt lat="41.9203017" lon="12.44412"><ele>94.33333333333334</ele><time>2026-04-30T12:42:13.984Z</time></trkpt><trkpt lat="41.9202683" lon="12.4440217"><ele>93.66666666666667</ele><time>2026-04-30T12:42:14.984Z</time></trkpt><trkpt lat="41.9202317" lon="12.4439233"><ele>93.0</ele><time>2026-04-30T12:42:15.984Z</time></trkpt><trkpt lat="41.920195" lon="12.44383"><ele>92.83333333333333</ele><time>2026-04-30T12:42:16.984Z</time></trkpt><trkpt lat="41.9201483" lon="12.4437433"><ele>92.66666666666667</ele><time>2026-04-30T12:42:17.985Z</time></trkpt><trkpt lat="41.9200967" lon="12.443665"><ele>92.5</ele><time>2026-04-30T12:42:18.984Z</time></trkpt><trkpt lat="41.9200483" lon="12.4435867"><ele>92.33333333333334</ele><time>2026-04-30T12:42:19.984Z</time></trkpt><trkpt lat="41.9200033" lon="12.44351"><ele>92.16666666666667</ele><time>2026-04-30T12:42:20.985Z</time></trkpt><trkpt lat="41.91996" lon="12.443435"><ele>92.0</ele><time>2026-04-30T12:42:21.984Z</time></trkpt><trkpt lat="41.919915" lon="12.4433467"><ele>92.66666666666667</ele><time>2026-04-30T12:42:22.984Z</time></trkpt><trkpt lat="41.9198667" lon="12.44327"><ele>93.33333333333334</ele><time>2026-04-30T12:42:23.984Z</time></trkpt><trkpt lat="41.9198117" lon="12.4431917"><ele>94.0</ele><time>2026-04-30T12:42:24.984Z</time></trkpt><trkpt lat="41.9197617" lon="12.4430983"><ele>94.66666666666667</ele><time>2026-04-30T12:42:25.984Z</time></trkpt><trkpt lat="41.91971" lon="12.4430283"><ele>95.33333333333333</ele><time>2026-04-30T12:42:26.984Z</time></trkpt><trkpt lat="41.9196433" lon="12.4429267"><ele>96.0</ele><time>2026-04-30T12:42:28.984Z</time></trkpt><trkpt lat="41.919585" lon="12.4428517"><ele>94.5</ele><time>2026-04-30T12:42:30.984Z</time></trkpt><trkpt lat="41.9195183" lon="12.4427983"><ele>93.0</ele><time>2026-04-30T12:42:32.985Z</time></trkpt><trkpt lat="41.91944" lon="12.44273"><ele>91.5</ele><time>2026-04-30T12:42:34.984Z</time></trkpt><trkpt lat="41.9193383" lon="12.4426467"><ele>90.0</ele><time>2026-04-30T12:42:36.985Z</time></trkpt><trkpt lat="41.9192833" lon="12.4426"><ele>88.5</ele><time>2026-04-30T12:42:37.985Z</time></trkpt><trkpt lat="41.91923" lon="12.4425417"><ele>87.0</ele><time>2026-04-30T12:42:38.985Z</time></trkpt><trkpt lat="41.9191683" lon="12.4425"><ele>86.83333333333333</ele><time>2026-04-30T12:42:39.984Z</time></trkpt><trkpt lat="41.9191067" lon="12.4424617"><ele>86.66666666666667</ele><time>2026-04-30T12:42:40.984Z</time></trkpt><trkpt lat="41.9190467" lon="12.44243"><ele>86.5</ele><time>2026-04-30T12:42:41.985Z</time></trkpt><trkpt lat="41.9189817" lon="12.44241"><ele>86.33333333333334</ele><time>2026-04-30T12:42:42.985Z</time></trkpt><trkpt lat="41.9188667" lon="12.4423733"><ele>86.16666666666667</ele><time>2026-04-30T12:42:44.984Z</time></trkpt><trkpt lat="41.9187617" lon="12.4423633"><ele>86.0</ele><time>2026-04-30T12:42:46.984Z</time></trkpt><trkpt lat="41.9186717" lon="12.44236"><ele>86.0</ele><time>2026-04-30T12:42:48.984Z</time></trkpt><trkpt lat="41.9185617" lon="12.442365"><ele>86.0</ele><time>2026-04-30T12:42:50.984Z</time></trkpt><trkpt lat="41.918455" lon="12.4423767"><ele>86.0</ele><time>2026-04-30T12:42:52.984Z</time></trkpt><trkpt lat="41.91834" lon="12.4423883"><ele>86.0</ele><time>2026-04-30T12:42:54.985Z</time></trkpt><trkpt lat="41.9182183" lon="12.4423967"><ele>85.0</ele><time>2026-04-30T12:42:56.985Z</time></trkpt><trkpt lat="41.9181067" lon="12.4424183"><ele>85.0</ele><time>2026-04-30T12:42:58.984Z</time></trkpt><trkpt lat="41.91804" lon="12.4424667"><ele>85.0</ele><time>2026-04-30T12:43:01.984Z</time></trkpt><trkpt lat="41.9179633" lon="12.4424833"><ele>85.0</ele><time>2026-04-30T12:43:11.985Z</time></trkpt><trkpt lat="41.9178867" lon="12.4424767"><ele>85.0</ele><time>2026-04-30T12:43:14.984Z</time></trkpt><trkpt lat="41.917815" lon="12.4424667"><ele>85.0</ele><time>2026-04-30T12:43:17.985Z</time></trkpt></trkseg><trkseg><trkpt lat="42.1135829" lon="12.3638965"><ele>215.0</ele><time>2026-04-30T14:07:30.984Z</time></trkpt><trkpt lat="42.1143195" lon="12.363909"><ele>215.0</ele><time>2026-04-30T14:07:33.984Z</time></trkpt><trkpt lat="42.1145645" lon="12.3639145"><ele>215.0</ele><time>2026-04-30T14:07:34.984Z</time></trkpt><trkpt lat="42.1148054" lon="12.3639172"><ele>214.66666666666669</ele><time>2026-04-30T14:07:35.984Z</time></trkpt><trkpt lat="42.1150359" lon="12.3639206"><ele>214.33333333333331</ele><time>2026-04-30T14:07:36.985Z</time></trkpt><trkpt lat="42.1152489" lon="12.3639285"><ele>214.0</ele><time>2026-04-30T14:07:37.985Z</time></trkpt><trkpt lat="42.1154489" lon="12.3639394"><ele>214.0</ele><time>2026-04-30T14:07:38.984Z</time></trkpt><trkpt lat="42.1156427" lon="12.3639468"><ele>214.0</ele><time>2026-04-30T14:07:39.985Z</time></trkpt><trkpt lat="42.1158381" lon="12.3639456"><ele>214.0</ele><time>2026-04-30T14:07:40.984Z</time></trkpt><trkpt lat="42.116041" lon="12.3639415"><ele>213.66666666666666</ele><time>2026-04-30T14:07:41.984Z</time></trkpt><trkpt lat="42.1162456" lon="12.3639333"><ele>213.33333333333331</ele><time>2026-04-30T14:07:42.984Z</time></trkpt><trkpt lat="42.1164538" lon="12.3639259"><ele>213.0</ele><time>2026-04-30T14:07:43.984Z</time></trkpt><trkpt lat="42.1166529" lon="12.3639182"><ele>212.66666666666669</ele><time>2026-04-30T14:07:44.984Z</time></trkpt><trkpt lat="42.1168474" lon="12.3639206"><ele>212.33333333333334</ele><time>2026-04-30T14:07:45.984Z</time></trkpt><trkpt lat="42.1170412" lon="12.3639272"><ele>212.0</ele><time>2026-04-30T14:07:46.985Z</time></trkpt><trkpt lat="42.117241" lon="12.3639328"><ele>212.33333333333334</ele><time>2026-04-30T14:07:47.984Z</time></trkpt><trkpt lat="42.1174424" lon="12.363932"><ele>212.66666666666669</ele><time>2026-04-30T14:07:48.984Z</time></trkpt><trkpt lat="42.1176432" lon="12.3639329"><ele>213.0</ele><time>2026-04-30T14:07:49.984Z</time></trkpt><trkpt lat="42.117845" lon="12.3639345"><ele>213.0</ele><time>2026-04-30T14:07:50.984Z</time></trkpt><trkpt lat="42.1180484" lon="12.3639418"><ele>213.0</ele><time>2026-04-30T14:07:51.985Z</time></trkpt><trkpt lat="42.1182571" lon="12.3639514"><ele>213.0</ele><time>2026-04-30T14:07:52.984Z</time></trkpt><trkpt lat="42.1184726" lon="12.3639542"><ele>213.33333333333331</ele><time>2026-04-30T14:07:53.984Z</time></trkpt><trkpt lat="42.1186924" lon="12.3639645"><ele>213.66666666666666</ele><time>2026-04-30T14:07:54.984Z</time></trkpt><trkpt lat="42.1189109" lon="12.3639759"><ele>214.0</ele><time>2026-04-30T14:07:55.984Z</time></trkpt><trkpt lat="42.119139" lon="12.3639803"><ele>214.0</ele><time>2026-04-30T14:07:56.984Z</time></trkpt><trkpt lat="42.1193708" lon="12.3639889"><ele>214.0</ele><time>2026-04-30T14:07:57.984Z</time></trkpt><trkpt lat="42.1196024" lon="12.3640035"><ele>214.0</ele><time>2026-04-30T14:07:58.985Z</time></trkpt><trkpt lat="42.1198361" lon="12.3640232"><ele>214.0</ele><time>2026-04-30T14:07:59.985Z</time></trkpt><trkpt lat="42.120075" lon="12.3640396"><ele>216.0</ele><time>2026-04-30T14:08:00.984Z</time></trkpt><trkpt lat="42.1203141" lon="12.3640466"><ele>218.0</ele><time>2026-04-30T14:08:01.984Z</time></trkpt><trkpt lat="42.1205595" lon="12.3640494"><ele>217.5</ele><time>2026-04-30T14:08:02.984Z</time></trkpt><trkpt lat="42.1208061" lon="12.364055"><ele>217.0</ele><time>2026-04-30T14:08:03.984Z</time></trkpt><trkpt lat="42.1210495" lon="12.3640566"><ele>217.0</ele><time>2026-04-30T14:08:04.985Z</time></trkpt><trkpt lat="42.1212983" lon="12.3640619"><ele>217.0</ele><time>2026-04-30T14:08:05.984Z</time></trkpt><trkpt lat="42.1215527" lon="12.3640703"><ele>218.5</ele><time>2026-04-30T14:08:06.985Z</time></trkpt><trkpt lat="42.1218143" lon="12.3640574"><ele>220.0</ele><time>2026-04-30T14:08:07.984Z</time></trkpt><trkpt lat="42.1220895" lon="12.3640297"><ele>220.0</ele><time>2026-04-30T14:08:08.984Z</time></trkpt><trkpt lat="42.1223796" lon="12.3639878"><ele>220.0</ele><time>2026-04-30T14:08:09.984Z</time></trkpt><trkpt lat="42.1226718" lon="12.3639293"><ele>220.0</ele><time>2026-04-30T14:08:10.984Z</time></trkpt><trkpt lat="42.1229622" lon="12.3638396"><ele>220.0</ele><time>2026-04-30T14:08:11.984Z</time></trkpt><trkpt lat="42.1232501" lon="12.3637207"><ele>221.5</ele><time>2026-04-30T14:08:12.984Z</time></trkpt><trkpt lat="42.1235378" lon="12.3635884"><ele>223.0</ele><time>2026-04-30T14:08:13.984Z</time></trkpt><trkpt lat="42.1238255" lon="12.3634429"><ele>225.0</ele><time>2026-04-30T14:08:14.985Z</time></trkpt><trkpt lat="42.1241108" lon="12.3632891"><ele>227.0</ele><time>2026-04-30T14:08:15.984Z</time></trkpt><trkpt lat="42.1243968" lon="12.3631339"><ele>227.0</ele><time>2026-04-30T14:08:16.984Z</time></trkpt><trkpt lat="42.1246779" lon="12.3629883"><ele>227.0</ele><time>2026-04-30T14:08:17.984Z</time></trkpt><trkpt lat="42.1249629" lon="12.3628508"><ele>227.0</ele><time>2026-04-30T14:08:18.984Z</time></trkpt><trkpt lat="42.1252353" lon="12.3627107"><ele>227.0</ele><time>2026-04-30T14:08:19.984Z</time></trkpt><trkpt lat="42.1255101" lon="12.3625704"><ele>227.5</ele><time>2026-04-30T14:08:20.984Z</time></trkpt><trkpt lat="42.1257786" lon="12.3624255"><ele>228.0</ele><time>2026-04-30T14:08:21.984Z</time></trkpt><trkpt lat="42.1260524" lon="12.3622867"><ele>228.5</ele><time>2026-04-30T14:08:22.984Z</time></trkpt><trkpt lat="42.1263231" lon="12.3621407"><ele>229.0</ele><time>2026-04-30T14:08:23.984Z</time></trkpt><trkpt lat="42.1265952" lon="12.3619901"><ele>229.0</ele><time>2026-04-30T14:08:24.985Z</time></trkpt><trkpt lat="42.1268609" lon="12.3618211"><ele>229.0</ele><time>2026-04-30T14:08:25.985Z</time></trkpt><trkpt lat="42.1271183" lon="12.3616325"><ele>229.0</ele><time>2026-04-30T14:08:26.984Z</time></trkpt><trkpt lat="42.1273644" lon="12.3614221"><ele>229.0</ele><time>2026-04-30T14:08:27.984Z</time></trkpt><trkpt lat="42.1275998" lon="12.3611947"><ele>228.0</ele><time>2026-04-30T14:08:28.984Z</time></trkpt><trkpt lat="42.1278199" lon="12.3609481"><ele>227.0</ele><time>2026-04-30T14:08:29.985Z</time></trkpt><trkpt lat="42.1280295" lon="12.3606771"><ele>229.0</ele><time>2026-04-30T14:08:30.985Z</time></trkpt><trkpt lat="42.1282274" lon="12.3603925"><ele>231.0</ele><time>2026-04-30T14:08:31.985Z</time></trkpt><trkpt lat="42.1284119" lon="12.360086"><ele>231.0</ele><time>2026-04-30T14:08:32.984Z</time></trkpt><trkpt lat="42.1285813" lon="12.359768"><ele>231.0</ele><time>2026-04-30T14:08:33.984Z</time></trkpt><trkpt lat="42.128749" lon="12.3594538"><ele>230.5</ele><time>2026-04-30T14:08:34.984Z</time></trkpt><trkpt lat="42.1289228" lon="12.3591453"><ele>230.0</ele><time>2026-04-30T14:08:35.984Z</time></trkpt><trkpt lat="42.1291152" lon="12.3588486"><ele>232.0</ele><time>2026-04-30T14:08:36.984Z</time></trkpt><trkpt lat="42.1293208" lon="12.35856"><ele>234.0</ele><time>2026-04-30T14:08:37.985Z</time></trkpt><trkpt lat="42.1295318" lon="12.3582821"><ele>233.0</ele><time>2026-04-30T14:08:38.984Z</time></trkpt><trkpt lat="42.1297508" lon="12.358019"><ele>232.0</ele><time>2026-04-30T14:08:39.984Z</time></trkpt><trkpt lat="42.1299798" lon="12.3577742"><ele>235.5</ele><time>2026-04-30T14:08:40.985Z</time></trkpt><trkpt lat="42.1302106" lon="12.3575494"><ele>239.0</ele><time>2026-04-30T14:08:41.985Z</time></trkpt><trkpt lat="42.1304526" lon="12.3573436"><ele>237.5</ele><time>2026-04-30T14:08:42.985Z</time></trkpt><trkpt lat="42.1306959" lon="12.357152"><ele>236.0</ele><time>2026-04-30T14:08:43.984Z</time></trkpt><trkpt lat="42.130944" lon="12.3569666"><ele>239.5</ele><time>2026-04-30T14:08:44.984Z</time></trkpt><trkpt lat="42.1311915" lon="12.3567838"><ele>243.0</ele><time>2026-04-30T14:08:45.985Z</time></trkpt><trkpt lat="42.1314381" lon="12.3566016"><ele>247.0</ele><time>2026-04-30T14:08:46.984Z</time></trkpt><trkpt lat="42.131677" lon="12.3564154"><ele>251.0</ele><time>2026-04-30T14:08:47.984Z</time></trkpt><trkpt lat="42.1319128" lon="12.3562291"><ele>251.0</ele><time>2026-04-30T14:08:48.985Z</time></trkpt><trkpt lat="42.132148" lon="12.3560433"><ele>251.0</ele><time>2026-04-30T14:08:49.984Z</time></trkpt><trkpt lat="42.1323864" lon="12.3558525"><ele>254.0</ele><time>2026-04-30T14:08:50.985Z</time></trkpt><trkpt lat="42.1326292" lon="12.355669"><ele>257.0</ele><time>2026-04-30T14:08:51.984Z</time></trkpt><trkpt lat="42.1328648" lon="12.3554878"><ele>259.5</ele><time>2026-04-30T14:08:52.985Z</time></trkpt><trkpt lat="42.1330982" lon="12.3553055"><ele>262.0</ele><time>2026-04-30T14:08:53.985Z</time></trkpt><trkpt lat="42.1333276" lon="12.355126"><ele>263.5</ele><time>2026-04-30T14:08:54.984Z</time></trkpt><trkpt lat="42.1335559" lon="12.354939"><ele>265.0</ele><time>2026-04-30T14:08:55.984Z</time></trkpt><trkpt lat="42.1337865" lon="12.3547534"><ele>267.5</ele><time>2026-04-30T14:08:56.984Z</time></trkpt><trkpt lat="42.134021" lon="12.3545671"><ele>270.0</ele><time>2026-04-30T14:08:57.984Z</time></trkpt><trkpt lat="42.1342598" lon="12.3543856"><ele>270.0</ele><time>2026-04-30T14:08:58.984Z</time></trkpt><trkpt lat="42.1344954" lon="12.3542027"><ele>270.0</ele><time>2026-04-30T14:08:59.985Z</time></trkpt><trkpt lat="42.1347305" lon="12.3540228"><ele>276.0</ele><time>2026-04-30T14:09:00.985Z</time></trkpt><trkpt lat="42.1349699" lon="12.3538456"><ele>282.0</ele><time>2026-04-30T14:09:01.984Z</time></trkpt><trkpt lat="42.1352089" lon="12.3536686"><ele>282.0</ele><time>2026-04-30T14:09:02.984Z</time></trkpt><trkpt lat="42.1354509" lon="12.3534924"><ele>282.0</ele><time>2026-04-30T14:09:03.984Z</time></trkpt><trkpt lat="42.1356898" lon="12.3533147"><ele>282.0</ele><time>2026-04-30T14:09:04.984Z</time></trkpt><trkpt lat="42.1359266" lon="12.3531405"><ele>282.0</ele><time>2026-04-30T14:09:05.984Z</time></trkpt><trkpt lat="42.1361579" lon="12.3529699"><ele>282.0</ele><time>2026-04-30T14:09:06.985Z</time></trkpt><trkpt lat="42.1364017" lon="12.3528204"><ele>282.0</ele><time>2026-04-30T14:09:07.984Z</time></trkpt><trkpt lat="42.1366559" lon="12.3526944"><ele>279.5</ele><time>2026-04-30T14:09:08.984Z</time></trkpt><trkpt lat="42.1369088" lon="12.3525883"><ele>277.0</ele><time>2026-04-30T14:09:09.985Z</time></trkpt><trkpt lat="42.137169" lon="12.3525073"><ele>272.0</ele><time>2026-04-30T14:09:10.985Z</time></trkpt><trkpt lat="42.1374327" lon="12.3524416"><ele>267.0</ele><time>2026-04-30T14:09:11.985Z</time></trkpt><trkpt lat="42.1376907" lon="12.3523742"><ele>267.0</ele><time>2026-04-30T14:09:12.984Z</time></trkpt><trkpt lat="42.1379393" lon="12.352306"><ele>267.0</ele><time>2026-04-30T14:09:13.985Z</time></trkpt><trkpt lat="42.1381745" lon="12.3522432"><ele>262.0</ele><time>2026-04-30T14:09:14.985Z</time></trkpt><trkpt lat="42.1384033" lon="12.3521855"><ele>257.0</ele><time>2026-04-30T14:09:15.984Z</time></trkpt><trkpt lat="42.1386246" lon="12.3521332"><ele>257.0</ele><time>2026-04-30T14:09:16.984Z</time></trkpt><trkpt lat="42.1388441" lon="12.3520762"><ele>257.0</ele><time>2026-04-30T14:09:17.984Z</time></trkpt><trkpt lat="42.1390585" lon="12.3520246"><ele>257.0</ele><time>2026-04-30T14:09:18.984Z</time></trkpt><trkpt lat="42.1392622" lon="12.3519688"><ele>254.33333333333334</ele><time>2026-04-30T14:09:19.985Z</time></trkpt><trkpt lat="42.1394617" lon="12.3519128"><ele>251.66666666666669</ele><time>2026-04-30T14:09:20.984Z</time></trkpt><trkpt lat="42.139654" lon="12.3518581"><ele>249.0</ele><time>2026-04-30T14:09:21.985Z</time></trkpt><trkpt lat="42.1398401" lon="12.3518079"><ele>247.66666666666669</ele><time>2026-04-30T14:09:22.984Z</time></trkpt><trkpt lat="42.1400354" lon="12.3517613"><ele>246.33333333333334</ele><time>2026-04-30T14:09:23.985Z</time></trkpt><trkpt lat="42.1402352" lon="12.3517088"><ele>245.0</ele><time>2026-04-30T14:09:24.985Z</time></trkpt><trkpt lat="42.1404295" lon="12.3516614"><ele>245.0</ele><time>2026-04-30T14:09:25.984Z</time></trkpt><trkpt lat="42.1406209" lon="12.3516202"><ele>245.0</ele><time>2026-04-30T14:09:26.984Z</time></trkpt><trkpt lat="42.1408066" lon="12.3515823"><ele>245.0</ele><time>2026-04-30T14:09:27.985Z</time></trkpt><trkpt lat="42.140985" lon="12.3515376"><ele>244.66666666666669</ele><time>2026-04-30T14:09:28.985Z</time></trkpt><trkpt lat="42.1411653" lon="12.3514887"><ele>244.33333333333331</ele><time>2026-04-30T14:09:29.984Z</time></trkpt><trkpt lat="42.1413484" lon="12.3514448"><ele>244.0</ele><time>2026-04-30T14:09:30.984Z</time></trkpt><trkpt lat="42.1415374" lon="12.3513978"><ele>241.0</ele><time>2026-04-30T14:09:31.984Z</time></trkpt><trkpt lat="42.1417226" lon="12.3513477"><ele>238.0</ele><time>2026-04-30T14:09:32.985Z</time></trkpt><trkpt lat="42.1419033" lon="12.3513032"><ele>235.0</ele><time>2026-04-30T14:09:33.985Z</time></trkpt><trkpt lat="42.1420866" lon="12.3512573"><ele>235.0</ele><time>2026-04-30T14:09:34.984Z</time></trkpt><trkpt lat="42.1422776" lon="12.351203"><ele>235.0</ele><time>2026-04-30T14:09:35.984Z</time></trkpt><trkpt lat="42.1424603" lon="12.3511518"><ele>235.0</ele><time>2026-04-30T14:09:36.984Z</time></trkpt><trkpt lat="42.1426428" lon="12.3511106"><ele>234.33333333333331</ele><time>2026-04-30T14:09:37.984Z</time></trkpt><trkpt lat="42.1428216" lon="12.3510634"><ele>233.66666666666669</ele><time>2026-04-30T14:09:38.984Z</time></trkpt><trkpt lat="42.1429911" lon="12.3510169"><ele>233.0</ele><time>2026-04-30T14:09:39.984Z</time></trkpt><trkpt lat="42.1431626" lon="12.3509739"><ele>231.0</ele><time>2026-04-30T14:09:40.985Z</time></trkpt><trkpt lat="42.1433336" lon="12.350931"><ele>229.0</ele><time>2026-04-30T14:09:41.984Z</time></trkpt><trkpt lat="42.143506" lon="12.3508902"><ele>227.0</ele><time>2026-04-30T14:09:42.984Z</time></trkpt><trkpt lat="42.1436751" lon="12.3508452"><ele>227.0</ele><time>2026-04-30T14:09:43.985Z</time></trkpt><trkpt lat="42.1438473" lon="12.3507991"><ele>227.0</ele><time>2026-04-30T14:09:44.984Z</time></trkpt><trkpt lat="42.1440143" lon="12.3507619"><ele>227.0</ele><time>2026-04-30T14:09:45.985Z</time></trkpt><trkpt lat="42.1441806" lon="12.350716"><ele>226.33333333333334</ele><time>2026-04-30T14:09:46.985Z</time></trkpt><trkpt lat="42.1443468" lon="12.3506684"><ele>225.66666666666669</ele><time>2026-04-30T14:09:47.984Z</time></trkpt><trkpt lat="42.1445028" lon="12.3506313"><ele>225.0</ele><time>2026-04-30T14:09:48.984Z</time></trkpt><trkpt lat="42.144653" lon="12.3505947"><ele>225.0</ele><time>2026-04-30T14:09:49.984Z</time></trkpt><trkpt lat="42.1448073" lon="12.3505584"><ele>225.0</ele><time>2026-04-30T14:09:50.984Z</time></trkpt><trkpt lat="42.1449681" lon="12.3505241"><ele>225.0</ele><time>2026-04-30T14:09:51.984Z</time></trkpt><trkpt lat="42.1451275" lon="12.3504832"><ele>223.66666666666669</ele><time>2026-04-30T14:09:52.985Z</time></trkpt><trkpt lat="42.1452903" lon="12.350444"><ele>222.33333333333334</ele><time>2026-04-30T14:09:53.984Z</time></trkpt><trkpt lat="42.1454604" lon="12.3503944"><ele>221.0</ele><time>2026-04-30T14:09:54.984Z</time></trkpt><trkpt lat="42.1456324" lon="12.3503526"><ele>220.66666666666669</ele><time>2026-04-30T14:09:55.984Z</time></trkpt><trkpt lat="42.1458094" lon="12.3503009"><ele>220.33333333333331</ele><time>2026-04-30T14:09:56.984Z</time></trkpt><trkpt lat="42.1460032" lon="12.3502386"><ele>220.0</ele><time>2026-04-30T14:09:57.985Z</time></trkpt><trkpt lat="42.1462065" lon="12.3501799"><ele>220.0</ele><time>2026-04-30T14:09:58.984Z</time></trkpt><trkpt lat="42.1464168" lon="12.3501191"><ele>220.0</ele><time>2026-04-30T14:09:59.984Z</time></trkpt><trkpt lat="42.146634" lon="12.3500529"><ele>220.0</ele><time>2026-04-30T14:10:00.984Z</time></trkpt><trkpt lat="42.1468677" lon="12.3499852"><ele>219.0</ele><time>2026-04-30T14:10:01.984Z</time></trkpt><trkpt lat="42.1471021" lon="12.3499244"><ele>218.0</ele><time>2026-04-30T14:10:02.985Z</time></trkpt><trkpt lat="42.1473465" lon="12.3498656"><ele>216.5</ele><time>2026-04-30T14:10:03.985Z</time></trkpt><trkpt lat="42.1475993" lon="12.3498074"><ele>215.0</ele><time>2026-04-30T14:10:04.984Z</time></trkpt><trkpt lat="42.1478562" lon="12.3497428"><ele>214.5</ele><time>2026-04-30T14:10:05.984Z</time></trkpt><trkpt lat="42.1481276" lon="12.349681"><ele>214.0</ele><time>2026-04-30T14:10:06.985Z</time></trkpt><trkpt lat="42.148416" lon="12.3496027"><ele>214.0</ele><time>2026-04-30T14:10:07.984Z</time></trkpt><trkpt lat="42.1487173" lon="12.3495254"><ele>214.0</ele><time>2026-04-30T14:10:08.984Z</time></trkpt><trkpt lat="42.1490332" lon="12.3494353"><ele>212.0</ele><time>2026-04-30T14:10:09.984Z</time></trkpt><trkpt lat="42.149373" lon="12.3493338"><ele>210.0</ele><time>2026-04-30T14:10:10.984Z</time></trkpt><trkpt lat="42.1497248" lon="12.3492143"><ele>209.5</ele><time>2026-04-30T14:10:11.984Z</time></trkpt><trkpt lat="42.1500787" lon="12.3490737"><ele>209.0</ele><time>2026-04-30T14:10:12.984Z</time></trkpt><trkpt lat="42.1504315" lon="12.3489116"><ele>207.5</ele><time>2026-04-30T14:10:13.985Z</time></trkpt><trkpt lat="42.1507689" lon="12.3487388"><ele>206.0</ele><time>2026-04-30T14:10:14.984Z</time></trkpt><trkpt lat="42.1510883" lon="12.3485554"><ele>206.0</ele><time>2026-04-30T14:10:15.985Z</time></trkpt><trkpt lat="42.1513858" lon="12.3483703"><ele>206.0</ele><time>2026-04-30T14:10:16.984Z</time></trkpt><trkpt lat="42.1516636" lon="12.3481738"><ele>205.0</ele><time>2026-04-30T14:10:17.985Z</time></trkpt><trkpt lat="42.1519284" lon="12.3479829"><ele>204.0</ele><time>2026-04-30T14:10:18.984Z</time></trkpt><trkpt lat="42.1521876" lon="12.3477748"><ele>203.0</ele><time>2026-04-30T14:10:19.984Z</time></trkpt><trkpt lat="42.1524311" lon="12.3475603"><ele>202.0</ele><time>2026-04-30T14:10:20.984Z</time></trkpt><trkpt lat="42.1526561" lon="12.3473462"><ele>202.5</ele><time>2026-04-30T14:10:21.984Z</time></trkpt><trkpt lat="42.1528795" lon="12.3471264"><ele>203.0</ele><time>2026-04-30T14:10:22.984Z</time></trkpt><trkpt lat="42.1530971" lon="12.3469048"><ele>201.0</ele><time>2026-04-30T14:10:23.984Z</time></trkpt><trkpt lat="42.1533073" lon="12.346666"><ele>199.0</ele><time>2026-04-30T14:10:24.984Z</time></trkpt><trkpt lat="42.1535095" lon="12.3464233"><ele>198.0</ele><time>2026-04-30T14:10:25.985Z</time></trkpt><trkpt lat="42.153709" lon="12.346179"><ele>197.0</ele><time>2026-04-30T14:10:26.984Z</time></trkpt><trkpt lat="42.1539097" lon="12.3459367"><ele>197.5</ele><time>2026-04-30T14:10:27.985Z</time></trkpt><trkpt lat="42.1541072" lon="12.3456915"><ele>198.0</ele><time>2026-04-30T14:10:28.984Z</time></trkpt><trkpt lat="42.1543039" lon="12.3454507"><ele>199.0</ele><time>2026-04-30T14:10:29.984Z</time></trkpt><trkpt lat="42.1544945" lon="12.3452104"><ele>200.0</ele><time>2026-04-30T14:10:30.984Z</time></trkpt><trkpt lat="42.1546856" lon="12.3449776"><ele>198.0</ele><time>2026-04-30T14:10:31.984Z</time></trkpt><trkpt lat="42.1548761" lon="12.3447354"><ele>196.0</ele><time>2026-04-30T14:10:32.984Z</time></trkpt><trkpt lat="42.1550718" lon="12.344492"><ele>196.0</ele><time>2026-04-30T14:10:33.985Z</time></trkpt><trkpt lat="42.1552693" lon="12.3442532"><ele>196.0</ele><time>2026-04-30T14:10:34.984Z</time></trkpt><trkpt lat="42.1554678" lon="12.3440147"><ele>195.5</ele><time>2026-04-30T14:10:35.984Z</time></trkpt><trkpt lat="42.1556662" lon="12.3437786"><ele>195.0</ele><time>2026-04-30T14:10:36.984Z</time></trkpt><trkpt lat="42.1558676" lon="12.3435456"><ele>197.0</ele><time>2026-04-30T14:10:37.984Z</time></trkpt><trkpt lat="42.1560694" lon="12.3433125"><ele>199.0</ele><time>2026-04-30T14:10:38.984Z</time></trkpt><trkpt lat="42.1562754" lon="12.3430807"><ele>200.0</ele><time>2026-04-30T14:10:39.984Z</time></trkpt><trkpt lat="42.156484" lon="12.3428534"><ele>201.0</ele><time>2026-04-30T14:10:40.984Z</time></trkpt><trkpt lat="42.1566917" lon="12.3426264"><ele>201.5</ele><time>2026-04-30T14:10:41.985Z</time></trkpt><trkpt lat="42.1568974" lon="12.342395"><ele>202.0</ele><time>2026-04-30T14:10:42.984Z</time></trkpt><trkpt lat="42.157095" lon="12.3421552"><ele>204.0</ele><time>2026-04-30T14:10:43.984Z</time></trkpt><trkpt lat="42.1572908" lon="12.3419151"><ele>206.0</ele><time>2026-04-30T14:10:44.984Z</time></trkpt><trkpt lat="42.1574837" lon="12.3416795"><ele>206.0</ele><time>2026-04-30T14:10:45.984Z</time></trkpt><trkpt lat="42.1576798" lon="12.3414476"><ele>206.0</ele><time>2026-04-30T14:10:46.984Z</time></trkpt><trkpt lat="42.157884" lon="12.341217"><ele>206.0</ele><time>2026-04-30T14:10:47.984Z</time></trkpt><trkpt lat="42.1580908" lon="12.3409816"><ele>206.0</ele><time>2026-04-30T14:10:48.985Z</time></trkpt><trkpt lat="42.1583028" lon="12.3407538"><ele>206.0</ele><time>2026-04-30T14:10:49.985Z</time></trkpt><trkpt lat="42.1585144" lon="12.3405329"><ele>206.0</ele><time>2026-04-30T14:10:50.985Z</time></trkpt><trkpt lat="42.1587315" lon="12.3403208"><ele>206.0</ele><time>2026-04-30T14:10:51.984Z</time></trkpt><trkpt lat="42.1589461" lon="12.3401023"><ele>206.0</ele><time>2026-04-30T14:10:52.984Z</time></trkpt><trkpt lat="42.1591579" lon="12.3398871"><ele>208.5</ele><time>2026-04-30T14:10:53.983Z</time></trkpt><trkpt lat="42.1593661" lon="12.339665"><ele>211.0</ele><time>2026-04-30T14:10:54.983Z</time></trkpt><trkpt lat="42.1595767" lon="12.3394398"><ele>211.0</ele><time>2026-04-30T14:10:55.983Z</time></trkpt><trkpt lat="42.1597892" lon="12.3392125"><ele>211.0</ele><time>2026-04-30T14:10:56.983Z</time></trkpt><trkpt lat="42.1599964" lon="12.3390006"><ele>211.0</ele><time>2026-04-30T14:10:57.983Z</time></trkpt><trkpt lat="42.1602065" lon="12.3387811"><ele>211.0</ele><time>2026-04-30T14:10:58.983Z</time></trkpt><trkpt lat="42.16042" lon="12.3385589"><ele>211.0</ele><time>2026-04-30T14:10:59.983Z</time></trkpt><trkpt lat="42.1606356" lon="12.338344"><ele>211.0</ele><time>2026-04-30T14:11:00.983Z</time></trkpt><trkpt lat="42.1608497" lon="12.3381209"><ele>208.5</ele><time>2026-04-30T14:11:01.983Z</time></trkpt><trkpt lat="42.1610671" lon="12.3379018"><ele>206.0</ele><time>2026-04-30T14:11:02.983Z</time></trkpt><trkpt lat="42.1612852" lon="12.3376834"><ele>206.0</ele><time>2026-04-30T14:11:03.984Z</time></trkpt><trkpt lat="42.1615008" lon="12.3374722"><ele>206.0</ele><time>2026-04-30T14:11:04.983Z</time></trkpt><trkpt lat="42.1617176" lon="12.3372694"><ele>205.0</ele><time>2026-04-30T14:11:05.983Z</time></trkpt><trkpt lat="42.1619323" lon="12.3370847"><ele>204.0</ele><time>2026-04-30T14:11:06.984Z</time></trkpt><trkpt lat="42.1621431" lon="12.3369114"><ele>204.0</ele><time>2026-04-30T14:11:07.983Z</time></trkpt><trkpt lat="42.1623519" lon="12.3367397"><ele>204.0</ele><time>2026-04-30T14:11:08.983Z</time></trkpt><trkpt lat="42.1625571" lon="12.3365722"><ele>205.5</ele><time>2026-04-30T14:11:09.983Z</time></trkpt><trkpt lat="42.162768" lon="12.3364043"><ele>207.0</ele><time>2026-04-30T14:11:10.984Z</time></trkpt><trkpt lat="42.1629839" lon="12.3362292"><ele>207.5</ele><time>2026-04-30T14:11:11.984Z</time></trkpt><trkpt lat="42.1631969" lon="12.3360431"><ele>208.0</ele><time>2026-04-30T14:11:12.983Z</time></trkpt><trkpt lat="42.1634139" lon="12.335853"><ele>208.5</ele><time>2026-04-30T14:11:13.983Z</time></trkpt><trkpt lat="42.1636391" lon="12.3356723"><ele>209.0</ele><time>2026-04-30T14:11:14.983Z</time></trkpt><trkpt lat="42.1638793" lon="12.3355025"><ele>209.0</ele><time>2026-04-30T14:11:15.983Z</time></trkpt><trkpt lat="42.1641333" lon="12.3353762"><ele>209.0</ele><time>2026-04-30T14:11:16.984Z</time></trkpt><trkpt lat="42.1643948" lon="12.3352781"><ele>209.0</ele><time>2026-04-30T14:11:17.983Z</time></trkpt><trkpt lat="42.1646591" lon="12.3351881"><ele>209.0</ele><time>2026-04-30T14:11:18.983Z</time></trkpt><trkpt lat="42.1649263" lon="12.3351035"><ele>210.0</ele><time>2026-04-30T14:11:19.984Z</time></trkpt><trkpt lat="42.1651965" lon="12.3350055"><ele>211.0</ele><time>2026-04-30T14:11:20.983Z</time></trkpt><trkpt lat="42.1654697" lon="12.3349095"><ele>212.0</ele><time>2026-04-30T14:11:21.983Z</time></trkpt><trkpt lat="42.1657328" lon="12.3348108"><ele>213.0</ele><time>2026-04-30T14:11:22.983Z</time></trkpt><trkpt lat="42.1660035" lon="12.3347217"><ele>214.5</ele><time>2026-04-30T14:11:23.984Z</time></trkpt><trkpt lat="42.1662653" lon="12.3346326"><ele>216.0</ele><time>2026-04-30T14:11:24.983Z</time></trkpt><trkpt lat="42.1665162" lon="12.3345538"><ele>215.5</ele><time>2026-04-30T14:11:25.983Z</time></trkpt><trkpt lat="42.1667644" lon="12.3344797"><ele>215.0</ele><time>2026-04-30T14:11:26.984Z</time></trkpt><trkpt lat="42.1670101" lon="12.3344046"><ele>215.0</ele><time>2026-04-30T14:11:27.983Z</time></trkpt><trkpt lat="42.1672478" lon="12.3343246"><ele>215.0</ele><time>2026-04-30T14:11:28.983Z</time></trkpt><trkpt lat="42.1674731" lon="12.3342427"><ele>215.66666666666669</ele><time>2026-04-30T14:11:29.983Z</time></trkpt><trkpt lat="42.1676899" lon="12.3341656"><ele>216.33333333333331</ele><time>2026-04-30T14:11:30.984Z</time></trkpt><trkpt lat="42.1679048" lon="12.3340854"><ele>217.0</ele><time>2026-04-30T14:11:31.983Z</time></trkpt><trkpt lat="42.1681187" lon="12.3340045"><ele>216.66666666666666</ele><time>2026-04-30T14:11:32.983Z</time></trkpt><trkpt lat="42.1683282" lon="12.3339228"><ele>216.33333333333331</ele><time>2026-04-30T14:11:33.983Z</time></trkpt><trkpt lat="42.1685433" lon="12.3338277"><ele>216.0</ele><time>2026-04-30T14:11:34.983Z</time></trkpt><trkpt lat="42.1687655" lon="12.3337266"><ele>217.5</ele><time>2026-04-30T14:11:35.984Z</time></trkpt><trkpt lat="42.1689901" lon="12.3336191"><ele>219.0</ele><time>2026-04-30T14:11:36.983Z</time></trkpt><trkpt lat="42.1692106" lon="12.3334926"><ele>219.0</ele><time>2026-04-30T14:11:37.983Z</time></trkpt><trkpt lat="42.1694213" lon="12.3333477"><ele>219.0</ele><time>2026-04-30T14:11:38.983Z</time></trkpt><trkpt lat="42.1696045" lon="12.3331891"><ele>219.33333333333331</ele><time>2026-04-30T14:11:39.983Z</time></trkpt><trkpt lat="42.1697661" lon="12.3330221"><ele>219.66666666666666</ele><time>2026-04-30T14:11:40.984Z</time></trkpt><trkpt lat="42.1699176" lon="12.3328351"><ele>220.0</ele><time>2026-04-30T14:11:41.984Z</time></trkpt><trkpt lat="42.1700601" lon="12.3326278"><ele>221.33333333333331</ele><time>2026-04-30T14:11:42.983Z</time></trkpt><trkpt lat="42.1702001" lon="12.3324115"><ele>222.66666666666669</ele><time>2026-04-30T14:11:43.983Z</time></trkpt><trkpt lat="42.1703394" lon="12.3321841"><ele>224.0</ele><time>2026-04-30T14:11:44.983Z</time></trkpt><trkpt lat="42.1704835" lon="12.3319519"><ele>224.5</ele><time>2026-04-30T14:11:45.984Z</time></trkpt><trkpt lat="42.1706308" lon="12.3317163"><ele>225.0</ele><time>2026-04-30T14:11:46.983Z</time></trkpt><trkpt lat="42.1707805" lon="12.3314824"><ele>227.0</ele><time>2026-04-30T14:11:47.984Z</time></trkpt><trkpt lat="42.1709298" lon="12.3312455"><ele>229.0</ele><time>2026-04-30T14:11:48.983Z</time></trkpt><trkpt lat="42.1710828" lon="12.3309965"><ele>229.0</ele><time>2026-04-30T14:11:49.983Z</time></trkpt><trkpt lat="42.1712337" lon="12.3307434"><ele>229.0</ele><time>2026-04-30T14:11:50.984Z</time></trkpt><trkpt lat="42.1713902" lon="12.3304818"><ele>234.0</ele><time>2026-04-30T14:11:51.983Z</time></trkpt><trkpt lat="42.1715514" lon="12.3302138"><ele>239.0</ele><time>2026-04-30T14:11:52.983Z</time></trkpt><trkpt lat="42.1717096" lon="12.3299462"><ele>239.0</ele><time>2026-04-30T14:11:53.983Z</time></trkpt><trkpt lat="42.1718754" lon="12.3296691"><ele>239.0</ele><time>2026-04-30T14:11:54.983Z</time></trkpt><trkpt lat="42.1720495" lon="12.3293987"><ele>239.0</ele><time>2026-04-30T14:11:55.983Z</time></trkpt><trkpt lat="42.1722226" lon="12.3291227"><ele>239.0</ele><time>2026-04-30T14:11:56.983Z</time></trkpt><trkpt lat="42.1723965" lon="12.3288451"><ele>242.5</ele><time>2026-04-30T14:11:57.984Z</time></trkpt><trkpt lat="42.1725732" lon="12.3285627"><ele>246.0</ele><time>2026-04-30T14:11:58.983Z</time></trkpt><trkpt lat="42.1727522" lon="12.3282786"><ele>245.5</ele><time>2026-04-30T14:11:59.984Z</time></trkpt><trkpt lat="42.1729369" lon="12.3280016"><ele>245.0</ele><time>2026-04-30T14:12:00.984Z</time></trkpt><trkpt lat="42.1731282" lon="12.327727"><ele>247.0</ele><time>2026-04-30T14:12:01.983Z</time></trkpt><trkpt lat="42.1733299" lon="12.3274585"><ele>249.0</ele><time>2026-04-30T14:12:02.984Z</time></trkpt><trkpt lat="42.1735321" lon="12.3271939"><ele>249.0</ele><time>2026-04-30T14:12:03.984Z</time></trkpt><trkpt lat="42.1737448" lon="12.3269417"><ele>249.0</ele><time>2026-04-30T14:12:04.984Z</time></trkpt><trkpt lat="42.1739726" lon="12.3267039"><ele>251.0</ele><time>2026-04-30T14:12:05.983Z</time></trkpt><trkpt lat="42.1742119" lon="12.3264677"><ele>253.0</ele><time>2026-04-30T14:12:06.983Z</time></trkpt><trkpt lat="42.1744664" lon="12.3262331"><ele>253.0</ele><time>2026-04-30T14:12:07.983Z</time></trkpt><trkpt lat="42.1747274" lon="12.3260123"><ele>253.0</ele><time>2026-04-30T14:12:08.984Z</time></trkpt><trkpt lat="42.1749791" lon="12.3258074"><ele>255.0</ele><time>2026-04-30T14:12:09.983Z</time></trkpt><trkpt lat="42.1752175" lon="12.3256227"><ele>257.0</ele><time>2026-04-30T14:12:10.984Z</time></trkpt><trkpt lat="42.1754493" lon="12.3254547"><ele>257.0</ele><time>2026-04-30T14:12:11.983Z</time></trkpt><trkpt lat="42.1756822" lon="12.3253033"><ele>257.0</ele><time>2026-04-30T14:12:12.983Z</time></trkpt><trkpt lat="42.1759186" lon="12.3251525"><ele>258.0</ele><time>2026-04-30T14:12:13.984Z</time></trkpt><trkpt lat="42.1761539" lon="12.3250055"><ele>259.0</ele><time>2026-04-30T14:12:14.983Z</time></trkpt><trkpt lat="42.1763879" lon="12.3248591"><ele>258.5</ele><time>2026-04-30T14:12:15.983Z</time></trkpt><trkpt lat="42.176628" lon="12.324712"><ele>258.0</ele><time>2026-04-30T14:12:16.983Z</time></trkpt><trkpt lat="42.1768709" lon="12.3245657"><ele>258.0</ele><time>2026-04-30T14:12:17.983Z</time></trkpt><trkpt lat="42.1771113" lon="12.324411"><ele>258.0</ele><time>2026-04-30T14:12:18.983Z</time></trkpt><trkpt lat="42.1773491" lon="12.3242671"><ele>257.0</ele><time>2026-04-30T14:12:19.984Z</time></trkpt><trkpt lat="42.1775871" lon="12.3241214"><ele>256.0</ele><time>2026-04-30T14:12:20.983Z</time></trkpt><trkpt lat="42.1778251" lon="12.32398"><ele>256.5</ele><time>2026-04-30T14:12:21.983Z</time></trkpt><trkpt lat="42.1780647" lon="12.3238336"><ele>257.0</ele><time>2026-04-30T14:12:22.983Z</time></trkpt><trkpt lat="42.178314" lon="12.3236916"><ele>258.5</ele><time>2026-04-30T14:12:23.983Z</time></trkpt><trkpt lat="42.1785663" lon="12.3235508"><ele>260.0</ele><time>2026-04-30T14:12:24.983Z</time></trkpt><trkpt lat="42.1788273" lon="12.323417"><ele>259.5</ele><time>2026-04-30T14:12:25.983Z</time></trkpt><trkpt lat="42.1790983" lon="12.323276"><ele>259.0</ele><time>2026-04-30T14:12:26.984Z</time></trkpt><trkpt lat="42.1793774" lon="12.3231347"><ele>261.0</ele><time>2026-04-30T14:12:27.983Z</time></trkpt><trkpt lat="42.1796633" lon="12.323"><ele>263.0</ele><time>2026-04-30T14:12:28.983Z</time></trkpt><trkpt lat="42.1799565" lon="12.3228735"><ele>263.5</ele><time>2026-04-30T14:12:29.983Z</time></trkpt><trkpt lat="42.180254" lon="12.3227469"><ele>264.0</ele><time>2026-04-30T14:12:30.983Z</time></trkpt><trkpt lat="42.1805636" lon="12.322624"><ele>263.0</ele><time>2026-04-30T14:12:31.983Z</time></trkpt><trkpt lat="42.1808748" lon="12.3225005"><ele>262.0</ele><time>2026-04-30T14:12:32.983Z</time></trkpt><trkpt lat="42.1811908" lon="12.3223894"><ele>262.0</ele><time>2026-04-30T14:12:33.983Z</time></trkpt><trkpt lat="42.1815093" lon="12.3222767"><ele>262.0</ele><time>2026-04-30T14:12:34.983Z</time></trkpt><trkpt lat="42.1818295" lon="12.3221609"><ele>259.0</ele><time>2026-04-30T14:12:35.984Z</time></trkpt><trkpt lat="42.1821477" lon="12.3220447"><ele>256.0</ele><time>2026-04-30T14:12:36.984Z</time></trkpt><trkpt lat="42.1824641" lon="12.3219295"><ele>253.0</ele><time>2026-04-30T14:12:37.984Z</time></trkpt><trkpt lat="42.1827784" lon="12.3218182"><ele>250.0</ele><time>2026-04-30T14:12:38.984Z</time></trkpt><trkpt lat="42.1830977" lon="12.3217042"><ele>248.5</ele><time>2026-04-30T14:12:39.983Z</time></trkpt><trkpt lat="42.1834031" lon="12.321589"><ele>247.0</ele><time>2026-04-30T14:12:40.984Z</time></trkpt><trkpt lat="42.1837051" lon="12.3214851"><ele>246.0</ele><time>2026-04-30T14:12:41.984Z</time></trkpt><trkpt lat="42.1839961" lon="12.3213811"><ele>245.0</ele><time>2026-04-30T14:12:42.983Z</time></trkpt><trkpt lat="42.184283" lon="12.3212802"><ele>243.5</ele><time>2026-04-30T14:12:43.984Z</time></trkpt><trkpt lat="42.1845629" lon="12.3211816"><ele>242.0</ele><time>2026-04-30T14:12:44.983Z</time></trkpt><trkpt lat="42.1848305" lon="12.3210888"><ele>242.0</ele><time>2026-04-30T14:12:45.983Z</time></trkpt><trkpt lat="42.1850935" lon="12.3209938"><ele>242.0</ele><time>2026-04-30T14:12:46.984Z</time></trkpt><trkpt lat="42.1853581" lon="12.3209005"><ele>242.0</ele><time>2026-04-30T14:12:47.984Z</time></trkpt><trkpt lat="42.1856125" lon="12.3208089"><ele>242.0</ele><time>2026-04-30T14:12:48.983Z</time></trkpt><trkpt lat="42.1858673" lon="12.3207109"><ele>241.5</ele><time>2026-04-30T14:12:49.984Z</time></trkpt><trkpt lat="42.1861395" lon="12.3206127"><ele>241.0</ele><time>2026-04-30T14:12:50.983Z</time></trkpt><trkpt lat="42.1864342" lon="12.3205092"><ele>240.5</ele><time>2026-04-30T14:12:51.984Z</time></trkpt><trkpt lat="42.18675" lon="12.3203958"><ele>240.0</ele><time>2026-04-30T14:12:52.983Z</time></trkpt><trkpt lat="42.1870817" lon="12.3202798"><ele>240.0</ele><time>2026-04-30T14:12:53.983Z</time></trkpt><trkpt lat="42.1874146" lon="12.3201589"><ele>240.0</ele><time>2026-04-30T14:12:54.984Z</time></trkpt><trkpt lat="42.1877434" lon="12.3200133"><ele>240.0</ele><time>2026-04-30T14:12:55.983Z</time></trkpt><trkpt lat="42.1880636" lon="12.3198288"><ele>240.0</ele><time>2026-04-30T14:12:56.983Z</time></trkpt><trkpt lat="42.1883844" lon="12.3196155"><ele>240.0</ele><time>2026-04-30T14:12:57.984Z</time></trkpt><trkpt lat="42.1887014" lon="12.3193556"><ele>240.0</ele><time>2026-04-30T14:12:58.984Z</time></trkpt><trkpt lat="42.1890147" lon="12.3190436"><ele>241.5</ele><time>2026-04-30T14:12:59.983Z</time></trkpt><trkpt lat="42.1893174" lon="12.3186836"><ele>243.0</ele><time>2026-04-30T14:13:00.983Z</time></trkpt><trkpt lat="42.1896053" lon="12.3182968"><ele>244.0</ele><time>2026-04-30T14:13:01.984Z</time></trkpt><trkpt lat="42.18987" lon="12.3179284"><ele>245.0</ele><time>2026-04-30T14:13:02.983Z</time></trkpt><trkpt lat="42.1901207" lon="12.3175768"><ele>245.0</ele><time>2026-04-30T14:13:03.984Z</time></trkpt><trkpt lat="42.1903565" lon="12.3172358"><ele>245.0</ele><time>2026-04-30T14:13:04.984Z</time></trkpt><trkpt lat="42.1905864" lon="12.3169077"><ele>247.0</ele><time>2026-04-30T14:13:05.983Z</time></trkpt><trkpt lat="42.1908097" lon="12.3165745"><ele>249.0</ele><time>2026-04-30T14:13:06.984Z</time></trkpt><trkpt lat="42.1910364" lon="12.3162356"><ele>250.0</ele><time>2026-04-30T14:13:07.983Z</time></trkpt><trkpt lat="42.1912824" lon="12.3158818"><ele>251.0</ele><time>2026-04-30T14:13:08.983Z</time></trkpt><trkpt lat="42.1915389" lon="12.3155394"><ele>253.5</ele><time>2026-04-30T14:13:09.983Z</time></trkpt><trkpt lat="42.1917885" lon="12.3152351"><ele>256.0</ele><time>2026-04-30T14:13:10.983Z</time></trkpt><trkpt lat="42.1920263" lon="12.3149616"><ele>257.0</ele><time>2026-04-30T14:13:11.984Z</time></trkpt><trkpt lat="42.1922642" lon="12.3147277"><ele>258.0</ele><time>2026-04-30T14:13:12.983Z</time></trkpt><trkpt lat="42.1925053" lon="12.3145229"><ele>258.0</ele><time>2026-04-30T14:13:13.983Z</time></trkpt><trkpt lat="42.1927495" lon="12.3143481"><ele>258.0</ele><time>2026-04-30T14:13:14.984Z</time></trkpt><trkpt lat="42.1930081" lon="12.3141882"><ele>257.5</ele><time>2026-04-30T14:13:15.983Z</time></trkpt><trkpt lat="42.1932689" lon="12.3140547"><ele>257.0</ele><time>2026-04-30T14:13:16.983Z</time></trkpt><trkpt lat="42.1935298" lon="12.3139437"><ele>258.5</ele><time>2026-04-30T14:13:17.983Z</time></trkpt><trkpt lat="42.1937941" lon="12.3138509"><ele>260.0</ele><time>2026-04-30T14:13:18.983Z</time></trkpt><trkpt lat="42.1940523" lon="12.3137734"><ele>260.0</ele><time>2026-04-30T14:13:19.983Z</time></trkpt><trkpt lat="42.1943176" lon="12.3137039"><ele>260.0</ele><time>2026-04-30T14:13:20.984Z</time></trkpt><trkpt lat="42.1945803" lon="12.3136318"><ele>260.0</ele><time>2026-04-30T14:13:21.983Z</time></trkpt><trkpt lat="42.1948494" lon="12.3135617"><ele>260.0</ele><time>2026-04-30T14:13:22.983Z</time></trkpt><trkpt lat="42.1951091" lon="12.3134867"><ele>260.0</ele><time>2026-04-30T14:13:23.983Z</time></trkpt><trkpt lat="42.1953636" lon="12.3134158"><ele>260.0</ele><time>2026-04-30T14:13:24.983Z</time></trkpt><trkpt lat="42.1956161" lon="12.3133484"><ele>258.0</ele><time>2026-04-30T14:13:25.983Z</time></trkpt><trkpt lat="42.1958784" lon="12.3132862"><ele>256.0</ele><time>2026-04-30T14:13:26.983Z</time></trkpt><trkpt lat="42.1961405" lon="12.3132217"><ele>256.0</ele><time>2026-04-30T14:13:27.984Z</time></trkpt><trkpt lat="42.1964059" lon="12.3131655"><ele>256.0</ele><time>2026-04-30T14:13:28.983Z</time></trkpt><trkpt lat="42.1966701" lon="12.3131044"><ele>257.0</ele><time>2026-04-30T14:13:29.984Z</time></trkpt><trkpt lat="42.1969314" lon="12.3130354"><ele>258.0</ele><time>2026-04-30T14:13:30.983Z</time></trkpt><trkpt lat="42.1971908" lon="12.3129679"><ele>257.0</ele><time>2026-04-30T14:13:31.984Z</time></trkpt><trkpt lat="42.1974573" lon="12.3129052"><ele>256.0</ele><time>2026-04-30T14:13:32.983Z</time></trkpt><trkpt lat="42.1977303" lon="12.3128351"><ele>256.0</ele><time>2026-04-30T14:13:33.984Z</time></trkpt><trkpt lat="42.1980031" lon="12.3127694"><ele>256.0</ele><time>2026-04-30T14:13:34.983Z</time></trkpt><trkpt lat="42.1982787" lon="12.3126971"><ele>255.5</ele><time>2026-04-30T14:13:35.983Z</time></trkpt><trkpt lat="42.1985433" lon="12.312611"><ele>255.0</ele><time>2026-04-30T14:13:36.983Z</time></trkpt><trkpt lat="42.1988087" lon="12.3124991"><ele>254.5</ele><time>2026-04-30T14:13:37.984Z</time></trkpt><trkpt lat="42.1990739" lon="12.3123779"><ele>254.0</ele><time>2026-04-30T14:13:38.983Z</time></trkpt><trkpt lat="42.1993353" lon="12.3122391"><ele>255.0</ele><time>2026-04-30T14:13:39.983Z</time></trkpt><trkpt lat="42.1995893" lon="12.3120755"><ele>256.0</ele><time>2026-04-30T14:13:40.983Z</time></trkpt><trkpt lat="42.199828" lon="12.3118943"><ele>254.5</ele><time>2026-04-30T14:13:41.983Z</time></trkpt><trkpt lat="42.2000552" lon="12.3117069"><ele>253.0</ele><time>2026-04-30T14:13:42.983Z</time></trkpt><trkpt lat="42.2002755" lon="12.3115104"><ele>252.0</ele><time>2026-04-30T14:13:43.984Z</time></trkpt><trkpt lat="42.2004906" lon="12.3113125"><ele>251.0</ele><time>2026-04-30T14:13:44.983Z</time></trkpt><trkpt lat="42.2007117" lon="12.3111127"><ele>249.0</ele><time>2026-04-30T14:13:45.984Z</time></trkpt><trkpt lat="42.2009371" lon="12.3109136"><ele>247.0</ele><time>2026-04-30T14:13:46.984Z</time></trkpt><trkpt lat="42.2011667" lon="12.3107124"><ele>245.5</ele><time>2026-04-30T14:13:47.983Z</time></trkpt><trkpt lat="42.2013914" lon="12.3105109"><ele>244.0</ele><time>2026-04-30T14:13:48.984Z</time></trkpt><trkpt lat="42.2016219" lon="12.3103126"><ele>243.5</ele><time>2026-04-30T14:13:49.983Z</time></trkpt><trkpt lat="42.201853" lon="12.3101136"><ele>243.0</ele><time>2026-04-30T14:13:50.983Z</time></trkpt><trkpt lat="42.2020922" lon="12.3099279"><ele>243.0</ele><time>2026-04-30T14:13:51.983Z</time></trkpt><trkpt lat="42.2023275" lon="12.3097446"><ele>243.0</ele><time>2026-04-30T14:13:52.983Z</time></trkpt><trkpt lat="42.2025463" lon="12.3095582"><ele>241.5</ele><time>2026-04-30T14:13:53.983Z</time></trkpt><trkpt lat="42.2027702" lon="12.3093781"><ele>240.0</ele><time>2026-04-30T14:13:54.984Z</time></trkpt><trkpt lat="42.2030051" lon="12.3092107"><ele>241.5</ele><time>2026-04-30T14:13:55.983Z</time></trkpt><trkpt lat="42.2032495" lon="12.3090595"><ele>243.0</ele><time>2026-04-30T14:13:56.983Z</time></trkpt><trkpt lat="42.2034986" lon="12.3089188"><ele>242.0</ele><time>2026-04-30T14:13:57.983Z</time></trkpt><trkpt lat="42.2037453" lon="12.3087721"><ele>241.0</ele><time>2026-04-30T14:13:58.984Z</time></trkpt><trkpt lat="42.2039926" lon="12.3086282"><ele>238.5</ele><time>2026-04-30T14:13:59.983Z</time></trkpt><trkpt lat="42.2042387" lon="12.3084878"><ele>236.0</ele><time>2026-04-30T14:14:00.984Z</time></trkpt><trkpt lat="42.2044869" lon="12.3083528"><ele>236.0</ele><time>2026-04-30T14:14:01.983Z</time></trkpt><trkpt lat="42.2047341" lon="12.3082156"><ele>236.0</ele><time>2026-04-30T14:14:02.983Z</time></trkpt><trkpt lat="42.2049857" lon="12.3080787"><ele>237.5</ele><time>2026-04-30T14:14:03.983Z</time></trkpt><trkpt lat="42.2052385" lon="12.3079398"><ele>239.0</ele><time>2026-04-30T14:14:04.984Z</time></trkpt><trkpt lat="42.2054806" lon="12.3078003"><ele>239.5</ele><time>2026-04-30T14:14:05.983Z</time></trkpt><trkpt lat="42.2057081" lon="12.3076644"><ele>240.0</ele><time>2026-04-30T14:14:06.983Z</time></trkpt><trkpt lat="42.2059173" lon="12.3075336"><ele>240.0</ele><time>2026-04-30T14:14:07.983Z</time></trkpt><trkpt lat="42.2061175" lon="12.3074053"><ele>240.0</ele><time>2026-04-30T14:14:08.983Z</time></trkpt><trkpt lat="42.2063013" lon="12.3072733"><ele>240.0</ele><time>2026-04-30T14:14:09.983Z</time></trkpt><trkpt lat="42.2064625" lon="12.3071419"><ele>241.5</ele><time>2026-04-30T14:14:10.983Z</time></trkpt><trkpt lat="42.2066028" lon="12.3070148"><ele>243.0</ele><time>2026-04-30T14:14:11.983Z</time></trkpt><trkpt lat="42.2067203" lon="12.3068983"><ele>244.5</ele><time>2026-04-30T14:14:12.983Z</time></trkpt><trkpt lat="42.2068214" lon="12.3068"><ele>246.0</ele><time>2026-04-30T14:14:13.983Z</time></trkpt><trkpt lat="42.2069037" lon="12.3067172"><ele>246.0</ele><time>2026-04-30T14:14:14.983Z</time></trkpt><trkpt lat="42.2069918" lon="12.3066565"><ele>246.00000000000003</ele><time>2026-04-30T14:14:15.983Z</time></trkpt><trkpt lat="42.207087" lon="12.3066015"><ele>246.00000000000003</ele><time>2026-04-30T14:14:16.983Z</time></trkpt><trkpt lat="42.2071894" lon="12.3065626"><ele>246.0</ele><time>2026-04-30T14:14:17.983Z</time></trkpt><trkpt lat="42.2072963" lon="12.3065368"><ele>246.0</ele><time>2026-04-30T14:14:18.983Z</time></trkpt><trkpt lat="42.2074032" lon="12.3064986"><ele>246.5</ele><time>2026-04-30T14:14:19.983Z</time></trkpt><trkpt lat="42.2075128" lon="12.3064525"><ele>247.0</ele><time>2026-04-30T14:14:20.984Z</time></trkpt><trkpt lat="42.2076279" lon="12.3064096"><ele>247.5</ele><time>2026-04-30T14:14:21.984Z</time></trkpt><trkpt lat="42.2077487" lon="12.3063581"><ele>248.0</ele><time>2026-04-30T14:14:22.983Z</time></trkpt><trkpt lat="42.2078757" lon="12.3063005"><ele>248.0</ele><time>2026-04-30T14:14:23.983Z</time></trkpt><trkpt lat="42.2080065" lon="12.3062365"><ele>248.0</ele><time>2026-04-30T14:14:24.984Z</time></trkpt><trkpt lat="42.2081439" lon="12.3061803"><ele>248.0</ele><time>2026-04-30T14:14:25.984Z</time></trkpt><trkpt lat="42.2082769" lon="12.3061162"><ele>248.0</ele><time>2026-04-30T14:14:26.983Z</time></trkpt><trkpt lat="42.2084115" lon="12.3060635"><ele>248.0</ele><time>2026-04-30T14:14:27.983Z</time></trkpt><trkpt lat="42.2085397" lon="12.3060192"><ele>248.0</ele><time>2026-04-30T14:14:28.983Z</time></trkpt><trkpt lat="42.2086744" lon="12.3059863"><ele>248.0</ele><time>2026-04-30T14:14:29.983Z</time></trkpt><trkpt lat="42.2088255" lon="12.3059739"><ele>248.0</ele><time>2026-04-30T14:14:30.983Z</time></trkpt><trkpt lat="42.2089752" lon="12.305992"><ele>246.66666666666669</ele><time>2026-04-30T14:14:31.984Z</time></trkpt><trkpt lat="42.2091342" lon="12.3060204"><ele>245.33333333333331</ele><time>2026-04-30T14:14:32.983Z</time></trkpt><trkpt lat="42.2093012" lon="12.3060446"><ele>244.0</ele><time>2026-04-30T14:14:33.983Z</time></trkpt><trkpt lat="42.2094689" lon="12.306068"><ele>244.0</ele><time>2026-04-30T14:14:34.983Z</time></trkpt><trkpt lat="42.2096429" lon="12.306087"><ele>244.0</ele><time>2026-04-30T14:14:35.983Z</time></trkpt><trkpt lat="42.2098228" lon="12.3061029"><ele>244.0</ele><time>2026-04-30T14:14:36.983Z</time></trkpt><trkpt lat="42.2100025" lon="12.3061126"><ele>241.0</ele><time>2026-04-30T14:14:37.984Z</time></trkpt><trkpt lat="42.2101841" lon="12.3061069"><ele>238.0</ele><time>2026-04-30T14:14:38.983Z</time></trkpt><trkpt lat="42.2103687" lon="12.3060932"><ele>235.0</ele><time>2026-04-30T14:14:39.983Z</time></trkpt><trkpt lat="42.2105511" lon="12.3060483"><ele>232.0</ele><time>2026-04-30T14:14:40.983Z</time></trkpt><trkpt lat="42.2107246" lon="12.305996"><ele>229.0</ele><time>2026-04-30T14:14:41.984Z</time></trkpt><trkpt lat="42.2109017" lon="12.3059397"><ele>226.0</ele><time>2026-04-30T14:14:42.983Z</time></trkpt><trkpt lat="42.2110708" lon="12.3058872"><ele>226.0</ele><time>2026-04-30T14:14:43.983Z</time></trkpt><trkpt lat="42.2112377" lon="12.3058401"><ele>226.0</ele><time>2026-04-30T14:14:44.983Z</time></trkpt><trkpt lat="42.211405" lon="12.3057863"><ele>226.0</ele><time>2026-04-30T14:14:45.983Z</time></trkpt><trkpt lat="42.21158" lon="12.3057364"><ele>224.33333333333331</ele><time>2026-04-30T14:14:46.984Z</time></trkpt><trkpt lat="42.2117579" lon="12.3056918"><ele>222.66666666666669</ele><time>2026-04-30T14:14:47.983Z</time></trkpt><trkpt lat="42.2119364" lon="12.3056421"><ele>221.0</ele><time>2026-04-30T14:14:48.983Z</time></trkpt><trkpt lat="42.2121142" lon="12.3055914"><ele>220.66666666666669</ele><time>2026-04-30T14:14:49.983Z</time></trkpt><trkpt lat="42.2122931" lon="12.3055435"><ele>220.33333333333331</ele><time>2026-04-30T14:14:50.983Z</time></trkpt><trkpt lat="42.2124806" lon="12.3054965"><ele>220.0</ele><time>2026-04-30T14:14:51.983Z</time></trkpt><trkpt lat="42.2126701" lon="12.3054569"><ele>217.0</ele><time>2026-04-30T14:14:52.983Z</time></trkpt><trkpt lat="42.2128588" lon="12.3054122"><ele>214.0</ele><time>2026-04-30T14:14:53.983Z</time></trkpt><trkpt lat="42.2130311" lon="12.3053732"><ele>211.0</ele><time>2026-04-30T14:14:54.983Z</time></trkpt><trkpt lat="42.2132075" lon="12.3053184"><ele>210.66666666666666</ele><time>2026-04-30T14:14:55.983Z</time></trkpt><trkpt lat="42.21338" lon="12.3052646"><ele>210.33333333333331</ele><time>2026-04-30T14:14:56.983Z</time></trkpt><trkpt lat="42.2135516" lon="12.3052112"><ele>210.0</ele><time>2026-04-30T14:14:57.984Z</time></trkpt><trkpt lat="42.2137291" lon="12.3051497"><ele>210.0</ele><time>2026-04-30T14:14:58.984Z</time></trkpt><trkpt lat="42.2138985" lon="12.305109"><ele>210.0</ele><time>2026-04-30T14:14:59.983Z</time></trkpt><trkpt lat="42.2140655" lon="12.3050744"><ele>210.0</ele><time>2026-04-30T14:15:00.983Z</time></trkpt><trkpt lat="42.2142296" lon="12.3050347"><ele>210.66666666666669</ele><time>2026-04-30T14:15:01.984Z</time></trkpt><trkpt lat="42.2144027" lon="12.3049924"><ele>211.33333333333334</ele><time>2026-04-30T14:15:02.983Z</time></trkpt><trkpt lat="42.2145875" lon="12.3049358"><ele>212.0</ele><time>2026-04-30T14:15:03.984Z</time></trkpt><trkpt lat="42.2147811" lon="12.3048677"><ele>211.66666666666669</ele><time>2026-04-30T14:15:04.984Z</time></trkpt><trkpt lat="42.2149768" lon="12.3047989"><ele>211.33333333333331</ele><time>2026-04-30T14:15:05.983Z</time></trkpt><trkpt lat="42.2151762" lon="12.3047146"><ele>211.0</ele><time>2026-04-30T14:15:06.983Z</time></trkpt><trkpt lat="42.2153693" lon="12.304632"><ele>211.0</ele><time>2026-04-30T14:15:07.983Z</time></trkpt><trkpt lat="42.2155499" lon="12.3045517"><ele>211.0</ele><time>2026-04-30T14:15:08.983Z</time></trkpt><trkpt lat="42.2157262" lon="12.3044622"><ele>211.0</ele><time>2026-04-30T14:15:09.984Z</time></trkpt><trkpt lat="42.2158946" lon="12.304382"><ele>211.0</ele><time>2026-04-30T14:15:10.983Z</time></trkpt><trkpt lat="42.2160708" lon="12.3043019"><ele>211.0</ele><time>2026-04-30T14:15:11.983Z</time></trkpt><trkpt lat="42.2162419" lon="12.3042284"><ele>211.0</ele><time>2026-04-30T14:15:12.983Z</time></trkpt><trkpt lat="42.2164079" lon="12.304151"><ele>212.33333333333331</ele><time>2026-04-30T14:15:13.984Z</time></trkpt><trkpt lat="42.2165666" lon="12.3040697"><ele>213.66666666666669</ele><time>2026-04-30T14:15:14.983Z</time></trkpt><trkpt lat="42.2167179" lon="12.3039997"><ele>215.0</ele><time>2026-04-30T14:15:15.983Z</time></trkpt><trkpt lat="42.2168711" lon="12.303967"><ele>215.0</ele><time>2026-04-30T14:15:16.983Z</time></trkpt><trkpt lat="42.2170328" lon="12.3039687"><ele>215.0</ele><time>2026-04-30T14:15:17.983Z</time></trkpt><trkpt lat="42.2172043" lon="12.3040086"><ele>215.0</ele><time>2026-04-30T14:15:18.983Z</time></trkpt><trkpt lat="42.2173718" lon="12.3040669"><ele>215.33333333333334</ele><time>2026-04-30T14:15:19.984Z</time></trkpt><trkpt lat="42.2175291" lon="12.304135"><ele>215.66666666666669</ele><time>2026-04-30T14:15:20.983Z</time></trkpt><trkpt lat="42.2176722" lon="12.3042041"><ele>216.0</ele><time>2026-04-30T14:15:21.984Z</time></trkpt><trkpt lat="42.2178116" lon="12.3042695"><ele>216.0</ele><time>2026-04-30T14:15:22.983Z</time></trkpt><trkpt lat="42.2179505" lon="12.3043387"><ele>216.0</ele><time>2026-04-30T14:15:23.984Z</time></trkpt><trkpt lat="42.2180862" lon="12.3044083"><ele>216.0</ele><time>2026-04-30T14:15:24.983Z</time></trkpt><trkpt lat="42.2182227" lon="12.3044809"><ele>216.0</ele><time>2026-04-30T14:15:25.983Z</time></trkpt><trkpt lat="42.2183569" lon="12.3045561"><ele>215.5</ele><time>2026-04-30T14:15:26.984Z</time></trkpt><trkpt lat="42.218489" lon="12.3046268"><ele>215.0</ele><time>2026-04-30T14:15:27.984Z</time></trkpt><trkpt lat="42.2186237" lon="12.3046954"><ele>214.5</ele><time>2026-04-30T14:15:28.983Z</time></trkpt><trkpt lat="42.218752" lon="12.3047641"><ele>214.0</ele><time>2026-04-30T14:15:29.982Z</time></trkpt><trkpt lat="42.218881" lon="12.3048279"><ele>215.5</ele><time>2026-04-30T14:15:30.983Z</time></trkpt><trkpt lat="42.219013" lon="12.30489"><ele>217.0</ele><time>2026-04-30T14:15:31.983Z</time></trkpt><trkpt lat="42.2191461" lon="12.3049421"><ele>218.5</ele><time>2026-04-30T14:15:32.982Z</time></trkpt><trkpt lat="42.2192812" lon="12.3050026"><ele>220.0</ele><time>2026-04-30T14:15:33.982Z</time></trkpt><trkpt lat="42.219423" lon="12.3050547"><ele>220.0</ele><time>2026-04-30T14:15:34.983Z</time></trkpt><trkpt lat="42.2195676" lon="12.3051166"><ele>220.0</ele><time>2026-04-30T14:15:35.983Z</time></trkpt><trkpt lat="42.2197126" lon="12.3051801"><ele>220.0</ele><time>2026-04-30T14:15:36.982Z</time></trkpt><trkpt lat="42.2198565" lon="12.3052533"><ele>221.25</ele><time>2026-04-30T14:15:37.982Z</time></trkpt><trkpt lat="42.2199952" lon="12.3053267"><ele>222.5</ele><time>2026-04-30T14:15:38.982Z</time></trkpt><trkpt lat="42.2201336" lon="12.3053963"><ele>223.75</ele><time>2026-04-30T14:15:39.983Z</time></trkpt><trkpt lat="42.2202652" lon="12.3054566"><ele>225.0</ele><time>2026-04-30T14:15:40.983Z</time></trkpt><trkpt lat="42.2203888" lon="12.305516"><ele>225.0</ele><time>2026-04-30T14:15:41.983Z</time></trkpt><trkpt lat="42.2205052" lon="12.3055765"><ele>225.0</ele><time>2026-04-30T14:15:42.983Z</time></trkpt><trkpt lat="42.2206334" lon="12.3056337"><ele>225.0</ele><time>2026-04-30T14:15:43.982Z</time></trkpt><trkpt lat="42.2207539" lon="12.3056882"><ele>225.0</ele><time>2026-04-30T14:15:44.982Z</time></trkpt><trkpt lat="42.2208742" lon="12.3057384"><ele>226.4</ele><time>2026-04-30T14:15:45.982Z</time></trkpt><trkpt lat="42.2209758" lon="12.3058026"><ele>227.8</ele><time>2026-04-30T14:15:46.982Z</time></trkpt><trkpt lat="42.2210731" lon="12.3058773"><ele>229.2</ele><time>2026-04-30T14:15:47.983Z</time></trkpt><trkpt lat="42.2211565" lon="12.3059604"><ele>230.6</ele><time>2026-04-30T14:15:48.982Z</time></trkpt><trkpt lat="42.2212194" lon="12.30605"><ele>232.0</ele><time>2026-04-30T14:15:49.983Z</time></trkpt><trkpt lat="42.2212782" lon="12.3061276"><ele>232.0</ele><time>2026-04-30T14:15:50.982Z</time></trkpt><trkpt lat="42.2213395" lon="12.3061693"><ele>232.0</ele><time>2026-04-30T14:15:51.982Z</time></trkpt><trkpt lat="42.2214561" lon="12.3060943"><ele>232.0</ele><time>2026-04-30T14:15:53.982Z</time></trkpt><trkpt lat="42.221513" lon="12.3059711"><ele>232.0</ele><time>2026-04-30T14:15:54.982Z</time></trkpt><trkpt lat="42.2215969" lon="12.3058342"><ele>232.0</ele><time>2026-04-30T14:15:55.982Z</time></trkpt><trkpt lat="42.2216951" lon="12.3057019"><ele>232.33333333333331</ele><time>2026-04-30T14:15:56.982Z</time></trkpt><trkpt lat="42.2218072" lon="12.3055585"><ele>232.66666666666669</ele><time>2026-04-30T14:15:57.983Z</time></trkpt><trkpt lat="42.2219343" lon="12.305399"><ele>233.0</ele><time>2026-04-30T14:15:58.983Z</time></trkpt><trkpt lat="42.2220513" lon="12.3052325"><ele>233.0</ele><time>2026-04-30T14:15:59.983Z</time></trkpt><trkpt lat="42.2221871" lon="12.3050473"><ele>233.0</ele><time>2026-04-30T14:16:00.982Z</time></trkpt><trkpt lat="42.2223347" lon="12.3048601"><ele>233.0</ele><time>2026-04-30T14:16:01.982Z</time></trkpt><trkpt lat="42.2224747" lon="12.3046732"><ele>234.33333333333334</ele><time>2026-04-30T14:16:02.982Z</time></trkpt><trkpt lat="42.2226164" lon="12.3044848"><ele>235.66666666666669</ele><time>2026-04-30T14:16:03.982Z</time></trkpt><trkpt lat="42.2227683" lon="12.3043023"><ele>237.0</ele><time>2026-04-30T14:16:04.982Z</time></trkpt><trkpt lat="42.2229257" lon="12.3041225"><ele>237.0</ele><time>2026-04-30T14:16:05.982Z</time></trkpt><trkpt lat="42.2230927" lon="12.3039761"><ele>237.0</ele><time>2026-04-30T14:16:06.983Z</time></trkpt><trkpt lat="42.2232631" lon="12.3038635"><ele>237.0</ele><time>2026-04-30T14:16:07.982Z</time></trkpt><trkpt lat="42.2234352" lon="12.3037578"><ele>237.33333333333331</ele><time>2026-04-30T14:16:08.982Z</time></trkpt><trkpt lat="42.2236075" lon="12.3036726"><ele>237.66666666666666</ele><time>2026-04-30T14:16:09.982Z</time></trkpt><trkpt lat="42.2237805" lon="12.3035933"><ele>238.0</ele><time>2026-04-30T14:16:10.982Z</time></trkpt><trkpt lat="42.223951" lon="12.3035291"><ele>236.66666666666666</ele><time>2026-04-30T14:16:11.982Z</time></trkpt><trkpt lat="42.2241267" lon="12.3034789"><ele>235.33333333333331</ele><time>2026-04-30T14:16:12.983Z</time></trkpt><trkpt lat="42.2243102" lon="12.3034298"><ele>234.0</ele><time>2026-04-30T14:16:13.982Z</time></trkpt><trkpt lat="42.2244876" lon="12.3033822"><ele>234.0</ele><time>2026-04-30T14:16:14.982Z</time></trkpt><trkpt lat="42.2246594" lon="12.30333"><ele>234.0</ele><time>2026-04-30T14:16:15.982Z</time></trkpt><trkpt lat="42.2248319" lon="12.3032764"><ele>234.0</ele><time>2026-04-30T14:16:16.982Z</time></trkpt><trkpt lat="42.2249998" lon="12.3032152"><ele>233.66666666666669</ele><time>2026-04-30T14:16:17.983Z</time></trkpt><trkpt lat="42.2251679" lon="12.3031523"><ele>233.33333333333334</ele><time>2026-04-30T14:16:18.982Z</time></trkpt><trkpt lat="42.2253423" lon="12.303085"><ele>233.0</ele><time>2026-04-30T14:16:19.982Z</time></trkpt><trkpt lat="42.2255257" lon="12.3030228"><ele>232.66666666666669</ele><time>2026-04-30T14:16:20.982Z</time></trkpt><trkpt lat="42.2257119" lon="12.3029647"><ele>232.33333333333331</ele><time>2026-04-30T14:16:21.982Z</time></trkpt><trkpt lat="42.2258918" lon="12.3029098"><ele>232.0</ele><time>2026-04-30T14:16:22.983Z</time></trkpt><trkpt lat="42.2260684" lon="12.3028484"><ele>232.0</ele><time>2026-04-30T14:16:23.982Z</time></trkpt><trkpt lat="42.2262446" lon="12.302793"><ele>232.0</ele><time>2026-04-30T14:16:24.983Z</time></trkpt><trkpt lat="42.2264154" lon="12.3027407"><ele>232.0</ele><time>2026-04-30T14:16:25.982Z</time></trkpt><trkpt lat="42.2265751" lon="12.3026936"><ele>230.6</ele><time>2026-04-30T14:16:26.983Z</time></trkpt><trkpt lat="42.2267164" lon="12.3026489"><ele>229.2</ele><time>2026-04-30T14:16:27.982Z</time></trkpt><trkpt lat="42.2268325" lon="12.3026073"><ele>227.8</ele><time>2026-04-30T14:16:28.983Z</time></trkpt><trkpt lat="42.2269096" lon="12.3025846"><ele>226.4</ele><time>2026-04-30T14:16:29.982Z</time></trkpt><trkpt lat="42.2269875" lon="12.302551"><ele>225.0</ele><time>2026-04-30T14:16:31.982Z</time></trkpt><trkpt lat="42.2270717" lon="12.3024917"><ele>225.0</ele><time>2026-04-30T14:17:06.983Z</time></trkpt><trkpt lat="42.2271433" lon="12.3024567"><ele>225.0</ele><time>2026-04-30T14:17:07.982Z</time></trkpt><trkpt lat="42.2272483" lon="12.3024083"><ele>225.0</ele><time>2026-04-30T14:17:08.983Z</time></trkpt><trkpt lat="42.227365" lon="12.3023633"><ele>225.0</ele><time>2026-04-30T14:17:09.982Z</time></trkpt><trkpt lat="42.2275183" lon="12.3023117"><ele>224.33333333333331</ele><time>2026-04-30T14:17:10.982Z</time></trkpt><trkpt lat="42.22767" lon="12.302265"><ele>223.66666666666666</ele><time>2026-04-30T14:17:11.983Z</time></trkpt><trkpt lat="42.2278217" lon="12.3022217"><ele>223.0</ele><time>2026-04-30T14:17:12.982Z</time></trkpt><trkpt lat="42.2279917" lon="12.3021733"><ele>223.0</ele><time>2026-04-30T14:17:13.982Z</time></trkpt><trkpt lat="42.2281617" lon="12.30211"><ele>223.0</ele><time>2026-04-30T14:17:14.982Z</time></trkpt><trkpt lat="42.2283267" lon="12.302055"><ele>223.0</ele><time>2026-04-30T14:17:15.982Z</time></trkpt><trkpt lat="42.2284917" lon="12.301985"><ele>223.0</ele><time>2026-04-30T14:17:16.982Z</time></trkpt><trkpt lat="42.2286583" lon="12.301925"><ele>223.0</ele><time>2026-04-30T14:17:17.982Z</time></trkpt><trkpt lat="42.2288283" lon="12.3018717"><ele>223.0</ele><time>2026-04-30T14:17:18.982Z</time></trkpt><trkpt lat="42.229005" lon="12.3018167"><ele>223.66666666666666</ele><time>2026-04-30T14:17:19.982Z</time></trkpt><trkpt lat="42.22917" lon="12.30176"><ele>224.33333333333331</ele><time>2026-04-30T14:17:20.983Z</time></trkpt><trkpt lat="42.2293467" lon="12.301695"><ele>225.0</ele><time>2026-04-30T14:17:21.983Z</time></trkpt><trkpt lat="42.2295183" lon="12.3016333"><ele>225.0</ele><time>2026-04-30T14:17:22.982Z</time></trkpt><trkpt lat="42.2296917" lon="12.3015817"><ele>225.0</ele><time>2026-04-30T14:17:23.983Z</time></trkpt><trkpt lat="42.2298667" lon="12.3015183"><ele>225.0</ele><time>2026-04-30T14:17:24.983Z</time></trkpt><trkpt lat="42.2300483" lon="12.3014617"><ele>226.0</ele><time>2026-04-30T14:17:25.982Z</time></trkpt><trkpt lat="42.23022" lon="12.3014033"><ele>227.0</ele><time>2026-04-30T14:17:26.982Z</time></trkpt><trkpt lat="42.2304" lon="12.3013417"><ele>228.0</ele><time>2026-04-30T14:17:27.983Z</time></trkpt><trkpt lat="42.230575" lon="12.3012767"><ele>230.66666666666669</ele><time>2026-04-30T14:17:28.982Z</time></trkpt><trkpt lat="42.230745" lon="12.3012183"><ele>233.33333333333334</ele><time>2026-04-30T14:17:29.983Z</time></trkpt><trkpt lat="42.2309133" lon="12.3011583"><ele>236.0</ele><time>2026-04-30T14:17:30.983Z</time></trkpt><trkpt lat="42.2310783" lon="12.3010983"><ele>236.0</ele><time>2026-04-30T14:17:31.983Z</time></trkpt><trkpt lat="42.2312367" lon="12.301045"><ele>236.0</ele><time>2026-04-30T14:17:32.982Z</time></trkpt><trkpt lat="42.2314033" lon="12.3009917"><ele>236.0</ele><time>2026-04-30T14:17:33.982Z</time></trkpt><trkpt lat="42.2315583" lon="12.300945"><ele>236.5</ele><time>2026-04-30T14:17:34.982Z</time></trkpt><trkpt lat="42.2317017" lon="12.30091"><ele>237.0</ele><time>2026-04-30T14:17:35.982Z</time></trkpt><trkpt lat="42.2318333" lon="12.3008733"><ele>237.5</ele><time>2026-04-30T14:17:36.983Z</time></trkpt><trkpt lat="42.2319517" lon="12.3008383"><ele>238.0</ele><time>2026-04-30T14:17:37.982Z</time></trkpt><trkpt lat="42.2320667" lon="12.3008217"><ele>237.99999999999997</ele><time>2026-04-30T14:17:38.982Z</time></trkpt><trkpt lat="42.2321617" lon="12.3007833"><ele>238.0</ele><time>2026-04-30T14:17:39.982Z</time></trkpt><trkpt lat="42.2322517" lon="12.3007433"><ele>238.0</ele><time>2026-04-30T14:17:40.982Z</time></trkpt><trkpt lat="42.2323317" lon="12.3007"><ele>238.0</ele><time>2026-04-30T14:17:41.982Z</time></trkpt><trkpt lat="42.2324" lon="12.3006867"><ele>237.99999999999997</ele><time>2026-04-30T14:17:42.983Z</time></trkpt><trkpt lat="42.2324717" lon="12.3006967"><ele>238.0</ele><time>2026-04-30T14:17:43.982Z</time></trkpt><trkpt lat="42.2325533" lon="12.3007083"><ele>237.83333333333331</ele><time>2026-04-30T14:17:44.983Z</time></trkpt><trkpt lat="42.232635" lon="12.3007333"><ele>237.66666666666666</ele><time>2026-04-30T14:17:45.983Z</time></trkpt><trkpt lat="42.2327067" lon="12.300755"><ele>237.5</ele><time>2026-04-30T14:17:46.982Z</time></trkpt><trkpt lat="42.232815" lon="12.3007067"><ele>237.33333333333331</ele><time>2026-04-30T14:17:48.982Z</time></trkpt><trkpt lat="42.23286" lon="12.3006417"><ele>237.16666666666666</ele><time>2026-04-30T14:17:49.983Z</time></trkpt><trkpt lat="42.2329133" lon="12.3005767"><ele>237.0</ele><time>2026-04-30T14:17:50.982Z</time></trkpt><trkpt lat="42.2329717" lon="12.30054"><ele>237.0</ele><time>2026-04-30T14:17:51.982Z</time></trkpt><trkpt lat="42.233045" lon="12.3005083"><ele>237.0</ele><time>2026-04-30T14:17:52.982Z</time></trkpt><trkpt lat="42.233125" lon="12.3004717"><ele>237.0</ele><time>2026-04-30T14:17:53.983Z</time></trkpt><trkpt lat="42.2332083" lon="12.300435"><ele>237.0</ele><time>2026-04-30T14:17:54.982Z</time></trkpt><trkpt lat="42.2333067" lon="12.3004067"><ele>237.0</ele><time>2026-04-30T14:17:55.982Z</time></trkpt><trkpt lat="42.2334183" lon="12.30038"><ele>237.0</ele><time>2026-04-30T14:17:56.983Z</time></trkpt><trkpt lat="42.2335283" lon="12.3003483"><ele>237.0</ele><time>2026-04-30T14:17:57.982Z</time></trkpt><trkpt lat="42.2336467" lon="12.3002983"><ele>237.0</ele><time>2026-04-30T14:17:58.982Z</time></trkpt><trkpt lat="42.23378" lon="12.300265"><ele>237.0</ele><time>2026-04-30T14:17:59.983Z</time></trkpt><trkpt lat="42.2339083" lon="12.300235"><ele>237.0</ele><time>2026-04-30T14:18:00.982Z</time></trkpt><trkpt lat="42.2340233" lon="12.3001883"><ele>237.0</ele><time>2026-04-30T14:18:01.983Z</time></trkpt><trkpt lat="42.2341367" lon="12.3001433"><ele>237.0</ele><time>2026-04-30T14:18:02.983Z</time></trkpt><trkpt lat="42.2342467" lon="12.3001"><ele>237.0</ele><time>2026-04-30T14:18:03.983Z</time></trkpt><trkpt lat="42.2343583" lon="12.3000567"><ele>237.0</ele><time>2026-04-30T14:18:04.982Z</time></trkpt><trkpt lat="42.2344717" lon="12.3000217"><ele>237.0</ele><time>2026-04-30T14:18:05.983Z</time></trkpt><trkpt lat="42.234585" lon="12.2999817"><ele>237.0</ele><time>2026-04-30T14:18:06.982Z</time></trkpt><trkpt lat="42.23469" lon="12.2999433"><ele>237.0</ele><time>2026-04-30T14:18:07.982Z</time></trkpt><trkpt lat="42.2348033" lon="12.2998933"><ele>236.0</ele><time>2026-04-30T14:18:08.982Z</time></trkpt><trkpt lat="42.2349133" lon="12.2998417"><ele>235.0</ele><time>2026-04-30T14:18:09.982Z</time></trkpt><trkpt lat="42.2350267" lon="12.2997867"><ele>234.0</ele><time>2026-04-30T14:18:10.982Z</time></trkpt><trkpt lat="42.2351517" lon="12.2997217"><ele>233.0</ele><time>2026-04-30T14:18:11.982Z</time></trkpt><trkpt lat="42.2352817" lon="12.2996617"><ele>233.0</ele><time>2026-04-30T14:18:12.982Z</time></trkpt><trkpt lat="42.23542" lon="12.2995783"><ele>233.0</ele><time>2026-04-30T14:18:13.982Z</time></trkpt><trkpt lat="42.2355783" lon="12.2994983"><ele>233.0</ele><time>2026-04-30T14:18:14.982Z</time></trkpt><trkpt lat="42.2357633" lon="12.2994"><ele>233.5</ele><time>2026-04-30T14:18:15.983Z</time></trkpt><trkpt lat="42.2359683" lon="12.2992817"><ele>234.0</ele><time>2026-04-30T14:18:16.982Z</time></trkpt><trkpt lat="42.2361833" lon="12.2991567"><ele>234.0</ele><time>2026-04-30T14:18:17.982Z</time></trkpt><trkpt lat="42.2364133" lon="12.2990317"><ele>234.0</ele><time>2026-04-30T14:18:18.982Z</time></trkpt><trkpt lat="42.2366583" lon="12.298905"><ele>235.0</ele><time>2026-04-30T14:18:19.983Z</time></trkpt><trkpt lat="42.2369167" lon="12.2987667"><ele>236.0</ele><time>2026-04-30T14:18:20.983Z</time></trkpt><trkpt lat="42.237185" lon="12.298645"><ele>237.5</ele><time>2026-04-30T14:18:21.983Z</time></trkpt><trkpt lat="42.2374667" lon="12.29852"><ele>239.0</ele><time>2026-04-30T14:18:22.982Z</time></trkpt><trkpt lat="42.2377533" lon="12.2984033"><ele>239.0</ele><time>2026-04-30T14:18:23.983Z</time></trkpt><trkpt lat="42.2380317" lon="12.2982967"><ele>239.0</ele><time>2026-04-30T14:18:24.982Z</time></trkpt><trkpt lat="42.2382867" lon="12.2982067"><ele>240.5</ele><time>2026-04-30T14:18:25.982Z</time></trkpt><trkpt lat="42.2385283" lon="12.2981083"><ele>242.0</ele><time>2026-04-30T14:18:26.982Z</time></trkpt><trkpt lat="42.2387621" lon="12.2980033"><ele>242.33333333333334</ele><time>2026-04-30T14:18:27.982Z</time></trkpt><trkpt lat="42.2389697" lon="12.2979097"><ele>242.66666666666669</ele><time>2026-04-30T14:18:28.982Z</time></trkpt><trkpt lat="42.2391472" lon="12.2978191"><ele>243.0</ele><time>2026-04-30T14:18:29.982Z</time></trkpt><trkpt lat="42.2393077" lon="12.2977347"><ele>243.0</ele><time>2026-04-30T14:18:30.982Z</time></trkpt><trkpt lat="42.2394542" lon="12.2976552"><ele>243.0</ele><time>2026-04-30T14:18:31.982Z</time></trkpt><trkpt lat="42.2395926" lon="12.2975767"><ele>243.0</ele><time>2026-04-30T14:18:32.982Z</time></trkpt><trkpt lat="42.2397284" lon="12.2974751"><ele>242.33333333333331</ele><time>2026-04-30T14:18:33.982Z</time></trkpt><trkpt lat="42.2398922" lon="12.2973486"><ele>241.66666666666666</ele><time>2026-04-30T14:18:34.982Z</time></trkpt><trkpt lat="42.2400806" lon="12.2972041"><ele>241.0</ele><time>2026-04-30T14:18:35.982Z</time></trkpt><trkpt lat="42.2402908" lon="12.2970389"><ele>241.0</ele><time>2026-04-30T14:18:36.982Z</time></trkpt><trkpt lat="42.2405112" lon="12.2968845"><ele>241.0</ele><time>2026-04-30T14:18:37.982Z</time></trkpt><trkpt lat="42.2407241" lon="12.2967519"><ele>239.66666666666666</ele><time>2026-04-30T14:18:38.983Z</time></trkpt><trkpt lat="42.2409321" lon="12.2966343"><ele>238.33333333333331</ele><time>2026-04-30T14:18:39.982Z</time></trkpt><trkpt lat="42.2411393" lon="12.2965487"><ele>237.0</ele><time>2026-04-30T14:18:40.983Z</time></trkpt><trkpt lat="42.241352" lon="12.296512"><ele>235.5</ele><time>2026-04-30T14:18:41.982Z</time></trkpt><trkpt lat="42.2415794" lon="12.2965089"><ele>234.0</ele><time>2026-04-30T14:18:42.982Z</time></trkpt><trkpt lat="42.2418074" lon="12.2965365"><ele>234.0</ele><time>2026-04-30T14:18:43.982Z</time></trkpt><trkpt lat="42.24204" lon="12.2965793"><ele>234.0</ele><time>2026-04-30T14:18:44.982Z</time></trkpt><trkpt lat="42.2422741" lon="12.2965891"><ele>235.5</ele><time>2026-04-30T14:18:45.983Z</time></trkpt><trkpt lat="42.2425022" lon="12.2965446"><ele>237.0</ele><time>2026-04-30T14:18:46.982Z</time></trkpt><trkpt lat="42.2427218" lon="12.2964331"><ele>237.0</ele><time>2026-04-30T14:18:47.983Z</time></trkpt><trkpt lat="42.2429326" lon="12.2962848"><ele>237.0</ele><time>2026-04-30T14:18:48.982Z</time></trkpt><trkpt lat="42.2431393" lon="12.2961095"><ele>237.0</ele><time>2026-04-30T14:18:49.982Z</time></trkpt><trkpt lat="42.2433486" lon="12.2959327"><ele>237.0</ele><time>2026-04-30T14:18:50.982Z</time></trkpt><trkpt lat="42.2435537" lon="12.295754"><ele>237.5</ele><time>2026-04-30T14:18:51.983Z</time></trkpt><trkpt lat="42.2437507" lon="12.2955822"><ele>238.0</ele><time>2026-04-30T14:18:52.983Z</time></trkpt><trkpt lat="42.2439435" lon="12.2954167"><ele>237.66666666666666</ele><time>2026-04-30T14:18:53.982Z</time></trkpt><trkpt lat="42.2441301" lon="12.2952502"><ele>237.33333333333331</ele><time>2026-04-30T14:18:54.983Z</time></trkpt><trkpt lat="42.2443199" lon="12.2950869"><ele>237.0</ele><time>2026-04-30T14:18:55.982Z</time></trkpt><trkpt lat="42.2444972" lon="12.2949314"><ele>237.0</ele><time>2026-04-30T14:18:56.982Z</time></trkpt><trkpt lat="42.2446669" lon="12.2947889"><ele>237.0</ele><time>2026-04-30T14:18:57.983Z</time></trkpt><trkpt lat="42.2448354" lon="12.2946459"><ele>237.0</ele><time>2026-04-30T14:18:58.983Z</time></trkpt><trkpt lat="42.2450044" lon="12.294503"><ele>237.33333333333331</ele><time>2026-04-30T14:18:59.982Z</time></trkpt><trkpt lat="42.2451715" lon="12.2943614"><ele>237.66666666666666</ele><time>2026-04-30T14:19:00.982Z</time></trkpt><trkpt lat="42.2453372" lon="12.2942212"><ele>238.0</ele><time>2026-04-30T14:19:01.982Z</time></trkpt><trkpt lat="42.2455034" lon="12.2940837"><ele>238.66666666666666</ele><time>2026-04-30T14:19:02.982Z</time></trkpt><trkpt lat="42.2456817" lon="12.2939376"><ele>239.33333333333331</ele><time>2026-04-30T14:19:03.983Z</time></trkpt><trkpt lat="42.2458658" lon="12.2937867"><ele>240.0</ele><time>2026-04-30T14:19:04.982Z</time></trkpt><trkpt lat="42.2460608" lon="12.2936356"><ele>240.0</ele><time>2026-04-30T14:19:05.982Z</time></trkpt><trkpt lat="42.2462562" lon="12.2934771"><ele>240.0</ele><time>2026-04-30T14:19:06.983Z</time></trkpt><trkpt lat="42.2464572" lon="12.2933127"><ele>242.0</ele><time>2026-04-30T14:19:07.982Z</time></trkpt><trkpt lat="42.2466533" lon="12.2931381"><ele>244.0</ele><time>2026-04-30T14:19:08.982Z</time></trkpt><trkpt lat="42.2468445" lon="12.2929718"><ele>244.33333333333331</ele><time>2026-04-30T14:19:09.983Z</time></trkpt><trkpt lat="42.2470308" lon="12.2928204"><ele>244.66666666666669</ele><time>2026-04-30T14:19:10.982Z</time></trkpt><trkpt lat="42.2472165" lon="12.292682"><ele>245.0</ele><time>2026-04-30T14:19:11.982Z</time></trkpt><trkpt lat="42.247396" lon="12.2925533"><ele>245.33333333333334</ele><time>2026-04-30T14:19:12.983Z</time></trkpt><trkpt lat="42.2475659" lon="12.2924338"><ele>245.66666666666669</ele><time>2026-04-30T14:19:13.982Z</time></trkpt><trkpt lat="42.247743" lon="12.2923129"><ele>246.0</ele><time>2026-04-30T14:19:14.982Z</time></trkpt><trkpt lat="42.2479255" lon="12.2921969"><ele>246.0</ele><time>2026-04-30T14:19:15.982Z</time></trkpt><trkpt lat="42.2481226" lon="12.2920871"><ele>246.0</ele><time>2026-04-30T14:19:16.983Z</time></trkpt><trkpt lat="42.2483283" lon="12.291976"><ele>246.0</ele><time>2026-04-30T14:19:17.982Z</time></trkpt><trkpt lat="42.2485334" lon="12.2918673"><ele>247.0</ele><time>2026-04-30T14:19:18.982Z</time></trkpt><trkpt lat="42.2487417" lon="12.2917546"><ele>248.0</ele><time>2026-04-30T14:19:19.982Z</time></trkpt><trkpt lat="42.248953" lon="12.2916426"><ele>248.0</ele><time>2026-04-30T14:19:20.982Z</time></trkpt><trkpt lat="42.2491671" lon="12.2915262"><ele>248.0</ele><time>2026-04-30T14:19:21.982Z</time></trkpt><trkpt lat="42.2493761" lon="12.2914195"><ele>248.0</ele><time>2026-04-30T14:19:22.983Z</time></trkpt><trkpt lat="42.2495835" lon="12.2913167"><ele>248.0</ele><time>2026-04-30T14:19:23.982Z</time></trkpt><trkpt lat="42.249792" lon="12.2912001"><ele>248.0</ele><time>2026-04-30T14:19:24.982Z</time></trkpt><trkpt lat="42.2500063" lon="12.2910642"><ele>249.0</ele><time>2026-04-30T14:19:25.983Z</time></trkpt><trkpt lat="42.250213" lon="12.290902"><ele>250.0</ele><time>2026-04-30T14:19:26.982Z</time></trkpt><trkpt lat="42.2504158" lon="12.2907109"><ele>249.5</ele><time>2026-04-30T14:19:27.982Z</time></trkpt><trkpt lat="42.2506075" lon="12.2905085"><ele>249.0</ele><time>2026-04-30T14:19:28.982Z</time></trkpt><trkpt lat="42.2507959" lon="12.2902912"><ele>250.0</ele><time>2026-04-30T14:19:29.982Z</time></trkpt><trkpt lat="42.2509734" lon="12.2900683"><ele>251.0</ele><time>2026-04-30T14:19:30.982Z</time></trkpt><trkpt lat="42.2511406" lon="12.289833"><ele>250.0</ele><time>2026-04-30T14:19:31.983Z</time></trkpt><trkpt lat="42.2512958" lon="12.289588"><ele>249.0</ele><time>2026-04-30T14:19:32.982Z</time></trkpt><trkpt lat="42.2514464" lon="12.2893362"><ele>250.0</ele><time>2026-04-30T14:19:33.982Z</time></trkpt><trkpt lat="42.251592" lon="12.28908"><ele>251.0</ele><time>2026-04-30T14:19:34.982Z</time></trkpt><trkpt lat="42.2517266" lon="12.2888383"><ele>251.33333333333334</ele><time>2026-04-30T14:19:35.982Z</time></trkpt><trkpt lat="42.2518538" lon="12.2886035"><ele>251.66666666666669</ele><time>2026-04-30T14:19:36.982Z</time></trkpt><trkpt lat="42.2519782" lon="12.2883654"><ele>252.0</ele><time>2026-04-30T14:19:37.982Z</time></trkpt><trkpt lat="42.252091" lon="12.2881262"><ele>252.0</ele><time>2026-04-30T14:19:38.982Z</time></trkpt><trkpt lat="42.2521908" lon="12.2878867"><ele>252.0</ele><time>2026-04-30T14:19:39.982Z</time></trkpt><trkpt lat="42.2522704" lon="12.2876436"><ele>252.0</ele><time>2026-04-30T14:19:40.982Z</time></trkpt><trkpt lat="42.2523442" lon="12.2873931"><ele>252.33333333333331</ele><time>2026-04-30T14:19:41.982Z</time></trkpt><trkpt lat="42.2524275" lon="12.2871397"><ele>252.66666666666666</ele><time>2026-04-30T14:19:42.983Z</time></trkpt><trkpt lat="42.2525093" lon="12.286885"><ele>253.0</ele><time>2026-04-30T14:19:43.983Z</time></trkpt><trkpt lat="42.2526057" lon="12.2866364"><ele>253.33333333333331</ele><time>2026-04-30T14:19:44.982Z</time></trkpt><trkpt lat="42.252721" lon="12.2863916"><ele>253.66666666666669</ele><time>2026-04-30T14:19:45.983Z</time></trkpt><trkpt lat="42.2528499" lon="12.2861398"><ele>254.0</ele><time>2026-04-30T14:19:46.982Z</time></trkpt><trkpt lat="42.2529856" lon="12.2858791"><ele>254.0</ele><time>2026-04-30T14:19:47.982Z</time></trkpt><trkpt lat="42.2531235" lon="12.2856089"><ele>254.0</ele><time>2026-04-30T14:19:48.983Z</time></trkpt><trkpt lat="42.2532654" lon="12.2853266"><ele>254.5</ele><time>2026-04-30T14:19:49.982Z</time></trkpt><trkpt lat="42.2534114" lon="12.2850392"><ele>255.0</ele><time>2026-04-30T14:19:50.982Z</time></trkpt><trkpt lat="42.253557" lon="12.2847394"><ele>254.0</ele><time>2026-04-30T14:19:51.982Z</time></trkpt><trkpt lat="42.2537037" lon="12.2844305"><ele>253.0</ele><time>2026-04-30T14:19:52.982Z</time></trkpt><trkpt lat="42.2538464" lon="12.2841258"><ele>253.5</ele><time>2026-04-30T14:19:53.982Z</time></trkpt><trkpt lat="42.2539847" lon="12.2838188"><ele>254.0</ele><time>2026-04-30T14:19:54.982Z</time></trkpt><trkpt lat="42.2541266" lon="12.2835162"><ele>254.0</ele><time>2026-04-30T14:19:55.982Z</time></trkpt><trkpt lat="42.2542685" lon="12.2832067"><ele>254.0</ele><time>2026-04-30T14:19:56.982Z</time></trkpt><trkpt lat="42.2544104" lon="12.2828989"><ele>254.0</ele><time>2026-04-30T14:19:57.983Z</time></trkpt><trkpt lat="42.2545533" lon="12.2825907"><ele>254.0</ele><time>2026-04-30T14:19:58.982Z</time></trkpt><trkpt lat="42.2546917" lon="12.2822763"><ele>255.5</ele><time>2026-04-30T14:19:59.982Z</time></trkpt><trkpt lat="42.2548337" lon="12.2819637"><ele>257.0</ele><time>2026-04-30T14:20:00.983Z</time></trkpt><trkpt lat="42.2549719" lon="12.281653"><ele>257.5</ele><time>2026-04-30T14:20:01.982Z</time></trkpt><trkpt lat="42.2551139" lon="12.2813455"><ele>258.0</ele><time>2026-04-30T14:20:02.982Z</time></trkpt><trkpt lat="42.2552563" lon="12.2810439"><ele>258.0</ele><time>2026-04-30T14:20:03.982Z</time></trkpt><trkpt lat="42.2554005" lon="12.2807349"><ele>258.0</ele><time>2026-04-30T14:20:04.982Z</time></trkpt><trkpt lat="42.2555434" lon="12.2804274"><ele>258.0</ele><time>2026-04-30T14:20:05.983Z</time></trkpt><trkpt lat="42.2556873" lon="12.2801245"><ele>258.0</ele><time>2026-04-30T14:20:06.982Z</time></trkpt><trkpt lat="42.2558273" lon="12.2798219"><ele>258.0</ele><time>2026-04-30T14:20:07.982Z</time></trkpt><trkpt lat="42.255969" lon="12.2795343"><ele>258.0</ele><time>2026-04-30T14:20:08.983Z</time></trkpt><trkpt lat="42.2561097" lon="12.2792474"><ele>258.0</ele><time>2026-04-30T14:20:09.982Z</time></trkpt><trkpt lat="42.2562504" lon="12.2789658"><ele>258.0</ele><time>2026-04-30T14:20:10.983Z</time></trkpt><trkpt lat="42.2563879" lon="12.2786815"><ele>259.0</ele><time>2026-04-30T14:20:11.982Z</time></trkpt><trkpt lat="42.2565239" lon="12.2783976"><ele>260.0</ele><time>2026-04-30T14:20:12.982Z</time></trkpt><trkpt lat="42.2566578" lon="12.2781193"><ele>260.0</ele><time>2026-04-30T14:20:13.983Z</time></trkpt><trkpt lat="42.2567908" lon="12.2778455"><ele>260.0</ele><time>2026-04-30T14:20:14.982Z</time></trkpt><trkpt lat="42.2569229" lon="12.2775724"><ele>260.0</ele><time>2026-04-30T14:20:15.982Z</time></trkpt><trkpt lat="42.2570452" lon="12.277299"><ele>260.0</ele><time>2026-04-30T14:20:16.982Z</time></trkpt><trkpt lat="42.2571674" lon="12.2770107"><ele>260.5</ele><time>2026-04-30T14:20:17.982Z</time></trkpt><trkpt lat="42.2572859" lon="12.2767166"><ele>261.0</ele><time>2026-04-30T14:20:18.982Z</time></trkpt><trkpt lat="42.2574068" lon="12.2764102"><ele>262.0</ele><time>2026-04-30T14:20:19.982Z</time></trkpt><trkpt lat="42.2575267" lon="12.276101"><ele>263.0</ele><time>2026-04-30T14:20:20.981Z</time></trkpt><trkpt lat="42.2576511" lon="12.2757821"><ele>262.5</ele><time>2026-04-30T14:20:21.981Z</time></trkpt><trkpt lat="42.2577874" lon="12.2754655"><ele>262.0</ele><time>2026-04-30T14:20:22.982Z</time></trkpt><trkpt lat="42.2579282" lon="12.2751571"><ele>262.0</ele><time>2026-04-30T14:20:23.981Z</time></trkpt><trkpt lat="42.2580709" lon="12.2748558"><ele>262.0</ele><time>2026-04-30T14:20:24.981Z</time></trkpt><trkpt lat="42.2582084" lon="12.2745522"><ele>261.5</ele><time>2026-04-30T14:20:25.981Z</time></trkpt><trkpt lat="42.2583438" lon="12.2742511"><ele>261.0</ele><time>2026-04-30T14:20:26.981Z</time></trkpt><trkpt lat="42.2584772" lon="12.2739514"><ele>262.5</ele><time>2026-04-30T14:20:27.981Z</time></trkpt><trkpt lat="42.2586071" lon="12.2736514"><ele>264.0</ele><time>2026-04-30T14:20:28.981Z</time></trkpt><trkpt lat="42.2587447" lon="12.2733548"><ele>264.5</ele><time>2026-04-30T14:20:29.981Z</time></trkpt><trkpt lat="42.2588815" lon="12.273055"><ele>265.0</ele><time>2026-04-30T14:20:30.981Z</time></trkpt><trkpt lat="42.2590183" lon="12.2727531"><ele>265.0</ele><time>2026-04-30T14:20:31.981Z</time></trkpt><trkpt lat="42.2591483" lon="12.2724555"><ele>265.0</ele><time>2026-04-30T14:20:32.982Z</time></trkpt><trkpt lat="42.2592805" lon="12.2721529"><ele>266.0</ele><time>2026-04-30T14:20:33.982Z</time></trkpt><trkpt lat="42.2594138" lon="12.2718503"><ele>267.0</ele><time>2026-04-30T14:20:34.981Z</time></trkpt><trkpt lat="42.2595463" lon="12.2715482"><ele>266.5</ele><time>2026-04-30T14:20:35.982Z</time></trkpt><trkpt lat="42.2596822" lon="12.2712524"><ele>266.0</ele><time>2026-04-30T14:20:36.982Z</time></trkpt><trkpt lat="42.2598207" lon="12.2709518"><ele>267.0</ele><time>2026-04-30T14:20:37.981Z</time></trkpt><trkpt lat="42.2599522" lon="12.2706538"><ele>268.0</ele><time>2026-04-30T14:20:38.982Z</time></trkpt><trkpt lat="42.2600795" lon="12.2703557"><ele>268.5</ele><time>2026-04-30T14:20:39.982Z</time></trkpt><trkpt lat="42.2602" lon="12.2700711"><ele>269.0</ele><time>2026-04-30T14:20:40.982Z</time></trkpt><trkpt lat="42.2603048" lon="12.2697963"><ele>268.6666666666667</ele><time>2026-04-30T14:20:41.981Z</time></trkpt><trkpt lat="42.260401" lon="12.2695367"><ele>268.3333333333333</ele><time>2026-04-30T14:20:42.981Z</time></trkpt><trkpt lat="42.2604948" lon="12.2692837"><ele>268.0</ele><time>2026-04-30T14:20:43.981Z</time></trkpt><trkpt lat="42.2605773" lon="12.2690391"><ele>268.3333333333333</ele><time>2026-04-30T14:20:44.981Z</time></trkpt><trkpt lat="42.2606624" lon="12.2687924"><ele>268.6666666666667</ele><time>2026-04-30T14:20:45.981Z</time></trkpt><trkpt lat="42.2607484" lon="12.2685439"><ele>269.0</ele><time>2026-04-30T14:20:46.981Z</time></trkpt><trkpt lat="42.2608376" lon="12.2682841"><ele>269.0</ele><time>2026-04-30T14:20:47.981Z</time></trkpt><trkpt lat="42.2609269" lon="12.2680313"><ele>269.0</ele><time>2026-04-30T14:20:48.981Z</time></trkpt><trkpt lat="42.2610244" lon="12.2677614"><ele>269.0</ele><time>2026-04-30T14:20:49.981Z</time></trkpt><trkpt lat="42.2611357" lon="12.267479"><ele>269.5</ele><time>2026-04-30T14:20:50.981Z</time></trkpt><trkpt lat="42.2612609" lon="12.2671946"><ele>270.0</ele><time>2026-04-30T14:20:51.982Z</time></trkpt><trkpt lat="42.2613948" lon="12.2669103"><ele>270.5</ele><time>2026-04-30T14:20:52.981Z</time></trkpt><trkpt lat="42.2615376" lon="12.266618"><ele>271.0</ele><time>2026-04-30T14:20:53.981Z</time></trkpt><trkpt lat="42.2616828" lon="12.2663211"><ele>272.0</ele><time>2026-04-30T14:20:54.982Z</time></trkpt><trkpt lat="42.2618294" lon="12.2660206"><ele>273.0</ele><time>2026-04-30T14:20:55.981Z</time></trkpt><trkpt lat="42.2619763" lon="12.2657269"><ele>273.0</ele><time>2026-04-30T14:20:56.981Z</time></trkpt><trkpt lat="42.2621274" lon="12.2654364"><ele>273.0</ele><time>2026-04-30T14:20:57.981Z</time></trkpt><trkpt lat="42.2622726" lon="12.2651473"><ele>274.0</ele><time>2026-04-30T14:20:58.982Z</time></trkpt><trkpt lat="42.2624022" lon="12.2648675"><ele>275.0</ele><time>2026-04-30T14:20:59.981Z</time></trkpt><trkpt lat="42.262526" lon="12.2645855"><ele>275.5</ele><time>2026-04-30T14:21:00.982Z</time></trkpt><trkpt lat="42.262664" lon="12.2643057"><ele>276.0</ele><time>2026-04-30T14:21:01.982Z</time></trkpt><trkpt lat="42.2628018" lon="12.264033"><ele>276.5</ele><time>2026-04-30T14:21:02.981Z</time></trkpt><trkpt lat="42.2629495" lon="12.2637672"><ele>277.0</ele><time>2026-04-30T14:21:03.981Z</time></trkpt><trkpt lat="42.2631171" lon="12.2635225"><ele>278.0</ele><time>2026-04-30T14:21:04.981Z</time></trkpt><trkpt lat="42.2632988" lon="12.263284"><ele>279.0</ele><time>2026-04-30T14:21:05.981Z</time></trkpt><trkpt lat="42.2634846" lon="12.2630448"><ele>279.5</ele><time>2026-04-30T14:21:06.981Z</time></trkpt><trkpt lat="42.2636594" lon="12.2627922"><ele>280.0</ele><time>2026-04-30T14:21:07.981Z</time></trkpt><trkpt lat="42.2638258" lon="12.262529"><ele>280.0</ele><time>2026-04-30T14:21:08.982Z</time></trkpt><trkpt lat="42.2639768" lon="12.262268"><ele>280.0</ele><time>2026-04-30T14:21:09.982Z</time></trkpt><trkpt lat="42.2641244" lon="12.2620068"><ele>280.0</ele><time>2026-04-30T14:21:10.981Z</time></trkpt><trkpt lat="42.2642786" lon="12.2617506"><ele>280.0</ele><time>2026-04-30T14:21:11.982Z</time></trkpt><trkpt lat="42.2644317" lon="12.2615025"><ele>280.3333333333333</ele><time>2026-04-30T14:21:12.982Z</time></trkpt><trkpt lat="42.2645764" lon="12.2612722"><ele>280.6666666666667</ele><time>2026-04-30T14:21:13.981Z</time></trkpt><trkpt lat="42.264706" lon="12.261065"><ele>281.0</ele><time>2026-04-30T14:21:14.982Z</time></trkpt><trkpt lat="42.2648286" lon="12.26088"><ele>281.6666666666667</ele><time>2026-04-30T14:21:15.981Z</time></trkpt><trkpt lat="42.2649446" lon="12.2607004"><ele>282.3333333333333</ele><time>2026-04-30T14:21:16.982Z</time></trkpt><trkpt lat="42.2650513" lon="12.2604978"><ele>283.0</ele><time>2026-04-30T14:21:17.981Z</time></trkpt><trkpt lat="42.2651445" lon="12.260254"><ele>283.0</ele><time>2026-04-30T14:21:18.981Z</time></trkpt><trkpt lat="42.2652312" lon="12.2599779"><ele>283.0</ele><time>2026-04-30T14:21:19.981Z</time></trkpt><trkpt lat="42.265315" lon="12.2596919"><ele>283.0</ele><time>2026-04-30T14:21:20.981Z</time></trkpt><trkpt lat="42.2654043" lon="12.2594074"><ele>283.0</ele><time>2026-04-30T14:21:21.982Z</time></trkpt><trkpt lat="42.2654986" lon="12.259115"><ele>284.5</ele><time>2026-04-30T14:21:22.981Z</time></trkpt><trkpt lat="42.2656054" lon="12.2588269"><ele>286.0</ele><time>2026-04-30T14:21:23.981Z</time></trkpt><trkpt lat="42.265727" lon="12.2585533"><ele>286.5</ele><time>2026-04-30T14:21:24.982Z</time></trkpt><trkpt lat="42.2658624" lon="12.2582951"><ele>287.0</ele><time>2026-04-30T14:21:25.981Z</time></trkpt><trkpt lat="42.2660053" lon="12.2580532"><ele>287.0</ele><time>2026-04-30T14:21:26.981Z</time></trkpt><trkpt lat="42.2661599" lon="12.2578175"><ele>287.0</ele><time>2026-04-30T14:21:27.981Z</time></trkpt><trkpt lat="42.2663154" lon="12.2575819"><ele>287.0</ele><time>2026-04-30T14:21:28.981Z</time></trkpt><trkpt lat="42.2664721" lon="12.257351"><ele>287.0</ele><time>2026-04-30T14:21:29.981Z</time></trkpt><trkpt lat="42.2666288" lon="12.2571162"><ele>288.5</ele><time>2026-04-30T14:21:30.981Z</time></trkpt><trkpt lat="42.2667933" lon="12.2568838"><ele>290.0</ele><time>2026-04-30T14:21:31.982Z</time></trkpt><trkpt lat="42.2669511" lon="12.2566485"><ele>292.5</ele><time>2026-04-30T14:21:32.982Z</time></trkpt><trkpt lat="42.267102" lon="12.2564036"><ele>295.0</ele><time>2026-04-30T14:21:33.982Z</time></trkpt><trkpt lat="42.2672506" lon="12.2561538"><ele>292.0</ele><time>2026-04-30T14:21:34.981Z</time></trkpt><trkpt lat="42.2674056" lon="12.2559062"><ele>289.0</ele><time>2026-04-30T14:21:35.981Z</time></trkpt><trkpt lat="42.2675563" lon="12.255661"><ele>291.0</ele><time>2026-04-30T14:21:36.982Z</time></trkpt><trkpt lat="42.2677127" lon="12.2554116"><ele>293.0</ele><time>2026-04-30T14:21:37.982Z</time></trkpt><trkpt lat="42.2678554" lon="12.2551648"><ele>293.0</ele><time>2026-04-30T14:21:38.981Z</time></trkpt><trkpt lat="42.267997" lon="12.2549121"><ele>293.0</ele><time>2026-04-30T14:21:39.981Z</time></trkpt><trkpt lat="42.2681349" lon="12.2546577"><ele>293.0</ele><time>2026-04-30T14:21:40.982Z</time></trkpt><trkpt lat="42.2682691" lon="12.2544007"><ele>293.0</ele><time>2026-04-30T14:21:41.981Z</time></trkpt><trkpt lat="42.2683936" lon="12.2541387"><ele>295.5</ele><time>2026-04-30T14:21:42.982Z</time></trkpt><trkpt lat="42.2685195" lon="12.2538831"><ele>298.0</ele><time>2026-04-30T14:21:43.981Z</time></trkpt><trkpt lat="42.2686394" lon="12.2536281"><ele>298.0</ele><time>2026-04-30T14:21:44.981Z</time></trkpt><trkpt lat="42.2687643" lon="12.253363"><ele>298.0</ele><time>2026-04-30T14:21:45.981Z</time></trkpt><trkpt lat="42.2688871" lon="12.2530903"><ele>297.5</ele><time>2026-04-30T14:21:46.981Z</time></trkpt><trkpt lat="42.2690162" lon="12.2528259"><ele>297.0</ele><time>2026-04-30T14:21:47.981Z</time></trkpt><trkpt lat="42.2691398" lon="12.2525494"><ele>299.0</ele><time>2026-04-30T14:21:48.981Z</time></trkpt><trkpt lat="42.2692662" lon="12.2522721"><ele>301.0</ele><time>2026-04-30T14:21:49.982Z</time></trkpt><trkpt lat="42.269396" lon="12.2519936"><ele>301.0</ele><time>2026-04-30T14:21:50.981Z</time></trkpt><trkpt lat="42.2695251" lon="12.2517187"><ele>301.0</ele><time>2026-04-30T14:21:51.981Z</time></trkpt><trkpt lat="42.269658" lon="12.25144"><ele>302.0</ele><time>2026-04-30T14:21:52.981Z</time></trkpt><trkpt lat="42.2697926" lon="12.2511595"><ele>303.0</ele><time>2026-04-30T14:21:53.981Z</time></trkpt><trkpt lat="42.2699309" lon="12.2508823"><ele>305.0</ele><time>2026-04-30T14:21:54.981Z</time></trkpt><trkpt lat="42.2700665" lon="12.2506104"><ele>307.0</ele><time>2026-04-30T14:21:55.981Z</time></trkpt><trkpt lat="42.2701999" lon="12.2503426"><ele>307.0</ele><time>2026-04-30T14:21:56.981Z</time></trkpt><trkpt lat="42.2703241" lon="12.2500762"><ele>307.0</ele><time>2026-04-30T14:21:57.981Z</time></trkpt><trkpt lat="42.2704521" lon="12.2498117"><ele>307.66666666666663</ele><time>2026-04-30T14:21:58.981Z</time></trkpt><trkpt lat="42.2705768" lon="12.2495571"><ele>308.3333333333333</ele><time>2026-04-30T14:21:59.981Z</time></trkpt><trkpt lat="42.2707042" lon="12.2493138"><ele>309.0</ele><time>2026-04-30T14:22:00.981Z</time></trkpt><trkpt lat="42.2708299" lon="12.2490922"><ele>311.6666666666667</ele><time>2026-04-30T14:22:01.981Z</time></trkpt><trkpt lat="42.2709537" lon="12.248871"><ele>314.33333333333337</ele><time>2026-04-30T14:22:02.981Z</time></trkpt><trkpt lat="42.2710707" lon="12.2486394"><ele>317.0</ele><time>2026-04-30T14:22:03.981Z</time></trkpt><trkpt lat="42.271174" lon="12.2484001"><ele>317.0</ele><time>2026-04-30T14:22:04.982Z</time></trkpt><trkpt lat="42.2712554" lon="12.2481518"><ele>317.0</ele><time>2026-04-30T14:22:05.981Z</time></trkpt><trkpt lat="42.271322" lon="12.247883"><ele>317.0</ele><time>2026-04-30T14:22:06.981Z</time></trkpt><trkpt lat="42.2713857" lon="12.2476024"><ele>317.33333333333337</ele><time>2026-04-30T14:22:07.981Z</time></trkpt><trkpt lat="42.2714479" lon="12.2473251"><ele>317.6666666666667</ele><time>2026-04-30T14:22:08.981Z</time></trkpt><trkpt lat="42.2715177" lon="12.2470381"><ele>318.0</ele><time>2026-04-30T14:22:09.981Z</time></trkpt><trkpt lat="42.2715869" lon="12.246756"><ele>319.0</ele><time>2026-04-30T14:22:10.981Z</time></trkpt><trkpt lat="42.2716483" lon="12.2464712"><ele>320.0</ele><time>2026-04-30T14:22:11.981Z</time></trkpt><trkpt lat="42.2716861" lon="12.2461709"><ele>321.0</ele><time>2026-04-30T14:22:12.982Z</time></trkpt><trkpt lat="42.2717062" lon="12.2458483"><ele>321.0</ele><time>2026-04-30T14:22:13.981Z</time></trkpt><trkpt lat="42.2717203" lon="12.2455166"><ele>321.0</ele><time>2026-04-30T14:22:14.981Z</time></trkpt><trkpt lat="42.2717456" lon="12.2451936"><ele>321.0</ele><time>2026-04-30T14:22:15.981Z</time></trkpt><trkpt lat="42.2717853" lon="12.24488"><ele>321.0</ele><time>2026-04-30T14:22:16.981Z</time></trkpt><trkpt lat="42.2718282" lon="12.2445693"><ele>321.5</ele><time>2026-04-30T14:22:17.982Z</time></trkpt><trkpt lat="42.2718534" lon="12.2442538"><ele>322.0</ele><time>2026-04-30T14:22:18.981Z</time></trkpt><trkpt lat="42.271843" lon="12.2439338"><ele>323.5</ele><time>2026-04-30T14:22:19.981Z</time></trkpt><trkpt lat="42.2718004" lon="12.2436072"><ele>325.0</ele><time>2026-04-30T14:22:20.981Z</time></trkpt><trkpt lat="42.2717582" lon="12.2432829"><ele>326.0</ele><time>2026-04-30T14:22:21.981Z</time></trkpt><trkpt lat="42.2717274" lon="12.242959"><ele>327.0</ele><time>2026-04-30T14:22:22.981Z</time></trkpt><trkpt lat="42.2717185" lon="12.2426288"><ele>327.5</ele><time>2026-04-30T14:22:23.981Z</time></trkpt><trkpt lat="42.2717398" lon="12.2422868"><ele>328.0</ele><time>2026-04-30T14:22:24.981Z</time></trkpt><trkpt lat="42.2717788" lon="12.2419425"><ele>328.0</ele><time>2026-04-30T14:22:25.981Z</time></trkpt><trkpt lat="42.2718323" lon="12.2416029"><ele>328.0</ele><time>2026-04-30T14:22:26.982Z</time></trkpt><trkpt lat="42.2719046" lon="12.241268"><ele>329.0</ele><time>2026-04-30T14:22:27.981Z</time></trkpt><trkpt lat="42.2719744" lon="12.240926"><ele>330.0</ele><time>2026-04-30T14:22:28.982Z</time></trkpt><trkpt lat="42.2720552" lon="12.2405841"><ele>330.5</ele><time>2026-04-30T14:22:29.982Z</time></trkpt><trkpt lat="42.2721277" lon="12.2402467"><ele>331.0</ele><time>2026-04-30T14:22:30.982Z</time></trkpt><trkpt lat="42.2722048" lon="12.2399144"><ele>335.5</ele><time>2026-04-30T14:22:31.981Z</time></trkpt><trkpt lat="42.2722997" lon="12.2395836"><ele>340.0</ele><time>2026-04-30T14:22:32.982Z</time></trkpt><trkpt lat="42.2723768" lon="12.2392518"><ele>340.5</ele><time>2026-04-30T14:22:33.981Z</time></trkpt><trkpt lat="42.2724551" lon="12.2389191"><ele>341.0</ele><time>2026-04-30T14:22:34.982Z</time></trkpt><trkpt lat="42.272538" lon="12.2385917"><ele>341.0</ele><time>2026-04-30T14:22:35.981Z</time></trkpt><trkpt lat="42.2726312" lon="12.2382626"><ele>341.0</ele><time>2026-04-30T14:22:36.981Z</time></trkpt><trkpt lat="42.2727193" lon="12.237931"><ele>341.5</ele><time>2026-04-30T14:22:37.981Z</time></trkpt><trkpt lat="42.2727939" lon="12.2376058"><ele>342.0</ele><time>2026-04-30T14:22:38.981Z</time></trkpt><trkpt lat="42.2728585" lon="12.2372834"><ele>342.5</ele><time>2026-04-30T14:22:39.981Z</time></trkpt><trkpt lat="42.2729322" lon="12.2369661"><ele>343.0</ele><time>2026-04-30T14:22:40.982Z</time></trkpt><trkpt lat="42.272999" lon="12.2366676"><ele>346.0</ele><time>2026-04-30T14:22:41.981Z</time></trkpt><trkpt lat="42.273071" lon="12.2363916"><ele>349.0</ele><time>2026-04-30T14:22:42.981Z</time></trkpt><trkpt lat="42.2731365" lon="12.2361418"><ele>352.0</ele><time>2026-04-30T14:22:43.981Z</time></trkpt><trkpt lat="42.2732018" lon="12.2359119"><ele>352.0</ele><time>2026-04-30T14:22:44.981Z</time></trkpt><trkpt lat="42.2733018" lon="12.2357026"><ele>352.0</ele><time>2026-04-30T14:22:45.981Z</time></trkpt><trkpt lat="42.2734341" lon="12.235507"><ele>352.0</ele><time>2026-04-30T14:22:46.982Z</time></trkpt><trkpt lat="42.2735989" lon="12.2353162"><ele>353.0</ele><time>2026-04-30T14:22:47.982Z</time></trkpt><trkpt lat="42.2737621" lon="12.2351334"><ele>354.0</ele><time>2026-04-30T14:22:48.981Z</time></trkpt><trkpt lat="42.2739473" lon="12.2349308"><ele>354.5</ele><time>2026-04-30T14:22:49.981Z</time></trkpt><trkpt lat="42.2741404" lon="12.2347231"><ele>355.0</ele><time>2026-04-30T14:22:50.981Z</time></trkpt><trkpt lat="42.2743401" lon="12.2345023"><ele>355.0</ele><time>2026-04-30T14:22:51.982Z</time></trkpt><trkpt lat="42.2745318" lon="12.2342786"><ele>355.0</ele><time>2026-04-30T14:22:52.981Z</time></trkpt><trkpt lat="42.2747183" lon="12.2340574"><ele>356.5</ele><time>2026-04-30T14:22:53.982Z</time></trkpt><trkpt lat="42.2748957" lon="12.2338297"><ele>358.0</ele><time>2026-04-30T14:22:54.982Z</time></trkpt><trkpt lat="42.2750752" lon="12.2336013"><ele>358.0</ele><time>2026-04-30T14:22:55.981Z</time></trkpt><trkpt lat="42.2752637" lon="12.2333736"><ele>358.0</ele><time>2026-04-30T14:22:56.981Z</time></trkpt><trkpt lat="42.2754618" lon="12.2331505"><ele>359.5</ele><time>2026-04-30T14:22:57.981Z</time></trkpt><trkpt lat="42.2756576" lon="12.2329256"><ele>361.0</ele><time>2026-04-30T14:22:58.982Z</time></trkpt><trkpt lat="42.2758444" lon="12.2326932"><ele>361.0</ele><time>2026-04-30T14:22:59.981Z</time></trkpt><trkpt lat="42.2760239" lon="12.2324576"><ele>361.0</ele><time>2026-04-30T14:23:00.981Z</time></trkpt><trkpt lat="42.2762114" lon="12.2322262"><ele>362.0</ele><time>2026-04-30T14:23:01.981Z</time></trkpt><trkpt lat="42.2764049" lon="12.2319996"><ele>363.0</ele><time>2026-04-30T14:23:02.981Z</time></trkpt><trkpt lat="42.2765986" lon="12.2317729"><ele>364.0</ele><time>2026-04-30T14:23:03.982Z</time></trkpt><trkpt lat="42.2767934" lon="12.2315442"><ele>365.0</ele><time>2026-04-30T14:23:04.981Z</time></trkpt><trkpt lat="42.2769886" lon="12.2313091"><ele>365.0</ele><time>2026-04-30T14:23:05.982Z</time></trkpt><trkpt lat="42.2771902" lon="12.231065"><ele>365.0</ele><time>2026-04-30T14:23:06.982Z</time></trkpt><trkpt lat="42.2773875" lon="12.2308167"><ele>368.5</ele><time>2026-04-30T14:23:07.981Z</time></trkpt><trkpt lat="42.2775887" lon="12.2305617"><ele>372.0</ele><time>2026-04-30T14:23:08.981Z</time></trkpt><trkpt lat="42.2777888" lon="12.2303111"><ele>372.0</ele><time>2026-04-30T14:23:09.981Z</time></trkpt><trkpt lat="42.2779857" lon="12.2300618"><ele>372.0</ele><time>2026-04-30T14:23:10.981Z</time></trkpt><trkpt lat="42.2781864" lon="12.2298239"><ele>374.5</ele><time>2026-04-30T14:23:11.981Z</time></trkpt><trkpt lat="42.2783721" lon="12.2295977"><ele>377.0</ele><time>2026-04-30T14:23:12.982Z</time></trkpt><trkpt lat="42.2785435" lon="12.2293634"><ele>377.0</ele><time>2026-04-30T14:23:13.981Z</time></trkpt><trkpt lat="42.2786985" lon="12.2291054"><ele>377.0</ele><time>2026-04-30T14:23:14.981Z</time></trkpt><trkpt lat="42.2788346" lon="12.2288149"><ele>377.5</ele><time>2026-04-30T14:23:15.981Z</time></trkpt><trkpt lat="42.278967" lon="12.228512"><ele>378.0</ele><time>2026-04-30T14:23:16.981Z</time></trkpt><trkpt lat="42.2790816" lon="12.2282166"><ele>378.6666666666667</ele><time>2026-04-30T14:23:17.981Z</time></trkpt><trkpt lat="42.2791781" lon="12.227943"><ele>379.33333333333337</ele><time>2026-04-30T14:23:18.981Z</time></trkpt><trkpt lat="42.2792689" lon="12.2276867"><ele>380.0</ele><time>2026-04-30T14:23:19.981Z</time></trkpt><trkpt lat="42.2793733" lon="12.2274389"><ele>381.33333333333337</ele><time>2026-04-30T14:23:20.981Z</time></trkpt><trkpt lat="42.2794811" lon="12.227194"><ele>382.6666666666667</ele><time>2026-04-30T14:23:21.982Z</time></trkpt><trkpt lat="42.2795939" lon="12.2269554"><ele>384.0</ele><time>2026-04-30T14:23:22.981Z</time></trkpt><trkpt lat="42.2796939" lon="12.226722"><ele>383.6666666666667</ele><time>2026-04-30T14:23:23.982Z</time></trkpt><trkpt lat="42.2797949" lon="12.2264897"><ele>383.33333333333337</ele><time>2026-04-30T14:23:24.981Z</time></trkpt><trkpt lat="42.2798937" lon="12.2262599"><ele>383.0</ele><time>2026-04-30T14:23:25.981Z</time></trkpt><trkpt lat="42.2799883" lon="12.2260288"><ele>383.0</ele><time>2026-04-30T14:23:26.982Z</time></trkpt><trkpt lat="42.2800882" lon="12.2257913"><ele>383.0</ele><time>2026-04-30T14:23:27.981Z</time></trkpt><trkpt lat="42.2801906" lon="12.2255431"><ele>383.0</ele><time>2026-04-30T14:23:28.981Z</time></trkpt><trkpt lat="42.2803066" lon="12.2252878"><ele>384.33333333333337</ele><time>2026-04-30T14:23:29.981Z</time></trkpt><trkpt lat="42.2804151" lon="12.2250446"><ele>385.6666666666667</ele><time>2026-04-30T14:23:30.981Z</time></trkpt><trkpt lat="42.2805213" lon="12.22482"><ele>387.0</ele><time>2026-04-30T14:23:31.981Z</time></trkpt><trkpt lat="42.2806307" lon="12.2246088"><ele>387.0</ele><time>2026-04-30T14:23:32.981Z</time></trkpt><trkpt lat="42.2807277" lon="12.2244156"><ele>387.0</ele><time>2026-04-30T14:23:33.981Z</time></trkpt><trkpt lat="42.2808019" lon="12.2242493"><ele>387.0</ele><time>2026-04-30T14:23:34.982Z</time></trkpt><trkpt lat="42.2808785" lon="12.224085"><ele>388.25</ele><time>2026-04-30T14:23:35.981Z</time></trkpt><trkpt lat="42.2809545" lon="12.2239279"><ele>389.5</ele><time>2026-04-30T14:23:36.982Z</time></trkpt><trkpt lat="42.2810312" lon="12.2237727"><ele>390.75</ele><time>2026-04-30T14:23:37.981Z</time></trkpt><trkpt lat="42.281105" lon="12.2236081"><ele>392.0</ele><time>2026-04-30T14:23:38.981Z</time></trkpt><trkpt lat="42.2811775" lon="12.2234341"><ele>392.0</ele><time>2026-04-30T14:23:39.981Z</time></trkpt><trkpt lat="42.2812599" lon="12.2232597"><ele>392.0</ele><time>2026-04-30T14:23:40.981Z</time></trkpt><trkpt lat="42.2813535" lon="12.2230891"><ele>392.0</ele><time>2026-04-30T14:23:41.981Z</time></trkpt><trkpt lat="42.281453" lon="12.2229157"><ele>391.3333333333333</ele><time>2026-04-30T14:23:42.981Z</time></trkpt><trkpt lat="42.2815715" lon="12.2227676"><ele>390.66666666666663</ele><time>2026-04-30T14:23:43.981Z</time></trkpt><trkpt lat="42.2817112" lon="12.2226762"><ele>390.0</ele><time>2026-04-30T14:23:44.982Z</time></trkpt><trkpt lat="42.2818525" lon="12.2226255"><ele>390.0</ele><time>2026-04-30T14:23:45.981Z</time></trkpt><trkpt lat="42.2819772" lon="12.2225764"><ele>390.0</ele><time>2026-04-30T14:23:46.981Z</time></trkpt><trkpt lat="42.282079" lon="12.2225363"><ele>390.0</ele><time>2026-04-30T14:23:47.981Z</time></trkpt><trkpt lat="42.2821631" lon="12.2225042"><ele>390.0</ele><time>2026-04-30T14:23:48.981Z</time></trkpt><trkpt lat="42.2822391" lon="12.222474"><ele>390.0</ele><time>2026-04-30T14:23:49.981Z</time></trkpt><trkpt lat="42.2823096" lon="12.2224468"><ele>391.0</ele><time>2026-04-30T14:23:50.981Z</time></trkpt><trkpt lat="42.2823879" lon="12.222418"><ele>392.0</ele><time>2026-04-30T14:23:52.982Z</time></trkpt><trkpt lat="42.2824596" lon="12.2223815"><ele>393.0</ele><time>2026-04-30T14:23:56.981Z</time></trkpt><trkpt lat="42.2825851" lon="12.2223337"><ele>394.0</ele><time>2026-04-30T14:23:58.981Z</time></trkpt><trkpt lat="42.2826661" lon="12.2222979"><ele>395.0</ele><time>2026-04-30T14:23:59.981Z</time></trkpt><trkpt lat="42.2827472" lon="12.2222528"><ele>395.0</ele><time>2026-04-30T14:24:00.981Z</time></trkpt><trkpt lat="42.2828354" lon="12.2222011"><ele>395.0</ele><time>2026-04-30T14:24:01.982Z</time></trkpt><trkpt lat="42.2829391" lon="12.222141"><ele>395.0</ele><time>2026-04-30T14:24:02.982Z</time></trkpt><trkpt lat="42.2830431" lon="12.2220651"><ele>395.0</ele><time>2026-04-30T14:24:03.981Z</time></trkpt><trkpt lat="42.2831489" lon="12.2219891"><ele>395.0</ele><time>2026-04-30T14:24:04.981Z</time></trkpt><trkpt lat="42.2832489" lon="12.2219122"><ele>396.75</ele><time>2026-04-30T14:24:05.982Z</time></trkpt><trkpt lat="42.2833461" lon="12.2218283"><ele>398.5</ele><time>2026-04-30T14:24:06.981Z</time></trkpt><trkpt lat="42.2834521" lon="12.2217456"><ele>400.25</ele><time>2026-04-30T14:24:07.982Z</time></trkpt><trkpt lat="42.2835523" lon="12.2216675"><ele>402.0</ele><time>2026-04-30T14:24:08.982Z</time></trkpt><trkpt lat="42.2836495" lon="12.2215898"><ele>402.0</ele><time>2026-04-30T14:24:09.981Z</time></trkpt><trkpt lat="42.2837417" lon="12.221518"><ele>402.0</ele><time>2026-04-30T14:24:10.981Z</time></trkpt><trkpt lat="42.2838255" lon="12.2214519"><ele>402.0</ele><time>2026-04-30T14:24:11.982Z</time></trkpt><trkpt lat="42.2839022" lon="12.2213812"><ele>402.0</ele><time>2026-04-30T14:24:12.982Z</time></trkpt><trkpt lat="42.2839808" lon="12.221316"><ele>402.0</ele><time>2026-04-30T14:24:13.981Z</time></trkpt><trkpt lat="42.2840664" lon="12.2212363"><ele>403.25</ele><time>2026-04-30T14:24:14.982Z</time></trkpt><trkpt lat="42.2841543" lon="12.2211509"><ele>404.5</ele><time>2026-04-30T14:24:15.981Z</time></trkpt><trkpt lat="42.2842504" lon="12.2210683"><ele>405.75</ele><time>2026-04-30T14:24:16.981Z</time></trkpt><trkpt lat="42.2843503" lon="12.2209853"><ele>407.0</ele><time>2026-04-30T14:24:17.981Z</time></trkpt><trkpt lat="42.2844513" lon="12.2208926"><ele>407.0</ele><time>2026-04-30T14:24:18.981Z</time></trkpt><trkpt lat="42.2845569" lon="12.2208019"><ele>407.0</ele><time>2026-04-30T14:24:19.981Z</time></trkpt><trkpt lat="42.2846598" lon="12.220711"><ele>407.0</ele><time>2026-04-30T14:24:20.981Z</time></trkpt><trkpt lat="42.2847569" lon="12.2206164"><ele>407.0</ele><time>2026-04-30T14:24:21.982Z</time></trkpt><trkpt lat="42.2848559" lon="12.2205172"><ele>409.0</ele><time>2026-04-30T14:24:22.981Z</time></trkpt><trkpt lat="42.2849545" lon="12.2204154"><ele>411.0</ele><time>2026-04-30T14:24:23.981Z</time></trkpt><trkpt lat="42.2850567" lon="12.2203096"><ele>413.0</ele><time>2026-04-30T14:24:24.981Z</time></trkpt><trkpt lat="42.2851537" lon="12.2201967"><ele>415.0</ele><time>2026-04-30T14:24:25.981Z</time></trkpt><trkpt lat="42.2852565" lon="12.2200948"><ele>415.0</ele><time>2026-04-30T14:24:26.982Z</time></trkpt><trkpt lat="42.2853537" lon="12.2200128"><ele>415.0</ele><time>2026-04-30T14:24:27.981Z</time></trkpt><trkpt lat="42.2854542" lon="12.219933"><ele>415.0</ele><time>2026-04-30T14:24:28.981Z</time></trkpt><trkpt lat="42.2855491" lon="12.2198551"><ele>415.0</ele><time>2026-04-30T14:24:29.981Z</time></trkpt><trkpt lat="42.2856401" lon="12.2197763"><ele>415.8</ele><time>2026-04-30T14:24:30.982Z</time></trkpt><trkpt lat="42.2857362" lon="12.2197025"><ele>416.6</ele><time>2026-04-30T14:24:31.981Z</time></trkpt><trkpt lat="42.2858351" lon="12.2196275"><ele>417.4</ele><time>2026-04-30T14:24:32.982Z</time></trkpt><trkpt lat="42.2859284" lon="12.2195694"><ele>418.2</ele><time>2026-04-30T14:24:33.981Z</time></trkpt><trkpt lat="42.2860188" lon="12.2195167"><ele>419.0</ele><time>2026-04-30T14:24:34.981Z</time></trkpt><trkpt lat="42.2861059" lon="12.2194656"><ele>418.99999999999994</ele><time>2026-04-30T14:24:35.981Z</time></trkpt><trkpt lat="42.2861891" lon="12.2194289"><ele>419.0</ele><time>2026-04-30T14:24:36.981Z</time></trkpt><trkpt lat="42.2862662" lon="12.2194"><ele>419.0</ele><time>2026-04-30T14:24:37.981Z</time></trkpt><trkpt lat="42.2863419" lon="12.2193679"><ele>419.0</ele><time>2026-04-30T14:24:38.981Z</time></trkpt><trkpt lat="42.286416" lon="12.2193215"><ele>418.99999999999994</ele><time>2026-04-30T14:24:39.982Z</time></trkpt><trkpt lat="42.2864975" lon="12.2192788"><ele>419.0</ele><time>2026-04-30T14:24:40.981Z</time></trkpt><trkpt lat="42.2865853" lon="12.2192269"><ele>418.2</ele><time>2026-04-30T14:24:41.981Z</time></trkpt><trkpt lat="42.2866727" lon="12.2191683"><ele>417.4</ele><time>2026-04-30T14:24:42.981Z</time></trkpt><trkpt lat="42.2867681" lon="12.2191193"><ele>416.6</ele><time>2026-04-30T14:24:43.981Z</time></trkpt><trkpt lat="42.2868709" lon="12.2190824"><ele>415.8</ele><time>2026-04-30T14:24:44.981Z</time></trkpt><trkpt lat="42.2869766" lon="12.2190597"><ele>415.0</ele><time>2026-04-30T14:24:45.981Z</time></trkpt><trkpt lat="42.2870912" lon="12.2190403"><ele>415.0</ele><time>2026-04-30T14:24:46.981Z</time></trkpt><trkpt lat="42.2872042" lon="12.2190233"><ele>415.0</ele><time>2026-04-30T14:24:47.982Z</time></trkpt><trkpt lat="42.2873189" lon="12.2190104"><ele>415.0</ele><time>2026-04-30T14:24:48.981Z</time></trkpt><trkpt lat="42.2874365" lon="12.2189908"><ele>415.0</ele><time>2026-04-30T14:24:49.982Z</time></trkpt><trkpt lat="42.2875534" lon="12.2189695"><ele>417.4</ele><time>2026-04-30T14:24:50.981Z</time></trkpt><trkpt lat="42.2876617" lon="12.2189456"><ele>419.8</ele><time>2026-04-30T14:24:51.981Z</time></trkpt><trkpt lat="42.2877772" lon="12.2189146"><ele>422.20000000000005</ele><time>2026-04-30T14:24:52.981Z</time></trkpt><trkpt lat="42.2878869" lon="12.2188865"><ele>424.6</ele><time>2026-04-30T14:24:53.981Z</time></trkpt><trkpt lat="42.2879916" lon="12.2188566"><ele>427.0</ele><time>2026-04-30T14:24:54.981Z</time></trkpt><trkpt lat="42.2880977" lon="12.2188253"><ele>427.6</ele><time>2026-04-30T14:24:55.981Z</time></trkpt><trkpt lat="42.2882024" lon="12.2187895"><ele>428.20000000000005</ele><time>2026-04-30T14:24:56.981Z</time></trkpt><trkpt lat="42.2883066" lon="12.2187642"><ele>428.8</ele><time>2026-04-30T14:24:57.982Z</time></trkpt><trkpt lat="42.2884013" lon="12.2187439"><ele>429.4</ele><time>2026-04-30T14:24:58.981Z</time></trkpt><trkpt lat="42.2884897" lon="12.2187179"><ele>430.0</ele><time>2026-04-30T14:24:59.981Z</time></trkpt><trkpt lat="42.2885715" lon="12.2186974"><ele>430.00000000000006</ele><time>2026-04-30T14:25:00.981Z</time></trkpt><trkpt lat="42.2886388" lon="12.2186771"><ele>430.0</ele><time>2026-04-30T14:25:01.982Z</time></trkpt><trkpt lat="42.288735" lon="12.2186433"><ele>430.0</ele><time>2026-04-30T14:25:03.981Z</time></trkpt><trkpt lat="42.2888217" lon="12.21857"><ele>430.0</ele><time>2026-04-30T14:25:05.982Z</time></trkpt><trkpt lat="42.2888833" lon="12.2185317"><ele>430.00000000000006</ele><time>2026-04-30T14:25:08.982Z</time></trkpt><trkpt lat="42.2889417" lon="12.2184617"><ele>430.0</ele><time>2026-04-30T14:25:13.982Z</time></trkpt><trkpt lat="42.2890067" lon="12.2184"><ele>429.6666666666667</ele><time>2026-04-30T14:25:16.981Z</time></trkpt><trkpt lat="42.2890767" lon="12.2183183"><ele>429.33333333333337</ele><time>2026-04-30T14:25:19.981Z</time></trkpt><trkpt lat="42.2891467" lon="12.21824"><ele>429.0</ele><time>2026-04-30T14:25:21.981Z</time></trkpt><trkpt lat="42.2892033" lon="12.21817"><ele>428.66666666666663</ele><time>2026-04-30T14:25:23.981Z</time></trkpt><trkpt lat="42.289255" lon="12.21812"><ele>428.3333333333333</ele><time>2026-04-30T14:25:27.981Z</time></trkpt><trkpt lat="42.28932" lon="12.2180783"><ele>428.0</ele><time>2026-04-30T14:25:30.981Z</time></trkpt><trkpt lat="42.289385" lon="12.2180083"><ele>429.2</ele><time>2026-04-30T14:25:32.982Z</time></trkpt><trkpt lat="42.28946" lon="12.2179217"><ele>430.4</ele><time>2026-04-30T14:25:34.982Z</time></trkpt><trkpt lat="42.2895383" lon="12.2178433"><ele>431.59999999999997</ele><time>2026-04-30T14:25:36.982Z</time></trkpt><trkpt lat="42.289615" lon="12.217755"><ele>432.79999999999995</ele><time>2026-04-30T14:25:38.981Z</time></trkpt><trkpt lat="42.2897117" lon="12.2176633"><ele>434.0</ele><time>2026-04-30T14:25:40.982Z</time></trkpt><trkpt lat="42.2897983" lon="12.217575"><ele>434.0</ele><time>2026-04-30T14:25:42.981Z</time></trkpt><trkpt lat="42.2898967" lon="12.2174733"><ele>434.0</ele><time>2026-04-30T14:25:44.982Z</time></trkpt><trkpt lat="42.28995" lon="12.2174133"><ele>434.0</ele><time>2026-04-30T14:25:45.982Z</time></trkpt><trkpt lat="42.290005" lon="12.2173633"><ele>434.0</ele><time>2026-04-30T14:25:46.981Z</time></trkpt><trkpt lat="42.2900933" lon="12.21726"><ele>434.0</ele><time>2026-04-30T14:25:48.982Z</time></trkpt><trkpt lat="42.2901767" lon="12.217175"><ele>435.2</ele><time>2026-04-30T14:25:50.981Z</time></trkpt><trkpt lat="42.2902617" lon="12.2170833"><ele>436.4</ele><time>2026-04-30T14:25:52.981Z</time></trkpt><trkpt lat="42.2903417" lon="12.2169567"><ele>437.6</ele><time>2026-04-30T14:25:54.981Z</time></trkpt><trkpt lat="42.2903633" lon="12.216875"><ele>438.8</ele><time>2026-04-30T14:25:55.981Z</time></trkpt><trkpt lat="42.2904217" lon="12.2167417"><ele>440.0</ele><time>2026-04-30T14:25:57.981Z</time></trkpt><trkpt lat="42.2904883" lon="12.2165817"><ele>439.99999999999994</ele><time>2026-04-30T14:25:59.981Z</time></trkpt><trkpt lat="42.290515" lon="12.2165033"><ele>440.0</ele><time>2026-04-30T14:26:00.981Z</time></trkpt><trkpt lat="42.290535" lon="12.216415"><ele>440.0</ele><time>2026-04-30T14:26:01.982Z</time></trkpt><trkpt lat="42.29059" lon="12.2162867"><ele>440.0</ele><time>2026-04-30T14:26:03.981Z</time></trkpt><trkpt lat="42.2907" lon="12.2162033"><ele>439.99999999999994</ele><time>2026-04-30T14:26:05.981Z</time></trkpt><trkpt lat="42.2907733" lon="12.2161733"><ele>440.0</ele><time>2026-04-30T14:26:06.981Z</time></trkpt><trkpt lat="42.290845" lon="12.2161583"><ele>440.2</ele><time>2026-04-30T14:26:07.982Z</time></trkpt><trkpt lat="42.2909517" lon="12.2161483"><ele>440.4</ele><time>2026-04-30T14:26:09.981Z</time></trkpt><trkpt lat="42.29104" lon="12.2161067"><ele>440.6</ele><time>2026-04-30T14:26:11.982Z</time></trkpt><trkpt lat="42.2911233" lon="12.2160517"><ele>440.8</ele><time>2026-04-30T14:26:13.982Z</time></trkpt><trkpt lat="42.29123" lon="12.2160183"><ele>441.0</ele><time>2026-04-30T14:26:15.981Z</time></trkpt><trkpt lat="42.2913383" lon="12.21598"><ele>441.0</ele><time>2026-04-30T14:26:17.981Z</time></trkpt><trkpt lat="42.2914033" lon="12.2159583"><ele>441.0</ele><time>2026-04-30T14:26:19.981Z</time></trkpt><trkpt lat="42.29146" lon="12.2159183"><ele>441.0</ele><time>2026-04-30T14:26:21.981Z</time></trkpt><trkpt lat="42.29153" lon="12.2159067"><ele>441.0</ele><time>2026-04-30T14:26:30.981Z</time></trkpt><trkpt lat="42.2916017" lon="12.2158667"><ele>441.0</ele><time>2026-04-30T14:26:32.981Z</time></trkpt><trkpt lat="42.291695" lon="12.2158333"><ele>441.0</ele><time>2026-04-30T14:26:34.981Z</time></trkpt><trkpt lat="42.2918083" lon="12.215785"><ele>442.4</ele><time>2026-04-30T14:26:36.982Z</time></trkpt><trkpt lat="42.2919267" lon="12.2157333"><ele>443.8</ele><time>2026-04-30T14:26:38.982Z</time></trkpt><trkpt lat="42.2919883" lon="12.2157083"><ele>445.19999999999993</ele><time>2026-04-30T14:26:39.981Z</time></trkpt><trkpt lat="42.292115" lon="12.2156817"><ele>446.59999999999997</ele><time>2026-04-30T14:26:41.981Z</time></trkpt><trkpt lat="42.29218" lon="12.2156567"><ele>448.0</ele><time>2026-04-30T14:26:42.981Z</time></trkpt><trkpt lat="42.2922483" lon="12.2156283"><ele>449.33333333333337</ele><time>2026-04-30T14:26:43.982Z</time></trkpt><trkpt lat="42.29231" lon="12.2156"><ele>450.6666666666667</ele><time>2026-04-30T14:26:44.982Z</time></trkpt><trkpt lat="42.2923733" lon="12.21557"><ele>452.0</ele><time>2026-04-30T14:26:45.981Z</time></trkpt><trkpt lat="42.292435" lon="12.2155233"><ele>453.33333333333337</ele><time>2026-04-30T14:26:46.982Z</time></trkpt><trkpt lat="42.2925183" lon="12.2154983"><ele>454.6666666666667</ele><time>2026-04-30T14:26:47.981Z</time></trkpt><trkpt lat="42.2926217" lon="12.2154733"><ele>456.0</ele><time>2026-04-30T14:26:48.981Z</time></trkpt><trkpt lat="42.29277" lon="12.215425"><ele>456.0</ele><time>2026-04-30T14:26:49.981Z</time></trkpt><trkpt lat="42.2929133" lon="12.215375"><ele>456.0</ele><time>2026-04-30T14:26:50.982Z</time></trkpt><trkpt lat="42.2930417" lon="12.2153317"><ele>456.0</ele><time>2026-04-30T14:26:51.981Z</time></trkpt><trkpt lat="42.2931483" lon="12.2153"><ele>456.0</ele><time>2026-04-30T14:26:52.981Z</time></trkpt><trkpt lat="42.2932517" lon="12.2152717"><ele>457.0</ele><time>2026-04-30T14:26:53.981Z</time></trkpt><trkpt lat="42.293325" lon="12.215255"><ele>458.0</ele><time>2026-04-30T14:26:54.981Z</time></trkpt><trkpt lat="42.2934183" lon="12.2151483"><ele>459.0</ele><time>2026-04-30T14:26:56.982Z</time></trkpt><trkpt lat="42.2934467" lon="12.2150617"><ele>460.0</ele><time>2026-04-30T14:26:57.981Z</time></trkpt><trkpt lat="42.2934817" lon="12.214965"><ele>461.0</ele><time>2026-04-30T14:26:58.981Z</time></trkpt><trkpt lat="42.2935183" lon="12.214845"><ele>462.0</ele><time>2026-04-30T14:26:59.981Z</time></trkpt><trkpt lat="42.29355" lon="12.2147183"><ele>463.0</ele><time>2026-04-30T14:27:00.981Z</time></trkpt><trkpt lat="42.2935783" lon="12.2145917"><ele>464.00000000000006</ele><time>2026-04-30T14:27:01.981Z</time></trkpt><trkpt lat="42.29361" lon="12.2144617"><ele>465.00000000000006</ele><time>2026-04-30T14:27:02.981Z</time></trkpt><trkpt lat="42.2936417" lon="12.2143283"><ele>466.0</ele><time>2026-04-30T14:27:03.982Z</time></trkpt><trkpt lat="42.2936833" lon="12.2142083"><ele>467.0</ele><time>2026-04-30T14:27:04.981Z</time></trkpt><trkpt lat="42.2937267" lon="12.21409"><ele>467.40000000000003</ele><time>2026-04-30T14:27:05.981Z</time></trkpt><trkpt lat="42.2937733" lon="12.2139817"><ele>467.80000000000007</ele><time>2026-04-30T14:27:06.981Z</time></trkpt><trkpt lat="42.293825" lon="12.2138683"><ele>468.2</ele><time>2026-04-30T14:27:07.981Z</time></trkpt><trkpt lat="42.2938723" lon="12.2137613"><ele>468.6</ele><time>2026-04-30T14:27:08.981Z</time></trkpt><trkpt lat="42.2939216" lon="12.2136527"><ele>469.0</ele><time>2026-04-30T14:27:09.981Z</time></trkpt><trkpt lat="42.2939748" lon="12.2135454"><ele>470.0</ele><time>2026-04-30T14:27:10.981Z</time></trkpt><trkpt lat="42.2940325" lon="12.2134333"><ele>471.0</ele><time>2026-04-30T14:27:11.981Z</time></trkpt><trkpt lat="42.2940998" lon="12.2133118"><ele>472.0</ele><time>2026-04-30T14:27:12.981Z</time></trkpt><trkpt lat="42.2941661" lon="12.2131921"><ele>473.0</ele><time>2026-04-30T14:27:13.981Z</time></trkpt><trkpt lat="42.2942292" lon="12.2130653"><ele>474.0</ele><time>2026-04-30T14:27:14.981Z</time></trkpt><trkpt lat="42.2943008" lon="12.2129362"><ele>474.4</ele><time>2026-04-30T14:27:15.981Z</time></trkpt><trkpt lat="42.2943831" lon="12.2128152"><ele>474.79999999999995</ele><time>2026-04-30T14:27:16.981Z</time></trkpt><trkpt lat="42.2944653" lon="12.2127018"><ele>475.20000000000005</ele><time>2026-04-30T14:27:17.981Z</time></trkpt><trkpt lat="42.294535" lon="12.2125964"><ele>475.6</ele><time>2026-04-30T14:27:18.981Z</time></trkpt><trkpt lat="42.2946035" lon="12.2124956"><ele>476.0</ele><time>2026-04-30T14:27:19.981Z</time></trkpt><trkpt lat="42.2946665" lon="12.2123968"><ele>476.6</ele><time>2026-04-30T14:27:20.982Z</time></trkpt><trkpt lat="42.2947302" lon="12.2123003"><ele>477.20000000000005</ele><time>2026-04-30T14:27:21.982Z</time></trkpt><trkpt lat="42.2947921" lon="12.2122032"><ele>477.79999999999995</ele><time>2026-04-30T14:27:22.982Z</time></trkpt><trkpt lat="42.2948516" lon="12.2121025"><ele>478.4</ele><time>2026-04-30T14:27:23.982Z</time></trkpt><trkpt lat="42.2949122" lon="12.212011"><ele>479.0</ele><time>2026-04-30T14:27:24.981Z</time></trkpt><trkpt lat="42.2949599" lon="12.2119132"><ele>479.4</ele><time>2026-04-30T14:27:25.981Z</time></trkpt><trkpt lat="42.2950039" lon="12.211815"><ele>479.79999999999995</ele><time>2026-04-30T14:27:26.981Z</time></trkpt><trkpt lat="42.2950565" lon="12.2117155"><ele>480.20000000000005</ele><time>2026-04-30T14:27:27.981Z</time></trkpt><trkpt lat="42.2951023" lon="12.2116087"><ele>480.6</ele><time>2026-04-30T14:27:28.981Z</time></trkpt><trkpt lat="42.2951514" lon="12.2114945"><ele>481.0</ele><time>2026-04-30T14:27:29.981Z</time></trkpt><trkpt lat="42.2952036" lon="12.2113802"><ele>481.4</ele><time>2026-04-30T14:27:30.981Z</time></trkpt><trkpt lat="42.2952512" lon="12.211262"><ele>481.8</ele><time>2026-04-30T14:27:31.981Z</time></trkpt><trkpt lat="42.2952968" lon="12.2111404"><ele>482.19999999999993</ele><time>2026-04-30T14:27:32.981Z</time></trkpt><trkpt lat="42.2953413" lon="12.2110257"><ele>482.59999999999997</ele><time>2026-04-30T14:27:33.982Z</time></trkpt><trkpt lat="42.2953853" lon="12.2109063"><ele>483.0</ele><time>2026-04-30T14:27:34.981Z</time></trkpt><trkpt lat="42.2954286" lon="12.2107912"><ele>483.0</ele><time>2026-04-30T14:27:35.982Z</time></trkpt><trkpt lat="42.295475" lon="12.2106755"><ele>482.99999999999994</ele><time>2026-04-30T14:27:36.981Z</time></trkpt><trkpt lat="42.2955217" lon="12.2105675"><ele>482.99999999999994</ele><time>2026-04-30T14:27:37.981Z</time></trkpt><trkpt lat="42.2955621" lon="12.2104613"><ele>483.0</ele><time>2026-04-30T14:27:38.981Z</time></trkpt><trkpt lat="42.2956054" lon="12.2103591"><ele>483.0</ele><time>2026-04-30T14:27:39.981Z</time></trkpt><trkpt lat="42.2956478" lon="12.2102591"><ele>483.79999999999995</ele><time>2026-04-30T14:27:40.981Z</time></trkpt><trkpt lat="42.2956882" lon="12.2101496"><ele>484.59999999999997</ele><time>2026-04-30T14:27:41.982Z</time></trkpt><trkpt lat="42.2957304" lon="12.2100365"><ele>485.40000000000003</ele><time>2026-04-30T14:27:42.982Z</time></trkpt><trkpt lat="42.2957807" lon="12.209916"><ele>486.20000000000005</ele><time>2026-04-30T14:27:43.981Z</time></trkpt><trkpt lat="42.2958352" lon="12.2097863"><ele>487.0</ele><time>2026-04-30T14:27:44.981Z</time></trkpt><trkpt lat="42.2958896" lon="12.2096378"><ele>488.0</ele><time>2026-04-30T14:27:45.981Z</time></trkpt><trkpt lat="42.2959478" lon="12.2094805"><ele>489.0</ele><time>2026-04-30T14:27:46.982Z</time></trkpt><trkpt lat="42.2959973" lon="12.209332"><ele>490.0</ele><time>2026-04-30T14:27:47.982Z</time></trkpt><trkpt lat="42.2960444" lon="12.2091877"><ele>491.0</ele><time>2026-04-30T14:27:48.981Z</time></trkpt><trkpt lat="42.2960774" lon="12.2090449"><ele>492.0</ele><time>2026-04-30T14:27:49.981Z</time></trkpt><trkpt lat="42.2961096" lon="12.2089128"><ele>493.0</ele><time>2026-04-30T14:27:50.981Z</time></trkpt><trkpt lat="42.2961448" lon="12.2087786"><ele>494.0</ele><time>2026-04-30T14:27:51.981Z</time></trkpt><trkpt lat="42.2961784" lon="12.2086452"><ele>495.0</ele><time>2026-04-30T14:27:52.981Z</time></trkpt><trkpt lat="42.2962124" lon="12.2085094"><ele>496.0</ele><time>2026-04-30T14:27:53.981Z</time></trkpt><trkpt lat="42.2962512" lon="12.208376"><ele>496.0</ele><time>2026-04-30T14:27:54.981Z</time></trkpt><trkpt lat="42.2962852" lon="12.2082459"><ele>496.0</ele><time>2026-04-30T14:27:55.981Z</time></trkpt><trkpt lat="42.2963168" lon="12.2081075"><ele>496.0</ele><time>2026-04-30T14:27:56.981Z</time></trkpt><trkpt lat="42.2963438" lon="12.2079617"><ele>496.0</ele><time>2026-04-30T14:27:57.982Z</time></trkpt><trkpt lat="42.2963728" lon="12.207821"><ele>496.0</ele><time>2026-04-30T14:27:58.981Z</time></trkpt><trkpt lat="42.2964014" lon="12.2076804"><ele>495.0</ele><time>2026-04-30T14:27:59.981Z</time></trkpt><trkpt lat="42.2964322" lon="12.2075297"><ele>494.0</ele><time>2026-04-30T14:28:00.981Z</time></trkpt><trkpt lat="42.2964628" lon="12.2073623"><ele>493.0</ele><time>2026-04-30T14:28:01.981Z</time></trkpt><trkpt lat="42.2965027" lon="12.2071848"><ele>492.0</ele><time>2026-04-30T14:28:02.981Z</time></trkpt><trkpt lat="42.2965541" lon="12.2070037"><ele>494.0</ele><time>2026-04-30T14:28:03.981Z</time></trkpt><trkpt lat="42.296611" lon="12.2068304"><ele>496.0</ele><time>2026-04-30T14:28:04.982Z</time></trkpt><trkpt lat="42.2966683" lon="12.2066764"><ele>498.0</ele><time>2026-04-30T14:28:05.981Z</time></trkpt><trkpt lat="42.2967215" lon="12.2065334"><ele>500.0</ele><time>2026-04-30T14:28:06.982Z</time></trkpt><trkpt lat="42.2967733" lon="12.2063921"><ele>502.0</ele><time>2026-04-30T14:28:07.981Z</time></trkpt><trkpt lat="42.2968342" lon="12.2062586"><ele>504.0</ele><time>2026-04-30T14:28:08.982Z</time></trkpt><trkpt lat="42.2968929" lon="12.2061277"><ele>506.0</ele><time>2026-04-30T14:28:09.98Z</time></trkpt><trkpt lat="42.2969435" lon="12.2060019"><ele>508.0</ele><time>2026-04-30T14:28:10.98Z</time></trkpt><trkpt lat="42.2969922" lon="12.2058798"><ele>510.0</ele><time>2026-04-30T14:28:11.98Z</time></trkpt><trkpt lat="42.2970406" lon="12.2057607"><ele>512.2</ele><time>2026-04-30T14:28:12.98Z</time></trkpt><trkpt lat="42.2970943" lon="12.2056399"><ele>514.4</ele><time>2026-04-30T14:28:13.981Z</time></trkpt><trkpt lat="42.297151" lon="12.2055133"><ele>516.6</ele><time>2026-04-30T14:28:14.981Z</time></trkpt><trkpt lat="42.2972103" lon="12.2053798"><ele>518.8</ele><time>2026-04-30T14:28:15.98Z</time></trkpt><trkpt lat="42.2972665" lon="12.2052394"><ele>521.0</ele><time>2026-04-30T14:28:16.981Z</time></trkpt><trkpt lat="42.2973216" lon="12.2050949"><ele>521.75</ele><time>2026-04-30T14:28:17.98Z</time></trkpt><trkpt lat="42.2973691" lon="12.2049529"><ele>522.5</ele><time>2026-04-30T14:28:18.98Z</time></trkpt><trkpt lat="42.2974154" lon="12.2048093"><ele>523.25</ele><time>2026-04-30T14:28:19.981Z</time></trkpt><trkpt lat="42.2974627" lon="12.2046618"><ele>524.0</ele><time>2026-04-30T14:28:20.98Z</time></trkpt><trkpt lat="42.2975133" lon="12.2045177"><ele>524.25</ele><time>2026-04-30T14:28:21.98Z</time></trkpt><trkpt lat="42.2975669" lon="12.2043672"><ele>524.5</ele><time>2026-04-30T14:28:22.98Z</time></trkpt><trkpt lat="42.2976251" lon="12.2042191"><ele>524.75</ele><time>2026-04-30T14:28:23.981Z</time></trkpt><trkpt lat="42.2976805" lon="12.2040749"><ele>525.0</ele><time>2026-04-30T14:28:24.98Z</time></trkpt><trkpt lat="42.2977457" lon="12.2039382"><ele>525.0</ele><time>2026-04-30T14:28:25.98Z</time></trkpt><trkpt lat="42.2978257" lon="12.2038068"><ele>525.0</ele><time>2026-04-30T14:28:26.98Z</time></trkpt><trkpt lat="42.2979209" lon="12.2036632"><ele>525.0</ele><time>2026-04-30T14:28:27.981Z</time></trkpt><trkpt lat="42.2980251" lon="12.2035136"><ele>525.0</ele><time>2026-04-30T14:28:28.981Z</time></trkpt><trkpt lat="42.2981377" lon="12.2033586"><ele>527.3333333333334</ele><time>2026-04-30T14:28:29.98Z</time></trkpt><trkpt lat="42.2982501" lon="12.2032051"><ele>529.6666666666667</ele><time>2026-04-30T14:28:30.981Z</time></trkpt><trkpt lat="42.298362" lon="12.2030474"><ele>532.0</ele><time>2026-04-30T14:28:31.98Z</time></trkpt><trkpt lat="42.2984661" lon="12.202883"><ele>533.3333333333334</ele><time>2026-04-30T14:28:32.98Z</time></trkpt><trkpt lat="42.2985612" lon="12.2027208"><ele>534.6666666666666</ele><time>2026-04-30T14:28:33.98Z</time></trkpt><trkpt lat="42.2986478" lon="12.2025566"><ele>536.0</ele><time>2026-04-30T14:28:34.98Z</time></trkpt><trkpt lat="42.2987365" lon="12.2023893"><ele>536.75</ele><time>2026-04-30T14:28:35.98Z</time></trkpt><trkpt lat="42.2988215" lon="12.2022248"><ele>537.5</ele><time>2026-04-30T14:28:36.98Z</time></trkpt><trkpt lat="42.298901" lon="12.2020666"><ele>538.25</ele><time>2026-04-30T14:28:37.98Z</time></trkpt><trkpt lat="42.2989816" lon="12.201908"><ele>539.0</ele><time>2026-04-30T14:28:38.98Z</time></trkpt><trkpt lat="42.2990606" lon="12.2017616"><ele>540.5</ele><time>2026-04-30T14:28:39.98Z</time></trkpt><trkpt lat="42.2991428" lon="12.201619"><ele>542.0</ele><time>2026-04-30T14:28:40.981Z</time></trkpt><trkpt lat="42.2992243" lon="12.2014821"><ele>543.5</ele><time>2026-04-30T14:28:41.98Z</time></trkpt><trkpt lat="42.2992997" lon="12.2013541"><ele>545.0</ele><time>2026-04-30T14:28:42.98Z</time></trkpt><trkpt lat="42.2993778" lon="12.2012252"><ele>545.25</ele><time>2026-04-30T14:28:43.98Z</time></trkpt><trkpt lat="42.2994733" lon="12.2011066"><ele>545.5</ele><time>2026-04-30T14:28:44.981Z</time></trkpt><trkpt lat="42.2995863" lon="12.2010144"><ele>545.75</ele><time>2026-04-30T14:28:45.98Z</time></trkpt><trkpt lat="42.2997043" lon="12.2009459"><ele>546.0</ele><time>2026-04-30T14:28:46.98Z</time></trkpt><trkpt lat="42.2998209" lon="12.2009017"><ele>546.75</ele><time>2026-04-30T14:28:47.981Z</time></trkpt><trkpt lat="42.2999426" lon="12.2008854"><ele>547.5</ele><time>2026-04-30T14:28:48.98Z</time></trkpt><trkpt lat="42.3000715" lon="12.2008765"><ele>548.25</ele><time>2026-04-30T14:28:49.981Z</time></trkpt><trkpt lat="42.3002032" lon="12.2008671"><ele>549.0</ele><time>2026-04-30T14:28:50.98Z</time></trkpt><trkpt lat="42.3003341" lon="12.2008547"><ele>549.0</ele><time>2026-04-30T14:28:51.981Z</time></trkpt><trkpt lat="42.3004646" lon="12.2008418"><ele>549.0</ele><time>2026-04-30T14:28:52.98Z</time></trkpt><trkpt lat="42.3005937" lon="12.2008294"><ele>549.0</ele><time>2026-04-30T14:28:53.98Z</time></trkpt><trkpt lat="42.3007164" lon="12.2008083"><ele>549.0</ele><time>2026-04-30T14:28:54.98Z</time></trkpt><trkpt lat="42.3008327" lon="12.2007795"><ele>550.0</ele><time>2026-04-30T14:28:55.98Z</time></trkpt><trkpt lat="42.3009511" lon="12.2007458"><ele>551.0</ele><time>2026-04-30T14:28:56.98Z</time></trkpt><trkpt lat="42.3010694" lon="12.2006998"><ele>552.0</ele><time>2026-04-30T14:28:57.98Z</time></trkpt><trkpt lat="42.3011864" lon="12.2006328"><ele>553.0</ele><time>2026-04-30T14:28:58.98Z</time></trkpt><trkpt lat="42.3013016" lon="12.2005499"><ele>551.75</ele><time>2026-04-30T14:28:59.98Z</time></trkpt><trkpt lat="42.3014176" lon="12.2004698"><ele>550.5</ele><time>2026-04-30T14:29:00.98Z</time></trkpt><trkpt lat="42.3015318" lon="12.2003912"><ele>549.25</ele><time>2026-04-30T14:29:01.98Z</time></trkpt><trkpt lat="42.3016482" lon="12.2003138"><ele>548.0</ele><time>2026-04-30T14:29:02.98Z</time></trkpt><trkpt lat="42.3017716" lon="12.200242"><ele>548.0</ele><time>2026-04-30T14:29:03.98Z</time></trkpt><trkpt lat="42.3019041" lon="12.2001819"><ele>548.0</ele><time>2026-04-30T14:29:04.98Z</time></trkpt><trkpt lat="42.3020328" lon="12.2001317"><ele>548.0</ele><time>2026-04-30T14:29:05.98Z</time></trkpt><trkpt lat="42.302142" lon="12.2000854"><ele>548.0</ele><time>2026-04-30T14:29:06.98Z</time></trkpt><trkpt lat="42.3022454" lon="12.20005"><ele>546.8</ele><time>2026-04-30T14:29:07.98Z</time></trkpt><trkpt lat="42.3023377" lon="12.2000156"><ele>545.5999999999999</ele><time>2026-04-30T14:29:08.981Z</time></trkpt><trkpt lat="42.3024273" lon="12.199981"><ele>544.4000000000001</ele><time>2026-04-30T14:29:09.98Z</time></trkpt><trkpt lat="42.3025305" lon="12.1999271"><ele>543.2</ele><time>2026-04-30T14:29:10.98Z</time></trkpt><trkpt lat="42.3026588" lon="12.1998582"><ele>542.0</ele><time>2026-04-30T14:29:11.98Z</time></trkpt><trkpt lat="42.3028056" lon="12.1997888"><ele>541.6666666666666</ele><time>2026-04-30T14:29:12.98Z</time></trkpt><trkpt lat="42.3029612" lon="12.1997149"><ele>541.3333333333334</ele><time>2026-04-30T14:29:13.98Z</time></trkpt><trkpt lat="42.3031198" lon="12.1996294"><ele>541.0</ele><time>2026-04-30T14:29:14.98Z</time></trkpt><trkpt lat="42.3032764" lon="12.1995458"><ele>540.0</ele><time>2026-04-30T14:29:15.981Z</time></trkpt><trkpt lat="42.3034362" lon="12.1994934"><ele>539.0</ele><time>2026-04-30T14:29:16.98Z</time></trkpt><trkpt lat="42.3035881" lon="12.1994741"><ele>538.0</ele><time>2026-04-30T14:29:17.981Z</time></trkpt><trkpt lat="42.3037328" lon="12.1994984"><ele>538.0</ele><time>2026-04-30T14:29:18.981Z</time></trkpt><trkpt lat="42.3038865" lon="12.1995524"><ele>538.0</ele><time>2026-04-30T14:29:19.98Z</time></trkpt><trkpt lat="42.3040403" lon="12.1996516"><ele>538.0</ele><time>2026-04-30T14:29:20.98Z</time></trkpt><trkpt lat="42.3041876" lon="12.1997968"><ele>536.3333333333334</ele><time>2026-04-30T14:29:21.981Z</time></trkpt><trkpt lat="42.3043274" lon="12.1999739"><ele>534.6666666666666</ele><time>2026-04-30T14:29:22.98Z</time></trkpt><trkpt lat="42.304473" lon="12.2001801"><ele>533.0</ele><time>2026-04-30T14:29:23.98Z</time></trkpt><trkpt lat="42.3046177" lon="12.2004"><ele>533.5</ele><time>2026-04-30T14:29:24.98Z</time></trkpt><trkpt lat="42.3047791" lon="12.2006553"><ele>534.0</ele><time>2026-04-30T14:29:25.98Z</time></trkpt><trkpt lat="42.3049463" lon="12.2009279"><ele>534.0</ele><time>2026-04-30T14:29:26.98Z</time></trkpt><trkpt lat="42.3051203" lon="12.2012083"><ele>534.0</ele><time>2026-04-30T14:29:27.98Z</time></trkpt><trkpt lat="42.3052961" lon="12.2015105"><ele>536.0</ele><time>2026-04-30T14:29:28.98Z</time></trkpt><trkpt lat="42.3054771" lon="12.2018208"><ele>538.0</ele><time>2026-04-30T14:29:29.98Z</time></trkpt><trkpt lat="42.3056678" lon="12.2021341"><ele>540.0</ele><time>2026-04-30T14:29:30.98Z</time></trkpt><trkpt lat="42.3058703" lon="12.2024606"><ele>542.0</ele><time>2026-04-30T14:29:31.98Z</time></trkpt><trkpt lat="42.3060814" lon="12.2027906"><ele>542.0</ele><time>2026-04-30T14:29:32.98Z</time></trkpt><trkpt lat="42.3063079" lon="12.2031091"><ele>542.0</ele><time>2026-04-30T14:29:33.98Z</time></trkpt><trkpt lat="42.306534" lon="12.2033951"><ele>545.0</ele><time>2026-04-30T14:29:34.98Z</time></trkpt><trkpt lat="42.3067397" lon="12.2036515"><ele>548.0</ele><time>2026-04-30T14:29:35.98Z</time></trkpt><trkpt lat="42.3069265" lon="12.2038659"><ele>551.0</ele><time>2026-04-30T14:29:36.98Z</time></trkpt><trkpt lat="42.3070939" lon="12.2040543"><ele>554.0</ele><time>2026-04-30T14:29:37.98Z</time></trkpt><trkpt lat="42.307249" lon="12.204234"><ele>557.0</ele><time>2026-04-30T14:29:38.98Z</time></trkpt><trkpt lat="42.3073912" lon="12.2044144"><ele>557.0</ele><time>2026-04-30T14:29:39.98Z</time></trkpt><trkpt lat="42.3075266" lon="12.2045693"><ele>557.0</ele><time>2026-04-30T14:29:40.98Z</time></trkpt><trkpt lat="42.3076653" lon="12.2047116"><ele>557.0</ele><time>2026-04-30T14:29:41.98Z</time></trkpt><trkpt lat="42.3078076" lon="12.2048498"><ele>560.3333333333333</ele><time>2026-04-30T14:29:42.981Z</time></trkpt><trkpt lat="42.3079634" lon="12.2049848"><ele>563.6666666666666</ele><time>2026-04-30T14:29:43.981Z</time></trkpt><trkpt lat="42.3081314" lon="12.2051004"><ele>567.0</ele><time>2026-04-30T14:29:44.981Z</time></trkpt><trkpt lat="42.3083245" lon="12.2052244"><ele>567.0</ele><time>2026-04-30T14:29:45.981Z</time></trkpt><trkpt lat="42.3085389" lon="12.2053492"><ele>567.0</ele><time>2026-04-30T14:29:46.98Z</time></trkpt><trkpt lat="42.3087612" lon="12.2054708"><ele>568.6666666666666</ele><time>2026-04-30T14:29:47.98Z</time></trkpt><trkpt lat="42.3089686" lon="12.2055777"><ele>570.3333333333333</ele><time>2026-04-30T14:29:48.98Z</time></trkpt><trkpt lat="42.3091539" lon="12.2056875"><ele>572.0</ele><time>2026-04-30T14:29:49.98Z</time></trkpt><trkpt lat="42.3093031" lon="12.2058005"><ele>574.25</ele><time>2026-04-30T14:29:50.98Z</time></trkpt><trkpt lat="42.3094256" lon="12.2059092"><ele>576.5</ele><time>2026-04-30T14:29:51.981Z</time></trkpt><trkpt lat="42.309523" lon="12.2060488"><ele>578.75</ele><time>2026-04-30T14:29:52.98Z</time></trkpt><trkpt lat="42.3096154" lon="12.2061801"><ele>581.0</ele><time>2026-04-30T14:29:53.981Z</time></trkpt><trkpt lat="42.3097003" lon="12.2063041"><ele>580.5</ele><time>2026-04-30T14:29:54.98Z</time></trkpt><trkpt lat="42.3097856" lon="12.206415"><ele>580.0</ele><time>2026-04-30T14:29:55.98Z</time></trkpt><trkpt lat="42.3098799" lon="12.2065169"><ele>579.5</ele><time>2026-04-30T14:29:56.98Z</time></trkpt><trkpt lat="42.3100051" lon="12.2066417"><ele>579.0</ele><time>2026-04-30T14:29:57.98Z</time></trkpt><trkpt lat="42.3101554" lon="12.2067899"><ele>583.0</ele><time>2026-04-30T14:29:58.98Z</time></trkpt><trkpt lat="42.3103276" lon="12.2069695"><ele>587.0</ele><time>2026-04-30T14:29:59.98Z</time></trkpt><trkpt lat="42.3105138" lon="12.207185"><ele>590.0</ele><time>2026-04-30T14:30:00.98Z</time></trkpt><trkpt lat="42.3106974" lon="12.2074013"><ele>593.0</ele><time>2026-04-30T14:30:01.98Z</time></trkpt><trkpt lat="42.310863" lon="12.2076013"><ele>593.0</ele><time>2026-04-30T14:30:02.98Z</time></trkpt><trkpt lat="42.3110255" lon="12.2077961"><ele>593.0</ele><time>2026-04-30T14:30:03.981Z</time></trkpt><trkpt lat="42.3111808" lon="12.2079816"><ele>593.0</ele><time>2026-04-30T14:30:04.98Z</time></trkpt><trkpt lat="42.3113348" lon="12.2081668"><ele>594.3333333333333</ele><time>2026-04-30T14:30:05.981Z</time></trkpt><trkpt lat="42.3114795" lon="12.2083459"><ele>595.6666666666666</ele><time>2026-04-30T14:30:06.981Z</time></trkpt><trkpt lat="42.3116208" lon="12.208521"><ele>597.0</ele><time>2026-04-30T14:30:07.98Z</time></trkpt><trkpt lat="42.311757" lon="12.2086869"><ele>597.0</ele><time>2026-04-30T14:30:08.98Z</time></trkpt><trkpt lat="42.3119032" lon="12.2088387"><ele>597.0</ele><time>2026-04-30T14:30:09.98Z</time></trkpt><trkpt lat="42.3120562" lon="12.2089798"><ele>597.0</ele><time>2026-04-30T14:30:10.98Z</time></trkpt><trkpt lat="42.3122303" lon="12.2090989"><ele>598.0</ele><time>2026-04-30T14:30:11.98Z</time></trkpt><trkpt lat="42.3124147" lon="12.2091943"><ele>599.0</ele><time>2026-04-30T14:30:12.98Z</time></trkpt><trkpt lat="42.3126148" lon="12.2092787"><ele>600.0</ele><time>2026-04-30T14:30:13.98Z</time></trkpt><trkpt lat="42.3128363" lon="12.209352"><ele>602.0</ele><time>2026-04-30T14:30:14.98Z</time></trkpt><trkpt lat="42.3130745" lon="12.2094216"><ele>604.0</ele><time>2026-04-30T14:30:15.98Z</time></trkpt><trkpt lat="42.313323" lon="12.2094884"><ele>604.0</ele><time>2026-04-30T14:30:16.98Z</time></trkpt><trkpt lat="42.3135649" lon="12.209561"><ele>604.0</ele><time>2026-04-30T14:30:17.981Z</time></trkpt><trkpt lat="42.3137828" lon="12.2096377"><ele>605.0</ele><time>2026-04-30T14:30:18.98Z</time></trkpt><trkpt lat="42.3139921" lon="12.2097188"><ele>606.0</ele><time>2026-04-30T14:30:19.98Z</time></trkpt><trkpt lat="42.3142066" lon="12.2097925"><ele>607.0</ele><time>2026-04-30T14:30:20.98Z</time></trkpt><trkpt lat="42.3144156" lon="12.2098653"><ele>607.0</ele><time>2026-04-30T14:30:21.98Z</time></trkpt><trkpt lat="42.3146246" lon="12.2099245"><ele>607.0</ele><time>2026-04-30T14:30:22.98Z</time></trkpt><trkpt lat="42.3148384" lon="12.2099725"><ele>607.0</ele><time>2026-04-30T14:30:23.98Z</time></trkpt><trkpt lat="42.3150657" lon="12.2099936"><ele>609.5</ele><time>2026-04-30T14:30:24.981Z</time></trkpt><trkpt lat="42.3153218" lon="12.2099848"><ele>612.0</ele><time>2026-04-30T14:30:25.98Z</time></trkpt><trkpt lat="42.3156019" lon="12.2099768"><ele>612.5</ele><time>2026-04-30T14:30:26.98Z</time></trkpt><trkpt lat="42.3158927" lon="12.2099751"><ele>613.0</ele><time>2026-04-30T14:30:27.981Z</time></trkpt><trkpt lat="42.3161778" lon="12.2099642"><ele>614.5</ele><time>2026-04-30T14:30:28.981Z</time></trkpt><trkpt lat="42.3164499" lon="12.2099512"><ele>616.0</ele><time>2026-04-30T14:30:29.981Z</time></trkpt><trkpt lat="42.3167078" lon="12.2099554"><ele>616.0</ele><time>2026-04-30T14:30:30.98Z</time></trkpt><trkpt lat="42.3169497" lon="12.2099855"><ele>616.0</ele><time>2026-04-30T14:30:31.98Z</time></trkpt><trkpt lat="42.3171893" lon="12.2100675"><ele>618.0</ele><time>2026-04-30T14:30:32.981Z</time></trkpt><trkpt lat="42.3174218" lon="12.210213"><ele>620.0</ele><time>2026-04-30T14:30:33.98Z</time></trkpt><trkpt lat="42.3176447" lon="12.210416"><ele>620.0</ele><time>2026-04-30T14:30:34.98Z</time></trkpt><trkpt lat="42.3178763" lon="12.2106327"><ele>620.0</ele><time>2026-04-30T14:30:35.98Z</time></trkpt><trkpt lat="42.3181093" lon="12.2108444"><ele>621.5</ele><time>2026-04-30T14:30:36.981Z</time></trkpt><trkpt lat="42.3183407" lon="12.2110583"><ele>623.0</ele><time>2026-04-30T14:30:37.981Z</time></trkpt><trkpt lat="42.3185752" lon="12.211259"><ele>623.0</ele><time>2026-04-30T14:30:38.98Z</time></trkpt><trkpt lat="42.3188167" lon="12.2114639"><ele>623.0</ele><time>2026-04-30T14:30:39.981Z</time></trkpt><trkpt lat="42.3190681" lon="12.2116607"><ele>626.0</ele><time>2026-04-30T14:30:40.98Z</time></trkpt><trkpt lat="42.3193285" lon="12.211852"><ele>629.0</ele><time>2026-04-30T14:30:41.98Z</time></trkpt><trkpt lat="42.3195954" lon="12.2120299"><ele>628.5</ele><time>2026-04-30T14:30:42.98Z</time></trkpt><trkpt lat="42.3198677" lon="12.2122"><ele>628.0</ele><time>2026-04-30T14:30:43.98Z</time></trkpt><trkpt lat="42.320146" lon="12.2123746"><ele>630.5</ele><time>2026-04-30T14:30:44.981Z</time></trkpt><trkpt lat="42.3204271" lon="12.2125463"><ele>633.0</ele><time>2026-04-30T14:30:45.98Z</time></trkpt><trkpt lat="42.3207055" lon="12.2127202"><ele>635.5</ele><time>2026-04-30T14:30:46.98Z</time></trkpt><trkpt lat="42.3209718" lon="12.2128861"><ele>638.0</ele><time>2026-04-30T14:30:47.981Z</time></trkpt><trkpt lat="42.3212312" lon="12.2130426"><ele>641.5</ele><time>2026-04-30T14:30:48.98Z</time></trkpt><trkpt lat="42.321485" lon="12.2131866"><ele>645.0</ele><time>2026-04-30T14:30:49.98Z</time></trkpt><trkpt lat="42.3217239" lon="12.213319"><ele>645.0</ele><time>2026-04-30T14:30:50.98Z</time></trkpt><trkpt lat="42.3219509" lon="12.2134475"><ele>645.0</ele><time>2026-04-30T14:30:51.98Z</time></trkpt><trkpt lat="42.3221592" lon="12.2135628"><ele>646.6666666666666</ele><time>2026-04-30T14:30:52.98Z</time></trkpt><trkpt lat="42.3223439" lon="12.213679"><ele>648.3333333333333</ele><time>2026-04-30T14:30:53.98Z</time></trkpt><trkpt lat="42.3225141" lon="12.213786"><ele>650.0</ele><time>2026-04-30T14:30:54.98Z</time></trkpt><trkpt lat="42.3226671" lon="12.2138709"><ele>650.0</ele><time>2026-04-30T14:30:55.981Z</time></trkpt><trkpt lat="42.322808" lon="12.2139468"><ele>650.0</ele><time>2026-04-30T14:30:56.981Z</time></trkpt><trkpt lat="42.3229371" lon="12.214019"><ele>650.0</ele><time>2026-04-30T14:30:57.981Z</time></trkpt><trkpt lat="42.3230848" lon="12.2140836"><ele>650.0</ele><time>2026-04-30T14:30:58.981Z</time></trkpt><trkpt lat="42.323256" lon="12.2141425"><ele>652.3333333333333</ele><time>2026-04-30T14:30:59.98Z</time></trkpt><trkpt lat="42.3234528" lon="12.2142249"><ele>654.6666666666666</ele><time>2026-04-30T14:31:00.98Z</time></trkpt><trkpt lat="42.3236633" lon="12.2143153"><ele>657.0</ele><time>2026-04-30T14:31:01.98Z</time></trkpt><trkpt lat="42.3238865" lon="12.2143961"><ele>660.0</ele><time>2026-04-30T14:31:02.981Z</time></trkpt><trkpt lat="42.3241089" lon="12.2144725"><ele>663.0</ele><time>2026-04-30T14:31:03.98Z</time></trkpt><trkpt lat="42.3243388" lon="12.2145466"><ele>663.0</ele><time>2026-04-30T14:31:04.981Z</time></trkpt><trkpt lat="42.3245728" lon="12.2145997"><ele>663.0</ele><time>2026-04-30T14:31:05.98Z</time></trkpt><trkpt lat="42.3248126" lon="12.2146472"><ele>664.0</ele><time>2026-04-30T14:31:06.98Z</time></trkpt><trkpt lat="42.3250573" lon="12.2146634"><ele>665.0</ele><time>2026-04-30T14:31:07.981Z</time></trkpt><trkpt lat="42.3253094" lon="12.2146639"><ele>665.0</ele><time>2026-04-30T14:31:08.98Z</time></trkpt><trkpt lat="42.325552" lon="12.2146637"><ele>665.0</ele><time>2026-04-30T14:31:09.98Z</time></trkpt><trkpt lat="42.325791" lon="12.2146657"><ele>666.3333333333333</ele><time>2026-04-30T14:31:10.98Z</time></trkpt><trkpt lat="42.3260195" lon="12.2146623"><ele>667.6666666666666</ele><time>2026-04-30T14:31:11.981Z</time></trkpt><trkpt lat="42.3262327" lon="12.2146632"><ele>669.0</ele><time>2026-04-30T14:31:12.98Z</time></trkpt><trkpt lat="42.3264251" lon="12.2146629"><ele>669.3333333333334</ele><time>2026-04-30T14:31:13.981Z</time></trkpt><trkpt lat="42.3266026" lon="12.2146573"><ele>669.6666666666667</ele><time>2026-04-30T14:31:14.98Z</time></trkpt><trkpt lat="42.3267838" lon="12.2146543"><ele>670.0</ele><time>2026-04-30T14:31:15.981Z</time></trkpt><trkpt lat="42.3269517" lon="12.2146513"><ele>670.0</ele><time>2026-04-30T14:31:16.981Z</time></trkpt><trkpt lat="42.3271076" lon="12.2146537"><ele>670.0</ele><time>2026-04-30T14:31:17.98Z</time></trkpt><trkpt lat="42.3272505" lon="12.2146546"><ele>670.0</ele><time>2026-04-30T14:31:18.98Z</time></trkpt><trkpt lat="42.3273815" lon="12.2146659"><ele>670.0</ele><time>2026-04-30T14:31:19.98Z</time></trkpt><trkpt lat="42.3275073" lon="12.2146793"><ele>671.6666666666667</ele><time>2026-04-30T14:31:20.981Z</time></trkpt><trkpt lat="42.3276387" lon="12.2146967"><ele>673.3333333333334</ele><time>2026-04-30T14:31:21.981Z</time></trkpt><trkpt lat="42.3277897" lon="12.2147292"><ele>675.0</ele><time>2026-04-30T14:31:22.98Z</time></trkpt><trkpt lat="42.3279649" lon="12.2148098"><ele>677.0</ele><time>2026-04-30T14:31:23.981Z</time></trkpt><trkpt lat="42.3281508" lon="12.2149031"><ele>679.0</ele><time>2026-04-30T14:31:24.981Z</time></trkpt><trkpt lat="42.3283475" lon="12.2150021"><ele>681.0</ele><time>2026-04-30T14:31:25.981Z</time></trkpt><trkpt lat="42.3285462" lon="12.2151081"><ele>681.0</ele><time>2026-04-30T14:31:26.98Z</time></trkpt><trkpt lat="42.3287482" lon="12.2152144"><ele>681.0</ele><time>2026-04-30T14:31:27.98Z</time></trkpt><trkpt lat="42.3289537" lon="12.2153341"><ele>681.0</ele><time>2026-04-30T14:31:28.98Z</time></trkpt><trkpt lat="42.3291632" lon="12.2154607"><ele>681.5</ele><time>2026-04-30T14:31:29.98Z</time></trkpt><trkpt lat="42.329372" lon="12.2155872"><ele>682.0</ele><time>2026-04-30T14:31:30.981Z</time></trkpt><trkpt lat="42.3295875" lon="12.215711"><ele>684.5</ele><time>2026-04-30T14:31:31.98Z</time></trkpt><trkpt lat="42.3298092" lon="12.2158279"><ele>687.0</ele><time>2026-04-30T14:31:32.981Z</time></trkpt><trkpt lat="42.3300388" lon="12.2159343"><ele>687.0</ele><time>2026-04-30T14:31:33.98Z</time></trkpt><trkpt lat="42.3302748" lon="12.2160365"><ele>687.0</ele><time>2026-04-30T14:31:34.98Z</time></trkpt><trkpt lat="42.3305148" lon="12.2161169"><ele>690.0</ele><time>2026-04-30T14:31:35.98Z</time></trkpt><trkpt lat="42.3307482" lon="12.2161806"><ele>693.0</ele><time>2026-04-30T14:31:36.98Z</time></trkpt><trkpt lat="42.330974" lon="12.2162259"><ele>693.0</ele><time>2026-04-30T14:31:37.98Z</time></trkpt><trkpt lat="42.3311913" lon="12.2162365"><ele>693.0</ele><time>2026-04-30T14:31:38.98Z</time></trkpt><trkpt lat="42.3314152" lon="12.2162282"><ele>693.0</ele><time>2026-04-30T14:31:39.981Z</time></trkpt><trkpt lat="42.3316235" lon="12.2162466"><ele>693.6666666666666</ele><time>2026-04-30T14:31:40.981Z</time></trkpt><trkpt lat="42.3318237" lon="12.2162788"><ele>694.3333333333333</ele><time>2026-04-30T14:31:41.98Z</time></trkpt><trkpt lat="42.332019" lon="12.2163239"><ele>695.0</ele><time>2026-04-30T14:31:42.98Z</time></trkpt><trkpt lat="42.3322101" lon="12.2163726"><ele>695.6666666666666</ele><time>2026-04-30T14:31:43.98Z</time></trkpt><trkpt lat="42.3323893" lon="12.2164207"><ele>696.3333333333334</ele><time>2026-04-30T14:31:44.98Z</time></trkpt><trkpt lat="42.332555" lon="12.2164666"><ele>697.0</ele><time>2026-04-30T14:31:45.98Z</time></trkpt><trkpt lat="42.3326948" lon="12.2165201"><ele>697.8</ele><time>2026-04-30T14:31:46.98Z</time></trkpt><trkpt lat="42.332812" lon="12.2165576"><ele>698.6</ele><time>2026-04-30T14:31:47.98Z</time></trkpt><trkpt lat="42.332911" lon="12.2165885"><ele>699.4</ele><time>2026-04-30T14:31:48.98Z</time></trkpt><trkpt lat="42.3330035" lon="12.2166181"><ele>700.1999999999999</ele><time>2026-04-30T14:31:49.981Z</time></trkpt><trkpt lat="42.3330953" lon="12.2166551"><ele>701.0</ele><time>2026-04-30T14:31:50.981Z</time></trkpt><trkpt lat="42.33319" lon="12.2166909"><ele>702.4</ele><time>2026-04-30T14:31:51.98Z</time></trkpt><trkpt lat="42.3332901" lon="12.2167188"><ele>703.8</ele><time>2026-04-30T14:31:52.98Z</time></trkpt><trkpt lat="42.3333941" lon="12.2167447"><ele>705.1999999999999</ele><time>2026-04-30T14:31:53.98Z</time></trkpt><trkpt lat="42.3335012" lon="12.2167608"><ele>706.5999999999999</ele><time>2026-04-30T14:31:54.98Z</time></trkpt><trkpt lat="42.3336112" lon="12.2167741"><ele>708.0</ele><time>2026-04-30T14:31:55.98Z</time></trkpt><trkpt lat="42.3337213" lon="12.2167619"><ele>708.0</ele><time>2026-04-30T14:31:56.98Z</time></trkpt><trkpt lat="42.3338371" lon="12.2167195"><ele>708.0</ele><time>2026-04-30T14:31:57.98Z</time></trkpt><trkpt lat="42.3339791" lon="12.2166623"><ele>708.0</ele><time>2026-04-30T14:31:58.981Z</time></trkpt><trkpt lat="42.3341433" lon="12.2166005"><ele>708.0</ele><time>2026-04-30T14:31:59.98Z</time></trkpt><trkpt lat="42.3343274" lon="12.2165298"><ele>708.6666666666666</ele><time>2026-04-30T14:32:00.981Z</time></trkpt><trkpt lat="42.3345269" lon="12.2164544"><ele>709.3333333333333</ele><time>2026-04-30T14:32:01.98Z</time></trkpt><trkpt lat="42.3347364" lon="12.2163648"><ele>710.0</ele><time>2026-04-30T14:32:02.98Z</time></trkpt><trkpt lat="42.3349511" lon="12.2162677"><ele>712.0</ele><time>2026-04-30T14:32:03.981Z</time></trkpt><trkpt lat="42.3351549" lon="12.2161721"><ele>714.0</ele><time>2026-04-30T14:32:04.98Z</time></trkpt><trkpt lat="42.3353618" lon="12.2160797"><ele>716.0</ele><time>2026-04-30T14:32:05.98Z</time></trkpt><trkpt lat="42.3355687" lon="12.2159802"><ele>715.6666666666666</ele><time>2026-04-30T14:32:06.981Z</time></trkpt><trkpt lat="42.3357774" lon="12.2158686"><ele>715.3333333333334</ele><time>2026-04-30T14:32:07.98Z</time></trkpt><trkpt lat="42.3359831" lon="12.2157482"><ele>715.0</ele><time>2026-04-30T14:32:08.98Z</time></trkpt><trkpt lat="42.3361881" lon="12.2156436"><ele>715.3333333333334</ele><time>2026-04-30T14:32:09.981Z</time></trkpt><trkpt lat="42.3363967" lon="12.2155654"><ele>715.6666666666666</ele><time>2026-04-30T14:32:10.98Z</time></trkpt><trkpt lat="42.3366196" lon="12.2155342"><ele>716.0</ele><time>2026-04-30T14:32:11.981Z</time></trkpt><trkpt lat="42.336848" lon="12.2155282"><ele>716.0</ele><time>2026-04-30T14:32:12.981Z</time></trkpt><trkpt lat="42.337087" lon="12.2155096"><ele>716.0</ele><time>2026-04-30T14:32:13.981Z</time></trkpt><trkpt lat="42.3373315" lon="12.2155053"><ele>717.5</ele><time>2026-04-30T14:32:14.981Z</time></trkpt><trkpt lat="42.3375731" lon="12.215489"><ele>719.0</ele><time>2026-04-30T14:32:15.981Z</time></trkpt><trkpt lat="42.337816" lon="12.2154781"><ele>716.5</ele><time>2026-04-30T14:32:16.98Z</time></trkpt><trkpt lat="42.3380612" lon="12.2154617"><ele>714.0</ele><time>2026-04-30T14:32:17.98Z</time></trkpt><trkpt lat="42.3383005" lon="12.2154379"><ele>714.0</ele><time>2026-04-30T14:32:18.98Z</time></trkpt><trkpt lat="42.3385282" lon="12.2154121"><ele>714.0</ele><time>2026-04-30T14:32:19.98Z</time></trkpt><trkpt lat="42.3387515" lon="12.2153971"><ele>712.6666666666666</ele><time>2026-04-30T14:32:20.98Z</time></trkpt><trkpt lat="42.3389741" lon="12.2153771"><ele>711.3333333333333</ele><time>2026-04-30T14:32:21.981Z</time></trkpt><trkpt lat="42.3391958" lon="12.2153567"><ele>710.0</ele><time>2026-04-30T14:32:22.98Z</time></trkpt><trkpt lat="42.3394184" lon="12.2153121"><ele>710.0</ele><time>2026-04-30T14:32:23.98Z</time></trkpt><trkpt lat="42.3396399" lon="12.2152259"><ele>710.0</ele><time>2026-04-30T14:32:24.981Z</time></trkpt><trkpt lat="42.3398529" lon="12.21512"><ele>711.0</ele><time>2026-04-30T14:32:25.98Z</time></trkpt><trkpt lat="42.3400429" lon="12.2150217"><ele>712.0</ele><time>2026-04-30T14:32:26.98Z</time></trkpt><trkpt lat="42.3402159" lon="12.2149405"><ele>713.0</ele><time>2026-04-30T14:32:27.98Z</time></trkpt><trkpt lat="42.3403693" lon="12.2148701"><ele>711.3333333333333</ele><time>2026-04-30T14:32:28.981Z</time></trkpt><trkpt lat="42.3405163" lon="12.2148079"><ele>709.6666666666666</ele><time>2026-04-30T14:32:29.98Z</time></trkpt><trkpt lat="42.340673" lon="12.2147332"><ele>708.0</ele><time>2026-04-30T14:32:30.981Z</time></trkpt><trkpt lat="42.3408514" lon="12.2146599"><ele>708.0</ele><time>2026-04-30T14:32:31.98Z</time></trkpt><trkpt lat="42.3410609" lon="12.2145799"><ele>708.0</ele><time>2026-04-30T14:32:32.98Z</time></trkpt><trkpt lat="42.3412761" lon="12.2145107"><ele>708.0</ele><time>2026-04-30T14:32:33.98Z</time></trkpt><trkpt lat="42.3415002" lon="12.2144386"><ele>710.3333333333334</ele><time>2026-04-30T14:32:34.98Z</time></trkpt><trkpt lat="42.3417194" lon="12.2143807"><ele>712.6666666666667</ele><time>2026-04-30T14:32:35.98Z</time></trkpt><trkpt lat="42.3419309" lon="12.2143264"><ele>715.0</ele><time>2026-04-30T14:32:36.98Z</time></trkpt><trkpt lat="42.3421333" lon="12.2142694"><ele>715.6666666666667</ele><time>2026-04-30T14:32:37.981Z</time></trkpt><trkpt lat="42.3423408" lon="12.2142151"><ele>716.3333333333334</ele><time>2026-04-30T14:32:38.98Z</time></trkpt><trkpt lat="42.3425429" lon="12.2141596"><ele>717.0</ele><time>2026-04-30T14:32:39.98Z</time></trkpt><trkpt lat="42.3427363" lon="12.2141189"><ele>717.0</ele><time>2026-04-30T14:32:40.98Z</time></trkpt><trkpt lat="42.3429135" lon="12.21409"><ele>717.0</ele><time>2026-04-30T14:32:41.981Z</time></trkpt><trkpt lat="42.3430846" lon="12.2140703"><ele>717.0</ele><time>2026-04-30T14:32:42.98Z</time></trkpt><trkpt lat="42.3432514" lon="12.2140497"><ele>716.3333333333334</ele><time>2026-04-30T14:32:43.981Z</time></trkpt><trkpt lat="42.3434285" lon="12.2140319"><ele>715.6666666666667</ele><time>2026-04-30T14:32:44.981Z</time></trkpt><trkpt lat="42.3436048" lon="12.214009"><ele>715.0</ele><time>2026-04-30T14:32:45.98Z</time></trkpt><trkpt lat="42.3437919" lon="12.2139831"><ele>718.0</ele><time>2026-04-30T14:32:46.98Z</time></trkpt><trkpt lat="42.3439763" lon="12.2139325"><ele>721.0</ele><time>2026-04-30T14:32:47.981Z</time></trkpt><trkpt lat="42.3441674" lon="12.213842"><ele>724.0</ele><time>2026-04-30T14:32:48.98Z</time></trkpt><trkpt lat="42.34435" lon="12.2137143"><ele>724.0</ele><time>2026-04-30T14:32:49.98Z</time></trkpt><trkpt lat="42.3445107" lon="12.2135711"><ele>724.0</ele><time>2026-04-30T14:32:50.98Z</time></trkpt><trkpt lat="42.3446519" lon="12.213434"><ele>724.0</ele><time>2026-04-30T14:32:51.98Z</time></trkpt><trkpt lat="42.344796" lon="12.2132944"><ele>723.3333333333334</ele><time>2026-04-30T14:32:52.98Z</time></trkpt><trkpt lat="42.3449313" lon="12.2131675"><ele>722.6666666666666</ele><time>2026-04-30T14:32:53.98Z</time></trkpt><trkpt lat="42.3450634" lon="12.2130689"><ele>722.0</ele><time>2026-04-30T14:32:54.98Z</time></trkpt><trkpt lat="42.3452005" lon="12.213008"><ele>722.0</ele><time>2026-04-30T14:32:55.981Z</time></trkpt><trkpt lat="42.3453255" lon="12.2129887"><ele>722.0</ele><time>2026-04-30T14:32:56.98Z</time></trkpt><trkpt lat="42.3454586" lon="12.213"><ele>722.0</ele><time>2026-04-30T14:32:57.98Z</time></trkpt><trkpt lat="42.3456017" lon="12.2130086"><ele>722.0</ele><time>2026-04-30T14:32:58.981Z</time></trkpt><trkpt lat="42.3457426" lon="12.2130131"><ele>723.0</ele><time>2026-04-30T14:32:59.98Z</time></trkpt><trkpt lat="42.345894" lon="12.2130017"><ele>724.0</ele><time>2026-04-30T14:33:00.98Z</time></trkpt><trkpt lat="42.3460398" lon="12.2129611"><ele>725.0</ele><time>2026-04-30T14:33:01.98Z</time></trkpt><trkpt lat="42.3461892" lon="12.2128584"><ele>725.0</ele><time>2026-04-30T14:33:02.98Z</time></trkpt><trkpt lat="42.3463181" lon="12.2127266"><ele>725.0</ele><time>2026-04-30T14:33:03.981Z</time></trkpt><trkpt lat="42.3464305" lon="12.2125775"><ele>725.0</ele><time>2026-04-30T14:33:04.98Z</time></trkpt><trkpt lat="42.346535" lon="12.2124144"><ele>726.3333333333333</ele><time>2026-04-30T14:33:05.981Z</time></trkpt><trkpt lat="42.3466284" lon="12.2122545"><ele>727.6666666666666</ele><time>2026-04-30T14:33:06.98Z</time></trkpt><trkpt lat="42.3467201" lon="12.2120882"><ele>729.0</ele><time>2026-04-30T14:33:07.981Z</time></trkpt><trkpt lat="42.3468173" lon="12.2119257"><ele>729.0</ele><time>2026-04-30T14:33:08.98Z</time></trkpt><trkpt lat="42.3469339" lon="12.2117618"><ele>729.0</ele><time>2026-04-30T14:33:09.98Z</time></trkpt><trkpt lat="42.3470634" lon="12.2116029"><ele>729.0</ele><time>2026-04-30T14:33:10.98Z</time></trkpt><trkpt lat="42.3472308" lon="12.2114483"><ele>729.0</ele><time>2026-04-30T14:33:11.98Z</time></trkpt><trkpt lat="42.3474275" lon="12.2112783"><ele>729.0</ele><time>2026-04-30T14:33:12.98Z</time></trkpt><trkpt lat="42.3476498" lon="12.2110966"><ele>729.0</ele><time>2026-04-30T14:33:13.98Z</time></trkpt><trkpt lat="42.3478803" lon="12.2109192"><ele>729.0</ele><time>2026-04-30T14:33:14.98Z</time></trkpt><trkpt lat="42.3480799" lon="12.210799"><ele>731.0</ele><time>2026-04-30T14:33:15.98Z</time></trkpt><trkpt lat="42.3482579" lon="12.210757"><ele>733.0</ele><time>2026-04-30T14:33:16.981Z</time></trkpt><trkpt lat="42.3484067" lon="12.2107958"><ele>735.0</ele><time>2026-04-30T14:33:17.98Z</time></trkpt><trkpt lat="42.3485672" lon="12.2109126"><ele>735.0</ele><time>2026-04-30T14:33:18.98Z</time></trkpt><trkpt lat="42.3487456" lon="12.2110539"><ele>735.0</ele><time>2026-04-30T14:33:19.98Z</time></trkpt><trkpt lat="42.3489419" lon="12.21118"><ele>735.0</ele><time>2026-04-30T14:33:20.981Z</time></trkpt><trkpt lat="42.3491303" lon="12.2112638"><ele>737.25</ele><time>2026-04-30T14:33:21.98Z</time></trkpt><trkpt lat="42.3493017" lon="12.2112873"><ele>739.5</ele><time>2026-04-30T14:33:22.981Z</time></trkpt><trkpt lat="42.3494454" lon="12.2112375"><ele>741.75</ele><time>2026-04-30T14:33:23.981Z</time></trkpt><trkpt lat="42.3495392" lon="12.2111249"><ele>744.0</ele><time>2026-04-30T14:33:24.981Z</time></trkpt><trkpt lat="42.3495894" lon="12.2109645"><ele>744.0</ele><time>2026-04-30T14:33:25.98Z</time></trkpt><trkpt lat="42.3496087" lon="12.2107669"><ele>744.0</ele><time>2026-04-30T14:33:26.98Z</time></trkpt><trkpt lat="42.349628" lon="12.2105373"><ele>744.0</ele><time>2026-04-30T14:33:27.98Z</time></trkpt><trkpt lat="42.3496775" lon="12.2103093"><ele>746.6666666666666</ele><time>2026-04-30T14:33:28.98Z</time></trkpt><trkpt lat="42.3497498" lon="12.210084"><ele>749.3333333333333</ele><time>2026-04-30T14:33:29.981Z</time></trkpt><trkpt lat="42.3498359" lon="12.2098471"><ele>752.0</ele><time>2026-04-30T14:33:30.98Z</time></trkpt><trkpt lat="42.3499415" lon="12.209601"><ele>755.3333333333333</ele><time>2026-04-30T14:33:31.981Z</time></trkpt><trkpt lat="42.3500528" lon="12.2093483"><ele>758.6666666666666</ele><time>2026-04-30T14:33:32.98Z</time></trkpt><trkpt lat="42.3501739" lon="12.2090809"><ele>762.0</ele><time>2026-04-30T14:33:33.98Z</time></trkpt><trkpt lat="42.3502928" lon="12.2088055"><ele>762.6666666666666</ele><time>2026-04-30T14:33:34.98Z</time></trkpt><trkpt lat="42.3504213" lon="12.2085557"><ele>763.3333333333333</ele><time>2026-04-30T14:33:35.98Z</time></trkpt><trkpt lat="42.3505578" lon="12.2083474"><ele>764.0</ele><time>2026-04-30T14:33:36.981Z</time></trkpt><trkpt lat="42.3507252" lon="12.2082081"><ele>769.0</ele><time>2026-04-30T14:33:37.98Z</time></trkpt><trkpt lat="42.3509007" lon="12.2081283"><ele>774.0</ele><time>2026-04-30T14:33:38.98Z</time></trkpt><trkpt lat="42.3510785" lon="12.2081163"><ele>779.0</ele><time>2026-04-30T14:33:39.981Z</time></trkpt><trkpt lat="42.3512288" lon="12.2081213"><ele>779.0</ele><time>2026-04-30T14:33:40.98Z</time></trkpt><trkpt lat="42.3513541" lon="12.2080973"><ele>779.0</ele><time>2026-04-30T14:33:41.98Z</time></trkpt><trkpt lat="42.3514524" lon="12.2080486"><ele>779.0</ele><time>2026-04-30T14:33:42.98Z</time></trkpt><trkpt lat="42.3515317" lon="12.2079718"><ele>779.0</ele><time>2026-04-30T14:33:43.98Z</time></trkpt><trkpt lat="42.3515981" lon="12.2078537"><ele>779.0</ele><time>2026-04-30T14:33:44.981Z</time></trkpt><trkpt lat="42.3516584" lon="12.2076787"><ele>780.6666666666667</ele><time>2026-04-30T14:33:45.981Z</time></trkpt><trkpt lat="42.3517253" lon="12.2074636"><ele>782.3333333333333</ele><time>2026-04-30T14:33:46.98Z</time></trkpt><trkpt lat="42.3518076" lon="12.2072415"><ele>784.0</ele><time>2026-04-30T14:33:47.98Z</time></trkpt><trkpt lat="42.3519099" lon="12.2070259"><ele>784.6666666666666</ele><time>2026-04-30T14:33:48.981Z</time></trkpt><trkpt lat="42.3520271" lon="12.2068498"><ele>785.3333333333333</ele><time>2026-04-30T14:33:49.98Z</time></trkpt><trkpt lat="42.3521747" lon="12.2067335"><ele>786.0</ele><time>2026-04-30T14:33:50.981Z</time></trkpt><trkpt lat="42.352342" lon="12.2067003"><ele>788.3333333333333</ele><time>2026-04-30T14:33:51.98Z</time></trkpt><trkpt lat="42.3525109" lon="12.2067676"><ele>790.6666666666666</ele><time>2026-04-30T14:33:52.98Z</time></trkpt><trkpt lat="42.3526757" lon="12.2069128"><ele>793.0</ele><time>2026-04-30T14:33:53.98Z</time></trkpt><trkpt lat="42.3528216" lon="12.2070796"><ele>793.0</ele><time>2026-04-30T14:33:54.981Z</time></trkpt><trkpt lat="42.3529604" lon="12.2072054"><ele>793.0</ele><time>2026-04-30T14:33:55.98Z</time></trkpt><trkpt lat="42.3530922" lon="12.2072681"><ele>793.0</ele><time>2026-04-30T14:33:56.981Z</time></trkpt><trkpt lat="42.3532088" lon="12.2072594"><ele>793.0</ele><time>2026-04-30T14:33:57.98Z</time></trkpt><trkpt lat="42.3532924" lon="12.2071737"><ele>797.0</ele><time>2026-04-30T14:33:58.981Z</time></trkpt><trkpt lat="42.3533575" lon="12.207028"><ele>801.0</ele><time>2026-04-30T14:33:59.98Z</time></trkpt><trkpt lat="42.35341" lon="12.206827"><ele>805.0</ele><time>2026-04-30T14:34:00.98Z</time></trkpt><trkpt lat="42.3534641" lon="12.2065953"><ele>806.6666666666666</ele><time>2026-04-30T14:34:01.98Z</time></trkpt><trkpt lat="42.3535402" lon="12.2063554"><ele>808.3333333333333</ele><time>2026-04-30T14:34:02.98Z</time></trkpt><trkpt lat="42.3536442" lon="12.2061086"><ele>810.0</ele><time>2026-04-30T14:34:03.98Z</time></trkpt><trkpt lat="42.3537762" lon="12.2058568"><ele>814.0</ele><time>2026-04-30T14:34:04.98Z</time></trkpt><trkpt lat="42.3539257" lon="12.2056183"><ele>818.0</ele><time>2026-04-30T14:34:05.98Z</time></trkpt><trkpt lat="42.3540826" lon="12.2053894"><ele>818.0</ele><time>2026-04-30T14:34:06.98Z</time></trkpt><trkpt lat="42.3542437" lon="12.2051904"><ele>818.0</ele><time>2026-04-30T14:34:07.981Z</time></trkpt><trkpt lat="42.354399" lon="12.2049793"><ele>818.0</ele><time>2026-04-30T14:34:08.981Z</time></trkpt><trkpt lat="42.3545265" lon="12.2047347"><ele>819.0</ele><time>2026-04-30T14:34:09.98Z</time></trkpt><trkpt lat="42.3546345" lon="12.2044458"><ele>820.0</ele><time>2026-04-30T14:34:10.981Z</time></trkpt><trkpt lat="42.3547196" lon="12.2041383"><ele>821.0</ele><time>2026-04-30T14:34:11.981Z</time></trkpt><trkpt lat="42.3548004" lon="12.203823"><ele>822.0</ele><time>2026-04-30T14:34:12.98Z</time></trkpt><trkpt lat="42.3548834" lon="12.2035075"><ele>822.0</ele><time>2026-04-30T14:34:13.981Z</time></trkpt><trkpt lat="42.3549724" lon="12.2031873"><ele>822.0</ele><time>2026-04-30T14:34:14.98Z</time></trkpt><trkpt lat="42.3550643" lon="12.202867"><ele>823.0</ele><time>2026-04-30T14:34:15.981Z</time></trkpt><trkpt lat="42.3551598" lon="12.2025533"><ele>824.0</ele><time>2026-04-30T14:34:16.98Z</time></trkpt><trkpt lat="42.3552558" lon="12.2022537"><ele>825.6666666666667</ele><time>2026-04-30T14:34:17.98Z</time></trkpt><trkpt lat="42.3553508" lon="12.2019765"><ele>827.3333333333333</ele><time>2026-04-30T14:34:18.981Z</time></trkpt><trkpt lat="42.3554539" lon="12.2017161"><ele>829.0</ele><time>2026-04-30T14:34:19.98Z</time></trkpt><trkpt lat="42.355581" lon="12.2014686"><ele>831.0</ele><time>2026-04-30T14:34:20.981Z</time></trkpt><trkpt lat="42.3557427" lon="12.2012397"><ele>833.0</ele><time>2026-04-30T14:34:21.98Z</time></trkpt><trkpt lat="42.3559275" lon="12.2010401"><ele>833.0</ele><time>2026-04-30T14:34:22.981Z</time></trkpt><trkpt lat="42.3561269" lon="12.2008434"><ele>833.0</ele><time>2026-04-30T14:34:23.981Z</time></trkpt><trkpt lat="42.3563199" lon="12.2006358"><ele>832.5</ele><time>2026-04-30T14:34:24.98Z</time></trkpt><trkpt lat="42.3565197" lon="12.2004153"><ele>832.0</ele><time>2026-04-30T14:34:25.98Z</time></trkpt><trkpt lat="42.356712" lon="12.200184"><ele>832.0</ele><time>2026-04-30T14:34:26.98Z</time></trkpt><trkpt lat="42.3569039" lon="12.1999419"><ele>832.0</ele><time>2026-04-30T14:34:27.98Z</time></trkpt><trkpt lat="42.3570917" lon="12.1996899"><ele>834.0</ele><time>2026-04-30T14:34:28.98Z</time></trkpt><trkpt lat="42.3572656" lon="12.1994367"><ele>836.0</ele><time>2026-04-30T14:34:29.98Z</time></trkpt><trkpt lat="42.357445" lon="12.1991773"><ele>835.5</ele><time>2026-04-30T14:34:30.981Z</time></trkpt><trkpt lat="42.3576405" lon="12.1989141"><ele>835.0</ele><time>2026-04-30T14:34:31.981Z</time></trkpt><trkpt lat="42.3578466" lon="12.1986536"><ele>834.5</ele><time>2026-04-30T14:34:32.98Z</time></trkpt><trkpt lat="42.358066" lon="12.1983929"><ele>834.0</ele><time>2026-04-30T14:34:33.98Z</time></trkpt><trkpt lat="42.3582871" lon="12.1981223"><ele>833.5</ele><time>2026-04-30T14:34:34.981Z</time></trkpt><trkpt lat="42.3585099" lon="12.1978534"><ele>833.0</ele><time>2026-04-30T14:34:35.98Z</time></trkpt><trkpt lat="42.3587192" lon="12.1975759"><ele>835.5</ele><time>2026-04-30T14:34:36.98Z</time></trkpt><trkpt lat="42.3589203" lon="12.1973019"><ele>838.0</ele><time>2026-04-30T14:34:37.98Z</time></trkpt><trkpt lat="42.3591174" lon="12.1970322"><ele>838.0</ele><time>2026-04-30T14:34:38.98Z</time></trkpt><trkpt lat="42.3593098" lon="12.1967618"><ele>838.0</ele><time>2026-04-30T14:34:39.981Z</time></trkpt><trkpt lat="42.3595014" lon="12.1964847"><ele>838.0</ele><time>2026-04-30T14:34:40.981Z</time></trkpt><trkpt lat="42.3596822" lon="12.1962033"><ele>838.0</ele><time>2026-04-30T14:34:41.981Z</time></trkpt><trkpt lat="42.3598542" lon="12.1959162"><ele>835.5</ele><time>2026-04-30T14:34:42.98Z</time></trkpt><trkpt lat="42.3600138" lon="12.1956307"><ele>833.0</ele><time>2026-04-30T14:34:43.98Z</time></trkpt><trkpt lat="42.3601651" lon="12.1953599"><ele>833.0</ele><time>2026-04-30T14:34:44.98Z</time></trkpt><trkpt lat="42.3603121" lon="12.1951064"><ele>833.0</ele><time>2026-04-30T14:34:45.981Z</time></trkpt><trkpt lat="42.3604517" lon="12.1948942"><ele>833.0</ele><time>2026-04-30T14:34:46.98Z</time></trkpt><trkpt lat="42.3605798" lon="12.1947063"><ele>834.6666666666667</ele><time>2026-04-30T14:34:47.98Z</time></trkpt><trkpt lat="42.3606921" lon="12.1945353"><ele>836.3333333333333</ele><time>2026-04-30T14:34:48.98Z</time></trkpt><trkpt lat="42.3607954" lon="12.1943634"><ele>838.0</ele><time>2026-04-30T14:34:49.98Z</time></trkpt><trkpt lat="42.3608902" lon="12.1942015"><ele>838.0</ele><time>2026-04-30T14:34:50.98Z</time></trkpt><trkpt lat="42.3609862" lon="12.1940389"><ele>838.0</ele><time>2026-04-30T14:34:51.981Z</time></trkpt><trkpt lat="42.3610838" lon="12.1938763"><ele>838.0</ele><time>2026-04-30T14:34:52.981Z</time></trkpt><trkpt lat="42.3611774" lon="12.1937065"><ele>839.6666666666666</ele><time>2026-04-30T14:34:53.981Z</time></trkpt><trkpt lat="42.3612712" lon="12.1935311"><ele>841.3333333333333</ele><time>2026-04-30T14:34:54.98Z</time></trkpt><trkpt lat="42.3613666" lon="12.1933536"><ele>843.0</ele><time>2026-04-30T14:34:55.981Z</time></trkpt><trkpt lat="42.3614486" lon="12.1931707"><ele>843.3333333333333</ele><time>2026-04-30T14:34:56.98Z</time></trkpt><trkpt lat="42.3615218" lon="12.1929873"><ele>843.6666666666666</ele><time>2026-04-30T14:34:57.981Z</time></trkpt><trkpt lat="42.361602" lon="12.1928021"><ele>844.0</ele><time>2026-04-30T14:34:58.98Z</time></trkpt><trkpt lat="42.361673" lon="12.1926191"><ele>844.0</ele><time>2026-04-30T14:34:59.98Z</time></trkpt><trkpt lat="42.3617456" lon="12.1924155"><ele>844.0</ele><time>2026-04-30T14:35:00.979Z</time></trkpt><trkpt lat="42.3618064" lon="12.1922026"><ele>844.0</ele><time>2026-04-30T14:35:01.979Z</time></trkpt><trkpt lat="42.3618552" lon="12.1919639"><ele>843.3333333333333</ele><time>2026-04-30T14:35:02.98Z</time></trkpt><trkpt lat="42.3619052" lon="12.1916933"><ele>842.6666666666667</ele><time>2026-04-30T14:35:03.98Z</time></trkpt><trkpt lat="42.3619676" lon="12.1913953"><ele>842.0</ele><time>2026-04-30T14:35:04.979Z</time></trkpt><trkpt lat="42.362033" lon="12.191086"><ele>842.0</ele><time>2026-04-30T14:35:05.979Z</time></trkpt><trkpt lat="42.3620944" lon="12.1908064"><ele>842.0</ele><time>2026-04-30T14:35:06.98Z</time></trkpt><trkpt lat="42.3621352" lon="12.1905662"><ele>842.0</ele><time>2026-04-30T14:35:07.98Z</time></trkpt><trkpt lat="42.3621616" lon="12.1903466"><ele>842.3333333333334</ele><time>2026-04-30T14:35:08.979Z</time></trkpt><trkpt lat="42.3621903" lon="12.1901442"><ele>842.6666666666667</ele><time>2026-04-30T14:35:09.98Z</time></trkpt><trkpt lat="42.3622228" lon="12.1899447"><ele>843.0</ele><time>2026-04-30T14:35:10.979Z</time></trkpt><trkpt lat="42.3622684" lon="12.18975"><ele>847.0</ele><time>2026-04-30T14:35:11.979Z</time></trkpt><trkpt lat="42.3623205" lon="12.1895488"><ele>851.0</ele><time>2026-04-30T14:35:12.979Z</time></trkpt><trkpt lat="42.362393" lon="12.1893142"><ele>855.0</ele><time>2026-04-30T14:35:13.98Z</time></trkpt><trkpt lat="42.3624851" lon="12.1890407"><ele>852.5</ele><time>2026-04-30T14:35:14.979Z</time></trkpt><trkpt lat="42.3626" lon="12.1887317"><ele>850.0</ele><time>2026-04-30T14:35:15.979Z</time></trkpt><trkpt lat="42.3627251" lon="12.1883991"><ele>851.5</ele><time>2026-04-30T14:35:16.979Z</time></trkpt><trkpt lat="42.3628402" lon="12.1880729"><ele>853.0</ele><time>2026-04-30T14:35:17.979Z</time></trkpt><trkpt lat="42.3629483" lon="12.187743"><ele>859.5</ele><time>2026-04-30T14:35:18.979Z</time></trkpt><trkpt lat="42.3630568" lon="12.1874116"><ele>866.0</ele><time>2026-04-30T14:35:19.979Z</time></trkpt><trkpt lat="42.3631648" lon="12.1871186"><ele>865.6666666666667</ele><time>2026-04-30T14:35:20.98Z</time></trkpt><trkpt lat="42.3632566" lon="12.1868836"><ele>865.3333333333333</ele><time>2026-04-30T14:35:21.98Z</time></trkpt><trkpt lat="42.3633264" lon="12.1866861"><ele>865.0</ele><time>2026-04-30T14:35:22.979Z</time></trkpt><trkpt lat="42.3633856" lon="12.1865041"><ele>865.0</ele><time>2026-04-30T14:35:23.979Z</time></trkpt><trkpt lat="42.3634412" lon="12.1863259"><ele>865.0</ele><time>2026-04-30T14:35:24.979Z</time></trkpt><trkpt lat="42.3634949" lon="12.1861591"><ele>865.0</ele><time>2026-04-30T14:35:25.979Z</time></trkpt><trkpt lat="42.3635489" lon="12.18599"><ele>865.0</ele><time>2026-04-30T14:35:26.979Z</time></trkpt><trkpt lat="42.3636059" lon="12.1858174"><ele>863.0</ele><time>2026-04-30T14:35:27.979Z</time></trkpt><trkpt lat="42.3636621" lon="12.1856458"><ele>861.0</ele><time>2026-04-30T14:35:28.979Z</time></trkpt><trkpt lat="42.3637201" lon="12.1854686"><ele>859.0</ele><time>2026-04-30T14:35:29.979Z</time></trkpt><trkpt lat="42.3637833" lon="12.1852791"><ele>857.0</ele><time>2026-04-30T14:35:30.979Z</time></trkpt><trkpt lat="42.3638525" lon="12.1850899"><ele>858.5</ele><time>2026-04-30T14:35:31.979Z</time></trkpt><trkpt lat="42.36392" lon="12.1849151"><ele>860.0</ele><time>2026-04-30T14:35:32.979Z</time></trkpt><trkpt lat="42.3639853" lon="12.1847609"><ele>861.5</ele><time>2026-04-30T14:35:33.979Z</time></trkpt><trkpt lat="42.3640454" lon="12.1846271"><ele>863.0</ele><time>2026-04-30T14:35:34.98Z</time></trkpt><trkpt lat="42.3641079" lon="12.1845108"><ele>863.0</ele><time>2026-04-30T14:35:35.979Z</time></trkpt><trkpt lat="42.3641893" lon="12.1844021"><ele>863.0</ele><time>2026-04-30T14:35:36.979Z</time></trkpt><trkpt lat="42.3642832" lon="12.1843071"><ele>863.0</ele><time>2026-04-30T14:35:37.979Z</time></trkpt><trkpt lat="42.3643856" lon="12.1842295"><ele>863.0</ele><time>2026-04-30T14:35:38.979Z</time></trkpt><trkpt lat="42.3644997" lon="12.1841856"><ele>863.0</ele><time>2026-04-30T14:35:39.979Z</time></trkpt><trkpt lat="42.3646204" lon="12.1841853"><ele>863.0</ele><time>2026-04-30T14:35:40.979Z</time></trkpt><trkpt lat="42.3647654" lon="12.1842165"><ele>863.0</ele><time>2026-04-30T14:35:41.979Z</time></trkpt><trkpt lat="42.3649399" lon="12.1842735"><ele>863.0</ele><time>2026-04-30T14:35:42.979Z</time></trkpt><trkpt lat="42.3651461" lon="12.1843733"><ele>861.0</ele><time>2026-04-30T14:35:43.979Z</time></trkpt><trkpt lat="42.3653715" lon="12.1845097"><ele>859.0</ele><time>2026-04-30T14:35:44.98Z</time></trkpt><trkpt lat="42.365601" lon="12.1846373"><ele>859.0</ele><time>2026-04-30T14:35:45.979Z</time></trkpt><trkpt lat="42.3658202" lon="12.1847444"><ele>859.0</ele><time>2026-04-30T14:35:46.979Z</time></trkpt><trkpt lat="42.3660248" lon="12.1848516"><ele>858.6666666666666</ele><time>2026-04-30T14:35:47.979Z</time></trkpt><trkpt lat="42.3662094" lon="12.1849842"><ele>858.3333333333333</ele><time>2026-04-30T14:35:48.979Z</time></trkpt><trkpt lat="42.3663635" lon="12.1851629"><ele>858.0</ele><time>2026-04-30T14:35:49.98Z</time></trkpt><trkpt lat="42.3664737" lon="12.1854013"><ele>856.3333333333333</ele><time>2026-04-30T14:35:50.979Z</time></trkpt><trkpt lat="42.3665536" lon="12.1856803"><ele>854.6666666666666</ele><time>2026-04-30T14:35:51.979Z</time></trkpt><trkpt lat="42.3666338" lon="12.1859492"><ele>853.0</ele><time>2026-04-30T14:35:52.979Z</time></trkpt><trkpt lat="42.3667474" lon="12.1861681"><ele>853.0</ele><time>2026-04-30T14:35:53.98Z</time></trkpt><trkpt lat="42.3668901" lon="12.1863306"><ele>853.0</ele><time>2026-04-30T14:35:54.979Z</time></trkpt><trkpt lat="42.3670502" lon="12.1864282"><ele>853.0</ele><time>2026-04-30T14:35:55.979Z</time></trkpt><trkpt lat="42.3672207" lon="12.1864607"><ele>851.0</ele><time>2026-04-30T14:35:56.98Z</time></trkpt><trkpt lat="42.3674132" lon="12.1864125"><ele>849.0</ele><time>2026-04-30T14:35:57.979Z</time></trkpt><trkpt lat="42.3676187" lon="12.1863496"><ele>847.0</ele><time>2026-04-30T14:35:58.98Z</time></trkpt><trkpt lat="42.3678329" lon="12.1863266"><ele>840.5</ele><time>2026-04-30T14:35:59.98Z</time></trkpt><trkpt lat="42.3680567" lon="12.1863605"><ele>834.0</ele><time>2026-04-30T14:36:00.979Z</time></trkpt><trkpt lat="42.3682995" lon="12.1864697"><ele>835.0</ele><time>2026-04-30T14:36:01.979Z</time></trkpt><trkpt lat="42.3685333" lon="12.1866074"><ele>836.0</ele><time>2026-04-30T14:36:02.979Z</time></trkpt><trkpt lat="42.3687555" lon="12.1867517"><ele>834.0</ele><time>2026-04-30T14:36:03.979Z</time></trkpt><trkpt lat="42.3689542" lon="12.1868972"><ele>832.0</ele><time>2026-04-30T14:36:04.979Z</time></trkpt><trkpt lat="42.3691369" lon="12.1870717"><ele>832.0</ele><time>2026-04-30T14:36:05.979Z</time></trkpt><trkpt lat="42.369282" lon="12.187293"><ele>832.0</ele><time>2026-04-30T14:36:06.979Z</time></trkpt><trkpt lat="42.3693992" lon="12.1875539"><ele>832.0</ele><time>2026-04-30T14:36:07.98Z</time></trkpt><trkpt lat="42.3695085" lon="12.1878413"><ele>832.5</ele><time>2026-04-30T14:36:08.979Z</time></trkpt><trkpt lat="42.3696143" lon="12.1881271"><ele>833.0</ele><time>2026-04-30T14:36:09.979Z</time></trkpt><trkpt lat="42.3697149" lon="12.1884004"><ele>831.6666666666667</ele><time>2026-04-30T14:36:10.98Z</time></trkpt><trkpt lat="42.3698169" lon="12.1886384"><ele>830.3333333333333</ele><time>2026-04-30T14:36:11.979Z</time></trkpt><trkpt lat="42.3699394" lon="12.1888409"><ele>829.0</ele><time>2026-04-30T14:36:12.98Z</time></trkpt><trkpt lat="42.3700834" lon="12.1889748"><ele>829.0</ele><time>2026-04-30T14:36:13.979Z</time></trkpt><trkpt lat="42.3702129" lon="12.1890389"><ele>829.0</ele><time>2026-04-30T14:36:14.979Z</time></trkpt><trkpt lat="42.3703323" lon="12.1890275"><ele>829.0</ele><time>2026-04-30T14:36:15.979Z</time></trkpt><trkpt lat="42.3704254" lon="12.1889399"><ele>829.0</ele><time>2026-04-30T14:36:16.979Z</time></trkpt><trkpt lat="42.3704642" lon="12.1888082"><ele>829.0</ele><time>2026-04-30T14:36:17.979Z</time></trkpt><trkpt lat="42.3704459" lon="12.1886597"><ele>829.0</ele><time>2026-04-30T14:36:18.98Z</time></trkpt><trkpt lat="42.3704007" lon="12.1884687"><ele>829.0</ele><time>2026-04-30T14:36:19.979Z</time></trkpt><trkpt lat="42.3703449" lon="12.1882405"><ele>829.0</ele><time>2026-04-30T14:36:20.979Z</time></trkpt><trkpt lat="42.3703158" lon="12.1879911"><ele>829.6666666666666</ele><time>2026-04-30T14:36:21.979Z</time></trkpt><trkpt lat="42.3703046" lon="12.1877311"><ele>830.3333333333333</ele><time>2026-04-30T14:36:22.979Z</time></trkpt><trkpt lat="42.3703141" lon="12.1874819"><ele>831.0</ele><time>2026-04-30T14:36:23.979Z</time></trkpt><trkpt lat="42.3703387" lon="12.1872705"><ele>828.25</ele><time>2026-04-30T14:36:24.979Z</time></trkpt><trkpt lat="42.3704147" lon="12.1871148"><ele>825.5</ele><time>2026-04-30T14:36:25.979Z</time></trkpt><trkpt lat="42.370531" lon="12.1870159"><ele>822.75</ele><time>2026-04-30T14:36:26.979Z</time></trkpt><trkpt lat="42.3706679" lon="12.1869848"><ele>820.0</ele><time>2026-04-30T14:36:27.979Z</time></trkpt><trkpt lat="42.3708276" lon="12.1870004"><ele>816.3333333333333</ele><time>2026-04-30T14:36:28.979Z</time></trkpt><trkpt lat="42.3710087" lon="12.187065"><ele>812.6666666666667</ele><time>2026-04-30T14:36:29.979Z</time></trkpt><trkpt lat="42.3711978" lon="12.1871763"><ele>809.0</ele><time>2026-04-30T14:36:30.98Z</time></trkpt><trkpt lat="42.3713916" lon="12.1873293"><ele>809.3333333333334</ele><time>2026-04-30T14:36:31.979Z</time></trkpt><trkpt lat="42.3715734" lon="12.1874732"><ele>809.6666666666667</ele><time>2026-04-30T14:36:32.979Z</time></trkpt><trkpt lat="42.3717456" lon="12.1875683"><ele>810.0</ele><time>2026-04-30T14:36:33.979Z</time></trkpt><trkpt lat="42.3719237" lon="12.1875947"><ele>810.0</ele><time>2026-04-30T14:36:34.98Z</time></trkpt><trkpt lat="42.3721081" lon="12.1875774"><ele>810.0</ele><time>2026-04-30T14:36:35.98Z</time></trkpt><trkpt lat="42.3723029" lon="12.1875199"><ele>810.0</ele><time>2026-04-30T14:36:36.979Z</time></trkpt><trkpt lat="42.3725073" lon="12.1874368"><ele>810.0</ele><time>2026-04-30T14:36:37.979Z</time></trkpt><trkpt lat="42.3727154" lon="12.187356"><ele>810.0</ele><time>2026-04-30T14:36:38.979Z</time></trkpt><trkpt lat="42.3729232" lon="12.1872836"><ele>810.0</ele><time>2026-04-30T14:36:39.979Z</time></trkpt><trkpt lat="42.373119" lon="12.187225"><ele>807.3333333333333</ele><time>2026-04-30T14:36:40.979Z</time></trkpt><trkpt lat="42.3732905" lon="12.1871691"><ele>804.6666666666666</ele><time>2026-04-30T14:36:41.979Z</time></trkpt><trkpt lat="42.3734384" lon="12.1871045"><ele>802.0</ele><time>2026-04-30T14:36:42.979Z</time></trkpt><trkpt lat="42.3735627" lon="12.1870197"><ele>802.0</ele><time>2026-04-30T14:36:43.979Z</time></trkpt><trkpt lat="42.3736753" lon="12.1869138"><ele>802.0</ele><time>2026-04-30T14:36:44.979Z</time></trkpt><trkpt lat="42.373786" lon="12.1867758"><ele>802.0</ele><time>2026-04-30T14:36:45.98Z</time></trkpt><trkpt lat="42.3738987" lon="12.1866115"><ele>801.3333333333333</ele><time>2026-04-30T14:36:46.979Z</time></trkpt><trkpt lat="42.3740188" lon="12.1864404"><ele>800.6666666666667</ele><time>2026-04-30T14:36:47.979Z</time></trkpt><trkpt lat="42.3741451" lon="12.1862759"><ele>800.0</ele><time>2026-04-30T14:36:48.98Z</time></trkpt><trkpt lat="42.3742978" lon="12.1861067"><ele>800.0</ele><time>2026-04-30T14:36:49.98Z</time></trkpt><trkpt lat="42.3744785" lon="12.1859627"><ele>800.0</ele><time>2026-04-30T14:36:50.98Z</time></trkpt><trkpt lat="42.3746713" lon="12.1858422"><ele>800.0</ele><time>2026-04-30T14:36:51.979Z</time></trkpt><trkpt lat="42.3748854" lon="12.185719"><ele>795.0</ele><time>2026-04-30T14:36:52.979Z</time></trkpt><trkpt lat="42.3751038" lon="12.1855931"><ele>790.0</ele><time>2026-04-30T14:36:53.98Z</time></trkpt><trkpt lat="42.375315" lon="12.1854479"><ele>790.0</ele><time>2026-04-30T14:36:54.979Z</time></trkpt><trkpt lat="42.3755218" lon="12.1852848"><ele>790.0</ele><time>2026-04-30T14:36:55.98Z</time></trkpt><trkpt lat="42.3757096" lon="12.1851175"><ele>790.0</ele><time>2026-04-30T14:36:56.979Z</time></trkpt><trkpt lat="42.3758955" lon="12.184965"><ele>790.0</ele><time>2026-04-30T14:36:57.979Z</time></trkpt><trkpt lat="42.3760912" lon="12.184849"><ele>790.0</ele><time>2026-04-30T14:36:58.979Z</time></trkpt><trkpt lat="42.3762957" lon="12.1847728"><ele>786.3333333333333</ele><time>2026-04-30T14:36:59.979Z</time></trkpt><trkpt lat="42.3765131" lon="12.1847146"><ele>782.6666666666667</ele><time>2026-04-30T14:37:00.979Z</time></trkpt><trkpt lat="42.3767344" lon="12.1846701"><ele>779.0</ele><time>2026-04-30T14:37:01.979Z</time></trkpt><trkpt lat="42.3769589" lon="12.1846644"><ele>779.0</ele><time>2026-04-30T14:37:02.979Z</time></trkpt><trkpt lat="42.3771829" lon="12.1846985"><ele>779.0</ele><time>2026-04-30T14:37:03.98Z</time></trkpt><trkpt lat="42.3774072" lon="12.1847657"><ele>782.5</ele><time>2026-04-30T14:37:04.98Z</time></trkpt><trkpt lat="42.3776335" lon="12.184854"><ele>786.0</ele><time>2026-04-30T14:37:05.98Z</time></trkpt><trkpt lat="42.3778651" lon="12.1849439"><ele>787.5</ele><time>2026-04-30T14:37:06.979Z</time></trkpt><trkpt lat="42.3780958" lon="12.1850232"><ele>789.0</ele><time>2026-04-30T14:37:07.979Z</time></trkpt><trkpt lat="42.3783278" lon="12.1850824"><ele>789.0</ele><time>2026-04-30T14:37:08.979Z</time></trkpt><trkpt lat="42.3785539" lon="12.1851086"><ele>789.0</ele><time>2026-04-30T14:37:09.979Z</time></trkpt><trkpt lat="42.3787838" lon="12.1850855"><ele>788.0</ele><time>2026-04-30T14:37:10.979Z</time></trkpt><trkpt lat="42.3790148" lon="12.1850322"><ele>787.0</ele><time>2026-04-30T14:37:11.98Z</time></trkpt><trkpt lat="42.3792425" lon="12.1849825"><ele>787.0</ele><time>2026-04-30T14:37:12.979Z</time></trkpt><trkpt lat="42.3794531" lon="12.1849842"><ele>787.0</ele><time>2026-04-30T14:37:13.979Z</time></trkpt><trkpt lat="42.3796678" lon="12.185055"><ele>787.0</ele><time>2026-04-30T14:37:14.979Z</time></trkpt><trkpt lat="42.3798853" lon="12.1851655"><ele>785.3333333333333</ele><time>2026-04-30T14:37:15.98Z</time></trkpt><trkpt lat="42.3800939" lon="12.1852842"><ele>783.6666666666667</ele><time>2026-04-30T14:37:16.98Z</time></trkpt><trkpt lat="42.3802875" lon="12.1853785"><ele>782.0</ele><time>2026-04-30T14:37:17.98Z</time></trkpt><trkpt lat="42.380452" lon="12.185429"><ele>780.3333333333334</ele><time>2026-04-30T14:37:18.98Z</time></trkpt><trkpt lat="42.3806245" lon="12.1853954"><ele>778.6666666666667</ele><time>2026-04-30T14:37:19.979Z</time></trkpt><trkpt lat="42.3808" lon="12.1852752"><ele>777.0</ele><time>2026-04-30T14:37:20.979Z</time></trkpt><trkpt lat="42.3809784" lon="12.1850961"><ele>777.0</ele><time>2026-04-30T14:37:21.979Z</time></trkpt><trkpt lat="42.3811454" lon="12.1848952"><ele>777.0</ele><time>2026-04-30T14:37:22.98Z</time></trkpt><trkpt lat="42.3813038" lon="12.1846612"><ele>775.0</ele><time>2026-04-30T14:37:23.979Z</time></trkpt><trkpt lat="42.3814556" lon="12.1844256"><ele>773.0</ele><time>2026-04-30T14:37:24.98Z</time></trkpt><trkpt lat="42.3815986" lon="12.1841831"><ele>772.6666666666667</ele><time>2026-04-30T14:37:25.979Z</time></trkpt><trkpt lat="42.3817378" lon="12.1839606"><ele>772.3333333333333</ele><time>2026-04-30T14:37:26.979Z</time></trkpt><trkpt lat="42.3818757" lon="12.1837592"><ele>772.0</ele><time>2026-04-30T14:37:27.979Z</time></trkpt><trkpt lat="42.3820139" lon="12.1835856"><ele>772.0</ele><time>2026-04-30T14:37:28.979Z</time></trkpt><trkpt lat="42.3821632" lon="12.1834307"><ele>772.0</ele><time>2026-04-30T14:37:29.979Z</time></trkpt><trkpt lat="42.3823253" lon="12.1832939"><ele>772.0</ele><time>2026-04-30T14:37:30.98Z</time></trkpt><trkpt lat="42.3824944" lon="12.1831743"><ele>769.6666666666666</ele><time>2026-04-30T14:37:31.979Z</time></trkpt><trkpt lat="42.3826636" lon="12.1830834"><ele>767.3333333333333</ele><time>2026-04-30T14:37:32.98Z</time></trkpt><trkpt lat="42.3828396" lon="12.1829995"><ele>765.0</ele><time>2026-04-30T14:37:33.979Z</time></trkpt><trkpt lat="42.3830274" lon="12.182929"><ele>765.0</ele><time>2026-04-30T14:37:34.979Z</time></trkpt><trkpt lat="42.3832524" lon="12.1828925"><ele>765.0</ele><time>2026-04-30T14:37:35.979Z</time></trkpt><trkpt lat="42.3834998" lon="12.1828826"><ele>765.0</ele><time>2026-04-30T14:37:36.979Z</time></trkpt><trkpt lat="42.3837723" lon="12.1829002"><ele>765.0</ele><time>2026-04-30T14:37:37.979Z</time></trkpt><trkpt lat="42.384055" lon="12.1828948"><ele>764.0</ele><time>2026-04-30T14:37:38.979Z</time></trkpt><trkpt lat="42.3843424" lon="12.1828365"><ele>763.0</ele><time>2026-04-30T14:37:39.979Z</time></trkpt><trkpt lat="42.3846297" lon="12.1827471"><ele>761.5</ele><time>2026-04-30T14:37:40.979Z</time></trkpt><trkpt lat="42.3849226" lon="12.1826357"><ele>760.0</ele><time>2026-04-30T14:37:41.979Z</time></trkpt><trkpt lat="42.3852166" lon="12.1825279"><ele>760.0</ele><time>2026-04-30T14:37:42.979Z</time></trkpt><trkpt lat="42.385494" lon="12.182431"><ele>760.0</ele><time>2026-04-30T14:37:43.979Z</time></trkpt><trkpt lat="42.3857547" lon="12.1823363"><ele>760.0</ele><time>2026-04-30T14:37:44.979Z</time></trkpt><trkpt lat="42.3859968" lon="12.1822464"><ele>760.0</ele><time>2026-04-30T14:37:45.979Z</time></trkpt><trkpt lat="42.3862222" lon="12.1821571"><ele>758.5</ele><time>2026-04-30T14:37:46.979Z</time></trkpt><trkpt lat="42.3864477" lon="12.1820549"><ele>757.0</ele><time>2026-04-30T14:37:47.98Z</time></trkpt><trkpt lat="42.3866686" lon="12.1819355"><ele>757.0</ele><time>2026-04-30T14:37:48.98Z</time></trkpt><trkpt lat="42.3868853" lon="12.1818114"><ele>757.0</ele><time>2026-04-30T14:37:49.98Z</time></trkpt><trkpt lat="42.3870917" lon="12.1816767"><ele>758.0</ele><time>2026-04-30T14:37:50.979Z</time></trkpt><trkpt lat="42.3872884" lon="12.1815481"><ele>759.0</ele><time>2026-04-30T14:37:51.979Z</time></trkpt><trkpt lat="42.3874566" lon="12.1814114"><ele>760.0</ele><time>2026-04-30T14:37:52.979Z</time></trkpt><trkpt lat="42.3875981" lon="12.1812316"><ele>756.5</ele><time>2026-04-30T14:37:53.979Z</time></trkpt><trkpt lat="42.3877065" lon="12.1809856"><ele>753.0</ele><time>2026-04-30T14:37:54.98Z</time></trkpt><trkpt lat="42.3877858" lon="12.1806753"><ele>749.0</ele><time>2026-04-30T14:37:55.98Z</time></trkpt><trkpt lat="42.3878712" lon="12.1803452"><ele>745.0</ele><time>2026-04-30T14:37:56.98Z</time></trkpt><trkpt lat="42.3879668" lon="12.1800055"><ele>742.0</ele><time>2026-04-30T14:37:57.98Z</time></trkpt><trkpt lat="42.3880685" lon="12.1796634"><ele>739.0</ele><time>2026-04-30T14:37:58.979Z</time></trkpt><trkpt lat="42.3881805" lon="12.1793023"><ele>734.0</ele><time>2026-04-30T14:37:59.98Z</time></trkpt><trkpt lat="42.3882984" lon="12.1789274"><ele>729.0</ele><time>2026-04-30T14:38:00.979Z</time></trkpt><trkpt lat="42.3884128" lon="12.1785523"><ele>727.0</ele><time>2026-04-30T14:38:01.98Z</time></trkpt><trkpt lat="42.3885237" lon="12.1781757"><ele>725.0</ele><time>2026-04-30T14:38:02.979Z</time></trkpt><trkpt lat="42.3886423" lon="12.1777992"><ele>725.0</ele><time>2026-04-30T14:38:03.979Z</time></trkpt><trkpt lat="42.3887573" lon="12.1774361"><ele>725.0</ele><time>2026-04-30T14:38:04.979Z</time></trkpt><trkpt lat="42.3888672" lon="12.17709"><ele>725.0</ele><time>2026-04-30T14:38:05.979Z</time></trkpt><trkpt lat="42.3889695" lon="12.1767549"><ele>725.0</ele><time>2026-04-30T14:38:06.979Z</time></trkpt><trkpt lat="42.3890678" lon="12.1764385"><ele>725.0</ele><time>2026-04-30T14:38:07.979Z</time></trkpt><trkpt lat="42.3891702" lon="12.1761321"><ele>725.0</ele><time>2026-04-30T14:38:08.979Z</time></trkpt><trkpt lat="42.3892943" lon="12.1758279"><ele>725.0</ele><time>2026-04-30T14:38:09.979Z</time></trkpt><trkpt lat="42.3894429" lon="12.1755257"><ele>725.0</ele><time>2026-04-30T14:38:10.979Z</time></trkpt><trkpt lat="42.3895988" lon="12.1752153"><ele>724.5</ele><time>2026-04-30T14:38:11.98Z</time></trkpt><trkpt lat="42.3897703" lon="12.1748954"><ele>724.0</ele><time>2026-04-30T14:38:12.98Z</time></trkpt><trkpt lat="42.3899368" lon="12.1745718"><ele>721.5</ele><time>2026-04-30T14:38:13.979Z</time></trkpt><trkpt lat="42.3900969" lon="12.1742574"><ele>719.0</ele><time>2026-04-30T14:38:14.979Z</time></trkpt><trkpt lat="42.39025" lon="12.1739598"><ele>718.5</ele><time>2026-04-30T14:38:15.979Z</time></trkpt><trkpt lat="42.3904003" lon="12.1736716"><ele>718.0</ele><time>2026-04-30T14:38:16.979Z</time></trkpt><trkpt lat="42.3905591" lon="12.1734119"><ele>714.0</ele><time>2026-04-30T14:38:17.98Z</time></trkpt><trkpt lat="42.3907303" lon="12.1731642"><ele>710.0</ele><time>2026-04-30T14:38:18.979Z</time></trkpt><trkpt lat="42.3909135" lon="12.1729594"><ele>710.0</ele><time>2026-04-30T14:38:19.979Z</time></trkpt><trkpt lat="42.3910999" lon="12.1727728"><ele>710.0</ele><time>2026-04-30T14:38:20.979Z</time></trkpt><trkpt lat="42.3912952" lon="12.1726291"><ele>710.3333333333333</ele><time>2026-04-30T14:38:21.979Z</time></trkpt><trkpt lat="42.3915016" lon="12.1725068"><ele>710.6666666666666</ele><time>2026-04-30T14:38:22.98Z</time></trkpt><trkpt lat="42.391705" lon="12.1723908"><ele>711.0</ele><time>2026-04-30T14:38:23.979Z</time></trkpt><trkpt lat="42.3918982" lon="12.1722836"><ele>711.0</ele><time>2026-04-30T14:38:24.979Z</time></trkpt><trkpt lat="42.392076" lon="12.1721849"><ele>711.0</ele><time>2026-04-30T14:38:25.979Z</time></trkpt><trkpt lat="42.3922491" lon="12.1720651"><ele>711.0</ele><time>2026-04-30T14:38:26.979Z</time></trkpt><trkpt lat="42.3924217" lon="12.1719358"><ele>709.3333333333334</ele><time>2026-04-30T14:38:27.979Z</time></trkpt><trkpt lat="42.3925891" lon="12.1717814"><ele>707.6666666666667</ele><time>2026-04-30T14:38:28.979Z</time></trkpt><trkpt lat="42.392744" lon="12.1716015"><ele>706.0</ele><time>2026-04-30T14:38:29.979Z</time></trkpt><trkpt lat="42.392874" lon="12.1713998"><ele>706.0</ele><time>2026-04-30T14:38:30.979Z</time></trkpt><trkpt lat="42.3929754" lon="12.1711885"><ele>706.0</ele><time>2026-04-30T14:38:31.979Z</time></trkpt><trkpt lat="42.3930478" lon="12.1709653"><ele>706.0</ele><time>2026-04-30T14:38:32.979Z</time></trkpt><trkpt lat="42.3930905" lon="12.1707184"><ele>704.6666666666667</ele><time>2026-04-30T14:38:33.979Z</time></trkpt><trkpt lat="42.3931079" lon="12.1704616"><ele>703.3333333333334</ele><time>2026-04-30T14:38:34.979Z</time></trkpt><trkpt lat="42.3931004" lon="12.1702136"><ele>702.0</ele><time>2026-04-30T14:38:35.979Z</time></trkpt><trkpt lat="42.3930843" lon="12.169981"><ele>700.0</ele><time>2026-04-30T14:38:36.979Z</time></trkpt><trkpt lat="42.3930654" lon="12.169746"><ele>698.0</ele><time>2026-04-30T14:38:37.979Z</time></trkpt><trkpt lat="42.3930458" lon="12.1695241"><ele>696.0</ele><time>2026-04-30T14:38:38.979Z</time></trkpt><trkpt lat="42.3930375" lon="12.1693042"><ele>696.0</ele><time>2026-04-30T14:38:39.98Z</time></trkpt><trkpt lat="42.3930334" lon="12.1690908"><ele>696.0</ele><time>2026-04-30T14:38:40.979Z</time></trkpt><trkpt lat="42.393043" lon="12.168873"><ele>696.0</ele><time>2026-04-30T14:38:41.979Z</time></trkpt><trkpt lat="42.393056" lon="12.1686625"><ele>695.0</ele><time>2026-04-30T14:38:42.979Z</time></trkpt><trkpt lat="42.3930709" lon="12.1684472"><ele>694.0</ele><time>2026-04-30T14:38:43.979Z</time></trkpt><trkpt lat="42.393087" lon="12.1682271"><ele>693.0</ele><time>2026-04-30T14:38:44.979Z</time></trkpt><trkpt lat="42.3931255" lon="12.1680107"><ele>692.0</ele><time>2026-04-30T14:38:45.979Z</time></trkpt><trkpt lat="42.3931649" lon="12.1677794"><ele>691.0</ele><time>2026-04-30T14:38:46.98Z</time></trkpt><trkpt lat="42.3932" lon="12.1675388"><ele>690.0</ele><time>2026-04-30T14:38:47.98Z</time></trkpt><trkpt lat="42.3932309" lon="12.1672898"><ele>690.0</ele><time>2026-04-30T14:38:48.979Z</time></trkpt><trkpt lat="42.3932642" lon="12.1670357"><ele>690.0</ele><time>2026-04-30T14:38:49.979Z</time></trkpt><trkpt lat="42.3932974" lon="12.1667881"><ele>690.0</ele><time>2026-04-30T14:38:50.98Z</time></trkpt><trkpt lat="42.3933266" lon="12.1665361"><ele>688.0</ele><time>2026-04-30T14:38:51.979Z</time></trkpt><trkpt lat="42.3933329" lon="12.1662766"><ele>686.0</ele><time>2026-04-30T14:38:52.979Z</time></trkpt><trkpt lat="42.3933114" lon="12.1660117"><ele>684.0</ele><time>2026-04-30T14:38:53.979Z</time></trkpt><trkpt lat="42.3932715" lon="12.165762"><ele>682.6666666666666</ele><time>2026-04-30T14:38:54.979Z</time></trkpt><trkpt lat="42.393227" lon="12.165531"><ele>681.3333333333333</ele><time>2026-04-30T14:38:55.98Z</time></trkpt><trkpt lat="42.3931808" lon="12.1653118"><ele>680.0</ele><time>2026-04-30T14:38:56.979Z</time></trkpt><trkpt lat="42.3931267" lon="12.165103"><ele>680.0</ele><time>2026-04-30T14:38:57.979Z</time></trkpt><trkpt lat="42.3930703" lon="12.1649094"><ele>680.0</ele><time>2026-04-30T14:38:58.98Z</time></trkpt><trkpt lat="42.3930121" lon="12.1647287"><ele>680.0</ele><time>2026-04-30T14:38:59.979Z</time></trkpt><trkpt lat="42.3929478" lon="12.1645536"><ele>680.0</ele><time>2026-04-30T14:39:00.979Z</time></trkpt><trkpt lat="42.3928817" lon="12.1643769"><ele>680.25</ele><time>2026-04-30T14:39:01.979Z</time></trkpt><trkpt lat="42.3928154" lon="12.1641979"><ele>680.5</ele><time>2026-04-30T14:39:02.98Z</time></trkpt><trkpt lat="42.392746" lon="12.1640188"><ele>680.75</ele><time>2026-04-30T14:39:03.979Z</time></trkpt><trkpt lat="42.3926775" lon="12.163841"><ele>681.0</ele><time>2026-04-30T14:39:04.979Z</time></trkpt><trkpt lat="42.3926093" lon="12.1636582"><ele>681.0</ele><time>2026-04-30T14:39:05.98Z</time></trkpt><trkpt lat="42.3925481" lon="12.1634696"><ele>681.0</ele><time>2026-04-30T14:39:06.979Z</time></trkpt><trkpt lat="42.3924996" lon="12.1632697"><ele>681.0</ele><time>2026-04-30T14:39:07.979Z</time></trkpt><trkpt lat="42.3924712" lon="12.1630464"><ele>679.0</ele><time>2026-04-30T14:39:08.979Z</time></trkpt><trkpt lat="42.3924754" lon="12.162815"><ele>677.0</ele><time>2026-04-30T14:39:09.979Z</time></trkpt><trkpt lat="42.3924959" lon="12.1625785"><ele>675.0</ele><time>2026-04-30T14:39:10.98Z</time></trkpt><trkpt lat="42.3925384" lon="12.1623535"><ele>673.6666666666666</ele><time>2026-04-30T14:39:11.98Z</time></trkpt><trkpt lat="42.3925917" lon="12.1621342"><ele>672.3333333333333</ele><time>2026-04-30T14:39:12.979Z</time></trkpt><trkpt lat="42.3926464" lon="12.1619156"><ele>671.0</ele><time>2026-04-30T14:39:13.979Z</time></trkpt><trkpt lat="42.3926938" lon="12.1617034"><ele>670.3333333333333</ele><time>2026-04-30T14:39:14.979Z</time></trkpt><trkpt lat="42.3927439" lon="12.1614958"><ele>669.6666666666666</ele><time>2026-04-30T14:39:15.979Z</time></trkpt><trkpt lat="42.3927966" lon="12.1612961"><ele>669.0</ele><time>2026-04-30T14:39:16.98Z</time></trkpt><trkpt lat="42.3928507" lon="12.1611046"><ele>669.0</ele><time>2026-04-30T14:39:17.979Z</time></trkpt><trkpt lat="42.3929145" lon="12.1609146"><ele>669.0</ele><time>2026-04-30T14:39:18.979Z</time></trkpt><trkpt lat="42.3929846" lon="12.1607293"><ele>669.0</ele><time>2026-04-30T14:39:19.98Z</time></trkpt><trkpt lat="42.3930534" lon="12.1605495"><ele>666.3333333333334</ele><time>2026-04-30T14:39:20.979Z</time></trkpt><trkpt lat="42.393133" lon="12.1603541"><ele>663.6666666666667</ele><time>2026-04-30T14:39:21.979Z</time></trkpt><trkpt lat="42.3932117" lon="12.1601428"><ele>661.0</ele><time>2026-04-30T14:39:22.979Z</time></trkpt><trkpt lat="42.3932747" lon="12.1599162"><ele>660.0</ele><time>2026-04-30T14:39:23.979Z</time></trkpt><trkpt lat="42.393308" lon="12.1596674"><ele>659.0</ele><time>2026-04-30T14:39:24.979Z</time></trkpt><trkpt lat="42.3933087" lon="12.159377"><ele>658.0</ele><time>2026-04-30T14:39:25.979Z</time></trkpt><trkpt lat="42.393303" lon="12.1590586"><ele>657.0</ele><time>2026-04-30T14:39:26.98Z</time></trkpt><trkpt lat="42.3933175" lon="12.1587384"><ele>656.0</ele><time>2026-04-30T14:39:27.98Z</time></trkpt><trkpt lat="42.3933472" lon="12.1584384"><ele>655.0</ele><time>2026-04-30T14:39:28.98Z</time></trkpt><trkpt lat="42.393377" lon="12.1581479"><ele>654.0</ele><time>2026-04-30T14:39:29.979Z</time></trkpt><trkpt lat="42.3934047" lon="12.1578612"><ele>653.0</ele><time>2026-04-30T14:39:30.979Z</time></trkpt><trkpt lat="42.3934301" lon="12.1575841"><ele>653.0</ele><time>2026-04-30T14:39:31.98Z</time></trkpt><trkpt lat="42.3934599" lon="12.1573187"><ele>653.0</ele><time>2026-04-30T14:39:32.979Z</time></trkpt><trkpt lat="42.3934843" lon="12.1570716"><ele>653.0</ele><time>2026-04-30T14:39:33.98Z</time></trkpt><trkpt lat="42.3935161" lon="12.1568461"><ele>653.0</ele><time>2026-04-30T14:39:34.98Z</time></trkpt><trkpt lat="42.3935555" lon="12.1566398"><ele>653.0</ele><time>2026-04-30T14:39:35.98Z</time></trkpt><trkpt lat="42.3936091" lon="12.1564369"><ele>653.0</ele><time>2026-04-30T14:39:36.98Z</time></trkpt><trkpt lat="42.3936761" lon="12.1562517"><ele>652.75</ele><time>2026-04-30T14:39:37.979Z</time></trkpt><trkpt lat="42.3937511" lon="12.156088"><ele>652.5</ele><time>2026-04-30T14:39:38.979Z</time></trkpt><trkpt lat="42.3938428" lon="12.1559439"><ele>652.25</ele><time>2026-04-30T14:39:39.979Z</time></trkpt><trkpt lat="42.3939497" lon="12.1558011"><ele>652.0</ele><time>2026-04-30T14:39:40.979Z</time></trkpt><trkpt lat="42.3940548" lon="12.1556699"><ele>650.25</ele><time>2026-04-30T14:39:41.98Z</time></trkpt><trkpt lat="42.3941552" lon="12.1555345"><ele>648.5</ele><time>2026-04-30T14:39:42.979Z</time></trkpt><trkpt lat="42.3942418" lon="12.1553795"><ele>646.75</ele><time>2026-04-30T14:39:43.979Z</time></trkpt><trkpt lat="42.3943133" lon="12.1551935"><ele>645.0</ele><time>2026-04-30T14:39:44.98Z</time></trkpt><trkpt lat="42.3943696" lon="12.1549941"><ele>642.6666666666666</ele><time>2026-04-30T14:39:45.979Z</time></trkpt><trkpt lat="42.3944249" lon="12.1547925"><ele>640.3333333333333</ele><time>2026-04-30T14:39:46.979Z</time></trkpt><trkpt lat="42.3944715" lon="12.1545909"><ele>638.0</ele><time>2026-04-30T14:39:47.98Z</time></trkpt><trkpt lat="42.3945188" lon="12.1543915"><ele>638.0</ele><time>2026-04-30T14:39:48.979Z</time></trkpt><trkpt lat="42.3945676" lon="12.1541977"><ele>638.0</ele><time>2026-04-30T14:39:49.979Z</time></trkpt><trkpt lat="42.3946034" lon="12.1539857"><ele>638.0</ele><time>2026-04-30T14:39:50.98Z</time></trkpt><trkpt lat="42.3946257" lon="12.1537634"><ele>636.0</ele><time>2026-04-30T14:39:51.979Z</time></trkpt><trkpt lat="42.3946342" lon="12.1535302"><ele>634.0</ele><time>2026-04-30T14:39:52.98Z</time></trkpt><trkpt lat="42.3946173" lon="12.1532973"><ele>632.0</ele><time>2026-04-30T14:39:53.98Z</time></trkpt><trkpt lat="42.3945868" lon="12.1530781"><ele>630.3333333333333</ele><time>2026-04-30T14:39:54.979Z</time></trkpt><trkpt lat="42.3945479" lon="12.1528582"><ele>628.6666666666666</ele><time>2026-04-30T14:39:55.979Z</time></trkpt><trkpt lat="42.3945053" lon="12.1526408"><ele>627.0</ele><time>2026-04-30T14:39:56.979Z</time></trkpt><trkpt lat="42.3944563" lon="12.1524227"><ele>625.0</ele><time>2026-04-30T14:39:57.979Z</time></trkpt><trkpt lat="42.3944057" lon="12.1521926"><ele>623.0</ele><time>2026-04-30T14:39:58.979Z</time></trkpt><trkpt lat="42.3943516" lon="12.151955"><ele>621.0</ele><time>2026-04-30T14:39:59.98Z</time></trkpt><trkpt lat="42.3943152" lon="12.1517164"><ele>619.6666666666666</ele><time>2026-04-30T14:40:00.979Z</time></trkpt><trkpt lat="42.3942859" lon="12.1514754"><ele>618.3333333333333</ele><time>2026-04-30T14:40:01.979Z</time></trkpt><trkpt lat="42.3942525" lon="12.1512329"><ele>617.0</ele><time>2026-04-30T14:40:02.98Z</time></trkpt><trkpt lat="42.3942252" lon="12.1509953"><ele>617.0</ele><time>2026-04-30T14:40:03.979Z</time></trkpt><trkpt lat="42.3941956" lon="12.1507735"><ele>617.0</ele><time>2026-04-30T14:40:04.979Z</time></trkpt><trkpt lat="42.3941731" lon="12.1505605"><ele>617.0</ele><time>2026-04-30T14:40:05.98Z</time></trkpt><trkpt lat="42.3941408" lon="12.1503409"><ele>616.0</ele><time>2026-04-30T14:40:06.98Z</time></trkpt><trkpt lat="42.3940946" lon="12.1501265"><ele>615.0</ele><time>2026-04-30T14:40:07.979Z</time></trkpt><trkpt lat="42.3940567" lon="12.149905"><ele>614.0</ele><time>2026-04-30T14:40:08.979Z</time></trkpt><trkpt lat="42.3940267" lon="12.1496898"><ele>612.6666666666666</ele><time>2026-04-30T14:40:09.979Z</time></trkpt><trkpt lat="42.3940119" lon="12.1494723"><ele>611.3333333333334</ele><time>2026-04-30T14:40:10.979Z</time></trkpt><trkpt lat="42.394011" lon="12.1492561"><ele>610.0</ele><time>2026-04-30T14:40:11.979Z</time></trkpt><trkpt lat="42.394025" lon="12.149055"><ele>609.0</ele><time>2026-04-30T14:40:12.979Z</time></trkpt><trkpt lat="42.3940478" lon="12.148858"><ele>608.0</ele><time>2026-04-30T14:40:13.979Z</time></trkpt><trkpt lat="42.3940915" lon="12.1486604"><ele>607.0</ele><time>2026-04-30T14:40:14.979Z</time></trkpt><trkpt lat="42.3941486" lon="12.1484693"><ele>607.0</ele><time>2026-04-30T14:40:15.979Z</time></trkpt><trkpt lat="42.3942217" lon="12.1482818"><ele>607.0</ele><time>2026-04-30T14:40:16.979Z</time></trkpt><trkpt lat="42.3942958" lon="12.1481044"><ele>607.0</ele><time>2026-04-30T14:40:17.98Z</time></trkpt><trkpt lat="42.3943695" lon="12.1479274"><ele>606.0</ele><time>2026-04-30T14:40:18.979Z</time></trkpt><trkpt lat="42.3944439" lon="12.1477515"><ele>605.0</ele><time>2026-04-30T14:40:19.979Z</time></trkpt><trkpt lat="42.3945194" lon="12.1475768"><ele>604.0</ele><time>2026-04-30T14:40:20.979Z</time></trkpt><trkpt lat="42.3945956" lon="12.1473985"><ele>599.0</ele><time>2026-04-30T14:40:21.979Z</time></trkpt><trkpt lat="42.3947644" lon="12.1470429"><ele>594.0</ele><time>2026-04-30T14:40:23.979Z</time></trkpt><trkpt lat="42.3948639" lon="12.1468852"><ele>594.0</ele><time>2026-04-30T14:40:24.979Z</time></trkpt><trkpt lat="42.3949786" lon="12.1467613"><ele>594.0</ele><time>2026-04-30T14:40:25.979Z</time></trkpt><trkpt lat="42.395099" lon="12.1466678"><ele>594.0</ele><time>2026-04-30T14:40:26.979Z</time></trkpt><trkpt lat="42.3952207" lon="12.146573"><ele>594.0</ele><time>2026-04-30T14:40:27.98Z</time></trkpt><trkpt lat="42.3953475" lon="12.1464831"><ele>593.3333333333334</ele><time>2026-04-30T14:40:28.979Z</time></trkpt><trkpt lat="42.3954848" lon="12.1463966"><ele>592.6666666666667</ele><time>2026-04-30T14:40:29.979Z</time></trkpt><trkpt lat="42.3956323" lon="12.1463301"><ele>592.0</ele><time>2026-04-30T14:40:30.979Z</time></trkpt><trkpt lat="42.3957827" lon="12.1462458"><ele>590.6666666666667</ele><time>2026-04-30T14:40:31.979Z</time></trkpt><trkpt lat="42.3959458" lon="12.1461825"><ele>589.3333333333334</ele><time>2026-04-30T14:40:32.98Z</time></trkpt><trkpt lat="42.3961081" lon="12.1461349"><ele>588.0</ele><time>2026-04-30T14:40:33.979Z</time></trkpt><trkpt lat="42.3962718" lon="12.146095"><ele>586.3333333333334</ele><time>2026-04-30T14:40:34.979Z</time></trkpt><trkpt lat="42.3964282" lon="12.146054"><ele>584.6666666666667</ele><time>2026-04-30T14:40:35.98Z</time></trkpt><trkpt lat="42.39659" lon="12.146004"><ele>583.0</ele><time>2026-04-30T14:40:36.979Z</time></trkpt><trkpt lat="42.3967564" lon="12.1459445"><ele>583.0</ele><time>2026-04-30T14:40:37.979Z</time></trkpt><trkpt lat="42.3969329" lon="12.1458774"><ele>583.0</ele><time>2026-04-30T14:40:38.979Z</time></trkpt><trkpt lat="42.3971037" lon="12.1458068"><ele>583.0</ele><time>2026-04-30T14:40:39.98Z</time></trkpt><trkpt lat="42.3972588" lon="12.1457237"><ele>580.0</ele><time>2026-04-30T14:40:40.979Z</time></trkpt><trkpt lat="42.3974118" lon="12.1456337"><ele>577.0</ele><time>2026-04-30T14:40:41.979Z</time></trkpt><trkpt lat="42.3975644" lon="12.1455524"><ele>574.0</ele><time>2026-04-30T14:40:42.979Z</time></trkpt><trkpt lat="42.3977113" lon="12.1454729"><ele>574.0</ele><time>2026-04-30T14:40:43.98Z</time></trkpt><trkpt lat="42.3978654" lon="12.1453955"><ele>574.0</ele><time>2026-04-30T14:40:44.98Z</time></trkpt><trkpt lat="42.3980127" lon="12.1453127"><ele>574.0</ele><time>2026-04-30T14:40:45.979Z</time></trkpt><trkpt lat="42.3981592" lon="12.1452271"><ele>573.3333333333334</ele><time>2026-04-30T14:40:46.98Z</time></trkpt><trkpt lat="42.3983114" lon="12.1451468"><ele>572.6666666666666</ele><time>2026-04-30T14:40:47.979Z</time></trkpt><trkpt lat="42.3984582" lon="12.1450665"><ele>572.0</ele><time>2026-04-30T14:40:48.979Z</time></trkpt><trkpt lat="42.3986071" lon="12.1449786"><ele>572.0</ele><time>2026-04-30T14:40:49.979Z</time></trkpt><trkpt lat="42.3987597" lon="12.1448927"><ele>572.0</ele><time>2026-04-30T14:40:50.979Z</time></trkpt><trkpt lat="42.3989212" lon="12.1448063"><ele>572.0</ele><time>2026-04-30T14:40:51.98Z</time></trkpt><trkpt lat="42.3990796" lon="12.1447335"><ele>570.0</ele><time>2026-04-30T14:40:52.979Z</time></trkpt><trkpt lat="42.3992304" lon="12.1446618"><ele>568.0</ele><time>2026-04-30T14:40:53.979Z</time></trkpt><trkpt lat="42.3993775" lon="12.1445838"><ele>566.0</ele><time>2026-04-30T14:40:54.98Z</time></trkpt><trkpt lat="42.3995126" lon="12.1444993"><ele>566.0</ele><time>2026-04-30T14:40:55.979Z</time></trkpt><trkpt lat="42.3996531" lon="12.1444155"><ele>566.0</ele><time>2026-04-30T14:40:56.979Z</time></trkpt><trkpt lat="42.3997967" lon="12.1443162"><ele>566.0</ele><time>2026-04-30T14:40:57.979Z</time></trkpt><trkpt lat="42.3999478" lon="12.1442027"><ele>566.3333333333333</ele><time>2026-04-30T14:40:58.979Z</time></trkpt><trkpt lat="42.400096" lon="12.1440731"><ele>566.6666666666666</ele><time>2026-04-30T14:40:59.979Z</time></trkpt><trkpt lat="42.4002527" lon="12.1439353"><ele>567.0</ele><time>2026-04-30T14:41:00.979Z</time></trkpt><trkpt lat="42.400401" lon="12.143796"><ele>564.6666666666666</ele><time>2026-04-30T14:41:01.979Z</time></trkpt><trkpt lat="42.4005455" lon="12.1436448"><ele>562.3333333333333</ele><time>2026-04-30T14:41:02.98Z</time></trkpt><trkpt lat="42.4006947" lon="12.1434878"><ele>560.0</ele><time>2026-04-30T14:41:03.979Z</time></trkpt><trkpt lat="42.4008392" lon="12.1433246"><ele>557.0</ele><time>2026-04-30T14:41:04.979Z</time></trkpt><trkpt lat="42.4009825" lon="12.1431677"><ele>554.0</ele><time>2026-04-30T14:41:05.979Z</time></trkpt><trkpt lat="42.401123" lon="12.1430015"><ele>551.0</ele><time>2026-04-30T14:41:06.979Z</time></trkpt><trkpt lat="42.401259" lon="12.1428324"><ele>551.0</ele><time>2026-04-30T14:41:07.979Z</time></trkpt><trkpt lat="42.401388" lon="12.1426628"><ele>551.0</ele><time>2026-04-30T14:41:08.979Z</time></trkpt><trkpt lat="42.4015109" lon="12.1424832"><ele>551.0</ele><time>2026-04-30T14:41:09.98Z</time></trkpt><trkpt lat="42.4016261" lon="12.1422936"><ele>551.0</ele><time>2026-04-30T14:41:10.98Z</time></trkpt><trkpt lat="42.4017279" lon="12.1421019"><ele>551.0</ele><time>2026-04-30T14:41:11.98Z</time></trkpt><trkpt lat="42.4018162" lon="12.141902"><ele>551.0</ele><time>2026-04-30T14:41:12.98Z</time></trkpt><trkpt lat="42.4018989" lon="12.1417044"><ele>548.6666666666666</ele><time>2026-04-30T14:41:13.979Z</time></trkpt><trkpt lat="42.4019807" lon="12.1415143"><ele>546.3333333333334</ele><time>2026-04-30T14:41:14.98Z</time></trkpt><trkpt lat="42.4020602" lon="12.1413241"><ele>544.0</ele><time>2026-04-30T14:41:15.979Z</time></trkpt><trkpt lat="42.402142" lon="12.1411399"><ele>543.0</ele><time>2026-04-30T14:41:16.979Z</time></trkpt><trkpt lat="42.4022296" lon="12.1409577"><ele>542.0</ele><time>2026-04-30T14:41:17.979Z</time></trkpt><trkpt lat="42.4023198" lon="12.140787"><ele>541.0</ele><time>2026-04-30T14:41:18.979Z</time></trkpt><trkpt lat="42.402404" lon="12.1406238"><ele>541.0</ele><time>2026-04-30T14:41:19.979Z</time></trkpt><trkpt lat="42.4024877" lon="12.1404644"><ele>541.0</ele><time>2026-04-30T14:41:20.979Z</time></trkpt><trkpt lat="42.4025732" lon="12.1403187"><ele>541.0</ele><time>2026-04-30T14:41:21.979Z</time></trkpt><trkpt lat="42.4026556" lon="12.1401892"><ele>541.0</ele><time>2026-04-30T14:41:22.98Z</time></trkpt><trkpt lat="42.4027478" lon="12.1400774"><ele>541.0</ele><time>2026-04-30T14:41:23.979Z</time></trkpt><trkpt lat="42.4028507" lon="12.139987"><ele>541.0</ele><time>2026-04-30T14:41:24.98Z</time></trkpt><trkpt lat="42.4029514" lon="12.1399155"><ele>541.0</ele><time>2026-04-30T14:41:25.979Z</time></trkpt><trkpt lat="42.403048" lon="12.1398735"><ele>541.0</ele><time>2026-04-30T14:41:26.979Z</time></trkpt><trkpt lat="42.4031405" lon="12.1398511"><ele>541.0</ele><time>2026-04-30T14:41:27.98Z</time></trkpt><trkpt lat="42.4032309" lon="12.1398302"><ele>538.8</ele><time>2026-04-30T14:41:28.98Z</time></trkpt><trkpt lat="42.4033258" lon="12.1398046"><ele>536.6</ele><time>2026-04-30T14:41:29.98Z</time></trkpt><trkpt lat="42.4034209" lon="12.1397659"><ele>534.4</ele><time>2026-04-30T14:41:30.979Z</time></trkpt><trkpt lat="42.4035025" lon="12.1397022"><ele>532.2</ele><time>2026-04-30T14:41:31.98Z</time></trkpt><trkpt lat="42.403572" lon="12.1396107"><ele>530.0</ele><time>2026-04-30T14:41:32.98Z</time></trkpt><trkpt lat="42.4036232" lon="12.139494"><ele>530.0</ele><time>2026-04-30T14:41:33.979Z</time></trkpt><trkpt lat="42.4036514" lon="12.1393701"><ele>530.0</ele><time>2026-04-30T14:41:34.979Z</time></trkpt><trkpt lat="42.4036585" lon="12.1392442"><ele>530.0</ele><time>2026-04-30T14:41:35.979Z</time></trkpt><trkpt lat="42.4036536" lon="12.1391204"><ele>530.0</ele><time>2026-04-30T14:41:36.979Z</time></trkpt><trkpt lat="42.4036243" lon="12.1390078"><ele>530.0</ele><time>2026-04-30T14:41:37.979Z</time></trkpt><trkpt lat="42.40358" lon="12.1388968"><ele>528.6</ele><time>2026-04-30T14:41:38.979Z</time></trkpt><trkpt lat="42.4035181" lon="12.1388014"><ele>527.2</ele><time>2026-04-30T14:41:39.979Z</time></trkpt><trkpt lat="42.4034401" lon="12.1387053"><ele>525.8</ele><time>2026-04-30T14:41:40.979Z</time></trkpt><trkpt lat="42.4033595" lon="12.1386092"><ele>524.4</ele><time>2026-04-30T14:41:41.979Z</time></trkpt><trkpt lat="42.4032809" lon="12.1384973"><ele>523.0</ele><time>2026-04-30T14:41:42.979Z</time></trkpt><trkpt lat="42.4032153" lon="12.13837"><ele>523.0</ele><time>2026-04-30T14:41:43.979Z</time></trkpt><trkpt lat="42.4031581" lon="12.1382294"><ele>523.0</ele><time>2026-04-30T14:41:44.98Z</time></trkpt><trkpt lat="42.4031101" lon="12.138074"><ele>523.0</ele><time>2026-04-30T14:41:45.979Z</time></trkpt><trkpt lat="42.4030689" lon="12.1379094"><ele>523.0</ele><time>2026-04-30T14:41:46.979Z</time></trkpt><trkpt lat="42.4030446" lon="12.1377332"><ele>520.25</ele><time>2026-04-30T14:41:47.979Z</time></trkpt><trkpt lat="42.4030329" lon="12.1375522"><ele>517.5</ele><time>2026-04-30T14:41:48.979Z</time></trkpt><trkpt lat="42.4030307" lon="12.1373758"><ele>514.75</ele><time>2026-04-30T14:41:49.98Z</time></trkpt><trkpt lat="42.4030414" lon="12.137198"><ele>512.0</ele><time>2026-04-30T14:41:50.979Z</time></trkpt><trkpt lat="42.4030722" lon="12.1370251"><ele>510.75</ele><time>2026-04-30T14:41:51.979Z</time></trkpt><trkpt lat="42.4031256" lon="12.1368599"><ele>509.5</ele><time>2026-04-30T14:41:52.979Z</time></trkpt><trkpt lat="42.4031949" lon="12.1366971"><ele>508.25</ele><time>2026-04-30T14:41:53.979Z</time></trkpt><trkpt lat="42.4032866" lon="12.1365507"><ele>507.0</ele><time>2026-04-30T14:41:54.979Z</time></trkpt><trkpt lat="42.4033935" lon="12.1364129"><ele>506.0</ele><time>2026-04-30T14:41:55.979Z</time></trkpt><trkpt lat="42.4035061" lon="12.1362688"><ele>505.0</ele><time>2026-04-30T14:41:56.979Z</time></trkpt><trkpt lat="42.4037048" lon="12.1359859"><ele>504.0</ele><time>2026-04-30T14:41:58.979Z</time></trkpt><trkpt lat="42.403789" lon="12.1358407"><ele>502.25</ele><time>2026-04-30T14:41:59.979Z</time></trkpt><trkpt lat="42.4038768" lon="12.1356914"><ele>500.5</ele><time>2026-04-30T14:42:00.979Z</time></trkpt><trkpt lat="42.4039594" lon="12.1355468"><ele>498.75</ele><time>2026-04-30T14:42:01.979Z</time></trkpt><trkpt lat="42.4040407" lon="12.1353975"><ele>497.0</ele><time>2026-04-30T14:42:02.98Z</time></trkpt><trkpt lat="42.4041193" lon="12.1352497"><ele>497.0</ele><time>2026-04-30T14:42:03.979Z</time></trkpt><trkpt lat="42.4041978" lon="12.1351001"><ele>497.0</ele><time>2026-04-30T14:42:04.979Z</time></trkpt><trkpt lat="42.4042743" lon="12.1349563"><ele>497.0</ele><time>2026-04-30T14:42:05.979Z</time></trkpt><trkpt lat="42.4043504" lon="12.1348191"><ele>497.0</ele><time>2026-04-30T14:42:06.98Z</time></trkpt><trkpt lat="42.4044224" lon="12.13469"><ele>496.25</ele><time>2026-04-30T14:42:07.98Z</time></trkpt><trkpt lat="42.4044933" lon="12.1345658"><ele>495.5</ele><time>2026-04-30T14:42:08.98Z</time></trkpt><trkpt lat="42.4045629" lon="12.1344502"><ele>494.75</ele><time>2026-04-30T14:42:09.979Z</time></trkpt><trkpt lat="42.4046311" lon="12.1343324"><ele>494.0</ele><time>2026-04-30T14:42:10.979Z</time></trkpt><trkpt lat="42.4046979" lon="12.1342018"><ele>494.0</ele><time>2026-04-30T14:42:11.979Z</time></trkpt><trkpt lat="42.4047686" lon="12.1340669"><ele>494.0</ele><time>2026-04-30T14:42:12.979Z</time></trkpt><trkpt lat="42.4048407" lon="12.133932"><ele>494.0</ele><time>2026-04-30T14:42:13.979Z</time></trkpt><trkpt lat="42.4049168" lon="12.1337946"><ele>494.0</ele><time>2026-04-30T14:42:14.979Z</time></trkpt><trkpt lat="42.4049908" lon="12.1336566"><ele>493.25</ele><time>2026-04-30T14:42:15.979Z</time></trkpt><trkpt lat="42.405062" lon="12.1335058"><ele>492.5</ele><time>2026-04-30T14:42:16.979Z</time></trkpt><trkpt lat="42.4051216" lon="12.1333377"><ele>491.75</ele><time>2026-04-30T14:42:17.98Z</time></trkpt><trkpt lat="42.4051704" lon="12.1331573"><ele>491.0</ele><time>2026-04-30T14:42:18.979Z</time></trkpt><trkpt lat="42.4052079" lon="12.1329664"><ele>490.25</ele><time>2026-04-30T14:42:19.979Z</time></trkpt><trkpt lat="42.405226" lon="12.1327789"><ele>489.5</ele><time>2026-04-30T14:42:20.979Z</time></trkpt><trkpt lat="42.4052277" lon="12.1325934"><ele>488.75</ele><time>2026-04-30T14:42:21.98Z</time></trkpt><trkpt lat="42.4052073" lon="12.1324151"><ele>488.0</ele><time>2026-04-30T14:42:22.979Z</time></trkpt><trkpt lat="42.405167" lon="12.1322274"><ele>487.0</ele><time>2026-04-30T14:42:23.979Z</time></trkpt><trkpt lat="42.4051232" lon="12.1320517"><ele>486.0</ele><time>2026-04-30T14:42:24.979Z</time></trkpt><trkpt lat="42.4050734" lon="12.1318782"><ele>485.0</ele><time>2026-04-30T14:42:25.979Z</time></trkpt><trkpt lat="42.4050333" lon="12.1317035"><ele>484.0</ele><time>2026-04-30T14:42:26.98Z</time></trkpt><trkpt lat="42.4050298" lon="12.1313393"><ele>483.25</ele><time>2026-04-30T14:42:28.979Z</time></trkpt><trkpt lat="42.4050581" lon="12.1311569"><ele>482.5</ele><time>2026-04-30T14:42:29.979Z</time></trkpt><trkpt lat="42.4051064" lon="12.130985"><ele>481.75</ele><time>2026-04-30T14:42:30.98Z</time></trkpt><trkpt lat="42.4051566" lon="12.1308062"><ele>481.0</ele><time>2026-04-30T14:42:31.98Z</time></trkpt><trkpt lat="42.4052063" lon="12.1306276"><ele>479.0</ele><time>2026-04-30T14:42:32.979Z</time></trkpt><trkpt lat="42.4052555" lon="12.1304478"><ele>477.0</ele><time>2026-04-30T14:42:33.979Z</time></trkpt><trkpt lat="42.4053138" lon="12.1302756"><ele>475.0</ele><time>2026-04-30T14:42:34.979Z</time></trkpt><trkpt lat="42.4053725" lon="12.1300876"><ele>473.0</ele><time>2026-04-30T14:42:35.979Z</time></trkpt><trkpt lat="42.4054343" lon="12.1298998"><ele>472.0</ele><time>2026-04-30T14:42:36.98Z</time></trkpt><trkpt lat="42.4054994" lon="12.1297065"><ele>471.0</ele><time>2026-04-30T14:42:37.98Z</time></trkpt><trkpt lat="42.4055585" lon="12.1295192"><ele>470.0</ele><time>2026-04-30T14:42:38.979Z</time></trkpt><trkpt lat="42.4056134" lon="12.1293311"><ele>470.0</ele><time>2026-04-30T14:42:39.979Z</time></trkpt><trkpt lat="42.405672" lon="12.12915"><ele>470.0</ele><time>2026-04-30T14:42:40.979Z</time></trkpt><trkpt lat="42.4057293" lon="12.1289727"><ele>470.0</ele><time>2026-04-30T14:42:41.979Z</time></trkpt><trkpt lat="42.4057848" lon="12.1287958"><ele>470.0</ele><time>2026-04-30T14:42:42.979Z</time></trkpt><trkpt lat="42.4058297" lon="12.1286225"><ele>469.0</ele><time>2026-04-30T14:42:43.98Z</time></trkpt><trkpt lat="42.4058841" lon="12.1284621"><ele>468.0</ele><time>2026-04-30T14:42:44.979Z</time></trkpt><trkpt lat="42.4059391" lon="12.1282888"><ele>467.0</ele><time>2026-04-30T14:42:45.98Z</time></trkpt><trkpt lat="42.4059953" lon="12.1281168"><ele>466.0</ele><time>2026-04-30T14:42:46.979Z</time></trkpt><trkpt lat="42.4060542" lon="12.1279402"><ele>464.25</ele><time>2026-04-30T14:42:47.98Z</time></trkpt><trkpt lat="42.4061043" lon="12.1277646"><ele>462.5</ele><time>2026-04-30T14:42:48.979Z</time></trkpt><trkpt lat="42.4061592" lon="12.1275962"><ele>460.75</ele><time>2026-04-30T14:42:49.98Z</time></trkpt><trkpt lat="42.4062087" lon="12.1274192"><ele>459.0</ele><time>2026-04-30T14:42:50.98Z</time></trkpt><trkpt lat="42.406263" lon="12.1272474"><ele>457.75</ele><time>2026-04-30T14:42:51.979Z</time></trkpt><trkpt lat="42.4063224" lon="12.1270743"><ele>456.5</ele><time>2026-04-30T14:42:52.98Z</time></trkpt><trkpt lat="42.4063788" lon="12.1268983"><ele>455.25</ele><time>2026-04-30T14:42:53.979Z</time></trkpt><trkpt lat="42.4064368" lon="12.126721"><ele>454.0</ele><time>2026-04-30T14:42:54.98Z</time></trkpt><trkpt lat="42.4064904" lon="12.1265494"><ele>452.25</ele><time>2026-04-30T14:42:55.979Z</time></trkpt><trkpt lat="42.4065489" lon="12.1263789"><ele>450.5</ele><time>2026-04-30T14:42:56.98Z</time></trkpt><trkpt lat="42.4066036" lon="12.1262087"><ele>448.75</ele><time>2026-04-30T14:42:57.979Z</time></trkpt><trkpt lat="42.4066599" lon="12.126035"><ele>447.0</ele><time>2026-04-30T14:42:58.979Z</time></trkpt><trkpt lat="42.4067211" lon="12.125863"><ele>445.75</ele><time>2026-04-30T14:42:59.98Z</time></trkpt><trkpt lat="42.406782" lon="12.1256964"><ele>444.5</ele><time>2026-04-30T14:43:00.979Z</time></trkpt><trkpt lat="42.4068497" lon="12.1255254"><ele>443.25</ele><time>2026-04-30T14:43:01.979Z</time></trkpt><trkpt lat="42.4069202" lon="12.1253633"><ele>442.0</ele><time>2026-04-30T14:43:02.98Z</time></trkpt><trkpt lat="42.4069936" lon="12.1252101"><ele>442.0</ele><time>2026-04-30T14:43:03.979Z</time></trkpt><trkpt lat="42.4070704" lon="12.1250603"><ele>442.0</ele><time>2026-04-30T14:43:04.979Z</time></trkpt><trkpt lat="42.4071477" lon="12.1249117"><ele>442.0</ele><time>2026-04-30T14:43:05.979Z</time></trkpt><trkpt lat="42.4072261" lon="12.1247474"><ele>442.0</ele><time>2026-04-30T14:43:06.98Z</time></trkpt><trkpt lat="42.407305" lon="12.1245899"><ele>441.5</ele><time>2026-04-30T14:43:07.979Z</time></trkpt><trkpt lat="42.4073897" lon="12.1244291"><ele>441.0</ele><time>2026-04-30T14:43:08.979Z</time></trkpt><trkpt lat="42.4074759" lon="12.1242672"><ele>440.5</ele><time>2026-04-30T14:43:09.979Z</time></trkpt><trkpt lat="42.4075579" lon="12.1241107"><ele>440.0</ele><time>2026-04-30T14:43:10.979Z</time></trkpt><trkpt lat="42.4076489" lon="12.12396"><ele>438.5</ele><time>2026-04-30T14:43:11.98Z</time></trkpt><trkpt lat="42.4077474" lon="12.1238188"><ele>437.0</ele><time>2026-04-30T14:43:12.979Z</time></trkpt><trkpt lat="42.4078505" lon="12.1236837"><ele>435.5</ele><time>2026-04-30T14:43:13.98Z</time></trkpt><trkpt lat="42.4079546" lon="12.1235462"><ele>434.0</ele><time>2026-04-30T14:43:14.979Z</time></trkpt><trkpt lat="42.4080537" lon="12.1234132"><ele>434.0</ele><time>2026-04-30T14:43:15.979Z</time></trkpt><trkpt lat="42.4081436" lon="12.1232823"><ele>434.0</ele><time>2026-04-30T14:43:16.979Z</time></trkpt><trkpt lat="42.4082368" lon="12.123155"><ele>434.0</ele><time>2026-04-30T14:43:17.979Z</time></trkpt><trkpt lat="42.4083322" lon="12.1230262"><ele>434.0</ele><time>2026-04-30T14:43:18.979Z</time></trkpt><trkpt lat="42.4084296" lon="12.1228969"><ele>432.5</ele><time>2026-04-30T14:43:19.98Z</time></trkpt><trkpt lat="42.4085265" lon="12.1227781"><ele>431.0</ele><time>2026-04-30T14:43:20.979Z</time></trkpt><trkpt lat="42.40862" lon="12.12266"><ele>429.5</ele><time>2026-04-30T14:43:21.979Z</time></trkpt><trkpt lat="42.4087145" lon="12.1225445"><ele>428.0</ele><time>2026-04-30T14:43:22.979Z</time></trkpt><trkpt lat="42.4088041" lon="12.1224205"><ele>427.0</ele><time>2026-04-30T14:43:23.98Z</time></trkpt><trkpt lat="42.4088986" lon="12.1222943"><ele>426.0</ele><time>2026-04-30T14:43:24.979Z</time></trkpt><trkpt lat="42.4089943" lon="12.1221738"><ele>425.0</ele><time>2026-04-30T14:43:25.98Z</time></trkpt><trkpt lat="42.4090868" lon="12.1220499"><ele>424.0</ele><time>2026-04-30T14:43:26.98Z</time></trkpt><trkpt lat="42.4091749" lon="12.1219236"><ele>424.0</ele><time>2026-04-30T14:43:27.979Z</time></trkpt><trkpt lat="42.4092604" lon="12.1217991"><ele>424.0</ele><time>2026-04-30T14:43:28.98Z</time></trkpt><trkpt lat="42.4093316" lon="12.1216773"><ele>424.0</ele><time>2026-04-30T14:43:29.979Z</time></trkpt><trkpt lat="42.409406" lon="12.1215566"><ele>424.0</ele><time>2026-04-30T14:43:30.98Z</time></trkpt><trkpt lat="42.4094926" lon="12.1214521"><ele>422.2</ele><time>2026-04-30T14:43:31.98Z</time></trkpt><trkpt lat="42.4095741" lon="12.1213468"><ele>420.4</ele><time>2026-04-30T14:43:32.98Z</time></trkpt><trkpt lat="42.4096527" lon="12.1212432"><ele>418.6</ele><time>2026-04-30T14:43:33.98Z</time></trkpt><trkpt lat="42.409726" lon="12.121135"><ele>416.8</ele><time>2026-04-30T14:43:34.979Z</time></trkpt><trkpt lat="42.4098004" lon="12.1210265"><ele>415.0</ele><time>2026-04-30T14:43:35.98Z</time></trkpt><trkpt lat="42.4098778" lon="12.1209033"><ele>415.0</ele><time>2026-04-30T14:43:36.979Z</time></trkpt><trkpt lat="42.4099612" lon="12.1207793"><ele>415.0</ele><time>2026-04-30T14:43:37.979Z</time></trkpt><trkpt lat="42.4100427" lon="12.1206502"><ele>415.0</ele><time>2026-04-30T14:43:38.98Z</time></trkpt><trkpt lat="42.4101247" lon="12.1205243"><ele>415.0</ele><time>2026-04-30T14:43:39.979Z</time></trkpt><trkpt lat="42.4102078" lon="12.1203972"><ele>414.0</ele><time>2026-04-30T14:43:40.979Z</time></trkpt><trkpt lat="42.4102922" lon="12.1202692"><ele>413.0</ele><time>2026-04-30T14:43:41.979Z</time></trkpt><trkpt lat="42.4103686" lon="12.1201307"><ele>412.0</ele><time>2026-04-30T14:43:42.979Z</time></trkpt><trkpt lat="42.4104345" lon="12.119982"><ele>411.0</ele><time>2026-04-30T14:43:43.98Z</time></trkpt><trkpt lat="42.410491" lon="12.1198295"><ele>409.75</ele><time>2026-04-30T14:43:44.979Z</time></trkpt><trkpt lat="42.4105477" lon="12.1196779"><ele>408.5</ele><time>2026-04-30T14:43:45.979Z</time></trkpt><trkpt lat="42.4105869" lon="12.1195247"><ele>407.25</ele><time>2026-04-30T14:43:46.979Z</time></trkpt><trkpt lat="42.4106141" lon="12.1193629"><ele>406.0</ele><time>2026-04-30T14:43:47.98Z</time></trkpt><trkpt lat="42.4106358" lon="12.1192194"><ele>406.00000000000006</ele><time>2026-04-30T14:43:48.98Z</time></trkpt><trkpt lat="42.4106342" lon="12.1190877"><ele>406.0</ele><time>2026-04-30T14:43:49.98Z</time></trkpt><trkpt lat="42.4106218" lon="12.1189759"><ele>406.0</ele><time>2026-04-30T14:43:50.979Z</time></trkpt><trkpt lat="42.4105987" lon="12.118888"><ele>406.0</ele><time>2026-04-30T14:43:51.979Z</time></trkpt><trkpt lat="42.4105008" lon="12.1187822"><ele>406.00000000000006</ele><time>2026-04-30T14:43:53.979Z</time></trkpt><trkpt lat="42.4104373" lon="12.1187312"><ele>406.0</ele><time>2026-04-30T14:43:54.979Z</time></trkpt><trkpt lat="42.4103774" lon="12.1186872"><ele>405.14285714285717</ele><time>2026-04-30T14:43:55.98Z</time></trkpt><trkpt lat="42.410323" lon="12.1186411"><ele>404.2857142857143</ele><time>2026-04-30T14:43:56.979Z</time></trkpt><trkpt lat="42.4102701" lon="12.1185913"><ele>403.42857142857144</ele><time>2026-04-30T14:43:57.979Z</time></trkpt><trkpt lat="42.4102165" lon="12.1185297"><ele>402.57142857142856</ele><time>2026-04-30T14:43:58.979Z</time></trkpt><trkpt lat="42.410163" lon="12.1184575"><ele>401.7142857142857</ele><time>2026-04-30T14:43:59.979Z</time></trkpt><trkpt lat="42.410115" lon="12.1183685"><ele>400.8571428571429</ele><time>2026-04-30T14:44:00.979Z</time></trkpt><trkpt lat="42.4100741" lon="12.1182684"><ele>400.0</ele><time>2026-04-30T14:44:01.979Z</time></trkpt><trkpt lat="42.4100362" lon="12.1181543"><ele>398.6</ele><time>2026-04-30T14:44:02.979Z</time></trkpt><trkpt lat="42.4100025" lon="12.1180374"><ele>397.2</ele><time>2026-04-30T14:44:03.98Z</time></trkpt><trkpt lat="42.4099701" lon="12.1179168"><ele>395.79999999999995</ele><time>2026-04-30T14:44:04.979Z</time></trkpt><trkpt lat="42.4099519" lon="12.1177991"><ele>394.4</ele><time>2026-04-30T14:44:05.979Z</time></trkpt><trkpt lat="42.4099314" lon="12.1176767"><ele>393.0</ele><time>2026-04-30T14:44:06.979Z</time></trkpt><trkpt lat="42.4099178" lon="12.1175362"><ele>392.0</ele><time>2026-04-30T14:44:07.979Z</time></trkpt><trkpt lat="42.4099198" lon="12.1173937"><ele>391.0</ele><time>2026-04-30T14:44:08.979Z</time></trkpt><trkpt lat="42.4099266" lon="12.1172454"><ele>390.0</ele><time>2026-04-30T14:44:09.979Z</time></trkpt><trkpt lat="42.4099269" lon="12.1171068"><ele>389.0</ele><time>2026-04-30T14:44:10.979Z</time></trkpt><trkpt lat="42.4099377" lon="12.1169712"><ele>388.0</ele><time>2026-04-30T14:44:11.979Z</time></trkpt><trkpt lat="42.4099474" lon="12.1168346"><ele>388.0</ele><time>2026-04-30T14:44:12.979Z</time></trkpt><trkpt lat="42.4099522" lon="12.1167051"><ele>388.0</ele><time>2026-04-30T14:44:13.979Z</time></trkpt><trkpt lat="42.4099766" lon="12.1165882"><ele>388.0</ele><time>2026-04-30T14:44:14.98Z</time></trkpt><trkpt lat="42.4100125" lon="12.1164824"><ele>388.0</ele><time>2026-04-30T14:44:15.979Z</time></trkpt><trkpt lat="42.4100667" lon="12.1163875"><ele>388.0</ele><time>2026-04-30T14:44:16.979Z</time></trkpt><trkpt lat="42.4101327" lon="12.1162921"><ele>387.2</ele><time>2026-04-30T14:44:17.979Z</time></trkpt><trkpt lat="42.4101982" lon="12.1161946"><ele>386.4</ele><time>2026-04-30T14:44:18.98Z</time></trkpt><trkpt lat="42.4102613" lon="12.1160943"><ele>385.59999999999997</ele><time>2026-04-30T14:44:19.979Z</time></trkpt><trkpt lat="42.4103224" lon="12.1159955"><ele>384.79999999999995</ele><time>2026-04-30T14:44:20.979Z</time></trkpt><trkpt lat="42.4103789" lon="12.115894"><ele>384.0</ele><time>2026-04-30T14:44:21.979Z</time></trkpt><trkpt lat="42.4104468" lon="12.1157976"><ele>383.0</ele><time>2026-04-30T14:44:22.979Z</time></trkpt><trkpt lat="42.4105141" lon="12.1157037"><ele>382.0</ele><time>2026-04-30T14:44:23.98Z</time></trkpt><trkpt lat="42.4105821" lon="12.115613"><ele>381.0</ele><time>2026-04-30T14:44:24.979Z</time></trkpt><trkpt lat="42.4106453" lon="12.115528"><ele>380.0</ele><time>2026-04-30T14:44:25.979Z</time></trkpt><trkpt lat="42.4107098" lon="12.1154423"><ele>379.0</ele><time>2026-04-30T14:44:26.98Z</time></trkpt><trkpt lat="42.410775" lon="12.1153633"><ele>379.0</ele><time>2026-04-30T14:44:27.979Z</time></trkpt><trkpt lat="42.41084" lon="12.11527"><ele>379.0</ele><time>2026-04-30T14:44:28.979Z</time></trkpt><trkpt lat="42.4109033" lon="12.11518"><ele>379.0</ele><time>2026-04-30T14:44:29.979Z</time></trkpt><trkpt lat="42.410955" lon="12.115095"><ele>379.0</ele><time>2026-04-30T14:44:30.979Z</time></trkpt><trkpt lat="42.4110267" lon="12.11499"><ele>379.0</ele><time>2026-04-30T14:44:32.98Z</time></trkpt><trkpt lat="42.41108" lon="12.1149383"><ele>379.0</ele><time>2026-04-30T14:44:35.979Z</time></trkpt><trkpt lat="42.4111367" lon="12.1148283"><ele>378.6</ele><time>2026-04-30T14:44:50.979Z</time></trkpt><trkpt lat="42.4112217" lon="12.1146717"><ele>378.2</ele><time>2026-04-30T14:44:52.979Z</time></trkpt><trkpt lat="42.4112883" lon="12.11456"><ele>377.8</ele><time>2026-04-30T14:44:53.98Z</time></trkpt><trkpt lat="42.4113533" lon="12.1144533"><ele>377.40000000000003</ele><time>2026-04-30T14:44:54.98Z</time></trkpt><trkpt lat="42.4114183" lon="12.114365"><ele>377.0</ele><time>2026-04-30T14:44:55.979Z</time></trkpt><trkpt lat="42.4114717" lon="12.1142817"><ele>376.5</ele><time>2026-04-30T14:44:56.979Z</time></trkpt><trkpt lat="42.4115417" lon="12.1142383"><ele>376.0</ele><time>2026-04-30T14:44:58.979Z</time></trkpt><trkpt lat="42.4115967" lon="12.1141617"><ele>375.5</ele><time>2026-04-30T14:45:01.979Z</time></trkpt><trkpt lat="42.4116483" lon="12.1140767"><ele>375.0</ele><time>2026-04-30T14:45:04.979Z</time></trkpt><trkpt lat="42.41169" lon="12.1140033"><ele>374.5</ele><time>2026-04-30T14:45:05.979Z</time></trkpt><trkpt lat="42.4117517" lon="12.1139167"><ele>374.0</ele><time>2026-04-30T14:45:06.979Z</time></trkpt><trkpt lat="42.4118233" lon="12.1138167"><ele>372.79999999999995</ele><time>2026-04-30T14:45:07.979Z</time></trkpt><trkpt lat="42.4119033" lon="12.1137133"><ele>371.59999999999997</ele><time>2026-04-30T14:45:08.979Z</time></trkpt><trkpt lat="42.4119683" lon="12.1136083"><ele>370.4</ele><time>2026-04-30T14:45:09.979Z</time></trkpt><trkpt lat="42.4120383" lon="12.1135067"><ele>369.2</ele><time>2026-04-30T14:45:10.98Z</time></trkpt><trkpt lat="42.4120833" lon="12.1134283"><ele>368.0</ele><time>2026-04-30T14:45:11.98Z</time></trkpt><trkpt lat="42.4121333" lon="12.113355"><ele>367.0</ele><time>2026-04-30T14:45:12.979Z</time></trkpt><trkpt lat="42.4122133" lon="12.11327"><ele>366.0</ele><time>2026-04-30T14:45:14.979Z</time></trkpt><trkpt lat="42.4122733" lon="12.11323"><ele>365.0</ele><time>2026-04-30T14:45:16.979Z</time></trkpt><trkpt lat="42.4124033" lon="12.1131217"><ele>364.0</ele><time>2026-04-30T14:46:12.979Z</time></trkpt><trkpt lat="42.4124917" lon="12.112975"><ele>363.0</ele><time>2026-04-30T14:46:13.979Z</time></trkpt><trkpt lat="42.4125917" lon="12.1128067"><ele>362.0</ele><time>2026-04-30T14:46:14.979Z</time></trkpt><trkpt lat="42.41271" lon="12.1126383"><ele>361.0</ele><time>2026-04-30T14:46:15.98Z</time></trkpt><trkpt lat="42.4128183" lon="12.1124783"><ele>361.25</ele><time>2026-04-30T14:46:16.979Z</time></trkpt><trkpt lat="42.4129233" lon="12.1123083"><ele>361.5</ele><time>2026-04-30T14:46:17.979Z</time></trkpt><trkpt lat="42.4130183" lon="12.1121667"><ele>361.75</ele><time>2026-04-30T14:46:18.979Z</time></trkpt><trkpt lat="42.413105" lon="12.11205"><ele>362.0</ele><time>2026-04-30T14:46:19.979Z</time></trkpt><trkpt lat="42.4131867" lon="12.1119317"><ele>362.0</ele><time>2026-04-30T14:46:20.979Z</time></trkpt><trkpt lat="42.4132717" lon="12.111815"><ele>362.0</ele><time>2026-04-30T14:46:21.979Z</time></trkpt><trkpt lat="42.4133567" lon="12.11171"><ele>362.0</ele><time>2026-04-30T14:46:22.98Z</time></trkpt><trkpt lat="42.4134283" lon="12.1115733"><ele>362.0</ele><time>2026-04-30T14:46:23.979Z</time></trkpt><trkpt lat="42.4135083" lon="12.11146"><ele>361.6</ele><time>2026-04-30T14:46:24.979Z</time></trkpt><trkpt lat="42.413595" lon="12.111345"><ele>361.20000000000005</ele><time>2026-04-30T14:46:25.979Z</time></trkpt><trkpt lat="42.4136683" lon="12.1112383"><ele>360.8</ele><time>2026-04-30T14:46:26.979Z</time></trkpt><trkpt lat="42.4137483" lon="12.1111417"><ele>360.4</ele><time>2026-04-30T14:46:27.979Z</time></trkpt><trkpt lat="42.413805" lon="12.1110567"><ele>360.0</ele><time>2026-04-30T14:46:28.98Z</time></trkpt><trkpt lat="42.4138667" lon="12.110955"><ele>360.0</ele><time>2026-04-30T14:46:29.98Z</time></trkpt><trkpt lat="42.4139133" lon="12.1108683"><ele>360.0</ele><time>2026-04-30T14:46:30.979Z</time></trkpt><trkpt lat="42.4139617" lon="12.1107867"><ele>360.0</ele><time>2026-04-30T14:46:31.979Z</time></trkpt><trkpt lat="42.414005" lon="12.1107117"><ele>360.0</ele><time>2026-04-30T14:46:32.979Z</time></trkpt><trkpt lat="42.4140767" lon="12.1106267"><ele>360.0</ele><time>2026-04-30T14:46:34.98Z</time></trkpt><trkpt lat="42.4141333" lon="12.1105517"><ele>360.0</ele><time>2026-04-30T14:46:48.979Z</time></trkpt><trkpt lat="42.41419" lon="12.1104567"><ele>359.5</ele><time>2026-04-30T14:47:46.979Z</time></trkpt><trkpt lat="42.4142533" lon="12.110395"><ele>359.0</ele><time>2026-04-30T14:47:47.979Z</time></trkpt><trkpt lat="42.4143033" lon="12.11033"><ele>358.5</ele><time>2026-04-30T14:47:48.979Z</time></trkpt><trkpt lat="42.4143467" lon="12.1102633"><ele>358.0</ele><time>2026-04-30T14:47:49.979Z</time></trkpt><trkpt lat="42.41439" lon="12.1101967"><ele>357.5</ele><time>2026-04-30T14:47:50.979Z</time></trkpt><trkpt lat="42.4144883" lon="12.1101267"><ele>357.0</ele><time>2026-04-30T14:47:52.98Z</time></trkpt><trkpt lat="42.4146167" lon="12.11016"><ele>357.3333333333333</ele><time>2026-04-30T14:47:54.98Z</time></trkpt><trkpt lat="42.4147317" lon="12.1101833"><ele>357.6666666666667</ele><time>2026-04-30T14:47:56.979Z</time></trkpt><trkpt lat="42.4148083" lon="12.11019"><ele>358.0</ele><time>2026-04-30T14:47:58.979Z</time></trkpt><trkpt lat="42.4148817" lon="12.110215"><ele>358.33333333333337</ele><time>2026-04-30T14:48:00.979Z</time></trkpt><trkpt lat="42.414945" lon="12.1102267"><ele>358.6666666666667</ele><time>2026-04-30T14:48:02.979Z</time></trkpt><trkpt lat="42.4150133" lon="12.1102283"><ele>359.0</ele><time>2026-04-30T14:48:05.979Z</time></trkpt><trkpt lat="42.4150783" lon="12.1102317"><ele>359.0</ele><time>2026-04-30T14:48:07.979Z</time></trkpt><trkpt lat="42.4151717" lon="12.11026"><ele>359.0</ele><time>2026-04-30T14:48:10.979Z</time></trkpt><trkpt lat="42.4152633" lon="12.1102833"><ele>359.0</ele><time>2026-04-30T14:48:13.979Z</time></trkpt><trkpt lat="42.4153283" lon="12.1102967"><ele>359.0</ele><time>2026-04-30T14:48:16.98Z</time></trkpt><trkpt lat="42.4154017" lon="12.1103033"><ele>359.0</ele><time>2026-04-30T14:48:18.979Z</time></trkpt><trkpt lat="42.415495" lon="12.1102983"><ele>359.0</ele><time>2026-04-30T14:48:20.98Z</time></trkpt><trkpt lat="42.4156083" lon="12.110285"><ele>358.6</ele><time>2026-04-30T14:48:22.979Z</time></trkpt><trkpt lat="42.41572" lon="12.110255"><ele>358.2</ele><time>2026-04-30T14:48:24.979Z</time></trkpt><trkpt lat="42.415855" lon="12.1102367"><ele>357.8</ele><time>2026-04-30T14:48:26.979Z</time></trkpt><trkpt lat="42.41593" lon="12.110225"><ele>357.40000000000003</ele><time>2026-04-30T14:48:27.979Z</time></trkpt><trkpt lat="42.4160067" lon="12.1102233"><ele>357.0</ele><time>2026-04-30T14:48:28.979Z</time></trkpt><trkpt lat="42.4160933" lon="12.1102383"><ele>357.0</ele><time>2026-04-30T14:48:29.979Z</time></trkpt><trkpt lat="42.4161883" lon="12.1102433"><ele>357.0</ele><time>2026-04-30T14:48:30.979Z</time></trkpt><trkpt lat="42.4162767" lon="12.1102467"><ele>357.0</ele><time>2026-04-30T14:48:31.98Z</time></trkpt><trkpt lat="42.4163667" lon="12.11025"><ele>357.0</ele><time>2026-04-30T14:48:32.979Z</time></trkpt><trkpt lat="42.4164683" lon="12.1102533"><ele>357.0</ele><time>2026-04-30T14:48:33.979Z</time></trkpt><trkpt lat="42.4165717" lon="12.1102533"><ele>356.6</ele><time>2026-04-30T14:48:34.979Z</time></trkpt><trkpt lat="42.416675" lon="12.110245"><ele>356.20000000000005</ele><time>2026-04-30T14:48:35.98Z</time></trkpt><trkpt lat="42.4167817" lon="12.1102383"><ele>355.8</ele><time>2026-04-30T14:48:36.979Z</time></trkpt><trkpt lat="42.41689" lon="12.1102417"><ele>355.4</ele><time>2026-04-30T14:48:37.98Z</time></trkpt><trkpt lat="42.4170017" lon="12.110235"><ele>355.0</ele><time>2026-04-30T14:48:38.98Z</time></trkpt><trkpt lat="42.417125" lon="12.1102317"><ele>354.5</ele><time>2026-04-30T14:48:39.979Z</time></trkpt><trkpt lat="42.4172617" lon="12.110225"><ele>354.0</ele><time>2026-04-30T14:48:40.979Z</time></trkpt><trkpt lat="42.4174017" lon="12.1102217"><ele>353.5</ele><time>2026-04-30T14:48:41.98Z</time></trkpt><trkpt lat="42.417535" lon="12.1102217"><ele>353.0</ele><time>2026-04-30T14:48:42.979Z</time></trkpt><trkpt lat="42.4176683" lon="12.1102167"><ele>353.0</ele><time>2026-04-30T14:48:43.98Z</time></trkpt><trkpt lat="42.41779" lon="12.1102167"><ele>353.0</ele><time>2026-04-30T14:48:44.98Z</time></trkpt><trkpt lat="42.4179167" lon="12.1102117"><ele>353.0</ele><time>2026-04-30T14:48:45.979Z</time></trkpt><trkpt lat="42.418045" lon="12.1101983"><ele>353.0</ele><time>2026-04-30T14:48:46.98Z</time></trkpt><trkpt lat="42.4181767" lon="12.110195"><ele>352.5</ele><time>2026-04-30T14:48:47.98Z</time></trkpt><trkpt lat="42.4183233" lon="12.11019"><ele>352.0</ele><time>2026-04-30T14:48:48.979Z</time></trkpt><trkpt lat="42.4184633" lon="12.1101767"><ele>351.5</ele><time>2026-04-30T14:48:49.979Z</time></trkpt><trkpt lat="42.4185933" lon="12.1101533"><ele>351.0</ele><time>2026-04-30T14:48:50.979Z</time></trkpt><trkpt lat="42.4187183" lon="12.1101367"><ele>351.0</ele><time>2026-04-30T14:48:51.98Z</time></trkpt><trkpt lat="42.41883" lon="12.11012"><ele>351.0</ele><time>2026-04-30T14:48:52.98Z</time></trkpt><trkpt lat="42.41891" lon="12.1100983"><ele>351.0</ele><time>2026-04-30T14:48:53.979Z</time></trkpt><trkpt lat="42.4189767" lon="12.1100783"><ele>351.0</ele><time>2026-04-30T14:48:54.979Z</time></trkpt><trkpt lat="42.4190883" lon="12.11005"><ele>351.0</ele><time>2026-04-30T14:48:56.98Z</time></trkpt><trkpt lat="42.4191517" lon="12.1100367"><ele>351.0</ele><time>2026-04-30T14:48:57.979Z</time></trkpt><trkpt lat="42.4192217" lon="12.1100317"><ele>351.0</ele><time>2026-04-30T14:48:58.98Z</time></trkpt><trkpt lat="42.4193283" lon="12.1100317"><ele>351.0</ele><time>2026-04-30T14:48:59.979Z</time></trkpt><trkpt lat="42.4194783" lon="12.1100467"><ele>351.0</ele><time>2026-04-30T14:49:00.979Z</time></trkpt><trkpt lat="42.4196433" lon="12.1100717"><ele>351.0</ele><time>2026-04-30T14:49:01.98Z</time></trkpt><trkpt lat="42.4197867" lon="12.1100733"><ele>350.4</ele><time>2026-04-30T14:49:02.98Z</time></trkpt><trkpt lat="42.419895" lon="12.110085"><ele>349.8</ele><time>2026-04-30T14:49:03.98Z</time></trkpt><trkpt lat="42.4199917" lon="12.1101033"><ele>349.2</ele><time>2026-04-30T14:49:04.979Z</time></trkpt><trkpt lat="42.4200833" lon="12.1101067"><ele>348.59999999999997</ele><time>2026-04-30T14:49:05.979Z</time></trkpt><trkpt lat="42.4201667" lon="12.110105"><ele>348.0</ele><time>2026-04-30T14:49:06.979Z</time></trkpt><trkpt lat="42.4202417" lon="12.110115"><ele>348.0</ele><time>2026-04-30T14:49:07.979Z</time></trkpt><trkpt lat="42.4203183" lon="12.1101267"><ele>348.0</ele><time>2026-04-30T14:49:08.979Z</time></trkpt><trkpt lat="42.4203933" lon="12.110125"><ele>348.0</ele><time>2026-04-30T14:49:09.979Z</time></trkpt><trkpt lat="42.4204567" lon="12.1101367"><ele>348.0</ele><time>2026-04-30T14:49:10.98Z</time></trkpt><trkpt lat="42.42053" lon="12.1101083"><ele>348.0</ele><time>2026-04-30T14:49:11.979Z</time></trkpt><trkpt lat="42.420625" lon="12.11006"><ele>348.0</ele><time>2026-04-30T14:49:12.979Z</time></trkpt><trkpt lat="42.4207267" lon="12.1100033"><ele>346.75</ele><time>2026-04-30T14:49:13.98Z</time></trkpt><trkpt lat="42.420835" lon="12.1099283"><ele>345.5</ele><time>2026-04-30T14:49:14.979Z</time></trkpt><trkpt lat="42.4209517" lon="12.10986"><ele>344.25</ele><time>2026-04-30T14:49:15.98Z</time></trkpt><trkpt lat="42.42108" lon="12.109775"><ele>343.0</ele><time>2026-04-30T14:49:16.979Z</time></trkpt><trkpt lat="42.4212033" lon="12.109675"><ele>341.5</ele><time>2026-04-30T14:49:17.979Z</time></trkpt><trkpt lat="42.4213433" lon="12.1095867"><ele>340.0</ele><time>2026-04-30T14:49:18.98Z</time></trkpt><trkpt lat="42.4214783" lon="12.1095167"><ele>338.5</ele><time>2026-04-30T14:49:19.979Z</time></trkpt><trkpt lat="42.4216133" lon="12.1094333"><ele>337.0</ele><time>2026-04-30T14:49:20.979Z</time></trkpt><trkpt lat="42.4217317" lon="12.1093483"><ele>337.0</ele><time>2026-04-30T14:49:21.979Z</time></trkpt><trkpt lat="42.42184" lon="12.10925"><ele>337.0</ele><time>2026-04-30T14:49:22.979Z</time></trkpt><trkpt lat="42.421935" lon="12.10912"><ele>337.0</ele><time>2026-04-30T14:49:23.979Z</time></trkpt><trkpt lat="42.4220217" lon="12.1089633"><ele>337.0</ele><time>2026-04-30T14:49:24.979Z</time></trkpt><trkpt lat="42.4221217" lon="12.1088133"><ele>337.66666666666663</ele><time>2026-04-30T14:49:25.98Z</time></trkpt><trkpt lat="42.422235" lon="12.1086633"><ele>338.3333333333333</ele><time>2026-04-30T14:49:26.98Z</time></trkpt><trkpt lat="42.4223583" lon="12.1085083"><ele>339.0</ele><time>2026-04-30T14:49:27.979Z</time></trkpt><trkpt lat="42.4224933" lon="12.1083533"><ele>339.75</ele><time>2026-04-30T14:49:28.979Z</time></trkpt><trkpt lat="42.4226083" lon="12.10822"><ele>340.5</ele><time>2026-04-30T14:49:29.979Z</time></trkpt><trkpt lat="42.4227167" lon="12.1080917"><ele>341.25</ele><time>2026-04-30T14:49:30.979Z</time></trkpt><trkpt lat="42.42281" lon="12.1079733"><ele>342.0</ele><time>2026-04-30T14:49:31.979Z</time></trkpt><trkpt lat="42.4228983" lon="12.107865"><ele>342.0</ele><time>2026-04-30T14:49:32.979Z</time></trkpt><trkpt lat="42.4229767" lon="12.1077683"><ele>342.0</ele><time>2026-04-30T14:49:33.979Z</time></trkpt><trkpt lat="42.423035" lon="12.1077"><ele>342.0</ele><time>2026-04-30T14:49:34.979Z</time></trkpt><trkpt lat="42.423085" lon="12.1076317"><ele>342.0</ele><time>2026-04-30T14:49:35.98Z</time></trkpt><trkpt lat="42.4231767" lon="12.107525"><ele>342.0</ele><time>2026-04-30T14:49:37.979Z</time></trkpt><trkpt lat="42.4232467" lon="12.1074417"><ele>342.1666666666667</ele><time>2026-04-30T14:49:39.979Z</time></trkpt><trkpt lat="42.423285" lon="12.1073567"><ele>342.3333333333333</ele><time>2026-04-30T14:49:41.98Z</time></trkpt><trkpt lat="42.4233217" lon="12.107255"><ele>342.5</ele><time>2026-04-30T14:49:43.979Z</time></trkpt><trkpt lat="42.4233483" lon="12.1071733"><ele>342.66666666666663</ele><time>2026-04-30T14:49:45.98Z</time></trkpt><trkpt lat="42.42336" lon="12.10707"><ele>342.8333333333333</ele><time>2026-04-30T14:49:48.979Z</time></trkpt><trkpt lat="42.42337" lon="12.1069533"><ele>343.0</ele><time>2026-04-30T14:49:50.98Z</time></trkpt><trkpt lat="42.4234367" lon="12.1068417"><ele>343.0</ele><time>2026-04-30T14:49:52.979Z</time></trkpt><trkpt lat="42.4235017" lon="12.10679"><ele>343.0</ele><time>2026-04-30T14:49:53.979Z</time></trkpt><trkpt lat="42.42359" lon="12.1067233"><ele>343.0</ele><time>2026-04-30T14:49:54.979Z</time></trkpt><trkpt lat="42.4236817" lon="12.1066617"><ele>343.0</ele><time>2026-04-30T14:49:55.979Z</time></trkpt><trkpt lat="42.42377" lon="12.106605"><ele>343.0</ele><time>2026-04-30T14:49:56.98Z</time></trkpt><trkpt lat="42.4238317" lon="12.106565"><ele>343.0</ele><time>2026-04-30T14:49:57.979Z</time></trkpt><trkpt lat="42.4239117" lon="12.1065233"><ele>343.0</ele><time>2026-04-30T14:49:59.979Z</time></trkpt><trkpt lat="42.4239783" lon="12.10649"><ele>343.0</ele><time>2026-04-30T14:50:01.98Z</time></trkpt><trkpt lat="42.4239117" lon="12.1064817"><ele>343.0</ele><time>2026-04-30T14:50:07.979Z</time></trkpt><trkpt lat="42.423825" lon="12.1065533"><ele>343.0</ele><time>2026-04-30T14:50:08.979Z</time></trkpt><trkpt lat="42.4236933" lon="12.1066383"><ele>343.0</ele><time>2026-04-30T14:50:09.979Z</time></trkpt><trkpt lat="42.423575" lon="12.10671"><ele>343.0</ele><time>2026-04-30T14:50:10.979Z</time></trkpt><trkpt lat="42.4234633" lon="12.10678"><ele>343.0</ele><time>2026-04-30T14:50:11.979Z</time></trkpt><trkpt lat="42.42339" lon="12.106815"><ele>343.0</ele><time>2026-04-30T14:50:12.979Z</time></trkpt><trkpt lat="42.423315" lon="12.1068067"><ele>343.0</ele><time>2026-04-30T14:50:14.979Z</time></trkpt><trkpt lat="42.423255" lon="12.1067183"><ele>343.0</ele><time>2026-04-30T14:50:16.979Z</time></trkpt><trkpt lat="42.4232183" lon="12.1066483"><ele>343.0</ele><time>2026-04-30T14:50:17.979Z</time></trkpt><trkpt lat="42.423195" lon="12.1065683"><ele>343.0</ele><time>2026-04-30T14:50:18.98Z</time></trkpt><trkpt lat="42.4231733" lon="12.106485"><ele>343.0</ele><time>2026-04-30T14:50:19.979Z</time></trkpt><trkpt lat="42.4231433" lon="12.1064"><ele>343.0</ele><time>2026-04-30T14:50:20.979Z</time></trkpt><trkpt lat="42.4231133" lon="12.1063033"><ele>343.0</ele><time>2026-04-30T14:50:22.979Z</time></trkpt><trkpt lat="42.4231517" lon="12.1062317"><ele>343.0</ele><time>2026-04-30T14:50:25.979Z</time></trkpt><trkpt lat="42.4232167" lon="12.1061833"><ele>343.0</ele><time>2026-04-30T14:50:30.979Z</time></trkpt><trkpt lat="42.423355" lon="12.1061033"><ele>343.0</ele><time>2026-04-30T14:50:32.98Z</time></trkpt><trkpt lat="42.4234517" lon="12.1060417"><ele>343.0</ele><time>2026-04-30T14:50:33.979Z</time></trkpt><trkpt lat="42.4235467" lon="12.1059833"><ele>343.0</ele><time>2026-04-30T14:50:34.98Z</time></trkpt><trkpt lat="42.4236367" lon="12.105925"><ele>343.0</ele><time>2026-04-30T14:50:35.979Z</time></trkpt><trkpt lat="42.4237217" lon="12.1058633"><ele>343.0</ele><time>2026-04-30T14:50:36.979Z</time></trkpt><trkpt lat="42.423795" lon="12.1058"><ele>342.79999999999995</ele><time>2026-04-30T14:50:37.98Z</time></trkpt><trkpt lat="42.42386" lon="12.10571"><ele>342.6</ele><time>2026-04-30T14:50:38.979Z</time></trkpt><trkpt lat="42.4239367" lon="12.1055933"><ele>342.4</ele><time>2026-04-30T14:50:39.979Z</time></trkpt><trkpt lat="42.4240067" lon="12.1054583"><ele>342.20000000000005</ele><time>2026-04-30T14:50:40.979Z</time></trkpt><trkpt lat="42.424075" lon="12.1053283"><ele>342.0</ele><time>2026-04-30T14:50:41.979Z</time></trkpt><trkpt lat="42.4241317" lon="12.1052167"><ele>342.0</ele><time>2026-04-30T14:50:42.979Z</time></trkpt><trkpt lat="42.4241867" lon="12.1051283"><ele>342.0</ele><time>2026-04-30T14:50:43.98Z</time></trkpt><trkpt lat="42.424235" lon="12.105055"><ele>342.0</ele><time>2026-04-30T14:50:44.979Z</time></trkpt><trkpt lat="42.4243283" lon="12.1049583"><ele>342.0</ele><time>2026-04-30T14:50:46.98Z</time></trkpt><trkpt lat="42.4244117" lon="12.1049033"><ele>342.0</ele><time>2026-04-30T14:50:48.979Z</time></trkpt><trkpt lat="42.424515" lon="12.104835"><ele>341.3333333333333</ele><time>2026-04-30T14:50:50.979Z</time></trkpt><trkpt lat="42.424585" lon="12.1047783"><ele>340.6666666666667</ele><time>2026-04-30T14:50:51.98Z</time></trkpt><trkpt lat="42.4246517" lon="12.1047167"><ele>340.0</ele><time>2026-04-30T14:50:52.979Z</time></trkpt><trkpt lat="42.4247217" lon="12.1046717"><ele>339.33333333333337</ele><time>2026-04-30T14:50:53.979Z</time></trkpt><trkpt lat="42.424795" lon="12.1046217"><ele>338.6666666666667</ele><time>2026-04-30T14:50:54.979Z</time></trkpt><trkpt lat="42.4248683" lon="12.1045733"><ele>338.0</ele><time>2026-04-30T14:50:55.979Z</time></trkpt><trkpt lat="42.42494" lon="12.1045317"><ele>338.0</ele><time>2026-04-30T14:50:56.979Z</time></trkpt><trkpt lat="42.4250133" lon="12.1044833"><ele>338.0</ele><time>2026-04-30T14:50:57.979Z</time></trkpt><trkpt lat="42.4250817" lon="12.10444"><ele>338.0</ele><time>2026-04-30T14:50:58.979Z</time></trkpt><trkpt lat="42.4251583" lon="12.1043983"><ele>338.0</ele><time>2026-04-30T14:50:59.979Z</time></trkpt><trkpt lat="42.4252233" lon="12.10436"><ele>338.0</ele><time>2026-04-30T14:51:00.979Z</time></trkpt><trkpt lat="42.4252967" lon="12.1043317"><ele>338.0</ele><time>2026-04-30T14:51:01.979Z</time></trkpt><trkpt lat="42.4253717" lon="12.1042783"><ele>338.0</ele><time>2026-04-30T14:51:02.979Z</time></trkpt><trkpt lat="42.4254583" lon="12.1042267"><ele>338.0</ele><time>2026-04-30T14:51:03.979Z</time></trkpt><trkpt lat="42.4255417" lon="12.1041717"><ele>338.0</ele><time>2026-04-30T14:51:04.979Z</time></trkpt><trkpt lat="42.4256267" lon="12.104135"><ele>338.0</ele><time>2026-04-30T14:51:05.979Z</time></trkpt><trkpt lat="42.4257067" lon="12.1040683"><ele>338.0</ele><time>2026-04-30T14:51:06.979Z</time></trkpt><trkpt lat="42.4257867" lon="12.1040133"><ele>337.5</ele><time>2026-04-30T14:51:07.979Z</time></trkpt><trkpt lat="42.42587" lon="12.1039683"><ele>337.0</ele><time>2026-04-30T14:51:08.979Z</time></trkpt><trkpt lat="42.4259533" lon="12.1039183"><ele>336.5</ele><time>2026-04-30T14:51:09.979Z</time></trkpt><trkpt lat="42.4260317" lon="12.1038667"><ele>336.0</ele><time>2026-04-30T14:51:10.979Z</time></trkpt><trkpt lat="42.4261133" lon="12.10381"><ele>335.5</ele><time>2026-04-30T14:51:11.979Z</time></trkpt><trkpt lat="42.4261883" lon="12.1037533"><ele>335.0</ele><time>2026-04-30T14:51:12.979Z</time></trkpt><trkpt lat="42.4262533" lon="12.1037"><ele>335.2</ele><time>2026-04-30T14:51:13.979Z</time></trkpt><trkpt lat="42.4263417" lon="12.1036317"><ele>335.4</ele><time>2026-04-30T14:51:15.98Z</time></trkpt><trkpt lat="42.4264" lon="12.103575"><ele>335.6</ele><time>2026-04-30T14:51:17.979Z</time></trkpt><trkpt lat="42.4264417" lon="12.1034767"><ele>335.8</ele><time>2026-04-30T14:51:19.98Z</time></trkpt><trkpt lat="42.426495" lon="12.1033717"><ele>336.0</ele><time>2026-04-30T14:51:21.979Z</time></trkpt><trkpt lat="42.426555" lon="12.1032483"><ele>335.20000000000005</ele><time>2026-04-30T14:51:23.979Z</time></trkpt><trkpt lat="42.4266083" lon="12.1031283"><ele>334.40000000000003</ele><time>2026-04-30T14:51:25.979Z</time></trkpt><trkpt lat="42.4266417" lon="12.103055"><ele>333.6</ele><time>2026-04-30T14:51:26.979Z</time></trkpt><trkpt lat="42.4266933" lon="12.1029483"><ele>332.8</ele><time>2026-04-30T14:51:27.98Z</time></trkpt><trkpt lat="42.4267433" lon="12.102825"><ele>332.0</ele><time>2026-04-30T14:51:28.979Z</time></trkpt><trkpt lat="42.4268067" lon="12.10271"><ele>332.0</ele><time>2026-04-30T14:51:29.979Z</time></trkpt><trkpt lat="42.4268633" lon="12.10259"><ele>332.0</ele><time>2026-04-30T14:51:30.979Z</time></trkpt><trkpt lat="42.4269183" lon="12.10246"><ele>332.0</ele><time>2026-04-30T14:51:31.979Z</time></trkpt><trkpt lat="42.426965" lon="12.1023517"><ele>332.0</ele><time>2026-04-30T14:51:32.979Z</time></trkpt><trkpt lat="42.42701" lon="12.1022667"><ele>332.0</ele><time>2026-04-30T14:51:33.979Z</time></trkpt><trkpt lat="42.4270733" lon="12.1021467"><ele>332.0</ele><time>2026-04-30T14:51:35.979Z</time></trkpt><trkpt lat="42.4271067" lon="12.1020717"><ele>332.0</ele><time>2026-04-30T14:51:36.979Z</time></trkpt><trkpt lat="42.4271488" lon="12.1019882"><ele>332.0</ele><time>2026-04-30T14:51:37.98Z</time></trkpt><trkpt lat="42.4271907" lon="12.101897"><ele>332.0</ele><time>2026-04-30T14:51:38.979Z</time></trkpt><trkpt lat="42.4272348" lon="12.1018041"><ele>332.0</ele><time>2026-04-30T14:51:39.979Z</time></trkpt><trkpt lat="42.4272749" lon="12.1017079"><ele>332.0</ele><time>2026-04-30T14:51:40.979Z</time></trkpt><trkpt lat="42.4273141" lon="12.1016166"><ele>331.1666666666667</ele><time>2026-04-30T14:51:41.98Z</time></trkpt><trkpt lat="42.427359" lon="12.101522"><ele>330.33333333333337</ele><time>2026-04-30T14:51:42.98Z</time></trkpt><trkpt lat="42.427404" lon="12.101426"><ele>329.5</ele><time>2026-04-30T14:51:43.98Z</time></trkpt><trkpt lat="42.4274491" lon="12.1013318"><ele>328.6666666666667</ele><time>2026-04-30T14:51:44.979Z</time></trkpt><trkpt lat="42.4274955" lon="12.1012379"><ele>327.8333333333333</ele><time>2026-04-30T14:51:45.979Z</time></trkpt><trkpt lat="42.4275316" lon="12.1011522"><ele>327.0</ele><time>2026-04-30T14:51:46.979Z</time></trkpt><trkpt lat="42.4275703" lon="12.1010685"><ele>327.0</ele><time>2026-04-30T14:51:47.979Z</time></trkpt><trkpt lat="42.4276088" lon="12.1009844"><ele>327.0</ele><time>2026-04-30T14:51:48.979Z</time></trkpt><trkpt lat="42.4276543" lon="12.1009015"><ele>327.0</ele><time>2026-04-30T14:51:49.979Z</time></trkpt><trkpt lat="42.4277091" lon="12.1008245"><ele>327.0</ele><time>2026-04-30T14:51:50.98Z</time></trkpt><trkpt lat="42.427767" lon="12.1007517"><ele>327.0</ele><time>2026-04-30T14:51:51.979Z</time></trkpt><trkpt lat="42.4278294" lon="12.1006708"><ele>327.0</ele><time>2026-04-30T14:51:52.979Z</time></trkpt><trkpt lat="42.4278952" lon="12.1005979"><ele>326.8</ele><time>2026-04-30T14:51:53.979Z</time></trkpt><trkpt lat="42.4279564" lon="12.1005401"><ele>326.6</ele><time>2026-04-30T14:51:54.979Z</time></trkpt><trkpt lat="42.428058" lon="12.1004717"><ele>326.40000000000003</ele><time>2026-04-30T14:51:56.98Z</time></trkpt><trkpt lat="42.4281363" lon="12.1004249"><ele>326.20000000000005</ele><time>2026-04-30T14:51:58.979Z</time></trkpt><trkpt lat="42.4282295" lon="12.1003901"><ele>326.0</ele><time>2026-04-30T14:52:00.979Z</time></trkpt><trkpt lat="42.4283386" lon="12.1003691"><ele>326.33333333333337</ele><time>2026-04-30T14:52:02.979Z</time></trkpt><trkpt lat="42.4284339" lon="12.100366"><ele>326.6666666666667</ele><time>2026-04-30T14:52:09.979Z</time></trkpt><trkpt lat="42.4285222" lon="12.1003644"><ele>327.0</ele><time>2026-04-30T14:52:11.979Z</time></trkpt><trkpt lat="42.4285908" lon="12.1003504"><ele>327.3333333333333</ele><time>2026-04-30T14:52:14.979Z</time></trkpt><trkpt lat="42.4286665" lon="12.1003327"><ele>327.66666666666663</ele><time>2026-04-30T14:52:18.979Z</time></trkpt><trkpt lat="42.4287624" lon="12.1003097"><ele>328.0</ele><time>2026-04-30T14:52:20.979Z</time></trkpt><trkpt lat="42.4288356" lon="12.1002949"><ele>328.25</ele><time>2026-04-30T14:52:21.979Z</time></trkpt><trkpt lat="42.4289338" lon="12.1002751"><ele>328.5</ele><time>2026-04-30T14:52:22.979Z</time></trkpt><trkpt lat="42.429053" lon="12.1002511"><ele>328.75</ele><time>2026-04-30T14:52:23.98Z</time></trkpt><trkpt lat="42.4291851" lon="12.1002357"><ele>329.0</ele><time>2026-04-30T14:52:24.98Z</time></trkpt><trkpt lat="42.4293064" lon="12.100222"><ele>329.0</ele><time>2026-04-30T14:52:25.979Z</time></trkpt><trkpt lat="42.4293923" lon="12.1002101"><ele>329.0</ele><time>2026-04-30T14:52:26.979Z</time></trkpt><trkpt lat="42.4294571" lon="12.1002049"><ele>329.0</ele><time>2026-04-30T14:52:27.98Z</time></trkpt><trkpt lat="42.4295288" lon="12.1002074"><ele>329.0</ele><time>2026-04-30T14:52:29.979Z</time></trkpt><trkpt lat="42.4296036" lon="12.1001977"><ele>329.0</ele><time>2026-04-30T14:52:31.979Z</time></trkpt><trkpt lat="42.4297184" lon="12.100168"><ele>329.0</ele><time>2026-04-30T14:52:33.98Z</time></trkpt><trkpt lat="42.429792" lon="12.1001496"><ele>329.14285714285717</ele><time>2026-04-30T14:52:34.979Z</time></trkpt><trkpt lat="42.4298657" lon="12.1001361"><ele>329.2857142857143</ele><time>2026-04-30T14:52:35.98Z</time></trkpt><trkpt lat="42.429939" lon="12.1001299"><ele>329.42857142857144</ele><time>2026-04-30T14:52:36.979Z</time></trkpt><trkpt lat="42.4300078" lon="12.1001258"><ele>329.57142857142856</ele><time>2026-04-30T14:52:37.979Z</time></trkpt><trkpt lat="42.430072" lon="12.1001181"><ele>329.7142857142857</ele><time>2026-04-30T14:52:38.979Z</time></trkpt><trkpt lat="42.4301374" lon="12.1001092"><ele>329.8571428571429</ele><time>2026-04-30T14:52:39.979Z</time></trkpt><trkpt lat="42.4301999" lon="12.100096"><ele>330.0</ele><time>2026-04-30T14:52:40.979Z</time></trkpt><trkpt lat="42.4303357" lon="12.1000769"><ele>330.0</ele><time>2026-04-30T14:52:42.979Z</time></trkpt><trkpt lat="42.4304157" lon="12.1000552"><ele>330.0</ele><time>2026-04-30T14:52:43.979Z</time></trkpt><trkpt lat="42.4305017" lon="12.1000293"><ele>330.0</ele><time>2026-04-30T14:52:44.979Z</time></trkpt><trkpt lat="42.4305884" lon="12.1000119"><ele>330.0</ele><time>2026-04-30T14:52:45.979Z</time></trkpt><trkpt lat="42.43067" lon="12.0999988"><ele>330.0</ele><time>2026-04-30T14:52:46.979Z</time></trkpt><trkpt lat="42.4307446" lon="12.099987"><ele>330.0</ele><time>2026-04-30T14:52:47.979Z</time></trkpt><trkpt lat="42.4308306" lon="12.0999841"><ele>330.2</ele><time>2026-04-30T14:52:49.98Z</time></trkpt><trkpt lat="42.4309161" lon="12.0999803"><ele>330.4</ele><time>2026-04-30T14:52:52.979Z</time></trkpt><trkpt lat="42.4310065" lon="12.099971"><ele>330.6</ele><time>2026-04-30T14:52:54.979Z</time></trkpt><trkpt lat="42.43107" lon="12.0999617"><ele>330.8</ele><time>2026-04-30T14:52:56.979Z</time></trkpt><trkpt lat="42.431166" lon="12.0999562"><ele>331.0</ele><time>2026-04-30T14:52:59.979Z</time></trkpt><trkpt lat="42.4312846" lon="12.0999505"><ele>331.0</ele><time>2026-04-30T14:53:01.979Z</time></trkpt><trkpt lat="42.4313736" lon="12.0999341"><ele>331.0</ele><time>2026-04-30T14:53:03.98Z</time></trkpt><trkpt lat="42.4314905" lon="12.0998764"><ele>331.0</ele><time>2026-04-30T14:53:05.979Z</time></trkpt><trkpt lat="42.4315714" lon="12.0998403"><ele>331.0</ele><time>2026-04-30T14:53:06.979Z</time></trkpt><trkpt lat="42.4316527" lon="12.0998118"><ele>331.0</ele><time>2026-04-30T14:53:07.979Z</time></trkpt><trkpt lat="42.431747" lon="12.0997856"><ele>331.0</ele><time>2026-04-30T14:53:09.979Z</time></trkpt><trkpt lat="42.4318241" lon="12.0997729"><ele>331.0</ele><time>2026-04-30T14:53:12.98Z</time></trkpt><trkpt lat="42.431894" lon="12.0997689"><ele>331.0</ele><time>2026-04-30T14:53:15.979Z</time></trkpt><trkpt lat="42.4319893" lon="12.0997388"><ele>331.0</ele><time>2026-04-30T14:53:18.979Z</time></trkpt><trkpt lat="42.4320677" lon="12.0997096"><ele>331.0</ele><time>2026-04-30T14:53:20.979Z</time></trkpt><trkpt lat="42.4321421" lon="12.0996727"><ele>331.0</ele><time>2026-04-30T14:53:23.979Z</time></trkpt><trkpt lat="42.4322129" lon="12.0996507"><ele>331.16666666666663</ele><time>2026-04-30T14:53:25.98Z</time></trkpt><trkpt lat="42.432294" lon="12.0996264"><ele>331.3333333333333</ele><time>2026-04-30T14:53:27.979Z</time></trkpt><trkpt lat="42.4323577" lon="12.0996093"><ele>331.5</ele><time>2026-04-30T14:53:29.979Z</time></trkpt><trkpt lat="42.4324455" lon="12.099592"><ele>331.6666666666667</ele><time>2026-04-30T14:53:31.979Z</time></trkpt><trkpt lat="42.4325336" lon="12.0995873"><ele>331.83333333333337</ele><time>2026-04-30T14:53:33.979Z</time></trkpt><trkpt lat="42.4326395" lon="12.0995767"><ele>332.0</ele><time>2026-04-30T14:53:35.979Z</time></trkpt><trkpt lat="42.4327032" lon="12.0995667"><ele>332.0</ele><time>2026-04-30T14:53:36.98Z</time></trkpt><trkpt lat="42.432781" lon="12.0995503"><ele>332.0</ele><time>2026-04-30T14:53:37.979Z</time></trkpt><trkpt lat="42.432856" lon="12.0995292"><ele>332.0</ele><time>2026-04-30T14:53:38.979Z</time></trkpt><trkpt lat="42.4329315" lon="12.0995085"><ele>332.0</ele><time>2026-04-30T14:53:39.979Z</time></trkpt><trkpt lat="42.4330101" lon="12.0994893"><ele>332.0</ele><time>2026-04-30T14:53:40.979Z</time></trkpt><trkpt lat="42.4330872" lon="12.0994636"><ele>332.0</ele><time>2026-04-30T14:53:41.979Z</time></trkpt><trkpt lat="42.433163" lon="12.0994434"><ele>331.85714285714283</ele><time>2026-04-30T14:53:42.98Z</time></trkpt><trkpt lat="42.4332303" lon="12.0994211"><ele>331.7142857142857</ele><time>2026-04-30T14:53:43.979Z</time></trkpt><trkpt lat="42.433295" lon="12.0994005"><ele>331.57142857142856</ele><time>2026-04-30T14:53:44.979Z</time></trkpt><trkpt lat="42.433364" lon="12.099379"><ele>331.42857142857144</ele><time>2026-04-30T14:53:45.979Z</time></trkpt><trkpt lat="42.4334409" lon="12.0993573"><ele>331.2857142857143</ele><time>2026-04-30T14:53:46.98Z</time></trkpt><trkpt lat="42.4335188" lon="12.0993379"><ele>331.14285714285717</ele><time>2026-04-30T14:53:47.98Z</time></trkpt><trkpt lat="42.4335871" lon="12.0993157"><ele>331.0</ele><time>2026-04-30T14:53:48.979Z</time></trkpt><trkpt lat="42.433689" lon="12.0992604"><ele>331.0</ele><time>2026-04-30T14:53:50.979Z</time></trkpt><trkpt lat="42.4337501" lon="12.0992246"><ele>331.0</ele><time>2026-04-30T14:53:51.979Z</time></trkpt><trkpt lat="42.4338206" lon="12.0991843"><ele>331.0</ele><time>2026-04-30T14:53:52.979Z</time></trkpt><trkpt lat="42.4338987" lon="12.0991456"><ele>331.0</ele><time>2026-04-30T14:53:53.979Z</time></trkpt><trkpt lat="42.4339808" lon="12.0990984"><ele>331.0</ele><time>2026-04-30T14:53:54.98Z</time></trkpt><trkpt lat="42.4340615" lon="12.0990542"><ele>331.0</ele><time>2026-04-30T14:53:55.979Z</time></trkpt><trkpt lat="42.4341567" lon="12.0990104"><ele>330.5</ele><time>2026-04-30T14:53:56.979Z</time></trkpt><trkpt lat="42.434256" lon="12.0989609"><ele>330.0</ele><time>2026-04-30T14:53:57.979Z</time></trkpt><trkpt lat="42.4343621" lon="12.0989067"><ele>329.5</ele><time>2026-04-30T14:53:58.979Z</time></trkpt><trkpt lat="42.4344771" lon="12.0988487"><ele>329.0</ele><time>2026-04-30T14:53:59.979Z</time></trkpt><trkpt lat="42.4345858" lon="12.0987848"><ele>329.4</ele><time>2026-04-30T14:54:00.98Z</time></trkpt><trkpt lat="42.4346782" lon="12.0987169"><ele>329.79999999999995</ele><time>2026-04-30T14:54:01.979Z</time></trkpt><trkpt lat="42.4347675" lon="12.0986479"><ele>330.20000000000005</ele><time>2026-04-30T14:54:02.979Z</time></trkpt><trkpt lat="42.4348451" lon="12.0985753"><ele>330.6</ele><time>2026-04-30T14:54:03.979Z</time></trkpt><trkpt lat="42.4349104" lon="12.0985076"><ele>331.0</ele><time>2026-04-30T14:54:04.979Z</time></trkpt><trkpt lat="42.4349749" lon="12.0984444"><ele>331.0</ele><time>2026-04-30T14:54:05.98Z</time></trkpt><trkpt lat="42.4350388" lon="12.0983838"><ele>331.0</ele><time>2026-04-30T14:54:06.979Z</time></trkpt><trkpt lat="42.4351033" lon="12.0983166"><ele>331.0</ele><time>2026-04-30T14:54:07.98Z</time></trkpt><trkpt lat="42.435168" lon="12.0982402"><ele>331.0</ele><time>2026-04-30T14:54:08.979Z</time></trkpt><trkpt lat="42.4352403" lon="12.0981654"><ele>331.0</ele><time>2026-04-30T14:54:09.98Z</time></trkpt><trkpt lat="42.4353124" lon="12.0980869"><ele>331.0</ele><time>2026-04-30T14:54:10.979Z</time></trkpt><trkpt lat="42.4353823" lon="12.0980049"><ele>331.0</ele><time>2026-04-30T14:54:11.979Z</time></trkpt><trkpt lat="42.4354547" lon="12.0979375"><ele>331.0</ele><time>2026-04-30T14:54:12.979Z</time></trkpt><trkpt lat="42.4355278" lon="12.0978707"><ele>331.0</ele><time>2026-04-30T14:54:13.98Z</time></trkpt><trkpt lat="42.4356024" lon="12.097806"><ele>331.0</ele><time>2026-04-30T14:54:14.98Z</time></trkpt><trkpt lat="42.435677" lon="12.0977354"><ele>331.0</ele><time>2026-04-30T14:54:15.979Z</time></trkpt><trkpt lat="42.4357476" lon="12.097652"><ele>331.0</ele><time>2026-04-30T14:54:16.98Z</time></trkpt><trkpt lat="42.4358161" lon="12.097558"><ele>330.8</ele><time>2026-04-30T14:54:17.979Z</time></trkpt><trkpt lat="42.4358827" lon="12.0974634"><ele>330.6</ele><time>2026-04-30T14:54:18.98Z</time></trkpt><trkpt lat="42.4359529" lon="12.0973634"><ele>330.4</ele><time>2026-04-30T14:54:19.979Z</time></trkpt><trkpt lat="42.4360267" lon="12.0972541"><ele>330.2</ele><time>2026-04-30T14:54:20.979Z</time></trkpt><trkpt lat="42.4360951" lon="12.0971556"><ele>330.0</ele><time>2026-04-30T14:54:21.979Z</time></trkpt><trkpt lat="42.4361565" lon="12.0970546"><ele>329.8</ele><time>2026-04-30T14:54:22.979Z</time></trkpt><trkpt lat="42.4362186" lon="12.0969654"><ele>329.6</ele><time>2026-04-30T14:54:23.979Z</time></trkpt><trkpt lat="42.4362789" lon="12.0968718"><ele>329.4</ele><time>2026-04-30T14:54:24.98Z</time></trkpt><trkpt lat="42.4363392" lon="12.0967734"><ele>329.2</ele><time>2026-04-30T14:54:25.979Z</time></trkpt><trkpt lat="42.4363981" lon="12.096672"><ele>329.0</ele><time>2026-04-30T14:54:26.979Z</time></trkpt><trkpt lat="42.4364578" lon="12.0965724"><ele>328.6666666666667</ele><time>2026-04-30T14:54:27.979Z</time></trkpt><trkpt lat="42.4365091" lon="12.0964676"><ele>328.33333333333337</ele><time>2026-04-30T14:54:28.979Z</time></trkpt><trkpt lat="42.4365639" lon="12.0963626"><ele>328.0</ele><time>2026-04-30T14:54:29.98Z</time></trkpt><trkpt lat="42.4366165" lon="12.0962647"><ele>327.6666666666667</ele><time>2026-04-30T14:54:30.979Z</time></trkpt><trkpt lat="42.4366749" lon="12.0961756"><ele>327.3333333333333</ele><time>2026-04-30T14:54:31.98Z</time></trkpt><trkpt lat="42.4367309" lon="12.0960929"><ele>327.0</ele><time>2026-04-30T14:54:32.979Z</time></trkpt><trkpt lat="42.4367785" lon="12.0960094"><ele>327.0</ele><time>2026-04-30T14:54:33.979Z</time></trkpt><trkpt lat="42.436824" lon="12.0959321"><ele>327.0</ele><time>2026-04-30T14:54:34.98Z</time></trkpt><trkpt lat="42.4368679" lon="12.095856"><ele>327.0</ele><time>2026-04-30T14:54:35.979Z</time></trkpt><trkpt lat="42.4369151" lon="12.095782"><ele>327.0</ele><time>2026-04-30T14:54:36.98Z</time></trkpt><trkpt lat="42.4369624" lon="12.0957099"><ele>327.0</ele><time>2026-04-30T14:54:37.979Z</time></trkpt><trkpt lat="42.4370075" lon="12.0956362"><ele>327.0</ele><time>2026-04-30T14:54:38.98Z</time></trkpt><trkpt lat="42.4370472" lon="12.0955632"><ele>327.0</ele><time>2026-04-30T14:54:39.979Z</time></trkpt><trkpt lat="42.4371135" lon="12.0954544"><ele>326.8</ele><time>2026-04-30T14:54:41.979Z</time></trkpt><trkpt lat="42.4371796" lon="12.0953697"><ele>326.6</ele><time>2026-04-30T14:54:43.98Z</time></trkpt><trkpt lat="42.4372596" lon="12.0953031"><ele>326.40000000000003</ele><time>2026-04-30T14:54:45.979Z</time></trkpt><trkpt lat="42.4373671" lon="12.0952476"><ele>326.20000000000005</ele><time>2026-04-30T14:54:47.979Z</time></trkpt><trkpt lat="42.4374273" lon="12.0951122"><ele>326.0</ele><time>2026-04-30T14:54:49.979Z</time></trkpt><trkpt lat="42.4374244" lon="12.095024"><ele>326.0</ele><time>2026-04-30T14:54:50.979Z</time></trkpt><trkpt lat="42.4373866" lon="12.0949491"><ele>326.0</ele><time>2026-04-30T14:54:51.979Z</time></trkpt><trkpt lat="42.4373156" lon="12.0948961"><ele>326.0</ele><time>2026-04-30T14:54:52.979Z</time></trkpt><trkpt lat="42.4372304" lon="12.0948732"><ele>326.0</ele><time>2026-04-30T14:54:53.98Z</time></trkpt><trkpt lat="42.4371361" lon="12.0948746"><ele>326.0</ele><time>2026-04-30T14:54:54.979Z</time></trkpt><trkpt lat="42.4370539" lon="12.0948598"><ele>326.0</ele><time>2026-04-30T14:54:55.98Z</time></trkpt><trkpt lat="42.436989" lon="12.0948139"><ele>325.4</ele><time>2026-04-30T14:54:56.979Z</time></trkpt><trkpt lat="42.4369276" lon="12.0946885"><ele>324.8</ele><time>2026-04-30T14:54:58.979Z</time></trkpt><trkpt lat="42.436937" lon="12.0945731"><ele>324.2</ele><time>2026-04-30T14:55:00.979Z</time></trkpt><trkpt lat="42.4369673" lon="12.0944926"><ele>323.59999999999997</ele><time>2026-04-30T14:55:02.98Z</time></trkpt><trkpt lat="42.4370192" lon="12.0944323"><ele>323.0</ele><time>2026-04-30T14:55:05.979Z</time></trkpt><trkpt lat="42.4371257" lon="12.0943161"><ele>323.0</ele><time>2026-04-30T14:55:08.98Z</time></trkpt><trkpt lat="42.4372249" lon="12.094224"><ele>323.0</ele><time>2026-04-30T14:55:09.98Z</time></trkpt><trkpt lat="42.4373628" lon="12.0941043"><ele>323.0</ele><time>2026-04-30T14:55:10.98Z</time></trkpt><trkpt lat="42.437532" lon="12.093952"><ele>323.0</ele><time>2026-04-30T14:55:11.98Z</time></trkpt><trkpt lat="42.4377066" lon="12.0937699"><ele>323.0</ele><time>2026-04-30T14:55:12.979Z</time></trkpt><trkpt lat="42.4378839" lon="12.0935713"><ele>324.0</ele><time>2026-04-30T14:55:13.979Z</time></trkpt><trkpt lat="42.4380504" lon="12.0933573"><ele>325.0</ele><time>2026-04-30T14:55:14.979Z</time></trkpt><trkpt lat="42.4381998" lon="12.0931356"><ele>325.0</ele><time>2026-04-30T14:55:15.979Z</time></trkpt><trkpt lat="42.4383392" lon="12.0929155"><ele>325.0</ele><time>2026-04-30T14:55:16.979Z</time></trkpt><trkpt lat="42.4384674" lon="12.0927121"><ele>325.0</ele><time>2026-04-30T14:55:17.979Z</time></trkpt><trkpt lat="42.4385811" lon="12.0925144"><ele>324.25</ele><time>2026-04-30T14:55:18.98Z</time></trkpt><trkpt lat="42.4386799" lon="12.0923275"><ele>323.5</ele><time>2026-04-30T14:55:19.98Z</time></trkpt><trkpt lat="42.438759" lon="12.0921719"><ele>322.75</ele><time>2026-04-30T14:55:20.979Z</time></trkpt><trkpt lat="42.4388326" lon="12.0920353"><ele>322.0</ele><time>2026-04-30T14:55:21.979Z</time></trkpt><trkpt lat="42.4388904" lon="12.0919091"><ele>321.6</ele><time>2026-04-30T14:55:22.979Z</time></trkpt><trkpt lat="42.4389475" lon="12.0917903"><ele>321.20000000000005</ele><time>2026-04-30T14:55:23.979Z</time></trkpt><trkpt lat="42.4390057" lon="12.0916772"><ele>320.8</ele><time>2026-04-30T14:55:24.979Z</time></trkpt><trkpt lat="42.4390613" lon="12.0915619"><ele>320.4</ele><time>2026-04-30T14:55:25.979Z</time></trkpt><trkpt lat="42.4391127" lon="12.091464"><ele>320.0</ele><time>2026-04-30T14:55:26.98Z</time></trkpt><trkpt lat="42.4391566" lon="12.0913789"><ele>320.0</ele><time>2026-04-30T14:55:27.979Z</time></trkpt><trkpt lat="42.4392018" lon="12.0912938"><ele>320.0</ele><time>2026-04-30T14:55:28.979Z</time></trkpt><trkpt lat="42.4392439" lon="12.0912224"><ele>320.0</ele><time>2026-04-30T14:55:29.98Z</time></trkpt><trkpt lat="42.4392866" lon="12.0911506"><ele>320.0</ele><time>2026-04-30T14:55:30.979Z</time></trkpt><trkpt lat="42.4393287" lon="12.0910773"><ele>320.0</ele><time>2026-04-30T14:55:31.979Z</time></trkpt><trkpt lat="42.4393731" lon="12.0910002"><ele>320.0</ele><time>2026-04-30T14:55:32.979Z</time></trkpt><trkpt lat="42.4394189" lon="12.0909223"><ele>320.0</ele><time>2026-04-30T14:55:33.979Z</time></trkpt><trkpt lat="42.4394661" lon="12.090845"><ele>320.0</ele><time>2026-04-30T14:55:34.979Z</time></trkpt><trkpt lat="42.4395186" lon="12.0907596"><ele>320.0</ele><time>2026-04-30T14:55:35.979Z</time></trkpt><trkpt lat="42.4395742" lon="12.0906726"><ele>320.0</ele><time>2026-04-30T14:55:36.979Z</time></trkpt><trkpt lat="42.4396344" lon="12.0905824"><ele>320.0</ele><time>2026-04-30T14:55:37.979Z</time></trkpt><trkpt lat="42.4396959" lon="12.0904915"><ele>320.0</ele><time>2026-04-30T14:55:38.979Z</time></trkpt><trkpt lat="42.4397575" lon="12.0903966"><ele>320.0</ele><time>2026-04-30T14:55:39.979Z</time></trkpt><trkpt lat="42.4398153" lon="12.0903098"><ele>318.83333333333337</ele><time>2026-04-30T14:55:40.979Z</time></trkpt><trkpt lat="42.439874" lon="12.0902241"><ele>317.6666666666667</ele><time>2026-04-30T14:55:41.98Z</time></trkpt><trkpt lat="42.4399304" lon="12.0901383"><ele>316.5</ele><time>2026-04-30T14:55:42.979Z</time></trkpt><trkpt lat="42.439982" lon="12.0900543"><ele>315.3333333333333</ele><time>2026-04-30T14:55:43.979Z</time></trkpt><trkpt lat="42.440035" lon="12.0899633"><ele>314.16666666666663</ele><time>2026-04-30T14:55:44.979Z</time></trkpt><trkpt lat="42.4400883" lon="12.089885"><ele>313.0</ele><time>2026-04-30T14:55:45.979Z</time></trkpt><trkpt lat="42.4401417" lon="12.089805"><ele>313.16666666666663</ele><time>2026-04-30T14:55:46.98Z</time></trkpt><trkpt lat="42.4401917" lon="12.0897383"><ele>313.3333333333333</ele><time>2026-04-30T14:55:47.979Z</time></trkpt><trkpt lat="42.4402733" lon="12.0896383"><ele>313.5</ele><time>2026-04-30T14:55:49.98Z</time></trkpt><trkpt lat="42.4403283" lon="12.089575"><ele>313.6666666666667</ele><time>2026-04-30T14:55:51.979Z</time></trkpt><trkpt lat="42.4403967" lon="12.0895133"><ele>313.83333333333337</ele><time>2026-04-30T14:55:55.98Z</time></trkpt><trkpt lat="42.4404917" lon="12.0894767"><ele>314.0</ele><time>2026-04-30T14:55:57.98Z</time></trkpt><trkpt lat="42.44061" lon="12.0894233"><ele>314.0</ele><time>2026-04-30T14:55:59.979Z</time></trkpt><trkpt lat="42.440665" lon="12.0893767"><ele>314.0</ele><time>2026-04-30T14:56:00.979Z</time></trkpt><trkpt lat="42.4407233" lon="12.0893133"><ele>314.0</ele><time>2026-04-30T14:56:01.979Z</time></trkpt><trkpt lat="42.4408167" lon="12.0892083"><ele>314.0</ele><time>2026-04-30T14:56:03.979Z</time></trkpt><trkpt lat="42.4408717" lon="12.0891617"><ele>314.0</ele><time>2026-04-30T14:56:04.979Z</time></trkpt><trkpt lat="42.44094" lon="12.0891233"><ele>314.0</ele><time>2026-04-30T14:56:05.979Z</time></trkpt><trkpt lat="42.4410283" lon="12.089085"><ele>314.0</ele><time>2026-04-30T14:56:06.979Z</time></trkpt><trkpt lat="42.4411317" lon="12.0890467"><ele>314.0</ele><time>2026-04-30T14:56:07.98Z</time></trkpt><trkpt lat="42.4412667" lon="12.0889917"><ele>314.0</ele><time>2026-04-30T14:56:08.979Z</time></trkpt><trkpt lat="42.4414133" lon="12.0889267"><ele>314.0</ele><time>2026-04-30T14:56:09.979Z</time></trkpt><trkpt lat="42.4415467" lon="12.0888717"><ele>314.0</ele><time>2026-04-30T14:56:10.98Z</time></trkpt><trkpt lat="42.44166" lon="12.08882"><ele>314.0</ele><time>2026-04-30T14:56:11.979Z</time></trkpt><trkpt lat="42.44175" lon="12.0887783"><ele>314.0</ele><time>2026-04-30T14:56:12.98Z</time></trkpt><trkpt lat="42.4418317" lon="12.08873"><ele>314.0</ele><time>2026-04-30T14:56:13.979Z</time></trkpt><trkpt lat="42.4419033" lon="12.0886983"><ele>314.0</ele><time>2026-04-30T14:56:14.979Z</time></trkpt><trkpt lat="42.44197" lon="12.08866"><ele>314.0</ele><time>2026-04-30T14:56:15.979Z</time></trkpt><trkpt lat="42.4420317" lon="12.088635"><ele>314.0</ele><time>2026-04-30T14:56:16.979Z</time></trkpt><trkpt lat="42.4421017" lon="12.0885933"><ele>314.0</ele><time>2026-04-30T14:56:17.98Z</time></trkpt><trkpt lat="42.4421983" lon="12.0885383"><ele>314.0</ele><time>2026-04-30T14:56:18.979Z</time></trkpt><trkpt lat="42.442325" lon="12.0884717"><ele>314.0</ele><time>2026-04-30T14:56:19.979Z</time></trkpt><trkpt lat="42.4424633" lon="12.0884"><ele>314.4</ele><time>2026-04-30T14:56:20.979Z</time></trkpt><trkpt lat="42.4425917" lon="12.0883217"><ele>314.79999999999995</ele><time>2026-04-30T14:56:21.979Z</time></trkpt><trkpt lat="42.4427083" lon="12.088255"><ele>315.20000000000005</ele><time>2026-04-30T14:56:22.98Z</time></trkpt><trkpt lat="42.4428017" lon="12.0882067"><ele>315.6</ele><time>2026-04-30T14:56:23.979Z</time></trkpt><trkpt lat="42.4428633" lon="12.0881717"><ele>316.0</ele><time>2026-04-30T14:56:24.979Z</time></trkpt><trkpt lat="42.442965" lon="12.0880967"><ele>316.6</ele><time>2026-04-30T14:56:26.979Z</time></trkpt><trkpt lat="42.4430667" lon="12.0880083"><ele>317.20000000000005</ele><time>2026-04-30T14:56:28.98Z</time></trkpt><trkpt lat="42.44317" lon="12.0879133"><ele>317.79999999999995</ele><time>2026-04-30T14:56:30.979Z</time></trkpt><trkpt lat="42.4432333" lon="12.087865"><ele>318.4</ele><time>2026-04-30T14:56:31.979Z</time></trkpt><trkpt lat="42.4432983" lon="12.0878117"><ele>319.0</ele><time>2026-04-30T14:56:32.979Z</time></trkpt><trkpt lat="42.443365" lon="12.0877483"><ele>319.0</ele><time>2026-04-30T14:56:33.98Z</time></trkpt><trkpt lat="42.4434317" lon="12.0876933"><ele>319.0</ele><time>2026-04-30T14:56:34.979Z</time></trkpt><trkpt lat="42.443505" lon="12.0876267"><ele>319.0</ele><time>2026-04-30T14:56:35.979Z</time></trkpt><trkpt lat="42.4435783" lon="12.0875567"><ele>319.0</ele><time>2026-04-30T14:56:36.979Z</time></trkpt><trkpt lat="42.4436583" lon="12.087485"><ele>319.0</ele><time>2026-04-30T14:56:37.979Z</time></trkpt><trkpt lat="42.4437433" lon="12.087415"><ele>318.4</ele><time>2026-04-30T14:56:38.979Z</time></trkpt><trkpt lat="42.44383" lon="12.0873367"><ele>317.79999999999995</ele><time>2026-04-30T14:56:39.979Z</time></trkpt><trkpt lat="42.4439183" lon="12.08726"><ele>317.20000000000005</ele><time>2026-04-30T14:56:40.979Z</time></trkpt><trkpt lat="42.4440067" lon="12.08717"><ele>316.6</ele><time>2026-04-30T14:56:41.979Z</time></trkpt><trkpt lat="42.4440967" lon="12.0870817"><ele>316.0</ele><time>2026-04-30T14:56:42.979Z</time></trkpt><trkpt lat="42.4441883" lon="12.0869917"><ele>316.0</ele><time>2026-04-30T14:56:43.979Z</time></trkpt><trkpt lat="42.4442817" lon="12.086905"><ele>316.0</ele><time>2026-04-30T14:56:44.979Z</time></trkpt><trkpt lat="42.444375" lon="12.0868233"><ele>316.0</ele><time>2026-04-30T14:56:45.979Z</time></trkpt><trkpt lat="42.444475" lon="12.086745"><ele>316.0</ele><time>2026-04-30T14:56:46.98Z</time></trkpt><trkpt lat="42.4445783" lon="12.0866633"><ele>315.5</ele><time>2026-04-30T14:56:47.979Z</time></trkpt><trkpt lat="42.44469" lon="12.0865783"><ele>315.0</ele><time>2026-04-30T14:56:48.979Z</time></trkpt><trkpt lat="42.4447983" lon="12.0864883"><ele>314.5</ele><time>2026-04-30T14:56:49.979Z</time></trkpt><trkpt lat="42.4449117" lon="12.0863867"><ele>314.0</ele><time>2026-04-30T14:56:50.979Z</time></trkpt><trkpt lat="42.445025" lon="12.086295"><ele>314.0</ele><time>2026-04-30T14:56:51.979Z</time></trkpt><trkpt lat="42.4451433" lon="12.0862133"><ele>314.0</ele><time>2026-04-30T14:56:52.979Z</time></trkpt><trkpt lat="42.445255" lon="12.086135"><ele>314.0</ele><time>2026-04-30T14:56:53.979Z</time></trkpt><trkpt lat="42.4453717" lon="12.0860567"><ele>314.0</ele><time>2026-04-30T14:56:54.979Z</time></trkpt><trkpt lat="42.44549" lon="12.0859883"><ele>313.75</ele><time>2026-04-30T14:56:55.98Z</time></trkpt><trkpt lat="42.4456033" lon="12.0859233"><ele>313.5</ele><time>2026-04-30T14:56:56.979Z</time></trkpt><trkpt lat="42.4457" lon="12.0858583"><ele>313.25</ele><time>2026-04-30T14:56:57.979Z</time></trkpt><trkpt lat="42.445805" lon="12.0858083"><ele>313.0</ele><time>2026-04-30T14:56:58.979Z</time></trkpt><trkpt lat="42.44591" lon="12.0857533"><ele>312.66666666666663</ele><time>2026-04-30T14:56:59.979Z</time></trkpt><trkpt lat="42.4460317" lon="12.0857"><ele>312.3333333333333</ele><time>2026-04-30T14:57:00.979Z</time></trkpt><trkpt lat="42.4461883" lon="12.08563"><ele>312.0</ele><time>2026-04-30T14:57:01.979Z</time></trkpt><trkpt lat="42.44636" lon="12.08556"><ele>312.6666666666667</ele><time>2026-04-30T14:57:02.979Z</time></trkpt><trkpt lat="42.4465283" lon="12.08547"><ele>313.33333333333337</ele><time>2026-04-30T14:57:03.98Z</time></trkpt><trkpt lat="42.446685" lon="12.085375"><ele>314.0</ele><time>2026-04-30T14:57:04.979Z</time></trkpt><trkpt lat="42.44684" lon="12.08525"><ele>314.0</ele><time>2026-04-30T14:57:05.979Z</time></trkpt><trkpt lat="42.4469967" lon="12.0851283"><ele>314.0</ele><time>2026-04-30T14:57:06.979Z</time></trkpt><trkpt lat="42.4471433" lon="12.085"><ele>314.0</ele><time>2026-04-30T14:57:07.979Z</time></trkpt><trkpt lat="42.44729" lon="12.0848883"><ele>314.6666666666667</ele><time>2026-04-30T14:57:08.979Z</time></trkpt><trkpt lat="42.4474333" lon="12.0847783"><ele>315.3333333333333</ele><time>2026-04-30T14:57:09.979Z</time></trkpt><trkpt lat="42.447565" lon="12.08467"><ele>316.0</ele><time>2026-04-30T14:57:10.979Z</time></trkpt><trkpt lat="42.4476933" lon="12.084555"><ele>316.0</ele><time>2026-04-30T14:57:11.979Z</time></trkpt><trkpt lat="42.44781" lon="12.0844333"><ele>316.0</ele><time>2026-04-30T14:57:12.979Z</time></trkpt><trkpt lat="42.44792" lon="12.08433"><ele>316.0</ele><time>2026-04-30T14:57:13.979Z</time></trkpt><trkpt lat="42.448025" lon="12.0842233"><ele>316.0</ele><time>2026-04-30T14:57:14.979Z</time></trkpt><trkpt lat="42.44813" lon="12.0841267"><ele>316.0</ele><time>2026-04-30T14:57:15.98Z</time></trkpt><trkpt lat="42.448235" lon="12.084045"><ele>316.0</ele><time>2026-04-30T14:57:16.979Z</time></trkpt><trkpt lat="42.4483333" lon="12.083965"><ele>316.0</ele><time>2026-04-30T14:57:17.979Z</time></trkpt><trkpt lat="42.4484317" lon="12.0838933"><ele>316.0</ele><time>2026-04-30T14:57:18.98Z</time></trkpt><trkpt lat="42.448525" lon="12.0838333"><ele>316.0</ele><time>2026-04-30T14:57:19.979Z</time></trkpt><trkpt lat="42.4486083" lon="12.083765"><ele>316.0</ele><time>2026-04-30T14:57:20.979Z</time></trkpt><trkpt lat="42.4486867" lon="12.08371"><ele>316.0</ele><time>2026-04-30T14:57:21.979Z</time></trkpt><trkpt lat="42.4487583" lon="12.0836517"><ele>316.0</ele><time>2026-04-30T14:57:22.979Z</time></trkpt><trkpt lat="42.448835" lon="12.083595"><ele>316.0</ele><time>2026-04-30T14:57:23.979Z</time></trkpt><trkpt lat="42.4489067" lon="12.0835433"><ele>316.0</ele><time>2026-04-30T14:57:24.979Z</time></trkpt><trkpt lat="42.4489717" lon="12.0834933"><ele>316.0</ele><time>2026-04-30T14:57:25.98Z</time></trkpt><trkpt lat="42.4490833" lon="12.0834017"><ele>316.0</ele><time>2026-04-30T14:57:27.979Z</time></trkpt><trkpt lat="42.4491467" lon="12.0833517"><ele>316.0</ele><time>2026-04-30T14:57:28.979Z</time></trkpt><trkpt lat="42.4492167" lon="12.0832967"><ele>316.0</ele><time>2026-04-30T14:57:29.979Z</time></trkpt><trkpt lat="42.4492867" lon="12.0832483"><ele>316.0</ele><time>2026-04-30T14:57:30.979Z</time></trkpt><trkpt lat="42.44936" lon="12.0832"><ele>316.0</ele><time>2026-04-30T14:57:31.979Z</time></trkpt><trkpt lat="42.4494183" lon="12.0831533"><ele>316.0</ele><time>2026-04-30T14:57:32.979Z</time></trkpt><trkpt lat="42.4495317" lon="12.0830633"><ele>316.0</ele><time>2026-04-30T14:57:34.979Z</time></trkpt><trkpt lat="42.449605" lon="12.083005"><ele>316.0</ele><time>2026-04-30T14:57:35.979Z</time></trkpt><trkpt lat="42.4496933" lon="12.08294"><ele>316.0</ele><time>2026-04-30T14:57:36.979Z</time></trkpt><trkpt lat="42.4497867" lon="12.0828767"><ele>316.0</ele><time>2026-04-30T14:57:37.979Z</time></trkpt><trkpt lat="42.449885" lon="12.0828067"><ele>316.0</ele><time>2026-04-30T14:57:38.979Z</time></trkpt><trkpt lat="42.44999" lon="12.0827367"><ele>316.0</ele><time>2026-04-30T14:57:39.979Z</time></trkpt><trkpt lat="42.450095" lon="12.0826533"><ele>316.0</ele><time>2026-04-30T14:57:40.98Z</time></trkpt><trkpt lat="42.4502033" lon="12.0825783"><ele>316.0</ele><time>2026-04-30T14:57:41.979Z</time></trkpt><trkpt lat="42.4503017" lon="12.0825033"><ele>316.0</ele><time>2026-04-30T14:57:42.979Z</time></trkpt><trkpt lat="42.4503983" lon="12.082435"><ele>316.0</ele><time>2026-04-30T14:57:43.98Z</time></trkpt><trkpt lat="42.45049" lon="12.0823667"><ele>316.0</ele><time>2026-04-30T14:57:44.98Z</time></trkpt><trkpt lat="42.4505817" lon="12.0822983"><ele>316.0</ele><time>2026-04-30T14:57:45.979Z</time></trkpt><trkpt lat="42.4506717" lon="12.0822383"><ele>316.0</ele><time>2026-04-30T14:57:46.979Z</time></trkpt><trkpt lat="42.45076" lon="12.082165"><ele>315.8</ele><time>2026-04-30T14:57:47.979Z</time></trkpt><trkpt lat="42.4508517" lon="12.0821017"><ele>315.6</ele><time>2026-04-30T14:57:48.979Z</time></trkpt><trkpt lat="42.4509483" lon="12.0820317"><ele>315.4</ele><time>2026-04-30T14:57:49.979Z</time></trkpt><trkpt lat="42.4510533" lon="12.0819467"><ele>315.2</ele><time>2026-04-30T14:57:50.979Z</time></trkpt><trkpt lat="42.4511533" lon="12.081875"><ele>315.0</ele><time>2026-04-30T14:57:51.98Z</time></trkpt><trkpt lat="42.4512483" lon="12.081805"><ele>314.5</ele><time>2026-04-30T14:57:52.98Z</time></trkpt><trkpt lat="42.45134" lon="12.0817317"><ele>314.0</ele><time>2026-04-30T14:57:53.979Z</time></trkpt><trkpt lat="42.45144" lon="12.08166"><ele>313.5</ele><time>2026-04-30T14:57:54.979Z</time></trkpt><trkpt lat="42.45154" lon="12.0815983"><ele>313.0</ele><time>2026-04-30T14:57:55.979Z</time></trkpt><trkpt lat="42.4516517" lon="12.08153"><ele>313.0</ele><time>2026-04-30T14:57:56.979Z</time></trkpt><trkpt lat="42.4517717" lon="12.0814533"><ele>313.0</ele><time>2026-04-30T14:57:57.979Z</time></trkpt><trkpt lat="42.4518967" lon="12.0813783"><ele>313.0</ele><time>2026-04-30T14:57:58.98Z</time></trkpt><trkpt lat="42.45203" lon="12.081305"><ele>313.0</ele><time>2026-04-30T14:57:59.979Z</time></trkpt><trkpt lat="42.4521683" lon="12.0812433"><ele>312.75</ele><time>2026-04-30T14:58:00.979Z</time></trkpt><trkpt lat="42.452315" lon="12.0811833"><ele>312.5</ele><time>2026-04-30T14:58:01.98Z</time></trkpt><trkpt lat="42.4524483" lon="12.081115"><ele>312.25</ele><time>2026-04-30T14:58:02.98Z</time></trkpt><trkpt lat="42.45259" lon="12.0810483"><ele>312.0</ele><time>2026-04-30T14:58:03.979Z</time></trkpt><trkpt lat="42.4527233" lon="12.0809717"><ele>312.0</ele><time>2026-04-30T14:58:04.98Z</time></trkpt><trkpt lat="42.4528617" lon="12.0808933"><ele>312.0</ele><time>2026-04-30T14:58:05.98Z</time></trkpt><trkpt lat="42.4529833" lon="12.0808017"><ele>312.0</ele><time>2026-04-30T14:58:06.98Z</time></trkpt><trkpt lat="42.4531117" lon="12.0807067"><ele>312.0</ele><time>2026-04-30T14:58:07.98Z</time></trkpt><trkpt lat="42.453245" lon="12.0806"><ele>311.0</ele><time>2026-04-30T14:58:08.979Z</time></trkpt><trkpt lat="42.453385" lon="12.08048"><ele>310.0</ele><time>2026-04-30T14:58:09.98Z</time></trkpt><trkpt lat="42.4535217" lon="12.0803667"><ele>309.0</ele><time>2026-04-30T14:58:10.98Z</time></trkpt><trkpt lat="42.4536567" lon="12.0802483"><ele>309.0</ele><time>2026-04-30T14:58:11.979Z</time></trkpt><trkpt lat="42.4537867" lon="12.08013"><ele>309.0</ele><time>2026-04-30T14:58:12.98Z</time></trkpt><trkpt lat="42.4539267" lon="12.0800167"><ele>309.0</ele><time>2026-04-30T14:58:13.979Z</time></trkpt><trkpt lat="42.4540767" lon="12.0798983"><ele>308.3333333333333</ele><time>2026-04-30T14:58:14.979Z</time></trkpt><trkpt lat="42.4542233" lon="12.0797717"><ele>307.66666666666663</ele><time>2026-04-30T14:58:15.979Z</time></trkpt><trkpt lat="42.4543683" lon="12.07965"><ele>307.0</ele><time>2026-04-30T14:58:16.98Z</time></trkpt><trkpt lat="42.4545133" lon="12.079525"><ele>307.0</ele><time>2026-04-30T14:58:17.979Z</time></trkpt><trkpt lat="42.45466" lon="12.0793983"><ele>307.0</ele><time>2026-04-30T14:58:18.979Z</time></trkpt><trkpt lat="42.45481" lon="12.0792717"><ele>307.0</ele><time>2026-04-30T14:58:19.979Z</time></trkpt><trkpt lat="42.4549617" lon="12.0791483"><ele>307.66666666666663</ele><time>2026-04-30T14:58:20.979Z</time></trkpt><trkpt lat="42.4551117" lon="12.0790283"><ele>308.3333333333333</ele><time>2026-04-30T14:58:21.979Z</time></trkpt><trkpt lat="42.4552633" lon="12.0789167"><ele>309.0</ele><time>2026-04-30T14:58:22.979Z</time></trkpt><trkpt lat="42.45542" lon="12.0788033"><ele>308.0</ele><time>2026-04-30T14:58:23.979Z</time></trkpt><trkpt lat="42.4555717" lon="12.0786917"><ele>307.0</ele><time>2026-04-30T14:58:24.979Z</time></trkpt><trkpt lat="42.455725" lon="12.078575"><ele>306.0</ele><time>2026-04-30T14:58:25.979Z</time></trkpt><trkpt lat="42.4558833" lon="12.0784667"><ele>306.0</ele><time>2026-04-30T14:58:26.979Z</time></trkpt><trkpt lat="42.4560383" lon="12.07836"><ele>306.0</ele><time>2026-04-30T14:58:27.979Z</time></trkpt><trkpt lat="42.4561933" lon="12.0782517"><ele>306.0</ele><time>2026-04-30T14:58:28.979Z</time></trkpt><trkpt lat="42.4563467" lon="12.0781533"><ele>306.6666666666667</ele><time>2026-04-30T14:58:29.979Z</time></trkpt><trkpt lat="42.4565033" lon="12.078055"><ele>307.33333333333337</ele><time>2026-04-30T14:58:30.979Z</time></trkpt><trkpt lat="42.4566483" lon="12.0779533"><ele>308.0</ele><time>2026-04-30T14:58:31.979Z</time></trkpt><trkpt lat="42.4567867" lon="12.0778583"><ele>308.0</ele><time>2026-04-30T14:58:32.979Z</time></trkpt><trkpt lat="42.4569233" lon="12.07776"><ele>308.0</ele><time>2026-04-30T14:58:33.98Z</time></trkpt><trkpt lat="42.4570583" lon="12.0776683"><ele>308.0</ele><time>2026-04-30T14:58:34.979Z</time></trkpt><trkpt lat="42.4571967" lon="12.0775733"><ele>307.6666666666667</ele><time>2026-04-30T14:58:35.98Z</time></trkpt><trkpt lat="42.457335" lon="12.0774767"><ele>307.3333333333333</ele><time>2026-04-30T14:58:36.979Z</time></trkpt><trkpt lat="42.457475" lon="12.0773867"><ele>307.0</ele><time>2026-04-30T14:58:37.979Z</time></trkpt><trkpt lat="42.4576183" lon="12.077295"><ele>307.3333333333333</ele><time>2026-04-30T14:58:38.98Z</time></trkpt><trkpt lat="42.4577583" lon="12.0772033"><ele>307.6666666666667</ele><time>2026-04-30T14:58:39.979Z</time></trkpt><trkpt lat="42.4578967" lon="12.0771133"><ele>308.0</ele><time>2026-04-30T14:58:40.979Z</time></trkpt><trkpt lat="42.45803" lon="12.0770233"><ele>308.0</ele><time>2026-04-30T14:58:41.98Z</time></trkpt><trkpt lat="42.4581633" lon="12.076935"><ele>308.0</ele><time>2026-04-30T14:58:42.98Z</time></trkpt><trkpt lat="42.4582967" lon="12.076845"><ele>308.0</ele><time>2026-04-30T14:58:43.979Z</time></trkpt><trkpt lat="42.4584283" lon="12.0767483"><ele>308.0</ele><time>2026-04-30T14:58:44.979Z</time></trkpt><trkpt lat="42.4585667" lon="12.0766567"><ele>308.6666666666667</ele><time>2026-04-30T14:58:45.98Z</time></trkpt><trkpt lat="42.45871" lon="12.0765633"><ele>309.3333333333333</ele><time>2026-04-30T14:58:46.979Z</time></trkpt><trkpt lat="42.4588517" lon="12.0764617"><ele>310.0</ele><time>2026-04-30T14:58:47.979Z</time></trkpt><trkpt lat="42.4589983" lon="12.07636"><ele>310.66666666666663</ele><time>2026-04-30T14:58:48.979Z</time></trkpt><trkpt lat="42.4591433" lon="12.0762533"><ele>311.3333333333333</ele><time>2026-04-30T14:58:49.979Z</time></trkpt><trkpt lat="42.459295" lon="12.076155"><ele>312.0</ele><time>2026-04-30T14:58:50.98Z</time></trkpt><trkpt lat="42.4594517" lon="12.0760567"><ele>312.0</ele><time>2026-04-30T14:58:51.979Z</time></trkpt><trkpt lat="42.45961" lon="12.0759617"><ele>312.0</ele><time>2026-04-30T14:58:52.979Z</time></trkpt><trkpt lat="42.4597667" lon="12.0758733"><ele>312.0</ele><time>2026-04-30T14:58:53.979Z</time></trkpt><trkpt lat="42.4599217" lon="12.075785"><ele>312.3333333333333</ele><time>2026-04-30T14:58:54.979Z</time></trkpt><trkpt lat="42.4600683" lon="12.0757"><ele>312.66666666666663</ele><time>2026-04-30T14:58:55.979Z</time></trkpt><trkpt lat="42.4602067" lon="12.07561"><ele>313.0</ele><time>2026-04-30T14:58:56.979Z</time></trkpt><trkpt lat="42.46034" lon="12.0755333"><ele>313.0</ele><time>2026-04-30T14:58:57.979Z</time></trkpt><trkpt lat="42.46047" lon="12.0754617"><ele>313.0</ele><time>2026-04-30T14:58:58.979Z</time></trkpt><trkpt lat="42.4606" lon="12.0753933"><ele>313.0</ele><time>2026-04-30T14:58:59.979Z</time></trkpt><trkpt lat="42.4607283" lon="12.0753267"><ele>313.0</ele><time>2026-04-30T14:59:00.979Z</time></trkpt><trkpt lat="42.4608483" lon="12.075255"><ele>313.0</ele><time>2026-04-30T14:59:01.979Z</time></trkpt><trkpt lat="42.4609667" lon="12.075185"><ele>313.0</ele><time>2026-04-30T14:59:02.979Z</time></trkpt><trkpt lat="42.4610817" lon="12.0751117"><ele>313.0</ele><time>2026-04-30T14:59:03.98Z</time></trkpt><trkpt lat="42.4611883" lon="12.0750533"><ele>313.0</ele><time>2026-04-30T14:59:04.98Z</time></trkpt><trkpt lat="42.4613017" lon="12.0749967"><ele>313.0</ele><time>2026-04-30T14:59:05.979Z</time></trkpt><trkpt lat="42.4614167" lon="12.0749417"><ele>313.0</ele><time>2026-04-30T14:59:06.979Z</time></trkpt><trkpt lat="42.4615267" lon="12.0748833"><ele>313.0</ele><time>2026-04-30T14:59:07.979Z</time></trkpt><trkpt lat="42.4616317" lon="12.074835"><ele>313.0</ele><time>2026-04-30T14:59:08.979Z</time></trkpt><trkpt lat="42.4617283" lon="12.0747867"><ele>313.0</ele><time>2026-04-30T14:59:09.979Z</time></trkpt><trkpt lat="42.4618233" lon="12.0747367"><ele>313.0</ele><time>2026-04-30T14:59:10.979Z</time></trkpt><trkpt lat="42.461915" lon="12.0746833"><ele>313.0</ele><time>2026-04-30T14:59:11.979Z</time></trkpt><trkpt lat="42.462" lon="12.074635"><ele>313.0</ele><time>2026-04-30T14:59:12.979Z</time></trkpt><trkpt lat="42.4620817" lon="12.07459"><ele>313.0</ele><time>2026-04-30T14:59:13.979Z</time></trkpt><trkpt lat="42.4621667" lon="12.0745467"><ele>313.0</ele><time>2026-04-30T14:59:14.979Z</time></trkpt><trkpt lat="42.4622567" lon="12.0744967"><ele>313.0</ele><time>2026-04-30T14:59:15.979Z</time></trkpt><trkpt lat="42.4623583" lon="12.0744417"><ele>313.0</ele><time>2026-04-30T14:59:16.979Z</time></trkpt><trkpt lat="42.4624683" lon="12.0743833"><ele>313.0</ele><time>2026-04-30T14:59:17.979Z</time></trkpt><trkpt lat="42.462585" lon="12.0743233"><ele>313.0</ele><time>2026-04-30T14:59:18.98Z</time></trkpt><trkpt lat="42.46271" lon="12.0742583"><ele>313.0</ele><time>2026-04-30T14:59:19.979Z</time></trkpt><trkpt lat="42.4628333" lon="12.0741933"><ele>313.0</ele><time>2026-04-30T14:59:20.979Z</time></trkpt><trkpt lat="42.4629567" lon="12.0741267"><ele>313.0</ele><time>2026-04-30T14:59:21.979Z</time></trkpt><trkpt lat="42.46308" lon="12.0740667"><ele>313.5</ele><time>2026-04-30T14:59:22.979Z</time></trkpt><trkpt lat="42.4632067" lon="12.0740033"><ele>314.0</ele><time>2026-04-30T14:59:23.98Z</time></trkpt><trkpt lat="42.4633367" lon="12.0739317"><ele>314.5</ele><time>2026-04-30T14:59:24.979Z</time></trkpt><trkpt lat="42.463465" lon="12.073865"><ele>315.0</ele><time>2026-04-30T14:59:25.98Z</time></trkpt><trkpt lat="42.463605" lon="12.0738"><ele>315.0</ele><time>2026-04-30T14:59:26.979Z</time></trkpt><trkpt lat="42.46374" lon="12.07373"><ele>315.0</ele><time>2026-04-30T14:59:27.98Z</time></trkpt><trkpt lat="42.4638817" lon="12.073675"><ele>315.0</ele><time>2026-04-30T14:59:28.979Z</time></trkpt><trkpt lat="42.4640333" lon="12.0736383"><ele>315.0</ele><time>2026-04-30T14:59:29.979Z</time></trkpt><trkpt lat="42.4641817" lon="12.0735983"><ele>315.0</ele><time>2026-04-30T14:59:30.979Z</time></trkpt><trkpt lat="42.46433" lon="12.0735617"><ele>315.0</ele><time>2026-04-30T14:59:31.979Z</time></trkpt><trkpt lat="42.4644783" lon="12.0735267"><ele>315.0</ele><time>2026-04-30T14:59:32.98Z</time></trkpt><trkpt lat="42.46463" lon="12.07349"><ele>315.0</ele><time>2026-04-30T14:59:33.979Z</time></trkpt><trkpt lat="42.4647783" lon="12.0734533"><ele>315.0</ele><time>2026-04-30T14:59:34.979Z</time></trkpt><trkpt lat="42.464925" lon="12.07342"><ele>315.0</ele><time>2026-04-30T14:59:35.98Z</time></trkpt><trkpt lat="42.4650717" lon="12.07338"><ele>315.0</ele><time>2026-04-30T14:59:36.979Z</time></trkpt><trkpt lat="42.4652217" lon="12.0733467"><ele>315.0</ele><time>2026-04-30T14:59:37.979Z</time></trkpt><trkpt lat="42.465375" lon="12.0733217"><ele>315.0</ele><time>2026-04-30T14:59:38.979Z</time></trkpt><trkpt lat="42.4655367" lon="12.0733117"><ele>315.0</ele><time>2026-04-30T14:59:39.98Z</time></trkpt><trkpt lat="42.46571" lon="12.0733183"><ele>315.6666666666667</ele><time>2026-04-30T14:59:40.979Z</time></trkpt><trkpt lat="42.4658817" lon="12.0733317"><ele>316.33333333333337</ele><time>2026-04-30T14:59:41.979Z</time></trkpt><trkpt lat="42.4660467" lon="12.0733583"><ele>317.0</ele><time>2026-04-30T14:59:42.979Z</time></trkpt><trkpt lat="42.4662033" lon="12.0733883"><ele>317.33333333333337</ele><time>2026-04-30T14:59:43.979Z</time></trkpt><trkpt lat="42.46635" lon="12.0734217"><ele>317.6666666666667</ele><time>2026-04-30T14:59:44.979Z</time></trkpt><trkpt lat="42.4664967" lon="12.0734583"><ele>318.0</ele><time>2026-04-30T14:59:45.98Z</time></trkpt><trkpt lat="42.4666467" lon="12.0734933"><ele>318.0</ele><time>2026-04-30T14:59:46.98Z</time></trkpt><trkpt lat="42.466795" lon="12.073525"><ele>318.0</ele><time>2026-04-30T14:59:47.979Z</time></trkpt><trkpt lat="42.4669467" lon="12.0735533"><ele>318.0</ele><time>2026-04-30T14:59:48.979Z</time></trkpt><trkpt lat="42.4671067" lon="12.0735817"><ele>317.3333333333333</ele><time>2026-04-30T14:59:49.98Z</time></trkpt><trkpt lat="42.4672672" lon="12.0736181"><ele>316.66666666666663</ele><time>2026-04-30T14:59:50.98Z</time></trkpt><trkpt lat="42.4674275" lon="12.0736473"><ele>316.0</ele><time>2026-04-30T14:59:51.98Z</time></trkpt><trkpt lat="42.4675961" lon="12.0736717"><ele>316.0</ele><time>2026-04-30T14:59:52.979Z</time></trkpt><trkpt lat="42.4677689" lon="12.0737012"><ele>316.0</ele><time>2026-04-30T14:59:53.979Z</time></trkpt><trkpt lat="42.4679439" lon="12.0737368"><ele>316.0</ele><time>2026-04-30T14:59:54.979Z</time></trkpt><trkpt lat="42.46812" lon="12.0737722"><ele>315.66666666666663</ele><time>2026-04-30T14:59:55.979Z</time></trkpt><trkpt lat="42.468301" lon="12.0738097"><ele>315.3333333333333</ele><time>2026-04-30T14:59:56.98Z</time></trkpt><trkpt lat="42.4684862" lon="12.0738413"><ele>315.0</ele><time>2026-04-30T14:59:57.979Z</time></trkpt><trkpt lat="42.4686749" lon="12.0738731"><ele>315.3333333333333</ele><time>2026-04-30T14:59:58.979Z</time></trkpt><trkpt lat="42.4688765" lon="12.0739119"><ele>315.66666666666663</ele><time>2026-04-30T14:59:59.979Z</time></trkpt><trkpt lat="42.4690812" lon="12.0739484"><ele>316.0</ele><time>2026-04-30T15:00:00.979Z</time></trkpt><trkpt lat="42.4692892" lon="12.0739781"><ele>316.0</ele><time>2026-04-30T15:00:01.98Z</time></trkpt><trkpt lat="42.4694992" lon="12.0739994"><ele>316.0</ele><time>2026-04-30T15:00:02.98Z</time></trkpt><trkpt lat="42.4697132" lon="12.0740042"><ele>316.0</ele><time>2026-04-30T15:00:03.979Z</time></trkpt><trkpt lat="42.4699329" lon="12.0739918"><ele>315.66666666666663</ele><time>2026-04-30T15:00:04.979Z</time></trkpt><trkpt lat="42.4701473" lon="12.0739721"><ele>315.3333333333333</ele><time>2026-04-30T15:00:05.979Z</time></trkpt><trkpt lat="42.4703483" lon="12.0739391"><ele>315.0</ele><time>2026-04-30T15:00:06.98Z</time></trkpt><trkpt lat="42.4705317" lon="12.0739037"><ele>313.0</ele><time>2026-04-30T15:00:07.979Z</time></trkpt><trkpt lat="42.4707096" lon="12.0738713"><ele>311.0</ele><time>2026-04-30T15:00:08.979Z</time></trkpt><trkpt lat="42.4708668" lon="12.0738444"><ele>309.0</ele><time>2026-04-30T15:00:09.979Z</time></trkpt><trkpt lat="42.4710205" lon="12.0738219"><ele>309.0</ele><time>2026-04-30T15:00:10.979Z</time></trkpt><trkpt lat="42.4711475" lon="12.0738034"><ele>309.0</ele><time>2026-04-30T15:00:11.979Z</time></trkpt><trkpt lat="42.4712578" lon="12.0737912"><ele>309.0</ele><time>2026-04-30T15:00:12.979Z</time></trkpt><trkpt lat="42.4713414" lon="12.0737779"><ele>309.0</ele><time>2026-04-30T15:00:13.979Z</time></trkpt><trkpt lat="42.4714518" lon="12.0737717"><ele>309.0</ele><time>2026-04-30T15:00:15.979Z</time></trkpt><trkpt lat="42.4715655" lon="12.0737561"><ele>309.4</ele><time>2026-04-30T15:00:17.98Z</time></trkpt><trkpt lat="42.4716356" lon="12.0737398"><ele>309.79999999999995</ele><time>2026-04-30T15:00:18.979Z</time></trkpt><trkpt lat="42.4717194" lon="12.0737273"><ele>310.20000000000005</ele><time>2026-04-30T15:00:19.98Z</time></trkpt><trkpt lat="42.4718193" lon="12.0737134"><ele>310.6</ele><time>2026-04-30T15:00:20.979Z</time></trkpt><trkpt lat="42.4719308" lon="12.0736925"><ele>311.0</ele><time>2026-04-30T15:00:21.98Z</time></trkpt><trkpt lat="42.4720404" lon="12.0736696"><ele>311.5</ele><time>2026-04-30T15:00:22.979Z</time></trkpt><trkpt lat="42.4721448" lon="12.0736447"><ele>312.0</ele><time>2026-04-30T15:00:23.98Z</time></trkpt><trkpt lat="42.4722486" lon="12.073616"><ele>312.5</ele><time>2026-04-30T15:00:24.98Z</time></trkpt><trkpt lat="42.4723616" lon="12.0735858"><ele>313.0</ele><time>2026-04-30T15:00:25.98Z</time></trkpt><trkpt lat="42.4724869" lon="12.0735448"><ele>313.0</ele><time>2026-04-30T15:00:26.979Z</time></trkpt><trkpt lat="42.4726242" lon="12.0734991"><ele>313.0</ele><time>2026-04-30T15:00:27.979Z</time></trkpt><trkpt lat="42.4727591" lon="12.073441"><ele>313.0</ele><time>2026-04-30T15:00:28.979Z</time></trkpt><trkpt lat="42.4728935" lon="12.0733845"><ele>313.0</ele><time>2026-04-30T15:00:29.979Z</time></trkpt><trkpt lat="42.4730339" lon="12.0733274"><ele>314.3333333333333</ele><time>2026-04-30T15:00:30.98Z</time></trkpt><trkpt lat="42.4731756" lon="12.0732665"><ele>315.6666666666667</ele><time>2026-04-30T15:00:31.979Z</time></trkpt><trkpt lat="42.4733272" lon="12.0732042"><ele>317.0</ele><time>2026-04-30T15:00:32.98Z</time></trkpt><trkpt lat="42.4734833" lon="12.0731368"><ele>317.0</ele><time>2026-04-30T15:00:33.98Z</time></trkpt><trkpt lat="42.4736478" lon="12.0730632"><ele>317.0</ele><time>2026-04-30T15:00:34.979Z</time></trkpt><trkpt lat="42.4738135" lon="12.0729863"><ele>317.0</ele><time>2026-04-30T15:00:35.979Z</time></trkpt><trkpt lat="42.4739761" lon="12.0729068"><ele>316.6666666666667</ele><time>2026-04-30T15:00:36.979Z</time></trkpt><trkpt lat="42.4741315" lon="12.0728288"><ele>316.3333333333333</ele><time>2026-04-30T15:00:37.979Z</time></trkpt><trkpt lat="42.4742819" lon="12.0727453"><ele>316.0</ele><time>2026-04-30T15:00:38.98Z</time></trkpt><trkpt lat="42.4744262" lon="12.0726578"><ele>316.0</ele><time>2026-04-30T15:00:39.979Z</time></trkpt><trkpt lat="42.4745755" lon="12.0725731"><ele>316.0</ele><time>2026-04-30T15:00:40.98Z</time></trkpt><trkpt lat="42.4747253" lon="12.0724858"><ele>316.0</ele><time>2026-04-30T15:00:41.979Z</time></trkpt><trkpt lat="42.4748733" lon="12.0723896"><ele>316.66666666666663</ele><time>2026-04-30T15:00:42.979Z</time></trkpt><trkpt lat="42.475021" lon="12.0722938"><ele>317.3333333333333</ele><time>2026-04-30T15:00:43.979Z</time></trkpt><trkpt lat="42.4751732" lon="12.0722005"><ele>318.0</ele><time>2026-04-30T15:00:44.979Z</time></trkpt><trkpt lat="42.4753291" lon="12.0721104"><ele>317.6666666666667</ele><time>2026-04-30T15:00:45.979Z</time></trkpt><trkpt lat="42.4754849" lon="12.0720236"><ele>317.33333333333337</ele><time>2026-04-30T15:00:46.979Z</time></trkpt><trkpt lat="42.4756448" lon="12.0719381"><ele>317.0</ele><time>2026-04-30T15:00:47.98Z</time></trkpt><trkpt lat="42.4758052" lon="12.0718481"><ele>317.0</ele><time>2026-04-30T15:00:48.979Z</time></trkpt><trkpt lat="42.4759685" lon="12.0717554"><ele>317.0</ele><time>2026-04-30T15:00:49.98Z</time></trkpt><trkpt lat="42.4761362" lon="12.071665"><ele>317.0</ele><time>2026-04-30T15:00:50.979Z</time></trkpt><trkpt lat="42.4763045" lon="12.0715684"><ele>317.6666666666667</ele><time>2026-04-30T15:00:51.979Z</time></trkpt><trkpt lat="42.4764779" lon="12.0714701"><ele>318.3333333333333</ele><time>2026-04-30T15:00:52.98Z</time></trkpt><trkpt lat="42.4766471" lon="12.0713704"><ele>319.0</ele><time>2026-04-30T15:00:53.979Z</time></trkpt><trkpt lat="42.4768212" lon="12.0712702"><ele>319.0</ele><time>2026-04-30T15:00:54.979Z</time></trkpt><trkpt lat="42.4769985" lon="12.0711723"><ele>319.0</ele><time>2026-04-30T15:00:55.979Z</time></trkpt><trkpt lat="42.4771767" lon="12.0710752"><ele>319.0</ele><time>2026-04-30T15:00:56.979Z</time></trkpt><trkpt lat="42.4773521" lon="12.0709807"><ele>318.66666666666663</ele><time>2026-04-30T15:00:57.98Z</time></trkpt><trkpt lat="42.4775272" lon="12.0708859"><ele>318.3333333333333</ele><time>2026-04-30T15:00:58.979Z</time></trkpt><trkpt lat="42.4776922" lon="12.0707921"><ele>318.0</ele><time>2026-04-30T15:00:59.979Z</time></trkpt><trkpt lat="42.4778523" lon="12.0707063"><ele>319.0</ele><time>2026-04-30T15:01:00.979Z</time></trkpt><trkpt lat="42.4780133" lon="12.0706248"><ele>320.0</ele><time>2026-04-30T15:01:01.979Z</time></trkpt><trkpt lat="42.4781776" lon="12.0705503"><ele>321.0</ele><time>2026-04-30T15:01:02.979Z</time></trkpt><trkpt lat="42.4783462" lon="12.0704802"><ele>321.0</ele><time>2026-04-30T15:01:03.979Z</time></trkpt><trkpt lat="42.478513" lon="12.0704266"><ele>321.0</ele><time>2026-04-30T15:01:04.979Z</time></trkpt><trkpt lat="42.4786777" lon="12.0703772"><ele>321.0</ele><time>2026-04-30T15:01:05.98Z</time></trkpt><trkpt lat="42.4788353" lon="12.0703269"><ele>322.0</ele><time>2026-04-30T15:01:06.98Z</time></trkpt><trkpt lat="42.4789912" lon="12.0702783"><ele>323.0</ele><time>2026-04-30T15:01:07.979Z</time></trkpt><trkpt lat="42.4791418" lon="12.0702291"><ele>324.0</ele><time>2026-04-30T15:01:08.979Z</time></trkpt><trkpt lat="42.4792873" lon="12.0701837"><ele>324.0</ele><time>2026-04-30T15:01:09.979Z</time></trkpt><trkpt lat="42.4794287" lon="12.0701307"><ele>324.0</ele><time>2026-04-30T15:01:10.979Z</time></trkpt><trkpt lat="42.4795695" lon="12.0700771"><ele>324.0</ele><time>2026-04-30T15:01:11.979Z</time></trkpt><trkpt lat="42.4797143" lon="12.070023"><ele>324.0</ele><time>2026-04-30T15:01:12.98Z</time></trkpt><trkpt lat="42.4798556" lon="12.0699668"><ele>325.0</ele><time>2026-04-30T15:01:13.979Z</time></trkpt><trkpt lat="42.4799996" lon="12.069916"><ele>326.0</ele><time>2026-04-30T15:01:14.979Z</time></trkpt><trkpt lat="42.480152" lon="12.069868"><ele>327.0</ele><time>2026-04-30T15:01:15.98Z</time></trkpt><trkpt lat="42.4803077" lon="12.0698122"><ele>326.0</ele><time>2026-04-30T15:01:16.979Z</time></trkpt><trkpt lat="42.4804627" lon="12.0697646"><ele>325.0</ele><time>2026-04-30T15:01:17.979Z</time></trkpt><trkpt lat="42.480627" lon="12.0697241"><ele>324.0</ele><time>2026-04-30T15:01:18.979Z</time></trkpt><trkpt lat="42.4807868" lon="12.0696836"><ele>324.0</ele><time>2026-04-30T15:01:19.979Z</time></trkpt><trkpt lat="42.4809487" lon="12.0696391"><ele>324.0</ele><time>2026-04-30T15:01:20.979Z</time></trkpt><trkpt lat="42.4811102" lon="12.0695847"><ele>324.0</ele><time>2026-04-30T15:01:21.98Z</time></trkpt><trkpt lat="42.4812734" lon="12.0695228"><ele>323.3333333333333</ele><time>2026-04-30T15:01:22.979Z</time></trkpt><trkpt lat="42.4814336" lon="12.0694601"><ele>322.66666666666663</ele><time>2026-04-30T15:01:23.979Z</time></trkpt><trkpt lat="42.4815942" lon="12.0693996"><ele>322.0</ele><time>2026-04-30T15:01:24.979Z</time></trkpt><trkpt lat="42.481749" lon="12.0693477"><ele>322.0</ele><time>2026-04-30T15:01:25.98Z</time></trkpt><trkpt lat="42.4818962" lon="12.0693002"><ele>322.0</ele><time>2026-04-30T15:01:26.979Z</time></trkpt><trkpt lat="42.4820337" lon="12.0692554"><ele>322.0</ele><time>2026-04-30T15:01:27.979Z</time></trkpt><trkpt lat="42.4821696" lon="12.0692142"><ele>322.0</ele><time>2026-04-30T15:01:28.979Z</time></trkpt><trkpt lat="42.4823085" lon="12.0691745"><ele>321.5</ele><time>2026-04-30T15:01:29.979Z</time></trkpt><trkpt lat="42.4824486" lon="12.0691347"><ele>321.0</ele><time>2026-04-30T15:01:30.979Z</time></trkpt><trkpt lat="42.4825893" lon="12.0690833"><ele>320.5</ele><time>2026-04-30T15:01:31.979Z</time></trkpt><trkpt lat="42.482738" lon="12.0690262"><ele>320.0</ele><time>2026-04-30T15:01:32.979Z</time></trkpt><trkpt lat="42.4828923" lon="12.0689655"><ele>319.33333333333337</ele><time>2026-04-30T15:01:33.979Z</time></trkpt><trkpt lat="42.48305" lon="12.0689119"><ele>318.6666666666667</ele><time>2026-04-30T15:01:34.98Z</time></trkpt><trkpt lat="42.4832042" lon="12.0688612"><ele>318.0</ele><time>2026-04-30T15:01:35.98Z</time></trkpt><trkpt lat="42.4833574" lon="12.0688123"><ele>318.0</ele><time>2026-04-30T15:01:36.979Z</time></trkpt><trkpt lat="42.4835079" lon="12.0687572"><ele>318.0</ele><time>2026-04-30T15:01:37.979Z</time></trkpt><trkpt lat="42.4836535" lon="12.068711"><ele>318.0</ele><time>2026-04-30T15:01:38.979Z</time></trkpt><trkpt lat="42.4837905" lon="12.0686631"><ele>318.0</ele><time>2026-04-30T15:01:39.98Z</time></trkpt><trkpt lat="42.4839282" lon="12.0686139"><ele>317.75</ele><time>2026-04-30T15:01:40.98Z</time></trkpt><trkpt lat="42.4840686" lon="12.0685677"><ele>317.5</ele><time>2026-04-30T15:01:41.979Z</time></trkpt><trkpt lat="42.4842083" lon="12.0685237"><ele>317.25</ele><time>2026-04-30T15:01:42.979Z</time></trkpt><trkpt lat="42.4843494" lon="12.0684754"><ele>317.0</ele><time>2026-04-30T15:01:43.979Z</time></trkpt><trkpt lat="42.4844893" lon="12.0684248"><ele>317.0</ele><time>2026-04-30T15:01:44.979Z</time></trkpt><trkpt lat="42.4846362" lon="12.0683729"><ele>317.0</ele><time>2026-04-30T15:01:45.98Z</time></trkpt><trkpt lat="42.4847911" lon="12.0683219"><ele>317.0</ele><time>2026-04-30T15:01:46.979Z</time></trkpt><trkpt lat="42.4849504" lon="12.0682727"><ele>317.33333333333337</ele><time>2026-04-30T15:01:47.979Z</time></trkpt><trkpt lat="42.4851075" lon="12.0682284"><ele>317.6666666666667</ele><time>2026-04-30T15:01:48.979Z</time></trkpt><trkpt lat="42.4852747" lon="12.068176"><ele>318.0</ele><time>2026-04-30T15:01:49.979Z</time></trkpt><trkpt lat="42.4854471" lon="12.0681215"><ele>318.6666666666667</ele><time>2026-04-30T15:01:50.98Z</time></trkpt><trkpt lat="42.4856286" lon="12.0680573"><ele>319.33333333333337</ele><time>2026-04-30T15:01:51.979Z</time></trkpt><trkpt lat="42.4858112" lon="12.067992"><ele>320.0</ele><time>2026-04-30T15:01:52.979Z</time></trkpt><trkpt lat="42.4859952" lon="12.0679278"><ele>320.0</ele><time>2026-04-30T15:01:53.979Z</time></trkpt><trkpt lat="42.486178" lon="12.0678605"><ele>320.0</ele><time>2026-04-30T15:01:54.979Z</time></trkpt><trkpt lat="42.4863551" lon="12.0677971"><ele>320.0</ele><time>2026-04-30T15:01:55.979Z</time></trkpt><trkpt lat="42.4865304" lon="12.0677344"><ele>319.6666666666667</ele><time>2026-04-30T15:01:56.979Z</time></trkpt><trkpt lat="42.4866909" lon="12.0676735"><ele>319.3333333333333</ele><time>2026-04-30T15:01:57.979Z</time></trkpt><trkpt lat="42.4868436" lon="12.0676202"><ele>319.0</ele><time>2026-04-30T15:01:58.979Z</time></trkpt><trkpt lat="42.4869992" lon="12.0675662"><ele>319.0</ele><time>2026-04-30T15:01:59.98Z</time></trkpt><trkpt lat="42.4871668" lon="12.0675097"><ele>319.0</ele><time>2026-04-30T15:02:00.979Z</time></trkpt><trkpt lat="42.4873329" lon="12.0674511"><ele>319.0</ele><time>2026-04-30T15:02:01.979Z</time></trkpt><trkpt lat="42.4875006" lon="12.0673934"><ele>320.0</ele><time>2026-04-30T15:02:02.979Z</time></trkpt><trkpt lat="42.4876744" lon="12.0673326"><ele>321.0</ele><time>2026-04-30T15:02:03.979Z</time></trkpt><trkpt lat="42.4878505" lon="12.0672673"><ele>322.0</ele><time>2026-04-30T15:02:04.98Z</time></trkpt><trkpt lat="42.4880204" lon="12.0672014"><ele>323.0</ele><time>2026-04-30T15:02:05.979Z</time></trkpt><trkpt lat="42.4881827" lon="12.0671344"><ele>324.0</ele><time>2026-04-30T15:02:06.979Z</time></trkpt><trkpt lat="42.488338" lon="12.0670698"><ele>325.0</ele><time>2026-04-30T15:02:07.979Z</time></trkpt><trkpt lat="42.4884911" lon="12.0669968"><ele>325.0</ele><time>2026-04-30T15:02:08.98Z</time></trkpt><trkpt lat="42.4886435" lon="12.0669218"><ele>325.0</ele><time>2026-04-30T15:02:09.98Z</time></trkpt><trkpt lat="42.4887909" lon="12.0668447"><ele>325.0</ele><time>2026-04-30T15:02:10.98Z</time></trkpt><trkpt lat="42.4889425" lon="12.0667704"><ele>324.66666666666663</ele><time>2026-04-30T15:02:11.979Z</time></trkpt><trkpt lat="42.4890893" lon="12.0666937"><ele>324.3333333333333</ele><time>2026-04-30T15:02:12.979Z</time></trkpt><trkpt lat="42.4892396" lon="12.0666159"><ele>324.0</ele><time>2026-04-30T15:02:13.979Z</time></trkpt><trkpt lat="42.4893912" lon="12.0665284"><ele>324.0</ele><time>2026-04-30T15:02:14.979Z</time></trkpt><trkpt lat="42.4895461" lon="12.0664257"><ele>324.0</ele><time>2026-04-30T15:02:15.98Z</time></trkpt><trkpt lat="42.4897106" lon="12.0662951"><ele>324.0</ele><time>2026-04-30T15:02:16.98Z</time></trkpt><trkpt lat="42.4898958" lon="12.066131"><ele>322.5</ele><time>2026-04-30T15:02:17.979Z</time></trkpt><trkpt lat="42.4901001" lon="12.0659508"><ele>321.0</ele><time>2026-04-30T15:02:18.979Z</time></trkpt><trkpt lat="42.4903216" lon="12.0657522"><ele>319.0</ele><time>2026-04-30T15:02:19.98Z</time></trkpt><trkpt lat="42.4905459" lon="12.0655487"><ele>317.0</ele><time>2026-04-30T15:02:20.979Z</time></trkpt><trkpt lat="42.4907756" lon="12.0653458"><ele>317.0</ele><time>2026-04-30T15:02:21.979Z</time></trkpt><trkpt lat="42.4910276" lon="12.0651583"><ele>317.0</ele><time>2026-04-30T15:02:22.979Z</time></trkpt><trkpt lat="42.4912784" lon="12.0649681"><ele>316.5</ele><time>2026-04-30T15:02:23.979Z</time></trkpt><trkpt lat="42.491526" lon="12.0647761"><ele>316.0</ele><time>2026-04-30T15:02:24.979Z</time></trkpt><trkpt lat="42.4917613" lon="12.0645898"><ele>316.0</ele><time>2026-04-30T15:02:25.98Z</time></trkpt><trkpt lat="42.491986" lon="12.0644262"><ele>316.0</ele><time>2026-04-30T15:02:26.979Z</time></trkpt><trkpt lat="42.4922027" lon="12.0642818"><ele>316.0</ele><time>2026-04-30T15:02:27.979Z</time></trkpt><trkpt lat="42.4924099" lon="12.0641493"><ele>316.0</ele><time>2026-04-30T15:02:28.979Z</time></trkpt><trkpt lat="42.4926101" lon="12.0640293"><ele>316.0</ele><time>2026-04-30T15:02:29.979Z</time></trkpt><trkpt lat="42.4928129" lon="12.0639238"><ele>314.3333333333333</ele><time>2026-04-30T15:02:30.979Z</time></trkpt><trkpt lat="42.4930211" lon="12.0638454"><ele>312.6666666666667</ele><time>2026-04-30T15:02:31.979Z</time></trkpt><trkpt lat="42.4932272" lon="12.0637858"><ele>311.0</ele><time>2026-04-30T15:02:32.979Z</time></trkpt><trkpt lat="42.493441" lon="12.0637481"><ele>311.0</ele><time>2026-04-30T15:02:33.979Z</time></trkpt><trkpt lat="42.4936607" lon="12.0637178"><ele>311.0</ele><time>2026-04-30T15:02:34.979Z</time></trkpt><trkpt lat="42.493882" lon="12.0636944"><ele>311.0</ele><time>2026-04-30T15:02:35.979Z</time></trkpt><trkpt lat="42.4941081" lon="12.0636691"><ele>311.0</ele><time>2026-04-30T15:02:36.98Z</time></trkpt><trkpt lat="42.4943391" lon="12.0636366"><ele>311.0</ele><time>2026-04-30T15:02:37.979Z</time></trkpt><trkpt lat="42.4945713" lon="12.0635861"><ele>311.5</ele><time>2026-04-30T15:02:38.979Z</time></trkpt><trkpt lat="42.494805" lon="12.0635168"><ele>312.0</ele><time>2026-04-30T15:02:39.98Z</time></trkpt><trkpt lat="42.4950471" lon="12.0634302"><ele>312.0</ele><time>2026-04-30T15:02:40.979Z</time></trkpt><trkpt lat="42.4952911" lon="12.0633445"><ele>312.0</ele><time>2026-04-30T15:02:41.979Z</time></trkpt><trkpt lat="42.4955367" lon="12.06326"><ele>313.0</ele><time>2026-04-30T15:02:42.979Z</time></trkpt><trkpt lat="42.4957848" lon="12.0631697"><ele>314.0</ele><time>2026-04-30T15:02:43.979Z</time></trkpt><trkpt lat="42.4960337" lon="12.0630769"><ele>315.0</ele><time>2026-04-30T15:02:44.98Z</time></trkpt><trkpt lat="42.4962827" lon="12.0629824"><ele>316.0</ele><time>2026-04-30T15:02:45.979Z</time></trkpt><trkpt lat="42.4965341" lon="12.062882"><ele>316.0</ele><time>2026-04-30T15:02:46.979Z</time></trkpt><trkpt lat="42.4967815" lon="12.0627817"><ele>316.0</ele><time>2026-04-30T15:02:47.979Z</time></trkpt><trkpt lat="42.4970325" lon="12.0626901"><ele>316.0</ele><time>2026-04-30T15:02:48.979Z</time></trkpt><trkpt lat="42.4972866" lon="12.0625938"><ele>316.0</ele><time>2026-04-30T15:02:49.98Z</time></trkpt><trkpt lat="42.49754" lon="12.0624962"><ele>317.0</ele><time>2026-04-30T15:02:50.98Z</time></trkpt><trkpt lat="42.4977944" lon="12.062397"><ele>318.0</ele><time>2026-04-30T15:02:51.979Z</time></trkpt><trkpt lat="42.4980425" lon="12.0623011"><ele>318.0</ele><time>2026-04-30T15:02:52.979Z</time></trkpt><trkpt lat="42.498283" lon="12.0622077"><ele>318.0</ele><time>2026-04-30T15:02:53.979Z</time></trkpt><trkpt lat="42.4985108" lon="12.062119"><ele>318.0</ele><time>2026-04-30T15:02:54.98Z</time></trkpt><trkpt lat="42.4987265" lon="12.0620354"><ele>318.0</ele><time>2026-04-30T15:02:55.98Z</time></trkpt><trkpt lat="42.4989366" lon="12.0619526"><ele>318.0</ele><time>2026-04-30T15:02:56.979Z</time></trkpt><trkpt lat="42.499148" lon="12.061872"><ele>320.0</ele><time>2026-04-30T15:02:57.979Z</time></trkpt><trkpt lat="42.4993558" lon="12.0617947"><ele>322.0</ele><time>2026-04-30T15:02:58.979Z</time></trkpt><trkpt lat="42.4995499" lon="12.0617182"><ele>324.0</ele><time>2026-04-30T15:02:59.98Z</time></trkpt><trkpt lat="42.4997351" lon="12.0616518"><ele>325.3333333333333</ele><time>2026-04-30T15:03:00.979Z</time></trkpt><trkpt lat="42.4999128" lon="12.0615857"><ele>326.66666666666663</ele><time>2026-04-30T15:03:01.979Z</time></trkpt><trkpt lat="42.5000827" lon="12.0615181"><ele>328.0</ele><time>2026-04-30T15:03:02.979Z</time></trkpt><trkpt lat="42.5002541" lon="12.0614525"><ele>331.0</ele><time>2026-04-30T15:03:03.979Z</time></trkpt><trkpt lat="42.500429" lon="12.0613816"><ele>334.0</ele><time>2026-04-30T15:03:04.98Z</time></trkpt><trkpt lat="42.5006046" lon="12.0613179"><ele>337.0</ele><time>2026-04-30T15:03:05.979Z</time></trkpt><trkpt lat="42.5007895" lon="12.0612544"><ele>337.0</ele><time>2026-04-30T15:03:06.979Z</time></trkpt><trkpt lat="42.5009794" lon="12.0611789"><ele>337.0</ele><time>2026-04-30T15:03:07.979Z</time></trkpt><trkpt lat="42.5011831" lon="12.0610917"><ele>337.0</ele><time>2026-04-30T15:03:08.98Z</time></trkpt><trkpt lat="42.5014074" lon="12.0609884"><ele>339.0</ele><time>2026-04-30T15:03:09.979Z</time></trkpt><trkpt lat="42.501651" lon="12.0608925"><ele>341.0</ele><time>2026-04-30T15:03:10.979Z</time></trkpt><trkpt lat="42.5019011" lon="12.0608158"><ele>342.5</ele><time>2026-04-30T15:03:11.979Z</time></trkpt><trkpt lat="42.5021581" lon="12.0607282"><ele>344.0</ele><time>2026-04-30T15:03:12.979Z</time></trkpt><trkpt lat="42.5024142" lon="12.0606271"><ele>344.0</ele><time>2026-04-30T15:03:13.98Z</time></trkpt><trkpt lat="42.5026642" lon="12.060524"><ele>344.0</ele><time>2026-04-30T15:03:14.979Z</time></trkpt><trkpt lat="42.5029076" lon="12.0604272"><ele>344.0</ele><time>2026-04-30T15:03:15.98Z</time></trkpt><trkpt lat="42.5031577" lon="12.0603308"><ele>344.0</ele><time>2026-04-30T15:03:16.98Z</time></trkpt><trkpt lat="42.5034117" lon="12.0602092"><ele>344.0</ele><time>2026-04-30T15:03:17.98Z</time></trkpt><trkpt lat="42.5036665" lon="12.0600752"><ele>344.0</ele><time>2026-04-30T15:03:18.98Z</time></trkpt><trkpt lat="42.5039187" lon="12.0599351"><ele>344.0</ele><time>2026-04-30T15:03:19.979Z</time></trkpt><trkpt lat="42.5041646" lon="12.0597867"><ele>344.0</ele><time>2026-04-30T15:03:20.98Z</time></trkpt><trkpt lat="42.5044025" lon="12.0596248"><ele>344.5</ele><time>2026-04-30T15:03:21.979Z</time></trkpt><trkpt lat="42.504634" lon="12.0594466"><ele>345.0</ele><time>2026-04-30T15:03:22.98Z</time></trkpt><trkpt lat="42.5048604" lon="12.0592628"><ele>345.5</ele><time>2026-04-30T15:03:23.979Z</time></trkpt><trkpt lat="42.5050848" lon="12.0590734"><ele>346.0</ele><time>2026-04-30T15:03:24.979Z</time></trkpt><trkpt lat="42.5053084" lon="12.0588869"><ele>346.5</ele><time>2026-04-30T15:03:25.979Z</time></trkpt><trkpt lat="42.5055391" lon="12.058715"><ele>347.0</ele><time>2026-04-30T15:03:26.979Z</time></trkpt><trkpt lat="42.5057789" lon="12.0585715"><ele>347.0</ele><time>2026-04-30T15:03:27.979Z</time></trkpt><trkpt lat="42.5060193" lon="12.0584423"><ele>347.0</ele><time>2026-04-30T15:03:28.979Z</time></trkpt><trkpt lat="42.5062604" lon="12.0583343"><ele>346.5</ele><time>2026-04-30T15:03:29.98Z</time></trkpt><trkpt lat="42.5065038" lon="12.0582339"><ele>346.0</ele><time>2026-04-30T15:03:30.98Z</time></trkpt><trkpt lat="42.5067549" lon="12.0581324"><ele>346.0</ele><time>2026-04-30T15:03:31.979Z</time></trkpt><trkpt lat="42.5070092" lon="12.0580225"><ele>346.0</ele><time>2026-04-30T15:03:32.979Z</time></trkpt><trkpt lat="42.5072613" lon="12.0578996"><ele>348.0</ele><time>2026-04-30T15:03:33.979Z</time></trkpt><trkpt lat="42.5075117" lon="12.0577629"><ele>350.0</ele><time>2026-04-30T15:03:34.979Z</time></trkpt><trkpt lat="42.5077608" lon="12.057618"><ele>351.0</ele><time>2026-04-30T15:03:35.98Z</time></trkpt><trkpt lat="42.5080063" lon="12.0574713"><ele>352.0</ele><time>2026-04-30T15:03:36.979Z</time></trkpt><trkpt lat="42.5082401" lon="12.0573228"><ele>352.5</ele><time>2026-04-30T15:03:37.979Z</time></trkpt><trkpt lat="42.5084505" lon="12.0571808"><ele>353.0</ele><time>2026-04-30T15:03:38.98Z</time></trkpt><trkpt lat="42.5086486" lon="12.0570495"><ele>353.33333333333337</ele><time>2026-04-30T15:03:39.979Z</time></trkpt><trkpt lat="42.5088439" lon="12.0569179"><ele>353.6666666666667</ele><time>2026-04-30T15:03:40.979Z</time></trkpt><trkpt lat="42.50904" lon="12.0567854"><ele>354.0</ele><time>2026-04-30T15:03:41.98Z</time></trkpt><trkpt lat="42.5092347" lon="12.0566474"><ele>354.0</ele><time>2026-04-30T15:03:42.98Z</time></trkpt><trkpt lat="42.5094271" lon="12.0565006"><ele>354.0</ele><time>2026-04-30T15:03:43.979Z</time></trkpt><trkpt lat="42.5096188" lon="12.0563436"><ele>354.0</ele><time>2026-04-30T15:03:44.979Z</time></trkpt><trkpt lat="42.5098195" lon="12.0561893"><ele>355.5</ele><time>2026-04-30T15:03:45.979Z</time></trkpt><trkpt lat="42.5100209" lon="12.056039"><ele>357.0</ele><time>2026-04-30T15:03:46.98Z</time></trkpt><trkpt lat="42.5102198" lon="12.0559041"><ele>357.6666666666667</ele><time>2026-04-30T15:03:47.98Z</time></trkpt><trkpt lat="42.510405" lon="12.0557773"><ele>358.33333333333337</ele><time>2026-04-30T15:03:48.979Z</time></trkpt><trkpt lat="42.5105807" lon="12.055649"><ele>359.0</ele><time>2026-04-30T15:03:49.98Z</time></trkpt><trkpt lat="42.5107473" lon="12.0555261"><ele>360.0</ele><time>2026-04-30T15:03:50.979Z</time></trkpt><trkpt lat="42.5109092" lon="12.0554056"><ele>361.0</ele><time>2026-04-30T15:03:51.979Z</time></trkpt><trkpt lat="42.5110675" lon="12.0552851"><ele>362.0</ele><time>2026-04-30T15:03:52.979Z</time></trkpt><trkpt lat="42.5112189" lon="12.0551715"><ele>363.33333333333337</ele><time>2026-04-30T15:03:53.98Z</time></trkpt><trkpt lat="42.5113643" lon="12.0550639"><ele>364.6666666666667</ele><time>2026-04-30T15:03:54.979Z</time></trkpt><trkpt lat="42.5115076" lon="12.0549559"><ele>366.0</ele><time>2026-04-30T15:03:55.979Z</time></trkpt><trkpt lat="42.511648" lon="12.0548482"><ele>366.3333333333333</ele><time>2026-04-30T15:03:56.98Z</time></trkpt><trkpt lat="42.5117869" lon="12.0547494"><ele>366.66666666666663</ele><time>2026-04-30T15:03:57.979Z</time></trkpt><trkpt lat="42.5119237" lon="12.0546545"><ele>367.0</ele><time>2026-04-30T15:03:58.979Z</time></trkpt><trkpt lat="42.5120526" lon="12.0545579"><ele>368.25</ele><time>2026-04-30T15:03:59.979Z</time></trkpt><trkpt lat="42.5121785" lon="12.0544587"><ele>369.5</ele><time>2026-04-30T15:04:00.979Z</time></trkpt><trkpt lat="42.5122952" lon="12.054374"><ele>370.75</ele><time>2026-04-30T15:04:01.98Z</time></trkpt><trkpt lat="42.5124048" lon="12.0543012"><ele>372.0</ele><time>2026-04-30T15:04:02.979Z</time></trkpt><trkpt lat="42.5125067" lon="12.0542323"><ele>372.0</ele><time>2026-04-30T15:04:03.98Z</time></trkpt><trkpt lat="42.5126053" lon="12.0541639"><ele>372.0</ele><time>2026-04-30T15:04:04.98Z</time></trkpt><trkpt lat="42.5127072" lon="12.0540951"><ele>372.0</ele><time>2026-04-30T15:04:05.98Z</time></trkpt><trkpt lat="42.5128137" lon="12.0540292"><ele>372.0</ele><time>2026-04-30T15:04:06.98Z</time></trkpt><trkpt lat="42.5129233" lon="12.0539609"><ele>373.20000000000005</ele><time>2026-04-30T15:04:07.979Z</time></trkpt><trkpt lat="42.5130234" lon="12.0538915"><ele>374.4</ele><time>2026-04-30T15:04:08.979Z</time></trkpt><trkpt lat="42.5131139" lon="12.0538234"><ele>375.6</ele><time>2026-04-30T15:04:09.979Z</time></trkpt><trkpt lat="42.5131962" lon="12.053766"><ele>376.79999999999995</ele><time>2026-04-30T15:04:10.98Z</time></trkpt><trkpt lat="42.5132751" lon="12.0537152"><ele>378.0</ele><time>2026-04-30T15:04:11.979Z</time></trkpt><trkpt lat="42.5133439" lon="12.0536683"><ele>378.0</ele><time>2026-04-30T15:04:12.98Z</time></trkpt><trkpt lat="42.5134085" lon="12.0536238"><ele>378.0</ele><time>2026-04-30T15:04:13.979Z</time></trkpt><trkpt lat="42.5134728" lon="12.0535807"><ele>378.0</ele><time>2026-04-30T15:04:14.979Z</time></trkpt><trkpt lat="42.5135418" lon="12.0535386"><ele>378.0</ele><time>2026-04-30T15:04:15.979Z</time></trkpt><trkpt lat="42.5136177" lon="12.053491"><ele>378.0</ele><time>2026-04-30T15:04:16.979Z</time></trkpt><trkpt lat="42.5137059" lon="12.0534341"><ele>378.0</ele><time>2026-04-30T15:04:17.979Z</time></trkpt><trkpt lat="42.5138051" lon="12.0533704"><ele>378.5</ele><time>2026-04-30T15:04:18.979Z</time></trkpt><trkpt lat="42.5139181" lon="12.0532904"><ele>379.0</ele><time>2026-04-30T15:04:19.979Z</time></trkpt><trkpt lat="42.5140379" lon="12.0532034"><ele>379.5</ele><time>2026-04-30T15:04:20.98Z</time></trkpt><trkpt lat="42.5141691" lon="12.0531121"><ele>380.0</ele><time>2026-04-30T15:04:21.979Z</time></trkpt><trkpt lat="42.5143027" lon="12.0530298"><ele>380.25</ele><time>2026-04-30T15:04:22.979Z</time></trkpt><trkpt lat="42.5144273" lon="12.0529562"><ele>380.5</ele><time>2026-04-30T15:04:23.979Z</time></trkpt><trkpt lat="42.5145453" lon="12.0528796"><ele>380.75</ele><time>2026-04-30T15:04:24.979Z</time></trkpt><trkpt lat="42.5146589" lon="12.0528066"><ele>381.0</ele><time>2026-04-30T15:04:25.98Z</time></trkpt><trkpt lat="42.5147746" lon="12.0527332"><ele>382.25</ele><time>2026-04-30T15:04:26.979Z</time></trkpt><trkpt lat="42.514898" lon="12.0526588"><ele>383.5</ele><time>2026-04-30T15:04:27.979Z</time></trkpt><trkpt lat="42.5150267" lon="12.0525755"><ele>384.75</ele><time>2026-04-30T15:04:28.979Z</time></trkpt><trkpt lat="42.5151606" lon="12.0524849"><ele>386.0</ele><time>2026-04-30T15:04:29.98Z</time></trkpt><trkpt lat="42.5152981" lon="12.052383"><ele>387.3333333333333</ele><time>2026-04-30T15:04:30.979Z</time></trkpt><trkpt lat="42.5154482" lon="12.0522813"><ele>388.66666666666663</ele><time>2026-04-30T15:04:31.979Z</time></trkpt><trkpt lat="42.5156089" lon="12.052174"><ele>390.0</ele><time>2026-04-30T15:04:32.979Z</time></trkpt><trkpt lat="42.5157747" lon="12.0520423"><ele>390.0</ele><time>2026-04-30T15:04:33.98Z</time></trkpt><trkpt lat="42.5159423" lon="12.0518831"><ele>390.0</ele><time>2026-04-30T15:04:34.979Z</time></trkpt><trkpt lat="42.5161122" lon="12.0516979"><ele>390.0</ele><time>2026-04-30T15:04:35.98Z</time></trkpt><trkpt lat="42.5162898" lon="12.0515065"><ele>393.0</ele><time>2026-04-30T15:04:36.98Z</time></trkpt><trkpt lat="42.5164646" lon="12.0513121"><ele>396.0</ele><time>2026-04-30T15:04:37.979Z</time></trkpt><trkpt lat="42.516646" lon="12.0511158"><ele>396.0</ele><time>2026-04-30T15:04:38.979Z</time></trkpt><trkpt lat="42.5168189" lon="12.0509272"><ele>396.0</ele><time>2026-04-30T15:04:39.979Z</time></trkpt><trkpt lat="42.5169722" lon="12.0507503"><ele>396.0</ele><time>2026-04-30T15:04:40.979Z</time></trkpt><trkpt lat="42.5171112" lon="12.0505905"><ele>398.33333333333337</ele><time>2026-04-30T15:04:41.98Z</time></trkpt><trkpt lat="42.5172371" lon="12.050435"><ele>400.6666666666667</ele><time>2026-04-30T15:04:42.979Z</time></trkpt><trkpt lat="42.5173562" lon="12.0502924"><ele>403.0</ele><time>2026-04-30T15:04:43.979Z</time></trkpt><trkpt lat="42.5174701" lon="12.050166"><ele>403.0</ele><time>2026-04-30T15:04:44.98Z</time></trkpt><trkpt lat="42.517578" lon="12.0500457"><ele>403.0</ele><time>2026-04-30T15:04:45.979Z</time></trkpt><trkpt lat="42.5176857" lon="12.0499313"><ele>403.0</ele><time>2026-04-30T15:04:46.979Z</time></trkpt><trkpt lat="42.5177868" lon="12.0498231"><ele>403.0</ele><time>2026-04-30T15:04:47.98Z</time></trkpt><trkpt lat="42.5178921" lon="12.0497168"><ele>405.25</ele><time>2026-04-30T15:04:48.979Z</time></trkpt><trkpt lat="42.5179931" lon="12.0496066"><ele>407.5</ele><time>2026-04-30T15:04:49.979Z</time></trkpt><trkpt lat="42.5180825" lon="12.0494962"><ele>409.75</ele><time>2026-04-30T15:04:50.979Z</time></trkpt><trkpt lat="42.5181676" lon="12.0493894"><ele>412.0</ele><time>2026-04-30T15:04:51.98Z</time></trkpt><trkpt lat="42.5182568" lon="12.0492826"><ele>412.0</ele><time>2026-04-30T15:04:52.979Z</time></trkpt><trkpt lat="42.5183528" lon="12.0491807"><ele>412.0</ele><time>2026-04-30T15:04:53.98Z</time></trkpt><trkpt lat="42.5184479" lon="12.049073"><ele>412.0</ele><time>2026-04-30T15:04:54.98Z</time></trkpt><trkpt lat="42.5185478" lon="12.0489606"><ele>412.0</ele><time>2026-04-30T15:04:55.98Z</time></trkpt><trkpt lat="42.5186564" lon="12.0488467"><ele>412.0</ele><time>2026-04-30T15:04:56.98Z</time></trkpt><trkpt lat="42.5187704" lon="12.0487301"><ele>412.0</ele><time>2026-04-30T15:04:57.979Z</time></trkpt><trkpt lat="42.5188943" lon="12.048611"><ele>412.0</ele><time>2026-04-30T15:04:58.979Z</time></trkpt><trkpt lat="42.5190257" lon="12.0484943"><ele>412.0</ele><time>2026-04-30T15:04:59.979Z</time></trkpt><trkpt lat="42.5191643" lon="12.0483952"><ele>412.0</ele><time>2026-04-30T15:05:00.979Z</time></trkpt><trkpt lat="42.5193156" lon="12.0483086"><ele>412.0</ele><time>2026-04-30T15:05:01.979Z</time></trkpt><trkpt lat="42.5194726" lon="12.0482259"><ele>410.33333333333337</ele><time>2026-04-30T15:05:02.979Z</time></trkpt><trkpt lat="42.5196338" lon="12.0481537"><ele>408.66666666666663</ele><time>2026-04-30T15:05:03.979Z</time></trkpt><trkpt lat="42.5198021" lon="12.0480926"><ele>407.0</ele><time>2026-04-30T15:05:04.979Z</time></trkpt><trkpt lat="42.5199722" lon="12.0480369"><ele>407.0</ele><time>2026-04-30T15:05:05.98Z</time></trkpt><trkpt lat="42.5201431" lon="12.048002"><ele>407.0</ele><time>2026-04-30T15:05:06.979Z</time></trkpt><trkpt lat="42.5203083" lon="12.0479839"><ele>407.0</ele><time>2026-04-30T15:05:07.979Z</time></trkpt><trkpt lat="42.520474" lon="12.0479825"><ele>406.66666666666663</ele><time>2026-04-30T15:05:08.979Z</time></trkpt><trkpt lat="42.5206311" lon="12.0479953"><ele>406.33333333333337</ele><time>2026-04-30T15:05:09.979Z</time></trkpt><trkpt lat="42.5207828" lon="12.048021"><ele>406.0</ele><time>2026-04-30T15:05:10.98Z</time></trkpt><trkpt lat="42.5209318" lon="12.0480511"><ele>406.0</ele><time>2026-04-30T15:05:11.979Z</time></trkpt><trkpt lat="42.521078" lon="12.0480925"><ele>406.0</ele><time>2026-04-30T15:05:12.979Z</time></trkpt><trkpt lat="42.5212226" lon="12.0481416"><ele>406.0</ele><time>2026-04-30T15:05:13.98Z</time></trkpt><trkpt lat="42.5213658" lon="12.0482011"><ele>406.0</ele><time>2026-04-30T15:05:14.979Z</time></trkpt><trkpt lat="42.521502" lon="12.048271"><ele>406.75</ele><time>2026-04-30T15:05:15.979Z</time></trkpt><trkpt lat="42.5216305" lon="12.0483426"><ele>407.5</ele><time>2026-04-30T15:05:16.979Z</time></trkpt><trkpt lat="42.5217467" lon="12.0484196"><ele>408.25</ele><time>2026-04-30T15:05:17.98Z</time></trkpt><trkpt lat="42.5218591" lon="12.0485022"><ele>409.0</ele><time>2026-04-30T15:05:18.979Z</time></trkpt><trkpt lat="42.5219625" lon="12.0485821"><ele>409.0</ele><time>2026-04-30T15:05:19.98Z</time></trkpt><trkpt lat="42.5220491" lon="12.0486593"><ele>409.0</ele><time>2026-04-30T15:05:20.979Z</time></trkpt><trkpt lat="42.5221248" lon="12.0487401"><ele>409.0</ele><time>2026-04-30T15:05:21.979Z</time></trkpt><trkpt lat="42.5222007" lon="12.0488198"><ele>409.0</ele><time>2026-04-30T15:05:22.98Z</time></trkpt><trkpt lat="42.5222775" lon="12.0489036"><ele>409.0</ele><time>2026-04-30T15:05:23.98Z</time></trkpt><trkpt lat="42.5223526" lon="12.0489972"><ele>409.50000000000006</ele><time>2026-04-30T15:05:24.979Z</time></trkpt><trkpt lat="42.5224297" lon="12.0490847"><ele>410.0</ele><time>2026-04-30T15:05:25.979Z</time></trkpt><trkpt lat="42.5224968" lon="12.0491817"><ele>410.5</ele><time>2026-04-30T15:05:26.979Z</time></trkpt><trkpt lat="42.5225582" lon="12.0492702"><ele>411.0</ele><time>2026-04-30T15:05:27.98Z</time></trkpt><trkpt lat="42.5226181" lon="12.0493527"><ele>411.50000000000006</ele><time>2026-04-30T15:05:28.98Z</time></trkpt><trkpt lat="42.522666" lon="12.0494296"><ele>412.0</ele><time>2026-04-30T15:05:29.979Z</time></trkpt><trkpt lat="42.5227376" lon="12.0495661"><ele>412.6666666666667</ele><time>2026-04-30T15:05:31.979Z</time></trkpt><trkpt lat="42.5227828" lon="12.0496385"><ele>413.33333333333337</ele><time>2026-04-30T15:05:32.979Z</time></trkpt><trkpt lat="42.5228343" lon="12.0497285"><ele>414.0</ele><time>2026-04-30T15:05:33.98Z</time></trkpt><trkpt lat="42.5228906" lon="12.0498243"><ele>414.66666666666663</ele><time>2026-04-30T15:05:34.979Z</time></trkpt><trkpt lat="42.5229472" lon="12.049913"><ele>415.3333333333333</ele><time>2026-04-30T15:05:35.979Z</time></trkpt><trkpt lat="42.5229948" lon="12.0499957"><ele>416.0</ele><time>2026-04-30T15:05:36.979Z</time></trkpt><trkpt lat="42.5230394" lon="12.0500798"><ele>417.6</ele><time>2026-04-30T15:05:37.98Z</time></trkpt><trkpt lat="42.5230805" lon="12.0501615"><ele>419.20000000000005</ele><time>2026-04-30T15:05:38.98Z</time></trkpt><trkpt lat="42.5231518" lon="12.050291"><ele>420.79999999999995</ele><time>2026-04-30T15:05:40.979Z</time></trkpt><trkpt lat="42.5232197" lon="12.0504034"><ele>422.4</ele><time>2026-04-30T15:05:42.979Z</time></trkpt><trkpt lat="42.5232993" lon="12.050547"><ele>424.0</ele><time>2026-04-30T15:05:44.979Z</time></trkpt><trkpt lat="42.5233525" lon="12.0506506"><ele>424.0</ele><time>2026-04-30T15:05:45.979Z</time></trkpt><trkpt lat="42.5234151" lon="12.0507704"><ele>424.0</ele><time>2026-04-30T15:05:46.979Z</time></trkpt><trkpt lat="42.5234758" lon="12.0508912"><ele>424.0</ele><time>2026-04-30T15:05:47.979Z</time></trkpt><trkpt lat="42.523539" lon="12.0510044"><ele>424.0</ele><time>2026-04-30T15:05:48.979Z</time></trkpt><trkpt lat="42.5236028" lon="12.0511266"><ele>424.0</ele><time>2026-04-30T15:05:49.979Z</time></trkpt><trkpt lat="42.523674" lon="12.0512508"><ele>425.0</ele><time>2026-04-30T15:05:50.979Z</time></trkpt><trkpt lat="42.5237451" lon="12.0513839"><ele>426.0</ele><time>2026-04-30T15:05:51.979Z</time></trkpt><trkpt lat="42.5238218" lon="12.0515325"><ele>427.0</ele><time>2026-04-30T15:05:52.979Z</time></trkpt><trkpt lat="42.5239096" lon="12.0516986"><ele>428.0</ele><time>2026-04-30T15:05:53.979Z</time></trkpt><trkpt lat="42.5240026" lon="12.0518768"><ele>430.0</ele><time>2026-04-30T15:05:54.979Z</time></trkpt><trkpt lat="42.5240986" lon="12.052061"><ele>432.0</ele><time>2026-04-30T15:05:55.979Z</time></trkpt><trkpt lat="42.5241964" lon="12.0522411"><ele>434.0</ele><time>2026-04-30T15:05:56.979Z</time></trkpt><trkpt lat="42.5242881" lon="12.0524119"><ele>434.66666666666663</ele><time>2026-04-30T15:05:57.979Z</time></trkpt><trkpt lat="42.5243817" lon="12.0525676"><ele>435.33333333333337</ele><time>2026-04-30T15:05:58.979Z</time></trkpt><trkpt lat="42.524476" lon="12.052732"><ele>436.0</ele><time>2026-04-30T15:05:59.979Z</time></trkpt><trkpt lat="42.524565" lon="12.0528942"><ele>437.0</ele><time>2026-04-30T15:06:00.98Z</time></trkpt><trkpt lat="42.5246614" lon="12.0530411"><ele>438.0</ele><time>2026-04-30T15:06:01.979Z</time></trkpt><trkpt lat="42.5247705" lon="12.0531679"><ele>439.0</ele><time>2026-04-30T15:06:02.979Z</time></trkpt><trkpt lat="42.5248918" lon="12.0532728"><ele>440.0</ele><time>2026-04-30T15:06:03.979Z</time></trkpt><trkpt lat="42.5250233" lon="12.0533506"><ele>440.0</ele><time>2026-04-30T15:06:04.979Z</time></trkpt><trkpt lat="42.5251567" lon="12.0534045"><ele>440.0</ele><time>2026-04-30T15:06:05.98Z</time></trkpt><trkpt lat="42.525291" lon="12.0534358"><ele>440.0</ele><time>2026-04-30T15:06:06.979Z</time></trkpt><trkpt lat="42.5254288" lon="12.0534572"><ele>440.0</ele><time>2026-04-30T15:06:07.98Z</time></trkpt><trkpt lat="42.5255635" lon="12.0534775"><ele>441.25</ele><time>2026-04-30T15:06:08.98Z</time></trkpt><trkpt lat="42.5256949" lon="12.053491"><ele>442.5</ele><time>2026-04-30T15:06:09.979Z</time></trkpt><trkpt lat="42.5258235" lon="12.0534939"><ele>443.75</ele><time>2026-04-30T15:06:10.979Z</time></trkpt><trkpt lat="42.5259624" lon="12.0534957"><ele>445.0</ele><time>2026-04-30T15:06:11.979Z</time></trkpt><trkpt lat="42.5261174" lon="12.0534916"><ele>445.75</ele><time>2026-04-30T15:06:12.98Z</time></trkpt><trkpt lat="42.5262729" lon="12.0534928"><ele>446.5</ele><time>2026-04-30T15:06:13.979Z</time></trkpt><trkpt lat="42.5264183" lon="12.0534975"><ele>447.25</ele><time>2026-04-30T15:06:14.979Z</time></trkpt><trkpt lat="42.5265646" lon="12.0534998"><ele>448.0</ele><time>2026-04-30T15:06:15.979Z</time></trkpt><trkpt lat="42.5267077" lon="12.0535029"><ele>448.0</ele><time>2026-04-30T15:06:16.98Z</time></trkpt><trkpt lat="42.5268548" lon="12.053518"><ele>448.0</ele><time>2026-04-30T15:06:17.979Z</time></trkpt><trkpt lat="42.5269942" lon="12.053535"><ele>448.0</ele><time>2026-04-30T15:06:18.979Z</time></trkpt><trkpt lat="42.5271335" lon="12.0535529"><ele>448.0</ele><time>2026-04-30T15:06:19.979Z</time></trkpt><trkpt lat="42.5272731" lon="12.0535672"><ele>449.25</ele><time>2026-04-30T15:06:20.979Z</time></trkpt><trkpt lat="42.5274055" lon="12.0535847"><ele>450.5</ele><time>2026-04-30T15:06:21.979Z</time></trkpt><trkpt lat="42.5275516" lon="12.0536178"><ele>451.75</ele><time>2026-04-30T15:06:22.979Z</time></trkpt><trkpt lat="42.5277022" lon="12.0536569"><ele>453.0</ele><time>2026-04-30T15:06:23.98Z</time></trkpt><trkpt lat="42.5278556" lon="12.0536981"><ele>454.0</ele><time>2026-04-30T15:06:24.979Z</time></trkpt><trkpt lat="42.5280085" lon="12.0537557"><ele>455.0</ele><time>2026-04-30T15:06:25.979Z</time></trkpt><trkpt lat="42.5281723" lon="12.0538093"><ele>456.0</ele><time>2026-04-30T15:06:26.98Z</time></trkpt><trkpt lat="42.5283294" lon="12.0538556"><ele>456.0</ele><time>2026-04-30T15:06:27.98Z</time></trkpt><trkpt lat="42.5284832" lon="12.0538907"><ele>456.0</ele><time>2026-04-30T15:06:28.979Z</time></trkpt><trkpt lat="42.5286274" lon="12.0539119"><ele>456.0</ele><time>2026-04-30T15:06:29.979Z</time></trkpt><trkpt lat="42.5287596" lon="12.053891"><ele>456.0</ele><time>2026-04-30T15:06:30.979Z</time></trkpt><trkpt lat="42.5288992" lon="12.0538584"><ele>458.0</ele><time>2026-04-30T15:06:31.979Z</time></trkpt><trkpt lat="42.5290528" lon="12.0538346"><ele>460.0</ele><time>2026-04-30T15:06:32.98Z</time></trkpt><trkpt lat="42.5292138" lon="12.0537986"><ele>462.0</ele><time>2026-04-30T15:06:33.979Z</time></trkpt><trkpt lat="42.5293778" lon="12.0537528"><ele>462.0</ele><time>2026-04-30T15:06:34.979Z</time></trkpt><trkpt lat="42.5295396" lon="12.0537054"><ele>462.0</ele><time>2026-04-30T15:06:35.98Z</time></trkpt><trkpt lat="42.5297014" lon="12.0536557"><ele>462.0</ele><time>2026-04-30T15:06:36.979Z</time></trkpt><trkpt lat="42.5298647" lon="12.0535981"><ele>463.33333333333337</ele><time>2026-04-30T15:06:37.979Z</time></trkpt><trkpt lat="42.530033" lon="12.0535571"><ele>464.6666666666667</ele><time>2026-04-30T15:06:38.979Z</time></trkpt><trkpt lat="42.5302089" lon="12.0535173"><ele>466.0</ele><time>2026-04-30T15:06:39.979Z</time></trkpt><trkpt lat="42.530385" lon="12.0534828"><ele>467.33333333333337</ele><time>2026-04-30T15:06:40.979Z</time></trkpt><trkpt lat="42.5305383" lon="12.0534165"><ele>468.66666666666663</ele><time>2026-04-30T15:06:41.98Z</time></trkpt><trkpt lat="42.5306792" lon="12.0533175"><ele>470.0</ele><time>2026-04-30T15:06:42.979Z</time></trkpt><trkpt lat="42.5307857" lon="12.0531798"><ele>470.0</ele><time>2026-04-30T15:06:43.979Z</time></trkpt><trkpt lat="42.5308531" lon="12.053007"><ele>470.0</ele><time>2026-04-30T15:06:44.979Z</time></trkpt><trkpt lat="42.5308909" lon="12.0528241"><ele>470.0</ele><time>2026-04-30T15:06:45.979Z</time></trkpt><trkpt lat="42.5309207" lon="12.0526361"><ele>470.0</ele><time>2026-04-30T15:06:46.979Z</time></trkpt><trkpt lat="42.5309483" lon="12.0524535"><ele>470.5</ele><time>2026-04-30T15:06:47.979Z</time></trkpt><trkpt lat="42.5309806" lon="12.0522784"><ele>471.0</ele><time>2026-04-30T15:06:48.979Z</time></trkpt><trkpt lat="42.5310073" lon="12.0521073"><ele>471.5</ele><time>2026-04-30T15:06:49.98Z</time></trkpt><trkpt lat="42.5310384" lon="12.0519371"><ele>472.0</ele><time>2026-04-30T15:06:50.979Z</time></trkpt><trkpt lat="42.5310698" lon="12.0517681"><ele>473.5</ele><time>2026-04-30T15:06:51.979Z</time></trkpt><trkpt lat="42.5311002" lon="12.051602"><ele>475.0</ele><time>2026-04-30T15:06:52.979Z</time></trkpt><trkpt lat="42.5311248" lon="12.0514427"><ele>476.5</ele><time>2026-04-30T15:06:53.979Z</time></trkpt><trkpt lat="42.5311493" lon="12.0512945"><ele>478.0</ele><time>2026-04-30T15:06:54.979Z</time></trkpt><trkpt lat="42.5311779" lon="12.051148"><ele>478.0</ele><time>2026-04-30T15:06:55.979Z</time></trkpt><trkpt lat="42.5312087" lon="12.0510079"><ele>478.0</ele><time>2026-04-30T15:06:56.979Z</time></trkpt><trkpt lat="42.5312356" lon="12.0508629"><ele>478.0</ele><time>2026-04-30T15:06:57.98Z</time></trkpt><trkpt lat="42.5312671" lon="12.0507091"><ele>478.0</ele><time>2026-04-30T15:06:58.979Z</time></trkpt><trkpt lat="42.5313083" lon="12.0505531"><ele>478.2</ele><time>2026-04-30T15:06:59.979Z</time></trkpt><trkpt lat="42.531333" lon="12.0504002"><ele>478.4</ele><time>2026-04-30T15:07:00.979Z</time></trkpt><trkpt lat="42.5313636" lon="12.0502524"><ele>478.59999999999997</ele><time>2026-04-30T15:07:01.979Z</time></trkpt><trkpt lat="42.531396" lon="12.0501117"><ele>478.79999999999995</ele><time>2026-04-30T15:07:02.979Z</time></trkpt><trkpt lat="42.5314268" lon="12.0499774"><ele>479.0</ele><time>2026-04-30T15:07:03.979Z</time></trkpt><trkpt lat="42.5314604" lon="12.0498513"><ele>480.0</ele><time>2026-04-30T15:07:04.979Z</time></trkpt><trkpt lat="42.5314964" lon="12.0497162"><ele>481.0</ele><time>2026-04-30T15:07:05.979Z</time></trkpt><trkpt lat="42.5315285" lon="12.0495716"><ele>482.0</ele><time>2026-04-30T15:07:06.979Z</time></trkpt><trkpt lat="42.5315504" lon="12.0494281"><ele>483.0</ele><time>2026-04-30T15:07:07.979Z</time></trkpt><trkpt lat="42.5315759" lon="12.0492837"><ele>484.0</ele><time>2026-04-30T15:07:08.979Z</time></trkpt><trkpt lat="42.531609" lon="12.0491448"><ele>484.79999999999995</ele><time>2026-04-30T15:07:09.979Z</time></trkpt><trkpt lat="42.5316334" lon="12.0489998"><ele>485.59999999999997</ele><time>2026-04-30T15:07:10.979Z</time></trkpt><trkpt lat="42.5316566" lon="12.0488555"><ele>486.4</ele><time>2026-04-30T15:07:11.979Z</time></trkpt><trkpt lat="42.5316824" lon="12.0487076"><ele>487.2</ele><time>2026-04-30T15:07:12.979Z</time></trkpt><trkpt lat="42.5317089" lon="12.0485595"><ele>488.0</ele><time>2026-04-30T15:07:13.979Z</time></trkpt><trkpt lat="42.5317344" lon="12.0484031"><ele>487.75</ele><time>2026-04-30T15:07:14.98Z</time></trkpt><trkpt lat="42.5317702" lon="12.0482401"><ele>487.5</ele><time>2026-04-30T15:07:15.979Z</time></trkpt><trkpt lat="42.5318061" lon="12.0480824"><ele>487.25</ele><time>2026-04-30T15:07:16.98Z</time></trkpt><trkpt lat="42.5318481" lon="12.0479199"><ele>487.0</ele><time>2026-04-30T15:07:17.979Z</time></trkpt><trkpt lat="42.5318925" lon="12.0477649"><ele>487.0</ele><time>2026-04-30T15:07:18.979Z</time></trkpt><trkpt lat="42.5319412" lon="12.0476066"><ele>487.0</ele><time>2026-04-30T15:07:19.98Z</time></trkpt><trkpt lat="42.531998" lon="12.0474478"><ele>487.0</ele><time>2026-04-30T15:07:20.979Z</time></trkpt><trkpt lat="42.5320549" lon="12.0472967"><ele>487.0</ele><time>2026-04-30T15:07:21.98Z</time></trkpt><trkpt lat="42.5321075" lon="12.0471362"><ele>488.25</ele><time>2026-04-30T15:07:22.979Z</time></trkpt><trkpt lat="42.5321552" lon="12.0469742"><ele>489.5</ele><time>2026-04-30T15:07:23.979Z</time></trkpt><trkpt lat="42.5321981" lon="12.0468127"><ele>490.75</ele><time>2026-04-30T15:07:24.98Z</time></trkpt><trkpt lat="42.5322354" lon="12.0466502"><ele>492.0</ele><time>2026-04-30T15:07:25.979Z</time></trkpt><trkpt lat="42.5322712" lon="12.0464829"><ele>493.25</ele><time>2026-04-30T15:07:26.979Z</time></trkpt><trkpt lat="42.5323024" lon="12.046307"><ele>494.5</ele><time>2026-04-30T15:07:27.979Z</time></trkpt><trkpt lat="42.5323365" lon="12.0461364"><ele>495.75</ele><time>2026-04-30T15:07:28.979Z</time></trkpt><trkpt lat="42.5323667" lon="12.0459646"><ele>497.0</ele><time>2026-04-30T15:07:29.979Z</time></trkpt><trkpt lat="42.5324078" lon="12.0457912"><ele>498.0</ele><time>2026-04-30T15:07:30.979Z</time></trkpt><trkpt lat="42.5324526" lon="12.0456172"><ele>499.0</ele><time>2026-04-30T15:07:31.98Z</time></trkpt><trkpt lat="42.5324966" lon="12.0454383"><ele>500.0</ele><time>2026-04-30T15:07:32.979Z</time></trkpt><trkpt lat="42.5325318" lon="12.04525"><ele>501.0</ele><time>2026-04-30T15:07:33.979Z</time></trkpt><trkpt lat="42.5325696" lon="12.045064"><ele>501.25</ele><time>2026-04-30T15:07:34.979Z</time></trkpt><trkpt lat="42.5326099" lon="12.0448873"><ele>501.5</ele><time>2026-04-30T15:07:35.979Z</time></trkpt><trkpt lat="42.5326545" lon="12.0447124"><ele>501.75</ele><time>2026-04-30T15:07:36.979Z</time></trkpt><trkpt lat="42.5327071" lon="12.0445509"><ele>502.0</ele><time>2026-04-30T15:07:37.98Z</time></trkpt><trkpt lat="42.532778" lon="12.0444022"><ele>502.0</ele><time>2026-04-30T15:07:38.979Z</time></trkpt><trkpt lat="42.5328559" lon="12.0442532"><ele>502.0</ele><time>2026-04-30T15:07:39.98Z</time></trkpt><trkpt lat="42.5329372" lon="12.0441044"><ele>502.0</ele><time>2026-04-30T15:07:40.98Z</time></trkpt><trkpt lat="42.5330323" lon="12.0439577"><ele>502.0</ele><time>2026-04-30T15:07:41.979Z</time></trkpt><trkpt lat="42.5331259" lon="12.0438053"><ele>503.75</ele><time>2026-04-30T15:07:42.98Z</time></trkpt><trkpt lat="42.5332162" lon="12.043656"><ele>505.5</ele><time>2026-04-30T15:07:43.979Z</time></trkpt><trkpt lat="42.5333113" lon="12.0435072"><ele>507.25</ele><time>2026-04-30T15:07:44.979Z</time></trkpt><trkpt lat="42.5334029" lon="12.04336"><ele>509.0</ele><time>2026-04-30T15:07:45.979Z</time></trkpt><trkpt lat="42.5334894" lon="12.0432082"><ele>509.0</ele><time>2026-04-30T15:07:46.979Z</time></trkpt><trkpt lat="42.5335729" lon="12.0430574"><ele>509.0</ele><time>2026-04-30T15:07:47.979Z</time></trkpt><trkpt lat="42.5336557" lon="12.0429025"><ele>509.0</ele><time>2026-04-30T15:07:48.98Z</time></trkpt><trkpt lat="42.5337335" lon="12.0427547"><ele>509.0</ele><time>2026-04-30T15:07:49.979Z</time></trkpt><trkpt lat="42.5338163" lon="12.0426066"><ele>511.5</ele><time>2026-04-30T15:07:50.979Z</time></trkpt><trkpt lat="42.5338996" lon="12.0424572"><ele>514.0</ele><time>2026-04-30T15:07:51.979Z</time></trkpt><trkpt lat="42.5339768" lon="12.0423074"><ele>516.5</ele><time>2026-04-30T15:07:52.979Z</time></trkpt><trkpt lat="42.5340542" lon="12.0421436"><ele>519.0</ele><time>2026-04-30T15:07:53.979Z</time></trkpt><trkpt lat="42.5341328" lon="12.0419832"><ele>519.0</ele><time>2026-04-30T15:07:54.979Z</time></trkpt><trkpt lat="42.5342047" lon="12.0418233"><ele>519.0</ele><time>2026-04-30T15:07:55.979Z</time></trkpt><trkpt lat="42.5342773" lon="12.0416686"><ele>519.0</ele><time>2026-04-30T15:07:56.98Z</time></trkpt><trkpt lat="42.5343504" lon="12.0415073"><ele>519.0</ele><time>2026-04-30T15:07:57.979Z</time></trkpt><trkpt lat="42.5344303" lon="12.0413471"><ele>520.0</ele><time>2026-04-30T15:07:58.98Z</time></trkpt><trkpt lat="42.5345186" lon="12.0411882"><ele>521.0</ele><time>2026-04-30T15:07:59.979Z</time></trkpt><trkpt lat="42.5346131" lon="12.0410427"><ele>522.0</ele><time>2026-04-30T15:08:00.98Z</time></trkpt><trkpt lat="42.5347091" lon="12.0408942"><ele>523.0</ele><time>2026-04-30T15:08:01.979Z</time></trkpt><trkpt lat="42.534809" lon="12.0407347"><ele>525.3333333333334</ele><time>2026-04-30T15:08:02.979Z</time></trkpt><trkpt lat="42.5349075" lon="12.0405746"><ele>527.6666666666666</ele><time>2026-04-30T15:08:03.979Z</time></trkpt><trkpt lat="42.5350116" lon="12.0404162"><ele>530.0</ele><time>2026-04-30T15:08:04.979Z</time></trkpt><trkpt lat="42.535115" lon="12.0402683"><ele>530.0</ele><time>2026-04-30T15:08:05.979Z</time></trkpt><trkpt lat="42.5352234" lon="12.0401194"><ele>530.0</ele><time>2026-04-30T15:08:06.979Z</time></trkpt><trkpt lat="42.5353307" lon="12.0399753"><ele>530.0</ele><time>2026-04-30T15:08:07.98Z</time></trkpt><trkpt lat="42.5354381" lon="12.0398328"><ele>532.0</ele><time>2026-04-30T15:08:08.979Z</time></trkpt><trkpt lat="42.535544" lon="12.03969"><ele>534.0</ele><time>2026-04-30T15:08:09.979Z</time></trkpt><trkpt lat="42.5356547" lon="12.0395504"><ele>536.0</ele><time>2026-04-30T15:08:10.979Z</time></trkpt><trkpt lat="42.5357704" lon="12.0394103"><ele>536.0</ele><time>2026-04-30T15:08:11.98Z</time></trkpt><trkpt lat="42.5358886" lon="12.0392666"><ele>536.0</ele><time>2026-04-30T15:08:12.979Z</time></trkpt><trkpt lat="42.5360056" lon="12.0391276"><ele>536.0</ele><time>2026-04-30T15:08:13.979Z</time></trkpt><trkpt lat="42.5361148" lon="12.0389921"><ele>537.0</ele><time>2026-04-30T15:08:14.98Z</time></trkpt><trkpt lat="42.5362143" lon="12.0388719"><ele>538.0</ele><time>2026-04-30T15:08:15.98Z</time></trkpt><trkpt lat="42.5363077" lon="12.0387637"><ele>539.0</ele><time>2026-04-30T15:08:16.979Z</time></trkpt><trkpt lat="42.5363962" lon="12.0386652"><ele>540.0</ele><time>2026-04-30T15:08:17.98Z</time></trkpt><trkpt lat="42.5364735" lon="12.0385631"><ele>540.0</ele><time>2026-04-30T15:08:18.979Z</time></trkpt><trkpt lat="42.5365542" lon="12.0384538"><ele>540.0</ele><time>2026-04-30T15:08:19.98Z</time></trkpt><trkpt lat="42.5366343" lon="12.0383357"><ele>540.0</ele><time>2026-04-30T15:08:20.98Z</time></trkpt><trkpt lat="42.5367181" lon="12.0382113"><ele>540.0</ele><time>2026-04-30T15:08:21.98Z</time></trkpt><trkpt lat="42.5367952" lon="12.0380911"><ele>539.8</ele><time>2026-04-30T15:08:22.979Z</time></trkpt><trkpt lat="42.5368738" lon="12.0379847"><ele>539.6</ele><time>2026-04-30T15:08:23.979Z</time></trkpt><trkpt lat="42.5369539" lon="12.0378857"><ele>539.4</ele><time>2026-04-30T15:08:24.979Z</time></trkpt><trkpt lat="42.5370323" lon="12.0377856"><ele>539.2</ele><time>2026-04-30T15:08:25.979Z</time></trkpt><trkpt lat="42.5371042" lon="12.0376898"><ele>539.0</ele><time>2026-04-30T15:08:26.979Z</time></trkpt><trkpt lat="42.5371741" lon="12.0375964"><ele>539.6</ele><time>2026-04-30T15:08:27.979Z</time></trkpt><trkpt lat="42.5372448" lon="12.037497"><ele>540.2</ele><time>2026-04-30T15:08:28.979Z</time></trkpt><trkpt lat="42.5373155" lon="12.0374059"><ele>540.8000000000001</ele><time>2026-04-30T15:08:29.979Z</time></trkpt><trkpt lat="42.5373829" lon="12.0373216"><ele>541.4</ele><time>2026-04-30T15:08:30.98Z</time></trkpt><trkpt lat="42.5374483" lon="12.0372365"><ele>542.0</ele><time>2026-04-30T15:08:31.979Z</time></trkpt><trkpt lat="42.537511" lon="12.037134"><ele>542.4</ele><time>2026-04-30T15:08:32.979Z</time></trkpt><trkpt lat="42.5375765" lon="12.0370311"><ele>542.8000000000001</ele><time>2026-04-30T15:08:33.979Z</time></trkpt><trkpt lat="42.5376451" lon="12.0369336"><ele>543.2</ele><time>2026-04-30T15:08:34.98Z</time></trkpt><trkpt lat="42.5377159" lon="12.0368423"><ele>543.6</ele><time>2026-04-30T15:08:35.98Z</time></trkpt><trkpt lat="42.5377811" lon="12.036754"><ele>544.0</ele><time>2026-04-30T15:08:36.98Z</time></trkpt><trkpt lat="42.5378472" lon="12.0366717"><ele>544.5</ele><time>2026-04-30T15:08:37.979Z</time></trkpt><trkpt lat="42.5379123" lon="12.0365915"><ele>545.0</ele><time>2026-04-30T15:08:38.98Z</time></trkpt><trkpt lat="42.5379748" lon="12.0365117"><ele>545.5</ele><time>2026-04-30T15:08:39.979Z</time></trkpt><trkpt lat="42.5380388" lon="12.0364345"><ele>546.0</ele><time>2026-04-30T15:08:40.979Z</time></trkpt><trkpt lat="42.5380978" lon="12.0363577"><ele>546.5</ele><time>2026-04-30T15:08:41.979Z</time></trkpt><trkpt lat="42.5381475" lon="12.036293"><ele>547.0</ele><time>2026-04-30T15:08:42.979Z</time></trkpt><trkpt lat="42.5382339" lon="12.0361807"><ele>547.0</ele><time>2026-04-30T15:08:44.979Z</time></trkpt><trkpt lat="42.5382795" lon="12.0361211"><ele>547.0</ele><time>2026-04-30T15:08:45.98Z</time></trkpt><trkpt lat="42.5383524" lon="12.0359966"><ele>547.0</ele><time>2026-04-30T15:08:47.979Z</time></trkpt><trkpt lat="42.5384312" lon="12.0358741"><ele>547.0</ele><time>2026-04-30T15:08:49.979Z</time></trkpt><trkpt lat="42.5385229" lon="12.035767"><ele>547.0</ele><time>2026-04-30T15:08:51.98Z</time></trkpt><trkpt lat="42.538607" lon="12.0356511"><ele>547.8000000000001</ele><time>2026-04-30T15:08:53.979Z</time></trkpt><trkpt lat="42.5386973" lon="12.0355348"><ele>548.6</ele><time>2026-04-30T15:08:55.979Z</time></trkpt><trkpt lat="42.5387541" lon="12.0354837"><ele>549.4000000000001</ele><time>2026-04-30T15:08:56.979Z</time></trkpt><trkpt lat="42.5388098" lon="12.0354411"><ele>550.2</ele><time>2026-04-30T15:08:57.979Z</time></trkpt><trkpt lat="42.5388718" lon="12.0354182"><ele>551.0</ele><time>2026-04-30T15:08:58.98Z</time></trkpt><trkpt lat="42.539004" lon="12.0354336"><ele>552.1666666666666</ele><time>2026-04-30T15:09:00.979Z</time></trkpt><trkpt lat="42.5390878" lon="12.0354674"><ele>553.3333333333333</ele><time>2026-04-30T15:09:01.979Z</time></trkpt><trkpt lat="42.5391781" lon="12.0355155"><ele>554.5</ele><time>2026-04-30T15:09:02.979Z</time></trkpt><trkpt lat="42.5392539" lon="12.0355518"><ele>555.6666666666666</ele><time>2026-04-30T15:09:03.979Z</time></trkpt><trkpt lat="42.5393228" lon="12.0355827"><ele>556.8333333333334</ele><time>2026-04-30T15:09:04.98Z</time></trkpt><trkpt lat="42.5393932" lon="12.0356093"><ele>558.0</ele><time>2026-04-30T15:09:05.98Z</time></trkpt><trkpt lat="42.5394543" lon="12.0356335"><ele>558.6</ele><time>2026-04-30T15:09:06.979Z</time></trkpt><trkpt lat="42.5395678" lon="12.0356609"><ele>559.1999999999999</ele><time>2026-04-30T15:09:08.98Z</time></trkpt><trkpt lat="42.5396685" lon="12.035692"><ele>559.8</ele><time>2026-04-30T15:09:10.98Z</time></trkpt><trkpt lat="42.5397536" lon="12.0357288"><ele>560.4</ele><time>2026-04-30T15:09:12.979Z</time></trkpt><trkpt lat="42.5398422" lon="12.0357438"><ele>561.0</ele><time>2026-04-30T15:09:14.979Z</time></trkpt><trkpt lat="42.5399253" lon="12.0357555"><ele>561.0</ele><time>2026-04-30T15:09:16.979Z</time></trkpt><trkpt lat="42.5400232" lon="12.0357729"><ele>561.0</ele><time>2026-04-30T15:09:18.979Z</time></trkpt><trkpt lat="42.5401166" lon="12.0357933"><ele>561.0</ele><time>2026-04-30T15:09:20.979Z</time></trkpt><trkpt lat="42.5401969" lon="12.0358348"><ele>561.0</ele><time>2026-04-30T15:09:22.98Z</time></trkpt><trkpt lat="42.5402777" lon="12.0358661"><ele>561.0</ele><time>2026-04-30T15:09:24.979Z</time></trkpt><trkpt lat="42.540346" lon="12.0358802"><ele>561.0</ele><time>2026-04-30T15:09:26.979Z</time></trkpt><trkpt lat="42.5404255" lon="12.035889"><ele>559.8333333333334</ele><time>2026-04-30T15:09:28.979Z</time></trkpt><trkpt lat="42.5405082" lon="12.0359032"><ele>558.6666666666666</ele><time>2026-04-30T15:09:31.98Z</time></trkpt><trkpt lat="42.5405785" lon="12.0359022"><ele>557.5</ele><time>2026-04-30T15:09:33.979Z</time></trkpt><trkpt lat="42.540659" lon="12.0358976"><ele>556.3333333333333</ele><time>2026-04-30T15:09:35.979Z</time></trkpt><trkpt lat="42.5407301" lon="12.0358985"><ele>555.1666666666666</ele><time>2026-04-30T15:09:37.979Z</time></trkpt><trkpt lat="42.5408112" lon="12.0359118"><ele>554.0</ele><time>2026-04-30T15:09:39.979Z</time></trkpt><trkpt lat="42.5408966" lon="12.0359008"><ele>554.0</ele><time>2026-04-30T15:09:41.98Z</time></trkpt><trkpt lat="42.5409601" lon="12.0358857"><ele>554.0</ele><time>2026-04-30T15:09:43.979Z</time></trkpt><trkpt lat="42.5410343" lon="12.0358918"><ele>554.0</ele><time>2026-04-30T15:09:45.98Z</time></trkpt><trkpt lat="42.5411371" lon="12.0359185"><ele>554.0</ele><time>2026-04-30T15:09:47.98Z</time></trkpt><trkpt lat="42.5412482" lon="12.0359566"><ele>554.0</ele><time>2026-04-30T15:09:49.979Z</time></trkpt><trkpt lat="42.5413458" lon="12.0359853"><ele>551.6</ele><time>2026-04-30T15:09:51.979Z</time></trkpt><trkpt lat="42.5414298" lon="12.0360136"><ele>549.2</ele><time>2026-04-30T15:09:53.98Z</time></trkpt><trkpt lat="42.5415148" lon="12.0360448"><ele>546.8000000000001</ele><time>2026-04-30T15:09:55.979Z</time></trkpt><trkpt lat="42.541615" lon="12.0360857"><ele>544.4</ele><time>2026-04-30T15:09:57.98Z</time></trkpt><trkpt lat="42.541741" lon="12.0361296"><ele>542.0</ele><time>2026-04-30T15:09:59.979Z</time></trkpt><trkpt lat="42.5418117" lon="12.0361556"><ele>542.0</ele><time>2026-04-30T15:10:00.98Z</time></trkpt><trkpt lat="42.5418921" lon="12.0361906"><ele>542.0</ele><time>2026-04-30T15:10:01.98Z</time></trkpt><trkpt lat="42.5419747" lon="12.0362272"><ele>542.0</ele><time>2026-04-30T15:10:02.979Z</time></trkpt><trkpt lat="42.5420539" lon="12.0362706"><ele>542.0</ele><time>2026-04-30T15:10:03.979Z</time></trkpt><trkpt lat="42.5421314" lon="12.0363247"><ele>542.0</ele><time>2026-04-30T15:10:04.979Z</time></trkpt><trkpt lat="42.5422052" lon="12.0363772"><ele>542.0</ele><time>2026-04-30T15:10:05.979Z</time></trkpt><trkpt lat="42.5422756" lon="12.0364238"><ele>541.1666666666666</ele><time>2026-04-30T15:10:06.979Z</time></trkpt><trkpt lat="42.5423426" lon="12.0364676"><ele>540.3333333333333</ele><time>2026-04-30T15:10:07.979Z</time></trkpt><trkpt lat="42.5424052" lon="12.0365137"><ele>539.5</ele><time>2026-04-30T15:10:08.979Z</time></trkpt><trkpt lat="42.5424653" lon="12.0365585"><ele>538.6666666666666</ele><time>2026-04-30T15:10:09.979Z</time></trkpt><trkpt lat="42.5425237" lon="12.0365971"><ele>537.8333333333334</ele><time>2026-04-30T15:10:10.98Z</time></trkpt><trkpt lat="42.5425797" lon="12.0366371"><ele>537.0</ele><time>2026-04-30T15:10:11.979Z</time></trkpt><trkpt lat="42.5426828" lon="12.0367366"><ele>537.0</ele><time>2026-04-30T15:10:13.979Z</time></trkpt><trkpt lat="42.542731" lon="12.0368067"><ele>537.0</ele><time>2026-04-30T15:10:14.98Z</time></trkpt><trkpt lat="42.5427811" lon="12.036882"><ele>537.0</ele><time>2026-04-30T15:10:15.979Z</time></trkpt><trkpt lat="42.5428305" lon="12.036954"><ele>537.0</ele><time>2026-04-30T15:10:16.979Z</time></trkpt><trkpt lat="42.5428762" lon="12.0370391"><ele>537.0</ele><time>2026-04-30T15:10:17.979Z</time></trkpt><trkpt lat="42.54291" lon="12.0371314"><ele>537.0</ele><time>2026-04-30T15:10:18.98Z</time></trkpt><trkpt lat="42.5429557" lon="12.0372408"><ele>537.0</ele><time>2026-04-30T15:10:19.979Z</time></trkpt><trkpt lat="42.5430062" lon="12.0373562"><ele>537.0</ele><time>2026-04-30T15:10:20.979Z</time></trkpt><trkpt lat="42.5430561" lon="12.0374761"><ele>537.0</ele><time>2026-04-30T15:10:21.979Z</time></trkpt><trkpt lat="42.5430962" lon="12.0375934"><ele>537.0</ele><time>2026-04-30T15:10:22.979Z</time></trkpt><trkpt lat="42.5431478" lon="12.0376985"><ele>537.0</ele><time>2026-04-30T15:10:23.979Z</time></trkpt><trkpt lat="42.5432039" lon="12.0377841"><ele>536.4</ele><time>2026-04-30T15:10:24.979Z</time></trkpt><trkpt lat="42.5432815" lon="12.0378692"><ele>535.8000000000001</ele><time>2026-04-30T15:10:25.979Z</time></trkpt><trkpt lat="42.5433724" lon="12.0379442"><ele>535.2</ele><time>2026-04-30T15:10:26.979Z</time></trkpt><trkpt lat="42.5434701" lon="12.0380031"><ele>534.6</ele><time>2026-04-30T15:10:27.979Z</time></trkpt><trkpt lat="42.5435676" lon="12.0380393"><ele>534.0</ele><time>2026-04-30T15:10:28.979Z</time></trkpt><trkpt lat="42.5436575" lon="12.0380566"><ele>533.8333333333334</ele><time>2026-04-30T15:10:29.98Z</time></trkpt><trkpt lat="42.5437403" lon="12.0380611"><ele>533.6666666666666</ele><time>2026-04-30T15:10:30.979Z</time></trkpt><trkpt lat="42.5438236" lon="12.0380675"><ele>533.5</ele><time>2026-04-30T15:10:31.98Z</time></trkpt><trkpt lat="42.5439028" lon="12.0380898"><ele>533.3333333333333</ele><time>2026-04-30T15:10:32.979Z</time></trkpt><trkpt lat="42.5439839" lon="12.0381025"><ele>533.1666666666666</ele><time>2026-04-30T15:10:33.98Z</time></trkpt><trkpt lat="42.5440701" lon="12.0380806"><ele>533.0</ele><time>2026-04-30T15:10:34.979Z</time></trkpt><trkpt lat="42.5441508" lon="12.0380339"><ele>533.0</ele><time>2026-04-30T15:10:35.979Z</time></trkpt><trkpt lat="42.544219" lon="12.0379596"><ele>533.0</ele><time>2026-04-30T15:10:36.979Z</time></trkpt><trkpt lat="42.544262" lon="12.0378625"><ele>533.0</ele><time>2026-04-30T15:10:37.979Z</time></trkpt><trkpt lat="42.5442916" lon="12.037754"><ele>533.0</ele><time>2026-04-30T15:10:38.979Z</time></trkpt><trkpt lat="42.5443208" lon="12.0376336"><ele>533.0</ele><time>2026-04-30T15:10:39.979Z</time></trkpt><trkpt lat="42.5443517" lon="12.0375162"><ele>533.0</ele><time>2026-04-30T15:10:40.98Z</time></trkpt><trkpt lat="42.5443853" lon="12.0374031"><ele>533.3333333333333</ele><time>2026-04-30T15:10:41.979Z</time></trkpt><trkpt lat="42.5444198" lon="12.0372986"><ele>533.6666666666666</ele><time>2026-04-30T15:10:42.979Z</time></trkpt><trkpt lat="42.5444544" lon="12.037199"><ele>534.0</ele><time>2026-04-30T15:10:43.98Z</time></trkpt><trkpt lat="42.5444872" lon="12.0370929"><ele>534.3333333333334</ele><time>2026-04-30T15:10:44.979Z</time></trkpt><trkpt lat="42.544526" lon="12.0369759"><ele>534.6666666666667</ele><time>2026-04-30T15:10:45.98Z</time></trkpt><trkpt lat="42.5445635" lon="12.0368546"><ele>535.0</ele><time>2026-04-30T15:10:46.979Z</time></trkpt><trkpt lat="42.5445984" lon="12.0367327"><ele>536.8</ele><time>2026-04-30T15:10:47.98Z</time></trkpt><trkpt lat="42.544627" lon="12.0366194"><ele>538.6</ele><time>2026-04-30T15:10:48.979Z</time></trkpt><trkpt lat="42.5446534" lon="12.0365084"><ele>540.4</ele><time>2026-04-30T15:10:49.98Z</time></trkpt><trkpt lat="42.5446811" lon="12.0363861"><ele>542.2</ele><time>2026-04-30T15:10:50.979Z</time></trkpt><trkpt lat="42.5447057" lon="12.0362628"><ele>544.0</ele><time>2026-04-30T15:10:51.98Z</time></trkpt><trkpt lat="42.544726" lon="12.0361266"><ele>544.0</ele><time>2026-04-30T15:10:52.979Z</time></trkpt><trkpt lat="42.5447451" lon="12.0359831"><ele>544.0</ele><time>2026-04-30T15:10:53.98Z</time></trkpt><trkpt lat="42.5447552" lon="12.0358453"><ele>544.0</ele><time>2026-04-30T15:10:54.979Z</time></trkpt><trkpt lat="42.5447634" lon="12.0357157"><ele>544.0</ele><time>2026-04-30T15:10:55.979Z</time></trkpt><trkpt lat="42.5447715" lon="12.0356012"><ele>544.0</ele><time>2026-04-30T15:10:56.979Z</time></trkpt><trkpt lat="42.5447793" lon="12.035496"><ele>544.6</ele><time>2026-04-30T15:10:57.979Z</time></trkpt><trkpt lat="42.5447915" lon="12.0354021"><ele>545.2</ele><time>2026-04-30T15:10:58.979Z</time></trkpt><trkpt lat="42.5448189" lon="12.035249"><ele>545.8000000000001</ele><time>2026-04-30T15:11:00.98Z</time></trkpt><trkpt lat="42.5448955" lon="12.0351293"><ele>546.4</ele><time>2026-04-30T15:11:02.98Z</time></trkpt><trkpt lat="42.5449647" lon="12.035087"><ele>547.0</ele><time>2026-04-30T15:11:03.98Z</time></trkpt><trkpt lat="42.5450544" lon="12.035049"><ele>547.0</ele><time>2026-04-30T15:11:04.979Z</time></trkpt><trkpt lat="42.5451662" lon="12.0350129"><ele>547.0</ele><time>2026-04-30T15:11:05.979Z</time></trkpt><trkpt lat="42.5452827" lon="12.0349672"><ele>547.0</ele><time>2026-04-30T15:11:06.98Z</time></trkpt><trkpt lat="42.5454113" lon="12.0349174"><ele>547.0</ele><time>2026-04-30T15:11:07.979Z</time></trkpt><trkpt lat="42.5455474" lon="12.0348659"><ele>550.6666666666667</ele><time>2026-04-30T15:11:08.979Z</time></trkpt><trkpt lat="42.5456971" lon="12.0348161"><ele>554.3333333333334</ele><time>2026-04-30T15:11:09.98Z</time></trkpt><trkpt lat="42.5458496" lon="12.0347651"><ele>558.0</ele><time>2026-04-30T15:11:10.979Z</time></trkpt><trkpt lat="42.546001" lon="12.0347162"><ele>558.0</ele><time>2026-04-30T15:11:11.979Z</time></trkpt><trkpt lat="42.5461432" lon="12.0346543"><ele>558.0</ele><time>2026-04-30T15:11:12.979Z</time></trkpt><trkpt lat="42.5462922" lon="12.0345814"><ele>558.0</ele><time>2026-04-30T15:11:13.979Z</time></trkpt><trkpt lat="42.5464342" lon="12.0345086"><ele>557.0</ele><time>2026-04-30T15:11:14.979Z</time></trkpt><trkpt lat="42.5465626" lon="12.0344438"><ele>556.0</ele><time>2026-04-30T15:11:15.979Z</time></trkpt><trkpt lat="42.5466787" lon="12.0343825"><ele>555.0</ele><time>2026-04-30T15:11:16.979Z</time></trkpt><trkpt lat="42.54678" lon="12.0343182"><ele>554.0</ele><time>2026-04-30T15:11:17.98Z</time></trkpt><trkpt lat="42.5468711" lon="12.0342524"><ele>554.0</ele><time>2026-04-30T15:11:18.979Z</time></trkpt><trkpt lat="42.546954" lon="12.0341876"><ele>554.0</ele><time>2026-04-30T15:11:19.979Z</time></trkpt><trkpt lat="42.5470369" lon="12.0341315"><ele>554.0</ele><time>2026-04-30T15:11:20.98Z</time></trkpt><trkpt lat="42.5471128" lon="12.0340837"><ele>554.0</ele><time>2026-04-30T15:11:21.979Z</time></trkpt><trkpt lat="42.547175" lon="12.0340438"><ele>554.0</ele><time>2026-04-30T15:11:22.979Z</time></trkpt><trkpt lat="42.5472752" lon="12.0339695"><ele>554.6</ele><time>2026-04-30T15:11:24.979Z</time></trkpt><trkpt lat="42.5473608" lon="12.0338978"><ele>555.2</ele><time>2026-04-30T15:11:26.979Z</time></trkpt><trkpt lat="42.5474315" lon="12.0338319"><ele>555.8000000000001</ele><time>2026-04-30T15:11:28.98Z</time></trkpt><trkpt lat="42.5475108" lon="12.0337677"><ele>556.4</ele><time>2026-04-30T15:11:30.979Z</time></trkpt><trkpt lat="42.5475862" lon="12.0337194"><ele>557.0</ele><time>2026-04-30T15:11:32.979Z</time></trkpt><trkpt lat="42.547673" lon="12.0336498"><ele>557.0</ele><time>2026-04-30T15:11:34.979Z</time></trkpt><trkpt lat="42.547767" lon="12.0335916"><ele>557.0</ele><time>2026-04-30T15:11:36.979Z</time></trkpt><trkpt lat="42.5478263" lon="12.0335389"><ele>557.0</ele><time>2026-04-30T15:11:38.98Z</time></trkpt><trkpt lat="42.5478969" lon="12.0334795"><ele>557.0</ele><time>2026-04-30T15:11:41.98Z</time></trkpt><trkpt lat="42.5479553" lon="12.0334319"><ele>557.0</ele><time>2026-04-30T15:11:42.98Z</time></trkpt><trkpt lat="42.5480435" lon="12.0333268"><ele>557.0</ele><time>2026-04-30T15:11:43.979Z</time></trkpt><trkpt lat="42.5481454" lon="12.0331876"><ele>556.6666666666666</ele><time>2026-04-30T15:11:44.98Z</time></trkpt><trkpt lat="42.5482591" lon="12.0330262"><ele>556.3333333333334</ele><time>2026-04-30T15:11:45.979Z</time></trkpt><trkpt lat="42.5483877" lon="12.0328236"><ele>556.0</ele><time>2026-04-30T15:11:46.98Z</time></trkpt><trkpt lat="42.5485174" lon="12.0325857"><ele>555.3333333333334</ele><time>2026-04-30T15:11:47.979Z</time></trkpt><trkpt lat="42.5486466" lon="12.0323549"><ele>554.6666666666666</ele><time>2026-04-30T15:11:48.979Z</time></trkpt><trkpt lat="42.5487605" lon="12.0321291"><ele>554.0</ele><time>2026-04-30T15:11:49.979Z</time></trkpt><trkpt lat="42.5488535" lon="12.0319095"><ele>552.3333333333333</ele><time>2026-04-30T15:11:50.979Z</time></trkpt><trkpt lat="42.548934" lon="12.0316783"><ele>550.6666666666666</ele><time>2026-04-30T15:11:51.979Z</time></trkpt><trkpt lat="42.5489983" lon="12.031449"><ele>549.0</ele><time>2026-04-30T15:11:52.979Z</time></trkpt><trkpt lat="42.5490475" lon="12.0312223"><ele>546.0</ele><time>2026-04-30T15:11:53.979Z</time></trkpt><trkpt lat="42.5490682" lon="12.0310016"><ele>543.0</ele><time>2026-04-30T15:11:54.979Z</time></trkpt><trkpt lat="42.5490655" lon="12.0308067"><ele>540.0</ele><time>2026-04-30T15:11:55.98Z</time></trkpt><trkpt lat="42.5490451" lon="12.03063"><ele>537.0</ele><time>2026-04-30T15:11:56.979Z</time></trkpt><trkpt lat="42.5490189" lon="12.0304746"><ele>536.2</ele><time>2026-04-30T15:11:57.98Z</time></trkpt><trkpt lat="42.5490022" lon="12.0303142"><ele>535.4000000000001</ele><time>2026-04-30T15:11:58.98Z</time></trkpt><trkpt lat="42.5489911" lon="12.0301629"><ele>534.5999999999999</ele><time>2026-04-30T15:11:59.979Z</time></trkpt><trkpt lat="42.5489845" lon="12.03002"><ele>533.8</ele><time>2026-04-30T15:12:00.979Z</time></trkpt><trkpt lat="42.548993" lon="12.0298943"><ele>533.0</ele><time>2026-04-30T15:12:01.979Z</time></trkpt><trkpt lat="42.5490178" lon="12.0297771"><ele>532.6</ele><time>2026-04-30T15:12:02.979Z</time></trkpt><trkpt lat="42.5490687" lon="12.0296881"><ele>532.1999999999999</ele><time>2026-04-30T15:12:03.979Z</time></trkpt><trkpt lat="42.5491495" lon="12.0296179"><ele>531.8</ele><time>2026-04-30T15:12:04.98Z</time></trkpt><trkpt lat="42.5492505" lon="12.0295349"><ele>531.4</ele><time>2026-04-30T15:12:05.979Z</time></trkpt><trkpt lat="42.5493651" lon="12.0294342"><ele>531.0</ele><time>2026-04-30T15:12:06.979Z</time></trkpt><trkpt lat="42.5494888" lon="12.0293136"><ele>531.0</ele><time>2026-04-30T15:12:07.979Z</time></trkpt><trkpt lat="42.5496337" lon="12.0291854"><ele>531.0</ele><time>2026-04-30T15:12:08.979Z</time></trkpt><trkpt lat="42.5497985" lon="12.0290571"><ele>531.0</ele><time>2026-04-30T15:12:09.979Z</time></trkpt><trkpt lat="42.5499693" lon="12.028925"><ele>531.0</ele><time>2026-04-30T15:12:10.979Z</time></trkpt><trkpt lat="42.5501426" lon="12.0288011"><ele>531.0</ele><time>2026-04-30T15:12:11.979Z</time></trkpt><trkpt lat="42.5502991" lon="12.0286863"><ele>531.0</ele><time>2026-04-30T15:12:12.98Z</time></trkpt><trkpt lat="42.5504501" lon="12.0285837"><ele>531.0</ele><time>2026-04-30T15:12:13.979Z</time></trkpt><trkpt lat="42.5505848" lon="12.0284793"><ele>531.0</ele><time>2026-04-30T15:12:14.979Z</time></trkpt><trkpt lat="42.5507009" lon="12.0283516"><ele>531.0</ele><time>2026-04-30T15:12:15.979Z</time></trkpt><trkpt lat="42.5507717" lon="12.0282098"><ele>531.0</ele><time>2026-04-30T15:12:16.979Z</time></trkpt><trkpt lat="42.5507827" lon="12.0280678"><ele>531.75</ele><time>2026-04-30T15:12:17.979Z</time></trkpt><trkpt lat="42.5507493" lon="12.0279238"><ele>532.5</ele><time>2026-04-30T15:12:18.979Z</time></trkpt><trkpt lat="42.5506878" lon="12.027781"><ele>533.25</ele><time>2026-04-30T15:12:19.979Z</time></trkpt><trkpt lat="42.5506098" lon="12.0276232"><ele>534.0</ele><time>2026-04-30T15:12:20.98Z</time></trkpt><trkpt lat="42.5505339" lon="12.0274469"><ele>534.6666666666666</ele><time>2026-04-30T15:12:21.98Z</time></trkpt><trkpt lat="42.550463" lon="12.0272518"><ele>535.3333333333333</ele><time>2026-04-30T15:12:22.979Z</time></trkpt><trkpt lat="42.5504109" lon="12.0270394"><ele>536.0</ele><time>2026-04-30T15:12:23.979Z</time></trkpt><trkpt lat="42.5503849" lon="12.0268068"><ele>537.0</ele><time>2026-04-30T15:12:24.979Z</time></trkpt><trkpt lat="42.550385" lon="12.0265555"><ele>538.0</ele><time>2026-04-30T15:12:25.98Z</time></trkpt><trkpt lat="42.5503947" lon="12.0262906"><ele>539.0</ele><time>2026-04-30T15:12:26.979Z</time></trkpt><trkpt lat="42.5504107" lon="12.0260216"><ele>537.3333333333333</ele><time>2026-04-30T15:12:27.979Z</time></trkpt><trkpt lat="42.5504214" lon="12.0257607"><ele>535.6666666666666</ele><time>2026-04-30T15:12:28.979Z</time></trkpt><trkpt lat="42.5504305" lon="12.0255308"><ele>534.0</ele><time>2026-04-30T15:12:29.979Z</time></trkpt><trkpt lat="42.5504501" lon="12.0253313"><ele>534.0</ele><time>2026-04-30T15:12:30.979Z</time></trkpt><trkpt lat="42.5504914" lon="12.0251539"><ele>534.0</ele><time>2026-04-30T15:12:31.98Z</time></trkpt><trkpt lat="42.5505645" lon="12.0250136"><ele>534.0</ele><time>2026-04-30T15:12:32.98Z</time></trkpt><trkpt lat="42.5506652" lon="12.0249039"><ele>534.0</ele><time>2026-04-30T15:12:33.979Z</time></trkpt><trkpt lat="42.5507778" lon="12.0248058"><ele>533.5</ele><time>2026-04-30T15:12:34.979Z</time></trkpt><trkpt lat="42.5508966" lon="12.0247091"><ele>533.0</ele><time>2026-04-30T15:12:35.979Z</time></trkpt><trkpt lat="42.5510176" lon="12.0246187"><ele>532.5</ele><time>2026-04-30T15:12:36.98Z</time></trkpt><trkpt lat="42.5511324" lon="12.0245171"><ele>532.0</ele><time>2026-04-30T15:12:37.979Z</time></trkpt><trkpt lat="42.5512409" lon="12.0244035"><ele>532.0</ele><time>2026-04-30T15:12:38.979Z</time></trkpt><trkpt lat="42.5513418" lon="12.0242817"><ele>532.0</ele><time>2026-04-30T15:12:39.979Z</time></trkpt><trkpt lat="42.5514338" lon="12.0241469"><ele>532.0</ele><time>2026-04-30T15:12:40.979Z</time></trkpt><trkpt lat="42.5515164" lon="12.0240097"><ele>532.0</ele><time>2026-04-30T15:12:41.979Z</time></trkpt><trkpt lat="42.5515894" lon="12.0238823"><ele>531.5</ele><time>2026-04-30T15:12:42.979Z</time></trkpt><trkpt lat="42.5516622" lon="12.023754"><ele>531.0</ele><time>2026-04-30T15:12:43.979Z</time></trkpt><trkpt lat="42.551735" lon="12.023615"><ele>530.5</ele><time>2026-04-30T15:12:44.98Z</time></trkpt><trkpt lat="42.5518015" lon="12.023484"><ele>530.0</ele><time>2026-04-30T15:12:45.979Z</time></trkpt><trkpt lat="42.551866" lon="12.0233655"><ele>529.25</ele><time>2026-04-30T15:12:46.979Z</time></trkpt><trkpt lat="42.5519275" lon="12.0232433"><ele>528.5</ele><time>2026-04-30T15:12:47.979Z</time></trkpt><trkpt lat="42.5519974" lon="12.0231064"><ele>527.75</ele><time>2026-04-30T15:12:48.979Z</time></trkpt><trkpt lat="42.5520751" lon="12.0229661"><ele>527.0</ele><time>2026-04-30T15:12:49.979Z</time></trkpt><trkpt lat="42.5521565" lon="12.0227958"><ele>531.6666666666666</ele><time>2026-04-30T15:12:50.979Z</time></trkpt><trkpt lat="42.5522221" lon="12.0225989"><ele>536.3333333333334</ele><time>2026-04-30T15:12:51.98Z</time></trkpt><trkpt lat="42.5522561" lon="12.0223812"><ele>541.0</ele><time>2026-04-30T15:12:52.979Z</time></trkpt><trkpt lat="42.5522714" lon="12.0221737"><ele>541.0</ele><time>2026-04-30T15:12:53.98Z</time></trkpt><trkpt lat="42.5522668" lon="12.0220031"><ele>541.0</ele><time>2026-04-30T15:12:54.979Z</time></trkpt><trkpt lat="42.5522557" lon="12.0218746"><ele>541.0</ele><time>2026-04-30T15:12:55.979Z</time></trkpt><trkpt lat="42.5522587" lon="12.02178"><ele>541.0</ele><time>2026-04-30T15:12:56.98Z</time></trkpt><trkpt lat="42.5522581" lon="12.0216867"><ele>541.0</ele><time>2026-04-30T15:12:57.98Z</time></trkpt><trkpt lat="42.5522525" lon="12.0215614"><ele>541.75</ele><time>2026-04-30T15:12:58.979Z</time></trkpt><trkpt lat="42.5522387" lon="12.0213947"><ele>542.5</ele><time>2026-04-30T15:12:59.979Z</time></trkpt><trkpt lat="42.5522206" lon="12.0211977"><ele>543.25</ele><time>2026-04-30T15:13:00.979Z</time></trkpt><trkpt lat="42.5521924" lon="12.0209815"><ele>544.0</ele><time>2026-04-30T15:13:01.979Z</time></trkpt><trkpt lat="42.5521406" lon="12.0207533"><ele>544.0</ele><time>2026-04-30T15:13:02.98Z</time></trkpt><trkpt lat="42.5520671" lon="12.020518"><ele>544.0</ele><time>2026-04-30T15:13:03.979Z</time></trkpt><trkpt lat="42.552002" lon="12.0202892"><ele>544.0</ele><time>2026-04-30T15:13:04.98Z</time></trkpt><trkpt lat="42.5519662" lon="12.0200722"><ele>541.0</ele><time>2026-04-30T15:13:05.979Z</time></trkpt><trkpt lat="42.5519552" lon="12.0198662"><ele>538.0</ele><time>2026-04-30T15:13:06.979Z</time></trkpt><trkpt lat="42.551992" lon="12.0196764"><ele>535.0</ele><time>2026-04-30T15:13:07.98Z</time></trkpt><trkpt lat="42.5520835" lon="12.0195256"><ele>532.0</ele><time>2026-04-30T15:13:08.979Z</time></trkpt><trkpt lat="42.5522209" lon="12.0194075"><ele>532.0</ele><time>2026-04-30T15:13:09.98Z</time></trkpt><trkpt lat="42.5523763" lon="12.0193085"><ele>532.0</ele><time>2026-04-30T15:13:10.979Z</time></trkpt><trkpt lat="42.5525132" lon="12.0191994"><ele>532.0</ele><time>2026-04-30T15:13:11.98Z</time></trkpt><trkpt lat="42.5526071" lon="12.0190942"><ele>530.2</ele><time>2026-04-30T15:13:12.979Z</time></trkpt><trkpt lat="42.5526606" lon="12.0190036"><ele>528.4000000000001</ele><time>2026-04-30T15:13:13.98Z</time></trkpt><trkpt lat="42.5527161" lon="12.0188972"><ele>526.5999999999999</ele><time>2026-04-30T15:13:15.979Z</time></trkpt><trkpt lat="42.5527066" lon="12.0187364"><ele>524.8</ele><time>2026-04-30T15:15:19.979Z</time></trkpt><trkpt lat="42.5527114" lon="12.0185671"><ele>523.0</ele><time>2026-04-30T15:15:20.98Z</time></trkpt><trkpt lat="42.5527105" lon="12.0183685"><ele>523.6666666666667</ele><time>2026-04-30T15:15:21.979Z</time></trkpt><trkpt lat="42.5526854" lon="12.0181598"><ele>524.3333333333334</ele><time>2026-04-30T15:15:22.979Z</time></trkpt><trkpt lat="42.5526415" lon="12.0179396"><ele>525.0</ele><time>2026-04-30T15:15:23.98Z</time></trkpt><trkpt lat="42.5525838" lon="12.0177236"><ele>525.0</ele><time>2026-04-30T15:15:24.979Z</time></trkpt><trkpt lat="42.5525251" lon="12.0175257"><ele>525.0</ele><time>2026-04-30T15:15:25.98Z</time></trkpt><trkpt lat="42.5524859" lon="12.0173391"><ele>525.0</ele><time>2026-04-30T15:15:26.979Z</time></trkpt><trkpt lat="42.552449" lon="12.0171486"><ele>525.0</ele><time>2026-04-30T15:15:27.979Z</time></trkpt><trkpt lat="42.5524327" lon="12.0169638"><ele>525.0</ele><time>2026-04-30T15:15:28.979Z</time></trkpt><trkpt lat="42.5524607" lon="12.0167802"><ele>525.0</ele><time>2026-04-30T15:15:29.979Z</time></trkpt><trkpt lat="42.5525289" lon="12.0166093"><ele>525.0</ele><time>2026-04-30T15:15:30.979Z</time></trkpt><trkpt lat="42.5526124" lon="12.016458"><ele>525.0</ele><time>2026-04-30T15:15:31.979Z</time></trkpt><trkpt lat="42.5526899" lon="12.0163066"><ele>522.25</ele><time>2026-04-30T15:15:32.98Z</time></trkpt><trkpt lat="42.5527624" lon="12.0161429"><ele>519.5</ele><time>2026-04-30T15:15:33.98Z</time></trkpt><trkpt lat="42.5528227" lon="12.0159727"><ele>516.75</ele><time>2026-04-30T15:15:34.979Z</time></trkpt><trkpt lat="42.5528712" lon="12.015786"><ele>514.0</ele><time>2026-04-30T15:15:35.98Z</time></trkpt><trkpt lat="42.5529082" lon="12.0155584"><ele>522.6666666666667</ele><time>2026-04-30T15:15:36.979Z</time></trkpt><trkpt lat="42.5529607" lon="12.0152894"><ele>531.3333333333334</ele><time>2026-04-30T15:15:37.98Z</time></trkpt><trkpt lat="42.5530328" lon="12.0150151"><ele>540.0</ele><time>2026-04-30T15:15:38.979Z</time></trkpt><trkpt lat="42.5530803" lon="12.0147677"><ele>540.3333333333334</ele><time>2026-04-30T15:15:39.979Z</time></trkpt><trkpt lat="42.5530738" lon="12.0145163"><ele>540.6666666666667</ele><time>2026-04-30T15:15:40.979Z</time></trkpt><trkpt lat="42.5530305" lon="12.0142739"><ele>541.0</ele><time>2026-04-30T15:15:41.979Z</time></trkpt><trkpt lat="42.5529524" lon="12.0140372"><ele>539.0</ele><time>2026-04-30T15:15:42.979Z</time></trkpt><trkpt lat="42.5528952" lon="12.0138309"><ele>537.0</ele><time>2026-04-30T15:15:43.979Z</time></trkpt><trkpt lat="42.5528546" lon="12.0136325"><ele>535.0</ele><time>2026-04-30T15:15:44.98Z</time></trkpt><trkpt lat="42.5528378" lon="12.0134386"><ele>532.3333333333334</ele><time>2026-04-30T15:15:45.979Z</time></trkpt><trkpt lat="42.5528619" lon="12.0132477"><ele>529.6666666666666</ele><time>2026-04-30T15:15:46.979Z</time></trkpt><trkpt lat="42.5529238" lon="12.0130535"><ele>527.0</ele><time>2026-04-30T15:15:47.979Z</time></trkpt><trkpt lat="42.5530209" lon="12.012843"><ele>527.0</ele><time>2026-04-30T15:15:48.98Z</time></trkpt><trkpt lat="42.5531333" lon="12.0125975"><ele>527.0</ele><time>2026-04-30T15:15:49.979Z</time></trkpt><trkpt lat="42.553236" lon="12.0123171"><ele>527.0</ele><time>2026-04-30T15:15:50.979Z</time></trkpt><trkpt lat="42.5533188" lon="12.0120156"><ele>525.6666666666666</ele><time>2026-04-30T15:15:51.98Z</time></trkpt><trkpt lat="42.5533782" lon="12.0117268"><ele>524.3333333333334</ele><time>2026-04-30T15:15:52.979Z</time></trkpt><trkpt lat="42.5534358" lon="12.01146"><ele>523.0</ele><time>2026-04-30T15:15:53.979Z</time></trkpt><trkpt lat="42.5534938" lon="12.0112075"><ele>521.6666666666667</ele><time>2026-04-30T15:15:54.979Z</time></trkpt><trkpt lat="42.5535767" lon="12.0109806"><ele>520.3333333333334</ele><time>2026-04-30T15:15:55.979Z</time></trkpt><trkpt lat="42.5537064" lon="12.0107782"><ele>519.0</ele><time>2026-04-30T15:15:56.98Z</time></trkpt><trkpt lat="42.553847" lon="12.0105921"><ele>519.0</ele><time>2026-04-30T15:15:57.98Z</time></trkpt><trkpt lat="42.5539791" lon="12.0104136"><ele>519.0</ele><time>2026-04-30T15:15:58.98Z</time></trkpt><trkpt lat="42.5540876" lon="12.0102084"><ele>519.0</ele><time>2026-04-30T15:15:59.979Z</time></trkpt><trkpt lat="42.5541655" lon="12.0099608"><ele>518.0</ele><time>2026-04-30T15:16:00.979Z</time></trkpt><trkpt lat="42.5542186" lon="12.0096824"><ele>517.0</ele><time>2026-04-30T15:16:01.98Z</time></trkpt><trkpt lat="42.5542664" lon="12.009381"><ele>516.0</ele><time>2026-04-30T15:16:02.979Z</time></trkpt><trkpt lat="42.5543154" lon="12.0090731"><ele>516.0</ele><time>2026-04-30T15:16:03.98Z</time></trkpt><trkpt lat="42.5543336" lon="12.0087432"><ele>516.0</ele><time>2026-04-30T15:16:04.979Z</time></trkpt><trkpt lat="42.5543332" lon="12.0084104"><ele>515.3333333333334</ele><time>2026-04-30T15:16:05.979Z</time></trkpt><trkpt lat="42.5543256" lon="12.0080967"><ele>514.6666666666667</ele><time>2026-04-30T15:16:06.98Z</time></trkpt><trkpt lat="42.5543204" lon="12.007803"><ele>514.0</ele><time>2026-04-30T15:16:07.979Z</time></trkpt><trkpt lat="42.5542918" lon="12.0075207"><ele>516.0</ele><time>2026-04-30T15:16:08.98Z</time></trkpt><trkpt lat="42.5542299" lon="12.0072436"><ele>518.0</ele><time>2026-04-30T15:16:09.979Z</time></trkpt><trkpt lat="42.5541144" lon="12.0069468"><ele>518.5</ele><time>2026-04-30T15:16:10.979Z</time></trkpt><trkpt lat="42.5539666" lon="12.0066356"><ele>519.0</ele><time>2026-04-30T15:16:11.979Z</time></trkpt><trkpt lat="42.5538314" lon="12.00632"><ele>519.0</ele><time>2026-04-30T15:16:12.979Z</time></trkpt><trkpt lat="42.5537235" lon="12.0060281"><ele>519.0</ele><time>2026-04-30T15:16:13.98Z</time></trkpt><trkpt lat="42.5536387" lon="12.0057922"><ele>519.0</ele><time>2026-04-30T15:16:14.979Z</time></trkpt><trkpt lat="42.5535885" lon="12.0055867"><ele>515.5</ele><time>2026-04-30T15:16:15.979Z</time></trkpt><trkpt lat="42.5535941" lon="12.0054072"><ele>512.0</ele><time>2026-04-30T15:16:16.979Z</time></trkpt><trkpt lat="42.5536529" lon="12.00526"><ele>508.5</ele><time>2026-04-30T15:16:17.98Z</time></trkpt><trkpt lat="42.5537572" lon="12.0051728"><ele>505.0</ele><time>2026-04-30T15:16:18.979Z</time></trkpt><trkpt lat="42.5538967" lon="12.0051685"><ele>505.0</ele><time>2026-04-30T15:16:19.98Z</time></trkpt><trkpt lat="42.5540508" lon="12.0052433"><ele>505.0</ele><time>2026-04-30T15:16:20.979Z</time></trkpt><trkpt lat="42.5542131" lon="12.0053487"><ele>505.0</ele><time>2026-04-30T15:16:21.979Z</time></trkpt><trkpt lat="42.5543908" lon="12.0054739"><ele>499.6666666666667</ele><time>2026-04-30T15:16:22.979Z</time></trkpt><trkpt lat="42.5545765" lon="12.0055984"><ele>494.33333333333337</ele><time>2026-04-30T15:16:23.979Z</time></trkpt><trkpt lat="42.5547688" lon="12.0057068"><ele>489.0</ele><time>2026-04-30T15:16:24.98Z</time></trkpt><trkpt lat="42.554968" lon="12.0057851"><ele>489.0</ele><time>2026-04-30T15:16:25.98Z</time></trkpt><trkpt lat="42.5551869" lon="12.0058154"><ele>489.0</ele><time>2026-04-30T15:16:26.979Z</time></trkpt><trkpt lat="42.555415" lon="12.005781"><ele>488.5</ele><time>2026-04-30T15:16:27.98Z</time></trkpt><trkpt lat="42.55565" lon="12.0056875"><ele>488.0</ele><time>2026-04-30T15:16:28.98Z</time></trkpt><trkpt lat="42.5558749" lon="12.0055396"><ele>488.0</ele><time>2026-04-30T15:16:29.979Z</time></trkpt><trkpt lat="42.5560872" lon="12.0053619"><ele>488.0</ele><time>2026-04-30T15:16:30.979Z</time></trkpt><trkpt lat="42.5562905" lon="12.0051802"><ele>485.5</ele><time>2026-04-30T15:16:31.979Z</time></trkpt><trkpt lat="42.5564953" lon="12.0050144"><ele>483.0</ele><time>2026-04-30T15:16:32.979Z</time></trkpt><trkpt lat="42.5566938" lon="12.0048779"><ele>483.0</ele><time>2026-04-30T15:16:33.979Z</time></trkpt><trkpt lat="42.5568897" lon="12.004792"><ele>483.0</ele><time>2026-04-30T15:16:34.98Z</time></trkpt><trkpt lat="42.5570822" lon="12.00477"><ele>483.0</ele><time>2026-04-30T15:16:35.979Z</time></trkpt><trkpt lat="42.5572859" lon="12.0048189"><ele>482.66666666666663</ele><time>2026-04-30T15:16:36.98Z</time></trkpt><trkpt lat="42.5574871" lon="12.0048808"><ele>482.3333333333333</ele><time>2026-04-30T15:16:37.979Z</time></trkpt><trkpt lat="42.5576909" lon="12.0049655"><ele>482.0</ele><time>2026-04-30T15:16:38.98Z</time></trkpt><trkpt lat="42.5578823" lon="12.0050833"><ele>482.0</ele><time>2026-04-30T15:16:39.98Z</time></trkpt><trkpt lat="42.5580675" lon="12.0052246"><ele>482.0</ele><time>2026-04-30T15:16:40.98Z</time></trkpt><trkpt lat="42.5582393" lon="12.0053798"><ele>482.0</ele><time>2026-04-30T15:16:41.979Z</time></trkpt><trkpt lat="42.5583998" lon="12.0055176"><ele>482.0</ele><time>2026-04-30T15:16:42.979Z</time></trkpt><trkpt lat="42.5585422" lon="12.005673"><ele>482.0</ele><time>2026-04-30T15:16:43.979Z</time></trkpt><trkpt lat="42.5586707" lon="12.0058522"><ele>482.0</ele><time>2026-04-30T15:16:44.979Z</time></trkpt><trkpt lat="42.5587715" lon="12.0060451"><ele>481.0</ele><time>2026-04-30T15:16:45.979Z</time></trkpt><trkpt lat="42.5588442" lon="12.0062335"><ele>480.0</ele><time>2026-04-30T15:16:46.979Z</time></trkpt><trkpt lat="42.558904" lon="12.0064112"><ele>479.0</ele><time>2026-04-30T15:16:47.979Z</time></trkpt><trkpt lat="42.5589726" lon="12.0065533"><ele>478.0</ele><time>2026-04-30T15:16:48.98Z</time></trkpt><trkpt lat="42.5590418" lon="12.0066585"><ele>479.5</ele><time>2026-04-30T15:16:49.979Z</time></trkpt><trkpt lat="42.5591196" lon="12.0067378"><ele>481.0</ele><time>2026-04-30T15:16:50.979Z</time></trkpt><trkpt lat="42.5592193" lon="12.0067652"><ele>482.5</ele><time>2026-04-30T15:16:51.98Z</time></trkpt><trkpt lat="42.5593378" lon="12.0067482"><ele>484.0</ele><time>2026-04-30T15:16:52.979Z</time></trkpt><trkpt lat="42.5594684" lon="12.0066806"><ele>481.0</ele><time>2026-04-30T15:16:53.979Z</time></trkpt><trkpt lat="42.5595895" lon="12.0065818"><ele>478.0</ele><time>2026-04-30T15:16:54.979Z</time></trkpt><trkpt lat="42.559704" lon="12.0064606"><ele>475.0</ele><time>2026-04-30T15:16:55.979Z</time></trkpt><trkpt lat="42.5598156" lon="12.0063412"><ele>472.0</ele><time>2026-04-30T15:16:56.979Z</time></trkpt><trkpt lat="42.5599294" lon="12.0062395"><ele>472.0</ele><time>2026-04-30T15:16:57.979Z</time></trkpt><trkpt lat="42.560045" lon="12.0061556"><ele>472.0</ele><time>2026-04-30T15:16:58.979Z</time></trkpt><trkpt lat="42.5601723" lon="12.006109"><ele>472.0</ele><time>2026-04-30T15:16:59.979Z</time></trkpt><trkpt lat="42.5603155" lon="12.006101"><ele>472.0</ele><time>2026-04-30T15:17:00.98Z</time></trkpt><trkpt lat="42.5604725" lon="12.0061303"><ele>471.33333333333337</ele><time>2026-04-30T15:17:01.979Z</time></trkpt><trkpt lat="42.5606332" lon="12.0061687"><ele>470.66666666666663</ele><time>2026-04-30T15:17:02.98Z</time></trkpt><trkpt lat="42.5607991" lon="12.006218"><ele>470.0</ele><time>2026-04-30T15:17:03.979Z</time></trkpt><trkpt lat="42.5609702" lon="12.0062617"><ele>470.0</ele><time>2026-04-30T15:17:04.979Z</time></trkpt><trkpt lat="42.5611364" lon="12.0063036"><ele>470.0</ele><time>2026-04-30T15:17:05.979Z</time></trkpt><trkpt lat="42.5613084" lon="12.0063385"><ele>470.0</ele><time>2026-04-30T15:17:06.979Z</time></trkpt><trkpt lat="42.5614811" lon="12.0063819"><ele>468.3333333333333</ele><time>2026-04-30T15:17:07.979Z</time></trkpt><trkpt lat="42.5616617" lon="12.0064334"><ele>466.66666666666663</ele><time>2026-04-30T15:17:08.979Z</time></trkpt><trkpt lat="42.5618523" lon="12.0064785"><ele>465.0</ele><time>2026-04-30T15:17:09.98Z</time></trkpt><trkpt lat="42.5620473" lon="12.0065269"><ele>465.33333333333337</ele><time>2026-04-30T15:17:10.979Z</time></trkpt><trkpt lat="42.5622407" lon="12.006578"><ele>465.6666666666667</ele><time>2026-04-30T15:17:11.979Z</time></trkpt><trkpt lat="42.5624357" lon="12.0066272"><ele>466.0</ele><time>2026-04-30T15:17:12.98Z</time></trkpt><trkpt lat="42.5626297" lon="12.0066794"><ele>466.0</ele><time>2026-04-30T15:17:13.98Z</time></trkpt><trkpt lat="42.5628248" lon="12.0067301"><ele>466.0</ele><time>2026-04-30T15:17:14.979Z</time></trkpt><trkpt lat="42.5630203" lon="12.006779"><ele>466.0</ele><time>2026-04-30T15:17:15.979Z</time></trkpt><trkpt lat="42.563216" lon="12.0068269"><ele>465.33333333333337</ele><time>2026-04-30T15:17:16.98Z</time></trkpt><trkpt lat="42.5634137" lon="12.0068762"><ele>464.66666666666663</ele><time>2026-04-30T15:17:17.979Z</time></trkpt><trkpt lat="42.5636017" lon="12.0069201"><ele>464.0</ele><time>2026-04-30T15:17:18.98Z</time></trkpt><trkpt lat="42.563789" lon="12.0069683"><ele>462.0</ele><time>2026-04-30T15:17:19.979Z</time></trkpt><trkpt lat="42.5639794" lon="12.0070159"><ele>460.0</ele><time>2026-04-30T15:17:20.979Z</time></trkpt><trkpt lat="42.5641678" lon="12.0070674"><ele>458.0</ele><time>2026-04-30T15:17:21.979Z</time></trkpt><trkpt lat="42.5643648" lon="12.0071078"><ele>458.0</ele><time>2026-04-30T15:17:22.979Z</time></trkpt><trkpt lat="42.564558" lon="12.0071476"><ele>458.0</ele><time>2026-04-30T15:17:23.98Z</time></trkpt><trkpt lat="42.5647513" lon="12.0071928"><ele>458.0</ele><time>2026-04-30T15:17:24.98Z</time></trkpt><trkpt lat="42.564942" lon="12.0072322"><ele>458.0</ele><time>2026-04-30T15:17:25.98Z</time></trkpt><trkpt lat="42.5651234" lon="12.0072799"><ele>458.0</ele><time>2026-04-30T15:17:26.979Z</time></trkpt><trkpt lat="42.5653023" lon="12.0073291"><ele>458.0</ele><time>2026-04-30T15:17:27.979Z</time></trkpt><trkpt lat="42.5654786" lon="12.0073809"><ele>458.0</ele><time>2026-04-30T15:17:28.979Z</time></trkpt><trkpt lat="42.5656427" lon="12.0074466"><ele>458.0</ele><time>2026-04-30T15:17:29.979Z</time></trkpt><trkpt lat="42.5657992" lon="12.00753"><ele>458.0</ele><time>2026-04-30T15:17:30.98Z</time></trkpt><trkpt lat="42.5659642" lon="12.0076581"><ele>455.0</ele><time>2026-04-30T15:17:31.979Z</time></trkpt><trkpt lat="42.5661155" lon="12.0078289"><ele>452.0</ele><time>2026-04-30T15:17:32.979Z</time></trkpt><trkpt lat="42.5662798" lon="12.0080643"><ele>449.0</ele><time>2026-04-30T15:17:33.979Z</time></trkpt><trkpt lat="42.5664486" lon="12.0083517"><ele>445.5</ele><time>2026-04-30T15:17:34.979Z</time></trkpt><trkpt lat="42.5666082" lon="12.0086624"><ele>442.0</ele><time>2026-04-30T15:17:35.979Z</time></trkpt><trkpt lat="42.5667834" lon="12.0089584"><ele>440.0</ele><time>2026-04-30T15:17:36.979Z</time></trkpt><trkpt lat="42.5669665" lon="12.0092144"><ele>438.0</ele><time>2026-04-30T15:17:37.979Z</time></trkpt><trkpt lat="42.567157" lon="12.0093972"><ele>437.66666666666663</ele><time>2026-04-30T15:17:38.979Z</time></trkpt><trkpt lat="42.5673612" lon="12.0094907"><ele>437.3333333333333</ele><time>2026-04-30T15:17:39.979Z</time></trkpt><trkpt lat="42.5675823" lon="12.009528"><ele>437.0</ele><time>2026-04-30T15:17:40.979Z</time></trkpt><trkpt lat="42.567827" lon="12.0095051"><ele>435.5</ele><time>2026-04-30T15:17:41.979Z</time></trkpt><trkpt lat="42.5680909" lon="12.0094547"><ele>434.0</ele><time>2026-04-30T15:17:42.979Z</time></trkpt><trkpt lat="42.5683818" lon="12.0094157"><ele>428.5</ele><time>2026-04-30T15:17:43.98Z</time></trkpt><trkpt lat="42.568693" lon="12.0093733"><ele>423.0</ele><time>2026-04-30T15:17:44.979Z</time></trkpt><trkpt lat="42.5690176" lon="12.0093273"><ele>423.0</ele><time>2026-04-30T15:17:45.979Z</time></trkpt><trkpt lat="42.5693366" lon="12.0092865"><ele>423.0</ele><time>2026-04-30T15:17:46.98Z</time></trkpt><trkpt lat="42.5696447" lon="12.0092477"><ele>422.5</ele><time>2026-04-30T15:17:47.98Z</time></trkpt><trkpt lat="42.5699554" lon="12.009215"><ele>422.0</ele><time>2026-04-30T15:17:48.979Z</time></trkpt><trkpt lat="42.5702755" lon="12.0092023"><ele>422.5</ele><time>2026-04-30T15:17:49.98Z</time></trkpt><trkpt lat="42.5706037" lon="12.0092337"><ele>423.0</ele><time>2026-04-30T15:17:50.98Z</time></trkpt><trkpt lat="42.5709435" lon="12.0093145"><ele>423.0</ele><time>2026-04-30T15:17:51.98Z</time></trkpt><trkpt lat="42.5712936" lon="12.0094008"><ele>423.0</ele><time>2026-04-30T15:17:52.979Z</time></trkpt><trkpt lat="42.5716558" lon="12.0094884"><ele>423.0</ele><time>2026-04-30T15:17:53.979Z</time></trkpt><trkpt lat="42.5720199" lon="12.0095736"><ele>423.0</ele><time>2026-04-30T15:17:54.979Z</time></trkpt><trkpt lat="42.5723709" lon="12.0096628"><ele>423.0</ele><time>2026-04-30T15:17:55.979Z</time></trkpt><trkpt lat="42.5727093" lon="12.0097552"><ele>423.0</ele><time>2026-04-30T15:17:56.98Z</time></trkpt><trkpt lat="42.5730471" lon="12.0098258"><ele>424.5</ele><time>2026-04-30T15:17:57.979Z</time></trkpt><trkpt lat="42.5733868" lon="12.0098808"><ele>426.0</ele><time>2026-04-30T15:17:58.979Z</time></trkpt><trkpt lat="42.57372" lon="12.0099195"><ele>427.0</ele><time>2026-04-30T15:17:59.979Z</time></trkpt><trkpt lat="42.5740415" lon="12.0099514"><ele>428.0</ele><time>2026-04-30T15:18:00.979Z</time></trkpt><trkpt lat="42.5743656" lon="12.0099807"><ele>426.0</ele><time>2026-04-30T15:18:01.979Z</time></trkpt><trkpt lat="42.5746968" lon="12.0100071"><ele>424.0</ele><time>2026-04-30T15:18:02.98Z</time></trkpt><trkpt lat="42.5750359" lon="12.0100417"><ele>423.5</ele><time>2026-04-30T15:18:03.979Z</time></trkpt><trkpt lat="42.5753842" lon="12.0100744"><ele>423.0</ele><time>2026-04-30T15:18:04.979Z</time></trkpt><trkpt lat="42.5757425" lon="12.0101014"><ele>423.0</ele><time>2026-04-30T15:18:05.979Z</time></trkpt><trkpt lat="42.5761175" lon="12.0101414"><ele>423.0</ele><time>2026-04-30T15:18:06.979Z</time></trkpt><trkpt lat="42.5764911" lon="12.0101822"><ele>422.5</ele><time>2026-04-30T15:18:07.979Z</time></trkpt><trkpt lat="42.5768509" lon="12.0102163"><ele>422.0</ele><time>2026-04-30T15:18:08.979Z</time></trkpt><trkpt lat="42.5771886" lon="12.0102472"><ele>423.0</ele><time>2026-04-30T15:18:09.979Z</time></trkpt><trkpt lat="42.5775122" lon="12.0102797"><ele>424.0</ele><time>2026-04-30T15:18:10.979Z</time></trkpt><trkpt lat="42.5778236" lon="12.0103132"><ele>424.0</ele><time>2026-04-30T15:18:11.979Z</time></trkpt><trkpt lat="42.5781175" lon="12.0103385"><ele>424.0</ele><time>2026-04-30T15:18:12.979Z</time></trkpt><trkpt lat="42.5783972" lon="12.0103619"><ele>424.0</ele><time>2026-04-30T15:18:13.979Z</time></trkpt><trkpt lat="42.5786623" lon="12.0103957"><ele>424.0</ele><time>2026-04-30T15:18:14.98Z</time></trkpt><trkpt lat="42.5789044" lon="12.0104274"><ele>421.0</ele><time>2026-04-30T15:18:15.979Z</time></trkpt><trkpt lat="42.5791259" lon="12.0104485"><ele>418.0</ele><time>2026-04-30T15:18:16.979Z</time></trkpt><trkpt lat="42.5793272" lon="12.0104371"><ele>415.0</ele><time>2026-04-30T15:18:17.978Z</time></trkpt><trkpt lat="42.5795078" lon="12.010372"><ele>414.33333333333337</ele><time>2026-04-30T15:18:18.98Z</time></trkpt><trkpt lat="42.5796764" lon="12.0102361"><ele>413.66666666666663</ele><time>2026-04-30T15:18:19.98Z</time></trkpt><trkpt lat="42.5798154" lon="12.0100498"><ele>413.0</ele><time>2026-04-30T15:18:20.98Z</time></trkpt><trkpt lat="42.5799364" lon="12.0098556"><ele>412.3333333333333</ele><time>2026-04-30T15:18:21.979Z</time></trkpt><trkpt lat="42.5800643" lon="12.0096665"><ele>411.66666666666663</ele><time>2026-04-30T15:18:22.98Z</time></trkpt><trkpt lat="42.5802168" lon="12.0094655"><ele>411.0</ele><time>2026-04-30T15:18:23.979Z</time></trkpt><trkpt lat="42.5803802" lon="12.0092325"><ele>409.5</ele><time>2026-04-30T15:18:24.979Z</time></trkpt><trkpt lat="42.5805557" lon="12.0089846"><ele>408.0</ele><time>2026-04-30T15:18:25.979Z</time></trkpt><trkpt lat="42.5807304" lon="12.0087509"><ele>408.0</ele><time>2026-04-30T15:18:26.979Z</time></trkpt><trkpt lat="42.5808973" lon="12.0085622"><ele>408.0</ele><time>2026-04-30T15:18:27.979Z</time></trkpt><trkpt lat="42.5810749" lon="12.008423"><ele>408.0</ele><time>2026-04-30T15:18:28.979Z</time></trkpt><trkpt lat="42.5812733" lon="12.0083418"><ele>403.0</ele><time>2026-04-30T15:18:29.98Z</time></trkpt><trkpt lat="42.5815005" lon="12.0083117"><ele>398.0</ele><time>2026-04-30T15:18:30.98Z</time></trkpt><trkpt lat="42.5817294" lon="12.0082993"><ele>398.0</ele><time>2026-04-30T15:18:31.98Z</time></trkpt><trkpt lat="42.5819508" lon="12.0082713"><ele>398.0</ele><time>2026-04-30T15:18:32.98Z</time></trkpt><trkpt lat="42.5821668" lon="12.0081751"><ele>400.5</ele><time>2026-04-30T15:18:33.979Z</time></trkpt><trkpt lat="42.5823624" lon="12.0080002"><ele>403.0</ele><time>2026-04-30T15:18:34.979Z</time></trkpt><trkpt lat="42.5825664" lon="12.0077619"><ele>403.0</ele><time>2026-04-30T15:18:35.98Z</time></trkpt><trkpt lat="42.582793" lon="12.0075167"><ele>403.0</ele><time>2026-04-30T15:18:36.98Z</time></trkpt><trkpt lat="42.5830184" lon="12.0072671"><ele>402.0</ele><time>2026-04-30T15:18:37.98Z</time></trkpt><trkpt lat="42.5832227" lon="12.0070294"><ele>401.0</ele><time>2026-04-30T15:18:38.979Z</time></trkpt><trkpt lat="42.5834045" lon="12.0067909"><ele>401.0</ele><time>2026-04-30T15:18:39.979Z</time></trkpt><trkpt lat="42.5835473" lon="12.006562"><ele>401.0</ele><time>2026-04-30T15:18:40.979Z</time></trkpt><trkpt lat="42.5836528" lon="12.0063505"><ele>401.0</ele><time>2026-04-30T15:18:41.979Z</time></trkpt><trkpt lat="42.5837542" lon="12.0061619"><ele>401.0</ele><time>2026-04-30T15:18:42.979Z</time></trkpt><trkpt lat="42.5838653" lon="12.005997"><ele>401.0</ele><time>2026-04-30T15:18:43.979Z</time></trkpt><trkpt lat="42.5840019" lon="12.0058633"><ele>401.0</ele><time>2026-04-30T15:18:44.979Z</time></trkpt><trkpt lat="42.5841561" lon="12.0057515"><ele>400.3333333333333</ele><time>2026-04-30T15:18:45.979Z</time></trkpt><trkpt lat="42.5843099" lon="12.005647"><ele>399.66666666666663</ele><time>2026-04-30T15:18:46.98Z</time></trkpt><trkpt lat="42.5844601" lon="12.0055461"><ele>399.0</ele><time>2026-04-30T15:18:47.979Z</time></trkpt><trkpt lat="42.5846103" lon="12.0054409"><ele>399.0</ele><time>2026-04-30T15:18:48.979Z</time></trkpt><trkpt lat="42.5847503" lon="12.0053418"><ele>399.0</ele><time>2026-04-30T15:18:49.979Z</time></trkpt><trkpt lat="42.5848794" lon="12.005248"><ele>399.0</ele><time>2026-04-30T15:18:50.979Z</time></trkpt><trkpt lat="42.5850017" lon="12.0051526"><ele>399.0</ele><time>2026-04-30T15:18:51.979Z</time></trkpt><trkpt lat="42.5851251" lon="12.0050591"><ele>399.5</ele><time>2026-04-30T15:18:52.979Z</time></trkpt><trkpt lat="42.5852445" lon="12.0049614"><ele>400.0</ele><time>2026-04-30T15:18:53.979Z</time></trkpt><trkpt lat="42.585364" lon="12.0048768"><ele>400.5</ele><time>2026-04-30T15:18:54.98Z</time></trkpt><trkpt lat="42.5854774" lon="12.0047813"><ele>401.0</ele><time>2026-04-30T15:18:55.98Z</time></trkpt><trkpt lat="42.5855747" lon="12.0046718"><ele>401.0</ele><time>2026-04-30T15:18:56.979Z</time></trkpt><trkpt lat="42.5856585" lon="12.0045479"><ele>401.0</ele><time>2026-04-30T15:18:57.98Z</time></trkpt><trkpt lat="42.5857231" lon="12.0043926"><ele>401.0</ele><time>2026-04-30T15:18:58.979Z</time></trkpt><trkpt lat="42.5857507" lon="12.0042219"><ele>401.0</ele><time>2026-04-30T15:18:59.979Z</time></trkpt><trkpt lat="42.5857395" lon="12.0040643"><ele>401.20000000000005</ele><time>2026-04-30T15:19:00.979Z</time></trkpt><trkpt lat="42.5857075" lon="12.0039197"><ele>401.40000000000003</ele><time>2026-04-30T15:19:01.979Z</time></trkpt><trkpt lat="42.5856479" lon="12.0037886"><ele>401.6</ele><time>2026-04-30T15:19:02.979Z</time></trkpt><trkpt lat="42.5855828" lon="12.0036636"><ele>401.8</ele><time>2026-04-30T15:19:03.979Z</time></trkpt><trkpt lat="42.585515" lon="12.0035439"><ele>402.0</ele><time>2026-04-30T15:19:04.98Z</time></trkpt><trkpt lat="42.5854415" lon="12.0034285"><ele>401.0</ele><time>2026-04-30T15:19:05.979Z</time></trkpt><trkpt lat="42.585362" lon="12.0033243"><ele>400.0</ele><time>2026-04-30T15:19:06.979Z</time></trkpt><trkpt lat="42.5852923" lon="12.003217"><ele>399.0</ele><time>2026-04-30T15:19:07.979Z</time></trkpt><trkpt lat="42.5852287" lon="12.0031056"><ele>398.0</ele><time>2026-04-30T15:19:08.98Z</time></trkpt><trkpt lat="42.5851707" lon="12.002989"><ele>397.0</ele><time>2026-04-30T15:19:09.98Z</time></trkpt><trkpt lat="42.5851371" lon="12.0028583"><ele>395.25</ele><time>2026-04-30T15:19:10.979Z</time></trkpt><trkpt lat="42.5851304" lon="12.0027158"><ele>393.5</ele><time>2026-04-30T15:19:11.979Z</time></trkpt><trkpt lat="42.5851601" lon="12.0025709"><ele>391.75</ele><time>2026-04-30T15:19:12.979Z</time></trkpt><trkpt lat="42.5852329" lon="12.0024241"><ele>390.0</ele><time>2026-04-30T15:19:13.979Z</time></trkpt><trkpt lat="42.5853435" lon="12.0023137"><ele>388.66666666666663</ele><time>2026-04-30T15:19:14.98Z</time></trkpt><trkpt lat="42.5854784" lon="12.0022426"><ele>387.3333333333333</ele><time>2026-04-30T15:19:15.979Z</time></trkpt><trkpt lat="42.5856297" lon="12.0021866"><ele>386.0</ele><time>2026-04-30T15:19:16.979Z</time></trkpt><trkpt lat="42.5857802" lon="12.0021342"><ele>386.0</ele><time>2026-04-30T15:19:17.979Z</time></trkpt><trkpt lat="42.5859256" lon="12.0020783"><ele>386.0</ele><time>2026-04-30T15:19:18.979Z</time></trkpt><trkpt lat="42.5860705" lon="12.0020293"><ele>386.0</ele><time>2026-04-30T15:19:19.98Z</time></trkpt><trkpt lat="42.5862188" lon="12.0019764"><ele>387.0</ele><time>2026-04-30T15:19:20.979Z</time></trkpt><trkpt lat="42.5863742" lon="12.0019243"><ele>388.0</ele><time>2026-04-30T15:19:21.979Z</time></trkpt><trkpt lat="42.5865323" lon="12.0018767"><ele>389.0</ele><time>2026-04-30T15:19:22.98Z</time></trkpt><trkpt lat="42.5866862" lon="12.0018446"><ele>389.0</ele><time>2026-04-30T15:19:23.979Z</time></trkpt><trkpt lat="42.5868376" lon="12.001832"><ele>389.0</ele><time>2026-04-30T15:19:24.98Z</time></trkpt><trkpt lat="42.5869847" lon="12.0018365"><ele>389.0</ele><time>2026-04-30T15:19:25.979Z</time></trkpt><trkpt lat="42.5871223" lon="12.0018451"><ele>389.0</ele><time>2026-04-30T15:19:26.98Z</time></trkpt><trkpt lat="42.5872486" lon="12.0018545"><ele>388.25</ele><time>2026-04-30T15:19:27.98Z</time></trkpt><trkpt lat="42.5873748" lon="12.0018653"><ele>387.5</ele><time>2026-04-30T15:19:28.979Z</time></trkpt><trkpt lat="42.587504" lon="12.0018721"><ele>386.75</ele><time>2026-04-30T15:19:29.979Z</time></trkpt><trkpt lat="42.5876567" lon="12.0018682"><ele>386.0</ele><time>2026-04-30T15:19:30.979Z</time></trkpt><trkpt lat="42.5878508" lon="12.0018389"><ele>386.0</ele><time>2026-04-30T15:19:31.979Z</time></trkpt><trkpt lat="42.5880851" lon="12.0017732"><ele>386.0</ele><time>2026-04-30T15:19:32.979Z</time></trkpt><trkpt lat="42.5883495" lon="12.001666"><ele>382.0</ele><time>2026-04-30T15:19:33.98Z</time></trkpt><trkpt lat="42.5886343" lon="12.0015475"><ele>378.0</ele><time>2026-04-30T15:19:34.979Z</time></trkpt><trkpt lat="42.5889373" lon="12.0014499"><ele>378.0</ele><time>2026-04-30T15:19:35.98Z</time></trkpt><trkpt lat="42.5892411" lon="12.0013594"><ele>378.0</ele><time>2026-04-30T15:19:36.98Z</time></trkpt><trkpt lat="42.5895135" lon="12.0012374"><ele>379.0</ele><time>2026-04-30T15:19:37.979Z</time></trkpt><trkpt lat="42.5897618" lon="12.0010746"><ele>380.0</ele><time>2026-04-30T15:19:38.98Z</time></trkpt><trkpt lat="42.5899909" lon="12.0009027"><ele>376.5</ele><time>2026-04-30T15:19:39.979Z</time></trkpt><trkpt lat="42.5902239" lon="12.0007594"><ele>373.0</ele><time>2026-04-30T15:19:40.979Z</time></trkpt><trkpt lat="42.5904599" lon="12.0006674"><ele>373.0</ele><time>2026-04-30T15:19:41.979Z</time></trkpt><trkpt lat="42.5907153" lon="12.0006469"><ele>373.0</ele><time>2026-04-30T15:19:42.979Z</time></trkpt><trkpt lat="42.5909869" lon="12.0006688"><ele>370.0</ele><time>2026-04-30T15:19:43.98Z</time></trkpt><trkpt lat="42.591274" lon="12.0007138"><ele>367.0</ele><time>2026-04-30T15:19:44.979Z</time></trkpt><trkpt lat="42.5915502" lon="12.0007587"><ele>367.0</ele><time>2026-04-30T15:19:45.979Z</time></trkpt><trkpt lat="42.5918197" lon="12.0007982"><ele>367.0</ele><time>2026-04-30T15:19:46.979Z</time></trkpt><trkpt lat="42.5920938" lon="12.0008144"><ele>363.0</ele><time>2026-04-30T15:19:47.979Z</time></trkpt><trkpt lat="42.5923826" lon="12.0007965"><ele>359.0</ele><time>2026-04-30T15:19:48.979Z</time></trkpt><trkpt lat="42.5926854" lon="12.0007458"><ele>357.5</ele><time>2026-04-30T15:19:49.979Z</time></trkpt><trkpt lat="42.5930023" lon="12.0006858"><ele>356.0</ele><time>2026-04-30T15:19:50.979Z</time></trkpt><trkpt lat="42.5933254" lon="12.0006314"><ele>356.0</ele><time>2026-04-30T15:19:51.979Z</time></trkpt><trkpt lat="42.5936617" lon="12.0005898"><ele>356.0</ele><time>2026-04-30T15:19:52.98Z</time></trkpt><trkpt lat="42.5940015" lon="12.0005579"><ele>355.0</ele><time>2026-04-30T15:19:53.979Z</time></trkpt><trkpt lat="42.5943142" lon="12.0005276"><ele>354.0</ele><time>2026-04-30T15:19:54.979Z</time></trkpt><trkpt lat="42.5946057" lon="12.0004977"><ele>353.0</ele><time>2026-04-30T15:19:55.98Z</time></trkpt><trkpt lat="42.5948862" lon="12.0004632"><ele>352.0</ele><time>2026-04-30T15:19:56.979Z</time></trkpt><trkpt lat="42.595156" lon="12.0003787"><ele>351.5</ele><time>2026-04-30T15:19:57.979Z</time></trkpt><trkpt lat="42.5954362" lon="12.0002408"><ele>351.0</ele><time>2026-04-30T15:19:58.98Z</time></trkpt><trkpt lat="42.5957142" lon="12.0000554"><ele>351.0</ele><time>2026-04-30T15:19:59.979Z</time></trkpt><trkpt lat="42.5959836" lon="11.9998575"><ele>351.0</ele><time>2026-04-30T15:20:00.979Z</time></trkpt><trkpt lat="42.5962468" lon="11.9996898"><ele>351.0</ele><time>2026-04-30T15:20:01.979Z</time></trkpt><trkpt lat="42.5964957" lon="11.9995558"><ele>351.0</ele><time>2026-04-30T15:20:02.979Z</time></trkpt><trkpt lat="42.596742" lon="11.9994672"><ele>351.0</ele><time>2026-04-30T15:20:03.979Z</time></trkpt><trkpt lat="42.596996" lon="11.9994384"><ele>351.0</ele><time>2026-04-30T15:20:04.98Z</time></trkpt><trkpt lat="42.5972601" lon="11.9994545"><ele>350.0</ele><time>2026-04-30T15:20:05.98Z</time></trkpt><trkpt lat="42.5975413" lon="11.9994957"><ele>349.0</ele><time>2026-04-30T15:20:06.979Z</time></trkpt><trkpt lat="42.5978289" lon="11.9995189"><ele>348.5</ele><time>2026-04-30T15:20:07.98Z</time></trkpt><trkpt lat="42.5981117" lon="11.9995208"><ele>348.0</ele><time>2026-04-30T15:20:08.979Z</time></trkpt><trkpt lat="42.5983778" lon="11.9994767"><ele>348.0</ele><time>2026-04-30T15:20:09.979Z</time></trkpt><trkpt lat="42.59863" lon="11.9993822"><ele>348.0</ele><time>2026-04-30T15:20:10.98Z</time></trkpt><trkpt lat="42.5988828" lon="11.9992223"><ele>342.5</ele><time>2026-04-30T15:20:11.979Z</time></trkpt><trkpt lat="42.599142" lon="11.9990331"><ele>337.0</ele><time>2026-04-30T15:20:12.979Z</time></trkpt><trkpt lat="42.5993947" lon="11.9988518"><ele>337.5</ele><time>2026-04-30T15:20:13.979Z</time></trkpt><trkpt lat="42.599638" lon="11.9986964"><ele>338.0</ele><time>2026-04-30T15:20:14.979Z</time></trkpt><trkpt lat="42.5998808" lon="11.9985893"><ele>338.0</ele><time>2026-04-30T15:20:15.979Z</time></trkpt><trkpt lat="42.6001315" lon="11.9985049"><ele>338.0</ele><time>2026-04-30T15:20:16.979Z</time></trkpt><trkpt lat="42.600401" lon="11.9984416"><ele>339.0</ele><time>2026-04-30T15:20:17.979Z</time></trkpt><trkpt lat="42.6007003" lon="11.9983904"><ele>340.0</ele><time>2026-04-30T15:20:18.98Z</time></trkpt><trkpt lat="42.6009954" lon="11.9983366"><ele>334.5</ele><time>2026-04-30T15:20:19.979Z</time></trkpt><trkpt lat="42.6012745" lon="11.998295"><ele>329.0</ele><time>2026-04-30T15:20:20.979Z</time></trkpt><trkpt lat="42.6015412" lon="11.9982647"><ele>329.0</ele><time>2026-04-30T15:20:21.979Z</time></trkpt><trkpt lat="42.6017926" lon="11.9982303"><ele>329.0</ele><time>2026-04-30T15:20:22.979Z</time></trkpt><trkpt lat="42.6020171" lon="11.9981958"><ele>328.6666666666667</ele><time>2026-04-30T15:20:23.979Z</time></trkpt><trkpt lat="42.6022285" lon="11.9981634"><ele>328.3333333333333</ele><time>2026-04-30T15:20:24.979Z</time></trkpt><trkpt lat="42.6024302" lon="11.9981223"><ele>328.0</ele><time>2026-04-30T15:20:25.979Z</time></trkpt><trkpt lat="42.6026224" lon="11.9980834"><ele>328.0</ele><time>2026-04-30T15:20:26.979Z</time></trkpt><trkpt lat="42.6028043" lon="11.9980437"><ele>328.0</ele><time>2026-04-30T15:20:27.979Z</time></trkpt><trkpt lat="42.6029726" lon="11.9979626"><ele>328.0</ele><time>2026-04-30T15:20:28.979Z</time></trkpt><trkpt lat="42.6031336" lon="11.9978295"><ele>329.0</ele><time>2026-04-30T15:20:29.979Z</time></trkpt><trkpt lat="42.6032942" lon="11.9976657"><ele>330.0</ele><time>2026-04-30T15:20:30.98Z</time></trkpt><trkpt lat="42.6034736" lon="11.9974816"><ele>331.0</ele><time>2026-04-30T15:20:31.979Z</time></trkpt><trkpt lat="42.6036913" lon="11.9972655"><ele>324.5</ele><time>2026-04-30T15:20:32.98Z</time></trkpt><trkpt lat="42.6039338" lon="11.9970452"><ele>318.0</ele><time>2026-04-30T15:20:33.98Z</time></trkpt><trkpt lat="42.6041622" lon="11.9968514"><ele>317.0</ele><time>2026-04-30T15:20:34.979Z</time></trkpt><trkpt lat="42.6043648" lon="11.9966685"><ele>316.0</ele><time>2026-04-30T15:20:35.979Z</time></trkpt><trkpt lat="42.6045685" lon="11.996519"><ele>316.0</ele><time>2026-04-30T15:20:36.979Z</time></trkpt><trkpt lat="42.6047765" lon="11.9964303"><ele>316.0</ele><time>2026-04-30T15:20:37.979Z</time></trkpt><trkpt lat="42.6050006" lon="11.9964105"><ele>316.0</ele><time>2026-04-30T15:20:38.979Z</time></trkpt><trkpt lat="42.6052606" lon="11.9964322"><ele>314.5</ele><time>2026-04-30T15:20:39.979Z</time></trkpt><trkpt lat="42.6055465" lon="11.9964591"><ele>313.0</ele><time>2026-04-30T15:20:40.979Z</time></trkpt><trkpt lat="42.6058441" lon="11.9964835"><ele>312.5</ele><time>2026-04-30T15:20:41.98Z</time></trkpt><trkpt lat="42.606164" lon="11.996514"><ele>312.0</ele><time>2026-04-30T15:20:42.979Z</time></trkpt><trkpt lat="42.6065067" lon="11.9965478"><ele>312.0</ele><time>2026-04-30T15:20:43.979Z</time></trkpt><trkpt lat="42.6068632" lon="11.9965792"><ele>312.0</ele><time>2026-04-30T15:20:44.98Z</time></trkpt><trkpt lat="42.6072323" lon="11.9966109"><ele>312.0</ele><time>2026-04-30T15:20:45.979Z</time></trkpt><trkpt lat="42.6076115" lon="11.9966392"><ele>312.0</ele><time>2026-04-30T15:20:46.979Z</time></trkpt><trkpt lat="42.6079995" lon="11.9966714"><ele>314.0</ele><time>2026-04-30T15:20:47.979Z</time></trkpt><trkpt lat="42.6083918" lon="11.9967098"><ele>316.0</ele><time>2026-04-30T15:20:48.979Z</time></trkpt><trkpt lat="42.6087728" lon="11.9967534"><ele>318.5</ele><time>2026-04-30T15:20:49.979Z</time></trkpt><trkpt lat="42.6091466" lon="11.9967971"><ele>321.0</ele><time>2026-04-30T15:20:50.979Z</time></trkpt><trkpt lat="42.6095164" lon="11.9968186"><ele>327.5</ele><time>2026-04-30T15:20:51.98Z</time></trkpt><trkpt lat="42.6098716" lon="11.9968217"><ele>334.0</ele><time>2026-04-30T15:20:52.979Z</time></trkpt><trkpt lat="42.6101984" lon="11.9968129"><ele>332.5</ele><time>2026-04-30T15:20:53.979Z</time></trkpt><trkpt lat="42.6104909" lon="11.9968017"><ele>331.0</ele><time>2026-04-30T15:20:54.979Z</time></trkpt><trkpt lat="42.6107546" lon="11.9968013"><ele>331.0</ele><time>2026-04-30T15:20:55.979Z</time></trkpt><trkpt lat="42.6110125" lon="11.9968467"><ele>331.0</ele><time>2026-04-30T15:20:56.979Z</time></trkpt><trkpt lat="42.6112793" lon="11.9969612"><ele>327.0</ele><time>2026-04-30T15:20:57.979Z</time></trkpt><trkpt lat="42.6115602" lon="11.9971095"><ele>323.0</ele><time>2026-04-30T15:20:58.98Z</time></trkpt><trkpt lat="42.6118514" lon="11.9972648"><ele>318.5</ele><time>2026-04-30T15:20:59.979Z</time></trkpt><trkpt lat="42.6121379" lon="11.9974221"><ele>314.0</ele><time>2026-04-30T15:21:00.979Z</time></trkpt><trkpt lat="42.6124239" lon="11.9975405"><ele>327.0</ele><time>2026-04-30T15:21:01.979Z</time></trkpt><trkpt lat="42.6127139" lon="11.9976032"><ele>340.0</ele><time>2026-04-30T15:21:02.979Z</time></trkpt><trkpt lat="42.6130032" lon="11.9975992"><ele>340.0</ele><time>2026-04-30T15:21:03.979Z</time></trkpt><trkpt lat="42.6132982" lon="11.997545"><ele>340.0</ele><time>2026-04-30T15:21:04.979Z</time></trkpt><trkpt lat="42.6135902" lon="11.9974381"><ele>331.5</ele><time>2026-04-30T15:21:05.979Z</time></trkpt><trkpt lat="42.6138601" lon="11.9973162"><ele>323.0</ele><time>2026-04-30T15:21:06.98Z</time></trkpt><trkpt lat="42.614105" lon="11.9971767"><ele>323.0</ele><time>2026-04-30T15:21:07.98Z</time></trkpt><trkpt lat="42.6143216" lon="11.9970341"><ele>323.0</ele><time>2026-04-30T15:21:08.979Z</time></trkpt><trkpt lat="42.6145112" lon="11.9969031"><ele>325.33333333333337</ele><time>2026-04-30T15:21:09.979Z</time></trkpt><trkpt lat="42.6146847" lon="11.9967785"><ele>327.6666666666667</ele><time>2026-04-30T15:21:10.979Z</time></trkpt><trkpt lat="42.6148359" lon="11.9966585"><ele>330.0</ele><time>2026-04-30T15:21:11.979Z</time></trkpt><trkpt lat="42.6149677" lon="11.9965309"><ele>327.75</ele><time>2026-04-30T15:21:12.979Z</time></trkpt><trkpt lat="42.6150835" lon="11.9963914"><ele>325.5</ele><time>2026-04-30T15:21:13.979Z</time></trkpt><trkpt lat="42.6151887" lon="11.9962549"><ele>323.25</ele><time>2026-04-30T15:21:14.98Z</time></trkpt><trkpt lat="42.61529" lon="11.9961319"><ele>321.0</ele><time>2026-04-30T15:21:15.979Z</time></trkpt><trkpt lat="42.6153897" lon="11.9960194"><ele>321.0</ele><time>2026-04-30T15:21:16.98Z</time></trkpt><trkpt lat="42.6154926" lon="11.9959256"><ele>321.0</ele><time>2026-04-30T15:21:17.98Z</time></trkpt><trkpt lat="42.6156013" lon="11.9958708"><ele>321.0</ele><time>2026-04-30T15:21:18.979Z</time></trkpt><trkpt lat="42.6157231" lon="11.9958729"><ele>321.0</ele><time>2026-04-30T15:21:19.98Z</time></trkpt><trkpt lat="42.6158469" lon="11.9959221"><ele>321.0</ele><time>2026-04-30T15:21:20.979Z</time></trkpt><trkpt lat="42.6159606" lon="11.9959958"><ele>321.0</ele><time>2026-04-30T15:21:21.98Z</time></trkpt><trkpt lat="42.6160668" lon="11.9960883"><ele>321.0</ele><time>2026-04-30T15:21:22.98Z</time></trkpt><trkpt lat="42.6161772" lon="11.9961903"><ele>321.0</ele><time>2026-04-30T15:21:23.979Z</time></trkpt><trkpt lat="42.6162913" lon="11.9962863"><ele>319.0</ele><time>2026-04-30T15:21:24.979Z</time></trkpt><trkpt lat="42.6164087" lon="11.9963759"><ele>317.0</ele><time>2026-04-30T15:21:25.98Z</time></trkpt><trkpt lat="42.6165218" lon="11.9964578"><ele>315.0</ele><time>2026-04-30T15:21:26.98Z</time></trkpt><trkpt lat="42.6166379" lon="11.9965309"><ele>313.0</ele><time>2026-04-30T15:21:27.979Z</time></trkpt><trkpt lat="42.6167541" lon="11.9965933"><ele>313.0</ele><time>2026-04-30T15:21:28.979Z</time></trkpt><trkpt lat="42.6168678" lon="11.9966439"><ele>313.0</ele><time>2026-04-30T15:21:29.979Z</time></trkpt><trkpt lat="42.616979" lon="11.9966828"><ele>313.0</ele><time>2026-04-30T15:21:30.98Z</time></trkpt><trkpt lat="42.6170872" lon="11.9967112"><ele>313.0</ele><time>2026-04-30T15:21:31.979Z</time></trkpt><trkpt lat="42.6171949" lon="11.9967422"><ele>313.8</ele><time>2026-04-30T15:21:32.979Z</time></trkpt><trkpt lat="42.6173013" lon="11.9967692"><ele>314.6</ele><time>2026-04-30T15:21:33.979Z</time></trkpt><trkpt lat="42.6173999" lon="11.9967965"><ele>315.4</ele><time>2026-04-30T15:21:34.98Z</time></trkpt><trkpt lat="42.617503" lon="11.9968226"><ele>316.2</ele><time>2026-04-30T15:21:35.979Z</time></trkpt><trkpt lat="42.6176313" lon="11.9968516"><ele>317.0</ele><time>2026-04-30T15:21:36.979Z</time></trkpt><trkpt lat="42.6177715" lon="11.9968907"><ele>316.75</ele><time>2026-04-30T15:21:37.979Z</time></trkpt><trkpt lat="42.6179" lon="11.9969294"><ele>316.5</ele><time>2026-04-30T15:21:38.979Z</time></trkpt><trkpt lat="42.6180238" lon="11.9969657"><ele>316.25</ele><time>2026-04-30T15:21:39.979Z</time></trkpt><trkpt lat="42.6181693" lon="11.9969997"><ele>316.0</ele><time>2026-04-30T15:21:40.979Z</time></trkpt><trkpt lat="42.6183543" lon="11.9970461"><ele>316.0</ele><time>2026-04-30T15:21:41.979Z</time></trkpt><trkpt lat="42.618538" lon="11.9970994"><ele>316.0</ele><time>2026-04-30T15:21:42.979Z</time></trkpt><trkpt lat="42.6186967" lon="11.9971508"><ele>316.0</ele><time>2026-04-30T15:21:43.979Z</time></trkpt><trkpt lat="42.6188438" lon="11.9972022"><ele>316.0</ele><time>2026-04-30T15:21:44.979Z</time></trkpt><trkpt lat="42.6189798" lon="11.9972546"><ele>316.0</ele><time>2026-04-30T15:21:45.979Z</time></trkpt><trkpt lat="42.6191157" lon="11.9973183"><ele>316.0</ele><time>2026-04-30T15:21:46.979Z</time></trkpt><trkpt lat="42.619259" lon="11.997395"><ele>316.0</ele><time>2026-04-30T15:21:47.979Z</time></trkpt><trkpt lat="42.6194149" lon="11.9975034"><ele>318.3333333333333</ele><time>2026-04-30T15:21:48.98Z</time></trkpt><trkpt lat="42.6195857" lon="11.997645"><ele>320.6666666666667</ele><time>2026-04-30T15:21:49.979Z</time></trkpt><trkpt lat="42.6197446" lon="11.9977956"><ele>323.0</ele><time>2026-04-30T15:21:50.979Z</time></trkpt><trkpt lat="42.6198837" lon="11.9979105"><ele>323.0</ele><time>2026-04-30T15:21:51.98Z</time></trkpt><trkpt lat="42.6199951" lon="11.9979792"><ele>323.0</ele><time>2026-04-30T15:21:52.979Z</time></trkpt><trkpt lat="42.6200739" lon="11.9980091"><ele>323.0</ele><time>2026-04-30T15:21:53.979Z</time></trkpt><trkpt lat="42.6201742" lon="11.9980297"><ele>323.0</ele><time>2026-04-30T15:21:55.979Z</time></trkpt><trkpt lat="42.6202536" lon="11.9980393"><ele>323.0</ele><time>2026-04-30T15:21:57.979Z</time></trkpt><trkpt lat="42.6203725" lon="11.9980608"><ele>322.2</ele><time>2026-04-30T15:21:59.98Z</time></trkpt><trkpt lat="42.6204549" lon="11.9980711"><ele>321.4</ele><time>2026-04-30T15:22:00.979Z</time></trkpt><trkpt lat="42.6205464" lon="11.9980746"><ele>320.59999999999997</ele><time>2026-04-30T15:22:01.979Z</time></trkpt><trkpt lat="42.6206413" lon="11.9980838"><ele>319.79999999999995</ele><time>2026-04-30T15:22:02.979Z</time></trkpt><trkpt lat="42.6207399" lon="11.9980932"><ele>319.0</ele><time>2026-04-30T15:22:03.979Z</time></trkpt><trkpt lat="42.6208478" lon="11.9981059"><ele>319.0</ele><time>2026-04-30T15:22:04.98Z</time></trkpt><trkpt lat="42.6209685" lon="11.9981215"><ele>319.0</ele><time>2026-04-30T15:22:05.979Z</time></trkpt><trkpt lat="42.6211055" lon="11.9981348"><ele>319.0</ele><time>2026-04-30T15:22:06.979Z</time></trkpt><trkpt lat="42.6212457" lon="11.9981461"><ele>319.0</ele><time>2026-04-30T15:22:07.979Z</time></trkpt><trkpt lat="42.6213946" lon="11.9981577"><ele>318.66666666666663</ele><time>2026-04-30T15:22:08.979Z</time></trkpt><trkpt lat="42.6215577" lon="11.9981787"><ele>318.3333333333333</ele><time>2026-04-30T15:22:09.979Z</time></trkpt><trkpt lat="42.6217158" lon="11.9981922"><ele>318.0</ele><time>2026-04-30T15:22:10.979Z</time></trkpt><trkpt lat="42.621876" lon="11.9982046"><ele>317.6666666666667</ele><time>2026-04-30T15:22:11.979Z</time></trkpt><trkpt lat="42.6220374" lon="11.998213"><ele>317.33333333333337</ele><time>2026-04-30T15:22:12.979Z</time></trkpt><trkpt lat="42.6221903" lon="11.9982295"><ele>317.0</ele><time>2026-04-30T15:22:13.98Z</time></trkpt><trkpt lat="42.6223475" lon="11.9982725"><ele>318.33333333333337</ele><time>2026-04-30T15:22:14.98Z</time></trkpt><trkpt lat="42.6225092" lon="11.9983482"><ele>319.6666666666667</ele><time>2026-04-30T15:22:15.979Z</time></trkpt><trkpt lat="42.6226591" lon="11.9984535"><ele>321.0</ele><time>2026-04-30T15:22:16.979Z</time></trkpt><trkpt lat="42.6228008" lon="11.9985926"><ele>320.3333333333333</ele><time>2026-04-30T15:22:17.979Z</time></trkpt><trkpt lat="42.6229227" lon="11.9987623"><ele>319.66666666666663</ele><time>2026-04-30T15:22:18.98Z</time></trkpt><trkpt lat="42.6230432" lon="11.9989286"><ele>319.0</ele><time>2026-04-30T15:22:19.98Z</time></trkpt><trkpt lat="42.6231709" lon="11.9990837"><ele>321.3333333333333</ele><time>2026-04-30T15:22:20.98Z</time></trkpt><trkpt lat="42.6233087" lon="11.9992114"><ele>323.6666666666667</ele><time>2026-04-30T15:22:21.979Z</time></trkpt><trkpt lat="42.6234522" lon="11.9993004"><ele>326.0</ele><time>2026-04-30T15:22:22.979Z</time></trkpt><trkpt lat="42.6236033" lon="11.9993625"><ele>325.6666666666667</ele><time>2026-04-30T15:22:23.979Z</time></trkpt><trkpt lat="42.6237632" lon="11.9994033"><ele>325.3333333333333</ele><time>2026-04-30T15:22:24.979Z</time></trkpt><trkpt lat="42.6239378" lon="11.9994199"><ele>325.0</ele><time>2026-04-30T15:22:25.979Z</time></trkpt><trkpt lat="42.624116" lon="11.9994196"><ele>325.0</ele><time>2026-04-30T15:22:26.98Z</time></trkpt><trkpt lat="42.6243071" lon="11.999414"><ele>325.0</ele><time>2026-04-30T15:22:27.979Z</time></trkpt><trkpt lat="42.624507" lon="11.9994064"><ele>325.0</ele><time>2026-04-30T15:22:28.979Z</time></trkpt><trkpt lat="42.6247258" lon="11.9993887"><ele>328.0</ele><time>2026-04-30T15:22:29.979Z</time></trkpt><trkpt lat="42.6249728" lon="11.9993699"><ele>331.0</ele><time>2026-04-30T15:22:30.98Z</time></trkpt><trkpt lat="42.6252334" lon="11.9993581"><ele>337.0</ele><time>2026-04-30T15:22:31.979Z</time></trkpt><trkpt lat="42.625497" lon="11.9993555"><ele>343.0</ele><time>2026-04-30T15:22:32.979Z</time></trkpt><trkpt lat="42.6257549" lon="11.9993583"><ele>343.0</ele><time>2026-04-30T15:22:33.979Z</time></trkpt><trkpt lat="42.625994" lon="11.9993627"><ele>343.0</ele><time>2026-04-30T15:22:34.979Z</time></trkpt><trkpt lat="42.6262098" lon="11.9993566"><ele>346.3333333333333</ele><time>2026-04-30T15:22:35.979Z</time></trkpt><trkpt lat="42.6264153" lon="11.9993393"><ele>349.6666666666667</ele><time>2026-04-30T15:22:36.98Z</time></trkpt><trkpt lat="42.6266031" lon="11.9993117"><ele>353.0</ele><time>2026-04-30T15:22:37.98Z</time></trkpt><trkpt lat="42.6267752" lon="11.9992761"><ele>353.0</ele><time>2026-04-30T15:22:38.98Z</time></trkpt><trkpt lat="42.6269297" lon="11.9992277"><ele>353.0</ele><time>2026-04-30T15:22:39.979Z</time></trkpt><trkpt lat="42.6270753" lon="11.9991743"><ele>353.0</ele><time>2026-04-30T15:22:40.979Z</time></trkpt><trkpt lat="42.6272253" lon="11.9991106"><ele>344.33333333333337</ele><time>2026-04-30T15:22:41.979Z</time></trkpt><trkpt lat="42.6273774" lon="11.999042"><ele>335.6666666666667</ele><time>2026-04-30T15:22:42.979Z</time></trkpt><trkpt lat="42.627527" lon="11.9989814"><ele>327.0</ele><time>2026-04-30T15:22:43.979Z</time></trkpt><trkpt lat="42.6276659" lon="11.9989203"><ele>327.0</ele><time>2026-04-30T15:22:44.979Z</time></trkpt><trkpt lat="42.6278048" lon="11.9988469"><ele>327.0</ele><time>2026-04-30T15:22:45.979Z</time></trkpt><trkpt lat="42.6279469" lon="11.998779"><ele>327.0</ele><time>2026-04-30T15:22:46.979Z</time></trkpt><trkpt lat="42.628091" lon="11.9987215"><ele>328.5</ele><time>2026-04-30T15:22:47.979Z</time></trkpt><trkpt lat="42.6282343" lon="11.9986684"><ele>330.0</ele><time>2026-04-30T15:22:48.979Z</time></trkpt><trkpt lat="42.6283743" lon="11.9986039"><ele>331.5</ele><time>2026-04-30T15:22:49.979Z</time></trkpt><trkpt lat="42.6285165" lon="11.9985483"><ele>333.0</ele><time>2026-04-30T15:22:50.98Z</time></trkpt><trkpt lat="42.6286666" lon="11.9984955"><ele>335.6666666666667</ele><time>2026-04-30T15:22:51.979Z</time></trkpt><trkpt lat="42.6288175" lon="11.9984524"><ele>338.33333333333337</ele><time>2026-04-30T15:22:52.979Z</time></trkpt><trkpt lat="42.6289707" lon="11.9984113"><ele>341.0</ele><time>2026-04-30T15:22:53.98Z</time></trkpt><trkpt lat="42.6291328" lon="11.9983831"><ele>341.0</ele><time>2026-04-30T15:22:54.979Z</time></trkpt><trkpt lat="42.6292992" lon="11.9983643"><ele>341.0</ele><time>2026-04-30T15:22:55.979Z</time></trkpt><trkpt lat="42.6294715" lon="11.9983459"><ele>341.0</ele><time>2026-04-30T15:22:56.979Z</time></trkpt><trkpt lat="42.629639" lon="11.9983276"><ele>336.0</ele><time>2026-04-30T15:22:57.979Z</time></trkpt><trkpt lat="42.6297997" lon="11.9983139"><ele>331.0</ele><time>2026-04-30T15:22:58.979Z</time></trkpt><trkpt lat="42.6299598" lon="11.9982957"><ele>326.0</ele><time>2026-04-30T15:22:59.979Z</time></trkpt><trkpt lat="42.6301258" lon="11.9982613"><ele>326.0</ele><time>2026-04-30T15:23:00.979Z</time></trkpt><trkpt lat="42.6302841" lon="11.9982152"><ele>326.0</ele><time>2026-04-30T15:23:01.979Z</time></trkpt><trkpt lat="42.6304407" lon="11.9981617"><ele>326.0</ele><time>2026-04-30T15:23:02.979Z</time></trkpt><trkpt lat="42.6305971" lon="11.9981039"><ele>330.33333333333337</ele><time>2026-04-30T15:23:03.979Z</time></trkpt><trkpt lat="42.6307603" lon="11.9980368"><ele>334.6666666666667</ele><time>2026-04-30T15:23:04.979Z</time></trkpt><trkpt lat="42.6309296" lon="11.997965"><ele>339.0</ele><time>2026-04-30T15:23:05.979Z</time></trkpt><trkpt lat="42.6311045" lon="11.997877"><ele>343.3333333333333</ele><time>2026-04-30T15:23:06.979Z</time></trkpt><trkpt lat="42.6312854" lon="11.9977677"><ele>347.66666666666663</ele><time>2026-04-30T15:23:07.98Z</time></trkpt><trkpt lat="42.6314831" lon="11.9976419"><ele>352.0</ele><time>2026-04-30T15:23:08.979Z</time></trkpt><trkpt lat="42.6316996" lon="11.9975054"><ele>346.0</ele><time>2026-04-30T15:23:09.979Z</time></trkpt><trkpt lat="42.6319209" lon="11.9973739"><ele>340.0</ele><time>2026-04-30T15:23:10.979Z</time></trkpt><trkpt lat="42.6321265" lon="11.9972638"><ele>340.0</ele><time>2026-04-30T15:23:11.979Z</time></trkpt><trkpt lat="42.6323105" lon="11.9971568"><ele>340.0</ele><time>2026-04-30T15:23:12.979Z</time></trkpt><trkpt lat="42.6324789" lon="11.9970555"><ele>340.0</ele><time>2026-04-30T15:23:13.979Z</time></trkpt><trkpt lat="42.6326225" lon="11.9969519"><ele>340.0</ele><time>2026-04-30T15:23:14.979Z</time></trkpt><trkpt lat="42.632781" lon="11.9968387"><ele>340.0</ele><time>2026-04-30T15:23:15.98Z</time></trkpt><trkpt lat="42.632956" lon="11.9966989"><ele>340.0</ele><time>2026-04-30T15:23:16.979Z</time></trkpt><trkpt lat="42.6331508" lon="11.9965429"><ele>339.66666666666663</ele><time>2026-04-30T15:23:17.979Z</time></trkpt><trkpt lat="42.6333411" lon="11.9963914"><ele>339.3333333333333</ele><time>2026-04-30T15:23:18.98Z</time></trkpt><trkpt lat="42.6335127" lon="11.9962423"><ele>339.0</ele><time>2026-04-30T15:23:19.98Z</time></trkpt><trkpt lat="42.6336807" lon="11.9961051"><ele>339.0</ele><time>2026-04-30T15:23:20.98Z</time></trkpt><trkpt lat="42.6338353" lon="11.9959769"><ele>339.0</ele><time>2026-04-30T15:23:21.98Z</time></trkpt><trkpt lat="42.6339714" lon="11.9958527"><ele>339.0</ele><time>2026-04-30T15:23:22.979Z</time></trkpt><trkpt lat="42.6340918" lon="11.9957385"><ele>334.5</ele><time>2026-04-30T15:23:23.979Z</time></trkpt><trkpt lat="42.6342036" lon="11.9956386"><ele>330.0</ele><time>2026-04-30T15:23:24.98Z</time></trkpt><trkpt lat="42.634312" lon="11.9955466"><ele>325.5</ele><time>2026-04-30T15:23:25.979Z</time></trkpt><trkpt lat="42.6344084" lon="11.9954719"><ele>321.0</ele><time>2026-04-30T15:23:26.979Z</time></trkpt><trkpt lat="42.6344964" lon="11.9953983"><ele>321.0</ele><time>2026-04-30T15:23:27.979Z</time></trkpt><trkpt lat="42.6345928" lon="11.9953235"><ele>321.0</ele><time>2026-04-30T15:23:28.98Z</time></trkpt><trkpt lat="42.6346857" lon="11.9952643"><ele>321.0</ele><time>2026-04-30T15:23:29.979Z</time></trkpt><trkpt lat="42.6347821" lon="11.9952137"><ele>321.0</ele><time>2026-04-30T15:23:30.979Z</time></trkpt><trkpt lat="42.634884" lon="11.9951754"><ele>321.0</ele><time>2026-04-30T15:23:31.98Z</time></trkpt><trkpt lat="42.634989" lon="11.9951411"><ele>321.0</ele><time>2026-04-30T15:23:32.98Z</time></trkpt><trkpt lat="42.6351001" lon="11.995105"><ele>321.0</ele><time>2026-04-30T15:23:33.98Z</time></trkpt><trkpt lat="42.6352191" lon="11.9950711"><ele>321.0</ele><time>2026-04-30T15:23:34.98Z</time></trkpt><trkpt lat="42.6353443" lon="11.9950269"><ele>321.0</ele><time>2026-04-30T15:23:35.979Z</time></trkpt><trkpt lat="42.6354819" lon="11.9949853"><ele>319.25</ele><time>2026-04-30T15:23:36.98Z</time></trkpt><trkpt lat="42.6356214" lon="11.9949456"><ele>317.5</ele><time>2026-04-30T15:23:37.978Z</time></trkpt><trkpt lat="42.6357635" lon="11.9949053"><ele>315.75</ele><time>2026-04-30T15:23:38.979Z</time></trkpt><trkpt lat="42.6359125" lon="11.9948532"><ele>314.0</ele><time>2026-04-30T15:23:39.979Z</time></trkpt><trkpt lat="42.6360631" lon="11.9948023"><ele>315.6666666666667</ele><time>2026-04-30T15:23:40.979Z</time></trkpt><trkpt lat="42.6362186" lon="11.9947565"><ele>317.3333333333333</ele><time>2026-04-30T15:23:41.979Z</time></trkpt><trkpt lat="42.6363671" lon="11.9947076"><ele>319.0</ele><time>2026-04-30T15:23:42.979Z</time></trkpt><trkpt lat="42.6365101" lon="11.9946499"><ele>319.0</ele><time>2026-04-30T15:23:43.98Z</time></trkpt><trkpt lat="42.6366411" lon="11.9945743"><ele>319.0</ele><time>2026-04-30T15:23:44.98Z</time></trkpt><trkpt lat="42.6367762" lon="11.9944887"><ele>319.0</ele><time>2026-04-30T15:23:45.98Z</time></trkpt><trkpt lat="42.6369087" lon="11.9943838"><ele>319.0</ele><time>2026-04-30T15:23:46.979Z</time></trkpt><trkpt lat="42.6370392" lon="11.9942644"><ele>318.3333333333333</ele><time>2026-04-30T15:23:47.979Z</time></trkpt><trkpt lat="42.6371762" lon="11.9941235"><ele>317.6666666666667</ele><time>2026-04-30T15:23:48.98Z</time></trkpt><trkpt lat="42.6373305" lon="11.9939648"><ele>317.0</ele><time>2026-04-30T15:23:49.98Z</time></trkpt><trkpt lat="42.6375102" lon="11.993798"><ele>317.0</ele><time>2026-04-30T15:23:50.979Z</time></trkpt><trkpt lat="42.6377083" lon="11.9936171"><ele>317.0</ele><time>2026-04-30T15:23:51.98Z</time></trkpt><trkpt lat="42.6379214" lon="11.9934336"><ele>317.6666666666667</ele><time>2026-04-30T15:23:52.979Z</time></trkpt><trkpt lat="42.6381215" lon="11.9932796"><ele>318.3333333333333</ele><time>2026-04-30T15:23:53.979Z</time></trkpt><trkpt lat="42.6382911" lon="11.9931686"><ele>319.0</ele><time>2026-04-30T15:23:54.98Z</time></trkpt><trkpt lat="42.6384237" lon="11.9930814"><ele>319.0</ele><time>2026-04-30T15:23:55.979Z</time></trkpt><trkpt lat="42.6385285" lon="11.9929825"><ele>319.0</ele><time>2026-04-30T15:23:56.979Z</time></trkpt><trkpt lat="42.6386238" lon="11.9928681"><ele>319.0</ele><time>2026-04-30T15:23:57.979Z</time></trkpt><trkpt lat="42.6387243" lon="11.9927354"><ele>319.0</ele><time>2026-04-30T15:23:58.979Z</time></trkpt><trkpt lat="42.6388223" lon="11.9926017"><ele>320.0</ele><time>2026-04-30T15:23:59.98Z</time></trkpt><trkpt lat="42.6389189" lon="11.9924746"><ele>321.0</ele><time>2026-04-30T15:24:00.979Z</time></trkpt><trkpt lat="42.6390222" lon="11.9923576"><ele>322.0</ele><time>2026-04-30T15:24:01.979Z</time></trkpt><trkpt lat="42.6391284" lon="11.9922432"><ele>323.0</ele><time>2026-04-30T15:24:02.979Z</time></trkpt><trkpt lat="42.6392307" lon="11.9921173"><ele>323.0</ele><time>2026-04-30T15:24:03.979Z</time></trkpt><trkpt lat="42.6393204" lon="11.9920016"><ele>323.0</ele><time>2026-04-30T15:24:04.979Z</time></trkpt><trkpt lat="42.6394088" lon="11.9918872"><ele>323.0</ele><time>2026-04-30T15:24:05.98Z</time></trkpt><trkpt lat="42.6394996" lon="11.9917737"><ele>323.0</ele><time>2026-04-30T15:24:06.979Z</time></trkpt><trkpt lat="42.639592" lon="11.9916593"><ele>322.0</ele><time>2026-04-30T15:24:07.98Z</time></trkpt><trkpt lat="42.6397048" lon="11.9915246"><ele>321.0</ele><time>2026-04-30T15:24:08.98Z</time></trkpt><trkpt lat="42.6398406" lon="11.9913967"><ele>320.0</ele><time>2026-04-30T15:24:09.979Z</time></trkpt><trkpt lat="42.6399919" lon="11.9912779"><ele>320.0</ele><time>2026-04-30T15:24:10.979Z</time></trkpt><trkpt lat="42.6401492" lon="11.9911656"><ele>320.0</ele><time>2026-04-30T15:24:11.98Z</time></trkpt><trkpt lat="42.640305" lon="11.9910446"><ele>320.0</ele><time>2026-04-30T15:24:12.979Z</time></trkpt><trkpt lat="42.6404702" lon="11.9909205"><ele>320.0</ele><time>2026-04-30T15:24:13.979Z</time></trkpt><trkpt lat="42.6406301" lon="11.9908018"><ele>320.0</ele><time>2026-04-30T15:24:14.979Z</time></trkpt><trkpt lat="42.6407876" lon="11.9906841"><ele>320.0</ele><time>2026-04-30T15:24:15.979Z</time></trkpt><trkpt lat="42.6409331" lon="11.9905618"><ele>320.0</ele><time>2026-04-30T15:24:16.979Z</time></trkpt><trkpt lat="42.6410637" lon="11.9904417"><ele>320.0</ele><time>2026-04-30T15:24:17.979Z</time></trkpt><trkpt lat="42.6411836" lon="11.9903159"><ele>320.0</ele><time>2026-04-30T15:24:18.98Z</time></trkpt><trkpt lat="42.6412959" lon="11.9901786"><ele>320.0</ele><time>2026-04-30T15:24:19.98Z</time></trkpt><trkpt lat="42.6414005" lon="11.9900224"><ele>320.0</ele><time>2026-04-30T15:24:20.979Z</time></trkpt><trkpt lat="42.6414975" lon="11.9898504"><ele>320.0</ele><time>2026-04-30T15:24:21.98Z</time></trkpt><trkpt lat="42.6415922" lon="11.9896777"><ele>320.0</ele><time>2026-04-30T15:24:22.979Z</time></trkpt><trkpt lat="42.641688" lon="11.9895057"><ele>320.0</ele><time>2026-04-30T15:24:23.979Z</time></trkpt><trkpt lat="42.641788" lon="11.9893386"><ele>320.0</ele><time>2026-04-30T15:24:24.98Z</time></trkpt><trkpt lat="42.641892" lon="11.9891692"><ele>319.6666666666667</ele><time>2026-04-30T15:24:25.979Z</time></trkpt><trkpt lat="42.6420006" lon="11.9889892"><ele>319.3333333333333</ele><time>2026-04-30T15:24:26.979Z</time></trkpt><trkpt lat="42.6421087" lon="11.9888176"><ele>319.0</ele><time>2026-04-30T15:24:27.98Z</time></trkpt><trkpt lat="42.6422136" lon="11.9886499"><ele>319.0</ele><time>2026-04-30T15:24:28.979Z</time></trkpt><trkpt lat="42.6423247" lon="11.9885029"><ele>319.0</ele><time>2026-04-30T15:24:29.979Z</time></trkpt><trkpt lat="42.6424419" lon="11.9883642"><ele>319.0</ele><time>2026-04-30T15:24:30.98Z</time></trkpt><trkpt lat="42.6425691" lon="11.988228"><ele>319.66666666666663</ele><time>2026-04-30T15:24:31.979Z</time></trkpt><trkpt lat="42.6426981" lon="11.9880923"><ele>320.3333333333333</ele><time>2026-04-30T15:24:32.979Z</time></trkpt><trkpt lat="42.6428276" lon="11.9879626"><ele>321.0</ele><time>2026-04-30T15:24:33.979Z</time></trkpt><trkpt lat="42.6429497" lon="11.987832"><ele>321.0</ele><time>2026-04-30T15:24:34.979Z</time></trkpt><trkpt lat="42.6430661" lon="11.9876995"><ele>321.0</ele><time>2026-04-30T15:24:35.979Z</time></trkpt><trkpt lat="42.6431793" lon="11.9875774"><ele>321.0</ele><time>2026-04-30T15:24:36.98Z</time></trkpt><trkpt lat="42.6432896" lon="11.9874547"><ele>321.0</ele><time>2026-04-30T15:24:37.98Z</time></trkpt><trkpt lat="42.6433971" lon="11.987336"><ele>320.25</ele><time>2026-04-30T15:24:38.98Z</time></trkpt><trkpt lat="42.6435045" lon="11.9872208"><ele>319.5</ele><time>2026-04-30T15:24:39.98Z</time></trkpt><trkpt lat="42.6436114" lon="11.9871032"><ele>318.75</ele><time>2026-04-30T15:24:40.98Z</time></trkpt><trkpt lat="42.6437099" lon="11.9870036"><ele>318.0</ele><time>2026-04-30T15:24:41.98Z</time></trkpt><trkpt lat="42.6437919" lon="11.9869202"><ele>318.4</ele><time>2026-04-30T15:24:42.98Z</time></trkpt><trkpt lat="42.6438572" lon="11.9868531"><ele>318.8</ele><time>2026-04-30T15:24:43.98Z</time></trkpt><trkpt lat="42.643912" lon="11.9867942"><ele>319.2</ele><time>2026-04-30T15:24:44.98Z</time></trkpt><trkpt lat="42.6440012" lon="11.9866885"><ele>319.6</ele><time>2026-04-30T15:24:46.979Z</time></trkpt><trkpt lat="42.6441034" lon="11.9865961"><ele>320.0</ele><time>2026-04-30T15:24:48.979Z</time></trkpt><trkpt lat="42.6441692" lon="11.9865649"><ele>320.0</ele><time>2026-04-30T15:24:49.979Z</time></trkpt><trkpt lat="42.6442362" lon="11.9865763"><ele>320.0</ele><time>2026-04-30T15:24:50.979Z</time></trkpt><trkpt lat="42.6442927" lon="11.9866217"><ele>320.0</ele><time>2026-04-30T15:24:51.979Z</time></trkpt><trkpt lat="42.6443369" lon="11.9866834"><ele>320.0</ele><time>2026-04-30T15:24:52.979Z</time></trkpt><trkpt lat="42.6443876" lon="11.9867957"><ele>320.0</ele><time>2026-04-30T15:24:54.979Z</time></trkpt><trkpt lat="42.6444176" lon="11.9868821"><ele>320.0</ele><time>2026-04-30T15:24:57.979Z</time></trkpt><trkpt lat="42.6444677" lon="11.9869747"><ele>320.0</ele><time>2026-04-30T15:24:59.979Z</time></trkpt><trkpt lat="42.6445396" lon="11.987102"><ele>321.4</ele><time>2026-04-30T15:25:01.98Z</time></trkpt><trkpt lat="42.6445526" lon="11.9872666"><ele>322.8</ele><time>2026-04-30T15:25:03.979Z</time></trkpt><trkpt lat="42.644525" lon="11.9873718"><ele>324.20000000000005</ele><time>2026-04-30T15:25:04.98Z</time></trkpt><trkpt lat="42.644496" lon="11.987498"><ele>325.6</ele><time>2026-04-30T15:25:05.979Z</time></trkpt><trkpt lat="42.6444643" lon="11.9876255"><ele>327.0</ele><time>2026-04-30T15:25:06.979Z</time></trkpt><trkpt lat="42.6444439" lon="11.987747"><ele>327.0</ele><time>2026-04-30T15:25:07.979Z</time></trkpt><trkpt lat="42.6444398" lon="11.9878631"><ele>327.0</ele><time>2026-04-30T15:25:08.979Z</time></trkpt><trkpt lat="42.6444545" lon="11.9879692"><ele>327.0</ele><time>2026-04-30T15:25:09.979Z</time></trkpt><trkpt lat="42.6444983" lon="11.9880603"><ele>327.0</ele><time>2026-04-30T15:25:10.98Z</time></trkpt><trkpt lat="42.6445701" lon="11.9881255"><ele>327.0</ele><time>2026-04-30T15:25:11.979Z</time></trkpt><trkpt lat="42.6446754" lon="11.9880854"><ele>327.0</ele><time>2026-04-30T15:25:12.98Z</time></trkpt><trkpt lat="42.6447949" lon="11.987994"><ele>329.5</ele><time>2026-04-30T15:25:13.979Z</time></trkpt><trkpt lat="42.6449111" lon="11.9878723"><ele>332.0</ele><time>2026-04-30T15:25:14.98Z</time></trkpt><trkpt lat="42.6450205" lon="11.9877467"><ele>334.5</ele><time>2026-04-30T15:25:15.979Z</time></trkpt><trkpt lat="42.6451287" lon="11.9876536"><ele>337.0</ele><time>2026-04-30T15:25:16.979Z</time></trkpt><trkpt lat="42.6452302" lon="11.9875957"><ele>338.3333333333333</ele><time>2026-04-30T15:25:17.98Z</time></trkpt><trkpt lat="42.645322" lon="11.9875941"><ele>339.66666666666663</ele><time>2026-04-30T15:25:18.979Z</time></trkpt><trkpt lat="42.6454034" lon="11.9876247"><ele>341.0</ele><time>2026-04-30T15:25:19.979Z</time></trkpt><trkpt lat="42.6454583" lon="11.9876889"><ele>342.3333333333333</ele><time>2026-04-30T15:25:20.98Z</time></trkpt><trkpt lat="42.6455092" lon="11.9878017"><ele>343.6666666666667</ele><time>2026-04-30T15:25:21.979Z</time></trkpt><trkpt lat="42.6455734" lon="11.9879088"><ele>345.0</ele><time>2026-04-30T15:25:22.979Z</time></trkpt><trkpt lat="42.6456475" lon="11.9879781"><ele>345.0</ele><time>2026-04-30T15:25:23.979Z</time></trkpt><trkpt lat="42.6457275" lon="11.9880067"><ele>345.0</ele><time>2026-04-30T15:25:24.98Z</time></trkpt><trkpt lat="42.6458039" lon="11.9879811"><ele>345.0</ele><time>2026-04-30T15:25:25.979Z</time></trkpt><trkpt lat="42.645864" lon="11.9879272"><ele>345.0</ele><time>2026-04-30T15:25:26.979Z</time></trkpt><trkpt lat="42.6458949" lon="11.9878254"><ele>345.0</ele><time>2026-04-30T15:25:27.98Z</time></trkpt><trkpt lat="42.6458876" lon="11.9876712"><ele>345.0</ele><time>2026-04-30T15:25:28.979Z</time></trkpt><trkpt lat="42.6458773" lon="11.9874816"><ele>344.4</ele><time>2026-04-30T15:25:29.979Z</time></trkpt><trkpt lat="42.6458897" lon="11.9873156"><ele>343.8</ele><time>2026-04-30T15:25:30.979Z</time></trkpt><trkpt lat="42.6459289" lon="11.9872127"><ele>343.20000000000005</ele><time>2026-04-30T15:25:31.98Z</time></trkpt><trkpt lat="42.6459862" lon="11.9871694"><ele>342.6</ele><time>2026-04-30T15:25:32.979Z</time></trkpt><trkpt lat="42.646058" lon="11.9872463"><ele>342.0</ele><time>2026-04-30T15:25:33.979Z</time></trkpt><trkpt lat="42.6460995" lon="11.9873873"><ele>342.75</ele><time>2026-04-30T15:25:34.979Z</time></trkpt><trkpt lat="42.6460969" lon="11.9875623"><ele>343.5</ele><time>2026-04-30T15:25:35.979Z</time></trkpt><trkpt lat="42.6460905" lon="11.9877655"><ele>344.25</ele><time>2026-04-30T15:25:36.98Z</time></trkpt><trkpt lat="42.6460796" lon="11.9879586"><ele>345.0</ele><time>2026-04-30T15:25:37.979Z</time></trkpt><trkpt lat="42.6460909" lon="11.9881346"><ele>347.75</ele><time>2026-04-30T15:25:38.979Z</time></trkpt><trkpt lat="42.646143" lon="11.9882953"><ele>350.5</ele><time>2026-04-30T15:25:39.979Z</time></trkpt><trkpt lat="42.6462336" lon="11.9884435"><ele>353.25</ele><time>2026-04-30T15:25:40.98Z</time></trkpt><trkpt lat="42.6463454" lon="11.9885658"><ele>356.0</ele><time>2026-04-30T15:25:41.98Z</time></trkpt><trkpt lat="42.6464627" lon="11.9886687"><ele>356.0</ele><time>2026-04-30T15:25:42.979Z</time></trkpt><trkpt lat="42.6465843" lon="11.9887267"><ele>356.0</ele><time>2026-04-30T15:25:43.979Z</time></trkpt><trkpt lat="42.6466886" lon="11.9886829"><ele>356.0</ele><time>2026-04-30T15:25:44.98Z</time></trkpt><trkpt lat="42.6467712" lon="11.9886101"><ele>356.0</ele><time>2026-04-30T15:25:45.979Z</time></trkpt><trkpt lat="42.6468071" lon="11.988495"><ele>356.0</ele><time>2026-04-30T15:25:46.979Z</time></trkpt><trkpt lat="42.646769" lon="11.9883418"><ele>356.0</ele><time>2026-04-30T15:25:47.979Z</time></trkpt><trkpt lat="42.6466912" lon="11.988202"><ele>356.0</ele><time>2026-04-30T15:25:48.979Z</time></trkpt><trkpt lat="42.6465807" lon="11.9880786"><ele>356.0</ele><time>2026-04-30T15:25:49.979Z</time></trkpt><trkpt lat="42.6464648" lon="11.9879593"><ele>356.0</ele><time>2026-04-30T15:25:50.979Z</time></trkpt><trkpt lat="42.6463821" lon="11.9878232"><ele>356.0</ele><time>2026-04-30T15:25:51.979Z</time></trkpt><trkpt lat="42.6463348" lon="11.9876707"><ele>356.0</ele><time>2026-04-30T15:25:52.979Z</time></trkpt><trkpt lat="42.6463122" lon="11.9874976"><ele>356.0</ele><time>2026-04-30T15:25:53.98Z</time></trkpt><trkpt lat="42.6462999" lon="11.9872978"><ele>356.0</ele><time>2026-04-30T15:25:54.979Z</time></trkpt><trkpt lat="42.646284" lon="11.9870894"><ele>357.25</ele><time>2026-04-30T15:25:55.979Z</time></trkpt><trkpt lat="42.6462739" lon="11.9868862"><ele>358.5</ele><time>2026-04-30T15:25:56.979Z</time></trkpt><trkpt lat="42.6462664" lon="11.9867018"><ele>359.75</ele><time>2026-04-30T15:25:57.979Z</time></trkpt><trkpt lat="42.6462766" lon="11.9865334"><ele>361.0</ele><time>2026-04-30T15:25:58.98Z</time></trkpt><trkpt lat="42.6462936" lon="11.986381"><ele>361.0</ele><time>2026-04-30T15:25:59.979Z</time></trkpt><trkpt lat="42.6463131" lon="11.9862283"><ele>361.0</ele><time>2026-04-30T15:26:00.979Z</time></trkpt><trkpt lat="42.6463301" lon="11.9860813"><ele>361.0</ele><time>2026-04-30T15:26:01.979Z</time></trkpt><trkpt lat="42.6463441" lon="11.9859586"><ele>361.0</ele><time>2026-04-30T15:26:02.979Z</time></trkpt><trkpt lat="42.6463822" lon="11.985848"><ele>361.0</ele><time>2026-04-30T15:26:03.98Z</time></trkpt><trkpt lat="42.6464402" lon="11.9857418"><ele>360.0</ele><time>2026-04-30T15:26:04.979Z</time></trkpt><trkpt lat="42.6465246" lon="11.9856833"><ele>359.0</ele><time>2026-04-30T15:26:05.98Z</time></trkpt><trkpt lat="42.6466129" lon="11.9856518"><ele>358.0</ele><time>2026-04-30T15:26:06.979Z</time></trkpt><trkpt lat="42.6467309" lon="11.985679"><ele>357.0</ele><time>2026-04-30T15:26:07.979Z</time></trkpt><trkpt lat="42.6468729" lon="11.9857554"><ele>360.0</ele><time>2026-04-30T15:26:08.979Z</time></trkpt><trkpt lat="42.6470173" lon="11.9858568"><ele>363.0</ele><time>2026-04-30T15:26:09.979Z</time></trkpt><trkpt lat="42.6471537" lon="11.9859655"><ele>366.0</ele><time>2026-04-30T15:26:10.98Z</time></trkpt><trkpt lat="42.6472878" lon="11.9860885"><ele>366.0</ele><time>2026-04-30T15:26:11.98Z</time></trkpt><trkpt lat="42.6474183" lon="11.9862258"><ele>366.0</ele><time>2026-04-30T15:26:12.98Z</time></trkpt><trkpt lat="42.6475515" lon="11.9863757"><ele>366.0</ele><time>2026-04-30T15:26:13.979Z</time></trkpt><trkpt lat="42.6476845" lon="11.9865333"><ele>367.6666666666667</ele><time>2026-04-30T15:26:14.979Z</time></trkpt><trkpt lat="42.647826" lon="11.9866906"><ele>369.33333333333337</ele><time>2026-04-30T15:26:15.979Z</time></trkpt><trkpt lat="42.6479569" lon="11.986838"><ele>371.0</ele><time>2026-04-30T15:26:16.979Z</time></trkpt><trkpt lat="42.6480776" lon="11.9869282"><ele>371.0</ele><time>2026-04-30T15:26:17.98Z</time></trkpt><trkpt lat="42.6481911" lon="11.9869289"><ele>371.0</ele><time>2026-04-30T15:26:18.979Z</time></trkpt><trkpt lat="42.6482993" lon="11.9868548"><ele>371.0</ele><time>2026-04-30T15:26:19.979Z</time></trkpt><trkpt lat="42.6484348" lon="11.9867277"><ele>371.0</ele><time>2026-04-30T15:26:20.979Z</time></trkpt><trkpt lat="42.6485774" lon="11.986573"><ele>373.0</ele><time>2026-04-30T15:26:21.979Z</time></trkpt><trkpt lat="42.6487329" lon="11.9864144"><ele>375.0</ele><time>2026-04-30T15:26:22.979Z</time></trkpt><trkpt lat="42.6489098" lon="11.9862386"><ele>377.0</ele><time>2026-04-30T15:26:23.979Z</time></trkpt><trkpt lat="42.6491069" lon="11.9860586"><ele>377.0</ele><time>2026-04-30T15:26:24.98Z</time></trkpt><trkpt lat="42.6493151" lon="11.98587"><ele>377.0</ele><time>2026-04-30T15:26:25.98Z</time></trkpt><trkpt lat="42.6495267" lon="11.9856801"><ele>381.0</ele><time>2026-04-30T15:26:26.979Z</time></trkpt><trkpt lat="42.6497353" lon="11.985466"><ele>385.0</ele><time>2026-04-30T15:26:27.98Z</time></trkpt><trkpt lat="42.6499423" lon="11.9852334"><ele>385.0</ele><time>2026-04-30T15:26:28.979Z</time></trkpt><trkpt lat="42.6501371" lon="11.9849975"><ele>385.0</ele><time>2026-04-30T15:26:29.979Z</time></trkpt><trkpt lat="42.6503116" lon="11.9847799"><ele>385.0</ele><time>2026-04-30T15:26:30.98Z</time></trkpt><trkpt lat="42.6504713" lon="11.9845823"><ele>385.0</ele><time>2026-04-30T15:26:31.979Z</time></trkpt><trkpt lat="42.6506027" lon="11.9844236"><ele>385.0</ele><time>2026-04-30T15:26:32.979Z</time></trkpt><trkpt lat="42.6507359" lon="11.9843377"><ele>385.0</ele><time>2026-04-30T15:26:33.979Z</time></trkpt><trkpt lat="42.6508709" lon="11.9843394"><ele>385.0</ele><time>2026-04-30T15:26:34.98Z</time></trkpt><trkpt lat="42.6509857" lon="11.9844063"><ele>385.0</ele><time>2026-04-30T15:26:35.979Z</time></trkpt><trkpt lat="42.6510442" lon="11.9845393"><ele>385.0</ele><time>2026-04-30T15:26:36.979Z</time></trkpt><trkpt lat="42.6510375" lon="11.9847188"><ele>385.0</ele><time>2026-04-30T15:26:37.979Z</time></trkpt><trkpt lat="42.6509892" lon="11.9849104"><ele>385.0</ele><time>2026-04-30T15:26:38.979Z</time></trkpt><trkpt lat="42.6509009" lon="11.9851194"><ele>385.0</ele><time>2026-04-30T15:26:39.979Z</time></trkpt><trkpt lat="42.6507718" lon="11.9853118"><ele>387.33333333333337</ele><time>2026-04-30T15:26:40.979Z</time></trkpt><trkpt lat="42.6506329" lon="11.9854837"><ele>389.66666666666663</ele><time>2026-04-30T15:26:41.979Z</time></trkpt><trkpt lat="42.6505002" lon="11.985621"><ele>392.0</ele><time>2026-04-30T15:26:42.98Z</time></trkpt><trkpt lat="42.6503984" lon="11.9857445"><ele>391.6</ele><time>2026-04-30T15:26:43.98Z</time></trkpt><trkpt lat="42.6503175" lon="11.9858527"><ele>391.20000000000005</ele><time>2026-04-30T15:26:44.98Z</time></trkpt><trkpt lat="42.6502407" lon="11.9859513"><ele>390.8</ele><time>2026-04-30T15:26:45.98Z</time></trkpt><trkpt lat="42.6501693" lon="11.9860463"><ele>390.4</ele><time>2026-04-30T15:26:46.979Z</time></trkpt><trkpt lat="42.6501078" lon="11.9861452"><ele>390.0</ele><time>2026-04-30T15:26:47.979Z</time></trkpt><trkpt lat="42.6500641" lon="11.986259"><ele>390.0</ele><time>2026-04-30T15:26:48.979Z</time></trkpt><trkpt lat="42.6500529" lon="11.9864015"><ele>390.0</ele><time>2026-04-30T15:26:49.98Z</time></trkpt><trkpt lat="42.6500751" lon="11.986551"><ele>390.0</ele><time>2026-04-30T15:26:50.98Z</time></trkpt><trkpt lat="42.6501155" lon="11.9866963"><ele>390.0</ele><time>2026-04-30T15:26:51.979Z</time></trkpt><trkpt lat="42.6501645" lon="11.9868463"><ele>390.25</ele><time>2026-04-30T15:26:52.979Z</time></trkpt><trkpt lat="42.6502084" lon="11.9869984"><ele>390.5</ele><time>2026-04-30T15:26:53.979Z</time></trkpt><trkpt lat="42.6502551" lon="11.9871483"><ele>390.75</ele><time>2026-04-30T15:26:54.979Z</time></trkpt><trkpt lat="42.6503019" lon="11.9872987"><ele>391.0</ele><time>2026-04-30T15:26:55.98Z</time></trkpt><trkpt lat="42.6503389" lon="11.9874432"><ele>392.6</ele><time>2026-04-30T15:26:56.98Z</time></trkpt><trkpt lat="42.6503699" lon="11.9875851"><ele>394.20000000000005</ele><time>2026-04-30T15:26:57.979Z</time></trkpt><trkpt lat="42.6503836" lon="11.9877221"><ele>395.79999999999995</ele><time>2026-04-30T15:26:58.979Z</time></trkpt><trkpt lat="42.6503627" lon="11.9878636"><ele>397.4</ele><time>2026-04-30T15:26:59.979Z</time></trkpt><trkpt lat="42.6503077" lon="11.9880081"><ele>399.0</ele><time>2026-04-30T15:27:00.979Z</time></trkpt><trkpt lat="42.6502235" lon="11.9881669"><ele>401.66666666666663</ele><time>2026-04-30T15:27:01.979Z</time></trkpt><trkpt lat="42.6500967" lon="11.9883485"><ele>404.3333333333333</ele><time>2026-04-30T15:27:02.98Z</time></trkpt><trkpt lat="42.6499439" lon="11.9885403"><ele>407.0</ele><time>2026-04-30T15:27:03.979Z</time></trkpt><trkpt lat="42.6497755" lon="11.9887396"><ele>407.0</ele><time>2026-04-30T15:27:04.98Z</time></trkpt><trkpt lat="42.6496004" lon="11.9889456"><ele>407.0</ele><time>2026-04-30T15:27:05.98Z</time></trkpt><trkpt lat="42.6494304" lon="11.9891755"><ele>407.5</ele><time>2026-04-30T15:27:06.979Z</time></trkpt><trkpt lat="42.6492659" lon="11.9894138"><ele>408.0</ele><time>2026-04-30T15:27:07.979Z</time></trkpt><trkpt lat="42.6491235" lon="11.9896514"><ele>408.0</ele><time>2026-04-30T15:27:08.98Z</time></trkpt><trkpt lat="42.6490084" lon="11.9898894"><ele>408.0</ele><time>2026-04-30T15:27:09.98Z</time></trkpt><trkpt lat="42.6489199" lon="11.9901134"><ele>408.0</ele><time>2026-04-30T15:27:10.979Z</time></trkpt><trkpt lat="42.6488696" lon="11.9903183"><ele>407.5</ele><time>2026-04-30T15:27:11.979Z</time></trkpt><trkpt lat="42.6488689" lon="11.9905087"><ele>407.0</ele><time>2026-04-30T15:27:12.98Z</time></trkpt><trkpt lat="42.6489175" lon="11.9906694"><ele>406.5</ele><time>2026-04-30T15:27:13.979Z</time></trkpt><trkpt lat="42.6490239" lon="11.9907974"><ele>406.0</ele><time>2026-04-30T15:27:14.979Z</time></trkpt><trkpt lat="42.6491496" lon="11.9909284"><ele>405.6666666666667</ele><time>2026-04-30T15:27:15.98Z</time></trkpt><trkpt lat="42.6492473" lon="11.9911111"><ele>405.33333333333337</ele><time>2026-04-30T15:27:16.98Z</time></trkpt><trkpt lat="42.6493216" lon="11.9913323"><ele>405.0</ele><time>2026-04-30T15:27:17.979Z</time></trkpt><trkpt lat="42.6494378" lon="11.9915418"><ele>410.0</ele><time>2026-04-30T15:27:18.98Z</time></trkpt><trkpt lat="42.6496028" lon="11.991727"><ele>415.0</ele><time>2026-04-30T15:27:19.979Z</time></trkpt><trkpt lat="42.6497826" lon="11.9918893"><ele>420.0</ele><time>2026-04-30T15:27:20.979Z</time></trkpt><trkpt lat="42.6499696" lon="11.9920218"><ele>420.0</ele><time>2026-04-30T15:27:21.979Z</time></trkpt><trkpt lat="42.6501552" lon="11.9921043"><ele>420.0</ele><time>2026-04-30T15:27:22.979Z</time></trkpt><trkpt lat="42.6503284" lon="11.9921081"><ele>420.0</ele><time>2026-04-30T15:27:23.979Z</time></trkpt><trkpt lat="42.6504782" lon="11.9920916"><ele>421.5</ele><time>2026-04-30T15:27:24.979Z</time></trkpt><trkpt lat="42.6506107" lon="11.9921374"><ele>423.0</ele><time>2026-04-30T15:27:25.979Z</time></trkpt><trkpt lat="42.650708" lon="11.9922358"><ele>424.5</ele><time>2026-04-30T15:27:26.979Z</time></trkpt><trkpt lat="42.6507519" lon="11.9923955"><ele>426.0</ele><time>2026-04-30T15:27:27.979Z</time></trkpt><trkpt lat="42.6507384" lon="11.9925753"><ele>427.5</ele><time>2026-04-30T15:27:28.979Z</time></trkpt><trkpt lat="42.6506649" lon="11.9927204"><ele>429.0</ele><time>2026-04-30T15:27:29.98Z</time></trkpt><trkpt lat="42.6505524" lon="11.9928255"><ele>430.5</ele><time>2026-04-30T15:27:30.98Z</time></trkpt><trkpt lat="42.6503934" lon="11.9928715"><ele>432.0</ele><time>2026-04-30T15:27:31.979Z</time></trkpt><trkpt lat="42.6502056" lon="11.9928862"><ele>432.0</ele><time>2026-04-30T15:27:32.979Z</time></trkpt><trkpt lat="42.6500186" lon="11.9928736"><ele>432.0</ele><time>2026-04-30T15:27:33.979Z</time></trkpt><trkpt lat="42.6498444" lon="11.9928646"><ele>432.0</ele><time>2026-04-30T15:27:34.979Z</time></trkpt><trkpt lat="42.6496815" lon="11.992881"><ele>432.0</ele><time>2026-04-30T15:27:35.979Z</time></trkpt><trkpt lat="42.6495416" lon="11.9929566"><ele>432.0</ele><time>2026-04-30T15:27:36.979Z</time></trkpt><trkpt lat="42.649443" lon="11.9931202"><ele>432.0</ele><time>2026-04-30T15:27:37.979Z</time></trkpt><trkpt lat="42.6493819" lon="11.9933576"><ele>432.33333333333337</ele><time>2026-04-30T15:27:38.979Z</time></trkpt><trkpt lat="42.6493315" lon="11.993635"><ele>432.6666666666667</ele><time>2026-04-30T15:27:39.979Z</time></trkpt><trkpt lat="42.649273" lon="11.993936"><ele>433.0</ele><time>2026-04-30T15:27:40.979Z</time></trkpt><trkpt lat="42.6492156" lon="11.9942494"><ele>433.0</ele><time>2026-04-30T15:27:41.979Z</time></trkpt><trkpt lat="42.6491575" lon="11.9945771"><ele>433.0</ele><time>2026-04-30T15:27:42.98Z</time></trkpt><trkpt lat="42.6490951" lon="11.9949141"><ele>436.5</ele><time>2026-04-30T15:27:43.979Z</time></trkpt><trkpt lat="42.6490248" lon="11.9952487"><ele>440.0</ele><time>2026-04-30T15:27:44.979Z</time></trkpt><trkpt lat="42.6489463" lon="11.995564"><ele>440.66666666666663</ele><time>2026-04-30T15:27:45.979Z</time></trkpt><trkpt lat="42.6488764" lon="11.9958455"><ele>441.33333333333337</ele><time>2026-04-30T15:27:46.979Z</time></trkpt><trkpt lat="42.6488514" lon="11.9961061"><ele>442.0</ele><time>2026-04-30T15:27:47.979Z</time></trkpt><trkpt lat="42.6488965" lon="11.9963522"><ele>442.0</ele><time>2026-04-30T15:27:48.98Z</time></trkpt><trkpt lat="42.649009" lon="11.9965867"><ele>442.0</ele><time>2026-04-30T15:27:49.979Z</time></trkpt><trkpt lat="42.6491358" lon="11.9968249"><ele>442.0</ele><time>2026-04-30T15:27:50.979Z</time></trkpt><trkpt lat="42.6492323" lon="11.9971065"><ele>443.33333333333337</ele><time>2026-04-30T15:27:51.98Z</time></trkpt><trkpt lat="42.6492748" lon="11.9973938"><ele>444.66666666666663</ele><time>2026-04-30T15:27:52.979Z</time></trkpt><trkpt lat="42.6493047" lon="11.9976675"><ele>446.0</ele><time>2026-04-30T15:27:53.979Z</time></trkpt><trkpt lat="42.6493019" lon="11.9979259"><ele>449.66666666666663</ele><time>2026-04-30T15:27:54.979Z</time></trkpt><trkpt lat="42.6492576" lon="11.9981566"><ele>453.33333333333337</ele><time>2026-04-30T15:27:55.979Z</time></trkpt><trkpt lat="42.6491536" lon="11.9983287"><ele>457.0</ele><time>2026-04-30T15:27:56.979Z</time></trkpt><trkpt lat="42.6490269" lon="11.9984519"><ele>457.0</ele><time>2026-04-30T15:27:57.979Z</time></trkpt><trkpt lat="42.648832" lon="11.9984339"><ele>457.0</ele><time>2026-04-30T15:27:58.979Z</time></trkpt><trkpt lat="42.6486058" lon="11.9983259"><ele>457.0</ele><time>2026-04-30T15:27:59.979Z</time></trkpt><trkpt lat="42.6483691" lon="11.9982013"><ele>457.0</ele><time>2026-04-30T15:28:00.979Z</time></trkpt><trkpt lat="42.6481521" lon="11.9980948"><ele>457.0</ele><time>2026-04-30T15:28:01.979Z</time></trkpt><trkpt lat="42.6479419" lon="11.9980219"><ele>457.0</ele><time>2026-04-30T15:28:02.979Z</time></trkpt><trkpt lat="42.6477376" lon="11.9980072"><ele>456.6666666666667</ele><time>2026-04-30T15:28:03.979Z</time></trkpt><trkpt lat="42.6475494" lon="11.9980605"><ele>456.33333333333337</ele><time>2026-04-30T15:28:04.979Z</time></trkpt><trkpt lat="42.6473862" lon="11.998183"><ele>456.0</ele><time>2026-04-30T15:28:05.979Z</time></trkpt><trkpt lat="42.6472324" lon="11.9983648"><ele>458.0</ele><time>2026-04-30T15:28:06.979Z</time></trkpt><trkpt lat="42.6470768" lon="11.9985771"><ele>460.0</ele><time>2026-04-30T15:28:07.979Z</time></trkpt><trkpt lat="42.6469173" lon="11.9988053"><ele>460.0</ele><time>2026-04-30T15:28:08.98Z</time></trkpt><trkpt lat="42.6467535" lon="11.9990344"><ele>460.0</ele><time>2026-04-30T15:28:09.98Z</time></trkpt><trkpt lat="42.6466044" lon="11.9992307"><ele>460.0</ele><time>2026-04-30T15:28:10.979Z</time></trkpt><trkpt lat="42.6464811" lon="11.9994084"><ele>460.33333333333337</ele><time>2026-04-30T15:28:11.98Z</time></trkpt><trkpt lat="42.6464321" lon="11.999592"><ele>460.66666666666663</ele><time>2026-04-30T15:28:12.979Z</time></trkpt><trkpt lat="42.6464576" lon="11.999793"><ele>461.0</ele><time>2026-04-30T15:28:13.98Z</time></trkpt><trkpt lat="42.6465577" lon="11.9999628"><ele>461.0</ele><time>2026-04-30T15:28:14.979Z</time></trkpt><trkpt lat="42.6467124" lon="12.0001006"><ele>461.0</ele><time>2026-04-30T15:28:15.98Z</time></trkpt><trkpt lat="42.6468926" lon="12.0001993"><ele>461.0</ele><time>2026-04-30T15:28:16.98Z</time></trkpt><trkpt lat="42.6470593" lon="12.0003035"><ele>465.0</ele><time>2026-04-30T15:28:17.979Z</time></trkpt><trkpt lat="42.6471937" lon="12.000437"><ele>469.0</ele><time>2026-04-30T15:28:18.979Z</time></trkpt><trkpt lat="42.6472709" lon="12.0006101"><ele>473.0</ele><time>2026-04-30T15:28:19.979Z</time></trkpt><trkpt lat="42.6472793" lon="12.0008247"><ele>473.3333333333333</ele><time>2026-04-30T15:28:20.979Z</time></trkpt><trkpt lat="42.6472252" lon="12.0010531"><ele>473.66666666666663</ele><time>2026-04-30T15:28:21.979Z</time></trkpt><trkpt lat="42.6471198" lon="12.0012845"><ele>474.0</ele><time>2026-04-30T15:28:22.979Z</time></trkpt><trkpt lat="42.6470014" lon="12.0015325"><ele>468.5</ele><time>2026-04-30T15:28:23.979Z</time></trkpt><trkpt lat="42.6468792" lon="12.0017969"><ele>463.0</ele><time>2026-04-30T15:28:24.98Z</time></trkpt><trkpt lat="42.6467694" lon="12.002079"><ele>463.0</ele><time>2026-04-30T15:28:25.979Z</time></trkpt><trkpt lat="42.6466897" lon="12.0023938"><ele>463.0</ele><time>2026-04-30T15:28:26.98Z</time></trkpt><trkpt lat="42.6466354" lon="12.0027349"><ele>467.5</ele><time>2026-04-30T15:28:27.979Z</time></trkpt><trkpt lat="42.6466051" lon="12.0030954"><ele>472.0</ele><time>2026-04-30T15:28:28.979Z</time></trkpt><trkpt lat="42.6466" lon="12.003448"><ele>474.33333333333337</ele><time>2026-04-30T15:28:29.979Z</time></trkpt><trkpt lat="42.6466039" lon="12.0037661"><ele>476.66666666666663</ele><time>2026-04-30T15:28:30.979Z</time></trkpt><trkpt lat="42.646601" lon="12.0040534"><ele>479.0</ele><time>2026-04-30T15:28:31.979Z</time></trkpt><trkpt lat="42.6465781" lon="12.0043132"><ele>481.66666666666663</ele><time>2026-04-30T15:28:32.98Z</time></trkpt><trkpt lat="42.6465196" lon="12.00453"><ele>484.33333333333337</ele><time>2026-04-30T15:28:33.979Z</time></trkpt><trkpt lat="42.6464284" lon="12.0046848"><ele>487.0</ele><time>2026-04-30T15:28:34.979Z</time></trkpt><trkpt lat="42.6462881" lon="12.0047831"><ele>483.6666666666667</ele><time>2026-04-30T15:28:35.979Z</time></trkpt><trkpt lat="42.6461245" lon="12.0048714"><ele>480.33333333333337</ele><time>2026-04-30T15:28:36.979Z</time></trkpt><trkpt lat="42.6459399" lon="12.0049867"><ele>477.0</ele><time>2026-04-30T15:28:37.979Z</time></trkpt><trkpt lat="42.6457414" lon="12.0051413"><ele>477.0</ele><time>2026-04-30T15:28:38.979Z</time></trkpt><trkpt lat="42.6455453" lon="12.0053147"><ele>477.0</ele><time>2026-04-30T15:28:39.979Z</time></trkpt><trkpt lat="42.6453376" lon="12.0054901"><ele>479.0</ele><time>2026-04-30T15:28:40.979Z</time></trkpt><trkpt lat="42.6451346" lon="12.0056737"><ele>481.0</ele><time>2026-04-30T15:28:41.98Z</time></trkpt><trkpt lat="42.644953" lon="12.0058655"><ele>481.0</ele><time>2026-04-30T15:28:42.979Z</time></trkpt><trkpt lat="42.6447835" lon="12.0060799"><ele>481.0</ele><time>2026-04-30T15:28:43.979Z</time></trkpt><trkpt lat="42.6446539" lon="12.0063323"><ele>481.0</ele><time>2026-04-30T15:28:44.979Z</time></trkpt><trkpt lat="42.6445555" lon="12.0066263"><ele>481.0</ele><time>2026-04-30T15:28:45.979Z</time></trkpt><trkpt lat="42.6445109" lon="12.0069606"><ele>482.5</ele><time>2026-04-30T15:28:46.979Z</time></trkpt><trkpt lat="42.644465" lon="12.0073126"><ele>484.0</ele><time>2026-04-30T15:28:47.979Z</time></trkpt><trkpt lat="42.6444288" lon="12.0076806"><ele>484.0</ele><time>2026-04-30T15:28:48.98Z</time></trkpt><trkpt lat="42.6443892" lon="12.0080571"><ele>484.0</ele><time>2026-04-30T15:28:49.979Z</time></trkpt><trkpt lat="42.6443426" lon="12.0084113"><ele>485.0</ele><time>2026-04-30T15:28:50.979Z</time></trkpt><trkpt lat="42.6442993" lon="12.0087409"><ele>486.0</ele><time>2026-04-30T15:28:51.979Z</time></trkpt><trkpt lat="42.6442536" lon="12.0090456"><ele>487.66666666666663</ele><time>2026-04-30T15:28:52.979Z</time></trkpt><trkpt lat="42.6442163" lon="12.0093343"><ele>489.3333333333333</ele><time>2026-04-30T15:28:53.979Z</time></trkpt><trkpt lat="42.6442007" lon="12.0096187"><ele>491.0</ele><time>2026-04-30T15:28:54.979Z</time></trkpt><trkpt lat="42.6442293" lon="12.0098937"><ele>491.66666666666663</ele><time>2026-04-30T15:28:55.979Z</time></trkpt><trkpt lat="42.644321" lon="12.0101591"><ele>492.33333333333337</ele><time>2026-04-30T15:28:56.98Z</time></trkpt><trkpt lat="42.6444609" lon="12.0104037"><ele>493.0</ele><time>2026-04-30T15:28:57.979Z</time></trkpt><trkpt lat="42.6446447" lon="12.0106414"><ele>497.5</ele><time>2026-04-30T15:28:58.979Z</time></trkpt><trkpt lat="42.6448335" lon="12.0108668"><ele>502.0</ele><time>2026-04-30T15:28:59.979Z</time></trkpt><trkpt lat="42.6450072" lon="12.0110684"><ele>502.0</ele><time>2026-04-30T15:29:00.979Z</time></trkpt><trkpt lat="42.645181" lon="12.0112249"><ele>502.0</ele><time>2026-04-30T15:29:01.979Z</time></trkpt><trkpt lat="42.6453617" lon="12.0113141"><ele>502.0</ele><time>2026-04-30T15:29:02.979Z</time></trkpt><trkpt lat="42.6455644" lon="12.0113327"><ele>505.0</ele><time>2026-04-30T15:29:03.979Z</time></trkpt><trkpt lat="42.6457764" lon="12.0113018"><ele>508.0</ele><time>2026-04-30T15:29:04.979Z</time></trkpt><trkpt lat="42.6459866" lon="12.0112983"><ele>511.0</ele><time>2026-04-30T15:29:05.979Z</time></trkpt><trkpt lat="42.6461908" lon="12.011348"><ele>511.33333333333337</ele><time>2026-04-30T15:29:06.979Z</time></trkpt><trkpt lat="42.6463812" lon="12.0114492"><ele>511.66666666666663</ele><time>2026-04-30T15:29:07.98Z</time></trkpt><trkpt lat="42.6465373" lon="12.0116188"><ele>512.0</ele><time>2026-04-30T15:29:08.979Z</time></trkpt><trkpt lat="42.6466696" lon="12.0118666"><ele>509.0</ele><time>2026-04-30T15:29:09.979Z</time></trkpt><trkpt lat="42.6467695" lon="12.0121411"><ele>506.0</ele><time>2026-04-30T15:29:10.979Z</time></trkpt><trkpt lat="42.6468222" lon="12.0124649"><ele>508.5</ele><time>2026-04-30T15:29:11.979Z</time></trkpt><trkpt lat="42.6468493" lon="12.0128111"><ele>511.0</ele><time>2026-04-30T15:29:12.979Z</time></trkpt><trkpt lat="42.6468754" lon="12.0131741"><ele>513.0</ele><time>2026-04-30T15:29:13.979Z</time></trkpt><trkpt lat="42.6469208" lon="12.0135269"><ele>515.0</ele><time>2026-04-30T15:29:14.979Z</time></trkpt><trkpt lat="42.6469785" lon="12.013864"><ele>522.5</ele><time>2026-04-30T15:29:15.979Z</time></trkpt><trkpt lat="42.6470229" lon="12.014213"><ele>530.0</ele><time>2026-04-30T15:29:16.979Z</time></trkpt><trkpt lat="42.6470216" lon="12.0145764"><ele>530.0</ele><time>2026-04-30T15:29:17.979Z</time></trkpt><trkpt lat="42.64698" lon="12.0149336"><ele>530.0</ele><time>2026-04-30T15:29:18.98Z</time></trkpt><trkpt lat="42.6468997" lon="12.0152852"><ele>529.5</ele><time>2026-04-30T15:29:19.979Z</time></trkpt><trkpt lat="42.6467993" lon="12.0156269"><ele>529.0</ele><time>2026-04-30T15:29:20.979Z</time></trkpt><trkpt lat="42.6466699" lon="12.0159547"><ele>529.0</ele><time>2026-04-30T15:29:21.979Z</time></trkpt><trkpt lat="42.6465147" lon="12.0162531"><ele>529.0</ele><time>2026-04-30T15:29:22.979Z</time></trkpt><trkpt lat="42.6463333" lon="12.0164919"><ele>530.5</ele><time>2026-04-30T15:29:23.979Z</time></trkpt><trkpt lat="42.6461206" lon="12.016661"><ele>532.0</ele><time>2026-04-30T15:29:24.979Z</time></trkpt><trkpt lat="42.6458993" lon="12.0168026"><ele>532.0</ele><time>2026-04-30T15:29:25.979Z</time></trkpt><trkpt lat="42.6456784" lon="12.0169569"><ele>532.0</ele><time>2026-04-30T15:29:26.979Z</time></trkpt><trkpt lat="42.6454969" lon="12.0171568"><ele>532.0</ele><time>2026-04-30T15:29:27.979Z</time></trkpt><trkpt lat="42.6453809" lon="12.0173915"><ele>532.0</ele><time>2026-04-30T15:29:28.979Z</time></trkpt><trkpt lat="42.6453055" lon="12.0176547"><ele>532.0</ele><time>2026-04-30T15:29:29.98Z</time></trkpt><trkpt lat="42.6452773" lon="12.0179627"><ele>530.5</ele><time>2026-04-30T15:29:30.98Z</time></trkpt><trkpt lat="42.6452824" lon="12.0183043"><ele>529.0</ele><time>2026-04-30T15:29:31.979Z</time></trkpt><trkpt lat="42.6452946" lon="12.018669"><ele>533.0</ele><time>2026-04-30T15:29:32.979Z</time></trkpt><trkpt lat="42.6452998" lon="12.0190425"><ele>537.0</ele><time>2026-04-30T15:29:33.979Z</time></trkpt><trkpt lat="42.6453029" lon="12.0194225"><ele>537.0</ele><time>2026-04-30T15:29:34.98Z</time></trkpt><trkpt lat="42.6452965" lon="12.019791"><ele>537.0</ele><time>2026-04-30T15:29:35.979Z</time></trkpt><trkpt lat="42.6452544" lon="12.020134"><ele>540.3333333333334</ele><time>2026-04-30T15:29:36.98Z</time></trkpt><trkpt lat="42.6451537" lon="12.0204161"><ele>543.6666666666667</ele><time>2026-04-30T15:29:37.979Z</time></trkpt><trkpt lat="42.6450147" lon="12.0206434"><ele>547.0</ele><time>2026-04-30T15:29:38.979Z</time></trkpt><trkpt lat="42.6448364" lon="12.0208175"><ele>549.0</ele><time>2026-04-30T15:29:39.979Z</time></trkpt><trkpt lat="42.6446353" lon="12.020973"><ele>551.0</ele><time>2026-04-30T15:29:40.979Z</time></trkpt><trkpt lat="42.6444391" lon="12.0211521"><ele>556.0</ele><time>2026-04-30T15:29:41.98Z</time></trkpt><trkpt lat="42.6442576" lon="12.0213742"><ele>561.0</ele><time>2026-04-30T15:29:42.979Z</time></trkpt><trkpt lat="42.644116" lon="12.0216507"><ele>562.5</ele><time>2026-04-30T15:29:43.98Z</time></trkpt><trkpt lat="42.6440045" lon="12.0219594"><ele>564.0</ele><time>2026-04-30T15:29:44.98Z</time></trkpt><trkpt lat="42.6439415" lon="12.0223063"><ele>565.5</ele><time>2026-04-30T15:29:45.98Z</time></trkpt><trkpt lat="42.6439184" lon="12.0226769"><ele>567.0</ele><time>2026-04-30T15:29:46.979Z</time></trkpt><trkpt lat="42.6438962" lon="12.0230616"><ele>569.0</ele><time>2026-04-30T15:29:47.979Z</time></trkpt><trkpt lat="42.6438737" lon="12.0234613"><ele>571.0</ele><time>2026-04-30T15:29:48.979Z</time></trkpt><trkpt lat="42.6438438" lon="12.0238666"><ele>573.0</ele><time>2026-04-30T15:29:49.979Z</time></trkpt><trkpt lat="42.643817" lon="12.0242888"><ele>575.0</ele><time>2026-04-30T15:29:50.979Z</time></trkpt><trkpt lat="42.6437799" lon="12.0247162"><ele>578.0</ele><time>2026-04-30T15:29:51.979Z</time></trkpt><trkpt lat="42.6437415" lon="12.0251572"><ele>581.0</ele><time>2026-04-30T15:29:52.98Z</time></trkpt><trkpt lat="42.6437121" lon="12.0256029"><ele>581.0</ele><time>2026-04-30T15:29:53.979Z</time></trkpt><trkpt lat="42.643682" lon="12.026046"><ele>581.0</ele><time>2026-04-30T15:29:54.979Z</time></trkpt><trkpt lat="42.6436463" lon="12.0264591"><ele>582.5</ele><time>2026-04-30T15:29:55.98Z</time></trkpt><trkpt lat="42.6435999" lon="12.0268609"><ele>584.0</ele><time>2026-04-30T15:29:56.98Z</time></trkpt><trkpt lat="42.6435381" lon="12.0272493"><ele>587.0</ele><time>2026-04-30T15:29:57.98Z</time></trkpt><trkpt lat="42.6434591" lon="12.0276279"><ele>590.0</ele><time>2026-04-30T15:29:58.979Z</time></trkpt><trkpt lat="42.6433556" lon="12.0279969"><ele>590.5</ele><time>2026-04-30T15:29:59.979Z</time></trkpt><trkpt lat="42.6432466" lon="12.0283537"><ele>591.0</ele><time>2026-04-30T15:30:00.979Z</time></trkpt><trkpt lat="42.6431297" lon="12.0287015"><ele>591.0</ele><time>2026-04-30T15:30:01.979Z</time></trkpt><trkpt lat="42.643023" lon="12.0290354"><ele>591.0</ele><time>2026-04-30T15:30:02.98Z</time></trkpt><trkpt lat="42.6429211" lon="12.029354"><ele>590.6666666666666</ele><time>2026-04-30T15:30:03.98Z</time></trkpt><trkpt lat="42.6428375" lon="12.0296482"><ele>590.3333333333333</ele><time>2026-04-30T15:30:04.98Z</time></trkpt><trkpt lat="42.6427881" lon="12.02993"><ele>590.0</ele><time>2026-04-30T15:30:05.979Z</time></trkpt><trkpt lat="42.6427766" lon="12.0302093"><ele>588.0</ele><time>2026-04-30T15:30:06.979Z</time></trkpt><trkpt lat="42.6428081" lon="12.030466"><ele>586.0</ele><time>2026-04-30T15:30:07.98Z</time></trkpt><trkpt lat="42.6428684" lon="12.0307133"><ele>584.0</ele><time>2026-04-30T15:30:08.979Z</time></trkpt><trkpt lat="42.6429664" lon="12.0309662"><ele>583.3333333333333</ele><time>2026-04-30T15:30:09.979Z</time></trkpt><trkpt lat="42.6430791" lon="12.031226"><ele>582.6666666666666</ele><time>2026-04-30T15:30:10.979Z</time></trkpt><trkpt lat="42.643167" lon="12.0315052"><ele>582.0</ele><time>2026-04-30T15:30:11.98Z</time></trkpt><trkpt lat="42.6432291" lon="12.0318034"><ele>581.5</ele><time>2026-04-30T15:30:12.979Z</time></trkpt><trkpt lat="42.643276" lon="12.0321193"><ele>581.0</ele><time>2026-04-30T15:30:13.979Z</time></trkpt><trkpt lat="42.643317" lon="12.0324301"><ele>580.3333333333333</ele><time>2026-04-30T15:30:14.979Z</time></trkpt><trkpt lat="42.6433618" lon="12.0327375"><ele>579.6666666666666</ele><time>2026-04-30T15:30:15.979Z</time></trkpt><trkpt lat="42.6433898" lon="12.0330114"><ele>579.0</ele><time>2026-04-30T15:30:16.979Z</time></trkpt><trkpt lat="42.6434165" lon="12.0332569"><ele>578.0</ele><time>2026-04-30T15:30:17.98Z</time></trkpt><trkpt lat="42.6434398" lon="12.0334785"><ele>577.0</ele><time>2026-04-30T15:30:18.98Z</time></trkpt><trkpt lat="42.6434617" lon="12.0336723"><ele>576.0</ele><time>2026-04-30T15:30:19.979Z</time></trkpt><trkpt lat="42.643474" lon="12.0338241"><ele>575.0</ele><time>2026-04-30T15:30:20.98Z</time></trkpt><trkpt lat="42.6434828" lon="12.0339402"><ele>575.0</ele><time>2026-04-30T15:30:21.979Z</time></trkpt><trkpt lat="42.6434997" lon="12.0340667"><ele>575.0</ele><time>2026-04-30T15:30:23.979Z</time></trkpt><trkpt lat="42.6435519" lon="12.0341298"><ele>575.0</ele><time>2026-04-30T15:30:25.98Z</time></trkpt><trkpt lat="42.6436181" lon="12.0341492"><ele>575.0</ele><time>2026-04-30T15:30:26.979Z</time></trkpt><trkpt lat="42.643714" lon="12.0341429"><ele>575.0</ele><time>2026-04-30T15:30:27.979Z</time></trkpt><trkpt lat="42.6438448" lon="12.0341066"><ele>574.3333333333333</ele><time>2026-04-30T15:30:28.979Z</time></trkpt><trkpt lat="42.6439945" lon="12.0340521"><ele>573.6666666666666</ele><time>2026-04-30T15:30:29.979Z</time></trkpt><trkpt lat="42.6441475" lon="12.0339936"><ele>573.0</ele><time>2026-04-30T15:30:30.979Z</time></trkpt><trkpt lat="42.6443195" lon="12.0339341"><ele>572.0</ele><time>2026-04-30T15:30:31.979Z</time></trkpt><trkpt lat="42.6445032" lon="12.0338576"><ele>571.0</ele><time>2026-04-30T15:30:32.979Z</time></trkpt><trkpt lat="42.6446894" lon="12.033769"><ele>570.0</ele><time>2026-04-30T15:30:33.979Z</time></trkpt><trkpt lat="42.6448838" lon="12.0336606"><ele>570.0</ele><time>2026-04-30T15:30:34.979Z</time></trkpt><trkpt lat="42.6450804" lon="12.0335399"><ele>570.0</ele><time>2026-04-30T15:30:35.979Z</time></trkpt><trkpt lat="42.6452888" lon="12.0334008"><ele>570.0</ele><time>2026-04-30T15:30:36.98Z</time></trkpt><trkpt lat="42.6455084" lon="12.0332502"><ele>568.5</ele><time>2026-04-30T15:30:37.98Z</time></trkpt><trkpt lat="42.6457371" lon="12.0331012"><ele>567.0</ele><time>2026-04-30T15:30:38.98Z</time></trkpt><trkpt lat="42.6459734" lon="12.0329602"><ele>566.5</ele><time>2026-04-30T15:30:39.979Z</time></trkpt><trkpt lat="42.6462164" lon="12.0328296"><ele>566.0</ele><time>2026-04-30T15:30:40.979Z</time></trkpt><trkpt lat="42.6464521" lon="12.032691"><ele>566.0</ele><time>2026-04-30T15:30:41.979Z</time></trkpt><trkpt lat="42.6466708" lon="12.0325518"><ele>566.0</ele><time>2026-04-30T15:30:42.98Z</time></trkpt><trkpt lat="42.6468758" lon="12.0324078"><ele>565.0</ele><time>2026-04-30T15:30:43.98Z</time></trkpt><trkpt lat="42.6470758" lon="12.0322596"><ele>564.0</ele><time>2026-04-30T15:30:44.979Z</time></trkpt><trkpt lat="42.6472865" lon="12.0320943"><ele>564.0</ele><time>2026-04-30T15:30:45.98Z</time></trkpt><trkpt lat="42.6475085" lon="12.0319088"><ele>564.0</ele><time>2026-04-30T15:30:46.979Z</time></trkpt><trkpt lat="42.6477502" lon="12.0317237"><ele>562.5</ele><time>2026-04-30T15:30:47.98Z</time></trkpt><trkpt lat="42.6480116" lon="12.0315413"><ele>561.0</ele><time>2026-04-30T15:30:48.979Z</time></trkpt><trkpt lat="42.6482759" lon="12.0313557"><ele>561.0</ele><time>2026-04-30T15:30:49.98Z</time></trkpt><trkpt lat="42.6485489" lon="12.0311691"><ele>561.0</ele><time>2026-04-30T15:30:50.979Z</time></trkpt><trkpt lat="42.6488317" lon="12.0309953"><ele>561.0</ele><time>2026-04-30T15:30:51.979Z</time></trkpt><trkpt lat="42.6491392" lon="12.0308502"><ele>561.0</ele><time>2026-04-30T15:30:52.979Z</time></trkpt><trkpt lat="42.6494674" lon="12.0307445"><ele>561.0</ele><time>2026-04-30T15:30:53.979Z</time></trkpt><trkpt lat="42.6498147" lon="12.0306884"><ele>561.0</ele><time>2026-04-30T15:30:54.979Z</time></trkpt><trkpt lat="42.6501853" lon="12.0306841"><ele>563.5</ele><time>2026-04-30T15:30:55.979Z</time></trkpt><trkpt lat="42.65056" lon="12.0307167"><ele>566.0</ele><time>2026-04-30T15:30:56.979Z</time></trkpt><trkpt lat="42.6509464" lon="12.0307739"><ele>563.0</ele><time>2026-04-30T15:30:57.98Z</time></trkpt><trkpt lat="42.6513386" lon="12.0308494"><ele>560.0</ele><time>2026-04-30T15:30:58.979Z</time></trkpt><trkpt lat="42.6517329" lon="12.0309275"><ele>559.5</ele><time>2026-04-30T15:30:59.979Z</time></trkpt><trkpt lat="42.6521284" lon="12.0310097"><ele>559.0</ele><time>2026-04-30T15:31:00.979Z</time></trkpt><trkpt lat="42.6525313" lon="12.0310921"><ele>556.0</ele><time>2026-04-30T15:31:01.979Z</time></trkpt><trkpt lat="42.6529427" lon="12.0311721"><ele>553.0</ele><time>2026-04-30T15:31:02.979Z</time></trkpt><trkpt lat="42.653366" lon="12.031252"><ele>551.5</ele><time>2026-04-30T15:31:03.98Z</time></trkpt><trkpt lat="42.6537916" lon="12.031333"><ele>550.0</ele><time>2026-04-30T15:31:04.98Z</time></trkpt><trkpt lat="42.6542243" lon="12.0314137"><ele>548.0</ele><time>2026-04-30T15:31:05.979Z</time></trkpt><trkpt lat="42.6546622" lon="12.0314966"><ele>546.0</ele><time>2026-04-30T15:31:06.979Z</time></trkpt><trkpt lat="42.6551094" lon="12.031577"><ele>548.0</ele><time>2026-04-30T15:31:07.98Z</time></trkpt><trkpt lat="42.6555656" lon="12.0316424"><ele>548.0</ele><time>2026-04-30T15:31:08.979Z</time></trkpt><trkpt lat="42.6560241" lon="12.0316796"><ele>545.0</ele><time>2026-04-30T15:31:09.979Z</time></trkpt><trkpt lat="42.6564873" lon="12.0316994"><ele>541.0</ele><time>2026-04-30T15:31:10.979Z</time></trkpt><trkpt lat="42.6569544" lon="12.0317067"><ele>541.0</ele><time>2026-04-30T15:31:11.979Z</time></trkpt><trkpt lat="42.6574306" lon="12.0317044"><ele>540.0</ele><time>2026-04-30T15:31:12.979Z</time></trkpt><trkpt lat="42.6579041" lon="12.0316967"><ele>540.0</ele><time>2026-04-30T15:31:13.979Z</time></trkpt><trkpt lat="42.6583581" lon="12.0316876"><ele>540.5</ele><time>2026-04-30T15:31:14.979Z</time></trkpt><trkpt lat="42.658776" lon="12.0316903"><ele>541.0</ele><time>2026-04-30T15:31:15.98Z</time></trkpt><trkpt lat="42.6591581" lon="12.0316906"><ele>543.0</ele><time>2026-04-30T15:31:16.979Z</time></trkpt><trkpt lat="42.6595101" lon="12.0316863"><ele>545.0</ele><time>2026-04-30T15:31:17.979Z</time></trkpt><trkpt lat="42.6598389" lon="12.0316828"><ele>545.0</ele><time>2026-04-30T15:31:18.98Z</time></trkpt><trkpt lat="42.6601415" lon="12.0316808"><ele>545.0</ele><time>2026-04-30T15:31:19.979Z</time></trkpt><trkpt lat="42.6604361" lon="12.031683"><ele>547.0</ele><time>2026-04-30T15:31:20.98Z</time></trkpt><trkpt lat="42.6607229" lon="12.0316813"><ele>549.0</ele><time>2026-04-30T15:31:21.979Z</time></trkpt><trkpt lat="42.6610018" lon="12.0316749"><ele>547.5</ele><time>2026-04-30T15:31:22.979Z</time></trkpt><trkpt lat="42.6612751" lon="12.0316647"><ele>546.0</ele><time>2026-04-30T15:31:23.979Z</time></trkpt><trkpt lat="42.6615461" lon="12.0316575"><ele>546.0</ele><time>2026-04-30T15:31:24.98Z</time></trkpt><trkpt lat="42.6618222" lon="12.0316667"><ele>546.0</ele><time>2026-04-30T15:31:25.979Z</time></trkpt><trkpt lat="42.6621003" lon="12.0316866"><ele>543.5</ele><time>2026-04-30T15:31:26.979Z</time></trkpt><trkpt lat="42.6623855" lon="12.0317134"><ele>541.0</ele><time>2026-04-30T15:31:27.98Z</time></trkpt><trkpt lat="42.6626705" lon="12.031746"><ele>541.5</ele><time>2026-04-30T15:31:28.979Z</time></trkpt><trkpt lat="42.6629663" lon="12.031791"><ele>542.0</ele><time>2026-04-30T15:31:29.979Z</time></trkpt><trkpt lat="42.6632725" lon="12.0318438"><ele>542.0</ele><time>2026-04-30T15:31:30.979Z</time></trkpt><trkpt lat="42.663582" lon="12.0319042"><ele>542.0</ele><time>2026-04-30T15:31:31.979Z</time></trkpt><trkpt lat="42.6638957" lon="12.0319551"><ele>540.5</ele><time>2026-04-30T15:31:32.979Z</time></trkpt><trkpt lat="42.6642128" lon="12.032008"><ele>539.0</ele><time>2026-04-30T15:31:33.979Z</time></trkpt><trkpt lat="42.6645306" lon="12.0320596"><ele>535.5</ele><time>2026-04-30T15:31:34.979Z</time></trkpt><trkpt lat="42.6648511" lon="12.0321208"><ele>532.0</ele><time>2026-04-30T15:31:35.979Z</time></trkpt><trkpt lat="42.6651737" lon="12.0321914"><ele>531.5</ele><time>2026-04-30T15:31:36.979Z</time></trkpt><trkpt lat="42.6655081" lon="12.0322644"><ele>531.0</ele><time>2026-04-30T15:31:37.98Z</time></trkpt><trkpt lat="42.6658483" lon="12.0323325"><ele>530.5</ele><time>2026-04-30T15:31:38.98Z</time></trkpt><trkpt lat="42.6661894" lon="12.0324051"><ele>530.0</ele><time>2026-04-30T15:31:39.979Z</time></trkpt><trkpt lat="42.6665318" lon="12.0324758"><ele>530.0</ele><time>2026-04-30T15:31:40.979Z</time></trkpt><trkpt lat="42.6668802" lon="12.0325548"><ele>530.0</ele><time>2026-04-30T15:31:41.979Z</time></trkpt><trkpt lat="42.6672288" lon="12.0326262"><ele>532.5</ele><time>2026-04-30T15:31:42.98Z</time></trkpt><trkpt lat="42.667583" lon="12.0327026"><ele>535.0</ele><time>2026-04-30T15:31:43.98Z</time></trkpt><trkpt lat="42.6679325" lon="12.0327775"><ele>539.0</ele><time>2026-04-30T15:31:44.98Z</time></trkpt><trkpt lat="42.6682723" lon="12.0328246"><ele>543.0</ele><time>2026-04-30T15:31:45.98Z</time></trkpt><trkpt lat="42.6686049" lon="12.0328257"><ele>545.0</ele><time>2026-04-30T15:31:46.979Z</time></trkpt><trkpt lat="42.6689265" lon="12.0327838"><ele>547.0</ele><time>2026-04-30T15:31:47.979Z</time></trkpt><trkpt lat="42.6692468" lon="12.032693"><ele>548.5</ele><time>2026-04-30T15:31:48.979Z</time></trkpt><trkpt lat="42.6695656" lon="12.0325573"><ele>550.0</ele><time>2026-04-30T15:31:49.98Z</time></trkpt><trkpt lat="42.6698863" lon="12.0323951"><ele>550.0</ele><time>2026-04-30T15:31:50.979Z</time></trkpt><trkpt lat="42.6701944" lon="12.0322117"><ele>550.0</ele><time>2026-04-30T15:31:51.979Z</time></trkpt><trkpt lat="42.6705021" lon="12.0320157"><ele>550.5</ele><time>2026-04-30T15:31:52.979Z</time></trkpt><trkpt lat="42.6708107" lon="12.0318484"><ele>551.0</ele><time>2026-04-30T15:31:53.979Z</time></trkpt><trkpt lat="42.6711284" lon="12.0317368"><ele>554.0</ele><time>2026-04-30T15:31:54.979Z</time></trkpt><trkpt lat="42.6714473" lon="12.0316895"><ele>557.0</ele><time>2026-04-30T15:31:55.979Z</time></trkpt><trkpt lat="42.6717629" lon="12.0316973"><ele>558.5</ele><time>2026-04-30T15:31:56.98Z</time></trkpt><trkpt lat="42.6720858" lon="12.0317501"><ele>560.0</ele><time>2026-04-30T15:31:57.98Z</time></trkpt><trkpt lat="42.6724111" lon="12.0318181"><ele>560.0</ele><time>2026-04-30T15:31:58.979Z</time></trkpt><trkpt lat="42.6727465" lon="12.0318966"><ele>560.0</ele><time>2026-04-30T15:31:59.979Z</time></trkpt><trkpt lat="42.673075" lon="12.0319553"><ele>561.0</ele><time>2026-04-30T15:32:00.98Z</time></trkpt><trkpt lat="42.6734102" lon="12.0319747"><ele>562.0</ele><time>2026-04-30T15:32:01.979Z</time></trkpt><trkpt lat="42.6737557" lon="12.0319673"><ele>563.5</ele><time>2026-04-30T15:32:02.979Z</time></trkpt><trkpt lat="42.6740972" lon="12.0319452"><ele>565.0</ele><time>2026-04-30T15:32:03.979Z</time></trkpt><trkpt lat="42.6744327" lon="12.0319122"><ele>568.0</ele><time>2026-04-30T15:32:04.979Z</time></trkpt><trkpt lat="42.6747586" lon="12.0318858"><ele>571.0</ele><time>2026-04-30T15:32:05.98Z</time></trkpt><trkpt lat="42.6750581" lon="12.0318655"><ele>573.5</ele><time>2026-04-30T15:32:06.979Z</time></trkpt><trkpt lat="42.6753467" lon="12.0318643"><ele>576.0</ele><time>2026-04-30T15:32:07.979Z</time></trkpt><trkpt lat="42.6756314" lon="12.0318953"><ele>576.0</ele><time>2026-04-30T15:32:08.979Z</time></trkpt><trkpt lat="42.6759117" lon="12.0319541"><ele>576.0</ele><time>2026-04-30T15:32:09.979Z</time></trkpt><trkpt lat="42.676185" lon="12.0320331"><ele>577.0</ele><time>2026-04-30T15:32:10.98Z</time></trkpt><trkpt lat="42.6764514" lon="12.0321092"><ele>578.0</ele><time>2026-04-30T15:32:11.979Z</time></trkpt><trkpt lat="42.6767058" lon="12.0321804"><ele>576.0</ele><time>2026-04-30T15:32:12.979Z</time></trkpt><trkpt lat="42.6769561" lon="12.032252"><ele>574.0</ele><time>2026-04-30T15:32:13.979Z</time></trkpt><trkpt lat="42.6771981" lon="12.0323201"><ele>574.0</ele><time>2026-04-30T15:32:14.979Z</time></trkpt><trkpt lat="42.6774505" lon="12.0323944"><ele>574.0</ele><time>2026-04-30T15:32:15.979Z</time></trkpt><trkpt lat="42.6777091" lon="12.0324808"><ele>572.5</ele><time>2026-04-30T15:32:16.98Z</time></trkpt><trkpt lat="42.6779706" lon="12.0325863"><ele>571.0</ele><time>2026-04-30T15:32:17.979Z</time></trkpt><trkpt lat="42.678226" lon="12.0327152"><ele>571.0</ele><time>2026-04-30T15:32:18.979Z</time></trkpt><trkpt lat="42.678461" lon="12.0328971"><ele>571.0</ele><time>2026-04-30T15:32:19.979Z</time></trkpt><trkpt lat="42.6786657" lon="12.0331371"><ele>568.5</ele><time>2026-04-30T15:32:20.98Z</time></trkpt><trkpt lat="42.6788288" lon="12.0334224"><ele>566.0</ele><time>2026-04-30T15:32:21.979Z</time></trkpt><trkpt lat="42.6789496" lon="12.0337457"><ele>566.0</ele><time>2026-04-30T15:32:22.98Z</time></trkpt><trkpt lat="42.6790239" lon="12.0341071"><ele>566.0</ele><time>2026-04-30T15:32:23.979Z</time></trkpt><trkpt lat="42.6790537" lon="12.0344922"><ele>566.5</ele><time>2026-04-30T15:32:24.98Z</time></trkpt><trkpt lat="42.6790279" lon="12.0348977"><ele>567.0</ele><time>2026-04-30T15:32:25.98Z</time></trkpt><trkpt lat="42.6789782" lon="12.0353114"><ele>566.0</ele><time>2026-04-30T15:32:26.979Z</time></trkpt><trkpt lat="42.6789282" lon="12.0357241"><ele>565.0</ele><time>2026-04-30T15:32:27.979Z</time></trkpt><trkpt lat="42.6788777" lon="12.0361357"><ele>563.0</ele><time>2026-04-30T15:32:28.979Z</time></trkpt><trkpt lat="42.6788251" lon="12.0365507"><ele>561.0</ele><time>2026-04-30T15:32:29.979Z</time></trkpt><trkpt lat="42.6787705" lon="12.0369622"><ele>559.5</ele><time>2026-04-30T15:32:30.979Z</time></trkpt><trkpt lat="42.6787162" lon="12.0373619"><ele>558.0</ele><time>2026-04-30T15:32:31.98Z</time></trkpt><trkpt lat="42.6786774" lon="12.0377594"><ele>557.0</ele><time>2026-04-30T15:32:32.979Z</time></trkpt><trkpt lat="42.6786655" lon="12.0381554"><ele>556.0</ele><time>2026-04-30T15:32:33.979Z</time></trkpt><trkpt lat="42.6786972" lon="12.0385476"><ele>554.5</ele><time>2026-04-30T15:32:34.979Z</time></trkpt><trkpt lat="42.6787657" lon="12.0389454"><ele>553.0</ele><time>2026-04-30T15:32:35.979Z</time></trkpt><trkpt lat="42.67885" lon="12.0393515"><ele>553.0</ele><time>2026-04-30T15:32:36.979Z</time></trkpt><trkpt lat="42.6789405" lon="12.0397593"><ele>553.0</ele><time>2026-04-30T15:32:37.979Z</time></trkpt><trkpt lat="42.6790254" lon="12.0401706"><ele>553.0</ele><time>2026-04-30T15:32:38.979Z</time></trkpt><trkpt lat="42.6791033" lon="12.0405872"><ele>553.0</ele><time>2026-04-30T15:32:39.98Z</time></trkpt><trkpt lat="42.6791813" lon="12.040992"><ele>552.0</ele><time>2026-04-30T15:32:40.979Z</time></trkpt><trkpt lat="42.6792559" lon="12.0413992"><ele>551.0</ele><time>2026-04-30T15:32:41.979Z</time></trkpt><trkpt lat="42.6793344" lon="12.0417964"><ele>550.5</ele><time>2026-04-30T15:32:42.979Z</time></trkpt><trkpt lat="42.6794273" lon="12.0421925"><ele>550.0</ele><time>2026-04-30T15:32:43.979Z</time></trkpt><trkpt lat="42.6795487" lon="12.0425732"><ele>548.0</ele><time>2026-04-30T15:32:44.979Z</time></trkpt><trkpt lat="42.679705" lon="12.042927"><ele>546.0</ele><time>2026-04-30T15:32:45.98Z</time></trkpt><trkpt lat="42.6798905" lon="12.0432509"><ele>547.0</ele><time>2026-04-30T15:32:46.98Z</time></trkpt><trkpt lat="42.6800844" lon="12.0435677"><ele>548.0</ele><time>2026-04-30T15:32:47.979Z</time></trkpt><trkpt lat="42.6802904" lon="12.0438701"><ele>545.0</ele><time>2026-04-30T15:32:48.979Z</time></trkpt><trkpt lat="42.6804924" lon="12.0441756"><ele>542.0</ele><time>2026-04-30T15:32:49.98Z</time></trkpt><trkpt lat="42.6806951" lon="12.0444934"><ele>542.0</ele><time>2026-04-30T15:32:50.979Z</time></trkpt><trkpt lat="42.6808963" lon="12.044817"><ele>542.0</ele><time>2026-04-30T15:32:51.979Z</time></trkpt><trkpt lat="42.6811104" lon="12.0451423"><ele>539.5</ele><time>2026-04-30T15:32:52.979Z</time></trkpt><trkpt lat="42.6813105" lon="12.0454587"><ele>537.0</ele><time>2026-04-30T15:32:53.979Z</time></trkpt><trkpt lat="42.6815258" lon="12.0457591"><ele>537.0</ele><time>2026-04-30T15:32:54.98Z</time></trkpt><trkpt lat="42.681747" lon="12.0460557"><ele>537.0</ele><time>2026-04-30T15:32:55.979Z</time></trkpt><trkpt lat="42.681979" lon="12.046342"><ele>537.0</ele><time>2026-04-30T15:32:56.979Z</time></trkpt><trkpt lat="42.6822206" lon="12.0466076"><ele>537.0</ele><time>2026-04-30T15:32:57.98Z</time></trkpt><trkpt lat="42.6824693" lon="12.0468676"><ele>537.0</ele><time>2026-04-30T15:32:58.979Z</time></trkpt><trkpt lat="42.6827138" lon="12.0471326"><ele>537.0</ele><time>2026-04-30T15:32:59.979Z</time></trkpt><trkpt lat="42.6829447" lon="12.0474132"><ele>536.0</ele><time>2026-04-30T15:33:00.979Z</time></trkpt><trkpt lat="42.6831531" lon="12.0477136"><ele>535.0</ele><time>2026-04-30T15:33:01.979Z</time></trkpt><trkpt lat="42.6833411" lon="12.0480383"><ele>534.5</ele><time>2026-04-30T15:33:02.979Z</time></trkpt><trkpt lat="42.6835113" lon="12.0483893"><ele>534.0</ele><time>2026-04-30T15:33:03.979Z</time></trkpt><trkpt lat="42.6836835" lon="12.048733"><ele>532.0</ele><time>2026-04-30T15:33:04.979Z</time></trkpt><trkpt lat="42.683867" lon="12.0490646"><ele>530.0</ele><time>2026-04-30T15:33:05.979Z</time></trkpt><trkpt lat="42.6840573" lon="12.0493996"><ele>530.0</ele><time>2026-04-30T15:33:06.979Z</time></trkpt><trkpt lat="42.6842373" lon="12.0497331"><ele>530.0</ele><time>2026-04-30T15:33:07.979Z</time></trkpt><trkpt lat="42.6844175" lon="12.0500603"><ele>529.0</ele><time>2026-04-30T15:33:08.979Z</time></trkpt><trkpt lat="42.6845839" lon="12.050372"><ele>528.0</ele><time>2026-04-30T15:33:09.98Z</time></trkpt><trkpt lat="42.6847371" lon="12.050674"><ele>528.5</ele><time>2026-04-30T15:33:10.979Z</time></trkpt><trkpt lat="42.6848755" lon="12.050977"><ele>529.0</ele><time>2026-04-30T15:33:11.979Z</time></trkpt><trkpt lat="42.6849995" lon="12.0512868"><ele>529.0</ele><time>2026-04-30T15:33:12.979Z</time></trkpt><trkpt lat="42.6851036" lon="12.0515956"><ele>529.0</ele><time>2026-04-30T15:33:13.979Z</time></trkpt><trkpt lat="42.6851753" lon="12.0519088"><ele>527.0</ele><time>2026-04-30T15:33:14.98Z</time></trkpt><trkpt lat="42.6852208" lon="12.05222"><ele>525.0</ele><time>2026-04-30T15:33:15.98Z</time></trkpt><trkpt lat="42.6852368" lon="12.0525551"><ele>524.0</ele><time>2026-04-30T15:33:16.979Z</time></trkpt><trkpt lat="42.6852373" lon="12.0528901"><ele>523.0</ele><time>2026-04-30T15:33:17.979Z</time></trkpt><trkpt lat="42.6852336" lon="12.0532088"><ele>522.3333333333334</ele><time>2026-04-30T15:33:18.979Z</time></trkpt><trkpt lat="42.6852346" lon="12.053519"><ele>521.6666666666666</ele><time>2026-04-30T15:33:19.979Z</time></trkpt><trkpt lat="42.6852352" lon="12.0538023"><ele>521.0</ele><time>2026-04-30T15:33:20.979Z</time></trkpt><trkpt lat="42.6852693" lon="12.0540512"><ele>519.0</ele><time>2026-04-30T15:33:21.98Z</time></trkpt><trkpt lat="42.6853498" lon="12.0542736"><ele>517.0</ele><time>2026-04-30T15:33:22.979Z</time></trkpt><trkpt lat="42.6854712" lon="12.0544758"><ele>515.0</ele><time>2026-04-30T15:33:23.98Z</time></trkpt><trkpt lat="42.6856111" lon="12.0546619"><ele>515.0</ele><time>2026-04-30T15:33:24.98Z</time></trkpt><trkpt lat="42.6857575" lon="12.0548643"><ele>515.0</ele><time>2026-04-30T15:33:25.979Z</time></trkpt><trkpt lat="42.6859035" lon="12.055079"><ele>515.0</ele><time>2026-04-30T15:33:26.98Z</time></trkpt><trkpt lat="42.6860375" lon="12.055293"><ele>515.3333333333333</ele><time>2026-04-30T15:33:27.979Z</time></trkpt><trkpt lat="42.6861723" lon="12.0555002"><ele>515.6666666666666</ele><time>2026-04-30T15:33:28.979Z</time></trkpt><trkpt lat="42.6862835" lon="12.0556957"><ele>516.0</ele><time>2026-04-30T15:33:29.979Z</time></trkpt><trkpt lat="42.6863878" lon="12.0558849"><ele>516.0</ele><time>2026-04-30T15:33:30.979Z</time></trkpt><trkpt lat="42.6864997" lon="12.0560889"><ele>516.0</ele><time>2026-04-30T15:33:31.98Z</time></trkpt><trkpt lat="42.6866233" lon="12.0563105"><ele>516.0</ele><time>2026-04-30T15:33:32.98Z</time></trkpt><trkpt lat="42.6867626" lon="12.0565474"><ele>516.0</ele><time>2026-04-30T15:33:33.98Z</time></trkpt><trkpt lat="42.6869087" lon="12.0567957"><ele>516.0</ele><time>2026-04-30T15:33:34.979Z</time></trkpt><trkpt lat="42.6870455" lon="12.0570281"><ele>515.3333333333334</ele><time>2026-04-30T15:33:35.979Z</time></trkpt><trkpt lat="42.687171" lon="12.0572337"><ele>514.6666666666667</ele><time>2026-04-30T15:33:36.98Z</time></trkpt><trkpt lat="42.6872663" lon="12.057416"><ele>514.0</ele><time>2026-04-30T15:33:37.979Z</time></trkpt><trkpt lat="42.6873385" lon="12.0575962"><ele>514.0</ele><time>2026-04-30T15:33:38.98Z</time></trkpt><trkpt lat="42.6873999" lon="12.0577714"><ele>514.0</ele><time>2026-04-30T15:33:39.98Z</time></trkpt><trkpt lat="42.6874475" lon="12.057917"><ele>514.0</ele><time>2026-04-30T15:33:40.979Z</time></trkpt><trkpt lat="42.68748" lon="12.0580445"><ele>514.0</ele><time>2026-04-30T15:33:41.979Z</time></trkpt><trkpt lat="42.6875163" lon="12.0581532"><ele>514.0</ele><time>2026-04-30T15:33:42.98Z</time></trkpt><trkpt lat="42.6875519" lon="12.0582668"><ele>514.0</ele><time>2026-04-30T15:33:43.979Z</time></trkpt><trkpt lat="42.6875893" lon="12.0583812"><ele>514.0</ele><time>2026-04-30T15:33:44.979Z</time></trkpt><trkpt lat="42.6876217" lon="12.058503"><ele>514.0</ele><time>2026-04-30T15:33:45.979Z</time></trkpt><trkpt lat="42.6876613" lon="12.0586189"><ele>514.0</ele><time>2026-04-30T15:33:46.979Z</time></trkpt><trkpt lat="42.6877136" lon="12.0587381"><ele>514.0</ele><time>2026-04-30T15:33:47.979Z</time></trkpt><trkpt lat="42.6877763" lon="12.0588617"><ele>514.3333333333334</ele><time>2026-04-30T15:33:48.979Z</time></trkpt><trkpt lat="42.6878698" lon="12.0589997"><ele>514.6666666666666</ele><time>2026-04-30T15:33:49.979Z</time></trkpt><trkpt lat="42.6880014" lon="12.0591498"><ele>515.0</ele><time>2026-04-30T15:33:50.979Z</time></trkpt><trkpt lat="42.688175" lon="12.0593424"><ele>515.0</ele><time>2026-04-30T15:33:51.979Z</time></trkpt><trkpt lat="42.6883793" lon="12.0595611"><ele>515.0</ele><time>2026-04-30T15:33:52.979Z</time></trkpt><trkpt lat="42.6885914" lon="12.0598114"><ele>512.5</ele><time>2026-04-30T15:33:53.979Z</time></trkpt><trkpt lat="42.6888015" lon="12.0600566"><ele>510.0</ele><time>2026-04-30T15:33:54.98Z</time></trkpt><trkpt lat="42.6889961" lon="12.0603056"><ele>510.0</ele><time>2026-04-30T15:33:55.979Z</time></trkpt><trkpt lat="42.6891562" lon="12.0605764"><ele>510.0</ele><time>2026-04-30T15:33:56.979Z</time></trkpt><trkpt lat="42.6892711" lon="12.0608896"><ele>508.5</ele><time>2026-04-30T15:33:57.979Z</time></trkpt><trkpt lat="42.6893702" lon="12.0612444"><ele>507.0</ele><time>2026-04-30T15:33:58.979Z</time></trkpt><trkpt lat="42.6895045" lon="12.0616001"><ele>504.5</ele><time>2026-04-30T15:33:59.979Z</time></trkpt><trkpt lat="42.6896865" lon="12.0619359"><ele>502.0</ele><time>2026-04-30T15:34:00.979Z</time></trkpt><trkpt lat="42.689908" lon="12.0622348"><ele>501.0</ele><time>2026-04-30T15:34:01.979Z</time></trkpt><trkpt lat="42.6901689" lon="12.0624919"><ele>500.0</ele><time>2026-04-30T15:34:02.979Z</time></trkpt><trkpt lat="42.6904456" lon="12.0627191"><ele>500.0</ele><time>2026-04-30T15:34:03.979Z</time></trkpt><trkpt lat="42.6907226" lon="12.0629378"><ele>500.0</ele><time>2026-04-30T15:34:04.98Z</time></trkpt><trkpt lat="42.6909893" lon="12.0631589"><ele>498.0</ele><time>2026-04-30T15:34:05.979Z</time></trkpt><trkpt lat="42.6912527" lon="12.0633855"><ele>496.0</ele><time>2026-04-30T15:34:06.979Z</time></trkpt><trkpt lat="42.6915142" lon="12.0636189"><ele>496.0</ele><time>2026-04-30T15:34:07.979Z</time></trkpt><trkpt lat="42.6917709" lon="12.063835"><ele>496.0</ele><time>2026-04-30T15:34:08.979Z</time></trkpt><trkpt lat="42.6920093" lon="12.0640371"><ele>494.0</ele><time>2026-04-30T15:34:09.979Z</time></trkpt><trkpt lat="42.6922561" lon="12.0642137"><ele>492.0</ele><time>2026-04-30T15:34:10.979Z</time></trkpt><trkpt lat="42.6925145" lon="12.0643631"><ele>490.0</ele><time>2026-04-30T15:34:11.979Z</time></trkpt><trkpt lat="42.6927827" lon="12.0644838"><ele>488.0</ele><time>2026-04-30T15:34:12.979Z</time></trkpt><trkpt lat="42.6930553" lon="12.0645681"><ele>488.0</ele><time>2026-04-30T15:34:13.98Z</time></trkpt><trkpt lat="42.6933346" lon="12.0646301"><ele>488.0</ele><time>2026-04-30T15:34:14.979Z</time></trkpt><trkpt lat="42.6936025" lon="12.0646988"><ele>486.5</ele><time>2026-04-30T15:34:15.98Z</time></trkpt><trkpt lat="42.6938525" lon="12.0647736"><ele>485.0</ele><time>2026-04-30T15:34:16.979Z</time></trkpt><trkpt lat="42.6940868" lon="12.0648591"><ele>485.0</ele><time>2026-04-30T15:34:17.979Z</time></trkpt><trkpt lat="42.6943056" lon="12.0649781"><ele>485.0</ele><time>2026-04-30T15:34:18.979Z</time></trkpt><trkpt lat="42.6945055" lon="12.0651291"><ele>485.0</ele><time>2026-04-30T15:34:19.98Z</time></trkpt><trkpt lat="42.6946876" lon="12.0653226"><ele>485.0</ele><time>2026-04-30T15:34:20.979Z</time></trkpt><trkpt lat="42.694853" lon="12.0655482"><ele>484.5</ele><time>2026-04-30T15:34:21.98Z</time></trkpt><trkpt lat="42.6950185" lon="12.0657944"><ele>484.0</ele><time>2026-04-30T15:34:22.979Z</time></trkpt><trkpt lat="42.6951783" lon="12.0660615"><ele>481.5</ele><time>2026-04-30T15:34:23.979Z</time></trkpt><trkpt lat="42.6953285" lon="12.0663283"><ele>479.0</ele><time>2026-04-30T15:34:24.979Z</time></trkpt><trkpt lat="42.6954748" lon="12.0665888"><ele>479.66666666666663</ele><time>2026-04-30T15:34:25.98Z</time></trkpt><trkpt lat="42.6956118" lon="12.0668378"><ele>480.33333333333337</ele><time>2026-04-30T15:34:26.98Z</time></trkpt><trkpt lat="42.6957452" lon="12.0670702"><ele>481.0</ele><time>2026-04-30T15:34:27.98Z</time></trkpt><trkpt lat="42.6958729" lon="12.0672942"><ele>481.0</ele><time>2026-04-30T15:34:28.979Z</time></trkpt><trkpt lat="42.6960021" lon="12.0675161"><ele>481.0</ele><time>2026-04-30T15:34:29.979Z</time></trkpt><trkpt lat="42.6961507" lon="12.0677453"><ele>481.0</ele><time>2026-04-30T15:34:30.979Z</time></trkpt><trkpt lat="42.696316" lon="12.0680068"><ele>479.5</ele><time>2026-04-30T15:34:31.979Z</time></trkpt><trkpt lat="42.6964879" lon="12.0682854"><ele>478.0</ele><time>2026-04-30T15:34:32.979Z</time></trkpt><trkpt lat="42.6966757" lon="12.0685685"><ele>478.0</ele><time>2026-04-30T15:34:33.98Z</time></trkpt><trkpt lat="42.6968686" lon="12.0688356"><ele>478.0</ele><time>2026-04-30T15:34:34.979Z</time></trkpt><trkpt lat="42.6970588" lon="12.0691"><ele>476.0</ele><time>2026-04-30T15:34:35.979Z</time></trkpt><trkpt lat="42.6972583" lon="12.0693528"><ele>474.0</ele><time>2026-04-30T15:34:36.979Z</time></trkpt><trkpt lat="42.6974632" lon="12.0695866"><ele>474.0</ele><time>2026-04-30T15:34:37.979Z</time></trkpt><trkpt lat="42.6976794" lon="12.0697832"><ele>474.0</ele><time>2026-04-30T15:34:38.979Z</time></trkpt><trkpt lat="42.6979106" lon="12.0699426"><ele>470.5</ele><time>2026-04-30T15:34:39.979Z</time></trkpt><trkpt lat="42.6981593" lon="12.0700687"><ele>467.0</ele><time>2026-04-30T15:34:40.979Z</time></trkpt><trkpt lat="42.6984301" lon="12.0701678"><ele>465.5</ele><time>2026-04-30T15:34:41.979Z</time></trkpt><trkpt lat="42.6987127" lon="12.0702737"><ele>464.0</ele><time>2026-04-30T15:34:42.98Z</time></trkpt><trkpt lat="42.6989895" lon="12.0703778"><ele>464.0</ele><time>2026-04-30T15:34:43.979Z</time></trkpt><trkpt lat="42.6992567" lon="12.0704803"><ele>464.0</ele><time>2026-04-30T15:34:44.979Z</time></trkpt><trkpt lat="42.6995025" lon="12.0705861"><ele>464.0</ele><time>2026-04-30T15:34:45.979Z</time></trkpt><trkpt lat="42.6997298" lon="12.0707235"><ele>464.0</ele><time>2026-04-30T15:34:46.98Z</time></trkpt><trkpt lat="42.6999192" lon="12.0709134"><ele>464.0</ele><time>2026-04-30T15:34:47.979Z</time></trkpt><trkpt lat="42.7000593" lon="12.071158"><ele>464.0</ele><time>2026-04-30T15:34:48.979Z</time></trkpt><trkpt lat="42.7001524" lon="12.0714465"><ele>464.5</ele><time>2026-04-30T15:34:49.979Z</time></trkpt><trkpt lat="42.7002147" lon="12.0717611"><ele>465.0</ele><time>2026-04-30T15:34:50.979Z</time></trkpt><trkpt lat="42.7002588" lon="12.0720838"><ele>465.0</ele><time>2026-04-30T15:34:51.98Z</time></trkpt><trkpt lat="42.7002961" lon="12.0723929"><ele>465.0</ele><time>2026-04-30T15:34:52.98Z</time></trkpt><trkpt lat="42.7003479" lon="12.0726843"><ele>464.66666666666663</ele><time>2026-04-30T15:34:53.98Z</time></trkpt><trkpt lat="42.7004042" lon="12.0729606"><ele>464.3333333333333</ele><time>2026-04-30T15:34:54.98Z</time></trkpt><trkpt lat="42.7004502" lon="12.0732273"><ele>464.0</ele><time>2026-04-30T15:34:55.979Z</time></trkpt><trkpt lat="42.7004983" lon="12.0734755"><ele>462.0</ele><time>2026-04-30T15:34:56.979Z</time></trkpt><trkpt lat="42.7005408" lon="12.0737087"><ele>460.0</ele><time>2026-04-30T15:34:57.979Z</time></trkpt><trkpt lat="42.7005789" lon="12.0739319"><ele>458.0</ele><time>2026-04-30T15:34:58.98Z</time></trkpt><trkpt lat="42.7006254" lon="12.0741513"><ele>455.3333333333333</ele><time>2026-04-30T15:34:59.979Z</time></trkpt><trkpt lat="42.7006749" lon="12.0743623"><ele>452.66666666666663</ele><time>2026-04-30T15:35:00.979Z</time></trkpt><trkpt lat="42.700725" lon="12.0745714"><ele>450.0</ele><time>2026-04-30T15:35:01.98Z</time></trkpt><trkpt lat="42.7007663" lon="12.0747767"><ele>448.5</ele><time>2026-04-30T15:35:02.979Z</time></trkpt><trkpt lat="42.7008067" lon="12.0749723"><ele>447.0</ele><time>2026-04-30T15:35:03.98Z</time></trkpt><trkpt lat="42.7008531" lon="12.0751568"><ele>445.5</ele><time>2026-04-30T15:35:04.98Z</time></trkpt><trkpt lat="42.7008965" lon="12.0753438"><ele>444.0</ele><time>2026-04-30T15:35:05.979Z</time></trkpt><trkpt lat="42.7009423" lon="12.0755209"><ele>444.0</ele><time>2026-04-30T15:35:06.979Z</time></trkpt><trkpt lat="42.7009882" lon="12.0757037"><ele>444.0</ele><time>2026-04-30T15:35:07.979Z</time></trkpt><trkpt lat="42.7010238" lon="12.0759116"><ele>444.0</ele><time>2026-04-30T15:35:08.98Z</time></trkpt><trkpt lat="42.7010659" lon="12.0761381"><ele>443.66666666666663</ele><time>2026-04-30T15:35:09.98Z</time></trkpt><trkpt lat="42.7011126" lon="12.0763795"><ele>443.3333333333333</ele><time>2026-04-30T15:35:10.98Z</time></trkpt><trkpt lat="42.7011756" lon="12.0766548"><ele>443.0</ele><time>2026-04-30T15:35:11.979Z</time></trkpt><trkpt lat="42.701235" lon="12.076944"><ele>437.5</ele><time>2026-04-30T15:35:12.979Z</time></trkpt><trkpt lat="42.7012826" lon="12.0772407"><ele>432.0</ele><time>2026-04-30T15:35:13.979Z</time></trkpt><trkpt lat="42.7013185" lon="12.0775507"><ele>429.33333333333337</ele><time>2026-04-30T15:35:14.98Z</time></trkpt><trkpt lat="42.7013567" lon="12.0778315"><ele>426.6666666666667</ele><time>2026-04-30T15:35:15.979Z</time></trkpt><trkpt lat="42.7014018" lon="12.0780882"><ele>424.0</ele><time>2026-04-30T15:35:16.979Z</time></trkpt><trkpt lat="42.7014526" lon="12.0783353"><ele>422.6666666666667</ele><time>2026-04-30T15:35:17.979Z</time></trkpt><trkpt lat="42.701501" lon="12.0785762"><ele>421.33333333333337</ele><time>2026-04-30T15:35:18.98Z</time></trkpt><trkpt lat="42.701541" lon="12.0788049"><ele>420.0</ele><time>2026-04-30T15:35:19.979Z</time></trkpt><trkpt lat="42.7015817" lon="12.0790199"><ele>419.66666666666663</ele><time>2026-04-30T15:35:20.98Z</time></trkpt><trkpt lat="42.7016142" lon="12.0792305"><ele>419.3333333333333</ele><time>2026-04-30T15:35:21.98Z</time></trkpt><trkpt lat="42.701628" lon="12.0794314"><ele>419.0</ele><time>2026-04-30T15:35:22.98Z</time></trkpt><trkpt lat="42.7016335" lon="12.0796314"><ele>419.0</ele><time>2026-04-30T15:35:23.98Z</time></trkpt><trkpt lat="42.7016493" lon="12.0798348"><ele>419.0</ele><time>2026-04-30T15:35:24.98Z</time></trkpt><trkpt lat="42.7016731" lon="12.0800135"><ele>419.0</ele><time>2026-04-30T15:35:25.979Z</time></trkpt><trkpt lat="42.7017163" lon="12.0801722"><ele>419.0</ele><time>2026-04-30T15:35:26.979Z</time></trkpt><trkpt lat="42.7017841" lon="12.0803088"><ele>419.75</ele><time>2026-04-30T15:35:27.98Z</time></trkpt><trkpt lat="42.7018715" lon="12.0804344"><ele>420.5</ele><time>2026-04-30T15:35:28.98Z</time></trkpt><trkpt lat="42.7019724" lon="12.0805457"><ele>421.25</ele><time>2026-04-30T15:35:29.979Z</time></trkpt><trkpt lat="42.7020761" lon="12.0806546"><ele>422.0</ele><time>2026-04-30T15:35:30.98Z</time></trkpt><trkpt lat="42.7021838" lon="12.0807638"><ele>418.75</ele><time>2026-04-30T15:35:31.979Z</time></trkpt><trkpt lat="42.7022894" lon="12.0808685"><ele>415.5</ele><time>2026-04-30T15:35:32.979Z</time></trkpt><trkpt lat="42.7023966" lon="12.0809747"><ele>412.25</ele><time>2026-04-30T15:35:33.979Z</time></trkpt><trkpt lat="42.7024969" lon="12.0810752"><ele>409.0</ele><time>2026-04-30T15:35:34.979Z</time></trkpt><trkpt lat="42.7026126" lon="12.0811616"><ele>410.0</ele><time>2026-04-30T15:35:35.979Z</time></trkpt><trkpt lat="42.7027478" lon="12.0812277"><ele>411.0</ele><time>2026-04-30T15:35:36.98Z</time></trkpt><trkpt lat="42.7028912" lon="12.0812741"><ele>412.0</ele><time>2026-04-30T15:35:37.979Z</time></trkpt><trkpt lat="42.7030336" lon="12.0813079"><ele>413.0</ele><time>2026-04-30T15:35:38.979Z</time></trkpt><trkpt lat="42.7031719" lon="12.0813464"><ele>413.0</ele><time>2026-04-30T15:35:39.979Z</time></trkpt><trkpt lat="42.7033001" lon="12.0813898"><ele>413.0</ele><time>2026-04-30T15:35:40.979Z</time></trkpt><trkpt lat="42.7034267" lon="12.0814403"><ele>413.0</ele><time>2026-04-30T15:35:41.98Z</time></trkpt><trkpt lat="42.7035368" lon="12.0815103"><ele>413.0</ele><time>2026-04-30T15:35:42.979Z</time></trkpt><trkpt lat="42.7036495" lon="12.0815721"><ele>413.0</ele><time>2026-04-30T15:35:43.979Z</time></trkpt><trkpt lat="42.7037731" lon="12.0816073"><ele>413.0</ele><time>2026-04-30T15:35:44.979Z</time></trkpt><trkpt lat="42.703905" lon="12.0816127"><ele>413.0</ele><time>2026-04-30T15:35:45.979Z</time></trkpt><trkpt lat="42.7040367" lon="12.0815791"><ele>413.0</ele><time>2026-04-30T15:35:46.979Z</time></trkpt><trkpt lat="42.7041724" lon="12.0815193"><ele>413.0</ele><time>2026-04-30T15:35:47.98Z</time></trkpt><trkpt lat="42.7043296" lon="12.0814152"><ele>413.0</ele><time>2026-04-30T15:35:48.979Z</time></trkpt><trkpt lat="42.7045272" lon="12.0812641"><ele>413.0</ele><time>2026-04-30T15:35:49.98Z</time></trkpt><trkpt lat="42.7047719" lon="12.0810877"><ele>403.5</ele><time>2026-04-30T15:35:50.979Z</time></trkpt><trkpt lat="42.7050516" lon="12.0809197"><ele>394.0</ele><time>2026-04-30T15:35:51.979Z</time></trkpt><trkpt lat="42.7053138" lon="12.0807582"><ele>390.5</ele><time>2026-04-30T15:35:52.98Z</time></trkpt><trkpt lat="42.7055268" lon="12.0806115"><ele>387.0</ele><time>2026-04-30T15:35:53.979Z</time></trkpt><trkpt lat="42.7057111" lon="12.080417"><ele>387.0</ele><time>2026-04-30T15:35:54.98Z</time></trkpt><trkpt lat="42.7058724" lon="12.0801577"><ele>387.0</ele><time>2026-04-30T15:35:55.979Z</time></trkpt><trkpt lat="42.7060205" lon="12.079868"><ele>380.0</ele><time>2026-04-30T15:35:56.979Z</time></trkpt><trkpt lat="42.7061752" lon="12.0795754"><ele>373.0</ele><time>2026-04-30T15:35:57.98Z</time></trkpt><trkpt lat="42.7063354" lon="12.079308"><ele>382.0</ele><time>2026-04-30T15:35:58.979Z</time></trkpt><trkpt lat="42.706501" lon="12.079064"><ele>391.0</ele><time>2026-04-30T15:35:59.979Z</time></trkpt><trkpt lat="42.7066605" lon="12.0788455"><ele>391.0</ele><time>2026-04-30T15:36:00.979Z</time></trkpt><trkpt lat="42.7068099" lon="12.0786453"><ele>391.0</ele><time>2026-04-30T15:36:01.979Z</time></trkpt><trkpt lat="42.7069584" lon="12.0784737"><ele>391.0</ele><time>2026-04-30T15:36:02.979Z</time></trkpt><trkpt lat="42.7071172" lon="12.078336"><ele>390.0</ele><time>2026-04-30T15:36:03.979Z</time></trkpt><trkpt lat="42.7073218" lon="12.0782434"><ele>389.0</ele><time>2026-04-30T15:36:04.979Z</time></trkpt><trkpt lat="42.7075659" lon="12.0781632"><ele>384.0</ele><time>2026-04-30T15:36:05.979Z</time></trkpt><trkpt lat="42.7078252" lon="12.07809"><ele>379.0</ele><time>2026-04-30T15:36:06.98Z</time></trkpt><trkpt lat="42.7080848" lon="12.0780606"><ele>379.0</ele><time>2026-04-30T15:36:07.979Z</time></trkpt><trkpt lat="42.7083446" lon="12.0780807"><ele>379.0</ele><time>2026-04-30T15:36:08.98Z</time></trkpt><trkpt lat="42.708608" lon="12.0781095"><ele>374.0</ele><time>2026-04-30T15:36:09.979Z</time></trkpt><trkpt lat="42.7088666" lon="12.0780913"><ele>369.0</ele><time>2026-04-30T15:36:10.979Z</time></trkpt><trkpt lat="42.7091071" lon="12.0780301"><ele>369.0</ele><time>2026-04-30T15:36:11.98Z</time></trkpt><trkpt lat="42.7093262" lon="12.0779625"><ele>369.0</ele><time>2026-04-30T15:36:12.979Z</time></trkpt><trkpt lat="42.7095179" lon="12.0778869"><ele>369.0</ele><time>2026-04-30T15:36:13.979Z</time></trkpt><trkpt lat="42.7096848" lon="12.0777821"><ele>364.0</ele><time>2026-04-30T15:36:14.979Z</time></trkpt><trkpt lat="42.7098171" lon="12.0776402"><ele>359.0</ele><time>2026-04-30T15:36:15.979Z</time></trkpt><trkpt lat="42.7099227" lon="12.077484"><ele>354.0</ele><time>2026-04-30T15:36:16.98Z</time></trkpt><trkpt lat="42.7099923" lon="12.0773299"><ele>354.0</ele><time>2026-04-30T15:36:17.979Z</time></trkpt><trkpt lat="42.710046" lon="12.0771978"><ele>354.0</ele><time>2026-04-30T15:36:18.98Z</time></trkpt><trkpt lat="42.7100999" lon="12.0771006"><ele>354.0</ele><time>2026-04-30T15:36:19.979Z</time></trkpt><trkpt lat="42.7101551" lon="12.0770363"><ele>354.0</ele><time>2026-04-30T15:36:20.979Z</time></trkpt><trkpt lat="42.7102148" lon="12.0770013"><ele>354.0</ele><time>2026-04-30T15:36:21.979Z</time></trkpt><trkpt lat="42.7102845" lon="12.0770168"><ele>354.0</ele><time>2026-04-30T15:36:22.98Z</time></trkpt><trkpt lat="42.7103567" lon="12.0770807"><ele>351.2</ele><time>2026-04-30T15:36:23.979Z</time></trkpt><trkpt lat="42.7104132" lon="12.0771745"><ele>348.4</ele><time>2026-04-30T15:36:24.979Z</time></trkpt><trkpt lat="42.710431" lon="12.0772905"><ele>345.6</ele><time>2026-04-30T15:36:25.979Z</time></trkpt><trkpt lat="42.7104078" lon="12.0774088"><ele>342.8</ele><time>2026-04-30T15:36:26.979Z</time></trkpt><trkpt lat="42.7103586" lon="12.0775226"><ele>340.0</ele><time>2026-04-30T15:36:27.979Z</time></trkpt><trkpt lat="42.7102957" lon="12.0776339"><ele>342.75</ele><time>2026-04-30T15:36:28.98Z</time></trkpt><trkpt lat="42.7102219" lon="12.077742"><ele>345.5</ele><time>2026-04-30T15:36:29.98Z</time></trkpt><trkpt lat="42.7101355" lon="12.077858"><ele>348.25</ele><time>2026-04-30T15:36:30.979Z</time></trkpt><trkpt lat="42.7100351" lon="12.0779991"><ele>351.0</ele><time>2026-04-30T15:36:31.979Z</time></trkpt><trkpt lat="42.7099043" lon="12.0781734"><ele>347.6666666666667</ele><time>2026-04-30T15:36:32.979Z</time></trkpt><trkpt lat="42.7097593" lon="12.0783486"><ele>344.33333333333337</ele><time>2026-04-30T15:36:33.98Z</time></trkpt><trkpt lat="42.7096205" lon="12.0785259"><ele>341.0</ele><time>2026-04-30T15:36:34.979Z</time></trkpt><trkpt lat="42.7094634" lon="12.0787012"><ele>345.0</ele><time>2026-04-30T15:36:35.979Z</time></trkpt><trkpt lat="42.709294" lon="12.0788568"><ele>349.0</ele><time>2026-04-30T15:36:36.98Z</time></trkpt><trkpt lat="42.7091348" lon="12.0789803"><ele>353.0</ele><time>2026-04-30T15:36:37.979Z</time></trkpt><trkpt lat="42.7089854" lon="12.0790587"><ele>349.59999999999997</ele><time>2026-04-30T15:36:38.979Z</time></trkpt><trkpt lat="42.7088649" lon="12.0791242"><ele>346.2</ele><time>2026-04-30T15:36:39.979Z</time></trkpt><trkpt lat="42.7087713" lon="12.0791789"><ele>342.8</ele><time>2026-04-30T15:36:40.979Z</time></trkpt><trkpt lat="42.7086956" lon="12.0792385"><ele>339.4</ele><time>2026-04-30T15:36:41.98Z</time></trkpt><trkpt lat="42.7086395" lon="12.0793182"><ele>336.0</ele><time>2026-04-30T15:36:42.98Z</time></trkpt><trkpt lat="42.7086134" lon="12.0794163"><ele>336.0</ele><time>2026-04-30T15:36:43.979Z</time></trkpt><trkpt lat="42.7086163" lon="12.0795234"><ele>336.0</ele><time>2026-04-30T15:36:44.98Z</time></trkpt><trkpt lat="42.7086601" lon="12.0796228"><ele>336.0</ele><time>2026-04-30T15:36:45.979Z</time></trkpt><trkpt lat="42.7087428" lon="12.0796926"><ele>336.0</ele><time>2026-04-30T15:36:46.979Z</time></trkpt><trkpt lat="42.7088665" lon="12.079709"><ele>336.0</ele><time>2026-04-30T15:36:47.979Z</time></trkpt><trkpt lat="42.7090298" lon="12.0796726"><ele>336.0</ele><time>2026-04-30T15:36:48.979Z</time></trkpt><trkpt lat="42.7092037" lon="12.0795981"><ele>336.0</ele><time>2026-04-30T15:36:49.98Z</time></trkpt><trkpt lat="42.7093769" lon="12.0795408"><ele>336.0</ele><time>2026-04-30T15:36:50.979Z</time></trkpt><trkpt lat="42.7095338" lon="12.0795204"><ele>335.0</ele><time>2026-04-30T15:36:51.979Z</time></trkpt><trkpt lat="42.7096691" lon="12.0795138"><ele>334.0</ele><time>2026-04-30T15:36:52.979Z</time></trkpt><trkpt lat="42.7097854" lon="12.0795354"><ele>333.0</ele><time>2026-04-30T15:36:53.979Z</time></trkpt><trkpt lat="42.7098876" lon="12.0795731"><ele>332.0</ele><time>2026-04-30T15:36:54.979Z</time></trkpt><trkpt lat="42.7099825" lon="12.0796331"><ele>332.0</ele><time>2026-04-30T15:36:55.98Z</time></trkpt><trkpt lat="42.7100715" lon="12.0797082"><ele>332.0</ele><time>2026-04-30T15:36:56.979Z</time></trkpt><trkpt lat="42.7101605" lon="12.0797836"><ele>332.0</ele><time>2026-04-30T15:36:57.98Z</time></trkpt><trkpt lat="42.7102519" lon="12.0798625"><ele>332.0</ele><time>2026-04-30T15:36:58.979Z</time></trkpt><trkpt lat="42.7103482" lon="12.0799242"><ele>332.0</ele><time>2026-04-30T15:36:59.979Z</time></trkpt><trkpt lat="42.7104441" lon="12.0799679"><ele>329.83333333333337</ele><time>2026-04-30T15:37:00.979Z</time></trkpt><trkpt lat="42.710542" lon="12.0799952"><ele>327.6666666666667</ele><time>2026-04-30T15:37:01.98Z</time></trkpt><trkpt lat="42.7106333" lon="12.079995"><ele>325.5</ele><time>2026-04-30T15:37:02.979Z</time></trkpt><trkpt lat="42.7107188" lon="12.0799803"><ele>323.3333333333333</ele><time>2026-04-30T15:37:03.98Z</time></trkpt><trkpt lat="42.7108033" lon="12.0799709"><ele>321.16666666666663</ele><time>2026-04-30T15:37:04.979Z</time></trkpt><trkpt lat="42.7108769" lon="12.0799701"><ele>319.0</ele><time>2026-04-30T15:37:05.979Z</time></trkpt><trkpt lat="42.7109499" lon="12.079999"><ele>319.0</ele><time>2026-04-30T15:37:06.979Z</time></trkpt><trkpt lat="42.7110014" lon="12.0800771"><ele>319.0</ele><time>2026-04-30T15:37:07.979Z</time></trkpt><trkpt lat="42.7110175" lon="12.0802005"><ele>319.0</ele><time>2026-04-30T15:37:08.979Z</time></trkpt><trkpt lat="42.7110066" lon="12.0803343"><ele>319.0</ele><time>2026-04-30T15:37:09.979Z</time></trkpt><trkpt lat="42.7109724" lon="12.0804604"><ele>319.0</ele><time>2026-04-30T15:37:10.979Z</time></trkpt><trkpt lat="42.7109222" lon="12.0805745"><ele>319.0</ele><time>2026-04-30T15:37:11.98Z</time></trkpt><trkpt lat="42.7108617" lon="12.0806769"><ele>319.0</ele><time>2026-04-30T15:37:12.979Z</time></trkpt><trkpt lat="42.7107886" lon="12.0807674"><ele>319.0</ele><time>2026-04-30T15:37:13.98Z</time></trkpt><trkpt lat="42.7107027" lon="12.0808243"><ele>319.0</ele><time>2026-04-30T15:37:14.979Z</time></trkpt><trkpt lat="42.7105946" lon="12.0808267"><ele>319.0</ele><time>2026-04-30T15:37:15.979Z</time></trkpt><trkpt lat="42.7104838" lon="12.0807841"><ele>319.0</ele><time>2026-04-30T15:37:16.979Z</time></trkpt><trkpt lat="42.7103801" lon="12.0807243"><ele>319.0</ele><time>2026-04-30T15:37:17.979Z</time></trkpt><trkpt lat="42.7102912" lon="12.0806602"><ele>319.0</ele><time>2026-04-30T15:37:18.98Z</time></trkpt><trkpt lat="42.7102109" lon="12.0806137"><ele>319.0</ele><time>2026-04-30T15:37:19.979Z</time></trkpt><trkpt lat="42.7101336" lon="12.0806035"><ele>319.0</ele><time>2026-04-30T15:37:20.979Z</time></trkpt><trkpt lat="42.7100481" lon="12.080626"><ele>319.2</ele><time>2026-04-30T15:37:21.979Z</time></trkpt><trkpt lat="42.7099462" lon="12.0806753"><ele>319.4</ele><time>2026-04-30T15:37:22.98Z</time></trkpt><trkpt lat="42.7098469" lon="12.0807434"><ele>319.6</ele><time>2026-04-30T15:37:23.979Z</time></trkpt><trkpt lat="42.7097597" lon="12.0808247"><ele>319.8</ele><time>2026-04-30T15:37:24.979Z</time></trkpt><trkpt lat="42.7096804" lon="12.0809068"><ele>320.0</ele><time>2026-04-30T15:37:25.979Z</time></trkpt><trkpt lat="42.7096209" lon="12.0809999"><ele>317.8</ele><time>2026-04-30T15:37:26.98Z</time></trkpt><trkpt lat="42.7095718" lon="12.0811011"><ele>315.6</ele><time>2026-04-30T15:37:27.98Z</time></trkpt><trkpt lat="42.7095509" lon="12.0812217"><ele>313.4</ele><time>2026-04-30T15:37:28.979Z</time></trkpt><trkpt lat="42.7095618" lon="12.0813487"><ele>311.2</ele><time>2026-04-30T15:37:29.979Z</time></trkpt><trkpt lat="42.7095899" lon="12.0814652"><ele>309.0</ele><time>2026-04-30T15:37:30.979Z</time></trkpt><trkpt lat="42.7096554" lon="12.0815718"><ele>307.0</ele><time>2026-04-30T15:37:31.979Z</time></trkpt><trkpt lat="42.7097609" lon="12.0816425"><ele>305.0</ele><time>2026-04-30T15:37:32.979Z</time></trkpt><trkpt lat="42.709887" lon="12.081667"><ele>303.0</ele><time>2026-04-30T15:37:33.979Z</time></trkpt><trkpt lat="42.710031" lon="12.0816656"><ele>301.0</ele><time>2026-04-30T15:37:34.979Z</time></trkpt><trkpt lat="42.7101769" lon="12.081673"><ele>301.5</ele><time>2026-04-30T15:37:35.979Z</time></trkpt><trkpt lat="42.7103162" lon="12.0816929"><ele>302.0</ele><time>2026-04-30T15:37:36.979Z</time></trkpt><trkpt lat="42.7104476" lon="12.081727"><ele>302.5</ele><time>2026-04-30T15:37:37.979Z</time></trkpt><trkpt lat="42.7105652" lon="12.0817723"><ele>303.0</ele><time>2026-04-30T15:37:38.979Z</time></trkpt><trkpt lat="42.710667" lon="12.0818374"><ele>303.0</ele><time>2026-04-30T15:37:39.979Z</time></trkpt><trkpt lat="42.7107611" lon="12.081925"><ele>303.0</ele><time>2026-04-30T15:37:40.979Z</time></trkpt><trkpt lat="42.7108523" lon="12.0820194"><ele>303.0</ele><time>2026-04-30T15:37:41.979Z</time></trkpt><trkpt lat="42.7109475" lon="12.082105"><ele>303.0</ele><time>2026-04-30T15:37:42.98Z</time></trkpt><trkpt lat="42.7110502" lon="12.0821771"><ele>302.8</ele><time>2026-04-30T15:37:43.979Z</time></trkpt><trkpt lat="42.7111567" lon="12.0822126"><ele>302.6</ele><time>2026-04-30T15:37:44.979Z</time></trkpt><trkpt lat="42.7112669" lon="12.0822208"><ele>302.4</ele><time>2026-04-30T15:37:45.979Z</time></trkpt><trkpt lat="42.7113825" lon="12.0822129"><ele>302.2</ele><time>2026-04-30T15:37:46.979Z</time></trkpt><trkpt lat="42.7114918" lon="12.0821994"><ele>302.0</ele><time>2026-04-30T15:37:47.979Z</time></trkpt><trkpt lat="42.7116017" lon="12.0821887"><ele>302.0</ele><time>2026-04-30T15:37:48.979Z</time></trkpt><trkpt lat="42.7117137" lon="12.0821857"><ele>302.0</ele><time>2026-04-30T15:37:49.98Z</time></trkpt><trkpt lat="42.7118296" lon="12.0821755"><ele>302.0</ele><time>2026-04-30T15:37:50.979Z</time></trkpt><trkpt lat="42.7119509" lon="12.0821395"><ele>302.0</ele><time>2026-04-30T15:37:51.98Z</time></trkpt><trkpt lat="42.7120633" lon="12.0820719"><ele>297.33333333333337</ele><time>2026-04-30T15:37:52.979Z</time></trkpt><trkpt lat="42.7121813" lon="12.0819709"><ele>292.6666666666667</ele><time>2026-04-30T15:37:53.979Z</time></trkpt><trkpt lat="42.7123051" lon="12.081825"><ele>288.0</ele><time>2026-04-30T15:37:54.98Z</time></trkpt><trkpt lat="42.712446" lon="12.0816395"><ele>284.5</ele><time>2026-04-30T15:37:55.979Z</time></trkpt><trkpt lat="42.7126298" lon="12.0814796"><ele>281.0</ele><time>2026-04-30T15:37:56.979Z</time></trkpt><trkpt lat="42.7128386" lon="12.0813425"><ele>281.0</ele><time>2026-04-30T15:37:57.98Z</time></trkpt><trkpt lat="42.7130462" lon="12.081209"><ele>281.0</ele><time>2026-04-30T15:37:58.979Z</time></trkpt><trkpt lat="42.7132178" lon="12.0810462"><ele>281.0</ele><time>2026-04-30T15:37:59.98Z</time></trkpt><trkpt lat="42.7133471" lon="12.0808836"><ele>281.40000000000003</ele><time>2026-04-30T15:38:00.979Z</time></trkpt><trkpt lat="42.7134495" lon="12.0807369"><ele>281.8</ele><time>2026-04-30T15:38:01.98Z</time></trkpt><trkpt lat="42.7135333" lon="12.080623"><ele>282.20000000000005</ele><time>2026-04-30T15:38:02.98Z</time></trkpt><trkpt lat="42.7136162" lon="12.0805821"><ele>282.6</ele><time>2026-04-30T15:38:03.979Z</time></trkpt><trkpt lat="42.7136784" lon="12.0806021"><ele>283.0</ele><time>2026-04-30T15:38:04.979Z</time></trkpt><trkpt lat="42.7136796" lon="12.0807927"><ele>282.3333333333333</ele><time>2026-04-30T15:38:06.979Z</time></trkpt><trkpt lat="42.7136099" lon="12.0809402"><ele>281.6666666666667</ele><time>2026-04-30T15:38:07.98Z</time></trkpt><trkpt lat="42.7135027" lon="12.0811357"><ele>281.0</ele><time>2026-04-30T15:38:08.979Z</time></trkpt><trkpt lat="42.7133541" lon="12.0813741"><ele>276.5</ele><time>2026-04-30T15:38:09.98Z</time></trkpt><trkpt lat="42.7131771" lon="12.0816538"><ele>272.0</ele><time>2026-04-30T15:38:10.979Z</time></trkpt><trkpt lat="42.7129933" lon="12.0819583"><ele>272.0</ele><time>2026-04-30T15:38:11.979Z</time></trkpt><trkpt lat="42.7128261" lon="12.0822468"><ele>272.0</ele><time>2026-04-30T15:38:12.98Z</time></trkpt><trkpt lat="42.7126798" lon="12.0825057"><ele>274.33333333333337</ele><time>2026-04-30T15:38:13.98Z</time></trkpt><trkpt lat="42.7125555" lon="12.0827153"><ele>276.6666666666667</ele><time>2026-04-30T15:38:14.979Z</time></trkpt><trkpt lat="42.7124509" lon="12.0828924"><ele>279.0</ele><time>2026-04-30T15:38:15.98Z</time></trkpt><trkpt lat="42.7123866" lon="12.0830373"><ele>279.0</ele><time>2026-04-30T15:38:16.98Z</time></trkpt><trkpt lat="42.7123758" lon="12.0831775"><ele>279.0</ele><time>2026-04-30T15:38:17.979Z</time></trkpt><trkpt lat="42.7124192" lon="12.0833002"><ele>279.0</ele><time>2026-04-30T15:38:18.98Z</time></trkpt><trkpt lat="42.7125123" lon="12.0833724"><ele>279.0</ele><time>2026-04-30T15:38:19.979Z</time></trkpt><trkpt lat="42.7126352" lon="12.0833752"><ele>279.0</ele><time>2026-04-30T15:38:20.979Z</time></trkpt><trkpt lat="42.712782" lon="12.0833085"><ele>275.6666666666667</ele><time>2026-04-30T15:38:21.979Z</time></trkpt><trkpt lat="42.7129379" lon="12.0831909"><ele>272.33333333333337</ele><time>2026-04-30T15:38:22.979Z</time></trkpt><trkpt lat="42.7131106" lon="12.0830452"><ele>269.0</ele><time>2026-04-30T15:38:23.979Z</time></trkpt><trkpt lat="42.7132948" lon="12.0828877"><ele>269.0</ele><time>2026-04-30T15:38:24.979Z</time></trkpt><trkpt lat="42.7134844" lon="12.082722"><ele>269.0</ele><time>2026-04-30T15:38:25.979Z</time></trkpt><trkpt lat="42.7136754" lon="12.0825377"><ele>264.5</ele><time>2026-04-30T15:38:26.979Z</time></trkpt><trkpt lat="42.7138688" lon="12.082335"><ele>260.0</ele><time>2026-04-30T15:38:27.979Z</time></trkpt><trkpt lat="42.7140601" lon="12.0821132"><ele>260.0</ele><time>2026-04-30T15:38:28.979Z</time></trkpt><trkpt lat="42.7142393" lon="12.0819012"><ele>260.0</ele><time>2026-04-30T15:38:29.979Z</time></trkpt><trkpt lat="42.714403" lon="12.0816855"><ele>256.0</ele><time>2026-04-30T15:38:30.979Z</time></trkpt><trkpt lat="42.7145404" lon="12.0814785"><ele>252.0</ele><time>2026-04-30T15:38:31.979Z</time></trkpt><trkpt lat="42.7146461" lon="12.0812819"><ele>248.0</ele><time>2026-04-30T15:38:32.979Z</time></trkpt><trkpt lat="42.714728" lon="12.0810944"><ele>248.0</ele><time>2026-04-30T15:38:33.979Z</time></trkpt><trkpt lat="42.7147686" lon="12.0809314"><ele>248.0</ele><time>2026-04-30T15:38:34.98Z</time></trkpt><trkpt lat="42.7147837" lon="12.0807901"><ele>248.0</ele><time>2026-04-30T15:38:35.979Z</time></trkpt><trkpt lat="42.7147894" lon="12.0806729"><ele>248.0</ele><time>2026-04-30T15:38:36.98Z</time></trkpt><trkpt lat="42.7147949" lon="12.0805719"><ele>248.0</ele><time>2026-04-30T15:38:37.979Z</time></trkpt><trkpt lat="42.7148242" lon="12.0804957"><ele>248.0</ele><time>2026-04-30T15:38:38.979Z</time></trkpt><trkpt lat="42.7149384" lon="12.080496"><ele>248.0</ele><time>2026-04-30T15:38:40.979Z</time></trkpt><trkpt lat="42.7150007" lon="12.0805674"><ele>248.0</ele><time>2026-04-30T15:38:41.979Z</time></trkpt><trkpt lat="42.7150653" lon="12.080678"><ele>248.0</ele><time>2026-04-30T15:38:42.979Z</time></trkpt><trkpt lat="42.7151271" lon="12.080819"><ele>248.0</ele><time>2026-04-30T15:38:43.979Z</time></trkpt><trkpt lat="42.7151773" lon="12.0809635"><ele>248.0</ele><time>2026-04-30T15:38:44.98Z</time></trkpt><trkpt lat="42.7152187" lon="12.0811143"><ele>248.0</ele><time>2026-04-30T15:38:45.98Z</time></trkpt><trkpt lat="42.7152479" lon="12.081279"><ele>248.0</ele><time>2026-04-30T15:38:46.98Z</time></trkpt><trkpt lat="42.7152606" lon="12.0814453"><ele>248.0</ele><time>2026-04-30T15:38:47.979Z</time></trkpt><trkpt lat="42.7152628" lon="12.0816254"><ele>248.25</ele><time>2026-04-30T15:38:48.979Z</time></trkpt><trkpt lat="42.7152477" lon="12.0818075"><ele>248.5</ele><time>2026-04-30T15:38:49.979Z</time></trkpt><trkpt lat="42.715226" lon="12.0819955"><ele>248.75</ele><time>2026-04-30T15:38:50.98Z</time></trkpt><trkpt lat="42.7151967" lon="12.0821738"><ele>249.0</ele><time>2026-04-30T15:38:51.979Z</time></trkpt><trkpt lat="42.7151628" lon="12.0823435"><ele>247.75</ele><time>2026-04-30T15:38:52.98Z</time></trkpt><trkpt lat="42.7151336" lon="12.0825238"><ele>246.5</ele><time>2026-04-30T15:38:53.979Z</time></trkpt><trkpt lat="42.7151078" lon="12.0827171"><ele>245.25</ele><time>2026-04-30T15:38:54.979Z</time></trkpt><trkpt lat="42.7150922" lon="12.0829335"><ele>244.0</ele><time>2026-04-30T15:38:55.979Z</time></trkpt><trkpt lat="42.7150778" lon="12.0831659"><ele>243.0</ele><time>2026-04-30T15:38:56.979Z</time></trkpt><trkpt lat="42.7150645" lon="12.0833848"><ele>242.0</ele><time>2026-04-30T15:38:57.98Z</time></trkpt><trkpt lat="42.7150554" lon="12.0835912"><ele>241.0</ele><time>2026-04-30T15:38:58.98Z</time></trkpt><trkpt lat="42.7150444" lon="12.0837701"><ele>240.0</ele><time>2026-04-30T15:38:59.979Z</time></trkpt><trkpt lat="42.7150457" lon="12.0839278"><ele>240.0</ele><time>2026-04-30T15:39:00.979Z</time></trkpt><trkpt lat="42.7150359" lon="12.0840589"><ele>240.0</ele><time>2026-04-30T15:39:01.98Z</time></trkpt><trkpt lat="42.7150168" lon="12.0841714"><ele>240.0</ele><time>2026-04-30T15:39:02.98Z</time></trkpt><trkpt lat="42.7149873" lon="12.0842822"><ele>240.0</ele><time>2026-04-30T15:39:03.979Z</time></trkpt><trkpt lat="42.7149416" lon="12.0843799"><ele>240.0</ele><time>2026-04-30T15:39:04.979Z</time></trkpt><trkpt lat="42.7148845" lon="12.0844661"><ele>240.0</ele><time>2026-04-30T15:39:05.979Z</time></trkpt><trkpt lat="42.7148181" lon="12.0845509"><ele>239.2</ele><time>2026-04-30T15:39:06.979Z</time></trkpt><trkpt lat="42.7147449" lon="12.0846463"><ele>238.4</ele><time>2026-04-30T15:39:07.98Z</time></trkpt><trkpt lat="42.7146674" lon="12.0847526"><ele>237.60000000000002</ele><time>2026-04-30T15:39:08.979Z</time></trkpt><trkpt lat="42.7145944" lon="12.0848728"><ele>236.8</ele><time>2026-04-30T15:39:09.979Z</time></trkpt><trkpt lat="42.7145183" lon="12.085"><ele>236.0</ele><time>2026-04-30T15:39:10.98Z</time></trkpt><trkpt lat="42.7144447" lon="12.0851296"><ele>236.5</ele><time>2026-04-30T15:39:11.979Z</time></trkpt><trkpt lat="42.7143761" lon="12.0852702"><ele>237.0</ele><time>2026-04-30T15:39:12.979Z</time></trkpt><trkpt lat="42.7143133" lon="12.0854174"><ele>237.5</ele><time>2026-04-30T15:39:13.979Z</time></trkpt><trkpt lat="42.7142695" lon="12.0855733"><ele>238.0</ele><time>2026-04-30T15:39:14.979Z</time></trkpt><trkpt lat="42.7142477" lon="12.085741"><ele>236.25</ele><time>2026-04-30T15:39:15.979Z</time></trkpt><trkpt lat="42.7142437" lon="12.0859096"><ele>234.5</ele><time>2026-04-30T15:39:16.979Z</time></trkpt><trkpt lat="42.7142721" lon="12.0860687"><ele>232.75</ele><time>2026-04-30T15:39:17.98Z</time></trkpt><trkpt lat="42.7143383" lon="12.0862333"><ele>231.0</ele><time>2026-04-30T15:39:18.979Z</time></trkpt><trkpt lat="42.7144315" lon="12.0864139"><ele>225.66666666666669</ele><time>2026-04-30T15:39:19.979Z</time></trkpt><trkpt lat="42.7145198" lon="12.086637"><ele>220.33333333333334</ele><time>2026-04-30T15:39:20.98Z</time></trkpt><trkpt lat="42.7146099" lon="12.0868874"><ele>215.0</ele><time>2026-04-30T15:39:21.979Z</time></trkpt><trkpt lat="42.7147182" lon="12.0871443"><ele>215.0</ele><time>2026-04-30T15:39:22.979Z</time></trkpt><trkpt lat="42.7148359" lon="12.0873984"><ele>215.0</ele><time>2026-04-30T15:39:23.979Z</time></trkpt><trkpt lat="42.7149468" lon="12.0876429"><ele>215.0</ele><time>2026-04-30T15:39:24.98Z</time></trkpt><trkpt lat="42.7150428" lon="12.0878784"><ele>215.66666666666669</ele><time>2026-04-30T15:39:25.98Z</time></trkpt><trkpt lat="42.7151289" lon="12.0880873"><ele>216.33333333333331</ele><time>2026-04-30T15:39:26.98Z</time></trkpt><trkpt lat="42.7152078" lon="12.0882626"><ele>217.0</ele><time>2026-04-30T15:39:27.981Z</time></trkpt><trkpt lat="42.7152739" lon="12.0884174"><ele>214.25</ele><time>2026-04-30T15:39:28.98Z</time></trkpt><trkpt lat="42.7153333" lon="12.0885702"><ele>211.5</ele><time>2026-04-30T15:39:29.981Z</time></trkpt><trkpt lat="42.7153798" lon="12.0887194"><ele>208.75</ele><time>2026-04-30T15:39:30.981Z</time></trkpt><trkpt lat="42.7154129" lon="12.0888698"><ele>206.0</ele><time>2026-04-30T15:39:31.98Z</time></trkpt><trkpt lat="42.715431" lon="12.0890191"><ele>205.75</ele><time>2026-04-30T15:39:32.98Z</time></trkpt><trkpt lat="42.7154337" lon="12.0891737"><ele>205.5</ele><time>2026-04-30T15:39:33.98Z</time></trkpt><trkpt lat="42.7154285" lon="12.0893345"><ele>205.25</ele><time>2026-04-30T15:39:34.981Z</time></trkpt><trkpt lat="42.7154195" lon="12.0894899"><ele>205.0</ele><time>2026-04-30T15:39:35.98Z</time></trkpt><trkpt lat="42.7153998" lon="12.0896441"><ele>205.0</ele><time>2026-04-30T15:39:36.98Z</time></trkpt><trkpt lat="42.7153698" lon="12.0897993"><ele>205.0</ele><time>2026-04-30T15:39:37.98Z</time></trkpt><trkpt lat="42.7153355" lon="12.0899605"><ele>205.0</ele><time>2026-04-30T15:39:38.98Z</time></trkpt><trkpt lat="42.7152926" lon="12.0901193"><ele>205.0</ele><time>2026-04-30T15:39:39.98Z</time></trkpt><trkpt lat="42.7152393" lon="12.0902696"><ele>204.5</ele><time>2026-04-30T15:39:40.981Z</time></trkpt><trkpt lat="42.7151655" lon="12.090407"><ele>204.0</ele><time>2026-04-30T15:39:41.981Z</time></trkpt><trkpt lat="42.7150762" lon="12.0905421"><ele>203.5</ele><time>2026-04-30T15:39:42.98Z</time></trkpt><trkpt lat="42.7149886" lon="12.0906808"><ele>203.0</ele><time>2026-04-30T15:39:43.981Z</time></trkpt><trkpt lat="42.7148947" lon="12.0908244"><ele>203.0</ele><time>2026-04-30T15:39:44.981Z</time></trkpt><trkpt lat="42.7147932" lon="12.0909709"><ele>203.0</ele><time>2026-04-30T15:39:45.98Z</time></trkpt><trkpt lat="42.7146839" lon="12.0911225"><ele>203.0</ele><time>2026-04-30T15:39:46.981Z</time></trkpt><trkpt lat="42.7145757" lon="12.091271"><ele>203.0</ele><time>2026-04-30T15:39:47.98Z</time></trkpt><trkpt lat="42.7144651" lon="12.0914089"><ele>203.0</ele><time>2026-04-30T15:39:48.98Z</time></trkpt><trkpt lat="42.714353" lon="12.0915314"><ele>203.0</ele><time>2026-04-30T15:39:49.98Z</time></trkpt><trkpt lat="42.7142485" lon="12.0916488"><ele>203.0</ele><time>2026-04-30T15:39:50.98Z</time></trkpt><trkpt lat="42.7141479" lon="12.0917495"><ele>202.2</ele><time>2026-04-30T15:39:51.981Z</time></trkpt><trkpt lat="42.7140539" lon="12.0918292"><ele>201.4</ele><time>2026-04-30T15:39:52.981Z</time></trkpt><trkpt lat="42.7139582" lon="12.0918905"><ele>200.6</ele><time>2026-04-30T15:39:53.98Z</time></trkpt><trkpt lat="42.7138643" lon="12.0919462"><ele>199.79999999999998</ele><time>2026-04-30T15:39:54.98Z</time></trkpt><trkpt lat="42.7137795" lon="12.0920065"><ele>199.0</ele><time>2026-04-30T15:39:55.98Z</time></trkpt><trkpt lat="42.7137009" lon="12.0920769"><ele>198.99999999999997</ele><time>2026-04-30T15:39:56.981Z</time></trkpt><trkpt lat="42.7136307" lon="12.0921454"><ele>199.0</ele><time>2026-04-30T15:39:57.98Z</time></trkpt><trkpt lat="42.7135766" lon="12.0922195"><ele>199.0</ele><time>2026-04-30T15:39:58.981Z</time></trkpt><trkpt lat="42.7135441" lon="12.0923039"><ele>199.0</ele><time>2026-04-30T15:39:59.981Z</time></trkpt><trkpt lat="42.7135332" lon="12.0923968"><ele>198.99999999999997</ele><time>2026-04-30T15:40:00.98Z</time></trkpt><trkpt lat="42.7135347" lon="12.0925008"><ele>199.0</ele><time>2026-04-30T15:40:01.98Z</time></trkpt><trkpt lat="42.7135367" lon="12.0926102"><ele>199.25</ele><time>2026-04-30T15:40:02.98Z</time></trkpt><trkpt lat="42.7135507" lon="12.092721"><ele>199.5</ele><time>2026-04-30T15:40:03.98Z</time></trkpt><trkpt lat="42.713577" lon="12.0928508"><ele>199.75</ele><time>2026-04-30T15:40:04.98Z</time></trkpt><trkpt lat="42.7136396" lon="12.0930209"><ele>200.0</ele><time>2026-04-30T15:40:05.98Z</time></trkpt><trkpt lat="42.7137265" lon="12.0932316"><ele>195.66666666666669</ele><time>2026-04-30T15:40:06.98Z</time></trkpt><trkpt lat="42.7138221" lon="12.0934682"><ele>191.33333333333334</ele><time>2026-04-30T15:40:07.98Z</time></trkpt><trkpt lat="42.7139275" lon="12.0937329"><ele>187.0</ele><time>2026-04-30T15:40:08.98Z</time></trkpt><trkpt lat="42.7140442" lon="12.09401"><ele>187.0</ele><time>2026-04-30T15:40:09.98Z</time></trkpt><trkpt lat="42.7141586" lon="12.0942784"><ele>187.0</ele><time>2026-04-30T15:40:10.98Z</time></trkpt><trkpt lat="42.7142665" lon="12.0945332"><ele>187.0</ele><time>2026-04-30T15:40:11.98Z</time></trkpt><trkpt lat="42.7143656" lon="12.09477"><ele>187.33333333333334</ele><time>2026-04-30T15:40:12.98Z</time></trkpt><trkpt lat="42.7144479" lon="12.0949876"><ele>187.66666666666666</ele><time>2026-04-30T15:40:13.98Z</time></trkpt><trkpt lat="42.7145257" lon="12.0951791"><ele>188.0</ele><time>2026-04-30T15:40:14.98Z</time></trkpt><trkpt lat="42.7145995" lon="12.0953523"><ele>188.0</ele><time>2026-04-30T15:40:15.98Z</time></trkpt><trkpt lat="42.7146702" lon="12.095516"><ele>188.0</ele><time>2026-04-30T15:40:16.98Z</time></trkpt><trkpt lat="42.7147393" lon="12.0956659"><ele>188.0</ele><time>2026-04-30T15:40:17.98Z</time></trkpt><trkpt lat="42.7148052" lon="12.0958026"><ele>188.0</ele><time>2026-04-30T15:40:18.981Z</time></trkpt><trkpt lat="42.7148693" lon="12.0959319"><ele>188.75</ele><time>2026-04-30T15:40:19.98Z</time></trkpt><trkpt lat="42.714932" lon="12.0960666"><ele>189.5</ele><time>2026-04-30T15:40:20.98Z</time></trkpt><trkpt lat="42.7150082" lon="12.0962193"><ele>190.25</ele><time>2026-04-30T15:40:21.98Z</time></trkpt><trkpt lat="42.7150944" lon="12.0963995"><ele>191.0</ele><time>2026-04-30T15:40:22.981Z</time></trkpt><trkpt lat="42.7151882" lon="12.0966125"><ele>193.0</ele><time>2026-04-30T15:40:23.98Z</time></trkpt><trkpt lat="42.7152865" lon="12.0968471"><ele>195.0</ele><time>2026-04-30T15:40:24.98Z</time></trkpt><trkpt lat="42.7153839" lon="12.0970863"><ele>197.0</ele><time>2026-04-30T15:40:25.98Z</time></trkpt><trkpt lat="42.7154774" lon="12.0972953"><ele>197.25</ele><time>2026-04-30T15:40:26.98Z</time></trkpt><trkpt lat="42.7155632" lon="12.0974785"><ele>197.5</ele><time>2026-04-30T15:40:27.98Z</time></trkpt><trkpt lat="42.7156337" lon="12.097628"><ele>197.75</ele><time>2026-04-30T15:40:28.98Z</time></trkpt><trkpt lat="42.7156796" lon="12.0977466"><ele>198.0</ele><time>2026-04-30T15:40:29.98Z</time></trkpt><trkpt lat="42.7157158" lon="12.0978324"><ele>198.0</ele><time>2026-04-30T15:40:30.98Z</time></trkpt><trkpt lat="42.7157668" lon="12.0979464"><ele>198.0</ele><time>2026-04-30T15:40:32.98Z</time></trkpt><trkpt lat="42.7157874" lon="12.0980462"><ele>198.0</ele><time>2026-04-30T15:40:38.981Z</time></trkpt><trkpt lat="42.715757" lon="12.0981519"><ele>198.0</ele><time>2026-04-30T15:40:41.98Z</time></trkpt><trkpt lat="42.7156812" lon="12.0982061"><ele>198.0</ele><time>2026-04-30T15:40:43.981Z</time></trkpt><trkpt lat="42.7155532" lon="12.0982311"><ele>198.0</ele><time>2026-04-30T15:40:45.981Z</time></trkpt><trkpt lat="42.7154834" lon="12.098244"><ele>198.0</ele><time>2026-04-30T15:40:46.98Z</time></trkpt><trkpt lat="42.715407" lon="12.098264"><ele>198.0</ele><time>2026-04-30T15:40:47.98Z</time></trkpt><trkpt lat="42.7153216" lon="12.0982924"><ele>198.0</ele><time>2026-04-30T15:40:48.98Z</time></trkpt><trkpt lat="42.7152275" lon="12.0983309"><ele>198.0</ele><time>2026-04-30T15:40:49.98Z</time></trkpt><trkpt lat="42.7151286" lon="12.0983843"><ele>198.0</ele><time>2026-04-30T15:40:50.98Z</time></trkpt><trkpt lat="42.7150287" lon="12.0984481"><ele>196.5</ele><time>2026-04-30T15:40:51.98Z</time></trkpt><trkpt lat="42.7149311" lon="12.0985345"><ele>195.0</ele><time>2026-04-30T15:40:52.98Z</time></trkpt><trkpt lat="42.7148418" lon="12.098643"><ele>193.5</ele><time>2026-04-30T15:40:53.981Z</time></trkpt><trkpt lat="42.714767" lon="12.0987797"><ele>192.0</ele><time>2026-04-30T15:40:54.981Z</time></trkpt><trkpt lat="42.7147073" lon="12.0989419"><ele>192.0</ele><time>2026-04-30T15:40:55.98Z</time></trkpt><trkpt lat="42.7146563" lon="12.0991214"><ele>192.0</ele><time>2026-04-30T15:40:56.98Z</time></trkpt><trkpt lat="42.7146143" lon="12.09929"><ele>192.0</ele><time>2026-04-30T15:40:57.98Z</time></trkpt><trkpt lat="42.7145738" lon="12.0994596"><ele>192.0</ele><time>2026-04-30T15:40:58.98Z</time></trkpt><trkpt lat="42.7145349" lon="12.0996381"><ele>192.0</ele><time>2026-04-30T15:40:59.98Z</time></trkpt><trkpt lat="42.7144862" lon="12.0998195"><ele>192.0</ele><time>2026-04-30T15:41:00.98Z</time></trkpt><trkpt lat="42.7144435" lon="12.1000003"><ele>192.0</ele><time>2026-04-30T15:41:01.98Z</time></trkpt><trkpt lat="42.7144024" lon="12.1001849"><ele>192.0</ele><time>2026-04-30T15:41:02.98Z</time></trkpt><trkpt lat="42.7143649" lon="12.1003759"><ele>191.25</ele><time>2026-04-30T15:41:03.98Z</time></trkpt><trkpt lat="42.7143256" lon="12.1005626"><ele>190.5</ele><time>2026-04-30T15:41:04.98Z</time></trkpt><trkpt lat="42.7142781" lon="12.1007457"><ele>189.75</ele><time>2026-04-30T15:41:05.981Z</time></trkpt><trkpt lat="42.7142284" lon="12.1009314"><ele>189.0</ele><time>2026-04-30T15:41:06.981Z</time></trkpt><trkpt lat="42.714188" lon="12.1011163"><ele>189.0</ele><time>2026-04-30T15:41:07.98Z</time></trkpt><trkpt lat="42.7141366" lon="12.1013012"><ele>189.0</ele><time>2026-04-30T15:41:08.981Z</time></trkpt><trkpt lat="42.7140876" lon="12.1014871"><ele>189.0</ele><time>2026-04-30T15:41:09.981Z</time></trkpt><trkpt lat="42.7140381" lon="12.1016695"><ele>189.0</ele><time>2026-04-30T15:41:10.98Z</time></trkpt><trkpt lat="42.7139923" lon="12.1018512"><ele>189.5</ele><time>2026-04-30T15:41:11.98Z</time></trkpt><trkpt lat="42.7139623" lon="12.1020264"><ele>190.0</ele><time>2026-04-30T15:41:12.98Z</time></trkpt><trkpt lat="42.7139255" lon="12.1022011"><ele>190.5</ele><time>2026-04-30T15:41:13.98Z</time></trkpt><trkpt lat="42.7138822" lon="12.1023608"><ele>191.0</ele><time>2026-04-30T15:41:14.98Z</time></trkpt><trkpt lat="42.7138355" lon="12.1025239"><ele>191.0</ele><time>2026-04-30T15:41:15.98Z</time></trkpt><trkpt lat="42.7137812" lon="12.1026934"><ele>191.0</ele><time>2026-04-30T15:41:16.981Z</time></trkpt><trkpt lat="42.7137263" lon="12.1028709"><ele>191.0</ele><time>2026-04-30T15:41:17.98Z</time></trkpt><trkpt lat="42.7136781" lon="12.1030544"><ele>191.0</ele><time>2026-04-30T15:41:18.98Z</time></trkpt><trkpt lat="42.7136284" lon="12.1032369"><ele>191.0</ele><time>2026-04-30T15:41:19.981Z</time></trkpt><trkpt lat="42.7135848" lon="12.1034179"><ele>191.0</ele><time>2026-04-30T15:41:20.98Z</time></trkpt><trkpt lat="42.7135302" lon="12.1035971"><ele>191.0</ele><time>2026-04-30T15:41:21.98Z</time></trkpt><trkpt lat="42.7134719" lon="12.103778"><ele>191.0</ele><time>2026-04-30T15:41:22.981Z</time></trkpt><trkpt lat="42.7134207" lon="12.1039515"><ele>190.5</ele><time>2026-04-30T15:41:23.98Z</time></trkpt><trkpt lat="42.7133588" lon="12.1041159"><ele>190.0</ele><time>2026-04-30T15:41:24.98Z</time></trkpt><trkpt lat="42.7132979" lon="12.1042747"><ele>189.5</ele><time>2026-04-30T15:41:25.98Z</time></trkpt><trkpt lat="42.7132321" lon="12.1044209"><ele>189.0</ele><time>2026-04-30T15:41:26.98Z</time></trkpt><trkpt lat="42.7131711" lon="12.1045558"><ele>189.0</ele><time>2026-04-30T15:41:27.98Z</time></trkpt><trkpt lat="42.7131072" lon="12.1046914"><ele>189.0</ele><time>2026-04-30T15:41:28.98Z</time></trkpt><trkpt lat="42.7130389" lon="12.1048358"><ele>189.0</ele><time>2026-04-30T15:41:29.98Z</time></trkpt><trkpt lat="42.7129677" lon="12.1049851"><ele>189.0</ele><time>2026-04-30T15:41:30.981Z</time></trkpt><trkpt lat="42.7128847" lon="12.1051353"><ele>188.5</ele><time>2026-04-30T15:41:31.981Z</time></trkpt><trkpt lat="42.7127946" lon="12.1052759"><ele>188.0</ele><time>2026-04-30T15:41:32.98Z</time></trkpt><trkpt lat="42.7127042" lon="12.1054293"><ele>187.5</ele><time>2026-04-30T15:41:33.981Z</time></trkpt><trkpt lat="42.7126421" lon="12.1055902"><ele>187.0</ele><time>2026-04-30T15:41:34.98Z</time></trkpt><trkpt lat="42.7125981" lon="12.1057685"><ele>187.0</ele><time>2026-04-30T15:41:35.98Z</time></trkpt><trkpt lat="42.7125685" lon="12.1059542"><ele>187.0</ele><time>2026-04-30T15:41:36.981Z</time></trkpt><trkpt lat="42.7125426" lon="12.1061472"><ele>187.0</ele><time>2026-04-30T15:41:37.981Z</time></trkpt><trkpt lat="42.712511" lon="12.106337"><ele>187.0</ele><time>2026-04-30T15:41:38.98Z</time></trkpt><trkpt lat="42.7124824" lon="12.1065184"><ele>187.25</ele><time>2026-04-30T15:41:39.981Z</time></trkpt><trkpt lat="42.7124521" lon="12.1067076"><ele>187.5</ele><time>2026-04-30T15:41:40.981Z</time></trkpt><trkpt lat="42.7124178" lon="12.1068921"><ele>187.75</ele><time>2026-04-30T15:41:41.981Z</time></trkpt><trkpt lat="42.7123716" lon="12.10709"><ele>188.0</ele><time>2026-04-30T15:41:42.98Z</time></trkpt><trkpt lat="42.7123232" lon="12.1072892"><ele>188.66666666666666</ele><time>2026-04-30T15:41:43.98Z</time></trkpt><trkpt lat="42.712278" lon="12.1074873"><ele>189.33333333333334</ele><time>2026-04-30T15:41:44.98Z</time></trkpt><trkpt lat="42.7122276" lon="12.1076899"><ele>190.0</ele><time>2026-04-30T15:41:45.981Z</time></trkpt><trkpt lat="42.7121826" lon="12.1078928"><ele>190.0</ele><time>2026-04-30T15:41:46.98Z</time></trkpt><trkpt lat="42.7121445" lon="12.1080955"><ele>190.0</ele><time>2026-04-30T15:41:47.98Z</time></trkpt><trkpt lat="42.7121103" lon="12.1083051"><ele>190.0</ele><time>2026-04-30T15:41:48.981Z</time></trkpt><trkpt lat="42.7120699" lon="12.1085109"><ele>191.0</ele><time>2026-04-30T15:41:49.98Z</time></trkpt><trkpt lat="42.712036" lon="12.1087024"><ele>192.0</ele><time>2026-04-30T15:41:50.98Z</time></trkpt><trkpt lat="42.7120068" lon="12.1088775"><ele>193.0</ele><time>2026-04-30T15:41:51.98Z</time></trkpt><trkpt lat="42.7119819" lon="12.1090486"><ele>194.0</ele><time>2026-04-30T15:41:52.98Z</time></trkpt><trkpt lat="42.7119624" lon="12.1092255"><ele>194.0</ele><time>2026-04-30T15:41:53.981Z</time></trkpt><trkpt lat="42.7119527" lon="12.1094069"><ele>194.0</ele><time>2026-04-30T15:41:54.98Z</time></trkpt><trkpt lat="42.7119492" lon="12.1095911"><ele>194.0</ele><time>2026-04-30T15:41:55.981Z</time></trkpt><trkpt lat="42.7119555" lon="12.1097652"><ele>194.0</ele><time>2026-04-30T15:41:56.98Z</time></trkpt><trkpt lat="42.7119753" lon="12.1099318"><ele>194.0</ele><time>2026-04-30T15:41:57.981Z</time></trkpt><trkpt lat="42.7119922" lon="12.1101019"><ele>194.0</ele><time>2026-04-30T15:41:58.98Z</time></trkpt><trkpt lat="42.7120028" lon="12.1102758"><ele>194.0</ele><time>2026-04-30T15:41:59.98Z</time></trkpt><trkpt lat="42.7120178" lon="12.1104431"><ele>194.0</ele><time>2026-04-30T15:42:00.98Z</time></trkpt><trkpt lat="42.712033" lon="12.1106042"><ele>193.39999999999998</ele><time>2026-04-30T15:42:01.98Z</time></trkpt><trkpt lat="42.7120456" lon="12.110767"><ele>192.8</ele><time>2026-04-30T15:42:02.98Z</time></trkpt><trkpt lat="42.712056" lon="12.1109219"><ele>192.2</ele><time>2026-04-30T15:42:03.98Z</time></trkpt><trkpt lat="42.7120665" lon="12.1110616"><ele>191.60000000000002</ele><time>2026-04-30T15:42:04.98Z</time></trkpt><trkpt lat="42.712081" lon="12.1111842"><ele>191.0</ele><time>2026-04-30T15:42:05.98Z</time></trkpt><trkpt lat="42.7120993" lon="12.1113106"><ele>191.0</ele><time>2026-04-30T15:42:06.981Z</time></trkpt><trkpt lat="42.712119" lon="12.1114355"><ele>191.0</ele><time>2026-04-30T15:42:07.981Z</time></trkpt><trkpt lat="42.712149" lon="12.1115626"><ele>191.0</ele><time>2026-04-30T15:42:08.981Z</time></trkpt><trkpt lat="42.7121715" lon="12.1116762"><ele>191.0</ele><time>2026-04-30T15:42:09.98Z</time></trkpt><trkpt lat="42.7121974" lon="12.1117797"><ele>191.0</ele><time>2026-04-30T15:42:10.98Z</time></trkpt><trkpt lat="42.7122222" lon="12.1118868"><ele>191.0</ele><time>2026-04-30T15:42:11.98Z</time></trkpt><trkpt lat="42.7122388" lon="12.1119999"><ele>190.60000000000002</ele><time>2026-04-30T15:42:12.98Z</time></trkpt><trkpt lat="42.7122449" lon="12.1121265"><ele>190.2</ele><time>2026-04-30T15:42:13.981Z</time></trkpt><trkpt lat="42.7122253" lon="12.1122556"><ele>189.8</ele><time>2026-04-30T15:42:14.981Z</time></trkpt><trkpt lat="42.7121962" lon="12.1123891"><ele>189.39999999999998</ele><time>2026-04-30T15:42:15.98Z</time></trkpt><trkpt lat="42.7121644" lon="12.1125272"><ele>189.0</ele><time>2026-04-30T15:42:16.981Z</time></trkpt><trkpt lat="42.7121293" lon="12.1126614"><ele>188.0</ele><time>2026-04-30T15:42:17.98Z</time></trkpt><trkpt lat="42.7120926" lon="12.1127993"><ele>187.0</ele><time>2026-04-30T15:42:18.98Z</time></trkpt><trkpt lat="42.7120532" lon="12.112939"><ele>186.0</ele><time>2026-04-30T15:42:19.981Z</time></trkpt><trkpt lat="42.7120099" lon="12.1130981"><ele>185.0</ele><time>2026-04-30T15:42:20.981Z</time></trkpt><trkpt lat="42.7119753" lon="12.1132499"><ele>183.25</ele><time>2026-04-30T15:42:21.98Z</time></trkpt><trkpt lat="42.7119543" lon="12.1134043"><ele>181.5</ele><time>2026-04-30T15:42:22.98Z</time></trkpt><trkpt lat="42.711954" lon="12.1135582"><ele>179.75</ele><time>2026-04-30T15:42:23.98Z</time></trkpt><trkpt lat="42.7119835" lon="12.1137055"><ele>178.0</ele><time>2026-04-30T15:42:24.98Z</time></trkpt><trkpt lat="42.712026" lon="12.1138505"><ele>178.0</ele><time>2026-04-30T15:42:25.98Z</time></trkpt><trkpt lat="42.7120817" lon="12.1139942"><ele>178.0</ele><time>2026-04-30T15:42:26.981Z</time></trkpt><trkpt lat="42.7121408" lon="12.1141478"><ele>178.0</ele><time>2026-04-30T15:42:27.98Z</time></trkpt><trkpt lat="42.7122095" lon="12.1143059"><ele>178.0</ele><time>2026-04-30T15:42:28.98Z</time></trkpt><trkpt lat="42.7122777" lon="12.1144705"><ele>176.75</ele><time>2026-04-30T15:42:29.98Z</time></trkpt><trkpt lat="42.7123468" lon="12.114641"><ele>175.5</ele><time>2026-04-30T15:42:30.98Z</time></trkpt><trkpt lat="42.7124218" lon="12.114815"><ele>174.25</ele><time>2026-04-30T15:42:31.981Z</time></trkpt><trkpt lat="42.7124933" lon="12.1149815"><ele>173.0</ele><time>2026-04-30T15:42:32.98Z</time></trkpt><trkpt lat="42.7125622" lon="12.1151511"><ele>171.66666666666666</ele><time>2026-04-30T15:42:33.98Z</time></trkpt><trkpt lat="42.7126266" lon="12.1153367"><ele>170.33333333333334</ele><time>2026-04-30T15:42:34.981Z</time></trkpt><trkpt lat="42.7126893" lon="12.1155273"><ele>169.0</ele><time>2026-04-30T15:42:35.981Z</time></trkpt><trkpt lat="42.712745" lon="12.1157255"><ele>172.33333333333334</ele><time>2026-04-30T15:42:36.981Z</time></trkpt><trkpt lat="42.7127911" lon="12.1159302"><ele>175.66666666666666</ele><time>2026-04-30T15:42:37.981Z</time></trkpt><trkpt lat="42.7128295" lon="12.1161354"><ele>179.0</ele><time>2026-04-30T15:42:38.981Z</time></trkpt><trkpt lat="42.7128702" lon="12.1163289"><ele>179.0</ele><time>2026-04-30T15:42:39.981Z</time></trkpt><trkpt lat="42.7129073" lon="12.1165208"><ele>179.0</ele><time>2026-04-30T15:42:40.981Z</time></trkpt><trkpt lat="42.7129464" lon="12.1167111"><ele>179.0</ele><time>2026-04-30T15:42:41.981Z</time></trkpt><trkpt lat="42.7129879" lon="12.116899"><ele>179.0</ele><time>2026-04-30T15:42:42.98Z</time></trkpt><trkpt lat="42.713029" lon="12.1170835"><ele>178.25</ele><time>2026-04-30T15:42:43.98Z</time></trkpt><trkpt lat="42.713073" lon="12.1172698"><ele>177.5</ele><time>2026-04-30T15:42:44.981Z</time></trkpt><trkpt lat="42.7131129" lon="12.1174611"><ele>176.75</ele><time>2026-04-30T15:42:45.98Z</time></trkpt><trkpt lat="42.7131627" lon="12.1176515"><ele>176.0</ele><time>2026-04-30T15:42:46.98Z</time></trkpt><trkpt lat="42.7132079" lon="12.1178535"><ele>174.75</ele><time>2026-04-30T15:42:47.98Z</time></trkpt><trkpt lat="42.7132489" lon="12.1180534"><ele>173.5</ele><time>2026-04-30T15:42:48.98Z</time></trkpt><trkpt lat="42.7132892" lon="12.1182506"><ele>172.25</ele><time>2026-04-30T15:42:49.98Z</time></trkpt><trkpt lat="42.7133288" lon="12.118438"><ele>171.0</ele><time>2026-04-30T15:42:50.98Z</time></trkpt><trkpt lat="42.7133706" lon="12.118627"><ele>169.0</ele><time>2026-04-30T15:42:51.981Z</time></trkpt><trkpt lat="42.7134073" lon="12.1188065"><ele>167.0</ele><time>2026-04-30T15:42:52.981Z</time></trkpt><trkpt lat="42.7134451" lon="12.1189835"><ele>165.0</ele><time>2026-04-30T15:42:53.98Z</time></trkpt><trkpt lat="42.7134898" lon="12.1191514"><ele>163.0</ele><time>2026-04-30T15:42:54.981Z</time></trkpt><trkpt lat="42.713543" lon="12.1193088"><ele>162.4</ele><time>2026-04-30T15:42:55.98Z</time></trkpt><trkpt lat="42.7135949" lon="12.1194514"><ele>161.8</ele><time>2026-04-30T15:42:56.981Z</time></trkpt><trkpt lat="42.7136468" lon="12.1195827"><ele>161.2</ele><time>2026-04-30T15:42:57.98Z</time></trkpt><trkpt lat="42.713693" lon="12.1197134"><ele>160.6</ele><time>2026-04-30T15:42:58.981Z</time></trkpt><trkpt lat="42.7137348" lon="12.1198385"><ele>160.0</ele><time>2026-04-30T15:42:59.98Z</time></trkpt><trkpt lat="42.7137745" lon="12.1199653"><ele>160.0</ele><time>2026-04-30T15:43:00.98Z</time></trkpt><trkpt lat="42.713819" lon="12.1200975"><ele>160.0</ele><time>2026-04-30T15:43:01.98Z</time></trkpt><trkpt lat="42.7138675" lon="12.1202362"><ele>160.0</ele><time>2026-04-30T15:43:02.98Z</time></trkpt><trkpt lat="42.7139237" lon="12.1203699"><ele>160.0</ele><time>2026-04-30T15:43:03.98Z</time></trkpt><trkpt lat="42.7139894" lon="12.1205042"><ele>160.0</ele><time>2026-04-30T15:43:04.98Z</time></trkpt><trkpt lat="42.714068" lon="12.1206351"><ele>160.0</ele><time>2026-04-30T15:43:05.981Z</time></trkpt><trkpt lat="42.7141476" lon="12.1207589"><ele>160.0</ele><time>2026-04-30T15:43:06.98Z</time></trkpt><trkpt lat="42.7142229" lon="12.1208859"><ele>160.0</ele><time>2026-04-30T15:43:07.98Z</time></trkpt><trkpt lat="42.7143053" lon="12.1210156"><ele>160.5</ele><time>2026-04-30T15:43:08.98Z</time></trkpt><trkpt lat="42.7143892" lon="12.1211471"><ele>161.0</ele><time>2026-04-30T15:43:09.981Z</time></trkpt><trkpt lat="42.7144768" lon="12.1212847"><ele>161.5</ele><time>2026-04-30T15:43:10.981Z</time></trkpt><trkpt lat="42.714568" lon="12.1214189"><ele>162.0</ele><time>2026-04-30T15:43:11.98Z</time></trkpt><trkpt lat="42.7146715" lon="12.1215501"><ele>159.5</ele><time>2026-04-30T15:43:12.981Z</time></trkpt><trkpt lat="42.7147806" lon="12.1216817"><ele>157.0</ele><time>2026-04-30T15:43:13.981Z</time></trkpt><trkpt lat="42.7148835" lon="12.121812"><ele>154.5</ele><time>2026-04-30T15:43:14.981Z</time></trkpt><trkpt lat="42.7149808" lon="12.1219422"><ele>152.0</ele><time>2026-04-30T15:43:15.981Z</time></trkpt><trkpt lat="42.7150815" lon="12.1220779"><ele>152.0</ele><time>2026-04-30T15:43:16.98Z</time></trkpt><trkpt lat="42.7151802" lon="12.122213"><ele>152.0</ele><time>2026-04-30T15:43:17.981Z</time></trkpt><trkpt lat="42.7152794" lon="12.1223478"><ele>152.0</ele><time>2026-04-30T15:43:18.981Z</time></trkpt><trkpt lat="42.7153789" lon="12.122476"><ele>152.0</ele><time>2026-04-30T15:43:19.981Z</time></trkpt><trkpt lat="42.7154773" lon="12.122595"><ele>151.75</ele><time>2026-04-30T15:43:20.981Z</time></trkpt><trkpt lat="42.7155701" lon="12.122705"><ele>151.5</ele><time>2026-04-30T15:43:21.98Z</time></trkpt><trkpt lat="42.7156598" lon="12.1228227"><ele>151.25</ele><time>2026-04-30T15:43:22.981Z</time></trkpt><trkpt lat="42.715745" lon="12.1229424"><ele>151.0</ele><time>2026-04-30T15:43:23.981Z</time></trkpt><trkpt lat="42.7158286" lon="12.1230696"><ele>151.0</ele><time>2026-04-30T15:43:24.98Z</time></trkpt><trkpt lat="42.7158984" lon="12.1232044"><ele>151.0</ele><time>2026-04-30T15:43:25.981Z</time></trkpt><trkpt lat="42.7159632" lon="12.1233563"><ele>151.0</ele><time>2026-04-30T15:43:26.98Z</time></trkpt><trkpt lat="42.7160248" lon="12.123516"><ele>151.0</ele><time>2026-04-30T15:43:27.98Z</time></trkpt><trkpt lat="42.716093" lon="12.1236793"><ele>147.66666666666669</ele><time>2026-04-30T15:43:28.98Z</time></trkpt><trkpt lat="42.716175" lon="12.1238368"><ele>144.33333333333334</ele><time>2026-04-30T15:43:29.98Z</time></trkpt><trkpt lat="42.7162768" lon="12.1239846"><ele>141.0</ele><time>2026-04-30T15:43:30.98Z</time></trkpt><trkpt lat="42.7164047" lon="12.1241256"><ele>140.66666666666666</ele><time>2026-04-30T15:43:31.981Z</time></trkpt><trkpt lat="42.7165558" lon="12.1242532"><ele>140.33333333333331</ele><time>2026-04-30T15:43:32.98Z</time></trkpt><trkpt lat="42.7167286" lon="12.1243957"><ele>140.0</ele><time>2026-04-30T15:43:33.98Z</time></trkpt><trkpt lat="42.7169061" lon="12.1245512"><ele>140.0</ele><time>2026-04-30T15:43:34.981Z</time></trkpt><trkpt lat="42.7170881" lon="12.1247146"><ele>140.0</ele><time>2026-04-30T15:43:35.98Z</time></trkpt><trkpt lat="42.7172669" lon="12.1248791"><ele>140.0</ele><time>2026-04-30T15:43:36.98Z</time></trkpt><trkpt lat="42.7174534" lon="12.1250546"><ele>139.66666666666666</ele><time>2026-04-30T15:43:37.98Z</time></trkpt><trkpt lat="42.7176325" lon="12.125237"><ele>139.33333333333334</ele><time>2026-04-30T15:43:38.98Z</time></trkpt><trkpt lat="42.717802" lon="12.1254149"><ele>139.0</ele><time>2026-04-30T15:43:39.981Z</time></trkpt><trkpt lat="42.7179619" lon="12.1255843"><ele>139.0</ele><time>2026-04-30T15:43:40.98Z</time></trkpt><trkpt lat="42.718111" lon="12.1257497"><ele>139.0</ele><time>2026-04-30T15:43:41.98Z</time></trkpt><trkpt lat="42.718254" lon="12.1259077"><ele>139.0</ele><time>2026-04-30T15:43:42.981Z</time></trkpt><trkpt lat="42.7183904" lon="12.1260479"><ele>139.0</ele><time>2026-04-30T15:43:43.981Z</time></trkpt><trkpt lat="42.7185143" lon="12.1261826"><ele>139.0</ele><time>2026-04-30T15:43:44.981Z</time></trkpt><trkpt lat="42.7186357" lon="12.1263105"><ele>139.0</ele><time>2026-04-30T15:43:45.981Z</time></trkpt><trkpt lat="42.7187487" lon="12.1264385"><ele>138.2</ele><time>2026-04-30T15:43:46.98Z</time></trkpt><trkpt lat="42.7188518" lon="12.126556"><ele>137.4</ele><time>2026-04-30T15:43:47.981Z</time></trkpt><trkpt lat="42.7189383" lon="12.126654"><ele>136.6</ele><time>2026-04-30T15:43:48.98Z</time></trkpt><trkpt lat="42.7190112" lon="12.1267376"><ele>135.8</ele><time>2026-04-30T15:43:49.981Z</time></trkpt><trkpt lat="42.719084" lon="12.126816"><ele>135.0</ele><time>2026-04-30T15:43:50.98Z</time></trkpt><trkpt lat="42.7191525" lon="12.1269032"><ele>134.6</ele><time>2026-04-30T15:43:51.981Z</time></trkpt><trkpt lat="42.7192129" lon="12.1269924"><ele>134.2</ele><time>2026-04-30T15:43:52.98Z</time></trkpt><trkpt lat="42.7192645" lon="12.1270772"><ele>133.8</ele><time>2026-04-30T15:43:53.98Z</time></trkpt><trkpt lat="42.7193064" lon="12.1271557"><ele>133.4</ele><time>2026-04-30T15:43:54.98Z</time></trkpt><trkpt lat="42.7193777" lon="12.1272789"><ele>133.0</ele><time>2026-04-30T15:43:56.981Z</time></trkpt><trkpt lat="42.7194438" lon="12.1274007"><ele>132.5</ele><time>2026-04-30T15:43:58.98Z</time></trkpt><trkpt lat="42.719531" lon="12.1275546"><ele>132.0</ele><time>2026-04-30T15:44:00.98Z</time></trkpt><trkpt lat="42.7195887" lon="12.1276769"><ele>131.5</ele><time>2026-04-30T15:44:01.98Z</time></trkpt><trkpt lat="42.719651" lon="12.1278549"><ele>131.0</ele><time>2026-04-30T15:44:02.98Z</time></trkpt><trkpt lat="42.7197093" lon="12.1280704"><ele>131.0</ele><time>2026-04-30T15:44:03.98Z</time></trkpt><trkpt lat="42.7197609" lon="12.1282834"><ele>131.0</ele><time>2026-04-30T15:44:04.98Z</time></trkpt><trkpt lat="42.7197986" lon="12.1284782"><ele>131.0</ele><time>2026-04-30T15:44:05.981Z</time></trkpt><trkpt lat="42.7198247" lon="12.1286603"><ele>131.0</ele><time>2026-04-30T15:44:06.98Z</time></trkpt><trkpt lat="42.7198374" lon="12.1288324"><ele>131.0</ele><time>2026-04-30T15:44:07.98Z</time></trkpt><trkpt lat="42.7198436" lon="12.1289934"><ele>131.0</ele><time>2026-04-30T15:44:08.981Z</time></trkpt><trkpt lat="42.7198476" lon="12.129155"><ele>131.0</ele><time>2026-04-30T15:44:09.981Z</time></trkpt><trkpt lat="42.7198487" lon="12.1293215"><ele>131.0</ele><time>2026-04-30T15:44:10.981Z</time></trkpt><trkpt lat="42.7198407" lon="12.1294805"><ele>130.6</ele><time>2026-04-30T15:44:11.98Z</time></trkpt><trkpt lat="42.7198312" lon="12.12963"><ele>130.2</ele><time>2026-04-30T15:44:12.98Z</time></trkpt><trkpt lat="42.7198275" lon="12.1297751"><ele>129.8</ele><time>2026-04-30T15:44:13.98Z</time></trkpt><trkpt lat="42.7198296" lon="12.1299136"><ele>129.4</ele><time>2026-04-30T15:44:14.98Z</time></trkpt><trkpt lat="42.7198282" lon="12.130069"><ele>129.0</ele><time>2026-04-30T15:44:15.981Z</time></trkpt><trkpt lat="42.7198265" lon="12.1302284"><ele>128.0</ele><time>2026-04-30T15:44:16.98Z</time></trkpt><trkpt lat="42.719822" lon="12.1304077"><ele>127.0</ele><time>2026-04-30T15:44:17.98Z</time></trkpt><trkpt lat="42.7198175" lon="12.1305989"><ele>126.0</ele><time>2026-04-30T15:44:18.98Z</time></trkpt><trkpt lat="42.7198162" lon="12.1308069"><ele>125.0</ele><time>2026-04-30T15:44:19.98Z</time></trkpt><trkpt lat="42.719811" lon="12.1310239"><ele>125.0</ele><time>2026-04-30T15:44:20.98Z</time></trkpt><trkpt lat="42.7198023" lon="12.1312333"><ele>125.0</ele><time>2026-04-30T15:44:21.981Z</time></trkpt><trkpt lat="42.719794" lon="12.1314349"><ele>125.0</ele><time>2026-04-30T15:44:22.98Z</time></trkpt><trkpt lat="42.7197948" lon="12.1316272"><ele>125.0</ele><time>2026-04-30T15:44:23.981Z</time></trkpt><trkpt lat="42.7198023" lon="12.1318057"><ele>125.0</ele><time>2026-04-30T15:44:24.981Z</time></trkpt><trkpt lat="42.7198146" lon="12.1319795"><ele>125.0</ele><time>2026-04-30T15:44:25.98Z</time></trkpt><trkpt lat="42.7198346" lon="12.1321376"><ele>125.0</ele><time>2026-04-30T15:44:26.98Z</time></trkpt><trkpt lat="42.7198651" lon="12.1322964"><ele>125.0</ele><time>2026-04-30T15:44:27.981Z</time></trkpt><trkpt lat="42.7198979" lon="12.1324466"><ele>125.0</ele><time>2026-04-30T15:44:28.98Z</time></trkpt><trkpt lat="42.7199348" lon="12.1325955"><ele>125.0</ele><time>2026-04-30T15:44:29.98Z</time></trkpt><trkpt lat="42.7199846" lon="12.1327357"><ele>125.0</ele><time>2026-04-30T15:44:30.98Z</time></trkpt><trkpt lat="42.7200476" lon="12.1328742"><ele>125.0</ele><time>2026-04-30T15:44:31.98Z</time></trkpt><trkpt lat="42.7201131" lon="12.1330093"><ele>125.0</ele><time>2026-04-30T15:44:32.981Z</time></trkpt><trkpt lat="42.7201759" lon="12.1331378"><ele>125.0</ele><time>2026-04-30T15:44:33.98Z</time></trkpt><trkpt lat="42.7202446" lon="12.1332552"><ele>125.0</ele><time>2026-04-30T15:44:34.98Z</time></trkpt><trkpt lat="42.7203169" lon="12.1333685"><ele>125.0</ele><time>2026-04-30T15:44:35.98Z</time></trkpt><trkpt lat="42.7203967" lon="12.1334694"><ele>125.0</ele><time>2026-04-30T15:44:36.98Z</time></trkpt><trkpt lat="42.7204841" lon="12.1335735"><ele>123.25</ele><time>2026-04-30T15:44:37.98Z</time></trkpt><trkpt lat="42.7205813" lon="12.1336904"><ele>121.5</ele><time>2026-04-30T15:44:38.98Z</time></trkpt><trkpt lat="42.7206922" lon="12.1337995"><ele>119.75</ele><time>2026-04-30T15:44:39.98Z</time></trkpt><trkpt lat="42.7208073" lon="12.1338799"><ele>118.0</ele><time>2026-04-30T15:44:40.98Z</time></trkpt><trkpt lat="42.7209174" lon="12.1339507"><ele>118.00000000000001</ele><time>2026-04-30T15:44:41.981Z</time></trkpt><trkpt lat="42.7210062" lon="12.134022"><ele>118.0</ele><time>2026-04-30T15:44:42.981Z</time></trkpt><trkpt lat="42.7210603" lon="12.134081"><ele>118.0</ele><time>2026-04-30T15:44:43.98Z</time></trkpt><trkpt lat="42.7211139" lon="12.1341435"><ele>118.0</ele><time>2026-04-30T15:44:47.981Z</time></trkpt><trkpt lat="42.7211921" lon="12.1342188"><ele>118.00000000000001</ele><time>2026-04-30T15:44:51.98Z</time></trkpt><trkpt lat="42.7212623" lon="12.1342797"><ele>118.0</ele><time>2026-04-30T15:44:54.98Z</time></trkpt><trkpt lat="42.721318" lon="12.134391"><ele>117.66666666666667</ele><time>2026-04-30T15:44:56.98Z</time></trkpt><trkpt lat="42.7213536" lon="12.1344912"><ele>117.33333333333334</ele><time>2026-04-30T15:44:57.98Z</time></trkpt><trkpt lat="42.7213899" lon="12.1345939"><ele>117.0</ele><time>2026-04-30T15:44:58.98Z</time></trkpt><trkpt lat="42.7214325" lon="12.1346798"><ele>116.66666666666666</ele><time>2026-04-30T15:44:59.98Z</time></trkpt><trkpt lat="42.7214842" lon="12.1347411"><ele>116.33333333333333</ele><time>2026-04-30T15:45:00.98Z</time></trkpt><trkpt lat="42.7215926" lon="12.1348045"><ele>116.0</ele><time>2026-04-30T15:45:02.981Z</time></trkpt><trkpt lat="42.7216958" lon="12.1348479"><ele>115.99999999999999</ele><time>2026-04-30T15:45:04.98Z</time></trkpt><trkpt lat="42.7217833" lon="12.1349046"><ele>116.0</ele><time>2026-04-30T15:45:06.98Z</time></trkpt><trkpt lat="42.7218593" lon="12.1349688"><ele>116.0</ele><time>2026-04-30T15:45:08.98Z</time></trkpt><trkpt lat="42.7219461" lon="12.1350346"><ele>116.0</ele><time>2026-04-30T15:45:10.981Z</time></trkpt><trkpt lat="42.7220101" lon="12.1350837"><ele>115.99999999999999</ele><time>2026-04-30T15:45:12.98Z</time></trkpt><trkpt lat="42.7220904" lon="12.1351391"><ele>116.0</ele><time>2026-04-30T15:45:17.98Z</time></trkpt><trkpt lat="42.7221521" lon="12.1351941"><ele>116.5</ele><time>2026-04-30T15:45:19.981Z</time></trkpt><trkpt lat="42.7222582" lon="12.1352627"><ele>117.0</ele><time>2026-04-30T15:45:21.98Z</time></trkpt><trkpt lat="42.7223362" lon="12.1353121"><ele>117.5</ele><time>2026-04-30T15:45:22.981Z</time></trkpt><trkpt lat="42.7224555" lon="12.1353797"><ele>118.0</ele><time>2026-04-30T15:45:23.98Z</time></trkpt><trkpt lat="42.7225956" lon="12.1354463"><ele>117.75</ele><time>2026-04-30T15:45:24.98Z</time></trkpt><trkpt lat="42.7227337" lon="12.1355207"><ele>117.5</ele><time>2026-04-30T15:45:25.981Z</time></trkpt><trkpt lat="42.7228663" lon="12.135585"><ele>117.25</ele><time>2026-04-30T15:45:26.981Z</time></trkpt><trkpt lat="42.7229754" lon="12.1356367"><ele>117.0</ele><time>2026-04-30T15:45:27.981Z</time></trkpt><trkpt lat="42.7230595" lon="12.135678"><ele>117.0</ele><time>2026-04-30T15:45:28.98Z</time></trkpt><trkpt lat="42.7231304" lon="12.1356957"><ele>116.99999999999999</ele><time>2026-04-30T15:45:29.98Z</time></trkpt><trkpt lat="42.7232009" lon="12.1356962"><ele>116.99999999999999</ele><time>2026-04-30T15:45:30.98Z</time></trkpt><trkpt lat="42.7232683" lon="12.1357446"><ele>117.0</ele><time>2026-04-30T15:45:32.98Z</time></trkpt><trkpt lat="42.7233315" lon="12.135883"><ele>117.0</ele><time>2026-04-30T15:45:34.98Z</time></trkpt><trkpt lat="42.7233912" lon="12.1360238"><ele>116.5</ele><time>2026-04-30T15:45:36.98Z</time></trkpt><trkpt lat="42.7234924" lon="12.1361012"><ele>116.0</ele><time>2026-04-30T15:45:38.98Z</time></trkpt><trkpt lat="42.7235623" lon="12.1361015"><ele>115.5</ele><time>2026-04-30T15:45:39.98Z</time></trkpt><trkpt lat="42.7236281" lon="12.1360701"><ele>115.0</ele><time>2026-04-30T15:45:40.98Z</time></trkpt><trkpt lat="42.7236899" lon="12.136003"><ele>114.5</ele><time>2026-04-30T15:45:41.981Z</time></trkpt><trkpt lat="42.7237346" lon="12.1359155"><ele>114.0</ele><time>2026-04-30T15:45:42.98Z</time></trkpt><trkpt lat="42.7237586" lon="12.1358168"><ele>114.2</ele><time>2026-04-30T15:45:43.981Z</time></trkpt><trkpt lat="42.7237545" lon="12.1357159"><ele>114.4</ele><time>2026-04-30T15:45:44.981Z</time></trkpt><trkpt lat="42.7237322" lon="12.1356128"><ele>114.6</ele><time>2026-04-30T15:45:45.98Z</time></trkpt><trkpt lat="42.7237094" lon="12.1354899"><ele>114.8</ele><time>2026-04-30T15:45:46.98Z</time></trkpt><trkpt lat="42.7237047" lon="12.135352"><ele>115.0</ele><time>2026-04-30T15:45:47.98Z</time></trkpt><trkpt lat="42.7237214" lon="12.1351905"><ele>115.0</ele><time>2026-04-30T15:45:48.98Z</time></trkpt><trkpt lat="42.7237627" lon="12.1350016"><ele>115.0</ele><time>2026-04-30T15:45:49.98Z</time></trkpt><trkpt lat="42.7238204" lon="12.1347901"><ele>115.0</ele><time>2026-04-30T15:45:50.98Z</time></trkpt><trkpt lat="42.7238833" lon="12.1345667"><ele>115.0</ele><time>2026-04-30T15:45:51.98Z</time></trkpt><trkpt lat="42.7239489" lon="12.1343234"><ele>115.0</ele><time>2026-04-30T15:45:52.98Z</time></trkpt><trkpt lat="42.7240196" lon="12.1340602"><ele>115.0</ele><time>2026-04-30T15:45:53.98Z</time></trkpt><trkpt lat="42.7241058" lon="12.1337759"><ele>114.5</ele><time>2026-04-30T15:45:54.98Z</time></trkpt><trkpt lat="42.7241947" lon="12.133481"><ele>114.0</ele><time>2026-04-30T15:45:55.981Z</time></trkpt><trkpt lat="42.7242902" lon="12.1331817"><ele>114.0</ele><time>2026-04-30T15:45:56.98Z</time></trkpt><trkpt lat="42.7243906" lon="12.13288"><ele>114.0</ele><time>2026-04-30T15:45:57.98Z</time></trkpt><trkpt lat="42.7245022" lon="12.1325748"><ele>113.5</ele><time>2026-04-30T15:45:58.98Z</time></trkpt><trkpt lat="42.7246185" lon="12.1322753"><ele>113.0</ele><time>2026-04-30T15:45:59.98Z</time></trkpt><trkpt lat="42.7247426" lon="12.1319732"><ele>113.0</ele><time>2026-04-30T15:46:00.981Z</time></trkpt><trkpt lat="42.7248641" lon="12.1316825"><ele>113.0</ele><time>2026-04-30T15:46:01.98Z</time></trkpt><trkpt lat="42.7249817" lon="12.1313967"><ele>114.0</ele><time>2026-04-30T15:46:02.98Z</time></trkpt><trkpt lat="42.725092" lon="12.1311187"><ele>115.0</ele><time>2026-04-30T15:46:03.98Z</time></trkpt><trkpt lat="42.7252022" lon="12.1308497"><ele>113.5</ele><time>2026-04-30T15:46:04.98Z</time></trkpt><trkpt lat="42.7253142" lon="12.1305823"><ele>112.0</ele><time>2026-04-30T15:46:05.98Z</time></trkpt><trkpt lat="42.7254217" lon="12.1303125"><ele>112.0</ele><time>2026-04-30T15:46:06.98Z</time></trkpt><trkpt lat="42.7255375" lon="12.1300288"><ele>112.0</ele><time>2026-04-30T15:46:07.981Z</time></trkpt><trkpt lat="42.7256514" lon="12.1297364"><ele>113.5</ele><time>2026-04-30T15:46:08.981Z</time></trkpt><trkpt lat="42.7257637" lon="12.1294479"><ele>115.0</ele><time>2026-04-30T15:46:09.98Z</time></trkpt><trkpt lat="42.7258727" lon="12.129169"><ele>115.0</ele><time>2026-04-30T15:46:10.98Z</time></trkpt><trkpt lat="42.7259828" lon="12.128898"><ele>115.0</ele><time>2026-04-30T15:46:11.981Z</time></trkpt><trkpt lat="42.7260846" lon="12.1286377"><ele>115.0</ele><time>2026-04-30T15:46:12.98Z</time></trkpt><trkpt lat="42.7261885" lon="12.1283771"><ele>115.0</ele><time>2026-04-30T15:46:13.98Z</time></trkpt><trkpt lat="42.7263001" lon="12.1281097"><ele>115.0</ele><time>2026-04-30T15:46:14.98Z</time></trkpt><trkpt lat="42.7264109" lon="12.1278398"><ele>115.0</ele><time>2026-04-30T15:46:15.981Z</time></trkpt><trkpt lat="42.7265155" lon="12.127571"><ele>115.0</ele><time>2026-04-30T15:46:16.98Z</time></trkpt><trkpt lat="42.7266203" lon="12.1273073"><ele>115.0</ele><time>2026-04-30T15:46:17.981Z</time></trkpt><trkpt lat="42.7267261" lon="12.1270436"><ele>115.0</ele><time>2026-04-30T15:46:18.98Z</time></trkpt><trkpt lat="42.726828" lon="12.1267893"><ele>115.0</ele><time>2026-04-30T15:46:19.981Z</time></trkpt><trkpt lat="42.72693" lon="12.1265379"><ele>115.0</ele><time>2026-04-30T15:46:20.981Z</time></trkpt><trkpt lat="42.7270246" lon="12.1262965"><ele>114.66666666666667</ele><time>2026-04-30T15:46:21.98Z</time></trkpt><trkpt lat="42.7271169" lon="12.1260475"><ele>114.33333333333334</ele><time>2026-04-30T15:46:22.98Z</time></trkpt><trkpt lat="42.7272123" lon="12.1258026"><ele>114.0</ele><time>2026-04-30T15:46:23.98Z</time></trkpt><trkpt lat="42.7273127" lon="12.1255624"><ele>114.0</ele><time>2026-04-30T15:46:24.98Z</time></trkpt><trkpt lat="42.7274214" lon="12.125337"><ele>114.0</ele><time>2026-04-30T15:46:25.98Z</time></trkpt><trkpt lat="42.7275426" lon="12.1251221"><ele>114.0</ele><time>2026-04-30T15:46:26.98Z</time></trkpt><trkpt lat="42.7276768" lon="12.1249257"><ele>113.66666666666666</ele><time>2026-04-30T15:46:27.98Z</time></trkpt><trkpt lat="42.7278065" lon="12.1247473"><ele>113.33333333333333</ele><time>2026-04-30T15:46:28.98Z</time></trkpt><trkpt lat="42.7279229" lon="12.1245968"><ele>113.0</ele><time>2026-04-30T15:46:29.98Z</time></trkpt><trkpt lat="42.7280272" lon="12.1244646"><ele>113.0</ele><time>2026-04-30T15:46:30.981Z</time></trkpt><trkpt lat="42.7281228" lon="12.1243553"><ele>113.0</ele><time>2026-04-30T15:46:31.98Z</time></trkpt><trkpt lat="42.7282207" lon="12.1242686"><ele>113.0</ele><time>2026-04-30T15:46:32.98Z</time></trkpt><trkpt lat="42.728327" lon="12.1242086"><ele>113.0</ele><time>2026-04-30T15:46:33.98Z</time></trkpt><trkpt lat="42.7284452" lon="12.1241808"><ele>114.66666666666666</ele><time>2026-04-30T15:46:34.98Z</time></trkpt><trkpt lat="42.7285764" lon="12.1241956"><ele>116.33333333333334</ele><time>2026-04-30T15:46:35.98Z</time></trkpt><trkpt lat="42.728716" lon="12.1242716"><ele>118.0</ele><time>2026-04-30T15:46:36.98Z</time></trkpt><trkpt lat="42.7288584" lon="12.1243947"><ele>118.0</ele><time>2026-04-30T15:46:37.98Z</time></trkpt><trkpt lat="42.7290046" lon="12.1245543"><ele>118.0</ele><time>2026-04-30T15:46:38.98Z</time></trkpt><trkpt lat="42.7291452" lon="12.1247316"><ele>118.0</ele><time>2026-04-30T15:46:39.98Z</time></trkpt><trkpt lat="42.7292839" lon="12.1249272"><ele>118.66666666666667</ele><time>2026-04-30T15:46:40.98Z</time></trkpt><trkpt lat="42.7294288" lon="12.1251199"><ele>119.33333333333334</ele><time>2026-04-30T15:46:41.98Z</time></trkpt><trkpt lat="42.7295706" lon="12.125314"><ele>120.0</ele><time>2026-04-30T15:46:42.98Z</time></trkpt><trkpt lat="42.7297106" lon="12.1255098"><ele>120.0</ele><time>2026-04-30T15:46:43.98Z</time></trkpt><trkpt lat="42.7298546" lon="12.1257119"><ele>120.0</ele><time>2026-04-30T15:46:44.98Z</time></trkpt><trkpt lat="42.7300056" lon="12.125927"><ele>120.0</ele><time>2026-04-30T15:46:45.98Z</time></trkpt><trkpt lat="42.7301682" lon="12.1261589"><ele>117.5</ele><time>2026-04-30T15:46:46.98Z</time></trkpt><trkpt lat="42.7303472" lon="12.1263919"><ele>115.0</ele><time>2026-04-30T15:46:47.98Z</time></trkpt><trkpt lat="42.7305189" lon="12.1266116"><ele>115.0</ele><time>2026-04-30T15:46:48.98Z</time></trkpt><trkpt lat="42.7306798" lon="12.1268224"><ele>115.0</ele><time>2026-04-30T15:46:49.98Z</time></trkpt><trkpt lat="42.7308419" lon="12.1270319"><ele>115.0</ele><time>2026-04-30T15:46:50.98Z</time></trkpt><trkpt lat="42.7309988" lon="12.1272435"><ele>115.0</ele><time>2026-04-30T15:46:51.98Z</time></trkpt><trkpt lat="42.7311547" lon="12.1274446"><ele>115.0</ele><time>2026-04-30T15:46:52.98Z</time></trkpt><trkpt lat="42.7313037" lon="12.1276417"><ele>115.0</ele><time>2026-04-30T15:46:53.98Z</time></trkpt><trkpt lat="42.7314505" lon="12.1278388"><ele>115.0</ele><time>2026-04-30T15:46:54.98Z</time></trkpt><trkpt lat="42.7315937" lon="12.1280296"><ele>115.0</ele><time>2026-04-30T15:46:55.98Z</time></trkpt><trkpt lat="42.7317411" lon="12.1282151"><ele>115.0</ele><time>2026-04-30T15:46:56.981Z</time></trkpt><trkpt lat="42.7318951" lon="12.128396"><ele>115.0</ele><time>2026-04-30T15:46:57.981Z</time></trkpt><trkpt lat="42.7320532" lon="12.1285672"><ele>115.0</ele><time>2026-04-30T15:46:58.981Z</time></trkpt><trkpt lat="42.7322223" lon="12.1287357"><ele>115.0</ele><time>2026-04-30T15:46:59.98Z</time></trkpt><trkpt lat="42.7323933" lon="12.1288993"><ele>115.0</ele><time>2026-04-30T15:47:00.98Z</time></trkpt><trkpt lat="42.7325593" lon="12.1290482"><ele>115.0</ele><time>2026-04-30T15:47:01.98Z</time></trkpt><trkpt lat="42.7327133" lon="12.129192"><ele>115.0</ele><time>2026-04-30T15:47:02.98Z</time></trkpt><trkpt lat="42.7328598" lon="12.1293274"><ele>115.0</ele><time>2026-04-30T15:47:03.98Z</time></trkpt><trkpt lat="42.7329985" lon="12.129449"><ele>115.0</ele><time>2026-04-30T15:47:04.98Z</time></trkpt><trkpt lat="42.7331238" lon="12.1295578"><ele>115.0</ele><time>2026-04-30T15:47:05.98Z</time></trkpt><trkpt lat="42.7332297" lon="12.1296556"><ele>115.0</ele><time>2026-04-30T15:47:06.98Z</time></trkpt><trkpt lat="42.7333168" lon="12.1297525"><ele>115.00000000000001</ele><time>2026-04-30T15:47:07.98Z</time></trkpt><trkpt lat="42.7333847" lon="12.1298501"><ele>115.0</ele><time>2026-04-30T15:47:08.98Z</time></trkpt><trkpt lat="42.7334321" lon="12.1299451"><ele>115.0</ele><time>2026-04-30T15:47:09.98Z</time></trkpt><trkpt lat="42.7334663" lon="12.1300415"><ele>115.0</ele><time>2026-04-30T15:47:10.98Z</time></trkpt><trkpt lat="42.7335008" lon="12.130128"><ele>115.00000000000001</ele><time>2026-04-30T15:47:11.98Z</time></trkpt><trkpt lat="42.7335571" lon="12.1301888"><ele>115.0</ele><time>2026-04-30T15:47:12.98Z</time></trkpt><trkpt lat="42.7336356" lon="12.1302004"><ele>115.2</ele><time>2026-04-30T15:47:13.98Z</time></trkpt><trkpt lat="42.7337153" lon="12.1301604"><ele>115.4</ele><time>2026-04-30T15:47:14.98Z</time></trkpt><trkpt lat="42.7337781" lon="12.1300864"><ele>115.6</ele><time>2026-04-30T15:47:15.98Z</time></trkpt><trkpt lat="42.733818" lon="12.1299697"><ele>115.8</ele><time>2026-04-30T15:47:16.981Z</time></trkpt><trkpt lat="42.733833" lon="12.1298279"><ele>116.0</ele><time>2026-04-30T15:47:17.98Z</time></trkpt><trkpt lat="42.7338557" lon="12.1296697"><ele>116.0</ele><time>2026-04-30T15:47:18.98Z</time></trkpt><trkpt lat="42.733911" lon="12.1295101"><ele>116.0</ele><time>2026-04-30T15:47:19.98Z</time></trkpt><trkpt lat="42.7339966" lon="12.1293652"><ele>116.0</ele><time>2026-04-30T15:47:20.98Z</time></trkpt><trkpt lat="42.7341128" lon="12.1292375"><ele>116.0</ele><time>2026-04-30T15:47:21.981Z</time></trkpt><trkpt lat="42.7342398" lon="12.1291113"><ele>115.66666666666666</ele><time>2026-04-30T15:47:22.98Z</time></trkpt><trkpt lat="42.7343681" lon="12.1289817"><ele>115.33333333333334</ele><time>2026-04-30T15:47:23.981Z</time></trkpt><trkpt lat="42.7344982" lon="12.1288434"><ele>115.0</ele><time>2026-04-30T15:47:24.98Z</time></trkpt><trkpt lat="42.7346305" lon="12.1287084"><ele>116.33333333333334</ele><time>2026-04-30T15:47:25.98Z</time></trkpt><trkpt lat="42.7347669" lon="12.1285747"><ele>117.66666666666666</ele><time>2026-04-30T15:47:26.98Z</time></trkpt><trkpt lat="42.7348925" lon="12.1284383"><ele>119.0</ele><time>2026-04-30T15:47:27.98Z</time></trkpt><trkpt lat="42.7350114" lon="12.1283004"><ele>119.0</ele><time>2026-04-30T15:47:28.98Z</time></trkpt><trkpt lat="42.7351306" lon="12.128167"><ele>119.0</ele><time>2026-04-30T15:47:29.98Z</time></trkpt><trkpt lat="42.7352476" lon="12.1280424"><ele>119.0</ele><time>2026-04-30T15:47:30.98Z</time></trkpt><trkpt lat="42.7353731" lon="12.1279225"><ele>119.0</ele><time>2026-04-30T15:47:31.98Z</time></trkpt><trkpt lat="42.7354943" lon="12.1277984"><ele>119.0</ele><time>2026-04-30T15:47:32.981Z</time></trkpt><trkpt lat="42.7356173" lon="12.1276693"><ele>119.0</ele><time>2026-04-30T15:47:33.98Z</time></trkpt><trkpt lat="42.7357367" lon="12.1275404"><ele>119.0</ele><time>2026-04-30T15:47:34.98Z</time></trkpt><trkpt lat="42.7358509" lon="12.1274166"><ele>119.0</ele><time>2026-04-30T15:47:35.98Z</time></trkpt><trkpt lat="42.7359676" lon="12.1272934"><ele>119.0</ele><time>2026-04-30T15:47:36.981Z</time></trkpt><trkpt lat="42.7360847" lon="12.127172"><ele>119.0</ele><time>2026-04-30T15:47:37.98Z</time></trkpt><trkpt lat="42.7362039" lon="12.1270482"><ele>119.5</ele><time>2026-04-30T15:47:38.981Z</time></trkpt><trkpt lat="42.7363262" lon="12.1269233"><ele>120.0</ele><time>2026-04-30T15:47:39.98Z</time></trkpt><trkpt lat="42.7364431" lon="12.1268056"><ele>120.5</ele><time>2026-04-30T15:47:40.981Z</time></trkpt><trkpt lat="42.7365582" lon="12.1266923"><ele>121.0</ele><time>2026-04-30T15:47:41.98Z</time></trkpt><trkpt lat="42.736659" lon="12.126587"><ele>121.0</ele><time>2026-04-30T15:47:42.98Z</time></trkpt><trkpt lat="42.7367509" lon="12.1264919"><ele>121.0</ele><time>2026-04-30T15:47:43.98Z</time></trkpt><trkpt lat="42.7368324" lon="12.1264019"><ele>121.0</ele><time>2026-04-30T15:47:44.981Z</time></trkpt><trkpt lat="42.7369146" lon="12.1263152"><ele>121.0</ele><time>2026-04-30T15:47:45.98Z</time></trkpt><trkpt lat="42.737006" lon="12.1262187"><ele>121.0</ele><time>2026-04-30T15:47:46.98Z</time></trkpt><trkpt lat="42.7371117" lon="12.1260944"><ele>121.33333333333334</ele><time>2026-04-30T15:47:47.98Z</time></trkpt><trkpt lat="42.7372381" lon="12.1259335"><ele>121.66666666666666</ele><time>2026-04-30T15:47:48.98Z</time></trkpt><trkpt lat="42.7373937" lon="12.1257531"><ele>122.0</ele><time>2026-04-30T15:47:49.98Z</time></trkpt><trkpt lat="42.7375656" lon="12.1255693"><ele>122.5</ele><time>2026-04-30T15:47:50.98Z</time></trkpt><trkpt lat="42.7377481" lon="12.1253818"><ele>123.0</ele><time>2026-04-30T15:47:51.981Z</time></trkpt><trkpt lat="42.7379353" lon="12.1251963"><ele>123.0</ele><time>2026-04-30T15:47:52.98Z</time></trkpt><trkpt lat="42.7381207" lon="12.1250114"><ele>123.0</ele><time>2026-04-30T15:47:53.98Z</time></trkpt><trkpt lat="42.7382951" lon="12.124835"><ele>123.0</ele><time>2026-04-30T15:47:54.98Z</time></trkpt><trkpt lat="42.7384582" lon="12.1246666"><ele>124.0</ele><time>2026-04-30T15:47:55.98Z</time></trkpt><trkpt lat="42.7386151" lon="12.124505"><ele>125.0</ele><time>2026-04-30T15:47:56.98Z</time></trkpt><trkpt lat="42.7387771" lon="12.1243533"><ele>126.0</ele><time>2026-04-30T15:47:57.98Z</time></trkpt><trkpt lat="42.7389373" lon="12.124244"><ele>126.0</ele><time>2026-04-30T15:47:58.98Z</time></trkpt><trkpt lat="42.7391123" lon="12.1242011"><ele>126.0</ele><time>2026-04-30T15:47:59.98Z</time></trkpt><trkpt lat="42.7392909" lon="12.1242364"><ele>126.0</ele><time>2026-04-30T15:48:00.98Z</time></trkpt><trkpt lat="42.7394624" lon="12.1243199"><ele>127.0</ele><time>2026-04-30T15:48:01.98Z</time></trkpt><trkpt lat="42.7396207" lon="12.1244164"><ele>128.0</ele><time>2026-04-30T15:48:02.98Z</time></trkpt><trkpt lat="42.7397636" lon="12.1245176"><ele>129.0</ele><time>2026-04-30T15:48:03.98Z</time></trkpt><trkpt lat="42.7399028" lon="12.1246165"><ele>129.0</ele><time>2026-04-30T15:48:04.98Z</time></trkpt><trkpt lat="42.7400439" lon="12.1247135"><ele>129.0</ele><time>2026-04-30T15:48:05.98Z</time></trkpt><trkpt lat="42.7401809" lon="12.1248118"><ele>129.0</ele><time>2026-04-30T15:48:06.98Z</time></trkpt><trkpt lat="42.74034" lon="12.1249243"><ele>129.33333333333334</ele><time>2026-04-30T15:48:07.981Z</time></trkpt><trkpt lat="42.740513" lon="12.1250494"><ele>129.66666666666669</ele><time>2026-04-30T15:48:08.98Z</time></trkpt><trkpt lat="42.7406976" lon="12.1251833"><ele>130.0</ele><time>2026-04-30T15:48:09.98Z</time></trkpt><trkpt lat="42.7408815" lon="12.125329"><ele>129.33333333333334</ele><time>2026-04-30T15:48:10.98Z</time></trkpt><trkpt lat="42.7410661" lon="12.1254739"><ele>128.66666666666666</ele><time>2026-04-30T15:48:11.98Z</time></trkpt><trkpt lat="42.741248" lon="12.1256165"><ele>128.0</ele><time>2026-04-30T15:48:12.98Z</time></trkpt><trkpt lat="42.7414173" lon="12.1257518"><ele>127.66666666666666</ele><time>2026-04-30T15:48:13.981Z</time></trkpt><trkpt lat="42.7415801" lon="12.1258801"><ele>127.33333333333334</ele><time>2026-04-30T15:48:14.981Z</time></trkpt><trkpt lat="42.7417447" lon="12.1260063"><ele>127.0</ele><time>2026-04-30T15:48:15.98Z</time></trkpt><trkpt lat="42.7419043" lon="12.1261234"><ele>126.66666666666667</ele><time>2026-04-30T15:48:16.981Z</time></trkpt><trkpt lat="42.7420606" lon="12.1262429"><ele>126.33333333333334</ele><time>2026-04-30T15:48:17.98Z</time></trkpt><trkpt lat="42.7422117" lon="12.1263645"><ele>126.0</ele><time>2026-04-30T15:48:18.98Z</time></trkpt><trkpt lat="42.7423476" lon="12.1264721"><ele>126.25</ele><time>2026-04-30T15:48:19.98Z</time></trkpt><trkpt lat="42.742478" lon="12.1265657"><ele>126.5</ele><time>2026-04-30T15:48:20.98Z</time></trkpt><trkpt lat="42.7426054" lon="12.1266627"><ele>126.75</ele><time>2026-04-30T15:48:21.981Z</time></trkpt><trkpt lat="42.7427352" lon="12.1267451"><ele>127.0</ele><time>2026-04-30T15:48:22.98Z</time></trkpt><trkpt lat="42.7428852" lon="12.1268392"><ele>127.0</ele><time>2026-04-30T15:48:23.98Z</time></trkpt><trkpt lat="42.7430605" lon="12.1269699"><ele>127.0</ele><time>2026-04-30T15:48:24.981Z</time></trkpt><trkpt lat="42.7432552" lon="12.1271223"><ele>127.0</ele><time>2026-04-30T15:48:25.98Z</time></trkpt><trkpt lat="42.7434523" lon="12.127288"><ele>127.0</ele><time>2026-04-30T15:48:26.98Z</time></trkpt><trkpt lat="42.7436684" lon="12.1274468"><ele>127.0</ele><time>2026-04-30T15:48:27.98Z</time></trkpt><trkpt lat="42.7438977" lon="12.1276124"><ele>127.0</ele><time>2026-04-30T15:48:28.98Z</time></trkpt><trkpt lat="42.7441257" lon="12.1277822"><ele>127.0</ele><time>2026-04-30T15:48:29.98Z</time></trkpt><trkpt lat="42.7443513" lon="12.1279561"><ele>129.0</ele><time>2026-04-30T15:48:30.98Z</time></trkpt><trkpt lat="42.7445705" lon="12.1281193"><ele>131.0</ele><time>2026-04-30T15:48:31.981Z</time></trkpt><trkpt lat="42.7447729" lon="12.128268"><ele>131.0</ele><time>2026-04-30T15:48:32.981Z</time></trkpt><trkpt lat="42.7449607" lon="12.128409"><ele>131.0</ele><time>2026-04-30T15:48:33.98Z</time></trkpt><trkpt lat="42.7451487" lon="12.1285343"><ele>131.0</ele><time>2026-04-30T15:48:34.98Z</time></trkpt><trkpt lat="42.7453284" lon="12.1286317"><ele>133.66666666666666</ele><time>2026-04-30T15:48:35.98Z</time></trkpt><trkpt lat="42.7455088" lon="12.1286696"><ele>136.33333333333334</ele><time>2026-04-30T15:48:36.98Z</time></trkpt><trkpt lat="42.7456817" lon="12.1286342"><ele>139.0</ele><time>2026-04-30T15:48:37.98Z</time></trkpt><trkpt lat="42.7458571" lon="12.1285308"><ele>138.33333333333334</ele><time>2026-04-30T15:48:38.981Z</time></trkpt><trkpt lat="42.7460476" lon="12.1284206"><ele>137.66666666666666</ele><time>2026-04-30T15:48:39.98Z</time></trkpt><trkpt lat="42.7462457" lon="12.1283634"><ele>137.0</ele><time>2026-04-30T15:48:40.98Z</time></trkpt><trkpt lat="42.7464326" lon="12.1283453"><ele>137.0</ele><time>2026-04-30T15:48:41.98Z</time></trkpt><trkpt lat="42.7466129" lon="12.128297"><ele>137.0</ele><time>2026-04-30T15:48:42.98Z</time></trkpt><trkpt lat="42.7467704" lon="12.1281858"><ele>137.0</ele><time>2026-04-30T15:48:43.981Z</time></trkpt><trkpt lat="42.746904" lon="12.1280027"><ele>141.33333333333331</ele><time>2026-04-30T15:48:44.981Z</time></trkpt><trkpt lat="42.7470113" lon="12.1277779"><ele>145.66666666666666</ele><time>2026-04-30T15:48:45.981Z</time></trkpt><trkpt lat="42.7470617" lon="12.1275207"><ele>150.0</ele><time>2026-04-30T15:48:46.981Z</time></trkpt><trkpt lat="42.7470638" lon="12.1272438"><ele>150.0</ele><time>2026-04-30T15:48:47.98Z</time></trkpt><trkpt lat="42.7470395" lon="12.1269705"><ele>150.0</ele><time>2026-04-30T15:48:48.981Z</time></trkpt><trkpt lat="42.7470437" lon="12.1267324"><ele>150.0</ele><time>2026-04-30T15:48:49.98Z</time></trkpt><trkpt lat="42.7470795" lon="12.126531"><ele>151.25</ele><time>2026-04-30T15:48:50.98Z</time></trkpt><trkpt lat="42.7471621" lon="12.1264012"><ele>152.5</ele><time>2026-04-30T15:48:51.98Z</time></trkpt><trkpt lat="42.7472779" lon="12.1263397"><ele>153.75</ele><time>2026-04-30T15:48:52.98Z</time></trkpt><trkpt lat="42.7474226" lon="12.1263539"><ele>155.0</ele><time>2026-04-30T15:48:53.98Z</time></trkpt><trkpt lat="42.7475827" lon="12.1264382"><ele>156.0</ele><time>2026-04-30T15:48:54.98Z</time></trkpt><trkpt lat="42.7477337" lon="12.126591"><ele>157.0</ele><time>2026-04-30T15:48:55.98Z</time></trkpt><trkpt lat="42.7478401" lon="12.1267782"><ele>158.0</ele><time>2026-04-30T15:48:56.981Z</time></trkpt><trkpt lat="42.7479002" lon="12.1270136"><ele>158.0</ele><time>2026-04-30T15:48:57.98Z</time></trkpt><trkpt lat="42.7479254" lon="12.1272853"><ele>158.0</ele><time>2026-04-30T15:48:58.981Z</time></trkpt><trkpt lat="42.7479743" lon="12.1275148"><ele>158.0</ele><time>2026-04-30T15:48:59.98Z</time></trkpt><trkpt lat="42.7480558" lon="12.1276736"><ele>158.33333333333331</ele><time>2026-04-30T15:49:00.981Z</time></trkpt><trkpt lat="42.7481792" lon="12.1277459"><ele>158.66666666666666</ele><time>2026-04-30T15:49:01.98Z</time></trkpt><trkpt lat="42.7483298" lon="12.127724"><ele>159.0</ele><time>2026-04-30T15:49:02.98Z</time></trkpt><trkpt lat="42.7484922" lon="12.1276001"><ele>161.66666666666666</ele><time>2026-04-30T15:49:03.98Z</time></trkpt><trkpt lat="42.7486496" lon="12.1274156"><ele>164.33333333333331</ele><time>2026-04-30T15:49:04.981Z</time></trkpt><trkpt lat="42.7488056" lon="12.1272267"><ele>167.0</ele><time>2026-04-30T15:49:05.98Z</time></trkpt><trkpt lat="42.7489831" lon="12.1270807"><ele>167.0</ele><time>2026-04-30T15:49:06.981Z</time></trkpt><trkpt lat="42.7491872" lon="12.1270149"><ele>167.0</ele><time>2026-04-30T15:49:07.98Z</time></trkpt><trkpt lat="42.7493929" lon="12.1270348"><ele>167.0</ele><time>2026-04-30T15:49:08.98Z</time></trkpt><trkpt lat="42.7495902" lon="12.127105"><ele>170.33333333333331</ele><time>2026-04-30T15:49:09.98Z</time></trkpt><trkpt lat="42.7497624" lon="12.1271436"><ele>173.66666666666666</ele><time>2026-04-30T15:49:10.98Z</time></trkpt><trkpt lat="42.7499149" lon="12.1271033"><ele>177.0</ele><time>2026-04-30T15:49:11.98Z</time></trkpt><trkpt lat="42.7500361" lon="12.1269851"><ele>177.0</ele><time>2026-04-30T15:49:12.98Z</time></trkpt><trkpt lat="42.750107" lon="12.1267968"><ele>177.0</ele><time>2026-04-30T15:49:13.98Z</time></trkpt><trkpt lat="42.7501312" lon="12.1265563"><ele>177.0</ele><time>2026-04-30T15:49:14.98Z</time></trkpt><trkpt lat="42.7501573" lon="12.1262768"><ele>177.0</ele><time>2026-04-30T15:49:15.981Z</time></trkpt><trkpt lat="42.7502" lon="12.1259904"><ele>177.0</ele><time>2026-04-30T15:49:16.98Z</time></trkpt><trkpt lat="42.750253" lon="12.1257296"><ele>177.0</ele><time>2026-04-30T15:49:17.98Z</time></trkpt><trkpt lat="42.7503088" lon="12.1255068"><ele>180.0</ele><time>2026-04-30T15:49:18.98Z</time></trkpt><trkpt lat="42.7503541" lon="12.1253212"><ele>183.0</ele><time>2026-04-30T15:49:19.981Z</time></trkpt><trkpt lat="42.7504031" lon="12.1251614"><ele>186.0</ele><time>2026-04-30T15:49:20.98Z</time></trkpt><trkpt lat="42.7504538" lon="12.1250178"><ele>189.0</ele><time>2026-04-30T15:49:21.98Z</time></trkpt><trkpt lat="42.7505149" lon="12.1248726"><ele>189.0</ele><time>2026-04-30T15:49:22.981Z</time></trkpt><trkpt lat="42.7505894" lon="12.1247218"><ele>189.0</ele><time>2026-04-30T15:49:23.98Z</time></trkpt><trkpt lat="42.7506699" lon="12.1245616"><ele>189.0</ele><time>2026-04-30T15:49:24.981Z</time></trkpt><trkpt lat="42.7507543" lon="12.1244003"><ele>189.0</ele><time>2026-04-30T15:49:25.981Z</time></trkpt><trkpt lat="42.7508412" lon="12.1242302"><ele>189.0</ele><time>2026-04-30T15:49:26.98Z</time></trkpt><trkpt lat="42.7509162" lon="12.1240744"><ele>189.0</ele><time>2026-04-30T15:49:27.981Z</time></trkpt><trkpt lat="42.7509879" lon="12.1239344"><ele>189.0</ele><time>2026-04-30T15:49:28.98Z</time></trkpt><trkpt lat="42.7510633" lon="12.1237897"><ele>189.0</ele><time>2026-04-30T15:49:29.98Z</time></trkpt><trkpt lat="42.7511392" lon="12.1236584"><ele>188.0</ele><time>2026-04-30T15:49:30.98Z</time></trkpt><trkpt lat="42.7512175" lon="12.1235352"><ele>187.0</ele><time>2026-04-30T15:49:31.98Z</time></trkpt><trkpt lat="42.7513061" lon="12.1234242"><ele>186.0</ele><time>2026-04-30T15:49:32.981Z</time></trkpt><trkpt lat="42.7514088" lon="12.1233209"><ele>185.0</ele><time>2026-04-30T15:49:33.98Z</time></trkpt><trkpt lat="42.7515295" lon="12.1232326"><ele>185.25</ele><time>2026-04-30T15:49:34.98Z</time></trkpt><trkpt lat="42.7516625" lon="12.1231634"><ele>185.5</ele><time>2026-04-30T15:49:35.981Z</time></trkpt><trkpt lat="42.7517927" lon="12.123117"><ele>185.75</ele><time>2026-04-30T15:49:36.98Z</time></trkpt><trkpt lat="42.7519161" lon="12.1230996"><ele>186.0</ele><time>2026-04-30T15:49:37.98Z</time></trkpt><trkpt lat="42.7520351" lon="12.1231154"><ele>185.0</ele><time>2026-04-30T15:49:38.98Z</time></trkpt><trkpt lat="42.752142" lon="12.1231575"><ele>184.0</ele><time>2026-04-30T15:49:39.98Z</time></trkpt><trkpt lat="42.7522406" lon="12.1232207"><ele>183.0</ele><time>2026-04-30T15:49:40.98Z</time></trkpt><trkpt lat="42.7523428" lon="12.1232964"><ele>182.0</ele><time>2026-04-30T15:49:41.98Z</time></trkpt><trkpt lat="42.752452" lon="12.1233663"><ele>181.75</ele><time>2026-04-30T15:49:42.981Z</time></trkpt><trkpt lat="42.7525697" lon="12.1234193"><ele>181.5</ele><time>2026-04-30T15:49:43.98Z</time></trkpt><trkpt lat="42.7527004" lon="12.1234382"><ele>181.25</ele><time>2026-04-30T15:49:44.98Z</time></trkpt><trkpt lat="42.7528327" lon="12.1234176"><ele>181.0</ele><time>2026-04-30T15:49:45.981Z</time></trkpt><trkpt lat="42.7529578" lon="12.1233651"><ele>180.25</ele><time>2026-04-30T15:49:46.98Z</time></trkpt><trkpt lat="42.753079" lon="12.1233058"><ele>179.5</ele><time>2026-04-30T15:49:47.981Z</time></trkpt><trkpt lat="42.753197" lon="12.1232425"><ele>178.75</ele><time>2026-04-30T15:49:48.98Z</time></trkpt><trkpt lat="42.7533156" lon="12.1231867"><ele>178.0</ele><time>2026-04-30T15:49:49.98Z</time></trkpt><trkpt lat="42.7534276" lon="12.1231225"><ele>178.0</ele><time>2026-04-30T15:49:50.98Z</time></trkpt><trkpt lat="42.7535268" lon="12.1230289"><ele>178.0</ele><time>2026-04-30T15:49:51.98Z</time></trkpt><trkpt lat="42.7536169" lon="12.1229128"><ele>178.0</ele><time>2026-04-30T15:49:52.981Z</time></trkpt><trkpt lat="42.7537005" lon="12.1227856"><ele>178.0</ele><time>2026-04-30T15:49:53.98Z</time></trkpt><trkpt lat="42.7537748" lon="12.1226496"><ele>174.25</ele><time>2026-04-30T15:49:54.98Z</time></trkpt><trkpt lat="42.7538484" lon="12.1225125"><ele>170.5</ele><time>2026-04-30T15:49:55.98Z</time></trkpt><trkpt lat="42.7539174" lon="12.1223874"><ele>166.75</ele><time>2026-04-30T15:49:56.981Z</time></trkpt><trkpt lat="42.7539912" lon="12.1222729"><ele>163.0</ele><time>2026-04-30T15:49:57.98Z</time></trkpt><trkpt lat="42.7540533" lon="12.1221515"><ele>162.0</ele><time>2026-04-30T15:49:58.98Z</time></trkpt><trkpt lat="42.7540961" lon="12.1220215"><ele>161.0</ele><time>2026-04-30T15:49:59.98Z</time></trkpt><trkpt lat="42.7541121" lon="12.1219021"><ele>160.0</ele><time>2026-04-30T15:50:00.981Z</time></trkpt><trkpt lat="42.7541067" lon="12.1217858"><ele>159.0</ele><time>2026-04-30T15:50:01.98Z</time></trkpt><trkpt lat="42.7540879" lon="12.1216778"><ele>158.0</ele><time>2026-04-30T15:50:02.981Z</time></trkpt><trkpt lat="42.7540411" lon="12.121575"><ele>158.4</ele><time>2026-04-30T15:50:03.981Z</time></trkpt><trkpt lat="42.7539662" lon="12.1214912"><ele>158.8</ele><time>2026-04-30T15:50:04.98Z</time></trkpt><trkpt lat="42.7538845" lon="12.1214337"><ele>159.2</ele><time>2026-04-30T15:50:05.981Z</time></trkpt><trkpt lat="42.7537959" lon="12.1214014"><ele>159.6</ele><time>2026-04-30T15:50:06.98Z</time></trkpt><trkpt lat="42.753706" lon="12.1213822"><ele>160.0</ele><time>2026-04-30T15:50:07.98Z</time></trkpt><trkpt lat="42.7536213" lon="12.121354"><ele>160.0</ele><time>2026-04-30T15:50:08.98Z</time></trkpt><trkpt lat="42.7535507" lon="12.1213028"><ele>160.0</ele><time>2026-04-30T15:50:09.981Z</time></trkpt><trkpt lat="42.7534923" lon="12.1212185"><ele>160.0</ele><time>2026-04-30T15:50:10.98Z</time></trkpt><trkpt lat="42.7534683" lon="12.1210933"><ele>160.0</ele><time>2026-04-30T15:50:11.98Z</time></trkpt><trkpt lat="42.75347" lon="12.1209717"><ele>160.0</ele><time>2026-04-30T15:50:12.98Z</time></trkpt><trkpt lat="42.7534917" lon="12.1208467"><ele>160.0</ele><time>2026-04-30T15:50:13.98Z</time></trkpt><trkpt lat="42.7535317" lon="12.120745"><ele>163.4</ele><time>2026-04-30T15:50:14.98Z</time></trkpt><trkpt lat="42.7536067" lon="12.1206933"><ele>166.8</ele><time>2026-04-30T15:50:15.981Z</time></trkpt><trkpt lat="42.75369" lon="12.1206683"><ele>170.2</ele><time>2026-04-30T15:50:16.98Z</time></trkpt><trkpt lat="42.7537767" lon="12.1206517"><ele>173.6</ele><time>2026-04-30T15:50:17.98Z</time></trkpt><trkpt lat="42.7538767" lon="12.1206417"><ele>177.0</ele><time>2026-04-30T15:50:18.981Z</time></trkpt><trkpt lat="42.75399" lon="12.1206533"><ele>177.0</ele><time>2026-04-30T15:50:19.98Z</time></trkpt><trkpt lat="42.7541017" lon="12.1206867"><ele>177.0</ele><time>2026-04-30T15:50:20.98Z</time></trkpt><trkpt lat="42.7542033" lon="12.1207383"><ele>177.0</ele><time>2026-04-30T15:50:21.98Z</time></trkpt><trkpt lat="42.7543083" lon="12.1207967"><ele>177.0</ele><time>2026-04-30T15:50:22.98Z</time></trkpt><trkpt lat="42.7544117" lon="12.1208367"><ele>177.0</ele><time>2026-04-30T15:50:23.981Z</time></trkpt><trkpt lat="42.75452" lon="12.1208683"><ele>171.0</ele><time>2026-04-30T15:50:24.98Z</time></trkpt><trkpt lat="42.754635" lon="12.1208833"><ele>165.0</ele><time>2026-04-30T15:50:25.98Z</time></trkpt><trkpt lat="42.7547483" lon="12.120875"><ele>159.0</ele><time>2026-04-30T15:50:26.98Z</time></trkpt><trkpt lat="42.7548583" lon="12.1208317"><ele>153.0</ele><time>2026-04-30T15:50:27.98Z</time></trkpt><trkpt lat="42.7549617" lon="12.12076"><ele>151.5</ele><time>2026-04-30T15:50:28.98Z</time></trkpt><trkpt lat="42.75505" lon="12.120655"><ele>150.0</ele><time>2026-04-30T15:50:29.981Z</time></trkpt><trkpt lat="42.755115" lon="12.1205183"><ele>148.5</ele><time>2026-04-30T15:50:30.981Z</time></trkpt><trkpt lat="42.7551917" lon="12.1203667"><ele>147.0</ele><time>2026-04-30T15:50:31.981Z</time></trkpt><trkpt lat="42.7552783" lon="12.1202033"><ele>147.0</ele><time>2026-04-30T15:50:32.98Z</time></trkpt><trkpt lat="42.7553833" lon="12.1200217"><ele>147.0</ele><time>2026-04-30T15:50:33.981Z</time></trkpt><trkpt lat="42.7555" lon="12.1198483"><ele>147.0</ele><time>2026-04-30T15:50:34.98Z</time></trkpt><trkpt lat="42.7556067" lon="12.11965"><ele>149.0</ele><time>2026-04-30T15:50:35.98Z</time></trkpt><trkpt lat="42.7557233" lon="12.1194417"><ele>151.0</ele><time>2026-04-30T15:50:36.98Z</time></trkpt><trkpt lat="42.7558283" lon="12.119235"><ele>153.0</ele><time>2026-04-30T15:50:37.98Z</time></trkpt><trkpt lat="42.7559433" lon="12.1190233"><ele>152.0</ele><time>2026-04-30T15:50:38.98Z</time></trkpt><trkpt lat="42.7560617" lon="12.1187933"><ele>151.0</ele><time>2026-04-30T15:50:39.98Z</time></trkpt><trkpt lat="42.7561833" lon="12.1185767"><ele>150.0</ele><time>2026-04-30T15:50:40.98Z</time></trkpt><trkpt lat="42.7563083" lon="12.11836"><ele>152.5</ele><time>2026-04-30T15:50:41.98Z</time></trkpt><trkpt lat="42.756455" lon="12.1181333"><ele>155.0</ele><time>2026-04-30T15:50:42.98Z</time></trkpt><trkpt lat="42.7566133" lon="12.1179017"><ele>155.0</ele><time>2026-04-30T15:50:43.981Z</time></trkpt><trkpt lat="42.7567867" lon="12.1176833"><ele>155.0</ele><time>2026-04-30T15:50:44.98Z</time></trkpt><trkpt lat="42.7569683" lon="12.11747"><ele>152.5</ele><time>2026-04-30T15:50:45.98Z</time></trkpt><trkpt lat="42.7571683" lon="12.11728"><ele>150.0</ele><time>2026-04-30T15:50:46.98Z</time></trkpt><trkpt lat="42.75738" lon="12.11709"><ele>150.0</ele><time>2026-04-30T15:50:47.98Z</time></trkpt><trkpt lat="42.7575917" lon="12.1168933"><ele>150.0</ele><time>2026-04-30T15:50:48.981Z</time></trkpt><trkpt lat="42.7578067" lon="12.1167017"><ele>148.5</ele><time>2026-04-30T15:50:49.981Z</time></trkpt><trkpt lat="42.7580333" lon="12.1164917"><ele>147.0</ele><time>2026-04-30T15:50:50.98Z</time></trkpt><trkpt lat="42.75827" lon="12.1162767"><ele>147.0</ele><time>2026-04-30T15:50:51.981Z</time></trkpt><trkpt lat="42.7585083" lon="12.1160583"><ele>147.0</ele><time>2026-04-30T15:50:52.98Z</time></trkpt><trkpt lat="42.75875" lon="12.1158333"><ele>147.0</ele><time>2026-04-30T15:50:53.98Z</time></trkpt><trkpt lat="42.7590033" lon="12.115595"><ele>147.0</ele><time>2026-04-30T15:50:54.98Z</time></trkpt><trkpt lat="42.759265" lon="12.1153667"><ele>147.5</ele><time>2026-04-30T15:50:55.98Z</time></trkpt><trkpt lat="42.7595267" lon="12.1151283"><ele>148.0</ele><time>2026-04-30T15:50:56.981Z</time></trkpt><trkpt lat="42.7598" lon="12.1148783"><ele>148.0</ele><time>2026-04-30T15:50:57.98Z</time></trkpt><trkpt lat="42.7600667" lon="12.11463"><ele>148.0</ele><time>2026-04-30T15:50:58.98Z</time></trkpt><trkpt lat="42.760335" lon="12.1143817"><ele>149.0</ele><time>2026-04-30T15:50:59.98Z</time></trkpt><trkpt lat="42.7605983" lon="12.11414"><ele>150.0</ele><time>2026-04-30T15:51:00.98Z</time></trkpt><trkpt lat="42.7608617" lon="12.1139083"><ele>148.5</ele><time>2026-04-30T15:51:01.98Z</time></trkpt><trkpt lat="42.76113" lon="12.1136883"><ele>147.0</ele><time>2026-04-30T15:51:02.98Z</time></trkpt><trkpt lat="42.7614" lon="12.1134817"><ele>147.0</ele><time>2026-04-30T15:51:03.98Z</time></trkpt><trkpt lat="42.7616667" lon="12.113285"><ele>147.0</ele><time>2026-04-30T15:51:04.98Z</time></trkpt><trkpt lat="42.761935" lon="12.1130933"><ele>148.5</ele><time>2026-04-30T15:51:05.981Z</time></trkpt><trkpt lat="42.7622083" lon="12.1129133"><ele>150.0</ele><time>2026-04-30T15:51:06.98Z</time></trkpt><trkpt lat="42.7624833" lon="12.1127483"><ele>150.0</ele><time>2026-04-30T15:51:07.981Z</time></trkpt><trkpt lat="42.762765" lon="12.1126"><ele>150.0</ele><time>2026-04-30T15:51:08.981Z</time></trkpt><trkpt lat="42.7630467" lon="12.1124633"><ele>149.5</ele><time>2026-04-30T15:51:09.98Z</time></trkpt><trkpt lat="42.7633333" lon="12.1123267"><ele>149.0</ele><time>2026-04-30T15:51:10.981Z</time></trkpt><trkpt lat="42.7636217" lon="12.11219"><ele>149.0</ele><time>2026-04-30T15:51:11.981Z</time></trkpt><trkpt lat="42.7639117" lon="12.11206"><ele>149.0</ele><time>2026-04-30T15:51:12.981Z</time></trkpt><trkpt lat="42.7641983" lon="12.11194"><ele>148.5</ele><time>2026-04-30T15:51:13.98Z</time></trkpt><trkpt lat="42.764485" lon="12.1118283"><ele>148.0</ele><time>2026-04-30T15:51:14.981Z</time></trkpt><trkpt lat="42.764745" lon="12.11175"><ele>148.0</ele><time>2026-04-30T15:51:15.98Z</time></trkpt><trkpt lat="42.7649967" lon="12.111695"><ele>148.0</ele><time>2026-04-30T15:51:16.98Z</time></trkpt><trkpt lat="42.765235" lon="12.11166"><ele>148.33333333333334</ele><time>2026-04-30T15:51:17.98Z</time></trkpt><trkpt lat="42.7654617" lon="12.111645"><ele>148.66666666666666</ele><time>2026-04-30T15:51:18.981Z</time></trkpt><trkpt lat="42.7656717" lon="12.111635"><ele>149.0</ele><time>2026-04-30T15:51:19.98Z</time></trkpt><trkpt lat="42.7658717" lon="12.11162"><ele>148.66666666666666</ele><time>2026-04-30T15:51:20.981Z</time></trkpt><trkpt lat="42.76607" lon="12.1115867"><ele>148.33333333333334</ele><time>2026-04-30T15:51:21.98Z</time></trkpt><trkpt lat="42.7662967" lon="12.111565"><ele>148.0</ele><time>2026-04-30T15:51:22.98Z</time></trkpt><trkpt lat="42.76655" lon="12.1115583"><ele>148.0</ele><time>2026-04-30T15:51:23.98Z</time></trkpt><trkpt lat="42.766805" lon="12.1115667"><ele>148.0</ele><time>2026-04-30T15:51:24.98Z</time></trkpt><trkpt lat="42.7670433" lon="12.1115817"><ele>148.0</ele><time>2026-04-30T15:51:25.981Z</time></trkpt><trkpt lat="42.7672667" lon="12.1116483"><ele>148.0</ele><time>2026-04-30T15:51:26.981Z</time></trkpt><trkpt lat="42.7674683" lon="12.1117633"><ele>148.0</ele><time>2026-04-30T15:51:27.981Z</time></trkpt><trkpt lat="42.767645" lon="12.11192"><ele>154.0</ele><time>2026-04-30T15:51:28.981Z</time></trkpt><trkpt lat="42.7677933" lon="12.1121283"><ele>160.0</ele><time>2026-04-30T15:51:29.98Z</time></trkpt><trkpt lat="42.767925" lon="12.1123967"><ele>158.0</ele><time>2026-04-30T15:51:30.98Z</time></trkpt><trkpt lat="42.76806" lon="12.1126567"><ele>156.0</ele><time>2026-04-30T15:51:31.98Z</time></trkpt><trkpt lat="42.7682283" lon="12.1128567"><ele>156.0</ele><time>2026-04-30T15:51:32.981Z</time></trkpt><trkpt lat="42.76842" lon="12.1129967"><ele>156.0</ele><time>2026-04-30T15:51:33.981Z</time></trkpt><trkpt lat="42.7686417" lon="12.1130767"><ele>156.0</ele><time>2026-04-30T15:51:34.98Z</time></trkpt><trkpt lat="42.76887" lon="12.11311"><ele>157.66666666666666</ele><time>2026-04-30T15:51:35.98Z</time></trkpt><trkpt lat="42.7690767" lon="12.1130817"><ele>159.33333333333331</ele><time>2026-04-30T15:51:36.981Z</time></trkpt><trkpt lat="42.7692883" lon="12.1129883"><ele>161.0</ele><time>2026-04-30T15:51:37.981Z</time></trkpt><trkpt lat="42.7695017" lon="12.1128067"><ele>164.0</ele><time>2026-04-30T15:51:38.98Z</time></trkpt><trkpt lat="42.7696917" lon="12.112565"><ele>167.0</ele><time>2026-04-30T15:51:39.98Z</time></trkpt><trkpt lat="42.769875" lon="12.1122917"><ele>167.0</ele><time>2026-04-30T15:51:40.98Z</time></trkpt><trkpt lat="42.7700617" lon="12.1120217"><ele>167.0</ele><time>2026-04-30T15:51:41.98Z</time></trkpt><trkpt lat="42.770275" lon="12.1117967"><ele>170.5</ele><time>2026-04-30T15:51:42.981Z</time></trkpt><trkpt lat="42.7705267" lon="12.1116467"><ele>174.0</ele><time>2026-04-30T15:51:43.981Z</time></trkpt><trkpt lat="42.7707883" lon="12.1115433"><ele>168.0</ele><time>2026-04-30T15:51:44.98Z</time></trkpt><trkpt lat="42.7710367" lon="12.111475"><ele>162.0</ele><time>2026-04-30T15:51:45.98Z</time></trkpt><trkpt lat="42.771275" lon="12.1114117"><ele>162.0</ele><time>2026-04-30T15:51:46.98Z</time></trkpt><trkpt lat="42.771485" lon="12.1113317"><ele>162.0</ele><time>2026-04-30T15:51:47.98Z</time></trkpt><trkpt lat="42.771665" lon="12.1112533"><ele>162.0</ele><time>2026-04-30T15:51:48.98Z</time></trkpt><trkpt lat="42.771815" lon="12.1112217"><ele>160.75</ele><time>2026-04-30T15:51:49.98Z</time></trkpt><trkpt lat="42.7719583" lon="12.1112617"><ele>159.5</ele><time>2026-04-30T15:51:50.981Z</time></trkpt><trkpt lat="42.7720761" lon="12.1113498"><ele>158.25</ele><time>2026-04-30T15:51:51.98Z</time></trkpt><trkpt lat="42.7721556" lon="12.1114822"><ele>157.0</ele><time>2026-04-30T15:51:52.981Z</time></trkpt><trkpt lat="42.7721957" lon="12.1116708"><ele>155.66666666666669</ele><time>2026-04-30T15:51:53.98Z</time></trkpt><trkpt lat="42.7721787" lon="12.1118609"><ele>154.33333333333334</ele><time>2026-04-30T15:51:54.981Z</time></trkpt><trkpt lat="42.7720971" lon="12.1120285"><ele>153.0</ele><time>2026-04-30T15:51:55.981Z</time></trkpt><trkpt lat="42.7719541" lon="12.1121613"><ele>152.0</ele><time>2026-04-30T15:51:56.981Z</time></trkpt><trkpt lat="42.7717673" lon="12.1122825"><ele>151.0</ele><time>2026-04-30T15:51:57.98Z</time></trkpt><trkpt lat="42.7715612" lon="12.1123715"><ele>150.0</ele><time>2026-04-30T15:51:58.98Z</time></trkpt><trkpt lat="42.7713504" lon="12.1124962"><ele>150.66666666666666</ele><time>2026-04-30T15:51:59.98Z</time></trkpt><trkpt lat="42.7711395" lon="12.1126275"><ele>151.33333333333331</ele><time>2026-04-30T15:52:00.98Z</time></trkpt><trkpt lat="42.7709618" lon="12.112754"><ele>152.0</ele><time>2026-04-30T15:52:01.98Z</time></trkpt><trkpt lat="42.7708186" lon="12.1129108"><ele>152.0</ele><time>2026-04-30T15:52:02.98Z</time></trkpt><trkpt lat="42.7707231" lon="12.1130981"><ele>152.0</ele><time>2026-04-30T15:52:03.981Z</time></trkpt><trkpt lat="42.7706759" lon="12.113323"><ele>152.0</ele><time>2026-04-30T15:52:04.981Z</time></trkpt><trkpt lat="42.7706876" lon="12.1135489"><ele>156.0</ele><time>2026-04-30T15:52:05.981Z</time></trkpt><trkpt lat="42.7707653" lon="12.1137678"><ele>160.0</ele><time>2026-04-30T15:52:06.98Z</time></trkpt><trkpt lat="42.770887" lon="12.1139266"><ele>164.0</ele><time>2026-04-30T15:52:07.98Z</time></trkpt><trkpt lat="42.7710396" lon="12.1140218"><ele>169.0</ele><time>2026-04-30T15:52:08.98Z</time></trkpt><trkpt lat="42.7712229" lon="12.1140968"><ele>174.0</ele><time>2026-04-30T15:52:09.98Z</time></trkpt><trkpt lat="42.7714033" lon="12.1141909"><ele>179.0</ele><time>2026-04-30T15:52:10.98Z</time></trkpt><trkpt lat="42.7715402" lon="12.1143603"><ele>179.0</ele><time>2026-04-30T15:52:11.98Z</time></trkpt><trkpt lat="42.771659" lon="12.1145408"><ele>179.0</ele><time>2026-04-30T15:52:12.981Z</time></trkpt><trkpt lat="42.7717883" lon="12.1146752"><ele>179.0</ele><time>2026-04-30T15:52:13.981Z</time></trkpt><trkpt lat="42.7719293" lon="12.1147277"><ele>180.25</ele><time>2026-04-30T15:52:14.98Z</time></trkpt><trkpt lat="42.7720626" lon="12.1146849"><ele>181.5</ele><time>2026-04-30T15:52:15.98Z</time></trkpt><trkpt lat="42.7721767" lon="12.1145647"><ele>182.75</ele><time>2026-04-30T15:52:16.98Z</time></trkpt><trkpt lat="42.7722778" lon="12.1143878"><ele>184.0</ele><time>2026-04-30T15:52:17.981Z</time></trkpt><trkpt lat="42.772394" lon="12.1141965"><ele>186.33333333333334</ele><time>2026-04-30T15:52:18.98Z</time></trkpt><trkpt lat="42.7725501" lon="12.1140505"><ele>188.66666666666666</ele><time>2026-04-30T15:52:19.98Z</time></trkpt><trkpt lat="42.7727379" lon="12.1139502"><ele>191.0</ele><time>2026-04-30T15:52:20.981Z</time></trkpt><trkpt lat="42.7729598" lon="12.1138831"><ele>193.5</ele><time>2026-04-30T15:52:21.98Z</time></trkpt><trkpt lat="42.7731918" lon="12.1138387"><ele>196.0</ele><time>2026-04-30T15:52:22.98Z</time></trkpt><trkpt lat="42.7734454" lon="12.1137971"><ele>197.5</ele><time>2026-04-30T15:52:23.981Z</time></trkpt><trkpt lat="42.773699" lon="12.1137332"><ele>199.0</ele><time>2026-04-30T15:52:24.98Z</time></trkpt><trkpt lat="42.7739472" lon="12.1136326"><ele>199.0</ele><time>2026-04-30T15:52:25.98Z</time></trkpt><trkpt lat="42.7742162" lon="12.1135317"><ele>199.0</ele><time>2026-04-30T15:52:26.981Z</time></trkpt><trkpt lat="42.7744759" lon="12.1134534"><ele>202.0</ele><time>2026-04-30T15:52:27.98Z</time></trkpt><trkpt lat="42.7747341" lon="12.1134217"><ele>205.0</ele><time>2026-04-30T15:52:28.98Z</time></trkpt><trkpt lat="42.7749647" lon="12.113428"><ele>205.0</ele><time>2026-04-30T15:52:29.98Z</time></trkpt><trkpt lat="42.7751752" lon="12.1134646"><ele>205.0</ele><time>2026-04-30T15:52:30.98Z</time></trkpt><trkpt lat="42.7753682" lon="12.1134665"><ele>205.0</ele><time>2026-04-30T15:52:31.98Z</time></trkpt><trkpt lat="42.7755537" lon="12.113415"><ele>205.33333333333331</ele><time>2026-04-30T15:52:32.98Z</time></trkpt><trkpt lat="42.7757104" lon="12.1132986"><ele>205.66666666666669</ele><time>2026-04-30T15:52:33.981Z</time></trkpt><trkpt lat="42.7758354" lon="12.113115"><ele>206.0</ele><time>2026-04-30T15:52:34.98Z</time></trkpt><trkpt lat="42.7759609" lon="12.1129306"><ele>207.33333333333334</ele><time>2026-04-30T15:52:35.98Z</time></trkpt><trkpt lat="42.7761085" lon="12.1127934"><ele>208.66666666666669</ele><time>2026-04-30T15:52:36.98Z</time></trkpt><trkpt lat="42.7763012" lon="12.1127603"><ele>210.0</ele><time>2026-04-30T15:52:37.98Z</time></trkpt><trkpt lat="42.7765175" lon="12.112778"><ele>210.0</ele><time>2026-04-30T15:52:38.98Z</time></trkpt><trkpt lat="42.7767341" lon="12.1128174"><ele>210.0</ele><time>2026-04-30T15:52:39.981Z</time></trkpt><trkpt lat="42.7769401" lon="12.1129171"><ele>210.0</ele><time>2026-04-30T15:52:40.98Z</time></trkpt><trkpt lat="42.7771218" lon="12.1130691"><ele>215.33333333333331</ele><time>2026-04-30T15:52:41.981Z</time></trkpt><trkpt lat="42.7772792" lon="12.1132638"><ele>220.66666666666666</ele><time>2026-04-30T15:52:42.981Z</time></trkpt><trkpt lat="42.7773947" lon="12.1134723"><ele>226.0</ele><time>2026-04-30T15:52:43.98Z</time></trkpt><trkpt lat="42.7774571" lon="12.1137098"><ele>226.0</ele><time>2026-04-30T15:52:44.98Z</time></trkpt><trkpt lat="42.7774535" lon="12.1139741"><ele>226.0</ele><time>2026-04-30T15:52:45.98Z</time></trkpt><trkpt lat="42.7773925" lon="12.1142407"><ele>226.0</ele><time>2026-04-30T15:52:46.98Z</time></trkpt><trkpt lat="42.7773331" lon="12.1144771"><ele>226.66666666666666</ele><time>2026-04-30T15:52:47.98Z</time></trkpt><trkpt lat="42.7773307" lon="12.1147136"><ele>227.33333333333331</ele><time>2026-04-30T15:52:48.98Z</time></trkpt><trkpt lat="42.7773913" lon="12.1149256"><ele>228.0</ele><time>2026-04-30T15:52:49.98Z</time></trkpt><trkpt lat="42.7775081" lon="12.1151109"><ele>229.0</ele><time>2026-04-30T15:52:50.98Z</time></trkpt><trkpt lat="42.7776602" lon="12.1152808"><ele>230.0</ele><time>2026-04-30T15:52:51.981Z</time></trkpt><trkpt lat="42.7778352" lon="12.1154276"><ele>231.0</ele><time>2026-04-30T15:52:52.98Z</time></trkpt><trkpt lat="42.7780349" lon="12.1155421"><ele>237.5</ele><time>2026-04-30T15:52:53.98Z</time></trkpt><trkpt lat="42.7782595" lon="12.1156162"><ele>244.0</ele><time>2026-04-30T15:52:54.981Z</time></trkpt><trkpt lat="42.7784939" lon="12.1156671"><ele>249.5</ele><time>2026-04-30T15:52:55.98Z</time></trkpt><trkpt lat="42.7787266" lon="12.115705"><ele>255.0</ele><time>2026-04-30T15:52:56.98Z</time></trkpt><trkpt lat="42.7789635" lon="12.115697"><ele>255.0</ele><time>2026-04-30T15:52:57.981Z</time></trkpt><trkpt lat="42.7792004" lon="12.1156295"><ele>255.0</ele><time>2026-04-30T15:52:58.981Z</time></trkpt><trkpt lat="42.7794332" lon="12.1155118"><ele>255.0</ele><time>2026-04-30T15:52:59.981Z</time></trkpt><trkpt lat="42.7796478" lon="12.1153465"><ele>255.0</ele><time>2026-04-30T15:53:00.98Z</time></trkpt><trkpt lat="42.779862" lon="12.1151747"><ele>255.0</ele><time>2026-04-30T15:53:01.981Z</time></trkpt><trkpt lat="42.7800883" lon="12.1150334"><ele>255.0</ele><time>2026-04-30T15:53:02.98Z</time></trkpt><trkpt lat="42.7803189" lon="12.1149311"><ele>261.0</ele><time>2026-04-30T15:53:03.98Z</time></trkpt><trkpt lat="42.7805436" lon="12.1148634"><ele>267.0</ele><time>2026-04-30T15:53:04.981Z</time></trkpt><trkpt lat="42.780764" lon="12.1148426"><ele>267.0</ele><time>2026-04-30T15:53:05.98Z</time></trkpt><trkpt lat="42.7809961" lon="12.1148668"><ele>267.0</ele><time>2026-04-30T15:53:06.98Z</time></trkpt><trkpt lat="42.781226" lon="12.1149055"><ele>268.5</ele><time>2026-04-30T15:53:07.98Z</time></trkpt><trkpt lat="42.781449" lon="12.1149819"><ele>270.0</ele><time>2026-04-30T15:53:08.981Z</time></trkpt><trkpt lat="42.7816506" lon="12.1151201"><ele>270.0</ele><time>2026-04-30T15:53:09.98Z</time></trkpt><trkpt lat="42.7818258" lon="12.1152843"><ele>270.0</ele><time>2026-04-30T15:53:10.98Z</time></trkpt><trkpt lat="42.7819786" lon="12.1154397"><ele>270.0</ele><time>2026-04-30T15:53:11.98Z</time></trkpt><trkpt lat="42.7821146" lon="12.11558"><ele>271.75</ele><time>2026-04-30T15:53:12.98Z</time></trkpt><trkpt lat="42.7822273" lon="12.1156937"><ele>273.5</ele><time>2026-04-30T15:53:13.98Z</time></trkpt><trkpt lat="42.7823336" lon="12.1157505"><ele>275.25</ele><time>2026-04-30T15:53:14.981Z</time></trkpt><trkpt lat="42.7824343" lon="12.1157328"><ele>277.0</ele><time>2026-04-30T15:53:15.98Z</time></trkpt><trkpt lat="42.7825043" lon="12.1156393"><ele>277.25</ele><time>2026-04-30T15:53:16.981Z</time></trkpt><trkpt lat="42.7825413" lon="12.115497"><ele>277.5</ele><time>2026-04-30T15:53:17.98Z</time></trkpt><trkpt lat="42.7825446" lon="12.1153304"><ele>277.75</ele><time>2026-04-30T15:53:18.98Z</time></trkpt><trkpt lat="42.7825173" lon="12.115124"><ele>278.0</ele><time>2026-04-30T15:53:19.98Z</time></trkpt><trkpt lat="42.7825019" lon="12.1148929"><ele>278.0</ele><time>2026-04-30T15:53:20.98Z</time></trkpt><trkpt lat="42.7825254" lon="12.1146645"><ele>278.0</ele><time>2026-04-30T15:53:21.98Z</time></trkpt><trkpt lat="42.7825802" lon="12.1144153"><ele>278.0</ele><time>2026-04-30T15:53:22.981Z</time></trkpt><trkpt lat="42.7826704" lon="12.1141693"><ele>279.5</ele><time>2026-04-30T15:53:23.98Z</time></trkpt><trkpt lat="42.7827962" lon="12.1139197"><ele>281.0</ele><time>2026-04-30T15:53:24.98Z</time></trkpt><trkpt lat="42.78295" lon="12.1136879"><ele>281.0</ele><time>2026-04-30T15:53:25.981Z</time></trkpt><trkpt lat="42.7830989" lon="12.1134645"><ele>281.0</ele><time>2026-04-30T15:53:26.98Z</time></trkpt><trkpt lat="42.7832187" lon="12.1132237"><ele>281.0</ele><time>2026-04-30T15:53:27.98Z</time></trkpt><trkpt lat="42.7833184" lon="12.1129669"><ele>280.0</ele><time>2026-04-30T15:53:28.981Z</time></trkpt><trkpt lat="42.7834004" lon="12.1127196"><ele>279.0</ele><time>2026-04-30T15:53:29.981Z</time></trkpt><trkpt lat="42.783465" lon="12.112504"><ele>278.0</ele><time>2026-04-30T15:53:30.98Z</time></trkpt><trkpt lat="42.783521" lon="12.1123334"><ele>280.6</ele><time>2026-04-30T15:53:31.98Z</time></trkpt><trkpt lat="42.783564" lon="12.1121911"><ele>283.20000000000005</ele><time>2026-04-30T15:53:32.981Z</time></trkpt><trkpt lat="42.7836108" lon="12.1120722"><ele>285.8</ele><time>2026-04-30T15:53:33.98Z</time></trkpt><trkpt lat="42.7836631" lon="12.111963"><ele>288.40000000000003</ele><time>2026-04-30T15:53:34.98Z</time></trkpt><trkpt lat="42.7837189" lon="12.1118654"><ele>291.0</ele><time>2026-04-30T15:53:35.98Z</time></trkpt><trkpt lat="42.7837829" lon="12.11177"><ele>291.0</ele><time>2026-04-30T15:53:36.981Z</time></trkpt><trkpt lat="42.783852" lon="12.1116832"><ele>291.0</ele><time>2026-04-30T15:53:37.98Z</time></trkpt><trkpt lat="42.7839201" lon="12.1115975"><ele>291.0</ele><time>2026-04-30T15:53:38.981Z</time></trkpt><trkpt lat="42.7839876" lon="12.1114952"><ele>291.0</ele><time>2026-04-30T15:53:39.981Z</time></trkpt><trkpt lat="42.7840484" lon="12.111382"><ele>291.0</ele><time>2026-04-30T15:53:40.98Z</time></trkpt><trkpt lat="42.7840901" lon="12.1112601"><ele>290.25</ele><time>2026-04-30T15:53:41.98Z</time></trkpt><trkpt lat="42.7841139" lon="12.1111167"><ele>289.5</ele><time>2026-04-30T15:53:42.98Z</time></trkpt><trkpt lat="42.7841212" lon="12.1109526"><ele>288.75</ele><time>2026-04-30T15:53:43.98Z</time></trkpt><trkpt lat="42.7841374" lon="12.1107581"><ele>288.0</ele><time>2026-04-30T15:53:44.981Z</time></trkpt><trkpt lat="42.7841546" lon="12.1105377"><ele>288.0</ele><time>2026-04-30T15:53:45.981Z</time></trkpt><trkpt lat="42.7841777" lon="12.1103018"><ele>288.0</ele><time>2026-04-30T15:53:46.98Z</time></trkpt><trkpt lat="42.7842035" lon="12.1100488"><ele>288.0</ele><time>2026-04-30T15:53:47.98Z</time></trkpt><trkpt lat="42.7842261" lon="12.1097773"><ele>287.6666666666667</ele><time>2026-04-30T15:53:48.98Z</time></trkpt><trkpt lat="42.784249" lon="12.1095011"><ele>287.33333333333337</ele><time>2026-04-30T15:53:49.981Z</time></trkpt><trkpt lat="42.7842683" lon="12.1092352"><ele>287.0</ele><time>2026-04-30T15:53:50.98Z</time></trkpt><trkpt lat="42.7842841" lon="12.1089874"><ele>287.0</ele><time>2026-04-30T15:53:51.98Z</time></trkpt><trkpt lat="42.784302" lon="12.1087542"><ele>287.0</ele><time>2026-04-30T15:53:52.98Z</time></trkpt><trkpt lat="42.7843346" lon="12.1085491"><ele>287.0</ele><time>2026-04-30T15:53:53.98Z</time></trkpt><trkpt lat="42.7843981" lon="12.1083986"><ele>289.5</ele><time>2026-04-30T15:53:54.98Z</time></trkpt><trkpt lat="42.784499" lon="12.1083279"><ele>292.0</ele><time>2026-04-30T15:53:55.98Z</time></trkpt><trkpt lat="42.7846399" lon="12.108301"><ele>294.5</ele><time>2026-04-30T15:53:56.98Z</time></trkpt><trkpt lat="42.7848196" lon="12.1083059"><ele>297.0</ele><time>2026-04-30T15:53:57.98Z</time></trkpt><trkpt lat="42.7850207" lon="12.108314"><ele>297.0</ele><time>2026-04-30T15:53:58.98Z</time></trkpt><trkpt lat="42.7852334" lon="12.1083047"><ele>297.0</ele><time>2026-04-30T15:53:59.98Z</time></trkpt><trkpt lat="42.7854493" lon="12.1082717"><ele>297.0</ele><time>2026-04-30T15:54:00.981Z</time></trkpt><trkpt lat="42.7856651" lon="12.108238"><ele>297.0</ele><time>2026-04-30T15:54:01.98Z</time></trkpt><trkpt lat="42.7858716" lon="12.1081579"><ele>297.0</ele><time>2026-04-30T15:54:02.981Z</time></trkpt><trkpt lat="42.7860463" lon="12.1080468"><ele>297.0</ele><time>2026-04-30T15:54:03.98Z</time></trkpt><trkpt lat="42.7861811" lon="12.1079126"><ele>305.6666666666667</ele><time>2026-04-30T15:54:04.981Z</time></trkpt><trkpt lat="42.7862719" lon="12.1077428"><ele>314.33333333333337</ele><time>2026-04-30T15:54:05.981Z</time></trkpt><trkpt lat="42.7863017" lon="12.1075254"><ele>323.0</ele><time>2026-04-30T15:54:06.98Z</time></trkpt><trkpt lat="42.7863107" lon="12.1072847"><ele>323.6666666666667</ele><time>2026-04-30T15:54:07.98Z</time></trkpt><trkpt lat="42.7863113" lon="12.1070128"><ele>324.3333333333333</ele><time>2026-04-30T15:54:08.981Z</time></trkpt><trkpt lat="42.7863058" lon="12.1067326"><ele>325.0</ele><time>2026-04-30T15:54:09.98Z</time></trkpt><trkpt lat="42.7862715" lon="12.1064617"><ele>325.0</ele><time>2026-04-30T15:54:10.98Z</time></trkpt><trkpt lat="42.7861836" lon="12.1062223"><ele>325.0</ele><time>2026-04-30T15:54:11.98Z</time></trkpt><trkpt lat="42.7860769" lon="12.1060094"><ele>325.0</ele><time>2026-04-30T15:54:12.981Z</time></trkpt><trkpt lat="42.7859943" lon="12.1058255"><ele>320.5</ele><time>2026-04-30T15:54:13.98Z</time></trkpt><trkpt lat="42.7859693" lon="12.1056554"><ele>316.0</ele><time>2026-04-30T15:54:14.98Z</time></trkpt><trkpt lat="42.7860086" lon="12.1055187"><ele>311.5</ele><time>2026-04-30T15:54:15.981Z</time></trkpt><trkpt lat="42.7860951" lon="12.1054368"><ele>307.0</ele><time>2026-04-30T15:54:16.98Z</time></trkpt><trkpt lat="42.7862177" lon="12.1054098"><ele>307.0</ele><time>2026-04-30T15:54:17.98Z</time></trkpt><trkpt lat="42.7863753" lon="12.1054256"><ele>307.0</ele><time>2026-04-30T15:54:18.98Z</time></trkpt><trkpt lat="42.786555" lon="12.105455"><ele>307.0</ele><time>2026-04-30T15:54:19.98Z</time></trkpt><trkpt lat="42.786737" lon="12.1054761"><ele>307.66666666666663</ele><time>2026-04-30T15:54:20.98Z</time></trkpt><trkpt lat="42.7869256" lon="12.1055415"><ele>308.3333333333333</ele><time>2026-04-30T15:54:21.981Z</time></trkpt><trkpt lat="42.7871036" lon="12.1056734"><ele>309.0</ele><time>2026-04-30T15:54:22.981Z</time></trkpt><trkpt lat="42.7872825" lon="12.1058322"><ele>315.3333333333333</ele><time>2026-04-30T15:54:23.981Z</time></trkpt><trkpt lat="42.787482" lon="12.1059606"><ele>321.66666666666663</ele><time>2026-04-30T15:54:24.98Z</time></trkpt><trkpt lat="42.7876934" lon="12.106042"><ele>328.0</ele><time>2026-04-30T15:54:25.981Z</time></trkpt><trkpt lat="42.787895" lon="12.1060992"><ele>332.25</ele><time>2026-04-30T15:54:26.981Z</time></trkpt><trkpt lat="42.7880624" lon="12.1061277"><ele>336.5</ele><time>2026-04-30T15:54:27.98Z</time></trkpt><trkpt lat="42.7882031" lon="12.1061"><ele>340.75</ele><time>2026-04-30T15:54:28.98Z</time></trkpt><trkpt lat="42.7883243" lon="12.106016"><ele>345.0</ele><time>2026-04-30T15:54:29.98Z</time></trkpt><trkpt lat="42.7884196" lon="12.105889"><ele>342.6666666666667</ele><time>2026-04-30T15:54:30.98Z</time></trkpt><trkpt lat="42.7884801" lon="12.105734"><ele>340.33333333333337</ele><time>2026-04-30T15:54:31.98Z</time></trkpt><trkpt lat="42.7884987" lon="12.1055515"><ele>338.0</ele><time>2026-04-30T15:54:32.98Z</time></trkpt><trkpt lat="42.7884282" lon="12.105253"><ele>338.0</ele><time>2026-04-30T15:54:33.98Z</time></trkpt><trkpt lat="42.7884064" lon="12.1049973"><ele>338.0</ele><time>2026-04-30T15:54:34.98Z</time></trkpt><trkpt lat="42.7884501" lon="12.1048087"><ele>338.0</ele><time>2026-04-30T15:54:35.981Z</time></trkpt><trkpt lat="42.7885686" lon="12.1046956"><ele>340.33333333333337</ele><time>2026-04-30T15:54:36.981Z</time></trkpt><trkpt lat="42.788741" lon="12.1046386"><ele>342.6666666666667</ele><time>2026-04-30T15:54:37.98Z</time></trkpt><trkpt lat="42.788938" lon="12.1046094"><ele>345.0</ele><time>2026-04-30T15:54:38.98Z</time></trkpt><trkpt lat="42.7891381" lon="12.1045987"><ele>345.0</ele><time>2026-04-30T15:54:39.98Z</time></trkpt><trkpt lat="42.7893112" lon="12.1046071"><ele>345.0</ele><time>2026-04-30T15:54:40.98Z</time></trkpt><trkpt lat="42.7894565" lon="12.1046139"><ele>345.0</ele><time>2026-04-30T15:54:41.98Z</time></trkpt><trkpt lat="42.7895869" lon="12.104578"><ele>348.0</ele><time>2026-04-30T15:54:42.98Z</time></trkpt><trkpt lat="42.7896678" lon="12.1044769"><ele>351.0</ele><time>2026-04-30T15:54:43.98Z</time></trkpt><trkpt lat="42.7896962" lon="12.1043282"><ele>354.0</ele><time>2026-04-30T15:54:44.98Z</time></trkpt><trkpt lat="42.7896609" lon="12.1041163"><ele>357.0</ele><time>2026-04-30T15:54:45.98Z</time></trkpt><trkpt lat="42.7896304" lon="12.1038968"><ele>357.0</ele><time>2026-04-30T15:54:46.98Z</time></trkpt><trkpt lat="42.7896707" lon="12.1037109"><ele>357.0</ele><time>2026-04-30T15:54:47.98Z</time></trkpt><trkpt lat="42.7897706" lon="12.1035691"><ele>357.0</ele><time>2026-04-30T15:54:48.98Z</time></trkpt><trkpt lat="42.7899369" lon="12.1034898"><ele>357.0</ele><time>2026-04-30T15:54:49.98Z</time></trkpt><trkpt lat="42.7901343" lon="12.1034729"><ele>357.0</ele><time>2026-04-30T15:54:50.98Z</time></trkpt><trkpt lat="42.7903543" lon="12.1034852"><ele>357.0</ele><time>2026-04-30T15:54:51.98Z</time></trkpt><trkpt lat="42.7905762" lon="12.1034435"><ele>357.0</ele><time>2026-04-30T15:54:52.98Z</time></trkpt><trkpt lat="42.7907823" lon="12.1033422"><ele>357.0</ele><time>2026-04-30T15:54:53.98Z</time></trkpt><trkpt lat="42.79097" lon="12.1032437"><ele>357.0</ele><time>2026-04-30T15:54:54.981Z</time></trkpt><trkpt lat="42.7911443" lon="12.1032003"><ele>357.0</ele><time>2026-04-30T15:54:55.98Z</time></trkpt><trkpt lat="42.7912972" lon="12.1032395"><ele>357.0</ele><time>2026-04-30T15:54:56.98Z</time></trkpt><trkpt lat="42.7914173" lon="12.1033694"><ele>357.0</ele><time>2026-04-30T15:54:57.98Z</time></trkpt><trkpt lat="42.7915185" lon="12.1035616"><ele>362.6666666666667</ele><time>2026-04-30T15:54:58.98Z</time></trkpt><trkpt lat="42.7916306" lon="12.1037959"><ele>368.33333333333337</ele><time>2026-04-30T15:54:59.98Z</time></trkpt><trkpt lat="42.7917298" lon="12.1039875"><ele>374.0</ele><time>2026-04-30T15:55:00.98Z</time></trkpt><trkpt lat="42.7918496" lon="12.1041066"><ele>378.0</ele><time>2026-04-30T15:55:01.981Z</time></trkpt><trkpt lat="42.7919793" lon="12.1041295"><ele>382.0</ele><time>2026-04-30T15:55:02.98Z</time></trkpt><trkpt lat="42.7921034" lon="12.1040617"><ele>386.0</ele><time>2026-04-30T15:55:03.981Z</time></trkpt><trkpt lat="42.7921955" lon="12.103927"><ele>390.0</ele><time>2026-04-30T15:55:04.98Z</time></trkpt><trkpt lat="42.7922571" lon="12.1037467"><ele>390.0</ele><time>2026-04-30T15:55:05.981Z</time></trkpt><trkpt lat="42.792308" lon="12.103524"><ele>390.0</ele><time>2026-04-30T15:55:06.981Z</time></trkpt><trkpt lat="42.7923768" lon="12.1032713"><ele>390.0</ele><time>2026-04-30T15:55:07.981Z</time></trkpt><trkpt lat="42.7924749" lon="12.103037"><ele>392.0</ele><time>2026-04-30T15:55:08.98Z</time></trkpt><trkpt lat="42.7926045" lon="12.1028195"><ele>394.0</ele><time>2026-04-30T15:55:09.98Z</time></trkpt><trkpt lat="42.7927115" lon="12.102588"><ele>396.0</ele><time>2026-04-30T15:55:10.981Z</time></trkpt><trkpt lat="42.7927842" lon="12.1023758"><ele>390.75</ele><time>2026-04-30T15:55:11.981Z</time></trkpt><trkpt lat="42.7928861" lon="12.1022364"><ele>385.5</ele><time>2026-04-30T15:55:12.981Z</time></trkpt><trkpt lat="42.7930181" lon="12.1021706"><ele>380.25</ele><time>2026-04-30T15:55:13.981Z</time></trkpt><trkpt lat="42.7931768" lon="12.1021789"><ele>375.0</ele><time>2026-04-30T15:55:14.98Z</time></trkpt><trkpt lat="42.7933764" lon="12.1022772"><ele>376.5</ele><time>2026-04-30T15:55:15.981Z</time></trkpt><trkpt lat="42.7935897" lon="12.1024129"><ele>378.0</ele><time>2026-04-30T15:55:16.98Z</time></trkpt><trkpt lat="42.7938077" lon="12.1025546"><ele>385.0</ele><time>2026-04-30T15:55:17.98Z</time></trkpt><trkpt lat="42.7940266" lon="12.1026884"><ele>392.0</ele><time>2026-04-30T15:55:18.981Z</time></trkpt><trkpt lat="42.794246" lon="12.1028124"><ele>394.0</ele><time>2026-04-30T15:55:19.981Z</time></trkpt><trkpt lat="42.7944453" lon="12.1029446"><ele>396.0</ele><time>2026-04-30T15:55:20.981Z</time></trkpt><trkpt lat="42.7946095" lon="12.1030329"><ele>398.0</ele><time>2026-04-30T15:55:21.98Z</time></trkpt><trkpt lat="42.794753" lon="12.1030657"><ele>398.0</ele><time>2026-04-30T15:55:22.98Z</time></trkpt><trkpt lat="42.7948806" lon="12.10302"><ele>398.0</ele><time>2026-04-30T15:55:23.98Z</time></trkpt><trkpt lat="42.794995" lon="12.1028942"><ele>398.0</ele><time>2026-04-30T15:55:24.98Z</time></trkpt><trkpt lat="42.7950707" lon="12.1027044"><ele>398.0</ele><time>2026-04-30T15:55:25.98Z</time></trkpt><trkpt lat="42.795103" lon="12.1024773"><ele>397.5</ele><time>2026-04-30T15:55:26.98Z</time></trkpt><trkpt lat="42.7951373" lon="12.1022532"><ele>397.0</ele><time>2026-04-30T15:55:27.981Z</time></trkpt><trkpt lat="42.7952023" lon="12.1020874"><ele>396.5</ele><time>2026-04-30T15:55:28.98Z</time></trkpt><trkpt lat="42.795312" lon="12.1020064"><ele>396.0</ele><time>2026-04-30T15:55:29.98Z</time></trkpt><trkpt lat="42.7954543" lon="12.1020151"><ele>396.0</ele><time>2026-04-30T15:55:30.98Z</time></trkpt><trkpt lat="42.7956062" lon="12.1020768"><ele>396.0</ele><time>2026-04-30T15:55:31.981Z</time></trkpt><trkpt lat="42.7957723" lon="12.1021209"><ele>396.0</ele><time>2026-04-30T15:55:32.98Z</time></trkpt><trkpt lat="42.7959568" lon="12.102074"><ele>400.0</ele><time>2026-04-30T15:55:33.981Z</time></trkpt><trkpt lat="42.7961555" lon="12.1019466"><ele>404.0</ele><time>2026-04-30T15:55:34.981Z</time></trkpt><trkpt lat="42.7963621" lon="12.1017983"><ele>404.0</ele><time>2026-04-30T15:55:35.981Z</time></trkpt><trkpt lat="42.7965732" lon="12.101644"><ele>404.0</ele><time>2026-04-30T15:55:36.981Z</time></trkpt><trkpt lat="42.7967479" lon="12.1014446"><ele>403.5</ele><time>2026-04-30T15:55:37.98Z</time></trkpt><trkpt lat="42.79687" lon="12.1011721"><ele>403.0</ele><time>2026-04-30T15:55:38.98Z</time></trkpt><trkpt lat="42.79699" lon="12.1008646"><ele>402.5</ele><time>2026-04-30T15:55:39.98Z</time></trkpt><trkpt lat="42.7971425" lon="12.1005727"><ele>402.0</ele><time>2026-04-30T15:55:40.98Z</time></trkpt><trkpt lat="42.7973346" lon="12.1002989"><ele>402.0</ele><time>2026-04-30T15:55:41.98Z</time></trkpt><trkpt lat="42.797547" lon="12.1000297"><ele>402.0</ele><time>2026-04-30T15:55:42.981Z</time></trkpt><trkpt lat="42.7977654" lon="12.0997657"><ele>402.5</ele><time>2026-04-30T15:55:43.98Z</time></trkpt><trkpt lat="42.7979955" lon="12.0994981"><ele>403.0</ele><time>2026-04-30T15:55:44.98Z</time></trkpt><trkpt lat="42.7982204" lon="12.09922"><ele>403.0</ele><time>2026-04-30T15:55:45.981Z</time></trkpt><trkpt lat="42.798445" lon="12.0989347"><ele>403.0</ele><time>2026-04-30T15:55:46.981Z</time></trkpt><trkpt lat="42.7986696" lon="12.0986455"><ele>406.5</ele><time>2026-04-30T15:55:47.98Z</time></trkpt><trkpt lat="42.798889" lon="12.0983299"><ele>410.0</ele><time>2026-04-30T15:55:48.98Z</time></trkpt><trkpt lat="42.7990877" lon="12.0979912"><ele>412.0</ele><time>2026-04-30T15:55:49.981Z</time></trkpt><trkpt lat="42.7992547" lon="12.0976224"><ele>414.0</ele><time>2026-04-30T15:55:50.98Z</time></trkpt><trkpt lat="42.7993928" lon="12.097238"><ele>414.0</ele><time>2026-04-30T15:55:51.98Z</time></trkpt><trkpt lat="42.7995028" lon="12.0968337"><ele>414.0</ele><time>2026-04-30T15:55:52.98Z</time></trkpt><trkpt lat="42.7995973" lon="12.0964112"><ele>415.0</ele><time>2026-04-30T15:55:53.98Z</time></trkpt><trkpt lat="42.7996846" lon="12.0959708"><ele>416.0</ele><time>2026-04-30T15:55:54.98Z</time></trkpt><trkpt lat="42.7997782" lon="12.0955229"><ele>417.0</ele><time>2026-04-30T15:55:55.98Z</time></trkpt><trkpt lat="42.7998774" lon="12.0950727"><ele>418.0</ele><time>2026-04-30T15:55:56.981Z</time></trkpt><trkpt lat="42.7999739" lon="12.0946252"><ele>418.5</ele><time>2026-04-30T15:55:57.98Z</time></trkpt><trkpt lat="42.8000755" lon="12.094197"><ele>419.0</ele><time>2026-04-30T15:55:58.98Z</time></trkpt><trkpt lat="42.8001967" lon="12.0938012"><ele>423.5</ele><time>2026-04-30T15:55:59.981Z</time></trkpt><trkpt lat="42.8003426" lon="12.0934557"><ele>428.0</ele><time>2026-04-30T15:56:00.98Z</time></trkpt><trkpt lat="42.800513" lon="12.0931386"><ele>429.5</ele><time>2026-04-30T15:56:01.981Z</time></trkpt><trkpt lat="42.8007126" lon="12.0928523"><ele>431.0</ele><time>2026-04-30T15:56:02.981Z</time></trkpt><trkpt lat="42.8009341" lon="12.0925874"><ele>430.0</ele><time>2026-04-30T15:56:03.98Z</time></trkpt><trkpt lat="42.8011698" lon="12.0923312"><ele>429.0</ele><time>2026-04-30T15:56:04.98Z</time></trkpt><trkpt lat="42.8014083" lon="12.0920767"><ele>429.0</ele><time>2026-04-30T15:56:05.981Z</time></trkpt><trkpt lat="42.8016389" lon="12.0918183"><ele>429.0</ele><time>2026-04-30T15:56:06.981Z</time></trkpt><trkpt lat="42.8018876" lon="12.0915715"><ele>431.5</ele><time>2026-04-30T15:56:07.98Z</time></trkpt><trkpt lat="42.8021151" lon="12.0913138"><ele>434.0</ele><time>2026-04-30T15:56:08.98Z</time></trkpt><trkpt lat="42.8023394" lon="12.0910497"><ele>434.0</ele><time>2026-04-30T15:56:09.981Z</time></trkpt><trkpt lat="42.8025535" lon="12.0907774"><ele>434.0</ele><time>2026-04-30T15:56:10.98Z</time></trkpt><trkpt lat="42.8027381" lon="12.090465"><ele>433.5</ele><time>2026-04-30T15:56:11.98Z</time></trkpt><trkpt lat="42.8028961" lon="12.090107"><ele>433.0</ele><time>2026-04-30T15:56:12.981Z</time></trkpt><trkpt lat="42.8030363" lon="12.0897205"><ele>434.0</ele><time>2026-04-30T15:56:13.98Z</time></trkpt><trkpt lat="42.8031689" lon="12.0893248"><ele>435.0</ele><time>2026-04-30T15:56:14.981Z</time></trkpt><trkpt lat="42.8033074" lon="12.0889276"><ele>435.0</ele><time>2026-04-30T15:56:15.98Z</time></trkpt><trkpt lat="42.8034477" lon="12.0885299"><ele>435.0</ele><time>2026-04-30T15:56:16.98Z</time></trkpt><trkpt lat="42.803597" lon="12.0881568"><ele>438.0</ele><time>2026-04-30T15:56:17.981Z</time></trkpt><trkpt lat="42.8037581" lon="12.0878124"><ele>441.0</ele><time>2026-04-30T15:56:18.98Z</time></trkpt><trkpt lat="42.8039363" lon="12.0874795"><ele>439.0</ele><time>2026-04-30T15:56:19.98Z</time></trkpt><trkpt lat="42.8040967" lon="12.0871225"><ele>437.0</ele><time>2026-04-30T15:56:20.981Z</time></trkpt><trkpt lat="42.8042297" lon="12.0867366"><ele>443.5</ele><time>2026-04-30T15:56:21.981Z</time></trkpt><trkpt lat="42.8043689" lon="12.0863557"><ele>450.0</ele><time>2026-04-30T15:56:22.98Z</time></trkpt><trkpt lat="42.8045235" lon="12.0860016"><ele>448.5</ele><time>2026-04-30T15:56:23.98Z</time></trkpt><trkpt lat="42.8046805" lon="12.0856526"><ele>447.0</ele><time>2026-04-30T15:56:24.98Z</time></trkpt><trkpt lat="42.8048268" lon="12.0853242"><ele>447.0</ele><time>2026-04-30T15:56:25.98Z</time></trkpt><trkpt lat="42.8049839" lon="12.0850358"><ele>447.0</ele><time>2026-04-30T15:56:26.98Z</time></trkpt><trkpt lat="42.8051664" lon="12.0847874"><ele>446.0</ele><time>2026-04-30T15:56:27.981Z</time></trkpt><trkpt lat="42.8053726" lon="12.0845661"><ele>445.0</ele><time>2026-04-30T15:56:28.98Z</time></trkpt><trkpt lat="42.8056005" lon="12.0843573"><ele>445.0</ele><time>2026-04-30T15:56:29.98Z</time></trkpt><trkpt lat="42.8058496" lon="12.084149"><ele>445.0</ele><time>2026-04-30T15:56:30.98Z</time></trkpt><trkpt lat="42.8061121" lon="12.0839343"><ele>447.0</ele><time>2026-04-30T15:56:31.98Z</time></trkpt><trkpt lat="42.8063835" lon="12.0837151"><ele>449.0</ele><time>2026-04-30T15:56:32.98Z</time></trkpt><trkpt lat="42.8066551" lon="12.0834989"><ele>450.5</ele><time>2026-04-30T15:56:33.981Z</time></trkpt><trkpt lat="42.8069082" lon="12.0832849"><ele>452.0</ele><time>2026-04-30T15:56:34.981Z</time></trkpt><trkpt lat="42.8071415" lon="12.0830958"><ele>452.0</ele><time>2026-04-30T15:56:35.98Z</time></trkpt><trkpt lat="42.8073661" lon="12.0829161"><ele>452.0</ele><time>2026-04-30T15:56:36.98Z</time></trkpt><trkpt lat="42.8075833" lon="12.0827415"><ele>452.5</ele><time>2026-04-30T15:56:37.98Z</time></trkpt><trkpt lat="42.80779" lon="12.0825679"><ele>453.0</ele><time>2026-04-30T15:56:38.981Z</time></trkpt><trkpt lat="42.8079719" lon="12.0823654"><ele>453.0</ele><time>2026-04-30T15:56:39.98Z</time></trkpt><trkpt lat="42.8081279" lon="12.0821138"><ele>453.0</ele><time>2026-04-30T15:56:40.98Z</time></trkpt><trkpt lat="42.8082709" lon="12.0818127"><ele>453.0</ele><time>2026-04-30T15:56:41.98Z</time></trkpt><trkpt lat="42.80842" lon="12.0814909"><ele>453.0</ele><time>2026-04-30T15:56:42.98Z</time></trkpt><trkpt lat="42.8085793" lon="12.0811616"><ele>453.0</ele><time>2026-04-30T15:56:43.98Z</time></trkpt><trkpt lat="42.8087415" lon="12.0808259"><ele>453.0</ele><time>2026-04-30T15:56:44.98Z</time></trkpt><trkpt lat="42.8089023" lon="12.0804902"><ele>450.5</ele><time>2026-04-30T15:56:45.98Z</time></trkpt><trkpt lat="42.8090517" lon="12.080172"><ele>448.0</ele><time>2026-04-30T15:56:46.98Z</time></trkpt><trkpt lat="42.8091938" lon="12.0798688"><ele>444.0</ele><time>2026-04-30T15:56:47.98Z</time></trkpt><trkpt lat="42.8093424" lon="12.0795845"><ele>440.0</ele><time>2026-04-30T15:56:48.98Z</time></trkpt><trkpt lat="42.8095044" lon="12.0793149"><ele>438.5</ele><time>2026-04-30T15:56:49.98Z</time></trkpt><trkpt lat="42.8096853" lon="12.0790631"><ele>437.0</ele><time>2026-04-30T15:56:50.98Z</time></trkpt><trkpt lat="42.8098744" lon="12.0788082"><ele>437.0</ele><time>2026-04-30T15:56:51.98Z</time></trkpt><trkpt lat="42.8100545" lon="12.0785478"><ele>437.0</ele><time>2026-04-30T15:56:52.98Z</time></trkpt><trkpt lat="42.8102265" lon="12.078294"><ele>437.0</ele><time>2026-04-30T15:56:53.98Z</time></trkpt><trkpt lat="42.8103889" lon="12.0780613"><ele>437.0</ele><time>2026-04-30T15:56:54.98Z</time></trkpt><trkpt lat="42.8105485" lon="12.0778628"><ele>437.0</ele><time>2026-04-30T15:56:55.98Z</time></trkpt><trkpt lat="42.8107134" lon="12.0777166"><ele>437.0</ele><time>2026-04-30T15:56:56.98Z</time></trkpt><trkpt lat="42.8108903" lon="12.0776309"><ele>437.0</ele><time>2026-04-30T15:56:57.98Z</time></trkpt><trkpt lat="42.8110714" lon="12.0776253"><ele>436.66666666666663</ele><time>2026-04-30T15:56:58.98Z</time></trkpt><trkpt lat="42.8112749" lon="12.0777121"><ele>436.33333333333337</ele><time>2026-04-30T15:56:59.98Z</time></trkpt><trkpt lat="42.8114903" lon="12.0778417"><ele>436.0</ele><time>2026-04-30T15:57:00.98Z</time></trkpt><trkpt lat="42.8117308" lon="12.0779926"><ele>435.5</ele><time>2026-04-30T15:57:01.98Z</time></trkpt><trkpt lat="42.811989" lon="12.0781525"><ele>435.0</ele><time>2026-04-30T15:57:02.981Z</time></trkpt><trkpt lat="42.8122641" lon="12.0783163"><ele>437.5</ele><time>2026-04-30T15:57:03.98Z</time></trkpt><trkpt lat="42.8125562" lon="12.0784907"><ele>440.0</ele><time>2026-04-30T15:57:04.981Z</time></trkpt><trkpt lat="42.8128647" lon="12.0786673"><ele>440.0</ele><time>2026-04-30T15:57:05.98Z</time></trkpt><trkpt lat="42.8131845" lon="12.0788488"><ele>440.0</ele><time>2026-04-30T15:57:06.98Z</time></trkpt><trkpt lat="42.8135018" lon="12.0790262"><ele>443.0</ele><time>2026-04-30T15:57:07.981Z</time></trkpt><trkpt lat="42.8137949" lon="12.0791921"><ele>446.0</ele><time>2026-04-30T15:57:08.98Z</time></trkpt><trkpt lat="42.8140643" lon="12.0793451"><ele>446.0</ele><time>2026-04-30T15:57:09.98Z</time></trkpt><trkpt lat="42.8143213" lon="12.0794907"><ele>446.0</ele><time>2026-04-30T15:57:10.98Z</time></trkpt><trkpt lat="42.8145869" lon="12.0796184"><ele>445.5</ele><time>2026-04-30T15:57:11.98Z</time></trkpt><trkpt lat="42.814869" lon="12.0797112"><ele>445.0</ele><time>2026-04-30T15:57:12.98Z</time></trkpt><trkpt lat="42.8151593" lon="12.0797522"><ele>448.0</ele><time>2026-04-30T15:57:13.98Z</time></trkpt><trkpt lat="42.8154439" lon="12.0797341"><ele>451.0</ele><time>2026-04-30T15:57:14.981Z</time></trkpt><trkpt lat="42.8157013" lon="12.0796742"><ele>451.0</ele><time>2026-04-30T15:57:15.98Z</time></trkpt><trkpt lat="42.8159261" lon="12.0796072"><ele>451.0</ele><time>2026-04-30T15:57:16.98Z</time></trkpt><trkpt lat="42.8161139" lon="12.079506"><ele>451.0</ele><time>2026-04-30T15:57:17.98Z</time></trkpt><trkpt lat="42.8162552" lon="12.0793384"><ele>454.33333333333337</ele><time>2026-04-30T15:57:18.981Z</time></trkpt><trkpt lat="42.8163459" lon="12.0791066"><ele>457.66666666666663</ele><time>2026-04-30T15:57:19.98Z</time></trkpt><trkpt lat="42.8163929" lon="12.0788612"><ele>461.0</ele><time>2026-04-30T15:57:20.981Z</time></trkpt><trkpt lat="42.8164365" lon="12.078621"><ele>461.0</ele><time>2026-04-30T15:57:21.98Z</time></trkpt><trkpt lat="42.8165096" lon="12.0784292"><ele>461.0</ele><time>2026-04-30T15:57:22.98Z</time></trkpt><trkpt lat="42.8166276" lon="12.0783317"><ele>461.0</ele><time>2026-04-30T15:57:23.98Z</time></trkpt><trkpt lat="42.8167729" lon="12.0783433"><ele>461.0</ele><time>2026-04-30T15:57:24.98Z</time></trkpt><trkpt lat="42.8169241" lon="12.0784505"><ele>461.0</ele><time>2026-04-30T15:57:25.981Z</time></trkpt><trkpt lat="42.8170602" lon="12.0786303"><ele>461.0</ele><time>2026-04-30T15:57:26.981Z</time></trkpt><trkpt lat="42.8171773" lon="12.0788559"><ele>461.0</ele><time>2026-04-30T15:57:27.98Z</time></trkpt><trkpt lat="42.8172947" lon="12.079127"><ele>465.5</ele><time>2026-04-30T15:57:28.98Z</time></trkpt><trkpt lat="42.8174163" lon="12.0794092"><ele>470.0</ele><time>2026-04-30T15:57:29.98Z</time></trkpt><trkpt lat="42.8175583" lon="12.0796775"><ele>471.66666666666663</ele><time>2026-04-30T15:57:30.98Z</time></trkpt><trkpt lat="42.8177235" lon="12.0798793"><ele>473.33333333333337</ele><time>2026-04-30T15:57:31.98Z</time></trkpt><trkpt lat="42.8179207" lon="12.0800045"><ele>475.0</ele><time>2026-04-30T15:57:32.981Z</time></trkpt><trkpt lat="42.8181391" lon="12.0800916"><ele>475.0</ele><time>2026-04-30T15:57:33.98Z</time></trkpt><trkpt lat="42.8183687" lon="12.0802202"><ele>475.0</ele><time>2026-04-30T15:57:34.98Z</time></trkpt><trkpt lat="42.8185852" lon="12.080381"><ele>473.0</ele><time>2026-04-30T15:57:35.98Z</time></trkpt><trkpt lat="42.8188084" lon="12.0805591"><ele>471.0</ele><time>2026-04-30T15:57:36.98Z</time></trkpt><trkpt lat="42.8190518" lon="12.0806957"><ele>475.5</ele><time>2026-04-30T15:57:37.98Z</time></trkpt><trkpt lat="42.8193301" lon="12.0807759"><ele>480.0</ele><time>2026-04-30T15:57:38.98Z</time></trkpt><trkpt lat="42.8196212" lon="12.080849"><ele>480.0</ele><time>2026-04-30T15:57:39.98Z</time></trkpt><trkpt lat="42.8199069" lon="12.080939"><ele>480.0</ele><time>2026-04-30T15:57:40.98Z</time></trkpt><trkpt lat="42.8201854" lon="12.0810261"><ele>481.5</ele><time>2026-04-30T15:57:41.98Z</time></trkpt><trkpt lat="42.8204531" lon="12.0810874"><ele>483.0</ele><time>2026-04-30T15:57:42.98Z</time></trkpt><trkpt lat="42.8207079" lon="12.0811189"><ele>483.0</ele><time>2026-04-30T15:57:43.981Z</time></trkpt><trkpt lat="42.8209323" lon="12.0811467"><ele>483.0</ele><time>2026-04-30T15:57:44.98Z</time></trkpt><trkpt lat="42.8211202" lon="12.0812085"><ele>483.0</ele><time>2026-04-30T15:57:45.98Z</time></trkpt><trkpt lat="42.8212789" lon="12.0813141"><ele>487.0</ele><time>2026-04-30T15:57:46.98Z</time></trkpt><trkpt lat="42.8213964" lon="12.0814551"><ele>491.0</ele><time>2026-04-30T15:57:47.98Z</time></trkpt><trkpt lat="42.8214758" lon="12.0816594"><ele>495.0</ele><time>2026-04-30T15:57:48.981Z</time></trkpt><trkpt lat="42.8215389" lon="12.0819122"><ele>496.66666666666663</ele><time>2026-04-30T15:57:49.981Z</time></trkpt><trkpt lat="42.8216143" lon="12.0821802"><ele>498.3333333333333</ele><time>2026-04-30T15:57:50.98Z</time></trkpt><trkpt lat="42.8216963" lon="12.0824501"><ele>500.0</ele><time>2026-04-30T15:57:51.98Z</time></trkpt><trkpt lat="42.8217607" lon="12.0827384"><ele>506.0</ele><time>2026-04-30T15:57:52.981Z</time></trkpt><trkpt lat="42.8218405" lon="12.0830042"><ele>512.0</ele><time>2026-04-30T15:57:53.98Z</time></trkpt><trkpt lat="42.8219488" lon="12.0832124"><ele>518.0</ele><time>2026-04-30T15:57:54.98Z</time></trkpt><trkpt lat="42.8220531" lon="12.0834045"><ele>518.0</ele><time>2026-04-30T15:57:55.981Z</time></trkpt><trkpt lat="42.8221334" lon="12.083619"><ele>518.0</ele><time>2026-04-30T15:57:56.98Z</time></trkpt><trkpt lat="42.8221696" lon="12.0838224"><ele>518.0</ele><time>2026-04-30T15:57:57.981Z</time></trkpt><trkpt lat="42.8222064" lon="12.0839794"><ele>518.0</ele><time>2026-04-30T15:57:58.98Z</time></trkpt><trkpt lat="42.8222752" lon="12.0840754"><ele>518.0</ele><time>2026-04-30T15:57:59.98Z</time></trkpt><trkpt lat="42.8223807" lon="12.0841055"><ele>518.0</ele><time>2026-04-30T15:58:00.98Z</time></trkpt><trkpt lat="42.8225176" lon="12.0840801"><ele>518.0</ele><time>2026-04-30T15:58:01.981Z</time></trkpt><trkpt lat="42.8226927" lon="12.0840144"><ele>522.6666666666666</ele><time>2026-04-30T15:58:02.981Z</time></trkpt><trkpt lat="42.822898" lon="12.0839448"><ele>527.3333333333334</ele><time>2026-04-30T15:58:03.98Z</time></trkpt><trkpt lat="42.8231205" lon="12.0838893"><ele>532.0</ele><time>2026-04-30T15:58:04.98Z</time></trkpt><trkpt lat="42.8233509" lon="12.0838597"><ele>532.5</ele><time>2026-04-30T15:58:05.98Z</time></trkpt><trkpt lat="42.8236048" lon="12.0838382"><ele>533.0</ele><time>2026-04-30T15:58:06.98Z</time></trkpt><trkpt lat="42.823866" lon="12.0838144"><ele>533.0</ele><time>2026-04-30T15:58:07.98Z</time></trkpt><trkpt lat="42.8241316" lon="12.0837522"><ele>533.0</ele><time>2026-04-30T15:58:08.98Z</time></trkpt><trkpt lat="42.8243863" lon="12.0836605"><ele>535.5</ele><time>2026-04-30T15:58:09.98Z</time></trkpt><trkpt lat="42.8246305" lon="12.0835741"><ele>538.0</ele><time>2026-04-30T15:58:10.98Z</time></trkpt><trkpt lat="42.8248578" lon="12.0835133"><ele>538.0</ele><time>2026-04-30T15:58:11.98Z</time></trkpt><trkpt lat="42.8250602" lon="12.0834982"><ele>538.0</ele><time>2026-04-30T15:58:12.98Z</time></trkpt><trkpt lat="42.8252433" lon="12.0835314"><ele>538.0</ele><time>2026-04-30T15:58:13.98Z</time></trkpt><trkpt lat="42.8254033" lon="12.0836197"><ele>538.5</ele><time>2026-04-30T15:58:14.98Z</time></trkpt><trkpt lat="42.8255097" lon="12.0837487"><ele>539.0</ele><time>2026-04-30T15:58:15.98Z</time></trkpt><trkpt lat="42.8255672" lon="12.0839185"><ele>539.5</ele><time>2026-04-30T15:58:16.98Z</time></trkpt><trkpt lat="42.8255985" lon="12.084091"><ele>540.0</ele><time>2026-04-30T15:58:17.981Z</time></trkpt><trkpt lat="42.8256416" lon="12.0842327"><ele>540.0</ele><time>2026-04-30T15:58:18.98Z</time></trkpt><trkpt lat="42.8257148" lon="12.0843033"><ele>540.0</ele><time>2026-04-30T15:58:19.981Z</time></trkpt><trkpt lat="42.8258126" lon="12.0842871"><ele>540.0</ele><time>2026-04-30T15:58:20.98Z</time></trkpt><trkpt lat="42.825915" lon="12.0841713"><ele>540.0</ele><time>2026-04-30T15:58:21.98Z</time></trkpt><trkpt lat="42.8260079" lon="12.0839851"><ele>540.6666666666666</ele><time>2026-04-30T15:58:22.98Z</time></trkpt><trkpt lat="42.8260936" lon="12.0837457"><ele>541.3333333333333</ele><time>2026-04-30T15:58:23.981Z</time></trkpt><trkpt lat="42.8261895" lon="12.083492"><ele>542.0</ele><time>2026-04-30T15:58:24.98Z</time></trkpt><trkpt lat="42.8263082" lon="12.0832956"><ele>541.0</ele><time>2026-04-30T15:58:25.981Z</time></trkpt><trkpt lat="42.8264509" lon="12.0831625"><ele>540.0</ele><time>2026-04-30T15:58:26.98Z</time></trkpt><trkpt lat="42.8266224" lon="12.0830801"><ele>539.0</ele><time>2026-04-30T15:58:27.98Z</time></trkpt><trkpt lat="42.8268066" lon="12.0830368"><ele>537.3333333333333</ele><time>2026-04-30T15:58:28.98Z</time></trkpt><trkpt lat="42.8269883" lon="12.0829841"><ele>535.6666666666666</ele><time>2026-04-30T15:58:29.98Z</time></trkpt><trkpt lat="42.8271451" lon="12.0828866"><ele>534.0</ele><time>2026-04-30T15:58:30.981Z</time></trkpt><trkpt lat="42.827261" lon="12.0827157"><ele>534.0</ele><time>2026-04-30T15:58:31.981Z</time></trkpt><trkpt lat="42.8273119" lon="12.082467"><ele>534.0</ele><time>2026-04-30T15:58:32.98Z</time></trkpt><trkpt lat="42.8273126" lon="12.0821779"><ele>534.0</ele><time>2026-04-30T15:58:33.98Z</time></trkpt><trkpt lat="42.8272946" lon="12.0818539"><ele>533.5</ele><time>2026-04-30T15:58:34.98Z</time></trkpt><trkpt lat="42.8272748" lon="12.081503"><ele>533.0</ele><time>2026-04-30T15:58:35.98Z</time></trkpt><trkpt lat="42.827255" lon="12.0811634"><ele>533.0</ele><time>2026-04-30T15:58:36.98Z</time></trkpt><trkpt lat="42.8272299" lon="12.0808481"><ele>533.0</ele><time>2026-04-30T15:58:37.98Z</time></trkpt><trkpt lat="42.827184" lon="12.0805624"><ele>533.0</ele><time>2026-04-30T15:58:38.98Z</time></trkpt><trkpt lat="42.8270829" lon="12.0803099"><ele>534.6666666666666</ele><time>2026-04-30T15:58:39.98Z</time></trkpt><trkpt lat="42.8269421" lon="12.0800877"><ele>536.3333333333334</ele><time>2026-04-30T15:58:40.98Z</time></trkpt><trkpt lat="42.8267711" lon="12.0799174"><ele>538.0</ele><time>2026-04-30T15:58:41.98Z</time></trkpt><trkpt lat="42.8265779" lon="12.0797828"><ele>538.0</ele><time>2026-04-30T15:58:42.98Z</time></trkpt><trkpt lat="42.8263893" lon="12.0796406"><ele>538.0</ele><time>2026-04-30T15:58:43.98Z</time></trkpt><trkpt lat="42.8262185" lon="12.0794558"><ele>538.0</ele><time>2026-04-30T15:58:44.98Z</time></trkpt><trkpt lat="42.8260604" lon="12.0792374"><ele>535.3333333333334</ele><time>2026-04-30T15:58:45.98Z</time></trkpt><trkpt lat="42.8259146" lon="12.0790024"><ele>532.6666666666666</ele><time>2026-04-30T15:58:46.981Z</time></trkpt><trkpt lat="42.8257822" lon="12.0787751"><ele>530.0</ele><time>2026-04-30T15:58:47.981Z</time></trkpt><trkpt lat="42.8256633" lon="12.0785572"><ele>530.0</ele><time>2026-04-30T15:58:48.98Z</time></trkpt><trkpt lat="42.8255856" lon="12.078334"><ele>530.0</ele><time>2026-04-30T15:58:49.98Z</time></trkpt><trkpt lat="42.8255692" lon="12.0780949"><ele>530.0</ele><time>2026-04-30T15:58:50.981Z</time></trkpt><trkpt lat="42.825604" lon="12.0778478"><ele>530.6666666666666</ele><time>2026-04-30T15:58:51.981Z</time></trkpt><trkpt lat="42.8256573" lon="12.0775729"><ele>531.3333333333334</ele><time>2026-04-30T15:58:52.98Z</time></trkpt><trkpt lat="42.8256688" lon="12.0772811"><ele>532.0</ele><time>2026-04-30T15:58:53.981Z</time></trkpt><trkpt lat="42.8256346" lon="12.0769805"><ele>532.0</ele><time>2026-04-30T15:58:54.981Z</time></trkpt><trkpt lat="42.8255889" lon="12.0766657"><ele>532.0</ele><time>2026-04-30T15:58:55.98Z</time></trkpt><trkpt lat="42.8255376" lon="12.0763408"><ele>531.5</ele><time>2026-04-30T15:58:56.98Z</time></trkpt><trkpt lat="42.8254936" lon="12.0760199"><ele>531.0</ele><time>2026-04-30T15:58:57.98Z</time></trkpt><trkpt lat="42.8254653" lon="12.0757115"><ele>529.0</ele><time>2026-04-30T15:58:58.98Z</time></trkpt><trkpt lat="42.8254746" lon="12.0753961"><ele>527.0</ele><time>2026-04-30T15:58:59.98Z</time></trkpt><trkpt lat="42.8255" lon="12.0751016"><ele>525.0</ele><time>2026-04-30T15:59:00.98Z</time></trkpt><trkpt lat="42.825531" lon="12.0748477"><ele>520.0</ele><time>2026-04-30T15:59:01.98Z</time></trkpt><trkpt lat="42.8255981" lon="12.0746409"><ele>515.0</ele><time>2026-04-30T15:59:02.98Z</time></trkpt><trkpt lat="42.8257126" lon="12.074479"><ele>510.0</ele><time>2026-04-30T15:59:03.981Z</time></trkpt><trkpt lat="42.8258774" lon="12.0743594"><ele>512.3333333333334</ele><time>2026-04-30T15:59:04.981Z</time></trkpt><trkpt lat="42.8260792" lon="12.0742624"><ele>514.6666666666667</ele><time>2026-04-30T15:59:05.98Z</time></trkpt><trkpt lat="42.8262969" lon="12.0741597"><ele>517.0</ele><time>2026-04-30T15:59:06.98Z</time></trkpt><trkpt lat="42.8265092" lon="12.0740175"><ele>513.6666666666667</ele><time>2026-04-30T15:59:07.98Z</time></trkpt><trkpt lat="42.8266842" lon="12.0738224"><ele>510.33333333333337</ele><time>2026-04-30T15:59:08.98Z</time></trkpt><trkpt lat="42.8268258" lon="12.0735897"><ele>507.0</ele><time>2026-04-30T15:59:09.98Z</time></trkpt><trkpt lat="42.8269479" lon="12.073375"><ele>503.0</ele><time>2026-04-30T15:59:10.98Z</time></trkpt><trkpt lat="42.8271018" lon="12.0732277"><ele>499.0</ele><time>2026-04-30T15:59:11.981Z</time></trkpt><trkpt lat="42.8273043" lon="12.0731591"><ele>495.0</ele><time>2026-04-30T15:59:12.98Z</time></trkpt><trkpt lat="42.8275361" lon="12.0731286"><ele>495.5</ele><time>2026-04-30T15:59:13.98Z</time></trkpt><trkpt lat="42.8277746" lon="12.073064"><ele>496.0</ele><time>2026-04-30T15:59:14.98Z</time></trkpt><trkpt lat="42.8279837" lon="12.0729191"><ele>496.0</ele><time>2026-04-30T15:59:15.98Z</time></trkpt><trkpt lat="42.8281556" lon="12.0727053"><ele>496.0</ele><time>2026-04-30T15:59:16.98Z</time></trkpt><trkpt lat="42.8282964" lon="12.0724528"><ele>495.6666666666667</ele><time>2026-04-30T15:59:17.98Z</time></trkpt><trkpt lat="42.8284176" lon="12.0722132"><ele>495.33333333333337</ele><time>2026-04-30T15:59:18.98Z</time></trkpt><trkpt lat="42.8285596" lon="12.0720255"><ele>495.0</ele><time>2026-04-30T15:59:19.98Z</time></trkpt><trkpt lat="42.8286997" lon="12.0718828"><ele>495.0</ele><time>2026-04-30T15:59:20.981Z</time></trkpt><trkpt lat="42.828798" lon="12.0717433"><ele>495.0</ele><time>2026-04-30T15:59:21.98Z</time></trkpt><trkpt lat="42.8288497" lon="12.0715984"><ele>495.0</ele><time>2026-04-30T15:59:22.98Z</time></trkpt><trkpt lat="42.8288226" lon="12.0714532"><ele>495.0</ele><time>2026-04-30T15:59:23.981Z</time></trkpt><trkpt lat="42.8287234" lon="12.0713142"><ele>494.0</ele><time>2026-04-30T15:59:24.981Z</time></trkpt><trkpt lat="42.828589" lon="12.0711825"><ele>493.0</ele><time>2026-04-30T15:59:25.98Z</time></trkpt><trkpt lat="42.828448" lon="12.07102"><ele>492.0</ele><time>2026-04-30T15:59:26.98Z</time></trkpt><trkpt lat="42.8283281" lon="12.0708089"><ele>487.0</ele><time>2026-04-30T15:59:27.98Z</time></trkpt><trkpt lat="42.8282464" lon="12.0705573"><ele>482.0</ele><time>2026-04-30T15:59:28.98Z</time></trkpt><trkpt lat="42.8281922" lon="12.0702721"><ele>477.0</ele><time>2026-04-30T15:59:29.98Z</time></trkpt><trkpt lat="42.8281822" lon="12.0699628"><ele>476.0</ele><time>2026-04-30T15:59:30.98Z</time></trkpt><trkpt lat="42.8281749" lon="12.0696483"><ele>475.0</ele><time>2026-04-30T15:59:31.98Z</time></trkpt><trkpt lat="42.8281491" lon="12.0693638"><ele>474.0</ele><time>2026-04-30T15:59:32.98Z</time></trkpt><trkpt lat="42.8280887" lon="12.0691208"><ele>471.0</ele><time>2026-04-30T15:59:33.981Z</time></trkpt><trkpt lat="42.8280026" lon="12.0689087"><ele>468.0</ele><time>2026-04-30T15:59:34.981Z</time></trkpt><trkpt lat="42.827941" lon="12.0687245"><ele>465.0</ele><time>2026-04-30T15:59:35.98Z</time></trkpt><trkpt lat="42.8279338" lon="12.068548"><ele>465.0</ele><time>2026-04-30T15:59:36.98Z</time></trkpt><trkpt lat="42.8280024" lon="12.0684219"><ele>465.0</ele><time>2026-04-30T15:59:37.981Z</time></trkpt><trkpt lat="42.8281286" lon="12.0683421"><ele>465.0</ele><time>2026-04-30T15:59:38.98Z</time></trkpt><trkpt lat="42.8282907" lon="12.0683083"><ele>465.0</ele><time>2026-04-30T15:59:39.98Z</time></trkpt><trkpt lat="42.8284646" lon="12.0683082"><ele>462.33333333333337</ele><time>2026-04-30T15:59:40.98Z</time></trkpt><trkpt lat="42.8286388" lon="12.0683888"><ele>459.6666666666667</ele><time>2026-04-30T15:59:41.981Z</time></trkpt><trkpt lat="42.8287936" lon="12.0685102"><ele>457.0</ele><time>2026-04-30T15:59:42.98Z</time></trkpt><trkpt lat="42.8289491" lon="12.0686458"><ele>457.0</ele><time>2026-04-30T15:59:43.98Z</time></trkpt><trkpt lat="42.8291223" lon="12.068736"><ele>457.0</ele><time>2026-04-30T15:59:44.981Z</time></trkpt><trkpt lat="42.8292972" lon="12.0687563"><ele>457.0</ele><time>2026-04-30T15:59:45.98Z</time></trkpt><trkpt lat="42.8294761" lon="12.0686996"><ele>457.33333333333337</ele><time>2026-04-30T15:59:46.98Z</time></trkpt><trkpt lat="42.8296463" lon="12.0686006"><ele>457.66666666666663</ele><time>2026-04-30T15:59:47.981Z</time></trkpt><trkpt lat="42.8298083" lon="12.0684771"><ele>458.0</ele><time>2026-04-30T15:59:48.98Z</time></trkpt><trkpt lat="42.8299724" lon="12.0683387"><ele>456.66666666666663</ele><time>2026-04-30T15:59:49.981Z</time></trkpt><trkpt lat="42.8301357" lon="12.0681864"><ele>455.33333333333337</ele><time>2026-04-30T15:59:50.98Z</time></trkpt><trkpt lat="42.8303052" lon="12.0680393"><ele>454.0</ele><time>2026-04-30T15:59:51.98Z</time></trkpt><trkpt lat="42.8304823" lon="12.0678994"><ele>454.0</ele><time>2026-04-30T15:59:52.98Z</time></trkpt><trkpt lat="42.8306592" lon="12.0677733"><ele>454.0</ele><time>2026-04-30T15:59:53.981Z</time></trkpt><trkpt lat="42.8308247" lon="12.067649"><ele>454.0</ele><time>2026-04-30T15:59:54.981Z</time></trkpt><trkpt lat="42.8309834" lon="12.0675128"><ele>451.6666666666667</ele><time>2026-04-30T15:59:55.98Z</time></trkpt><trkpt lat="42.8311365" lon="12.0673779"><ele>449.33333333333337</ele><time>2026-04-30T15:59:56.98Z</time></trkpt><trkpt lat="42.8312882" lon="12.0672536"><ele>447.0</ele><time>2026-04-30T15:59:57.98Z</time></trkpt><trkpt lat="42.8314383" lon="12.0671351"><ele>447.0</ele><time>2026-04-30T15:59:58.98Z</time></trkpt><trkpt lat="42.8315875" lon="12.0670128"><ele>447.0</ele><time>2026-04-30T15:59:59.98Z</time></trkpt><trkpt lat="42.8317336" lon="12.0668988"><ele>447.0</ele><time>2026-04-30T16:00:00.98Z</time></trkpt><trkpt lat="42.831877" lon="12.0667858"><ele>445.75</ele><time>2026-04-30T16:00:01.98Z</time></trkpt><trkpt lat="42.8320111" lon="12.0666914"><ele>444.5</ele><time>2026-04-30T16:00:02.98Z</time></trkpt><trkpt lat="42.8321407" lon="12.0666342"><ele>443.25</ele><time>2026-04-30T16:00:03.981Z</time></trkpt><trkpt lat="42.8322738" lon="12.0666099"><ele>442.0</ele><time>2026-04-30T16:00:04.98Z</time></trkpt><trkpt lat="42.8324125" lon="12.0665907"><ele>439.25</ele><time>2026-04-30T16:00:05.98Z</time></trkpt><trkpt lat="42.8325563" lon="12.0665688"><ele>436.5</ele><time>2026-04-30T16:00:06.98Z</time></trkpt><trkpt lat="42.8327021" lon="12.0665429"><ele>433.75</ele><time>2026-04-30T16:00:07.98Z</time></trkpt><trkpt lat="42.8328503" lon="12.0665131"><ele>431.0</ele><time>2026-04-30T16:00:08.98Z</time></trkpt><trkpt lat="42.8330077" lon="12.0664939"><ele>431.0</ele><time>2026-04-30T16:00:09.98Z</time></trkpt><trkpt lat="42.8331579" lon="12.066449"><ele>431.0</ele><time>2026-04-30T16:00:10.98Z</time></trkpt><trkpt lat="42.8333127" lon="12.0664157"><ele>431.0</ele><time>2026-04-30T16:00:11.98Z</time></trkpt><trkpt lat="42.8334688" lon="12.0663864"><ele>429.0</ele><time>2026-04-30T16:00:12.98Z</time></trkpt><trkpt lat="42.833616" lon="12.066355"><ele>427.0</ele><time>2026-04-30T16:00:13.98Z</time></trkpt><trkpt lat="42.8337606" lon="12.0663159"><ele>425.0</ele><time>2026-04-30T16:00:14.98Z</time></trkpt><trkpt lat="42.8338967" lon="12.0662957"><ele>423.0</ele><time>2026-04-30T16:00:15.98Z</time></trkpt><trkpt lat="42.8340267" lon="12.066299"><ele>423.0</ele><time>2026-04-30T16:00:16.98Z</time></trkpt><trkpt lat="42.8341571" lon="12.0663052"><ele>423.0</ele><time>2026-04-30T16:00:17.981Z</time></trkpt><trkpt lat="42.8342859" lon="12.0662914"><ele>423.0</ele><time>2026-04-30T16:00:18.981Z</time></trkpt><trkpt lat="42.8344084" lon="12.06624"><ele>423.0</ele><time>2026-04-30T16:00:19.98Z</time></trkpt><trkpt lat="42.8345154" lon="12.0661415"><ele>424.75</ele><time>2026-04-30T16:00:20.981Z</time></trkpt><trkpt lat="42.8346022" lon="12.0659912"><ele>426.5</ele><time>2026-04-30T16:00:21.98Z</time></trkpt><trkpt lat="42.8346654" lon="12.0658191"><ele>428.25</ele><time>2026-04-30T16:00:22.98Z</time></trkpt><trkpt lat="42.8347291" lon="12.0656477"><ele>430.0</ele><time>2026-04-30T16:00:23.98Z</time></trkpt><trkpt lat="42.8348166" lon="12.0655366"><ele>423.33333333333337</ele><time>2026-04-30T16:00:24.98Z</time></trkpt><trkpt lat="42.8349345" lon="12.0654927"><ele>416.66666666666663</ele><time>2026-04-30T16:00:25.98Z</time></trkpt><trkpt lat="42.835089" lon="12.0654921"><ele>410.0</ele><time>2026-04-30T16:00:26.981Z</time></trkpt><trkpt lat="42.8352674" lon="12.0654962"><ele>410.0</ele><time>2026-04-30T16:00:27.981Z</time></trkpt><trkpt lat="42.8354621" lon="12.0655002"><ele>410.0</ele><time>2026-04-30T16:00:28.98Z</time></trkpt><trkpt lat="42.8356549" lon="12.0655003"><ele>410.0</ele><time>2026-04-30T16:00:29.98Z</time></trkpt><trkpt lat="42.8358393" lon="12.0655023"><ele>411.0</ele><time>2026-04-30T16:00:30.98Z</time></trkpt><trkpt lat="42.8360074" lon="12.065504"><ele>412.0</ele><time>2026-04-30T16:00:31.98Z</time></trkpt><trkpt lat="42.8361639" lon="12.0655011"><ele>413.0</ele><time>2026-04-30T16:00:32.981Z</time></trkpt><trkpt lat="42.8363125" lon="12.0655036"><ele>413.0</ele><time>2026-04-30T16:00:33.98Z</time></trkpt><trkpt lat="42.8364644" lon="12.0655125"><ele>413.0</ele><time>2026-04-30T16:00:34.98Z</time></trkpt><trkpt lat="42.8366157" lon="12.0655446"><ele>413.0</ele><time>2026-04-30T16:00:35.98Z</time></trkpt><trkpt lat="42.8367605" lon="12.0655823"><ele>413.0</ele><time>2026-04-30T16:00:36.98Z</time></trkpt><trkpt lat="42.8369052" lon="12.0656126"><ele>413.0</ele><time>2026-04-30T16:00:37.981Z</time></trkpt><trkpt lat="42.8370498" lon="12.0656359"><ele>413.0</ele><time>2026-04-30T16:00:38.98Z</time></trkpt><trkpt lat="42.8371927" lon="12.0656565"><ele>413.0</ele><time>2026-04-30T16:00:39.98Z</time></trkpt><trkpt lat="42.8373126" lon="12.0656757"><ele>413.0</ele><time>2026-04-30T16:00:40.98Z</time></trkpt><trkpt lat="42.8374088" lon="12.065668"><ele>413.0</ele><time>2026-04-30T16:00:41.98Z</time></trkpt><trkpt lat="42.8375027" lon="12.0656536"><ele>413.0</ele><time>2026-04-30T16:00:42.98Z</time></trkpt><trkpt lat="42.8375957" lon="12.0656439"><ele>413.0</ele><time>2026-04-30T16:00:43.98Z</time></trkpt><trkpt lat="42.8376852" lon="12.0656432"><ele>413.0</ele><time>2026-04-30T16:00:44.981Z</time></trkpt><trkpt lat="42.8377726" lon="12.0656426"><ele>413.2</ele><time>2026-04-30T16:00:45.98Z</time></trkpt><trkpt lat="42.8378555" lon="12.0656539"><ele>413.4</ele><time>2026-04-30T16:00:46.98Z</time></trkpt><trkpt lat="42.8379389" lon="12.065656"><ele>413.59999999999997</ele><time>2026-04-30T16:00:47.981Z</time></trkpt><trkpt lat="42.8380322" lon="12.0656681"><ele>413.79999999999995</ele><time>2026-04-30T16:00:48.981Z</time></trkpt><trkpt lat="42.8381407" lon="12.0656868"><ele>414.0</ele><time>2026-04-30T16:00:49.98Z</time></trkpt><trkpt lat="42.8382525" lon="12.0657293"><ele>414.75</ele><time>2026-04-30T16:00:50.98Z</time></trkpt><trkpt lat="42.8383606" lon="12.0657952"><ele>415.5</ele><time>2026-04-30T16:00:51.98Z</time></trkpt><trkpt lat="42.8384665" lon="12.0658885"><ele>416.25</ele><time>2026-04-30T16:00:52.98Z</time></trkpt><trkpt lat="42.8385729" lon="12.0660009"><ele>417.0</ele><time>2026-04-30T16:00:53.98Z</time></trkpt><trkpt lat="42.8386706" lon="12.0661497"><ele>419.5</ele><time>2026-04-30T16:00:54.98Z</time></trkpt><trkpt lat="42.8387635" lon="12.0663086"><ele>422.0</ele><time>2026-04-30T16:00:55.981Z</time></trkpt><trkpt lat="42.8388606" lon="12.0664548"><ele>424.5</ele><time>2026-04-30T16:00:56.98Z</time></trkpt><trkpt lat="42.8389661" lon="12.0665554"><ele>427.0</ele><time>2026-04-30T16:00:57.981Z</time></trkpt><trkpt lat="42.8390733" lon="12.0665915"><ele>427.0</ele><time>2026-04-30T16:00:58.981Z</time></trkpt><trkpt lat="42.839178" lon="12.0665839"><ele>427.0</ele><time>2026-04-30T16:00:59.98Z</time></trkpt><trkpt lat="42.8392668" lon="12.0665124"><ele>427.0</ele><time>2026-04-30T16:01:00.98Z</time></trkpt><trkpt lat="42.8393385" lon="12.0663827"><ele>427.0</ele><time>2026-04-30T16:01:01.98Z</time></trkpt><trkpt lat="42.8393797" lon="12.0662013"><ele>429.0</ele><time>2026-04-30T16:01:02.98Z</time></trkpt><trkpt lat="42.8393965" lon="12.0659853"><ele>431.0</ele><time>2026-04-30T16:01:03.98Z</time></trkpt><trkpt lat="42.8393781" lon="12.0657752"><ele>433.0</ele><time>2026-04-30T16:01:04.981Z</time></trkpt><trkpt lat="42.8393308" lon="12.0655627"><ele>433.0</ele><time>2026-04-30T16:01:05.98Z</time></trkpt><trkpt lat="42.8392926" lon="12.0653554"><ele>433.0</ele><time>2026-04-30T16:01:06.98Z</time></trkpt><trkpt lat="42.8393105" lon="12.0651807"><ele>433.0</ele><time>2026-04-30T16:01:07.98Z</time></trkpt><trkpt lat="42.8393883" lon="12.0650458"><ele>433.0</ele><time>2026-04-30T16:01:08.98Z</time></trkpt><trkpt lat="42.8395048" lon="12.0649499"><ele>433.0</ele><time>2026-04-30T16:01:09.98Z</time></trkpt><trkpt lat="42.8396394" lon="12.064907"><ele>433.0</ele><time>2026-04-30T16:01:10.981Z</time></trkpt><trkpt lat="42.8397811" lon="12.0649429"><ele>433.0</ele><time>2026-04-30T16:01:11.98Z</time></trkpt><trkpt lat="42.8399078" lon="12.0650464"><ele>433.0</ele><time>2026-04-30T16:01:12.981Z</time></trkpt><trkpt lat="42.8400229" lon="12.0651696"><ele>433.6666666666667</ele><time>2026-04-30T16:01:13.98Z</time></trkpt><trkpt lat="42.8401431" lon="12.0653177"><ele>434.33333333333337</ele><time>2026-04-30T16:01:14.98Z</time></trkpt><trkpt lat="42.8402665" lon="12.0654724"><ele>435.0</ele><time>2026-04-30T16:01:15.98Z</time></trkpt><trkpt lat="42.8403999" lon="12.0656216"><ele>435.0</ele><time>2026-04-30T16:01:16.98Z</time></trkpt><trkpt lat="42.8405331" lon="12.065738"><ele>435.0</ele><time>2026-04-30T16:01:17.98Z</time></trkpt><trkpt lat="42.840676" lon="12.0658149"><ele>435.0</ele><time>2026-04-30T16:01:18.98Z</time></trkpt><trkpt lat="42.840822" lon="12.0658477"><ele>434.0</ele><time>2026-04-30T16:01:19.98Z</time></trkpt><trkpt lat="42.8409722" lon="12.0658484"><ele>433.0</ele><time>2026-04-30T16:01:20.981Z</time></trkpt><trkpt lat="42.841121" lon="12.06582"><ele>432.0</ele><time>2026-04-30T16:01:21.98Z</time></trkpt><trkpt lat="42.8412744" lon="12.0657641"><ele>434.0</ele><time>2026-04-30T16:01:22.98Z</time></trkpt><trkpt lat="42.841434" lon="12.0657083"><ele>436.0</ele><time>2026-04-30T16:01:23.98Z</time></trkpt><trkpt lat="42.8416" lon="12.0656638"><ele>438.0</ele><time>2026-04-30T16:01:24.98Z</time></trkpt><trkpt lat="42.8417697" lon="12.0656265"><ele>438.0</ele><time>2026-04-30T16:01:25.98Z</time></trkpt><trkpt lat="42.8419338" lon="12.0655719"><ele>438.0</ele><time>2026-04-30T16:01:26.981Z</time></trkpt><trkpt lat="42.842093" lon="12.0654884"><ele>438.0</ele><time>2026-04-30T16:01:27.981Z</time></trkpt><trkpt lat="42.8422439" lon="12.0654005"><ele>438.0</ele><time>2026-04-30T16:01:28.981Z</time></trkpt><trkpt lat="42.8423875" lon="12.0653087"><ele>438.0</ele><time>2026-04-30T16:01:29.98Z</time></trkpt><trkpt lat="42.8425297" lon="12.0652186"><ele>438.0</ele><time>2026-04-30T16:01:30.98Z</time></trkpt><trkpt lat="42.842682" lon="12.0651424"><ele>438.0</ele><time>2026-04-30T16:01:31.98Z</time></trkpt><trkpt lat="42.8428325" lon="12.0650862"><ele>438.0</ele><time>2026-04-30T16:01:32.98Z</time></trkpt><trkpt lat="42.8429764" lon="12.065029"><ele>438.0</ele><time>2026-04-30T16:01:33.98Z</time></trkpt><trkpt lat="42.8431148" lon="12.0649785"><ele>438.0</ele><time>2026-04-30T16:01:34.98Z</time></trkpt><trkpt lat="42.8432607" lon="12.0649499"><ele>437.0</ele><time>2026-04-30T16:01:35.981Z</time></trkpt><trkpt lat="42.8434135" lon="12.0649276"><ele>436.0</ele><time>2026-04-30T16:01:36.981Z</time></trkpt><trkpt lat="42.8435618" lon="12.0649219"><ele>435.0</ele><time>2026-04-30T16:01:37.98Z</time></trkpt><trkpt lat="42.8437078" lon="12.0649346"><ele>434.0</ele><time>2026-04-30T16:01:38.98Z</time></trkpt><trkpt lat="42.8438599" lon="12.0649562"><ele>437.0</ele><time>2026-04-30T16:01:39.981Z</time></trkpt><trkpt lat="42.8440198" lon="12.0649786"><ele>440.0</ele><time>2026-04-30T16:01:40.98Z</time></trkpt><trkpt lat="42.8442044" lon="12.0649918"><ele>443.0</ele><time>2026-04-30T16:01:41.98Z</time></trkpt><trkpt lat="42.8444124" lon="12.0649774"><ele>443.66666666666663</ele><time>2026-04-30T16:01:42.98Z</time></trkpt><trkpt lat="42.8446318" lon="12.0649547"><ele>444.33333333333337</ele><time>2026-04-30T16:01:43.98Z</time></trkpt><trkpt lat="42.8448505" lon="12.0649414"><ele>445.0</ele><time>2026-04-30T16:01:44.98Z</time></trkpt><trkpt lat="42.8450724" lon="12.0649455"><ele>448.6666666666667</ele><time>2026-04-30T16:01:45.981Z</time></trkpt><trkpt lat="42.8452982" lon="12.0649656"><ele>452.33333333333337</ele><time>2026-04-30T16:01:46.98Z</time></trkpt><trkpt lat="42.8455166" lon="12.0650054"><ele>456.0</ele><time>2026-04-30T16:01:47.98Z</time></trkpt><trkpt lat="42.8457229" lon="12.0650714"><ele>456.0</ele><time>2026-04-30T16:01:48.98Z</time></trkpt><trkpt lat="42.8459252" lon="12.0651595"><ele>456.0</ele><time>2026-04-30T16:01:49.981Z</time></trkpt><trkpt lat="42.8461082" lon="12.0652685"><ele>456.0</ele><time>2026-04-30T16:01:50.981Z</time></trkpt><trkpt lat="42.8462817" lon="12.065405"><ele>457.0</ele><time>2026-04-30T16:01:51.981Z</time></trkpt><trkpt lat="42.8464547" lon="12.0655519"><ele>458.0</ele><time>2026-04-30T16:01:52.98Z</time></trkpt><trkpt lat="42.8466282" lon="12.0657207"><ele>459.0</ele><time>2026-04-30T16:01:53.981Z</time></trkpt><trkpt lat="42.8467867" lon="12.0659193"><ele>460.0</ele><time>2026-04-30T16:01:54.98Z</time></trkpt><trkpt lat="42.8469328" lon="12.0661385"><ele>461.0</ele><time>2026-04-30T16:01:55.981Z</time></trkpt><trkpt lat="42.8470633" lon="12.0663622"><ele>462.0</ele><time>2026-04-30T16:01:56.98Z</time></trkpt><trkpt lat="42.84718" lon="12.0665974"><ele>462.0</ele><time>2026-04-30T16:01:57.98Z</time></trkpt><trkpt lat="42.8472874" lon="12.066844"><ele>462.0</ele><time>2026-04-30T16:01:58.981Z</time></trkpt><trkpt lat="42.8473901" lon="12.0670707"><ele>462.0</ele><time>2026-04-30T16:01:59.98Z</time></trkpt><trkpt lat="42.8475092" lon="12.0672737"><ele>464.0</ele><time>2026-04-30T16:02:00.981Z</time></trkpt><trkpt lat="42.8476492" lon="12.0674612"><ele>466.0</ele><time>2026-04-30T16:02:01.981Z</time></trkpt><trkpt lat="42.8478076" lon="12.0676166"><ele>468.0</ele><time>2026-04-30T16:02:02.98Z</time></trkpt><trkpt lat="42.8479851" lon="12.0677521"><ele>468.0</ele><time>2026-04-30T16:02:03.98Z</time></trkpt><trkpt lat="42.8481674" lon="12.0678362"><ele>468.0</ele><time>2026-04-30T16:02:04.98Z</time></trkpt><trkpt lat="42.8483395" lon="12.0678899"><ele>468.0</ele><time>2026-04-30T16:02:05.98Z</time></trkpt><trkpt lat="42.848504" lon="12.067926"><ele>468.5</ele><time>2026-04-30T16:02:06.98Z</time></trkpt><trkpt lat="42.8486601" lon="12.067957"><ele>469.0</ele><time>2026-04-30T16:02:07.98Z</time></trkpt><trkpt lat="42.8488088" lon="12.0679897"><ele>469.5</ele><time>2026-04-30T16:02:08.981Z</time></trkpt><trkpt lat="42.848946" lon="12.0680073"><ele>470.0</ele><time>2026-04-30T16:02:09.981Z</time></trkpt><trkpt lat="42.849078" lon="12.0679968"><ele>470.0</ele><time>2026-04-30T16:02:10.98Z</time></trkpt><trkpt lat="42.8492089" lon="12.067961"><ele>470.0</ele><time>2026-04-30T16:02:11.981Z</time></trkpt><trkpt lat="42.8493387" lon="12.0679147"><ele>470.0</ele><time>2026-04-30T16:02:12.98Z</time></trkpt><trkpt lat="42.8494735" lon="12.0678812"><ele>470.0</ele><time>2026-04-30T16:02:13.98Z</time></trkpt><trkpt lat="42.849615" lon="12.0678796"><ele>468.75</ele><time>2026-04-30T16:02:14.98Z</time></trkpt><trkpt lat="42.8497549" lon="12.067894"><ele>467.5</ele><time>2026-04-30T16:02:15.98Z</time></trkpt><trkpt lat="42.8498955" lon="12.0679255"><ele>466.25</ele><time>2026-04-30T16:02:16.98Z</time></trkpt><trkpt lat="42.8500383" lon="12.0679604"><ele>465.0</ele><time>2026-04-30T16:02:17.981Z</time></trkpt><trkpt lat="42.850179" lon="12.0679864"><ele>463.0</ele><time>2026-04-30T16:02:18.98Z</time></trkpt><trkpt lat="42.8503206" lon="12.0680169"><ele>461.0</ele><time>2026-04-30T16:02:19.981Z</time></trkpt><trkpt lat="42.8504631" lon="12.0680445"><ele>459.0</ele><time>2026-04-30T16:02:20.98Z</time></trkpt><trkpt lat="42.850606" lon="12.0680631"><ele>457.0</ele><time>2026-04-30T16:02:21.981Z</time></trkpt><trkpt lat="42.8507479" lon="12.0680417"><ele>457.0</ele><time>2026-04-30T16:02:22.981Z</time></trkpt><trkpt lat="42.8508829" lon="12.0679811"><ele>457.0</ele><time>2026-04-30T16:02:23.98Z</time></trkpt><trkpt lat="42.8510057" lon="12.0678828"><ele>457.0</ele><time>2026-04-30T16:02:24.98Z</time></trkpt><trkpt lat="42.8511098" lon="12.067749"><ele>457.0</ele><time>2026-04-30T16:02:25.98Z</time></trkpt><trkpt lat="42.8512001" lon="12.067593"><ele>457.5</ele><time>2026-04-30T16:02:26.98Z</time></trkpt><trkpt lat="42.8513098" lon="12.0674603"><ele>458.0</ele><time>2026-04-30T16:02:27.98Z</time></trkpt><trkpt lat="42.8514426" lon="12.0673754"><ele>458.5</ele><time>2026-04-30T16:02:28.98Z</time></trkpt><trkpt lat="42.8515823" lon="12.0673361"><ele>459.0</ele><time>2026-04-30T16:02:29.98Z</time></trkpt><trkpt lat="42.8517169" lon="12.0673285"><ele>458.0</ele><time>2026-04-30T16:02:30.981Z</time></trkpt><trkpt lat="42.8518466" lon="12.0673332"><ele>457.0</ele><time>2026-04-30T16:02:31.98Z</time></trkpt><trkpt lat="42.8519762" lon="12.0673346"><ele>456.0</ele><time>2026-04-30T16:02:32.98Z</time></trkpt><trkpt lat="42.8521052" lon="12.067315"><ele>455.0</ele><time>2026-04-30T16:02:33.981Z</time></trkpt><trkpt lat="42.8522289" lon="12.0672623"><ele>455.0</ele><time>2026-04-30T16:02:34.981Z</time></trkpt><trkpt lat="42.8523302" lon="12.0671568"><ele>455.0</ele><time>2026-04-30T16:02:35.98Z</time></trkpt><trkpt lat="42.8523904" lon="12.0670007"><ele>455.0</ele><time>2026-04-30T16:02:36.981Z</time></trkpt><trkpt lat="42.8524182" lon="12.0668208"><ele>455.0</ele><time>2026-04-30T16:02:37.98Z</time></trkpt><trkpt lat="42.8524139" lon="12.0666391"><ele>453.75</ele><time>2026-04-30T16:02:38.98Z</time></trkpt><trkpt lat="42.852388" lon="12.0664622"><ele>452.5</ele><time>2026-04-30T16:02:39.98Z</time></trkpt><trkpt lat="42.8523587" lon="12.0662905"><ele>451.25</ele><time>2026-04-30T16:02:40.98Z</time></trkpt><trkpt lat="42.8523263" lon="12.0661276"><ele>450.0</ele><time>2026-04-30T16:02:41.98Z</time></trkpt><trkpt lat="42.8523025" lon="12.0659732"><ele>450.0</ele><time>2026-04-30T16:02:42.981Z</time></trkpt><trkpt lat="42.8522877" lon="12.0658163"><ele>450.0</ele><time>2026-04-30T16:02:43.98Z</time></trkpt><trkpt lat="42.8522917" lon="12.0656457"><ele>450.0</ele><time>2026-04-30T16:02:44.981Z</time></trkpt><trkpt lat="42.8523062" lon="12.0654694"><ele>450.0</ele><time>2026-04-30T16:02:45.981Z</time></trkpt><trkpt lat="42.8523352" lon="12.0652878"><ele>449.0</ele><time>2026-04-30T16:02:46.981Z</time></trkpt><trkpt lat="42.8523895" lon="12.0650988"><ele>448.0</ele><time>2026-04-30T16:02:47.98Z</time></trkpt><trkpt lat="42.8524638" lon="12.0649168"><ele>447.0</ele><time>2026-04-30T16:02:48.98Z</time></trkpt><trkpt lat="42.8525711" lon="12.0647598"><ele>445.33333333333337</ele><time>2026-04-30T16:02:49.981Z</time></trkpt><trkpt lat="42.852701" lon="12.0646441"><ele>443.6666666666667</ele><time>2026-04-30T16:02:50.98Z</time></trkpt><trkpt lat="42.8528528" lon="12.06455"><ele>442.0</ele><time>2026-04-30T16:02:51.98Z</time></trkpt><trkpt lat="42.8530402" lon="12.0644916"><ele>442.0</ele><time>2026-04-30T16:02:52.98Z</time></trkpt><trkpt lat="42.8532648" lon="12.0644635"><ele>442.0</ele><time>2026-04-30T16:02:53.981Z</time></trkpt><trkpt lat="42.8535073" lon="12.0644704"><ele>438.5</ele><time>2026-04-30T16:02:54.981Z</time></trkpt><trkpt lat="42.8537459" lon="12.0644659"><ele>435.0</ele><time>2026-04-30T16:02:55.98Z</time></trkpt><trkpt lat="42.8539619" lon="12.0644194"><ele>435.0</ele><time>2026-04-30T16:02:56.98Z</time></trkpt><trkpt lat="42.8541574" lon="12.0643169"><ele>435.0</ele><time>2026-04-30T16:02:57.98Z</time></trkpt><trkpt lat="42.8543241" lon="12.0641427"><ele>435.0</ele><time>2026-04-30T16:02:58.98Z</time></trkpt><trkpt lat="42.8544662" lon="12.0639055"><ele>435.0</ele><time>2026-04-30T16:02:59.98Z</time></trkpt><trkpt lat="42.8545679" lon="12.0636439"><ele>435.0</ele><time>2026-04-30T16:03:00.98Z</time></trkpt><trkpt lat="42.8546402" lon="12.0634041"><ele>435.0</ele><time>2026-04-30T16:03:01.98Z</time></trkpt><trkpt lat="42.8546717" lon="12.0631965"><ele>436.25</ele><time>2026-04-30T16:03:02.98Z</time></trkpt><trkpt lat="42.8546583" lon="12.0629963"><ele>437.5</ele><time>2026-04-30T16:03:03.98Z</time></trkpt><trkpt lat="42.8545895" lon="12.0628193"><ele>438.75</ele><time>2026-04-30T16:03:04.98Z</time></trkpt><trkpt lat="42.8544798" lon="12.062687"><ele>440.0</ele><time>2026-04-30T16:03:05.981Z</time></trkpt><trkpt lat="42.8543139" lon="12.0625866"><ele>440.3333333333333</ele><time>2026-04-30T16:03:06.981Z</time></trkpt><trkpt lat="42.8541243" lon="12.062482"><ele>440.66666666666663</ele><time>2026-04-30T16:03:07.98Z</time></trkpt><trkpt lat="42.8539314" lon="12.062347"><ele>441.0</ele><time>2026-04-30T16:03:08.981Z</time></trkpt><trkpt lat="42.8537376" lon="12.0621746"><ele>441.0</ele><time>2026-04-30T16:03:09.98Z</time></trkpt><trkpt lat="42.8535485" lon="12.0619664"><ele>441.0</ele><time>2026-04-30T16:03:10.98Z</time></trkpt><trkpt lat="42.8533672" lon="12.0617294"><ele>428.5</ele><time>2026-04-30T16:03:11.98Z</time></trkpt><trkpt lat="42.8532221" lon="12.0614812"><ele>416.0</ele><time>2026-04-30T16:03:12.98Z</time></trkpt><trkpt lat="42.8531143" lon="12.0612224"><ele>416.0</ele><time>2026-04-30T16:03:13.98Z</time></trkpt><trkpt lat="42.8530544" lon="12.0609712"><ele>416.0</ele><time>2026-04-30T16:03:14.981Z</time></trkpt><trkpt lat="42.8530545" lon="12.060738"><ele>416.0</ele><time>2026-04-30T16:03:15.981Z</time></trkpt><trkpt lat="42.8531191" lon="12.060525"><ele>415.3333333333333</ele><time>2026-04-30T16:03:16.98Z</time></trkpt><trkpt lat="42.8532339" lon="12.0603516"><ele>414.66666666666663</ele><time>2026-04-30T16:03:17.98Z</time></trkpt><trkpt lat="42.8533968" lon="12.0602198"><ele>414.0</ele><time>2026-04-30T16:03:18.98Z</time></trkpt><trkpt lat="42.8535841" lon="12.0601318"><ele>414.0</ele><time>2026-04-30T16:03:19.98Z</time></trkpt><trkpt lat="42.8537691" lon="12.0600883"><ele>414.0</ele><time>2026-04-30T16:03:20.98Z</time></trkpt><trkpt lat="42.8539326" lon="12.0600285"><ele>414.0</ele><time>2026-04-30T16:03:21.981Z</time></trkpt><trkpt lat="42.8540507" lon="12.0598869"><ele>410.33333333333337</ele><time>2026-04-30T16:03:22.98Z</time></trkpt><trkpt lat="42.8541025" lon="12.0596959"><ele>406.6666666666667</ele><time>2026-04-30T16:03:23.98Z</time></trkpt><trkpt lat="42.8540905" lon="12.0594625"><ele>403.0</ele><time>2026-04-30T16:03:24.98Z</time></trkpt><trkpt lat="42.8540387" lon="12.0591925"><ele>399.6666666666667</ele><time>2026-04-30T16:03:25.98Z</time></trkpt><trkpt lat="42.8539697" lon="12.0589009"><ele>396.33333333333337</ele><time>2026-04-30T16:03:26.98Z</time></trkpt><trkpt lat="42.8539162" lon="12.0586103"><ele>393.0</ele><time>2026-04-30T16:03:27.98Z</time></trkpt><trkpt lat="42.8539033" lon="12.0583398"><ele>388.6666666666667</ele><time>2026-04-30T16:03:28.98Z</time></trkpt><trkpt lat="42.8539323" lon="12.058095"><ele>384.33333333333337</ele><time>2026-04-30T16:03:29.98Z</time></trkpt><trkpt lat="42.8540084" lon="12.057888"><ele>380.0</ele><time>2026-04-30T16:03:30.98Z</time></trkpt><trkpt lat="42.8541368" lon="12.0577397"><ele>380.0</ele><time>2026-04-30T16:03:31.98Z</time></trkpt><trkpt lat="42.8543007" lon="12.057667"><ele>380.0</ele><time>2026-04-30T16:03:32.98Z</time></trkpt><trkpt lat="42.8544732" lon="12.0576942"><ele>380.0</ele><time>2026-04-30T16:03:33.98Z</time></trkpt><trkpt lat="42.8546581" lon="12.057767"><ele>380.0</ele><time>2026-04-30T16:03:34.98Z</time></trkpt><trkpt lat="42.8548629" lon="12.0578184"><ele>380.0</ele><time>2026-04-30T16:03:35.98Z</time></trkpt><trkpt lat="42.8550749" lon="12.0578053"><ele>380.0</ele><time>2026-04-30T16:03:36.981Z</time></trkpt><trkpt lat="42.8553006" lon="12.0577624"><ele>379.33333333333337</ele><time>2026-04-30T16:03:37.98Z</time></trkpt><trkpt lat="42.8555205" lon="12.0577131"><ele>378.6666666666667</ele><time>2026-04-30T16:03:38.98Z</time></trkpt><trkpt lat="42.8557213" lon="12.0576545"><ele>378.0</ele><time>2026-04-30T16:03:39.981Z</time></trkpt><trkpt lat="42.8558944" lon="12.0575684"><ele>371.6666666666667</ele><time>2026-04-30T16:03:40.981Z</time></trkpt><trkpt lat="42.8560169" lon="12.0574234"><ele>365.33333333333337</ele><time>2026-04-30T16:03:41.98Z</time></trkpt><trkpt lat="42.8560775" lon="12.0572238"><ele>359.0</ele><time>2026-04-30T16:03:42.98Z</time></trkpt><trkpt lat="42.8560685" lon="12.0570032"><ele>359.0</ele><time>2026-04-30T16:03:43.98Z</time></trkpt><trkpt lat="42.8559796" lon="12.0567876"><ele>359.0</ele><time>2026-04-30T16:03:44.98Z</time></trkpt><trkpt lat="42.855828" lon="12.0566184"><ele>359.0</ele><time>2026-04-30T16:03:45.98Z</time></trkpt><trkpt lat="42.8556308" lon="12.0565071"><ele>362.5</ele><time>2026-04-30T16:03:46.98Z</time></trkpt><trkpt lat="42.8554066" lon="12.0564223"><ele>366.0</ele><time>2026-04-30T16:03:47.981Z</time></trkpt><trkpt lat="42.8551813" lon="12.0563001"><ele>367.5</ele><time>2026-04-30T16:03:48.981Z</time></trkpt><trkpt lat="42.8549681" lon="12.0561442"><ele>369.0</ele><time>2026-04-30T16:03:49.98Z</time></trkpt><trkpt lat="42.8547834" lon="12.0559587"><ele>369.3333333333333</ele><time>2026-04-30T16:03:50.98Z</time></trkpt><trkpt lat="42.8546237" lon="12.0557402"><ele>369.66666666666663</ele><time>2026-04-30T16:03:51.98Z</time></trkpt><trkpt lat="42.8544936" lon="12.0555154"><ele>370.0</ele><time>2026-04-30T16:03:52.98Z</time></trkpt><trkpt lat="42.8544206" lon="12.0552855"><ele>370.0</ele><time>2026-04-30T16:03:53.98Z</time></trkpt><trkpt lat="42.854418" lon="12.0550494"><ele>370.0</ele><time>2026-04-30T16:03:54.98Z</time></trkpt><trkpt lat="42.8544858" lon="12.0548284"><ele>370.0</ele><time>2026-04-30T16:03:55.98Z</time></trkpt><trkpt lat="42.8545756" lon="12.0546064"><ele>368.66666666666663</ele><time>2026-04-30T16:03:56.98Z</time></trkpt><trkpt lat="42.8546281" lon="12.0543733"><ele>367.3333333333333</ele><time>2026-04-30T16:03:57.98Z</time></trkpt><trkpt lat="42.854614" lon="12.0541255"><ele>366.0</ele><time>2026-04-30T16:03:58.98Z</time></trkpt><trkpt lat="42.8545323" lon="12.0538916"><ele>364.6666666666667</ele><time>2026-04-30T16:03:59.98Z</time></trkpt><trkpt lat="42.8543908" lon="12.0536936"><ele>363.33333333333337</ele><time>2026-04-30T16:04:00.98Z</time></trkpt><trkpt lat="42.8542502" lon="12.0535276"><ele>362.0</ele><time>2026-04-30T16:04:01.98Z</time></trkpt><trkpt lat="42.8541485" lon="12.0533583"><ele>359.75</ele><time>2026-04-30T16:04:02.981Z</time></trkpt><trkpt lat="42.8541107" lon="12.0531908"><ele>357.5</ele><time>2026-04-30T16:04:03.98Z</time></trkpt><trkpt lat="42.8541478" lon="12.0530363"><ele>355.25</ele><time>2026-04-30T16:04:04.98Z</time></trkpt><trkpt lat="42.8542466" lon="12.0529315"><ele>353.0</ele><time>2026-04-30T16:04:05.98Z</time></trkpt><trkpt lat="42.8543976" lon="12.0528847"><ele>352.33333333333337</ele><time>2026-04-30T16:04:06.98Z</time></trkpt><trkpt lat="42.8545763" lon="12.0528539"><ele>351.6666666666667</ele><time>2026-04-30T16:04:07.98Z</time></trkpt><trkpt lat="42.8547746" lon="12.0527959"><ele>351.0</ele><time>2026-04-30T16:04:08.98Z</time></trkpt><trkpt lat="42.8549743" lon="12.0527111"><ele>348.6666666666667</ele><time>2026-04-30T16:04:09.981Z</time></trkpt><trkpt lat="42.8551604" lon="12.0525988"><ele>346.33333333333337</ele><time>2026-04-30T16:04:10.98Z</time></trkpt><trkpt lat="42.8553193" lon="12.0524869"><ele>344.0</ele><time>2026-04-30T16:04:11.98Z</time></trkpt><trkpt lat="42.8554483" lon="12.052422"><ele>344.0</ele><time>2026-04-30T16:04:12.98Z</time></trkpt><trkpt lat="42.855561" lon="12.0524524"><ele>344.0</ele><time>2026-04-30T16:04:13.98Z</time></trkpt><trkpt lat="42.8556294" lon="12.0525798"><ele>344.0</ele><time>2026-04-30T16:04:14.981Z</time></trkpt><trkpt lat="42.8556409" lon="12.0527675"><ele>344.0</ele><time>2026-04-30T16:04:15.98Z</time></trkpt><trkpt lat="42.8556123" lon="12.0529784"><ele>344.0</ele><time>2026-04-30T16:04:16.98Z</time></trkpt><trkpt lat="42.8555877" lon="12.053195"><ele>344.0</ele><time>2026-04-30T16:04:17.98Z</time></trkpt><trkpt lat="42.8556118" lon="12.0533803"><ele>344.0</ele><time>2026-04-30T16:04:18.98Z</time></trkpt><trkpt lat="42.8556906" lon="12.0535159"><ele>344.0</ele><time>2026-04-30T16:04:19.98Z</time></trkpt><trkpt lat="42.8558045" lon="12.0535895"><ele>344.0</ele><time>2026-04-30T16:04:20.98Z</time></trkpt><trkpt lat="42.8559348" lon="12.053596"><ele>344.0</ele><time>2026-04-30T16:04:21.98Z</time></trkpt><trkpt lat="42.8561018" lon="12.0535074"><ele>344.0</ele><time>2026-04-30T16:04:22.981Z</time></trkpt><trkpt lat="42.8563037" lon="12.0533507"><ele>333.0</ele><time>2026-04-30T16:04:23.98Z</time></trkpt><trkpt lat="42.856537" lon="12.0532408"><ele>322.0</ele><time>2026-04-30T16:04:24.981Z</time></trkpt><trkpt lat="42.8567925" lon="12.0531908"><ele>321.0</ele><time>2026-04-30T16:04:25.98Z</time></trkpt><trkpt lat="42.8570465" lon="12.0531506"><ele>320.0</ele><time>2026-04-30T16:04:26.98Z</time></trkpt><trkpt lat="42.857278" lon="12.053075"><ele>320.0</ele><time>2026-04-30T16:04:27.98Z</time></trkpt><trkpt lat="42.8574836" lon="12.0529313"><ele>320.0</ele><time>2026-04-30T16:04:28.98Z</time></trkpt><trkpt lat="42.8576657" lon="12.0527127"><ele>321.0</ele><time>2026-04-30T16:04:29.98Z</time></trkpt><trkpt lat="42.8578559" lon="12.0524892"><ele>322.0</ele><time>2026-04-30T16:04:30.98Z</time></trkpt><trkpt lat="42.8580617" lon="12.0523089"><ele>317.5</ele><time>2026-04-30T16:04:31.981Z</time></trkpt><trkpt lat="42.8582824" lon="12.0521807"><ele>313.0</ele><time>2026-04-30T16:04:32.98Z</time></trkpt><trkpt lat="42.8585144" lon="12.0521177"><ele>313.0</ele><time>2026-04-30T16:04:33.98Z</time></trkpt><trkpt lat="42.8587406" lon="12.0520942"><ele>313.0</ele><time>2026-04-30T16:04:34.98Z</time></trkpt><trkpt lat="42.8589532" lon="12.0520577"><ele>313.0</ele><time>2026-04-30T16:04:35.981Z</time></trkpt><trkpt lat="42.8591576" lon="12.0519759"><ele>311.0</ele><time>2026-04-30T16:04:36.98Z</time></trkpt><trkpt lat="42.8593528" lon="12.0518865"><ele>309.0</ele><time>2026-04-30T16:04:37.98Z</time></trkpt><trkpt lat="42.8595211" lon="12.0518017"><ele>307.0</ele><time>2026-04-30T16:04:38.98Z</time></trkpt><trkpt lat="42.8596451" lon="12.0517324"><ele>307.0</ele><time>2026-04-30T16:04:39.98Z</time></trkpt><trkpt lat="42.8597178" lon="12.0516343"><ele>307.0</ele><time>2026-04-30T16:04:40.98Z</time></trkpt><trkpt lat="42.8597274" lon="12.0515114"><ele>307.0</ele><time>2026-04-30T16:04:41.98Z</time></trkpt><trkpt lat="42.8596739" lon="12.0514046"><ele>307.0</ele><time>2026-04-30T16:04:42.98Z</time></trkpt><trkpt lat="42.8595649" lon="12.0513374"><ele>307.0</ele><time>2026-04-30T16:04:43.981Z</time></trkpt><trkpt lat="42.8594139" lon="12.0513225"><ele>304.3333333333333</ele><time>2026-04-30T16:04:44.981Z</time></trkpt><trkpt lat="42.8592361" lon="12.0513201"><ele>301.6666666666667</ele><time>2026-04-30T16:04:45.98Z</time></trkpt><trkpt lat="42.8590445" lon="12.0512917"><ele>299.0</ele><time>2026-04-30T16:04:46.98Z</time></trkpt><trkpt lat="42.8588526" lon="12.0512101"><ele>299.0</ele><time>2026-04-30T16:04:47.98Z</time></trkpt><trkpt lat="42.8586731" lon="12.0510995"><ele>299.0</ele><time>2026-04-30T16:04:48.98Z</time></trkpt><trkpt lat="42.858506" lon="12.0509883"><ele>299.0</ele><time>2026-04-30T16:04:49.98Z</time></trkpt><trkpt lat="42.8583417" lon="12.0509261"><ele>298.75</ele><time>2026-04-30T16:04:50.98Z</time></trkpt><trkpt lat="42.8582048" lon="12.0509565"><ele>298.5</ele><time>2026-04-30T16:04:51.98Z</time></trkpt><trkpt lat="42.858097" lon="12.0510778"><ele>298.25</ele><time>2026-04-30T16:04:52.98Z</time></trkpt><trkpt lat="42.8580124" lon="12.0512623"><ele>298.0</ele><time>2026-04-30T16:04:53.98Z</time></trkpt><trkpt lat="42.85793" lon="12.0514342"><ele>298.0</ele><time>2026-04-30T16:04:54.98Z</time></trkpt><trkpt lat="42.8578278" lon="12.0515452"><ele>298.0</ele><time>2026-04-30T16:04:55.98Z</time></trkpt><trkpt lat="42.8577154" lon="12.0515863"><ele>298.0</ele><time>2026-04-30T16:04:56.98Z</time></trkpt><trkpt lat="42.8576286" lon="12.051554"><ele>298.0</ele><time>2026-04-30T16:04:57.981Z</time></trkpt><trkpt lat="42.8575945" lon="12.0514581"><ele>298.0</ele><time>2026-04-30T16:04:58.98Z</time></trkpt><trkpt lat="42.8576103" lon="12.0513315"><ele>298.0</ele><time>2026-04-30T16:04:59.981Z</time></trkpt><trkpt lat="42.8576637" lon="12.0512075"><ele>298.0</ele><time>2026-04-30T16:05:00.98Z</time></trkpt><trkpt lat="42.8577489" lon="12.0510879"><ele>298.0</ele><time>2026-04-30T16:05:01.98Z</time></trkpt><trkpt lat="42.8578528" lon="12.050969"><ele>298.0</ele><time>2026-04-30T16:05:02.981Z</time></trkpt><trkpt lat="42.8579605" lon="12.0508498"><ele>293.75</ele><time>2026-04-30T16:05:03.981Z</time></trkpt><trkpt lat="42.8580677" lon="12.0507276"><ele>289.5</ele><time>2026-04-30T16:05:04.98Z</time></trkpt><trkpt lat="42.8581795" lon="12.0506187"><ele>285.25</ele><time>2026-04-30T16:05:05.98Z</time></trkpt><trkpt lat="42.8583029" lon="12.05052"><ele>281.0</ele><time>2026-04-30T16:05:06.98Z</time></trkpt><trkpt lat="42.8584473" lon="12.0504547"><ele>281.33333333333337</ele><time>2026-04-30T16:05:07.98Z</time></trkpt><trkpt lat="42.8585882" lon="12.0504044"><ele>281.6666666666667</ele><time>2026-04-30T16:05:08.98Z</time></trkpt><trkpt lat="42.8587366" lon="12.0503678"><ele>282.0</ele><time>2026-04-30T16:05:09.98Z</time></trkpt><trkpt lat="42.8588871" lon="12.0503236"><ele>282.0</ele><time>2026-04-30T16:05:10.981Z</time></trkpt><trkpt lat="42.8590343" lon="12.0502754"><ele>282.0</ele><time>2026-04-30T16:05:11.98Z</time></trkpt><trkpt lat="42.8591757" lon="12.0502254"><ele>282.0</ele><time>2026-04-30T16:05:12.981Z</time></trkpt><trkpt lat="42.8593127" lon="12.0501963"><ele>282.0</ele><time>2026-04-30T16:05:13.98Z</time></trkpt><trkpt lat="42.8594539" lon="12.0501818"><ele>281.5</ele><time>2026-04-30T16:05:14.98Z</time></trkpt><trkpt lat="42.8595934" lon="12.0501836"><ele>281.0</ele><time>2026-04-30T16:05:15.981Z</time></trkpt><trkpt lat="42.8597299" lon="12.0501819"><ele>280.5</ele><time>2026-04-30T16:05:16.98Z</time></trkpt><trkpt lat="42.8598702" lon="12.0501756"><ele>280.0</ele><time>2026-04-30T16:05:17.981Z</time></trkpt><trkpt lat="42.860009" lon="12.0501317"><ele>279.0</ele><time>2026-04-30T16:05:18.98Z</time></trkpt><trkpt lat="42.860141" lon="12.0500508"><ele>278.0</ele><time>2026-04-30T16:05:19.98Z</time></trkpt><trkpt lat="42.8602731" lon="12.0499476"><ele>277.0</ele><time>2026-04-30T16:05:20.98Z</time></trkpt><trkpt lat="42.8604105" lon="12.0498496"><ele>271.0</ele><time>2026-04-30T16:05:21.98Z</time></trkpt><trkpt lat="42.8605516" lon="12.0497808"><ele>265.0</ele><time>2026-04-30T16:05:22.98Z</time></trkpt><trkpt lat="42.8607075" lon="12.0497459"><ele>259.0</ele><time>2026-04-30T16:05:23.98Z</time></trkpt><trkpt lat="42.8608604" lon="12.0497865"><ele>260.0</ele><time>2026-04-30T16:05:24.981Z</time></trkpt><trkpt lat="42.8610003" lon="12.0498715"><ele>261.0</ele><time>2026-04-30T16:05:25.98Z</time></trkpt><trkpt lat="42.8611334" lon="12.0499617"><ele>262.0</ele><time>2026-04-30T16:05:26.98Z</time></trkpt><trkpt lat="42.8612866" lon="12.0500482"><ele>262.0</ele><time>2026-04-30T16:05:27.98Z</time></trkpt><trkpt lat="42.8614522" lon="12.0501023"><ele>262.0</ele><time>2026-04-30T16:05:28.981Z</time></trkpt><trkpt lat="42.8616132" lon="12.0501421"><ele>262.0</ele><time>2026-04-30T16:05:29.98Z</time></trkpt><trkpt lat="42.8617661" lon="12.050194"><ele>258.3333333333333</ele><time>2026-04-30T16:05:30.981Z</time></trkpt><trkpt lat="42.8619115" lon="12.0502587"><ele>254.66666666666669</ele><time>2026-04-30T16:05:31.98Z</time></trkpt><trkpt lat="42.8620596" lon="12.0503289"><ele>251.0</ele><time>2026-04-30T16:05:32.98Z</time></trkpt><trkpt lat="42.8622088" lon="12.0503963"><ele>251.0</ele><time>2026-04-30T16:05:33.98Z</time></trkpt><trkpt lat="42.8623559" lon="12.0504611"><ele>251.0</ele><time>2026-04-30T16:05:34.98Z</time></trkpt><trkpt lat="42.8624998" lon="12.0505152"><ele>251.0</ele><time>2026-04-30T16:05:35.981Z</time></trkpt><trkpt lat="42.8626254" lon="12.0505697"><ele>251.0</ele><time>2026-04-30T16:05:36.981Z</time></trkpt><trkpt lat="42.862745" lon="12.0506692"><ele>249.33333333333334</ele><time>2026-04-30T16:05:37.981Z</time></trkpt><trkpt lat="42.8628292" lon="12.0508255"><ele>247.66666666666669</ele><time>2026-04-30T16:05:38.981Z</time></trkpt><trkpt lat="42.8628712" lon="12.0510278"><ele>246.0</ele><time>2026-04-30T16:05:39.981Z</time></trkpt><trkpt lat="42.8629062" lon="12.0512582"><ele>246.0</ele><time>2026-04-30T16:05:40.98Z</time></trkpt><trkpt lat="42.8629518" lon="12.0514711"><ele>246.0</ele><time>2026-04-30T16:05:41.98Z</time></trkpt><trkpt lat="42.8630238" lon="12.0516493"><ele>246.0</ele><time>2026-04-30T16:05:42.98Z</time></trkpt><trkpt lat="42.8631427" lon="12.0517574"><ele>247.33333333333331</ele><time>2026-04-30T16:05:43.981Z</time></trkpt><trkpt lat="42.8632847" lon="12.0517987"><ele>248.66666666666666</ele><time>2026-04-30T16:05:44.981Z</time></trkpt><trkpt lat="42.8634398" lon="12.0517656"><ele>250.0</ele><time>2026-04-30T16:05:45.98Z</time></trkpt><trkpt lat="42.8636016" lon="12.0516754"><ele>248.66666666666666</ele><time>2026-04-30T16:05:46.98Z</time></trkpt><trkpt lat="42.86377" lon="12.0515579"><ele>247.33333333333331</ele><time>2026-04-30T16:05:47.98Z</time></trkpt><trkpt lat="42.8639336" lon="12.0514088"><ele>246.0</ele><time>2026-04-30T16:05:48.98Z</time></trkpt><trkpt lat="42.8640787" lon="12.0512217"><ele>246.0</ele><time>2026-04-30T16:05:49.98Z</time></trkpt><trkpt lat="42.8642088" lon="12.0510255"><ele>246.0</ele><time>2026-04-30T16:05:50.98Z</time></trkpt><trkpt lat="42.864338" lon="12.050825"><ele>246.0</ele><time>2026-04-30T16:05:51.98Z</time></trkpt><trkpt lat="42.8644677" lon="12.0506201"><ele>244.33333333333331</ele><time>2026-04-30T16:05:52.98Z</time></trkpt><trkpt lat="42.8646039" lon="12.0504113"><ele>242.66666666666666</ele><time>2026-04-30T16:05:53.98Z</time></trkpt><trkpt lat="42.8647394" lon="12.0502155"><ele>241.0</ele><time>2026-04-30T16:05:54.98Z</time></trkpt><trkpt lat="42.8648728" lon="12.0500429"><ele>240.66666666666666</ele><time>2026-04-30T16:05:55.98Z</time></trkpt><trkpt lat="42.865002" lon="12.0498734"><ele>240.33333333333331</ele><time>2026-04-30T16:05:56.981Z</time></trkpt><trkpt lat="42.8651341" lon="12.0497142"><ele>240.0</ele><time>2026-04-30T16:05:57.98Z</time></trkpt><trkpt lat="42.8652702" lon="12.0495636"><ele>239.0</ele><time>2026-04-30T16:05:58.98Z</time></trkpt><trkpt lat="42.8654076" lon="12.049419"><ele>238.0</ele><time>2026-04-30T16:05:59.98Z</time></trkpt><trkpt lat="42.8655477" lon="12.0492783"><ele>237.0</ele><time>2026-04-30T16:06:00.98Z</time></trkpt><trkpt lat="42.8656909" lon="12.0491355"><ele>236.66666666666669</ele><time>2026-04-30T16:06:01.98Z</time></trkpt><trkpt lat="42.8658338" lon="12.0489928"><ele>236.33333333333334</ele><time>2026-04-30T16:06:02.98Z</time></trkpt><trkpt lat="42.8659841" lon="12.0488554"><ele>236.0</ele><time>2026-04-30T16:06:03.98Z</time></trkpt><trkpt lat="42.8661437" lon="12.0487285"><ele>235.66666666666669</ele><time>2026-04-30T16:06:04.981Z</time></trkpt><trkpt lat="42.8662967" lon="12.0486038"><ele>235.33333333333331</ele><time>2026-04-30T16:06:05.98Z</time></trkpt><trkpt lat="42.8664492" lon="12.0484859"><ele>235.0</ele><time>2026-04-30T16:06:06.98Z</time></trkpt><trkpt lat="42.8665977" lon="12.0483771"><ele>234.66666666666666</ele><time>2026-04-30T16:06:07.98Z</time></trkpt><trkpt lat="42.8667431" lon="12.0482608"><ele>234.33333333333331</ele><time>2026-04-30T16:06:08.98Z</time></trkpt><trkpt lat="42.8668854" lon="12.0481358"><ele>234.0</ele><time>2026-04-30T16:06:09.98Z</time></trkpt><trkpt lat="42.8670269" lon="12.0480078"><ele>234.66666666666669</ele><time>2026-04-30T16:06:10.98Z</time></trkpt><trkpt lat="42.8671728" lon="12.0478725"><ele>235.33333333333334</ele><time>2026-04-30T16:06:11.98Z</time></trkpt><trkpt lat="42.8673117" lon="12.0477341"><ele>236.0</ele><time>2026-04-30T16:06:12.981Z</time></trkpt><trkpt lat="42.8674499" lon="12.0475958"><ele>236.0</ele><time>2026-04-30T16:06:13.98Z</time></trkpt><trkpt lat="42.867588" lon="12.0474635"><ele>236.0</ele><time>2026-04-30T16:06:14.981Z</time></trkpt><trkpt lat="42.8677262" lon="12.0473294"><ele>236.0</ele><time>2026-04-30T16:06:15.98Z</time></trkpt><trkpt lat="42.8678631" lon="12.047197"><ele>236.0</ele><time>2026-04-30T16:06:16.98Z</time></trkpt><trkpt lat="42.8679969" lon="12.0470623"><ele>236.0</ele><time>2026-04-30T16:06:17.981Z</time></trkpt><trkpt lat="42.8681231" lon="12.0469349"><ele>236.0</ele><time>2026-04-30T16:06:18.98Z</time></trkpt><trkpt lat="42.8682356" lon="12.0468307"><ele>236.0</ele><time>2026-04-30T16:06:19.98Z</time></trkpt><trkpt lat="42.868323" lon="12.0467458"><ele>236.00000000000003</ele><time>2026-04-30T16:06:20.98Z</time></trkpt><trkpt lat="42.8683892" lon="12.0466837"><ele>236.00000000000003</ele><time>2026-04-30T16:06:21.98Z</time></trkpt><trkpt lat="42.8684617" lon="12.046605"><ele>236.0</ele><time>2026-04-30T16:07:06.981Z</time></trkpt><trkpt lat="42.8685317" lon="12.0465067"><ele>236.0</ele><time>2026-04-30T16:07:08.981Z</time></trkpt><trkpt lat="42.8686267" lon="12.046405"><ele>235.83333333333334</ele><time>2026-04-30T16:07:10.981Z</time></trkpt><trkpt lat="42.8687283" lon="12.0463017"><ele>235.66666666666669</ele><time>2026-04-30T16:07:12.982Z</time></trkpt><trkpt lat="42.8687767" lon="12.0462283"><ele>235.5</ele><time>2026-04-30T16:07:13.981Z</time></trkpt><trkpt lat="42.8688183" lon="12.0461483"><ele>235.33333333333331</ele><time>2026-04-30T16:07:14.982Z</time></trkpt><trkpt lat="42.868865" lon="12.046075"><ele>235.16666666666666</ele><time>2026-04-30T16:07:15.982Z</time></trkpt><trkpt lat="42.868905" lon="12.0459883"><ele>235.0</ele><time>2026-04-30T16:07:16.981Z</time></trkpt><trkpt lat="42.8689433" lon="12.0459017"><ele>234.99999999999997</ele><time>2026-04-30T16:07:17.981Z</time></trkpt><trkpt lat="42.8689767" lon="12.0458183"><ele>235.0</ele><time>2026-04-30T16:07:18.981Z</time></trkpt><trkpt lat="42.8690083" lon="12.0457333"><ele>235.0</ele><time>2026-04-30T16:07:19.981Z</time></trkpt><trkpt lat="42.8690317" lon="12.0456317"><ele>235.0</ele><time>2026-04-30T16:07:20.981Z</time></trkpt><trkpt lat="42.8690467" lon="12.04552"><ele>234.99999999999997</ele><time>2026-04-30T16:07:21.981Z</time></trkpt><trkpt lat="42.86907" lon="12.0454167"><ele>235.0</ele><time>2026-04-30T16:07:22.981Z</time></trkpt><trkpt lat="42.8690983" lon="12.0453067"><ele>234.99999999999997</ele><time>2026-04-30T16:07:23.982Z</time></trkpt><trkpt lat="42.869115" lon="12.0451983"><ele>235.0</ele><time>2026-04-30T16:07:24.981Z</time></trkpt><trkpt lat="42.8691433" lon="12.045085"><ele>235.0</ele><time>2026-04-30T16:07:25.981Z</time></trkpt><trkpt lat="42.8691733" lon="12.0449833"><ele>235.0</ele><time>2026-04-30T16:07:26.982Z</time></trkpt><trkpt lat="42.8692" lon="12.04487"><ele>234.99999999999997</ele><time>2026-04-30T16:07:27.981Z</time></trkpt><trkpt lat="42.8692233" lon="12.0447533"><ele>235.0</ele><time>2026-04-30T16:07:28.981Z</time></trkpt><trkpt lat="42.8692483" lon="12.044645"><ele>234.99999999999997</ele><time>2026-04-30T16:07:29.981Z</time></trkpt><trkpt lat="42.8692733" lon="12.0445383"><ele>235.0</ele><time>2026-04-30T16:07:30.981Z</time></trkpt><trkpt lat="42.8692983" lon="12.044425"><ele>235.0</ele><time>2026-04-30T16:07:31.981Z</time></trkpt><trkpt lat="42.8693283" lon="12.04431"><ele>235.0</ele><time>2026-04-30T16:07:32.981Z</time></trkpt><trkpt lat="42.86936" lon="12.0441883"><ele>234.99999999999997</ele><time>2026-04-30T16:07:33.981Z</time></trkpt><trkpt lat="42.8693933" lon="12.0440667"><ele>235.0</ele><time>2026-04-30T16:07:34.982Z</time></trkpt><trkpt lat="42.8694267" lon="12.04394"><ele>235.2</ele><time>2026-04-30T16:07:35.981Z</time></trkpt><trkpt lat="42.8694683" lon="12.0438183"><ele>235.4</ele><time>2026-04-30T16:07:36.982Z</time></trkpt><trkpt lat="42.8695117" lon="12.0436917"><ele>235.60000000000002</ele><time>2026-04-30T16:07:37.981Z</time></trkpt><trkpt lat="42.8695617" lon="12.0435633"><ele>235.8</ele><time>2026-04-30T16:07:38.981Z</time></trkpt><trkpt lat="42.869625" lon="12.0434367"><ele>236.0</ele><time>2026-04-30T16:07:39.981Z</time></trkpt><trkpt lat="42.8696917" lon="12.043315"><ele>236.4</ele><time>2026-04-30T16:07:40.981Z</time></trkpt><trkpt lat="42.8697683" lon="12.0432017"><ele>236.8</ele><time>2026-04-30T16:07:41.982Z</time></trkpt><trkpt lat="42.8698467" lon="12.0430883"><ele>237.20000000000002</ele><time>2026-04-30T16:07:42.981Z</time></trkpt><trkpt lat="42.869925" lon="12.0429833"><ele>237.60000000000002</ele><time>2026-04-30T16:07:43.982Z</time></trkpt><trkpt lat="42.8700133" lon="12.0428883"><ele>238.0</ele><time>2026-04-30T16:07:44.981Z</time></trkpt><trkpt lat="42.87011" lon="12.0428067"><ele>238.0</ele><time>2026-04-30T16:07:45.981Z</time></trkpt><trkpt lat="42.8702133" lon="12.0427233"><ele>238.0</ele><time>2026-04-30T16:07:46.981Z</time></trkpt><trkpt lat="42.8703183" lon="12.0426417"><ele>238.0</ele><time>2026-04-30T16:07:47.982Z</time></trkpt><trkpt lat="42.870425" lon="12.0425617"><ele>238.0</ele><time>2026-04-30T16:07:48.981Z</time></trkpt><trkpt lat="42.870535" lon="12.0424733"><ele>238.0</ele><time>2026-04-30T16:07:49.982Z</time></trkpt><trkpt lat="42.8706467" lon="12.0423833"><ele>238.0</ele><time>2026-04-30T16:07:50.981Z</time></trkpt><trkpt lat="42.8707683" lon="12.0423"><ele>238.0</ele><time>2026-04-30T16:07:51.982Z</time></trkpt><trkpt lat="42.8708833" lon="12.0422267"><ele>238.0</ele><time>2026-04-30T16:07:52.981Z</time></trkpt><trkpt lat="42.8709983" lon="12.0421767"><ele>238.0</ele><time>2026-04-30T16:07:53.981Z</time></trkpt><trkpt lat="42.8711217" lon="12.0421483"><ele>238.0</ele><time>2026-04-30T16:07:54.981Z</time></trkpt><trkpt lat="42.871235" lon="12.0421267"><ele>238.0</ele><time>2026-04-30T16:07:55.982Z</time></trkpt><trkpt lat="42.8713533" lon="12.042125"><ele>238.0</ele><time>2026-04-30T16:07:56.982Z</time></trkpt><trkpt lat="42.8714717" lon="12.0421233"><ele>238.0</ele><time>2026-04-30T16:07:57.981Z</time></trkpt><trkpt lat="42.8715833" lon="12.0421317"><ele>238.0</ele><time>2026-04-30T16:07:58.981Z</time></trkpt><trkpt lat="42.8716933" lon="12.042145"><ele>238.0</ele><time>2026-04-30T16:07:59.981Z</time></trkpt><trkpt lat="42.871805" lon="12.042155"><ele>238.0</ele><time>2026-04-30T16:08:00.982Z</time></trkpt><trkpt lat="42.871915" lon="12.042165"><ele>238.0</ele><time>2026-04-30T16:08:01.981Z</time></trkpt><trkpt lat="42.8720233" lon="12.0421717"><ele>238.2</ele><time>2026-04-30T16:08:02.982Z</time></trkpt><trkpt lat="42.8721367" lon="12.042185"><ele>238.4</ele><time>2026-04-30T16:08:03.981Z</time></trkpt><trkpt lat="42.872245" lon="12.0421967"><ele>238.59999999999997</ele><time>2026-04-30T16:08:04.981Z</time></trkpt><trkpt lat="42.87236" lon="12.042195"><ele>238.79999999999998</ele><time>2026-04-30T16:08:05.981Z</time></trkpt><trkpt lat="42.87246" lon="12.0421967"><ele>239.0</ele><time>2026-04-30T16:08:06.981Z</time></trkpt><trkpt lat="42.8725683" lon="12.04221"><ele>239.2</ele><time>2026-04-30T16:08:07.981Z</time></trkpt><trkpt lat="42.8726683" lon="12.0422183"><ele>239.39999999999998</ele><time>2026-04-30T16:08:08.981Z</time></trkpt><trkpt lat="42.87277" lon="12.04223"><ele>239.6</ele><time>2026-04-30T16:08:09.982Z</time></trkpt><trkpt lat="42.87286" lon="12.0422367"><ele>239.8</ele><time>2026-04-30T16:08:10.982Z</time></trkpt><trkpt lat="42.8729467" lon="12.0422483"><ele>240.0</ele><time>2026-04-30T16:08:11.982Z</time></trkpt><trkpt lat="42.8730283" lon="12.04225"><ele>240.0</ele><time>2026-04-30T16:08:12.981Z</time></trkpt><trkpt lat="42.8731033" lon="12.04225"><ele>240.0</ele><time>2026-04-30T16:08:13.981Z</time></trkpt><trkpt lat="42.8731783" lon="12.0422533"><ele>240.0</ele><time>2026-04-30T16:08:14.982Z</time></trkpt><trkpt lat="42.873245" lon="12.0422583"><ele>240.0</ele><time>2026-04-30T16:08:15.981Z</time></trkpt><trkpt lat="42.87335" lon="12.0422683"><ele>240.0</ele><time>2026-04-30T16:08:17.981Z</time></trkpt><trkpt lat="42.8734683" lon="12.04229"><ele>240.0</ele><time>2026-04-30T16:08:19.981Z</time></trkpt><trkpt lat="42.873535" lon="12.0422983"><ele>240.0</ele><time>2026-04-30T16:08:20.981Z</time></trkpt><trkpt lat="42.87362" lon="12.0423"><ele>240.0</ele><time>2026-04-30T16:08:21.981Z</time></trkpt><trkpt lat="42.8737017" lon="12.04231"><ele>240.0</ele><time>2026-04-30T16:08:22.982Z</time></trkpt><trkpt lat="42.8737917" lon="12.0423233"><ele>240.0</ele><time>2026-04-30T16:08:23.981Z</time></trkpt><trkpt lat="42.8738867" lon="12.0423367"><ele>240.0</ele><time>2026-04-30T16:08:24.982Z</time></trkpt><trkpt lat="42.8739867" lon="12.04235"><ele>240.0</ele><time>2026-04-30T16:08:25.981Z</time></trkpt><trkpt lat="42.874185" lon="12.042375"><ele>240.0</ele><time>2026-04-30T16:08:27.981Z</time></trkpt><trkpt lat="42.87428" lon="12.0423833"><ele>240.0</ele><time>2026-04-30T16:08:28.981Z</time></trkpt><trkpt lat="42.8743783" lon="12.0423783"><ele>240.0</ele><time>2026-04-30T16:08:29.981Z</time></trkpt><trkpt lat="42.8744717" lon="12.042395"><ele>240.0</ele><time>2026-04-30T16:08:30.981Z</time></trkpt><trkpt lat="42.8745917" lon="12.042405"><ele>240.0</ele><time>2026-04-30T16:08:31.981Z</time></trkpt><trkpt lat="42.8747083" lon="12.0424317"><ele>240.0</ele><time>2026-04-30T16:08:32.981Z</time></trkpt><trkpt lat="42.874815" lon="12.0424767"><ele>240.0</ele><time>2026-04-30T16:08:33.982Z</time></trkpt><trkpt lat="42.8749183" lon="12.0425133"><ele>240.4</ele><time>2026-04-30T16:08:34.981Z</time></trkpt><trkpt lat="42.8750217" lon="12.042575"><ele>240.8</ele><time>2026-04-30T16:08:35.981Z</time></trkpt><trkpt lat="42.8751133" lon="12.042655"><ele>241.2</ele><time>2026-04-30T16:08:36.981Z</time></trkpt><trkpt lat="42.8752117" lon="12.0427233"><ele>241.6</ele><time>2026-04-30T16:08:37.981Z</time></trkpt><trkpt lat="42.8753017" lon="12.042775"><ele>242.0</ele><time>2026-04-30T16:08:38.981Z</time></trkpt><trkpt lat="42.8753933" lon="12.0428333"><ele>242.2</ele><time>2026-04-30T16:08:39.981Z</time></trkpt><trkpt lat="42.8754867" lon="12.0428917"><ele>242.39999999999998</ele><time>2026-04-30T16:08:40.981Z</time></trkpt><trkpt lat="42.87558" lon="12.0429433"><ele>242.60000000000002</ele><time>2026-04-30T16:08:41.981Z</time></trkpt><trkpt lat="42.8756667" lon="12.0429967"><ele>242.8</ele><time>2026-04-30T16:08:42.981Z</time></trkpt><trkpt lat="42.8757533" lon="12.0430617"><ele>243.0</ele><time>2026-04-30T16:08:43.982Z</time></trkpt><trkpt lat="42.8758383" lon="12.0431033"><ele>243.0</ele><time>2026-04-30T16:08:44.981Z</time></trkpt><trkpt lat="42.8759233" lon="12.0431583"><ele>243.0</ele><time>2026-04-30T16:08:45.982Z</time></trkpt><trkpt lat="42.8760133" lon="12.0432033"><ele>243.0</ele><time>2026-04-30T16:08:46.981Z</time></trkpt><trkpt lat="42.8761017" lon="12.0432717"><ele>243.0</ele><time>2026-04-30T16:08:47.981Z</time></trkpt><trkpt lat="42.87619" lon="12.04334"><ele>243.0</ele><time>2026-04-30T16:08:48.981Z</time></trkpt><trkpt lat="42.87628" lon="12.0433883"><ele>242.83333333333334</ele><time>2026-04-30T16:08:49.981Z</time></trkpt><trkpt lat="42.8763617" lon="12.04344"><ele>242.66666666666669</ele><time>2026-04-30T16:08:50.981Z</time></trkpt><trkpt lat="42.8764333" lon="12.0434883"><ele>242.5</ele><time>2026-04-30T16:08:51.981Z</time></trkpt><trkpt lat="42.8765183" lon="12.0435383"><ele>242.33333333333334</ele><time>2026-04-30T16:08:53.981Z</time></trkpt><trkpt lat="42.8765717" lon="12.04362"><ele>242.16666666666669</ele><time>2026-04-30T16:08:56.981Z</time></trkpt><trkpt lat="42.8766283" lon="12.043735"><ele>242.0</ele><time>2026-04-30T16:08:58.981Z</time></trkpt><trkpt lat="42.8767333" lon="12.0438383"><ele>241.75</ele><time>2026-04-30T16:09:00.981Z</time></trkpt><trkpt lat="42.8768317" lon="12.0438733"><ele>241.5</ele><time>2026-04-30T16:09:01.981Z</time></trkpt><trkpt lat="42.8769617" lon="12.043905"><ele>241.25</ele><time>2026-04-30T16:09:02.981Z</time></trkpt><trkpt lat="42.8771067" lon="12.0439417"><ele>241.0</ele><time>2026-04-30T16:09:03.981Z</time></trkpt><trkpt lat="42.8772483" lon="12.0440033"><ele>241.0</ele><time>2026-04-30T16:09:04.981Z</time></trkpt><trkpt lat="42.877375" lon="12.0440733"><ele>241.00000000000003</ele><time>2026-04-30T16:09:05.981Z</time></trkpt><trkpt lat="42.8774867" lon="12.0441283"><ele>241.00000000000003</ele><time>2026-04-30T16:09:06.981Z</time></trkpt><trkpt lat="42.8775733" lon="12.0441817"><ele>241.0</ele><time>2026-04-30T16:09:07.981Z</time></trkpt><trkpt lat="42.87766" lon="12.0442333"><ele>241.0</ele><time>2026-04-30T16:09:08.981Z</time></trkpt><trkpt lat="42.8777367" lon="12.044265"><ele>241.49999999999997</ele><time>2026-04-30T16:09:09.982Z</time></trkpt><trkpt lat="42.87782" lon="12.044275"><ele>242.0</ele><time>2026-04-30T16:09:10.982Z</time></trkpt><trkpt lat="42.8778983" lon="12.044285"><ele>242.5</ele><time>2026-04-30T16:09:11.981Z</time></trkpt><trkpt lat="42.877975" lon="12.0442933"><ele>243.0</ele><time>2026-04-30T16:09:12.982Z</time></trkpt><trkpt lat="42.8780483" lon="12.0443083"><ele>243.49999999999997</ele><time>2026-04-30T16:09:13.981Z</time></trkpt><trkpt lat="42.8781267" lon="12.04429"><ele>244.0</ele><time>2026-04-30T16:09:14.981Z</time></trkpt><trkpt lat="42.87822" lon="12.04426"><ele>244.0</ele><time>2026-04-30T16:09:15.982Z</time></trkpt><trkpt lat="42.87832" lon="12.0442033"><ele>244.0</ele><time>2026-04-30T16:09:16.982Z</time></trkpt><trkpt lat="42.8784333" lon="12.0441417"><ele>244.0</ele><time>2026-04-30T16:09:17.982Z</time></trkpt><trkpt lat="42.8785417" lon="12.04407"><ele>244.0</ele><time>2026-04-30T16:09:18.982Z</time></trkpt><trkpt lat="42.8786683" lon="12.0439983"><ele>243.25</ele><time>2026-04-30T16:09:19.982Z</time></trkpt><trkpt lat="42.8787917" lon="12.0439317"><ele>242.5</ele><time>2026-04-30T16:09:20.981Z</time></trkpt><trkpt lat="42.8789133" lon="12.0438733"><ele>241.75</ele><time>2026-04-30T16:09:21.981Z</time></trkpt><trkpt lat="42.879035" lon="12.0438"><ele>241.0</ele><time>2026-04-30T16:09:22.982Z</time></trkpt><trkpt lat="42.8791433" lon="12.04374"><ele>241.0</ele><time>2026-04-30T16:09:23.981Z</time></trkpt><trkpt lat="42.8792483" lon="12.0436833"><ele>241.0</ele><time>2026-04-30T16:09:24.982Z</time></trkpt><trkpt lat="42.8793517" lon="12.0436267"><ele>241.0</ele><time>2026-04-30T16:09:25.981Z</time></trkpt><trkpt lat="42.879455" lon="12.04358"><ele>241.0</ele><time>2026-04-30T16:09:26.981Z</time></trkpt><trkpt lat="42.8795683" lon="12.0435317"><ele>241.75</ele><time>2026-04-30T16:09:27.982Z</time></trkpt><trkpt lat="42.8796817" lon="12.0434717"><ele>242.5</ele><time>2026-04-30T16:09:28.981Z</time></trkpt><trkpt lat="42.8798083" lon="12.0434067"><ele>243.25</ele><time>2026-04-30T16:09:29.982Z</time></trkpt><trkpt lat="42.879935" lon="12.04335"><ele>244.0</ele><time>2026-04-30T16:09:30.981Z</time></trkpt><trkpt lat="42.8800533" lon="12.043285"><ele>242.75</ele><time>2026-04-30T16:09:31.981Z</time></trkpt><trkpt lat="42.8801717" lon="12.0432283"><ele>241.5</ele><time>2026-04-30T16:09:32.982Z</time></trkpt><trkpt lat="42.8802967" lon="12.0431683"><ele>240.25</ele><time>2026-04-30T16:09:33.981Z</time></trkpt><trkpt lat="42.8804267" lon="12.0430933"><ele>239.0</ele><time>2026-04-30T16:09:34.981Z</time></trkpt><trkpt lat="42.8805667" lon="12.043015"><ele>239.0</ele><time>2026-04-30T16:09:35.982Z</time></trkpt><trkpt lat="42.8807083" lon="12.0429417"><ele>239.0</ele><time>2026-04-30T16:09:36.981Z</time></trkpt><trkpt lat="42.8808483" lon="12.0428667"><ele>239.0</ele><time>2026-04-30T16:09:37.982Z</time></trkpt><trkpt lat="42.88099" lon="12.0427983"><ele>241.0</ele><time>2026-04-30T16:09:38.981Z</time></trkpt><trkpt lat="42.8811267" lon="12.042725"><ele>243.0</ele><time>2026-04-30T16:09:39.982Z</time></trkpt><trkpt lat="42.881255" lon="12.0426583"><ele>245.0</ele><time>2026-04-30T16:09:40.981Z</time></trkpt><trkpt lat="42.8813817" lon="12.0425933"><ele>247.0</ele><time>2026-04-30T16:09:41.982Z</time></trkpt><trkpt lat="42.881505" lon="12.0425233"><ele>246.0</ele><time>2026-04-30T16:09:42.981Z</time></trkpt><trkpt lat="42.8816383" lon="12.0424583"><ele>245.0</ele><time>2026-04-30T16:09:43.981Z</time></trkpt><trkpt lat="42.881765" lon="12.042385"><ele>244.0</ele><time>2026-04-30T16:09:44.981Z</time></trkpt><trkpt lat="42.8819067" lon="12.042295"><ele>243.0</ele><time>2026-04-30T16:09:45.982Z</time></trkpt><trkpt lat="42.882065" lon="12.04219"><ele>243.0</ele><time>2026-04-30T16:09:46.981Z</time></trkpt><trkpt lat="42.8822467" lon="12.0420633"><ele>243.0</ele><time>2026-04-30T16:09:47.981Z</time></trkpt><trkpt lat="42.8824533" lon="12.041925"><ele>243.0</ele><time>2026-04-30T16:09:48.981Z</time></trkpt><trkpt lat="42.8826833" lon="12.041805"><ele>241.0</ele><time>2026-04-30T16:09:49.981Z</time></trkpt><trkpt lat="42.8829133" lon="12.0416933"><ele>239.0</ele><time>2026-04-30T16:09:50.981Z</time></trkpt><trkpt lat="42.88314" lon="12.04157"><ele>239.0</ele><time>2026-04-30T16:09:51.981Z</time></trkpt><trkpt lat="42.88337" lon="12.0414483"><ele>239.0</ele><time>2026-04-30T16:09:52.982Z</time></trkpt><trkpt lat="42.8836083" lon="12.0413217"><ele>241.5</ele><time>2026-04-30T16:09:53.982Z</time></trkpt><trkpt lat="42.8838433" lon="12.0412083"><ele>244.0</ele><time>2026-04-30T16:09:54.982Z</time></trkpt><trkpt lat="42.8840767" lon="12.04108"><ele>249.0</ele><time>2026-04-30T16:09:55.982Z</time></trkpt><trkpt lat="42.8843" lon="12.0409517"><ele>254.0</ele><time>2026-04-30T16:09:56.981Z</time></trkpt><trkpt lat="42.8845233" lon="12.04081"><ele>248.0</ele><time>2026-04-30T16:09:57.981Z</time></trkpt><trkpt lat="42.8847417" lon="12.040665"><ele>242.0</ele><time>2026-04-30T16:09:58.981Z</time></trkpt><trkpt lat="42.8849683" lon="12.040525"><ele>244.0</ele><time>2026-04-30T16:09:59.982Z</time></trkpt><trkpt lat="42.8851933" lon="12.0403833"><ele>246.0</ele><time>2026-04-30T16:10:00.981Z</time></trkpt><trkpt lat="42.8854317" lon="12.04028"><ele>246.0</ele><time>2026-04-30T16:10:01.981Z</time></trkpt><trkpt lat="42.8856733" lon="12.040215"><ele>246.0</ele><time>2026-04-30T16:10:02.982Z</time></trkpt><trkpt lat="42.885905" lon="12.040205"><ele>244.0</ele><time>2026-04-30T16:10:03.981Z</time></trkpt><trkpt lat="42.8861467" lon="12.04027"><ele>242.0</ele><time>2026-04-30T16:10:04.982Z</time></trkpt><trkpt lat="42.8863833" lon="12.0403417"><ele>242.0</ele><time>2026-04-30T16:10:05.982Z</time></trkpt><trkpt lat="42.88662" lon="12.04035"><ele>242.0</ele><time>2026-04-30T16:10:06.981Z</time></trkpt><trkpt lat="42.8868433" lon="12.0402817"><ele>242.0</ele><time>2026-04-30T16:10:07.981Z</time></trkpt><trkpt lat="42.8870633" lon="12.040155"><ele>242.0</ele><time>2026-04-30T16:10:08.981Z</time></trkpt><trkpt lat="42.8872833" lon="12.0400083"><ele>239.5</ele><time>2026-04-30T16:10:09.981Z</time></trkpt><trkpt lat="42.8875183" lon="12.039855"><ele>237.0</ele><time>2026-04-30T16:10:10.981Z</time></trkpt><trkpt lat="42.887745" lon="12.039695"><ele>236.5</ele><time>2026-04-30T16:10:11.982Z</time></trkpt><trkpt lat="42.8879783" lon="12.0395167"><ele>236.0</ele><time>2026-04-30T16:10:12.981Z</time></trkpt><trkpt lat="42.8882233" lon="12.03935"><ele>236.0</ele><time>2026-04-30T16:10:13.982Z</time></trkpt><trkpt lat="42.8884717" lon="12.0391883"><ele>236.0</ele><time>2026-04-30T16:10:14.981Z</time></trkpt><trkpt lat="42.8887217" lon="12.03902"><ele>235.0</ele><time>2026-04-30T16:10:15.981Z</time></trkpt><trkpt lat="42.888985" lon="12.0388383"><ele>234.0</ele><time>2026-04-30T16:10:16.981Z</time></trkpt><trkpt lat="42.8892417" lon="12.0386417"><ele>235.0</ele><time>2026-04-30T16:10:17.982Z</time></trkpt><trkpt lat="42.889485" lon="12.0384317"><ele>236.0</ele><time>2026-04-30T16:10:18.981Z</time></trkpt><trkpt lat="42.8897117" lon="12.038185"><ele>236.0</ele><time>2026-04-30T16:10:19.981Z</time></trkpt><trkpt lat="42.88993" lon="12.03791"><ele>236.0</ele><time>2026-04-30T16:10:20.981Z</time></trkpt><trkpt lat="42.8901383" lon="12.037635"><ele>237.5</ele><time>2026-04-30T16:10:21.981Z</time></trkpt><trkpt lat="42.8903517" lon="12.0373733"><ele>239.0</ele><time>2026-04-30T16:10:22.981Z</time></trkpt><trkpt lat="42.890565" lon="12.0370983"><ele>239.0</ele><time>2026-04-30T16:10:23.982Z</time></trkpt><trkpt lat="42.8907667" lon="12.0368517"><ele>239.0</ele><time>2026-04-30T16:10:24.981Z</time></trkpt><trkpt lat="42.8909533" lon="12.0366267"><ele>241.5</ele><time>2026-04-30T16:10:25.981Z</time></trkpt><trkpt lat="42.8911183" lon="12.0363933"><ele>244.0</ele><time>2026-04-30T16:10:26.981Z</time></trkpt><trkpt lat="42.89127" lon="12.03617"><ele>244.0</ele><time>2026-04-30T16:10:27.981Z</time></trkpt><trkpt lat="42.89142" lon="12.0359833"><ele>244.0</ele><time>2026-04-30T16:10:28.981Z</time></trkpt><trkpt lat="42.891575" lon="12.0358133"><ele>244.0</ele><time>2026-04-30T16:10:29.981Z</time></trkpt><trkpt lat="42.891735" lon="12.03568"><ele>244.33333333333331</ele><time>2026-04-30T16:10:30.981Z</time></trkpt><trkpt lat="42.8919083" lon="12.0356"><ele>244.66666666666669</ele><time>2026-04-30T16:10:31.981Z</time></trkpt><trkpt lat="42.8920817" lon="12.0355767"><ele>245.0</ele><time>2026-04-30T16:10:32.981Z</time></trkpt><trkpt lat="42.8922283" lon="12.0356467"><ele>245.0</ele><time>2026-04-30T16:10:33.981Z</time></trkpt><trkpt lat="42.89235" lon="12.0357733"><ele>245.0</ele><time>2026-04-30T16:10:34.981Z</time></trkpt><trkpt lat="42.892445" lon="12.035905"><ele>245.0</ele><time>2026-04-30T16:10:35.981Z</time></trkpt><trkpt lat="42.89253" lon="12.0360317"><ele>245.0</ele><time>2026-04-30T16:10:36.981Z</time></trkpt><trkpt lat="42.8926217" lon="12.0361017"><ele>245.8</ele><time>2026-04-30T16:10:37.981Z</time></trkpt><trkpt lat="42.8927183" lon="12.0361217"><ele>246.6</ele><time>2026-04-30T16:10:38.981Z</time></trkpt><trkpt lat="42.8928267" lon="12.0360917"><ele>247.39999999999998</ele><time>2026-04-30T16:10:39.981Z</time></trkpt><trkpt lat="42.8929417" lon="12.03605"><ele>248.2</ele><time>2026-04-30T16:10:40.981Z</time></trkpt><trkpt lat="42.8930567" lon="12.0360483"><ele>249.0</ele><time>2026-04-30T16:10:41.981Z</time></trkpt><trkpt lat="42.8931717" lon="12.0361083"><ele>249.0</ele><time>2026-04-30T16:10:42.981Z</time></trkpt><trkpt lat="42.8932867" lon="12.036225"><ele>249.0</ele><time>2026-04-30T16:10:43.981Z</time></trkpt><trkpt lat="42.8933967" lon="12.0363783"><ele>249.0</ele><time>2026-04-30T16:10:44.982Z</time></trkpt><trkpt lat="42.8935083" lon="12.0365617"><ele>250.0</ele><time>2026-04-30T16:10:45.981Z</time></trkpt><trkpt lat="42.893625" lon="12.03674"><ele>251.0</ele><time>2026-04-30T16:10:46.982Z</time></trkpt><trkpt lat="42.8937583" lon="12.0369217"><ele>252.0</ele><time>2026-04-30T16:10:47.981Z</time></trkpt><trkpt lat="42.8938983" lon="12.0370867"><ele>252.0</ele><time>2026-04-30T16:10:48.982Z</time></trkpt><trkpt lat="42.89404" lon="12.03722"><ele>252.0</ele><time>2026-04-30T16:10:49.981Z</time></trkpt><trkpt lat="42.894195" lon="12.0373083"><ele>252.0</ele><time>2026-04-30T16:10:50.981Z</time></trkpt><trkpt lat="42.8943817" lon="12.0373867"><ele>253.0</ele><time>2026-04-30T16:10:51.981Z</time></trkpt><trkpt lat="42.8945417" lon="12.0374217"><ele>254.0</ele><time>2026-04-30T16:10:52.982Z</time></trkpt><trkpt lat="42.894735" lon="12.0375183"><ele>255.0</ele><time>2026-04-30T16:10:53.981Z</time></trkpt><trkpt lat="42.8949367" lon="12.0376017"><ele>256.3333333333333</ele><time>2026-04-30T16:10:54.982Z</time></trkpt><trkpt lat="42.8951333" lon="12.0377"><ele>257.66666666666663</ele><time>2026-04-30T16:10:55.981Z</time></trkpt><trkpt lat="42.8953267" lon="12.037785"><ele>259.0</ele><time>2026-04-30T16:10:56.981Z</time></trkpt><trkpt lat="42.895505" lon="12.037885"><ele>259.0</ele><time>2026-04-30T16:10:57.981Z</time></trkpt><trkpt lat="42.8956733" lon="12.0379617"><ele>259.0</ele><time>2026-04-30T16:10:58.981Z</time></trkpt><trkpt lat="42.8958233" lon="12.038005"><ele>259.0</ele><time>2026-04-30T16:10:59.982Z</time></trkpt><trkpt lat="42.8959767" lon="12.0379917"><ele>260.5</ele><time>2026-04-30T16:11:00.981Z</time></trkpt><trkpt lat="42.8961033" lon="12.0379083"><ele>262.0</ele><time>2026-04-30T16:11:01.982Z</time></trkpt><trkpt lat="42.89623" lon="12.0378067"><ele>263.5</ele><time>2026-04-30T16:11:02.982Z</time></trkpt><trkpt lat="42.8963567" lon="12.0377433"><ele>265.0</ele><time>2026-04-30T16:11:03.981Z</time></trkpt><trkpt lat="42.89651" lon="12.0377683"><ele>265.0</ele><time>2026-04-30T16:11:04.981Z</time></trkpt><trkpt lat="42.8966667" lon="12.037805"><ele>265.0</ele><time>2026-04-30T16:11:05.981Z</time></trkpt><trkpt lat="42.8968383" lon="12.0378467"><ele>265.0</ele><time>2026-04-30T16:11:06.982Z</time></trkpt><trkpt lat="42.897018" lon="12.0378372"><ele>267.0</ele><time>2026-04-30T16:11:07.981Z</time></trkpt><trkpt lat="42.8971988" lon="12.037789"><ele>269.0</ele><time>2026-04-30T16:11:08.981Z</time></trkpt><trkpt lat="42.8973794" lon="12.0377286"><ele>271.0</ele><time>2026-04-30T16:11:09.982Z</time></trkpt><trkpt lat="42.8975494" lon="12.0376776"><ele>272.66666666666663</ele><time>2026-04-30T16:11:10.981Z</time></trkpt><trkpt lat="42.8977215" lon="12.0376679"><ele>274.3333333333333</ele><time>2026-04-30T16:11:11.981Z</time></trkpt><trkpt lat="42.8979009" lon="12.0376969"><ele>276.0</ele><time>2026-04-30T16:11:12.982Z</time></trkpt><trkpt lat="42.8980773" lon="12.0377469"><ele>276.0</ele><time>2026-04-30T16:11:13.982Z</time></trkpt><trkpt lat="42.898243" lon="12.0377959"><ele>276.0</ele><time>2026-04-30T16:11:14.981Z</time></trkpt><trkpt lat="42.8984169" lon="12.037817"><ele>276.0</ele><time>2026-04-30T16:11:15.981Z</time></trkpt><trkpt lat="42.8985899" lon="12.0378178"><ele>277.75</ele><time>2026-04-30T16:11:16.982Z</time></trkpt><trkpt lat="42.8987397" lon="12.037781"><ele>279.5</ele><time>2026-04-30T16:11:17.981Z</time></trkpt><trkpt lat="42.898863" lon="12.0376922"><ele>281.25</ele><time>2026-04-30T16:11:18.981Z</time></trkpt><trkpt lat="42.8989614" lon="12.0375539"><ele>283.0</ele><time>2026-04-30T16:11:19.981Z</time></trkpt><trkpt lat="42.8990455" lon="12.03741"><ele>280.2</ele><time>2026-04-30T16:11:20.981Z</time></trkpt><trkpt lat="42.8991165" lon="12.0372666"><ele>277.4</ele><time>2026-04-30T16:11:21.981Z</time></trkpt><trkpt lat="42.899194" lon="12.0371711"><ele>274.59999999999997</ele><time>2026-04-30T16:11:22.981Z</time></trkpt><trkpt lat="42.8992854" lon="12.0371437"><ele>271.8</ele><time>2026-04-30T16:11:23.982Z</time></trkpt><trkpt lat="42.8993851" lon="12.0371784"><ele>269.0</ele><time>2026-04-30T16:11:24.981Z</time></trkpt><trkpt lat="42.8994817" lon="12.0372664"><ele>269.75</ele><time>2026-04-30T16:11:25.981Z</time></trkpt><trkpt lat="42.8995542" lon="12.0374012"><ele>270.5</ele><time>2026-04-30T16:11:26.981Z</time></trkpt><trkpt lat="42.8996025" lon="12.0375879"><ele>271.25</ele><time>2026-04-30T16:11:27.981Z</time></trkpt><trkpt lat="42.899609" lon="12.0377849"><ele>272.0</ele><time>2026-04-30T16:11:28.981Z</time></trkpt><trkpt lat="42.8995676" lon="12.0379918"><ele>272.0</ele><time>2026-04-30T16:11:29.981Z</time></trkpt><trkpt lat="42.8994834" lon="12.0381856"><ele>272.0</ele><time>2026-04-30T16:11:30.981Z</time></trkpt><trkpt lat="42.89935" lon="12.0383273"><ele>272.0</ele><time>2026-04-30T16:11:31.982Z</time></trkpt><trkpt lat="42.8991872" lon="12.0384116"><ele>278.0</ele><time>2026-04-30T16:11:32.981Z</time></trkpt><trkpt lat="42.8990107" lon="12.0384404"><ele>284.0</ele><time>2026-04-30T16:11:33.982Z</time></trkpt><trkpt lat="42.8988241" lon="12.0384331"><ele>290.0</ele><time>2026-04-30T16:11:34.981Z</time></trkpt><trkpt lat="42.8986399" lon="12.0384201"><ele>290.0</ele><time>2026-04-30T16:11:35.981Z</time></trkpt><trkpt lat="42.8984624" lon="12.0384006"><ele>290.0</ele><time>2026-04-30T16:11:36.981Z</time></trkpt><trkpt lat="42.8983065" lon="12.0383936"><ele>290.0</ele><time>2026-04-30T16:11:37.981Z</time></trkpt><trkpt lat="42.8981704" lon="12.0384121"><ele>289.8</ele><time>2026-04-30T16:11:38.982Z</time></trkpt><trkpt lat="42.8980694" lon="12.0384676"><ele>289.6</ele><time>2026-04-30T16:11:39.982Z</time></trkpt><trkpt lat="42.898013" lon="12.0385687"><ele>289.4</ele><time>2026-04-30T16:11:40.981Z</time></trkpt><trkpt lat="42.8980077" lon="12.0386978"><ele>289.2</ele><time>2026-04-30T16:11:41.982Z</time></trkpt><trkpt lat="42.8980576" lon="12.0388138"><ele>289.0</ele><time>2026-04-30T16:11:42.981Z</time></trkpt><trkpt lat="42.8981496" lon="12.0388991"><ele>289.0</ele><time>2026-04-30T16:11:43.981Z</time></trkpt><trkpt lat="42.8982738" lon="12.0389746"><ele>289.0</ele><time>2026-04-30T16:11:44.982Z</time></trkpt><trkpt lat="42.8984015" lon="12.0390815"><ele>289.0</ele><time>2026-04-30T16:11:45.981Z</time></trkpt><trkpt lat="42.8985273" lon="12.0392315"><ele>293.66666666666663</ele><time>2026-04-30T16:11:46.981Z</time></trkpt><trkpt lat="42.8986408" lon="12.0394152"><ele>298.3333333333333</ele><time>2026-04-30T16:11:47.981Z</time></trkpt><trkpt lat="42.8987492" lon="12.0396128"><ele>303.0</ele><time>2026-04-30T16:11:48.982Z</time></trkpt><trkpt lat="42.8988564" lon="12.0398264"><ele>302.0</ele><time>2026-04-30T16:11:49.982Z</time></trkpt><trkpt lat="42.8989695" lon="12.0400457"><ele>301.0</ele><time>2026-04-30T16:11:50.981Z</time></trkpt><trkpt lat="42.8990987" lon="12.0402544"><ele>300.0</ele><time>2026-04-30T16:11:51.981Z</time></trkpt><trkpt lat="42.8992512" lon="12.0404425"><ele>300.0</ele><time>2026-04-30T16:11:52.981Z</time></trkpt><trkpt lat="42.8994145" lon="12.0406116"><ele>300.0</ele><time>2026-04-30T16:11:53.981Z</time></trkpt><trkpt lat="42.8995729" lon="12.0407998"><ele>300.0</ele><time>2026-04-30T16:11:54.981Z</time></trkpt><trkpt lat="42.8996982" lon="12.0410068"><ele>301.3333333333333</ele><time>2026-04-30T16:11:55.981Z</time></trkpt><trkpt lat="42.8997864" lon="12.0412399"><ele>302.66666666666663</ele><time>2026-04-30T16:11:56.981Z</time></trkpt><trkpt lat="42.8998309" lon="12.0414881"><ele>304.0</ele><time>2026-04-30T16:11:57.981Z</time></trkpt><trkpt lat="42.8998279" lon="12.0417501"><ele>307.66666666666663</ele><time>2026-04-30T16:11:58.981Z</time></trkpt><trkpt lat="42.8997958" lon="12.0420202"><ele>311.3333333333333</ele><time>2026-04-30T16:11:59.981Z</time></trkpt><trkpt lat="42.8997514" lon="12.0422828"><ele>315.0</ele><time>2026-04-30T16:12:00.982Z</time></trkpt><trkpt lat="42.8997181" lon="12.0425213"><ele>317.5</ele><time>2026-04-30T16:12:01.981Z</time></trkpt><trkpt lat="42.8996576" lon="12.0427328"><ele>320.0</ele><time>2026-04-30T16:12:02.981Z</time></trkpt><trkpt lat="42.8995717" lon="12.0428789"><ele>322.5</ele><time>2026-04-30T16:12:03.981Z</time></trkpt><trkpt lat="42.8994516" lon="12.0429433"><ele>325.0</ele><time>2026-04-30T16:12:04.981Z</time></trkpt><trkpt lat="42.8993361" lon="12.0429028"><ele>325.25</ele><time>2026-04-30T16:12:05.981Z</time></trkpt><trkpt lat="42.8992338" lon="12.0427844"><ele>325.5</ele><time>2026-04-30T16:12:06.981Z</time></trkpt><trkpt lat="42.8991459" lon="12.0426216"><ele>325.75</ele><time>2026-04-30T16:12:07.982Z</time></trkpt><trkpt lat="42.8990561" lon="12.0424668"><ele>326.0</ele><time>2026-04-30T16:12:08.982Z</time></trkpt><trkpt lat="42.8989594" lon="12.0423556"><ele>326.0</ele><time>2026-04-30T16:12:09.981Z</time></trkpt><trkpt lat="42.8988568" lon="12.0423167"><ele>326.0</ele><time>2026-04-30T16:12:10.981Z</time></trkpt><trkpt lat="42.8987692" lon="12.042347"><ele>326.0</ele><time>2026-04-30T16:12:11.981Z</time></trkpt><trkpt lat="42.8987063" lon="12.0424409"><ele>326.0</ele><time>2026-04-30T16:12:12.982Z</time></trkpt><trkpt lat="42.8986992" lon="12.0425949"><ele>326.0</ele><time>2026-04-30T16:12:13.982Z</time></trkpt><trkpt lat="42.8987326" lon="12.0427814"><ele>326.0</ele><time>2026-04-30T16:12:14.982Z</time></trkpt><trkpt lat="42.8987788" lon="12.0429832"><ele>326.0</ele><time>2026-04-30T16:12:15.981Z</time></trkpt><trkpt lat="42.8988295" lon="12.0431793"><ele>326.0</ele><time>2026-04-30T16:12:16.982Z</time></trkpt><trkpt lat="42.8989048" lon="12.0433453"><ele>328.33333333333337</ele><time>2026-04-30T16:12:17.981Z</time></trkpt><trkpt lat="42.8990086" lon="12.0434819"><ele>330.6666666666667</ele><time>2026-04-30T16:12:18.982Z</time></trkpt><trkpt lat="42.8991499" lon="12.0436021"><ele>333.0</ele><time>2026-04-30T16:12:19.981Z</time></trkpt><trkpt lat="42.8993153" lon="12.0437151"><ele>333.0</ele><time>2026-04-30T16:12:20.981Z</time></trkpt><trkpt lat="42.8994903" lon="12.0438451"><ele>333.0</ele><time>2026-04-30T16:12:21.981Z</time></trkpt><trkpt lat="42.8996683" lon="12.0439844"><ele>333.0</ele><time>2026-04-30T16:12:22.982Z</time></trkpt><trkpt lat="42.8998462" lon="12.0441233"><ele>335.3333333333333</ele><time>2026-04-30T16:12:23.982Z</time></trkpt><trkpt lat="42.9000095" lon="12.0442672"><ele>337.66666666666663</ele><time>2026-04-30T16:12:24.981Z</time></trkpt><trkpt lat="42.9001519" lon="12.0444316"><ele>340.0</ele><time>2026-04-30T16:12:25.981Z</time></trkpt><trkpt lat="42.9002712" lon="12.0446"><ele>337.66666666666663</ele><time>2026-04-30T16:12:26.981Z</time></trkpt><trkpt lat="42.9003613" lon="12.0447975"><ele>335.3333333333333</ele><time>2026-04-30T16:12:27.981Z</time></trkpt><trkpt lat="42.9004399" lon="12.0450291"><ele>333.0</ele><time>2026-04-30T16:12:28.982Z</time></trkpt><trkpt lat="42.9005264" lon="12.0452782"><ele>333.0</ele><time>2026-04-30T16:12:29.981Z</time></trkpt><trkpt lat="42.9006309" lon="12.0455193"><ele>333.0</ele><time>2026-04-30T16:12:30.981Z</time></trkpt><trkpt lat="42.9007388" lon="12.0457725"><ele>333.0</ele><time>2026-04-30T16:12:31.981Z</time></trkpt><trkpt lat="42.9008423" lon="12.0460376"><ele>335.3333333333333</ele><time>2026-04-30T16:12:32.981Z</time></trkpt><trkpt lat="42.9009262" lon="12.0463192"><ele>337.66666666666663</ele><time>2026-04-30T16:12:33.982Z</time></trkpt><trkpt lat="42.9010279" lon="12.0465906"><ele>340.0</ele><time>2026-04-30T16:12:34.981Z</time></trkpt><trkpt lat="42.9011563" lon="12.0468415"><ele>340.0</ele><time>2026-04-30T16:12:35.981Z</time></trkpt><trkpt lat="42.9012786" lon="12.0470701"><ele>340.0</ele><time>2026-04-30T16:12:36.981Z</time></trkpt><trkpt lat="42.9013696" lon="12.047289"><ele>340.0</ele><time>2026-04-30T16:12:37.982Z</time></trkpt><trkpt lat="42.9014273" lon="12.0474892"><ele>343.66666666666663</ele><time>2026-04-30T16:12:38.981Z</time></trkpt><trkpt lat="42.9014475" lon="12.0476868"><ele>347.3333333333333</ele><time>2026-04-30T16:12:39.982Z</time></trkpt><trkpt lat="42.9014111" lon="12.0478824"><ele>351.0</ele><time>2026-04-30T16:12:40.981Z</time></trkpt><trkpt lat="42.9013341" lon="12.0480724"><ele>351.0</ele><time>2026-04-30T16:12:41.981Z</time></trkpt><trkpt lat="42.9012424" lon="12.0482805"><ele>351.0</ele><time>2026-04-30T16:12:42.981Z</time></trkpt><trkpt lat="42.9011638" lon="12.0485186"><ele>351.0</ele><time>2026-04-30T16:12:43.981Z</time></trkpt><trkpt lat="42.9010991" lon="12.0487776"><ele>351.3333333333333</ele><time>2026-04-30T16:12:44.982Z</time></trkpt><trkpt lat="42.9010522" lon="12.0490552"><ele>351.66666666666663</ele><time>2026-04-30T16:12:45.982Z</time></trkpt><trkpt lat="42.9010254" lon="12.0493481"><ele>352.0</ele><time>2026-04-30T16:12:46.981Z</time></trkpt><trkpt lat="42.9010182" lon="12.0496458"><ele>352.0</ele><time>2026-04-30T16:12:47.981Z</time></trkpt><trkpt lat="42.9010437" lon="12.0499512"><ele>352.0</ele><time>2026-04-30T16:12:48.981Z</time></trkpt><trkpt lat="42.9011068" lon="12.0502544"><ele>353.5</ele><time>2026-04-30T16:12:49.981Z</time></trkpt><trkpt lat="42.9012107" lon="12.050538"><ele>355.0</ele><time>2026-04-30T16:12:50.981Z</time></trkpt><trkpt lat="42.9013464" lon="12.0507922"><ele>360.0</ele><time>2026-04-30T16:12:51.981Z</time></trkpt><trkpt lat="42.9015174" lon="12.0510107"><ele>365.0</ele><time>2026-04-30T16:12:52.982Z</time></trkpt><trkpt lat="42.9017285" lon="12.051208"><ele>364.0</ele><time>2026-04-30T16:12:53.981Z</time></trkpt><trkpt lat="42.9019711" lon="12.0513668"><ele>363.0</ele><time>2026-04-30T16:12:54.981Z</time></trkpt><trkpt lat="42.9022249" lon="12.0515076"><ele>364.0</ele><time>2026-04-30T16:12:55.982Z</time></trkpt><trkpt lat="42.902479" lon="12.0516324"><ele>365.0</ele><time>2026-04-30T16:12:56.981Z</time></trkpt><trkpt lat="42.9027283" lon="12.0517633"><ele>368.5</ele><time>2026-04-30T16:12:57.982Z</time></trkpt><trkpt lat="42.9029625" lon="12.051912"><ele>372.0</ele><time>2026-04-30T16:12:58.981Z</time></trkpt><trkpt lat="42.903165" lon="12.0521015"><ele>372.0</ele><time>2026-04-30T16:12:59.981Z</time></trkpt><trkpt lat="42.903334" lon="12.0523377"><ele>372.0</ele><time>2026-04-30T16:13:00.981Z</time></trkpt><trkpt lat="42.9034992" lon="12.0525733"><ele>371.5</ele><time>2026-04-30T16:13:01.981Z</time></trkpt><trkpt lat="42.903682" lon="12.0527985"><ele>371.0</ele><time>2026-04-30T16:13:02.981Z</time></trkpt><trkpt lat="42.9038748" lon="12.0530196"><ele>371.0</ele><time>2026-04-30T16:13:03.981Z</time></trkpt><trkpt lat="42.9040818" lon="12.053226"><ele>371.0</ele><time>2026-04-30T16:13:04.981Z</time></trkpt><trkpt lat="42.9042938" lon="12.0533962"><ele>374.0</ele><time>2026-04-30T16:13:05.981Z</time></trkpt><trkpt lat="42.9044987" lon="12.0535337"><ele>377.0</ele><time>2026-04-30T16:13:06.982Z</time></trkpt><trkpt lat="42.9046611" lon="12.0536906"><ele>380.0</ele><time>2026-04-30T16:13:07.982Z</time></trkpt><trkpt lat="42.9047799" lon="12.0538832"><ele>380.0</ele><time>2026-04-30T16:13:08.982Z</time></trkpt><trkpt lat="42.9048647" lon="12.0541167"><ele>380.0</ele><time>2026-04-30T16:13:09.981Z</time></trkpt><trkpt lat="42.904926" lon="12.0543765"><ele>380.0</ele><time>2026-04-30T16:13:10.981Z</time></trkpt><trkpt lat="42.9049712" lon="12.0546538"><ele>381.0</ele><time>2026-04-30T16:13:11.982Z</time></trkpt><trkpt lat="42.9050042" lon="12.0549132"><ele>382.0</ele><time>2026-04-30T16:13:12.982Z</time></trkpt><trkpt lat="42.9050076" lon="12.0551627"><ele>383.0</ele><time>2026-04-30T16:13:13.981Z</time></trkpt><trkpt lat="42.9049594" lon="12.055404"><ele>383.0</ele><time>2026-04-30T16:13:14.982Z</time></trkpt><trkpt lat="42.904885" lon="12.0556324"><ele>383.0</ele><time>2026-04-30T16:13:15.981Z</time></trkpt><trkpt lat="42.9048368" lon="12.0558612"><ele>383.0</ele><time>2026-04-30T16:13:16.982Z</time></trkpt><trkpt lat="42.9048609" lon="12.0560916"><ele>384.0</ele><time>2026-04-30T16:13:17.981Z</time></trkpt><trkpt lat="42.904948" lon="12.0563043"><ele>385.0</ele><time>2026-04-30T16:13:18.981Z</time></trkpt><trkpt lat="42.9050596" lon="12.0565088"><ele>386.0</ele><time>2026-04-30T16:13:19.981Z</time></trkpt><trkpt lat="42.905167" lon="12.0567088"><ele>386.0</ele><time>2026-04-30T16:13:20.982Z</time></trkpt><trkpt lat="42.9052605" lon="12.0569097"><ele>386.0</ele><time>2026-04-30T16:13:21.981Z</time></trkpt><trkpt lat="42.9053362" lon="12.0571102"><ele>386.0</ele><time>2026-04-30T16:13:22.981Z</time></trkpt><trkpt lat="42.9053841" lon="12.0573128"><ele>390.66666666666663</ele><time>2026-04-30T16:13:23.981Z</time></trkpt><trkpt lat="42.9054131" lon="12.0575153"><ele>395.33333333333337</ele><time>2026-04-30T16:13:24.981Z</time></trkpt><trkpt lat="42.9054455" lon="12.0577248"><ele>400.0</ele><time>2026-04-30T16:13:25.981Z</time></trkpt><trkpt lat="42.9054999" lon="12.0579303"><ele>400.0</ele><time>2026-04-30T16:13:26.981Z</time></trkpt><trkpt lat="42.9055837" lon="12.0581113"><ele>400.0</ele><time>2026-04-30T16:13:27.981Z</time></trkpt><trkpt lat="42.9056967" lon="12.0582664"><ele>400.0</ele><time>2026-04-30T16:13:28.981Z</time></trkpt><trkpt lat="42.905824" lon="12.0583918"><ele>398.0</ele><time>2026-04-30T16:13:29.981Z</time></trkpt><trkpt lat="42.9059623" lon="12.0584948"><ele>396.0</ele><time>2026-04-30T16:13:30.982Z</time></trkpt><trkpt lat="42.9060967" lon="12.0586016"><ele>394.0</ele><time>2026-04-30T16:13:31.981Z</time></trkpt><trkpt lat="42.9062255" lon="12.0587267"><ele>394.0</ele><time>2026-04-30T16:13:32.981Z</time></trkpt><trkpt lat="42.9063241" lon="12.0588786"><ele>394.0</ele><time>2026-04-30T16:13:33.981Z</time></trkpt><trkpt lat="42.9064041" lon="12.0590551"><ele>394.0</ele><time>2026-04-30T16:13:34.981Z</time></trkpt><trkpt lat="42.9064718" lon="12.0592483"><ele>400.0</ele><time>2026-04-30T16:13:35.982Z</time></trkpt><trkpt lat="42.9065385" lon="12.0594525"><ele>406.0</ele><time>2026-04-30T16:13:36.982Z</time></trkpt><trkpt lat="42.9065979" lon="12.0596656"><ele>412.0</ele><time>2026-04-30T16:13:37.982Z</time></trkpt><trkpt lat="42.9066569" lon="12.0598784"><ele>410.6666666666667</ele><time>2026-04-30T16:13:38.981Z</time></trkpt><trkpt lat="42.9067081" lon="12.0600923"><ele>409.33333333333337</ele><time>2026-04-30T16:13:39.981Z</time></trkpt><trkpt lat="42.9067478" lon="12.0603184"><ele>408.0</ele><time>2026-04-30T16:13:40.981Z</time></trkpt><trkpt lat="42.9067746" lon="12.06055"><ele>408.0</ele><time>2026-04-30T16:13:41.981Z</time></trkpt><trkpt lat="42.9067724" lon="12.0607778"><ele>408.0</ele><time>2026-04-30T16:13:42.981Z</time></trkpt><trkpt lat="42.9067312" lon="12.0610034"><ele>408.0</ele><time>2026-04-30T16:13:43.981Z</time></trkpt><trkpt lat="42.9066479" lon="12.0612204"><ele>408.33333333333337</ele><time>2026-04-30T16:13:44.981Z</time></trkpt><trkpt lat="42.9065254" lon="12.0614062"><ele>408.6666666666667</ele><time>2026-04-30T16:13:45.981Z</time></trkpt><trkpt lat="42.906405" lon="12.0615718"><ele>409.0</ele><time>2026-04-30T16:13:46.981Z</time></trkpt><trkpt lat="42.9063165" lon="12.0617333"><ele>409.0</ele><time>2026-04-30T16:13:47.981Z</time></trkpt><trkpt lat="42.906276" lon="12.0619056"><ele>409.0</ele><time>2026-04-30T16:13:48.982Z</time></trkpt><trkpt lat="42.9062963" lon="12.0620727"><ele>409.0</ele><time>2026-04-30T16:13:49.982Z</time></trkpt><trkpt lat="42.9063601" lon="12.0622174"><ele>409.0</ele><time>2026-04-30T16:13:50.982Z</time></trkpt><trkpt lat="42.9064745" lon="12.0623185"><ele>409.0</ele><time>2026-04-30T16:13:51.981Z</time></trkpt><trkpt lat="42.9066291" lon="12.062377"><ele>409.0</ele><time>2026-04-30T16:13:52.981Z</time></trkpt><trkpt lat="42.9068089" lon="12.0624193"><ele>409.0</ele><time>2026-04-30T16:13:53.982Z</time></trkpt><trkpt lat="42.9069848" lon="12.0624892"><ele>409.0</ele><time>2026-04-30T16:13:54.981Z</time></trkpt><trkpt lat="42.9071503" lon="12.0626071"><ele>409.0</ele><time>2026-04-30T16:13:55.982Z</time></trkpt><trkpt lat="42.9072904" lon="12.0627898"><ele>409.0</ele><time>2026-04-30T16:13:56.982Z</time></trkpt><trkpt lat="42.9074152" lon="12.0630099"><ele>409.0</ele><time>2026-04-30T16:13:57.981Z</time></trkpt><trkpt lat="42.9075744" lon="12.0632086"><ele>409.0</ele><time>2026-04-30T16:13:58.981Z</time></trkpt><trkpt lat="42.9077605" lon="12.063371"><ele>409.0</ele><time>2026-04-30T16:13:59.981Z</time></trkpt><trkpt lat="42.907953" lon="12.0635226"><ele>413.0</ele><time>2026-04-30T16:14:00.981Z</time></trkpt><trkpt lat="42.9081409" lon="12.0637002"><ele>417.0</ele><time>2026-04-30T16:14:01.982Z</time></trkpt><trkpt lat="42.908319" lon="12.0639129"><ele>420.0</ele><time>2026-04-30T16:14:02.981Z</time></trkpt><trkpt lat="42.9084878" lon="12.0641526"><ele>423.0</ele><time>2026-04-30T16:14:03.981Z</time></trkpt><trkpt lat="42.908664" lon="12.0643965"><ele>423.0</ele><time>2026-04-30T16:14:04.981Z</time></trkpt><trkpt lat="42.9088461" lon="12.0646108"><ele>423.0</ele><time>2026-04-30T16:14:05.981Z</time></trkpt><trkpt lat="42.9090214" lon="12.0647991"><ele>422.0</ele><time>2026-04-30T16:14:06.981Z</time></trkpt><trkpt lat="42.9092042" lon="12.0649622"><ele>421.0</ele><time>2026-04-30T16:14:07.981Z</time></trkpt><trkpt lat="42.9094037" lon="12.0650801"><ele>420.0</ele><time>2026-04-30T16:14:08.981Z</time></trkpt><trkpt lat="42.9096286" lon="12.0651242"><ele>419.0</ele><time>2026-04-30T16:14:09.981Z</time></trkpt><trkpt lat="42.9098792" lon="12.0651203"><ele>418.0</ele><time>2026-04-30T16:14:10.981Z</time></trkpt><trkpt lat="42.9101435" lon="12.0651183"><ele>417.0</ele><time>2026-04-30T16:14:11.981Z</time></trkpt><trkpt lat="42.9104177" lon="12.0651376"><ele>416.0</ele><time>2026-04-30T16:14:12.982Z</time></trkpt><trkpt lat="42.9106991" lon="12.0651753"><ele>415.0</ele><time>2026-04-30T16:14:13.981Z</time></trkpt><trkpt lat="42.910975" lon="12.0652152"><ele>414.0</ele><time>2026-04-30T16:14:14.981Z</time></trkpt><trkpt lat="42.9112416" lon="12.0652488"><ele>414.0</ele><time>2026-04-30T16:14:15.982Z</time></trkpt><trkpt lat="42.9115006" lon="12.0652534"><ele>414.0</ele><time>2026-04-30T16:14:16.981Z</time></trkpt><trkpt lat="42.9117466" lon="12.0652149"><ele>414.5</ele><time>2026-04-30T16:14:17.981Z</time></trkpt><trkpt lat="42.9119809" lon="12.0651264"><ele>415.0</ele><time>2026-04-30T16:14:18.982Z</time></trkpt><trkpt lat="42.9122091" lon="12.065"><ele>418.5</ele><time>2026-04-30T16:14:19.981Z</time></trkpt><trkpt lat="42.9124186" lon="12.0648199"><ele>422.0</ele><time>2026-04-30T16:14:20.982Z</time></trkpt><trkpt lat="42.9126092" lon="12.0645948"><ele>422.0</ele><time>2026-04-30T16:14:21.981Z</time></trkpt><trkpt lat="42.9128007" lon="12.0643468"><ele>422.0</ele><time>2026-04-30T16:14:22.981Z</time></trkpt><trkpt lat="42.9129866" lon="12.0640987"><ele>426.0</ele><time>2026-04-30T16:14:23.981Z</time></trkpt><trkpt lat="42.9131583" lon="12.063858"><ele>430.0</ele><time>2026-04-30T16:14:24.982Z</time></trkpt><trkpt lat="42.9132952" lon="12.0636005"><ele>430.0</ele><time>2026-04-30T16:14:25.981Z</time></trkpt><trkpt lat="42.9133952" lon="12.0633404"><ele>430.0</ele><time>2026-04-30T16:14:26.982Z</time></trkpt><trkpt lat="42.913482" lon="12.0631029"><ele>430.0</ele><time>2026-04-30T16:14:27.981Z</time></trkpt><trkpt lat="42.913592" lon="12.0629114"><ele>430.5</ele><time>2026-04-30T16:14:28.981Z</time></trkpt><trkpt lat="42.913724" lon="12.0627747"><ele>431.0</ele><time>2026-04-30T16:14:29.981Z</time></trkpt><trkpt lat="42.9138664" lon="12.0627216"><ele>431.5</ele><time>2026-04-30T16:14:30.981Z</time></trkpt><trkpt lat="42.9139968" lon="12.0627572"><ele>432.0</ele><time>2026-04-30T16:14:31.981Z</time></trkpt><trkpt lat="42.9140978" lon="12.062882"><ele>432.0</ele><time>2026-04-30T16:14:32.981Z</time></trkpt><trkpt lat="42.9141741" lon="12.0630732"><ele>432.0</ele><time>2026-04-30T16:14:33.981Z</time></trkpt><trkpt lat="42.9142378" lon="12.0633035"><ele>432.0</ele><time>2026-04-30T16:14:34.982Z</time></trkpt><trkpt lat="42.9142919" lon="12.0635495"><ele>436.33333333333337</ele><time>2026-04-30T16:14:35.981Z</time></trkpt><trkpt lat="42.9143399" lon="12.0638073"><ele>440.6666666666667</ele><time>2026-04-30T16:14:36.981Z</time></trkpt><trkpt lat="42.91436" lon="12.0640611"><ele>445.0</ele><time>2026-04-30T16:14:37.981Z</time></trkpt><trkpt lat="42.9143522" lon="12.0642981"><ele>447.6666666666667</ele><time>2026-04-30T16:14:38.981Z</time></trkpt><trkpt lat="42.9143695" lon="12.0645232"><ele>450.33333333333337</ele><time>2026-04-30T16:14:39.981Z</time></trkpt><trkpt lat="42.9144411" lon="12.064718"><ele>453.0</ele><time>2026-04-30T16:14:40.981Z</time></trkpt><trkpt lat="42.9145606" lon="12.0648738"><ele>450.33333333333337</ele><time>2026-04-30T16:14:41.982Z</time></trkpt><trkpt lat="42.9147269" lon="12.0649722"><ele>447.6666666666667</ele><time>2026-04-30T16:14:42.981Z</time></trkpt><trkpt lat="42.9149209" lon="12.0650194"><ele>445.0</ele><time>2026-04-30T16:14:43.981Z</time></trkpt><trkpt lat="42.9151346" lon="12.0650132"><ele>449.6666666666667</ele><time>2026-04-30T16:14:44.982Z</time></trkpt><trkpt lat="42.9153386" lon="12.0649444"><ele>454.33333333333337</ele><time>2026-04-30T16:14:45.982Z</time></trkpt><trkpt lat="42.9155346" lon="12.0648121"><ele>459.0</ele><time>2026-04-30T16:14:46.981Z</time></trkpt><trkpt lat="42.915726" lon="12.064632"><ele>456.0</ele><time>2026-04-30T16:14:47.982Z</time></trkpt><trkpt lat="42.91593" lon="12.0644445"><ele>453.0</ele><time>2026-04-30T16:14:48.981Z</time></trkpt><trkpt lat="42.9161494" lon="12.0642781"><ele>453.0</ele><time>2026-04-30T16:14:49.981Z</time></trkpt><trkpt lat="42.916373" lon="12.0641374"><ele>453.0</ele><time>2026-04-30T16:14:50.981Z</time></trkpt><trkpt lat="42.9166061" lon="12.0640007"><ele>459.0</ele><time>2026-04-30T16:14:51.981Z</time></trkpt><trkpt lat="42.9168381" lon="12.0638663"><ele>465.0</ele><time>2026-04-30T16:14:52.981Z</time></trkpt><trkpt lat="42.9170754" lon="12.0637652"><ele>465.0</ele><time>2026-04-30T16:14:53.982Z</time></trkpt><trkpt lat="42.9172919" lon="12.0637056"><ele>465.0</ele><time>2026-04-30T16:14:54.981Z</time></trkpt><trkpt lat="42.9174895" lon="12.0636772"><ele>465.0</ele><time>2026-04-30T16:14:55.981Z</time></trkpt><trkpt lat="42.9176543" lon="12.0636333"><ele>463.0</ele><time>2026-04-30T16:14:56.981Z</time></trkpt><trkpt lat="42.9177704" lon="12.0635445"><ele>461.0</ele><time>2026-04-30T16:14:57.981Z</time></trkpt><trkpt lat="42.917828" lon="12.0634138"><ele>459.0</ele><time>2026-04-30T16:14:58.981Z</time></trkpt><trkpt lat="42.9178293" lon="12.063246"><ele>457.0</ele><time>2026-04-30T16:14:59.981Z</time></trkpt><trkpt lat="42.9177876" lon="12.0630451"><ele>457.0</ele><time>2026-04-30T16:15:00.981Z</time></trkpt><trkpt lat="42.9177442" lon="12.0628242"><ele>457.0</ele><time>2026-04-30T16:15:01.982Z</time></trkpt><trkpt lat="42.9177384" lon="12.0626071"><ele>457.0</ele><time>2026-04-30T16:15:02.981Z</time></trkpt><trkpt lat="42.917776" lon="12.062421"><ele>459.33333333333337</ele><time>2026-04-30T16:15:03.981Z</time></trkpt><trkpt lat="42.9178786" lon="12.0622536"><ele>461.66666666666663</ele><time>2026-04-30T16:15:04.981Z</time></trkpt><trkpt lat="42.9180283" lon="12.0621227"><ele>464.0</ele><time>2026-04-30T16:15:05.981Z</time></trkpt><trkpt lat="42.9181803" lon="12.0619576"><ele>464.0</ele><time>2026-04-30T16:15:06.981Z</time></trkpt><trkpt lat="42.9183097" lon="12.0617501"><ele>464.0</ele><time>2026-04-30T16:15:07.981Z</time></trkpt><trkpt lat="42.9184457" lon="12.0615358"><ele>464.0</ele><time>2026-04-30T16:15:08.981Z</time></trkpt><trkpt lat="42.9186209" lon="12.0613651"><ele>464.0</ele><time>2026-04-30T16:15:09.981Z</time></trkpt><trkpt lat="42.9188193" lon="12.0612361"><ele>464.0</ele><time>2026-04-30T16:15:10.981Z</time></trkpt><trkpt lat="42.9190349" lon="12.0611299"><ele>464.0</ele><time>2026-04-30T16:15:11.982Z</time></trkpt><trkpt lat="42.9192685" lon="12.0610659"><ele>466.5</ele><time>2026-04-30T16:15:12.981Z</time></trkpt><trkpt lat="42.9195117" lon="12.0610445"><ele>469.0</ele><time>2026-04-30T16:15:13.981Z</time></trkpt><trkpt lat="42.919758" lon="12.0610377"><ele>469.0</ele><time>2026-04-30T16:15:14.982Z</time></trkpt><trkpt lat="42.9200134" lon="12.061007"><ele>469.0</ele><time>2026-04-30T16:15:15.981Z</time></trkpt><trkpt lat="42.9202725" lon="12.0609321"><ele>468.5</ele><time>2026-04-30T16:15:16.981Z</time></trkpt><trkpt lat="42.9205125" lon="12.0608219"><ele>468.0</ele><time>2026-04-30T16:15:17.981Z</time></trkpt><trkpt lat="42.9207149" lon="12.0606683"><ele>468.0</ele><time>2026-04-30T16:15:18.981Z</time></trkpt><trkpt lat="42.9208777" lon="12.0604653"><ele>468.0</ele><time>2026-04-30T16:15:19.981Z</time></trkpt><trkpt lat="42.9210049" lon="12.0602216"><ele>468.0</ele><time>2026-04-30T16:15:20.982Z</time></trkpt><trkpt lat="42.9210827" lon="12.0599349"><ele>470.5</ele><time>2026-04-30T16:15:21.981Z</time></trkpt><trkpt lat="42.9211017" lon="12.059623"><ele>473.0</ele><time>2026-04-30T16:15:22.981Z</time></trkpt><trkpt lat="42.9210647" lon="12.059301"><ele>477.5</ele><time>2026-04-30T16:15:23.981Z</time></trkpt><trkpt lat="42.921002" lon="12.0589635"><ele>482.0</ele><time>2026-04-30T16:15:24.981Z</time></trkpt><trkpt lat="42.9209745" lon="12.0586203"><ele>482.0</ele><time>2026-04-30T16:15:25.981Z</time></trkpt><trkpt lat="42.9210025" lon="12.0583071"><ele>482.0</ele><time>2026-04-30T16:15:26.982Z</time></trkpt><trkpt lat="42.9210738" lon="12.0580456"><ele>482.0</ele><time>2026-04-30T16:15:27.981Z</time></trkpt><trkpt lat="42.9211662" lon="12.0578333"><ele>482.3333333333333</ele><time>2026-04-30T16:15:28.981Z</time></trkpt><trkpt lat="42.9212718" lon="12.0576452"><ele>482.66666666666663</ele><time>2026-04-30T16:15:29.981Z</time></trkpt><trkpt lat="42.9213996" lon="12.057486"><ele>483.0</ele><time>2026-04-30T16:15:30.981Z</time></trkpt><trkpt lat="42.9215345" lon="12.0573507"><ele>483.0</ele><time>2026-04-30T16:15:31.981Z</time></trkpt><trkpt lat="42.9216548" lon="12.0572256"><ele>483.0</ele><time>2026-04-30T16:15:32.981Z</time></trkpt><trkpt lat="42.9217459" lon="12.0570736"><ele>483.0</ele><time>2026-04-30T16:15:33.981Z</time></trkpt><trkpt lat="42.9218047" lon="12.0568944"><ele>483.0</ele><time>2026-04-30T16:15:34.981Z</time></trkpt><trkpt lat="42.9218127" lon="12.0566817"><ele>485.33333333333337</ele><time>2026-04-30T16:15:35.981Z</time></trkpt><trkpt lat="42.9217699" lon="12.0564667"><ele>487.6666666666667</ele><time>2026-04-30T16:15:36.982Z</time></trkpt><trkpt lat="42.9217052" lon="12.0562551"><ele>490.0</ele><time>2026-04-30T16:15:37.982Z</time></trkpt><trkpt lat="42.9216468" lon="12.0560444"><ele>490.0</ele><time>2026-04-30T16:15:38.981Z</time></trkpt><trkpt lat="42.921597" lon="12.055837"><ele>490.0</ele><time>2026-04-30T16:15:39.981Z</time></trkpt><trkpt lat="42.9215569" lon="12.0556266"><ele>490.0</ele><time>2026-04-30T16:15:40.981Z</time></trkpt><trkpt lat="42.9215329" lon="12.055411"><ele>490.0</ele><time>2026-04-30T16:15:41.981Z</time></trkpt><trkpt lat="42.9215255" lon="12.0552028"><ele>490.0</ele><time>2026-04-30T16:15:42.982Z</time></trkpt><trkpt lat="42.9215277" lon="12.0550057"><ele>490.0</ele><time>2026-04-30T16:15:43.981Z</time></trkpt><trkpt lat="42.9215259" lon="12.0548223"><ele>490.0</ele><time>2026-04-30T16:15:44.982Z</time></trkpt><trkpt lat="42.9215215" lon="12.0546525"><ele>490.00000000000006</ele><time>2026-04-30T16:15:45.982Z</time></trkpt><trkpt lat="42.9215112" lon="12.0545156"><ele>490.0</ele><time>2026-04-30T16:15:46.981Z</time></trkpt><trkpt lat="42.9215042" lon="12.0544229"><ele>490.0</ele><time>2026-04-30T16:15:47.982Z</time></trkpt><trkpt lat="42.9215061" lon="12.0543158"><ele>490.0</ele><time>2026-04-30T16:15:49.981Z</time></trkpt><trkpt lat="42.9215314" lon="12.0541888"><ele>490.00000000000006</ele><time>2026-04-30T16:15:51.982Z</time></trkpt><trkpt lat="42.9215258" lon="12.0541011"><ele>490.0</ele><time>2026-04-30T16:15:52.981Z</time></trkpt><trkpt lat="42.9215054" lon="12.0540013"><ele>490.50000000000006</ele><time>2026-04-30T16:15:53.982Z</time></trkpt><trkpt lat="42.9214725" lon="12.0538941"><ele>491.0</ele><time>2026-04-30T16:15:54.981Z</time></trkpt><trkpt lat="42.9214266" lon="12.0537853"><ele>491.5</ele><time>2026-04-30T16:15:55.981Z</time></trkpt><trkpt lat="42.9213785" lon="12.0536789"><ele>492.0</ele><time>2026-04-30T16:15:56.981Z</time></trkpt><trkpt lat="42.9213327" lon="12.0535808"><ele>492.50000000000006</ele><time>2026-04-30T16:15:57.981Z</time></trkpt><trkpt lat="42.9212917" lon="12.0534836"><ele>493.0</ele><time>2026-04-30T16:15:58.982Z</time></trkpt><trkpt lat="42.9212503" lon="12.0533923"><ele>493.0</ele><time>2026-04-30T16:15:59.982Z</time></trkpt><trkpt lat="42.9212034" lon="12.0532968"><ele>492.99999999999994</ele><time>2026-04-30T16:16:00.982Z</time></trkpt><trkpt lat="42.9211501" lon="12.0532034"><ele>492.99999999999994</ele><time>2026-04-30T16:16:01.981Z</time></trkpt><trkpt lat="42.9210989" lon="12.0531043"><ele>493.0</ele><time>2026-04-30T16:16:02.981Z</time></trkpt><trkpt lat="42.9210415" lon="12.0529916"><ele>493.0</ele><time>2026-04-30T16:16:03.981Z</time></trkpt><trkpt lat="42.9209776" lon="12.0528575"><ele>491.2</ele><time>2026-04-30T16:16:04.981Z</time></trkpt><trkpt lat="42.9209188" lon="12.0527202"><ele>489.4</ele><time>2026-04-30T16:16:05.982Z</time></trkpt><trkpt lat="42.9208618" lon="12.0525929"><ele>487.59999999999997</ele><time>2026-04-30T16:16:06.981Z</time></trkpt><trkpt lat="42.9207994" lon="12.0524692"><ele>485.79999999999995</ele><time>2026-04-30T16:16:07.981Z</time></trkpt><trkpt lat="42.9207381" lon="12.0523499"><ele>484.0</ele><time>2026-04-30T16:16:08.982Z</time></trkpt><trkpt lat="42.9206881" lon="12.0522299"><ele>483.4</ele><time>2026-04-30T16:16:09.981Z</time></trkpt><trkpt lat="42.9206396" lon="12.0521172"><ele>482.79999999999995</ele><time>2026-04-30T16:16:10.981Z</time></trkpt><trkpt lat="42.9205824" lon="12.0520106"><ele>482.20000000000005</ele><time>2026-04-30T16:16:11.982Z</time></trkpt><trkpt lat="42.9205201" lon="12.051909"><ele>481.6</ele><time>2026-04-30T16:16:12.982Z</time></trkpt><trkpt lat="42.9204593" lon="12.0518079"><ele>481.0</ele><time>2026-04-30T16:16:13.981Z</time></trkpt><trkpt lat="42.9204027" lon="12.0517003"><ele>483.25</ele><time>2026-04-30T16:16:14.981Z</time></trkpt><trkpt lat="42.9203518" lon="12.0515727"><ele>485.5</ele><time>2026-04-30T16:16:15.981Z</time></trkpt><trkpt lat="42.9203213" lon="12.051424"><ele>487.75</ele><time>2026-04-30T16:16:16.982Z</time></trkpt><trkpt lat="42.9203341" lon="12.0512649"><ele>490.0</ele><time>2026-04-30T16:16:17.981Z</time></trkpt><trkpt lat="42.9204005" lon="12.0511165"><ele>490.0</ele><time>2026-04-30T16:16:18.981Z</time></trkpt><trkpt lat="42.9205323" lon="12.0509881"><ele>490.0</ele><time>2026-04-30T16:16:19.981Z</time></trkpt><trkpt lat="42.9206901" lon="12.0508935"><ele>490.0</ele><time>2026-04-30T16:16:20.981Z</time></trkpt><trkpt lat="42.9208586" lon="12.0508213"><ele>491.6666666666667</ele><time>2026-04-30T16:16:21.981Z</time></trkpt><trkpt lat="42.9210527" lon="12.0507666"><ele>493.33333333333337</ele><time>2026-04-30T16:16:22.981Z</time></trkpt><trkpt lat="42.9212504" lon="12.0507203"><ele>495.0</ele><time>2026-04-30T16:16:23.982Z</time></trkpt><trkpt lat="42.9214369" lon="12.0506676"><ele>495.0</ele><time>2026-04-30T16:16:24.981Z</time></trkpt><trkpt lat="42.9215819" lon="12.050606"><ele>495.0</ele><time>2026-04-30T16:16:25.982Z</time></trkpt><trkpt lat="42.9217115" lon="12.050541"><ele>495.0</ele><time>2026-04-30T16:16:26.981Z</time></trkpt><trkpt lat="42.9217932" lon="12.0504311"><ele>495.0</ele><time>2026-04-30T16:16:27.981Z</time></trkpt><trkpt lat="42.9218291" lon="12.0502914"><ele>494.0</ele><time>2026-04-30T16:16:28.981Z</time></trkpt><trkpt lat="42.9218107" lon="12.0501287"><ele>493.0</ele><time>2026-04-30T16:16:29.981Z</time></trkpt><trkpt lat="42.9217481" lon="12.0499473"><ele>492.0</ele><time>2026-04-30T16:16:30.981Z</time></trkpt><trkpt lat="42.9216539" lon="12.049737"><ele>491.0</ele><time>2026-04-30T16:16:31.981Z</time></trkpt><trkpt lat="42.9215436" lon="12.049497"><ele>491.0</ele><time>2026-04-30T16:16:32.981Z</time></trkpt><trkpt lat="42.9214359" lon="12.0492368"><ele>491.0</ele><time>2026-04-30T16:16:33.981Z</time></trkpt><trkpt lat="42.921339" lon="12.0489533"><ele>491.0</ele><time>2026-04-30T16:16:34.982Z</time></trkpt><trkpt lat="42.9212368" lon="12.0486716"><ele>490.0</ele><time>2026-04-30T16:16:35.981Z</time></trkpt><trkpt lat="42.9211228" lon="12.0483751"><ele>489.0</ele><time>2026-04-30T16:16:36.981Z</time></trkpt><trkpt lat="42.92101" lon="12.0480593"><ele>493.5</ele><time>2026-04-30T16:16:37.981Z</time></trkpt><trkpt lat="42.9209107" lon="12.0477466"><ele>498.0</ele><time>2026-04-30T16:16:38.981Z</time></trkpt><trkpt lat="42.9208276" lon="12.047445"><ele>499.33333333333337</ele><time>2026-04-30T16:16:39.981Z</time></trkpt><trkpt lat="42.9207599" lon="12.0471635"><ele>500.6666666666667</ele><time>2026-04-30T16:16:40.982Z</time></trkpt><trkpt lat="42.9207324" lon="12.0469132"><ele>502.0</ele><time>2026-04-30T16:16:41.982Z</time></trkpt><trkpt lat="42.920758" lon="12.046695"><ele>502.33333333333337</ele><time>2026-04-30T16:16:42.982Z</time></trkpt><trkpt lat="42.9208354" lon="12.046521"><ele>502.66666666666663</ele><time>2026-04-30T16:16:43.981Z</time></trkpt><trkpt lat="42.920972" lon="12.0464011"><ele>503.0</ele><time>2026-04-30T16:16:44.982Z</time></trkpt><trkpt lat="42.9211413" lon="12.0463156"><ele>503.0</ele><time>2026-04-30T16:16:45.982Z</time></trkpt><trkpt lat="42.9213424" lon="12.0462469"><ele>503.0</ele><time>2026-04-30T16:16:46.982Z</time></trkpt><trkpt lat="42.9215392" lon="12.0461372"><ele>503.0</ele><time>2026-04-30T16:16:47.982Z</time></trkpt><trkpt lat="42.9217161" lon="12.0459994"><ele>502.66666666666663</ele><time>2026-04-30T16:16:48.981Z</time></trkpt><trkpt lat="42.9218744" lon="12.0458483"><ele>502.33333333333337</ele><time>2026-04-30T16:16:49.982Z</time></trkpt><trkpt lat="42.9219963" lon="12.0456764"><ele>502.0</ele><time>2026-04-30T16:16:50.981Z</time></trkpt><trkpt lat="42.922071" lon="12.045482"><ele>501.0</ele><time>2026-04-30T16:16:51.981Z</time></trkpt><trkpt lat="42.9220936" lon="12.045271"><ele>500.0</ele><time>2026-04-30T16:16:52.982Z</time></trkpt><trkpt lat="42.9220639" lon="12.0450613"><ele>499.0</ele><time>2026-04-30T16:16:53.981Z</time></trkpt><trkpt lat="42.9220036" lon="12.0448628"><ele>495.0</ele><time>2026-04-30T16:16:54.982Z</time></trkpt><trkpt lat="42.9219666" lon="12.0446736"><ele>491.0</ele><time>2026-04-30T16:16:55.981Z</time></trkpt><trkpt lat="42.9219757" lon="12.0444869"><ele>487.0</ele><time>2026-04-30T16:16:56.981Z</time></trkpt><trkpt lat="42.9220494" lon="12.044338"><ele>483.0</ele><time>2026-04-30T16:16:57.981Z</time></trkpt><trkpt lat="42.92218" lon="12.0442704"><ele>483.0</ele><time>2026-04-30T16:16:58.982Z</time></trkpt><trkpt lat="42.922335" lon="12.0442775"><ele>483.0</ele><time>2026-04-30T16:16:59.981Z</time></trkpt><trkpt lat="42.9225103" lon="12.044349"><ele>483.0</ele><time>2026-04-30T16:17:00.981Z</time></trkpt><trkpt lat="42.9226978" lon="12.044429"><ele>478.33333333333337</ele><time>2026-04-30T16:17:01.981Z</time></trkpt><trkpt lat="42.9228711" lon="12.0445134"><ele>473.6666666666667</ele><time>2026-04-30T16:17:02.981Z</time></trkpt><trkpt lat="42.9230311" lon="12.0446287"><ele>469.0</ele><time>2026-04-30T16:17:03.981Z</time></trkpt><trkpt lat="42.9231571" lon="12.0447907"><ele>471.0</ele><time>2026-04-30T16:17:04.981Z</time></trkpt><trkpt lat="42.9232465" lon="12.0449832"><ele>473.0</ele><time>2026-04-30T16:17:05.981Z</time></trkpt><trkpt lat="42.9233299" lon="12.045177"><ele>475.0</ele><time>2026-04-30T16:17:06.981Z</time></trkpt><trkpt lat="42.9234319" lon="12.0453404"><ele>475.0</ele><time>2026-04-30T16:17:07.981Z</time></trkpt><trkpt lat="42.9235647" lon="12.0454416"><ele>475.0</ele><time>2026-04-30T16:17:08.981Z</time></trkpt><trkpt lat="42.9237285" lon="12.0454593"><ele>475.0</ele><time>2026-04-30T16:17:09.981Z</time></trkpt><trkpt lat="42.9239034" lon="12.0454012"><ele>475.0</ele><time>2026-04-30T16:17:10.982Z</time></trkpt><trkpt lat="42.9240983" lon="12.0453045"><ele>475.0</ele><time>2026-04-30T16:17:11.982Z</time></trkpt><trkpt lat="42.924307" lon="12.0452391"><ele>475.0</ele><time>2026-04-30T16:17:12.982Z</time></trkpt><trkpt lat="42.9244964" lon="12.0452185"><ele>478.25</ele><time>2026-04-30T16:17:13.982Z</time></trkpt><trkpt lat="42.9246566" lon="12.0451914"><ele>481.5</ele><time>2026-04-30T16:17:14.981Z</time></trkpt><trkpt lat="42.9247677" lon="12.0450936"><ele>484.75</ele><time>2026-04-30T16:17:15.982Z</time></trkpt><trkpt lat="42.9248307" lon="12.0449378"><ele>488.0</ele><time>2026-04-30T16:17:16.981Z</time></trkpt><trkpt lat="42.9248596" lon="12.0447508"><ele>488.66666666666663</ele><time>2026-04-30T16:17:17.982Z</time></trkpt><trkpt lat="42.9248776" lon="12.0445413"><ele>489.33333333333337</ele><time>2026-04-30T16:17:18.982Z</time></trkpt><trkpt lat="42.9249191" lon="12.0443177"><ele>490.0</ele><time>2026-04-30T16:17:19.981Z</time></trkpt><trkpt lat="42.9250002" lon="12.0441088"><ele>494.33333333333337</ele><time>2026-04-30T16:17:20.982Z</time></trkpt><trkpt lat="42.9250793" lon="12.0439041"><ele>498.66666666666663</ele><time>2026-04-30T16:17:21.981Z</time></trkpt><trkpt lat="42.9251055" lon="12.0436841"><ele>503.0</ele><time>2026-04-30T16:17:22.981Z</time></trkpt><trkpt lat="42.9250639" lon="12.0434611"><ele>502.0</ele><time>2026-04-30T16:17:23.981Z</time></trkpt><trkpt lat="42.9249885" lon="12.0432239"><ele>501.0</ele><time>2026-04-30T16:17:24.982Z</time></trkpt><trkpt lat="42.9249192" lon="12.0429787"><ele>500.0</ele><time>2026-04-30T16:17:25.982Z</time></trkpt><trkpt lat="42.9248669" lon="12.0427237"><ele>500.3333333333333</ele><time>2026-04-30T16:17:26.982Z</time></trkpt><trkpt lat="42.9248435" lon="12.0424623"><ele>500.66666666666663</ele><time>2026-04-30T16:17:27.981Z</time></trkpt><trkpt lat="42.924856" lon="12.0422158"><ele>501.0</ele><time>2026-04-30T16:17:28.981Z</time></trkpt><trkpt lat="42.9249031" lon="12.0420002"><ele>501.0</ele><time>2026-04-30T16:17:29.981Z</time></trkpt><trkpt lat="42.9249972" lon="12.0418344"><ele>501.0</ele><time>2026-04-30T16:17:30.982Z</time></trkpt><trkpt lat="42.9251271" lon="12.0417359"><ele>501.0</ele><time>2026-04-30T16:17:31.981Z</time></trkpt><trkpt lat="42.9252626" lon="12.041732"><ele>501.0</ele><time>2026-04-30T16:17:32.981Z</time></trkpt><trkpt lat="42.9253994" lon="12.0417747"><ele>499.33333333333337</ele><time>2026-04-30T16:17:33.981Z</time></trkpt><trkpt lat="42.9255457" lon="12.0418546"><ele>497.6666666666667</ele><time>2026-04-30T16:17:34.981Z</time></trkpt><trkpt lat="42.9257001" lon="12.0419608"><ele>496.0</ele><time>2026-04-30T16:17:35.982Z</time></trkpt><trkpt lat="42.9258586" lon="12.0420811"><ele>493.6666666666667</ele><time>2026-04-30T16:17:36.981Z</time></trkpt><trkpt lat="42.9260119" lon="12.0422182"><ele>491.33333333333337</ele><time>2026-04-30T16:17:37.981Z</time></trkpt><trkpt lat="42.926152" lon="12.0423542"><ele>489.0</ele><time>2026-04-30T16:17:38.982Z</time></trkpt><trkpt lat="42.9262934" lon="12.0424474"><ele>489.0</ele><time>2026-04-30T16:17:39.981Z</time></trkpt><trkpt lat="42.9264266" lon="12.0424572"><ele>489.0</ele><time>2026-04-30T16:17:40.982Z</time></trkpt><trkpt lat="42.926537" lon="12.0423844"><ele>489.0</ele><time>2026-04-30T16:17:41.982Z</time></trkpt><trkpt lat="42.9265967" lon="12.0422376"><ele>489.0</ele><time>2026-04-30T16:17:42.982Z</time></trkpt><trkpt lat="42.9266093" lon="12.0420466"><ele>489.0</ele><time>2026-04-30T16:17:43.981Z</time></trkpt><trkpt lat="42.926564" lon="12.0418428"><ele>489.0</ele><time>2026-04-30T16:17:44.981Z</time></trkpt><trkpt lat="42.9264958" lon="12.0416229"><ele>489.0</ele><time>2026-04-30T16:17:45.981Z</time></trkpt><trkpt lat="42.9264559" lon="12.0413894"><ele>489.66666666666663</ele><time>2026-04-30T16:17:46.981Z</time></trkpt><trkpt lat="42.9264706" lon="12.0411702"><ele>490.3333333333333</ele><time>2026-04-30T16:17:47.981Z</time></trkpt><trkpt lat="42.9265355" lon="12.0409757"><ele>491.0</ele><time>2026-04-30T16:17:48.982Z</time></trkpt><trkpt lat="42.926654" lon="12.0408397"><ele>491.0</ele><time>2026-04-30T16:17:49.981Z</time></trkpt><trkpt lat="42.9267987" lon="12.0407757"><ele>491.0</ele><time>2026-04-30T16:17:50.982Z</time></trkpt><trkpt lat="42.9269346" lon="12.0406941"><ele>491.0</ele><time>2026-04-30T16:17:51.981Z</time></trkpt><trkpt lat="42.9270186" lon="12.0405613"><ele>491.0</ele><time>2026-04-30T16:17:52.982Z</time></trkpt><trkpt lat="42.9270352" lon="12.0403864"><ele>491.0</ele><time>2026-04-30T16:17:53.981Z</time></trkpt><trkpt lat="42.9270081" lon="12.0401772"><ele>491.0</ele><time>2026-04-30T16:17:54.982Z</time></trkpt><trkpt lat="42.9269451" lon="12.0399476"><ele>491.0</ele><time>2026-04-30T16:17:55.982Z</time></trkpt><trkpt lat="42.9268504" lon="12.0397231"><ele>491.3333333333333</ele><time>2026-04-30T16:17:56.982Z</time></trkpt><trkpt lat="42.9267595" lon="12.0395042"><ele>491.66666666666663</ele><time>2026-04-30T16:17:57.981Z</time></trkpt><trkpt lat="42.9267032" lon="12.039291"><ele>492.0</ele><time>2026-04-30T16:17:58.982Z</time></trkpt><trkpt lat="42.9267012" lon="12.0390945"><ele>494.0</ele><time>2026-04-30T16:17:59.982Z</time></trkpt><trkpt lat="42.926761" lon="12.0389354"><ele>496.0</ele><time>2026-04-30T16:18:00.981Z</time></trkpt><trkpt lat="42.9268907" lon="12.0388276"><ele>498.0</ele><time>2026-04-30T16:18:01.981Z</time></trkpt><trkpt lat="42.9270539" lon="12.0387525"><ele>498.0</ele><time>2026-04-30T16:18:02.981Z</time></trkpt><trkpt lat="42.927226" lon="12.038672"><ele>498.0</ele><time>2026-04-30T16:18:03.981Z</time></trkpt><trkpt lat="42.9273775" lon="12.0385399"><ele>498.0</ele><time>2026-04-30T16:18:04.981Z</time></trkpt><trkpt lat="42.9275085" lon="12.0383359"><ele>500.33333333333337</ele><time>2026-04-30T16:18:05.981Z</time></trkpt><trkpt lat="42.9276183" lon="12.0380851"><ele>502.6666666666667</ele><time>2026-04-30T16:18:06.981Z</time></trkpt><trkpt lat="42.9277288" lon="12.0378138"><ele>505.0</ele><time>2026-04-30T16:18:07.981Z</time></trkpt><trkpt lat="42.9278549" lon="12.0375819"><ele>500.6666666666667</ele><time>2026-04-30T16:18:08.981Z</time></trkpt><trkpt lat="42.9280117" lon="12.0374161"><ele>496.33333333333337</ele><time>2026-04-30T16:18:09.981Z</time></trkpt><trkpt lat="42.9281876" lon="12.0372929"><ele>492.0</ele><time>2026-04-30T16:18:10.981Z</time></trkpt><trkpt lat="42.9283484" lon="12.0371615"><ele>492.33333333333337</ele><time>2026-04-30T16:18:11.981Z</time></trkpt><trkpt lat="42.9284524" lon="12.0369769"><ele>492.6666666666667</ele><time>2026-04-30T16:18:12.981Z</time></trkpt><trkpt lat="42.9285247" lon="12.0367564"><ele>493.0</ele><time>2026-04-30T16:18:13.981Z</time></trkpt><trkpt lat="42.9286005" lon="12.0365688"><ele>493.0</ele><time>2026-04-30T16:18:14.981Z</time></trkpt><trkpt lat="42.92871" lon="12.0364697"><ele>493.0</ele><time>2026-04-30T16:18:15.981Z</time></trkpt><trkpt lat="42.9288465" lon="12.0364684"><ele>493.0</ele><time>2026-04-30T16:18:16.981Z</time></trkpt><trkpt lat="42.9289985" lon="12.0365579"><ele>493.0</ele><time>2026-04-30T16:18:17.981Z</time></trkpt><trkpt lat="42.9291598" lon="12.0367095"><ele>488.6666666666667</ele><time>2026-04-30T16:18:18.981Z</time></trkpt><trkpt lat="42.9293255" lon="12.0368956"><ele>484.33333333333337</ele><time>2026-04-30T16:18:19.982Z</time></trkpt><trkpt lat="42.9294882" lon="12.0370757"><ele>480.0</ele><time>2026-04-30T16:18:20.981Z</time></trkpt><trkpt lat="42.9296472" lon="12.0372481"><ele>480.0</ele><time>2026-04-30T16:18:21.981Z</time></trkpt><trkpt lat="42.9298214" lon="12.0373797"><ele>480.0</ele><time>2026-04-30T16:18:22.981Z</time></trkpt><trkpt lat="42.9299979" lon="12.03744"><ele>480.0</ele><time>2026-04-30T16:18:23.981Z</time></trkpt><trkpt lat="42.9302053" lon="12.0374269"><ele>484.5</ele><time>2026-04-30T16:18:24.981Z</time></trkpt><trkpt lat="42.9304288" lon="12.0373423"><ele>489.0</ele><time>2026-04-30T16:18:25.982Z</time></trkpt><trkpt lat="42.9306592" lon="12.0372465"><ele>492.5</ele><time>2026-04-30T16:18:26.982Z</time></trkpt><trkpt lat="42.9309095" lon="12.0371639"><ele>496.0</ele><time>2026-04-30T16:18:27.982Z</time></trkpt><trkpt lat="42.9311553" lon="12.0371381"><ele>496.0</ele><time>2026-04-30T16:18:28.981Z</time></trkpt><trkpt lat="42.9313758" lon="12.0371968"><ele>496.0</ele><time>2026-04-30T16:18:29.981Z</time></trkpt><trkpt lat="42.9315764" lon="12.0372753"><ele>496.0</ele><time>2026-04-30T16:18:30.981Z</time></trkpt><trkpt lat="42.9317488" lon="12.0373365"><ele>498.25</ele><time>2026-04-30T16:18:31.981Z</time></trkpt><trkpt lat="42.9318991" lon="12.037337"><ele>500.5</ele><time>2026-04-30T16:18:32.981Z</time></trkpt><trkpt lat="42.9320051" lon="12.0372522"><ele>502.75</ele><time>2026-04-30T16:18:33.981Z</time></trkpt><trkpt lat="42.9320559" lon="12.0370892"><ele>505.0</ele><time>2026-04-30T16:18:34.982Z</time></trkpt><trkpt lat="42.9320569" lon="12.0368943"><ele>505.0</ele><time>2026-04-30T16:18:35.981Z</time></trkpt><trkpt lat="42.9320336" lon="12.0366734"><ele>505.0</ele><time>2026-04-30T16:18:36.982Z</time></trkpt><trkpt lat="42.9320179" lon="12.0364304"><ele>505.0</ele><time>2026-04-30T16:18:37.982Z</time></trkpt><trkpt lat="42.9320174" lon="12.0361742"><ele>506.33333333333337</ele><time>2026-04-30T16:18:38.981Z</time></trkpt><trkpt lat="42.9320392" lon="12.0359112"><ele>507.66666666666663</ele><time>2026-04-30T16:18:39.981Z</time></trkpt><trkpt lat="42.9320858" lon="12.0356532"><ele>509.0</ele><time>2026-04-30T16:18:40.981Z</time></trkpt><trkpt lat="42.9321861" lon="12.0354085"><ele>509.3333333333333</ele><time>2026-04-30T16:18:41.981Z</time></trkpt><trkpt lat="42.932318" lon="12.0351882"><ele>509.66666666666663</ele><time>2026-04-30T16:18:42.981Z</time></trkpt><trkpt lat="42.9324655" lon="12.0349784"><ele>510.0</ele><time>2026-04-30T16:18:43.981Z</time></trkpt><trkpt lat="42.9326312" lon="12.0347657"><ele>508.0</ele><time>2026-04-30T16:18:44.981Z</time></trkpt><trkpt lat="42.9328014" lon="12.034568"><ele>506.0</ele><time>2026-04-30T16:18:45.982Z</time></trkpt><trkpt lat="42.9329777" lon="12.034362"><ele>506.0</ele><time>2026-04-30T16:18:46.981Z</time></trkpt><trkpt lat="42.9331523" lon="12.0341483"><ele>506.0</ele><time>2026-04-30T16:18:47.982Z</time></trkpt><trkpt lat="42.9333153" lon="12.0339383"><ele>505.3333333333333</ele><time>2026-04-30T16:18:48.981Z</time></trkpt><trkpt lat="42.9334575" lon="12.0337091"><ele>504.66666666666663</ele><time>2026-04-30T16:18:49.982Z</time></trkpt><trkpt lat="42.9335478" lon="12.0334373"><ele>504.0</ele><time>2026-04-30T16:18:50.981Z</time></trkpt><trkpt lat="42.9335803" lon="12.0331277"><ele>503.0</ele><time>2026-04-30T16:18:51.981Z</time></trkpt><trkpt lat="42.9335926" lon="12.032784"><ele>502.0</ele><time>2026-04-30T16:18:52.981Z</time></trkpt><trkpt lat="42.9336025" lon="12.0324234"><ele>501.5</ele><time>2026-04-30T16:18:53.981Z</time></trkpt><trkpt lat="42.9336093" lon="12.0320551"><ele>501.0</ele><time>2026-04-30T16:18:54.981Z</time></trkpt><trkpt lat="42.933609" lon="12.0316947"><ele>499.5</ele><time>2026-04-30T16:18:55.981Z</time></trkpt><trkpt lat="42.9335992" lon="12.0313322"><ele>498.0</ele><time>2026-04-30T16:18:56.982Z</time></trkpt><trkpt lat="42.9335748" lon="12.0309829"><ele>498.5</ele><time>2026-04-30T16:18:57.981Z</time></trkpt><trkpt lat="42.9335437" lon="12.0306388"><ele>499.0</ele><time>2026-04-30T16:18:58.982Z</time></trkpt><trkpt lat="42.9335252" lon="12.030304"><ele>499.0</ele><time>2026-04-30T16:18:59.981Z</time></trkpt><trkpt lat="42.9335395" lon="12.0299865"><ele>499.0</ele><time>2026-04-30T16:19:00.981Z</time></trkpt><trkpt lat="42.9336026" lon="12.0296868"><ele>502.5</ele><time>2026-04-30T16:19:01.981Z</time></trkpt><trkpt lat="42.9336947" lon="12.0293859"><ele>506.0</ele><time>2026-04-30T16:19:02.982Z</time></trkpt><trkpt lat="42.9337783" lon="12.029077"><ele>508.0</ele><time>2026-04-30T16:19:03.982Z</time></trkpt><trkpt lat="42.9338585" lon="12.0287927"><ele>510.0</ele><time>2026-04-30T16:19:04.981Z</time></trkpt><trkpt lat="42.9339695" lon="12.0285799"><ele>512.0</ele><time>2026-04-30T16:19:05.981Z</time></trkpt><trkpt lat="42.9341214" lon="12.0284472"><ele>511.66666666666663</ele><time>2026-04-30T16:19:06.981Z</time></trkpt><trkpt lat="42.9342788" lon="12.0283534"><ele>511.33333333333337</ele><time>2026-04-30T16:19:07.982Z</time></trkpt><trkpt lat="42.9344298" lon="12.0282495"><ele>511.0</ele><time>2026-04-30T16:19:08.982Z</time></trkpt><trkpt lat="42.9345585" lon="12.028085"><ele>513.0</ele><time>2026-04-30T16:19:09.981Z</time></trkpt><trkpt lat="42.9346581" lon="12.0278438"><ele>515.0</ele><time>2026-04-30T16:19:10.982Z</time></trkpt><trkpt lat="42.9347047" lon="12.0275409"><ele>517.0</ele><time>2026-04-30T16:19:11.982Z</time></trkpt><trkpt lat="42.9347326" lon="12.0272284"><ele>517.5</ele><time>2026-04-30T16:19:12.982Z</time></trkpt><trkpt lat="42.9347777" lon="12.0269223"><ele>518.0</ele><time>2026-04-30T16:19:13.981Z</time></trkpt><trkpt lat="42.9348621" lon="12.0266348"><ele>518.0</ele><time>2026-04-30T16:19:14.982Z</time></trkpt><trkpt lat="42.93501" lon="12.0263753"><ele>518.0</ele><time>2026-04-30T16:19:15.981Z</time></trkpt><trkpt lat="42.9351894" lon="12.0261352"><ele>518.0</ele><time>2026-04-30T16:19:16.981Z</time></trkpt><trkpt lat="42.9353766" lon="12.025901"><ele>518.0</ele><time>2026-04-30T16:19:17.981Z</time></trkpt><trkpt lat="42.9355583" lon="12.0256758"><ele>518.0</ele><time>2026-04-30T16:19:18.981Z</time></trkpt><trkpt lat="42.9357219" lon="12.0254463"><ele>518.0</ele><time>2026-04-30T16:19:19.981Z</time></trkpt><trkpt lat="42.9358623" lon="12.0251919"><ele>518.5</ele><time>2026-04-30T16:19:20.981Z</time></trkpt><trkpt lat="42.9359838" lon="12.0249213"><ele>519.0</ele><time>2026-04-30T16:19:21.982Z</time></trkpt><trkpt lat="42.9360939" lon="12.0246477"><ele>519.0</ele><time>2026-04-30T16:19:22.981Z</time></trkpt><trkpt lat="42.9361899" lon="12.0243635"><ele>519.0</ele><time>2026-04-30T16:19:23.982Z</time></trkpt><trkpt lat="42.9362587" lon="12.0240499"><ele>519.5</ele><time>2026-04-30T16:19:24.981Z</time></trkpt><trkpt lat="42.9362951" lon="12.0237333"><ele>520.0</ele><time>2026-04-30T16:19:25.981Z</time></trkpt><trkpt lat="42.9363145" lon="12.0234184"><ele>513.0</ele><time>2026-04-30T16:19:26.981Z</time></trkpt><trkpt lat="42.9363707" lon="12.0231129"><ele>506.0</ele><time>2026-04-30T16:19:27.981Z</time></trkpt><trkpt lat="42.9364595" lon="12.022819"><ele>506.0</ele><time>2026-04-30T16:19:28.981Z</time></trkpt><trkpt lat="42.9365812" lon="12.0225339"><ele>506.0</ele><time>2026-04-30T16:19:29.981Z</time></trkpt><trkpt lat="42.9367174" lon="12.0222937"><ele>500.5</ele><time>2026-04-30T16:19:30.981Z</time></trkpt><trkpt lat="42.9368952" lon="12.0221102"><ele>495.0</ele><time>2026-04-30T16:19:31.981Z</time></trkpt><trkpt lat="42.9371025" lon="12.0219653"><ele>495.0</ele><time>2026-04-30T16:19:32.981Z</time></trkpt><trkpt lat="42.9373252" lon="12.0218141"><ele>495.0</ele><time>2026-04-30T16:19:33.982Z</time></trkpt><trkpt lat="42.9375421" lon="12.0215955"><ele>496.0</ele><time>2026-04-30T16:19:34.981Z</time></trkpt><trkpt lat="42.9377329" lon="12.0213251"><ele>497.0</ele><time>2026-04-30T16:19:35.981Z</time></trkpt><trkpt lat="42.9379267" lon="12.0210746"><ele>497.0</ele><time>2026-04-30T16:19:36.981Z</time></trkpt><trkpt lat="42.9381444" lon="12.0208912"><ele>497.0</ele><time>2026-04-30T16:19:37.981Z</time></trkpt><trkpt lat="42.9383736" lon="12.0207711"><ele>498.0</ele><time>2026-04-30T16:19:38.981Z</time></trkpt><trkpt lat="42.9385798" lon="12.0206675"><ele>499.0</ele><time>2026-04-30T16:19:39.982Z</time></trkpt><trkpt lat="42.9387543" lon="12.0205006"><ele>500.0</ele><time>2026-04-30T16:19:40.981Z</time></trkpt><trkpt lat="42.9388896" lon="12.0202628"><ele>503.0</ele><time>2026-04-30T16:19:41.981Z</time></trkpt><trkpt lat="42.9389912" lon="12.019983"><ele>506.0</ele><time>2026-04-30T16:19:42.982Z</time></trkpt><trkpt lat="42.9391009" lon="12.0197028"><ele>503.0</ele><time>2026-04-30T16:19:43.982Z</time></trkpt><trkpt lat="42.9392599" lon="12.0194525"><ele>500.0</ele><time>2026-04-30T16:19:44.981Z</time></trkpt><trkpt lat="42.9394441" lon="12.0191992"><ele>503.5</ele><time>2026-04-30T16:19:45.981Z</time></trkpt><trkpt lat="42.9396325" lon="12.018934"><ele>507.0</ele><time>2026-04-30T16:19:46.981Z</time></trkpt><trkpt lat="42.9398129" lon="12.0186616"><ele>507.0</ele><time>2026-04-30T16:19:47.981Z</time></trkpt><trkpt lat="42.9399962" lon="12.0183959"><ele>507.0</ele><time>2026-04-30T16:19:48.982Z</time></trkpt><trkpt lat="42.9401926" lon="12.0181441"><ele>507.0</ele><time>2026-04-30T16:19:49.981Z</time></trkpt><trkpt lat="42.9404045" lon="12.0179059"><ele>507.0</ele><time>2026-04-30T16:19:50.981Z</time></trkpt><trkpt lat="42.9406189" lon="12.017673"><ele>508.5</ele><time>2026-04-30T16:19:51.981Z</time></trkpt><trkpt lat="42.9408251" lon="12.017412"><ele>510.0</ele><time>2026-04-30T16:19:52.981Z</time></trkpt><trkpt lat="42.941005" lon="12.0171238"><ele>510.0</ele><time>2026-04-30T16:19:53.982Z</time></trkpt><trkpt lat="42.9411515" lon="12.0168248"><ele>510.0</ele><time>2026-04-30T16:19:54.981Z</time></trkpt><trkpt lat="42.9412767" lon="12.0165154"><ele>510.0</ele><time>2026-04-30T16:19:55.981Z</time></trkpt><trkpt lat="42.9413889" lon="12.0162128"><ele>510.0</ele><time>2026-04-30T16:19:56.981Z</time></trkpt><trkpt lat="42.9415207" lon="12.0159324"><ele>510.0</ele><time>2026-04-30T16:19:57.981Z</time></trkpt><trkpt lat="42.9416696" lon="12.0156854"><ele>510.0</ele><time>2026-04-30T16:19:58.982Z</time></trkpt><trkpt lat="42.9418286" lon="12.0154793"><ele>510.0</ele><time>2026-04-30T16:19:59.981Z</time></trkpt><trkpt lat="42.9419877" lon="12.0153037"><ele>510.0</ele><time>2026-04-30T16:20:00.981Z</time></trkpt><trkpt lat="42.942149" lon="12.0151417"><ele>510.0</ele><time>2026-04-30T16:20:01.981Z</time></trkpt><trkpt lat="42.9423004" lon="12.0149579"><ele>511.33333333333337</ele><time>2026-04-30T16:20:02.982Z</time></trkpt><trkpt lat="42.9424179" lon="12.0147301"><ele>512.6666666666667</ele><time>2026-04-30T16:20:03.981Z</time></trkpt><trkpt lat="42.9425127" lon="12.0144787"><ele>514.0</ele><time>2026-04-30T16:20:04.981Z</time></trkpt><trkpt lat="42.9425796" lon="12.0142134"><ele>512.0</ele><time>2026-04-30T16:20:05.981Z</time></trkpt><trkpt lat="42.9426419" lon="12.0139674"><ele>510.0</ele><time>2026-04-30T16:20:06.982Z</time></trkpt><trkpt lat="42.9426954" lon="12.0137497"><ele>508.0</ele><time>2026-04-30T16:20:07.981Z</time></trkpt><trkpt lat="42.942743" lon="12.0135559"><ele>508.0</ele><time>2026-04-30T16:20:08.981Z</time></trkpt><trkpt lat="42.9427814" lon="12.0133691"><ele>508.0</ele><time>2026-04-30T16:20:09.982Z</time></trkpt><trkpt lat="42.9428105" lon="12.0131811"><ele>508.0</ele><time>2026-04-30T16:20:10.981Z</time></trkpt><trkpt lat="42.9428481" lon="12.0129953"><ele>508.0</ele><time>2026-04-30T16:20:11.981Z</time></trkpt><trkpt lat="42.9428851" lon="12.0128167"><ele>507.75</ele><time>2026-04-30T16:20:12.981Z</time></trkpt><trkpt lat="42.9429287" lon="12.0126324"><ele>507.5</ele><time>2026-04-30T16:20:13.981Z</time></trkpt><trkpt lat="42.94298" lon="12.0124421"><ele>507.25</ele><time>2026-04-30T16:20:14.981Z</time></trkpt><trkpt lat="42.9430386" lon="12.0122482"><ele>507.0</ele><time>2026-04-30T16:20:15.982Z</time></trkpt><trkpt lat="42.9431029" lon="12.0120602"><ele>503.0</ele><time>2026-04-30T16:20:16.981Z</time></trkpt><trkpt lat="42.9431729" lon="12.0118777"><ele>499.0</ele><time>2026-04-30T16:20:17.982Z</time></trkpt><trkpt lat="42.9432587" lon="12.0117082"><ele>495.0</ele><time>2026-04-30T16:20:18.981Z</time></trkpt><trkpt lat="42.9433519" lon="12.0115438"><ele>493.66666666666663</ele><time>2026-04-30T16:20:19.981Z</time></trkpt><trkpt lat="42.9434544" lon="12.0113866"><ele>492.3333333333333</ele><time>2026-04-30T16:20:20.982Z</time></trkpt><trkpt lat="42.9435664" lon="12.0112175"><ele>491.0</ele><time>2026-04-30T16:20:21.981Z</time></trkpt><trkpt lat="42.9436823" lon="12.0110647"><ele>491.0</ele><time>2026-04-30T16:20:22.981Z</time></trkpt><trkpt lat="42.9438042" lon="12.010924"><ele>491.0</ele><time>2026-04-30T16:20:23.981Z</time></trkpt><trkpt lat="42.9439324" lon="12.0108022"><ele>491.0</ele><time>2026-04-30T16:20:24.981Z</time></trkpt><trkpt lat="42.9440642" lon="12.0107009"><ele>491.0</ele><time>2026-04-30T16:20:25.981Z</time></trkpt><trkpt lat="42.944193" lon="12.0106127"><ele>491.0</ele><time>2026-04-30T16:20:26.982Z</time></trkpt><trkpt lat="42.9443239" lon="12.0105212"><ele>491.0</ele><time>2026-04-30T16:20:27.982Z</time></trkpt><trkpt lat="42.9444472" lon="12.0104239"><ele>491.0</ele><time>2026-04-30T16:20:28.981Z</time></trkpt><trkpt lat="42.9445668" lon="12.0103146"><ele>491.0</ele><time>2026-04-30T16:20:29.981Z</time></trkpt><trkpt lat="42.9446768" lon="12.0101893"><ele>491.0</ele><time>2026-04-30T16:20:30.981Z</time></trkpt><trkpt lat="42.9447891" lon="12.0100402"><ele>491.0</ele><time>2026-04-30T16:20:31.981Z</time></trkpt><trkpt lat="42.9448949" lon="12.0098807"><ele>488.75</ele><time>2026-04-30T16:20:32.981Z</time></trkpt><trkpt lat="42.9449958" lon="12.0097217"><ele>486.5</ele><time>2026-04-30T16:20:33.981Z</time></trkpt><trkpt lat="42.9450909" lon="12.00958"><ele>484.25</ele><time>2026-04-30T16:20:34.981Z</time></trkpt><trkpt lat="42.9451897" lon="12.0094535"><ele>482.0</ele><time>2026-04-30T16:20:35.981Z</time></trkpt><trkpt lat="42.9452917" lon="12.0092922"><ele>487.0</ele><time>2026-04-30T16:20:36.982Z</time></trkpt><trkpt lat="42.9453936" lon="12.0090802"><ele>492.0</ele><time>2026-04-30T16:20:37.981Z</time></trkpt><trkpt lat="42.9454905" lon="12.0088341"><ele>497.0</ele><time>2026-04-30T16:20:38.981Z</time></trkpt><trkpt lat="42.9455734" lon="12.0085701"><ele>494.3333333333333</ele><time>2026-04-30T16:20:39.981Z</time></trkpt><trkpt lat="42.945663" lon="12.0083072"><ele>491.66666666666663</ele><time>2026-04-30T16:20:40.982Z</time></trkpt><trkpt lat="42.9457782" lon="12.0081004"><ele>489.0</ele><time>2026-04-30T16:20:41.982Z</time></trkpt><trkpt lat="42.9459195" lon="12.0079534"><ele>488.0</ele><time>2026-04-30T16:20:42.981Z</time></trkpt><trkpt lat="42.946093" lon="12.0078736"><ele>487.0</ele><time>2026-04-30T16:20:43.982Z</time></trkpt><trkpt lat="42.946279" lon="12.0078469"><ele>486.0</ele><time>2026-04-30T16:20:44.981Z</time></trkpt><trkpt lat="42.946476" lon="12.0078568"><ele>486.0</ele><time>2026-04-30T16:20:45.981Z</time></trkpt><trkpt lat="42.9466685" lon="12.007856"><ele>486.0</ele><time>2026-04-30T16:20:46.982Z</time></trkpt><trkpt lat="42.9468491" lon="12.0078136"><ele>486.0</ele><time>2026-04-30T16:20:47.981Z</time></trkpt><trkpt lat="42.9469916" lon="12.0077077"><ele>488.0</ele><time>2026-04-30T16:20:48.981Z</time></trkpt><trkpt lat="42.9470964" lon="12.0075423"><ele>490.0</ele><time>2026-04-30T16:20:49.982Z</time></trkpt><trkpt lat="42.9471383" lon="12.007323"><ele>492.0</ele><time>2026-04-30T16:20:50.982Z</time></trkpt><trkpt lat="42.9471393" lon="12.0070787"><ele>492.0</ele><time>2026-04-30T16:20:51.982Z</time></trkpt><trkpt lat="42.9471354" lon="12.0068197"><ele>492.0</ele><time>2026-04-30T16:20:52.981Z</time></trkpt><trkpt lat="42.9471305" lon="12.0065677"><ele>492.0</ele><time>2026-04-30T16:20:53.982Z</time></trkpt><trkpt lat="42.9471404" lon="12.0063283"><ele>492.0</ele><time>2026-04-30T16:20:54.981Z</time></trkpt><trkpt lat="42.9471745" lon="12.0061326"><ele>492.0</ele><time>2026-04-30T16:20:55.982Z</time></trkpt><trkpt lat="42.9472583" lon="12.0059915"><ele>492.0</ele><time>2026-04-30T16:20:56.981Z</time></trkpt><trkpt lat="42.9473818" lon="12.0059305"><ele>492.0</ele><time>2026-04-30T16:20:57.981Z</time></trkpt><trkpt lat="42.9475219" lon="12.0059417"><ele>493.66666666666663</ele><time>2026-04-30T16:20:58.981Z</time></trkpt><trkpt lat="42.9476736" lon="12.0059895"><ele>495.3333333333333</ele><time>2026-04-30T16:20:59.981Z</time></trkpt><trkpt lat="42.947831" lon="12.0060403"><ele>497.0</ele><time>2026-04-30T16:21:00.981Z</time></trkpt><trkpt lat="42.947977" lon="12.0060539"><ele>497.0</ele><time>2026-04-30T16:21:01.982Z</time></trkpt><trkpt lat="42.9481162" lon="12.0060387"><ele>497.0</ele><time>2026-04-30T16:21:02.981Z</time></trkpt><trkpt lat="42.9482495" lon="12.0059759"><ele>497.0</ele><time>2026-04-30T16:21:03.982Z</time></trkpt><trkpt lat="42.9483817" lon="12.0058452"><ele>497.0</ele><time>2026-04-30T16:21:04.981Z</time></trkpt><trkpt lat="42.9485292" lon="12.0056867"><ele>495.66666666666663</ele><time>2026-04-30T16:21:05.981Z</time></trkpt><trkpt lat="42.9486849" lon="12.0055388"><ele>494.33333333333337</ele><time>2026-04-30T16:21:06.981Z</time></trkpt><trkpt lat="42.9488406" lon="12.0054037"><ele>493.0</ele><time>2026-04-30T16:21:07.981Z</time></trkpt><trkpt lat="42.9490052" lon="12.0052845"><ele>493.0</ele><time>2026-04-30T16:21:08.981Z</time></trkpt><trkpt lat="42.9491742" lon="12.0051654"><ele>493.0</ele><time>2026-04-30T16:21:09.981Z</time></trkpt><trkpt lat="42.9493353" lon="12.0050517"><ele>493.0</ele><time>2026-04-30T16:21:10.981Z</time></trkpt><trkpt lat="42.9494894" lon="12.0049344"><ele>491.33333333333337</ele><time>2026-04-30T16:21:11.982Z</time></trkpt><trkpt lat="42.9496501" lon="12.0048313"><ele>489.66666666666663</ele><time>2026-04-30T16:21:12.981Z</time></trkpt><trkpt lat="42.9498149" lon="12.0047448"><ele>488.0</ele><time>2026-04-30T16:21:13.981Z</time></trkpt><trkpt lat="42.9499782" lon="12.0046528"><ele>489.3333333333333</ele><time>2026-04-30T16:21:14.982Z</time></trkpt><trkpt lat="42.9501321" lon="12.0045691"><ele>490.66666666666663</ele><time>2026-04-30T16:21:15.982Z</time></trkpt><trkpt lat="42.9502757" lon="12.0044893"><ele>492.0</ele><time>2026-04-30T16:21:16.981Z</time></trkpt><trkpt lat="42.9504139" lon="12.0044222"><ele>492.0</ele><time>2026-04-30T16:21:17.981Z</time></trkpt><trkpt lat="42.9505446" lon="12.0043566"><ele>492.0</ele><time>2026-04-30T16:21:18.981Z</time></trkpt><trkpt lat="42.9506734" lon="12.0043085"><ele>492.0</ele><time>2026-04-30T16:21:19.981Z</time></trkpt><trkpt lat="42.9507993" lon="12.0042838"><ele>492.0</ele><time>2026-04-30T16:21:20.982Z</time></trkpt><trkpt lat="42.9509194" lon="12.0043012"><ele>494.25</ele><time>2026-04-30T16:21:21.981Z</time></trkpt><trkpt lat="42.9510355" lon="12.004338"><ele>496.5</ele><time>2026-04-30T16:21:22.981Z</time></trkpt><trkpt lat="42.9511379" lon="12.0044019"><ele>498.75</ele><time>2026-04-30T16:21:23.982Z</time></trkpt><trkpt lat="42.9512295" lon="12.0044718"><ele>501.0</ele><time>2026-04-30T16:21:24.981Z</time></trkpt><trkpt lat="42.9513305" lon="12.0045705"><ele>501.0</ele><time>2026-04-30T16:21:25.981Z</time></trkpt><trkpt lat="42.9514328" lon="12.004694"><ele>501.0</ele><time>2026-04-30T16:21:26.981Z</time></trkpt><trkpt lat="42.9515302" lon="12.0047883"><ele>501.0</ele><time>2026-04-30T16:21:27.982Z</time></trkpt><trkpt lat="42.9516237" lon="12.0048715"><ele>501.0</ele><time>2026-04-30T16:21:28.981Z</time></trkpt><trkpt lat="42.9517022" lon="12.0049577"><ele>503.0</ele><time>2026-04-30T16:21:29.982Z</time></trkpt><trkpt lat="42.9517741" lon="12.005038"><ele>505.0</ele><time>2026-04-30T16:21:30.982Z</time></trkpt><trkpt lat="42.9518333" lon="12.0051293"><ele>507.0</ele><time>2026-04-30T16:21:31.981Z</time></trkpt><trkpt lat="42.9518774" lon="12.0052321"><ele>509.0</ele><time>2026-04-30T16:21:32.981Z</time></trkpt><trkpt lat="42.9519106" lon="12.0053591"><ele>511.0</ele><time>2026-04-30T16:21:33.981Z</time></trkpt><trkpt lat="42.9519612" lon="12.005499"><ele>511.0</ele><time>2026-04-30T16:21:34.981Z</time></trkpt><trkpt lat="42.9520385" lon="12.0056323"><ele>511.0</ele><time>2026-04-30T16:21:35.981Z</time></trkpt><trkpt lat="42.9521448" lon="12.0057491"><ele>511.0</ele><time>2026-04-30T16:21:36.981Z</time></trkpt><trkpt lat="42.952272" lon="12.0058524"><ele>511.0</ele><time>2026-04-30T16:21:37.981Z</time></trkpt><trkpt lat="42.9524128" lon="12.0059328"><ele>509.6666666666667</ele><time>2026-04-30T16:21:38.981Z</time></trkpt><trkpt lat="42.9525695" lon="12.0059994"><ele>508.33333333333337</ele><time>2026-04-30T16:21:39.981Z</time></trkpt><trkpt lat="42.9527288" lon="12.0060549"><ele>507.0</ele><time>2026-04-30T16:21:40.981Z</time></trkpt><trkpt lat="42.9528859" lon="12.0061129"><ele>507.0</ele><time>2026-04-30T16:21:41.981Z</time></trkpt><trkpt lat="42.9530337" lon="12.0061536"><ele>507.0</ele><time>2026-04-30T16:21:42.981Z</time></trkpt><trkpt lat="42.953163" lon="12.00616"><ele>507.0</ele><time>2026-04-30T16:21:43.981Z</time></trkpt><trkpt lat="42.9532753" lon="12.0061285"><ele>507.0</ele><time>2026-04-30T16:21:44.981Z</time></trkpt><trkpt lat="42.9533688" lon="12.0060648"><ele>506.6666666666667</ele><time>2026-04-30T16:21:45.981Z</time></trkpt><trkpt lat="42.9534464" lon="12.0059704"><ele>506.33333333333337</ele><time>2026-04-30T16:21:46.982Z</time></trkpt><trkpt lat="42.9534992" lon="12.0058703"><ele>506.0</ele><time>2026-04-30T16:21:47.981Z</time></trkpt><trkpt lat="42.9535357" lon="12.0057648"><ele>505.6666666666667</ele><time>2026-04-30T16:21:48.981Z</time></trkpt><trkpt lat="42.9535535" lon="12.0056778"><ele>505.33333333333337</ele><time>2026-04-30T16:21:49.982Z</time></trkpt><trkpt lat="42.953585" lon="12.0055694"><ele>505.0</ele><time>2026-04-30T16:21:51.981Z</time></trkpt><trkpt lat="42.9536372" lon="12.0054819"><ele>504.8</ele><time>2026-04-30T16:21:54.981Z</time></trkpt><trkpt lat="42.953657" lon="12.0053992"><ele>504.6</ele><time>2026-04-30T16:21:56.981Z</time></trkpt><trkpt lat="42.9536705" lon="12.0052515"><ele>504.4</ele><time>2026-04-30T16:21:58.982Z</time></trkpt><trkpt lat="42.9536789" lon="12.0051338"><ele>504.2</ele><time>2026-04-30T16:21:59.981Z</time></trkpt><trkpt lat="42.953702" lon="12.0049815"><ele>504.0</ele><time>2026-04-30T16:22:00.981Z</time></trkpt><trkpt lat="42.9537155" lon="12.0048195"><ele>504.0</ele><time>2026-04-30T16:22:01.981Z</time></trkpt><trkpt lat="42.9537338" lon="12.0046724"><ele>504.0</ele><time>2026-04-30T16:22:02.981Z</time></trkpt><trkpt lat="42.9537732" lon="12.0045608"><ele>504.0</ele><time>2026-04-30T16:22:03.981Z</time></trkpt><trkpt lat="42.9538308" lon="12.0044845"><ele>504.0</ele><time>2026-04-30T16:22:04.981Z</time></trkpt><trkpt lat="42.9539083" lon="12.004454"><ele>504.0</ele><time>2026-04-30T16:22:05.981Z</time></trkpt><trkpt lat="42.9540249" lon="12.0044863"><ele>504.0</ele><time>2026-04-30T16:22:06.981Z</time></trkpt><trkpt lat="42.9541662" lon="12.0045348"><ele>504.0</ele><time>2026-04-30T16:22:07.981Z</time></trkpt><trkpt lat="42.9543149" lon="12.004578"><ele>504.0</ele><time>2026-04-30T16:22:08.981Z</time></trkpt><trkpt lat="42.9544722" lon="12.0046105"><ele>502.33333333333337</ele><time>2026-04-30T16:22:09.982Z</time></trkpt><trkpt lat="42.954634" lon="12.0046325"><ele>500.6666666666667</ele><time>2026-04-30T16:22:10.981Z</time></trkpt><trkpt lat="42.9547951" lon="12.0046503"><ele>499.0</ele><time>2026-04-30T16:22:11.981Z</time></trkpt><trkpt lat="42.9549628" lon="12.0046506"><ele>497.75</ele><time>2026-04-30T16:22:12.982Z</time></trkpt><trkpt lat="42.9551197" lon="12.0046273"><ele>496.5</ele><time>2026-04-30T16:22:13.981Z</time></trkpt><trkpt lat="42.9552603" lon="12.0045956"><ele>495.25</ele><time>2026-04-30T16:22:14.981Z</time></trkpt><trkpt lat="42.9553892" lon="12.0045469"><ele>494.0</ele><time>2026-04-30T16:22:15.981Z</time></trkpt><trkpt lat="42.9555004" lon="12.0044806"><ele>494.0</ele><time>2026-04-30T16:22:16.982Z</time></trkpt><trkpt lat="42.9555944" lon="12.0043843"><ele>494.0</ele><time>2026-04-30T16:22:17.982Z</time></trkpt><trkpt lat="42.9556667" lon="12.0042597"><ele>494.0</ele><time>2026-04-30T16:22:18.981Z</time></trkpt><trkpt lat="42.9557124" lon="12.0041249"><ele>494.0</ele><time>2026-04-30T16:22:19.981Z</time></trkpt><trkpt lat="42.9557537" lon="12.0039839"><ele>494.75</ele><time>2026-04-30T16:22:20.981Z</time></trkpt><trkpt lat="42.955784" lon="12.0038232"><ele>495.5</ele><time>2026-04-30T16:22:21.981Z</time></trkpt><trkpt lat="42.9558205" lon="12.0036654"><ele>496.25</ele><time>2026-04-30T16:22:22.981Z</time></trkpt><trkpt lat="42.9558679" lon="12.0035133"><ele>497.0</ele><time>2026-04-30T16:22:23.982Z</time></trkpt><trkpt lat="42.9559281" lon="12.0033651"><ele>495.25</ele><time>2026-04-30T16:22:24.982Z</time></trkpt><trkpt lat="42.9560051" lon="12.0032227"><ele>493.5</ele><time>2026-04-30T16:22:25.981Z</time></trkpt><trkpt lat="42.9561021" lon="12.0030904"><ele>491.75</ele><time>2026-04-30T16:22:26.981Z</time></trkpt><trkpt lat="42.9562132" lon="12.0029612"><ele>490.0</ele><time>2026-04-30T16:22:27.981Z</time></trkpt><trkpt lat="42.9563218" lon="12.0028351"><ele>490.0</ele><time>2026-04-30T16:22:28.981Z</time></trkpt><trkpt lat="42.9564242" lon="12.0027049"><ele>490.0</ele><time>2026-04-30T16:22:29.981Z</time></trkpt><trkpt lat="42.9565129" lon="12.0025786"><ele>490.0</ele><time>2026-04-30T16:22:30.982Z</time></trkpt><trkpt lat="42.9565874" lon="12.0024608"><ele>490.0</ele><time>2026-04-30T16:22:31.981Z</time></trkpt><trkpt lat="42.9566461" lon="12.0023548"><ele>488.2</ele><time>2026-04-30T16:22:32.981Z</time></trkpt><trkpt lat="42.9567032" lon="12.002259"><ele>486.4</ele><time>2026-04-30T16:22:33.981Z</time></trkpt><trkpt lat="42.9567635" lon="12.002173"><ele>484.6</ele><time>2026-04-30T16:22:34.981Z</time></trkpt><trkpt lat="42.9568332" lon="12.0020914"><ele>482.8</ele><time>2026-04-30T16:22:35.982Z</time></trkpt><trkpt lat="42.956918" lon="12.0020041"><ele>481.0</ele><time>2026-04-30T16:22:36.981Z</time></trkpt><trkpt lat="42.9570122" lon="12.0019152"><ele>481.0</ele><time>2026-04-30T16:22:37.981Z</time></trkpt><trkpt lat="42.9571095" lon="12.0018151"><ele>481.0</ele><time>2026-04-30T16:22:38.981Z</time></trkpt><trkpt lat="42.9572173" lon="12.001705"><ele>481.0</ele><time>2026-04-30T16:22:39.981Z</time></trkpt><trkpt lat="42.9573247" lon="12.0016004"><ele>481.0</ele><time>2026-04-30T16:22:40.982Z</time></trkpt><trkpt lat="42.957438" lon="12.0015037"><ele>481.5</ele><time>2026-04-30T16:22:41.981Z</time></trkpt><trkpt lat="42.957555" lon="12.0014173"><ele>482.0</ele><time>2026-04-30T16:22:42.981Z</time></trkpt><trkpt lat="42.957673" lon="12.0013404"><ele>482.5</ele><time>2026-04-30T16:22:43.981Z</time></trkpt><trkpt lat="42.957795" lon="12.0012791"><ele>483.0</ele><time>2026-04-30T16:22:44.982Z</time></trkpt><trkpt lat="42.9579268" lon="12.001232"><ele>483.0</ele><time>2026-04-30T16:22:45.983Z</time></trkpt><trkpt lat="42.9580663" lon="12.0011881"><ele>483.0</ele><time>2026-04-30T16:22:46.983Z</time></trkpt><trkpt lat="42.9582069" lon="12.0011581"><ele>483.0</ele><time>2026-04-30T16:22:47.983Z</time></trkpt><trkpt lat="42.9583416" lon="12.00114"><ele>483.0</ele><time>2026-04-30T16:22:48.983Z</time></trkpt><trkpt lat="42.9584794" lon="12.0011124"><ele>482.75</ele><time>2026-04-30T16:22:49.983Z</time></trkpt><trkpt lat="42.9586257" lon="12.0010682"><ele>482.5</ele><time>2026-04-30T16:22:50.983Z</time></trkpt><trkpt lat="42.9587675" lon="12.0010232"><ele>482.25</ele><time>2026-04-30T16:22:51.983Z</time></trkpt><trkpt lat="42.9588971" lon="12.0009586"><ele>482.0</ele><time>2026-04-30T16:22:52.982Z</time></trkpt><trkpt lat="42.9590152" lon="12.0008869"><ele>484.0</ele><time>2026-04-30T16:22:53.982Z</time></trkpt><trkpt lat="42.9591289" lon="12.0008003"><ele>486.0</ele><time>2026-04-30T16:22:54.983Z</time></trkpt><trkpt lat="42.9592331" lon="12.0007026"><ele>488.0</ele><time>2026-04-30T16:22:55.982Z</time></trkpt><trkpt lat="42.9593343" lon="12.0005927"><ele>490.0</ele><time>2026-04-30T16:22:56.983Z</time></trkpt><trkpt lat="42.9594295" lon="12.0004766"><ele>490.0</ele><time>2026-04-30T16:22:57.983Z</time></trkpt><trkpt lat="42.9595232" lon="12.000361"><ele>490.0</ele><time>2026-04-30T16:22:58.982Z</time></trkpt><trkpt lat="42.9596093" lon="12.0002412"><ele>490.0</ele><time>2026-04-30T16:22:59.982Z</time></trkpt><trkpt lat="42.959691" lon="12.0001251"><ele>490.0</ele><time>2026-04-30T16:23:00.982Z</time></trkpt><trkpt lat="42.9597677" lon="12.0000198"><ele>490.0</ele><time>2026-04-30T16:23:01.982Z</time></trkpt><trkpt lat="42.9598394" lon="11.9999176"><ele>490.0</ele><time>2026-04-30T16:23:02.982Z</time></trkpt><trkpt lat="42.9599125" lon="11.9998139"><ele>490.0</ele><time>2026-04-30T16:23:03.982Z</time></trkpt><trkpt lat="42.9599905" lon="11.9997052"><ele>490.0</ele><time>2026-04-30T16:23:04.982Z</time></trkpt><trkpt lat="42.96007" lon="11.999597"><ele>490.0</ele><time>2026-04-30T16:23:05.983Z</time></trkpt><trkpt lat="42.9601478" lon="11.9994839"><ele>489.8</ele><time>2026-04-30T16:23:06.982Z</time></trkpt><trkpt lat="42.960225" lon="11.9993724"><ele>489.6</ele><time>2026-04-30T16:23:07.982Z</time></trkpt><trkpt lat="42.9602945" lon="11.9992611"><ele>489.4</ele><time>2026-04-30T16:23:08.982Z</time></trkpt><trkpt lat="42.9603629" lon="11.9991528"><ele>489.2</ele><time>2026-04-30T16:23:09.982Z</time></trkpt><trkpt lat="42.9604309" lon="11.9990524"><ele>489.0</ele><time>2026-04-30T16:23:10.982Z</time></trkpt><trkpt lat="42.9604965" lon="11.9989477"><ele>488.0</ele><time>2026-04-30T16:23:11.982Z</time></trkpt><trkpt lat="42.9605624" lon="11.9988403"><ele>487.0</ele><time>2026-04-30T16:23:12.983Z</time></trkpt><trkpt lat="42.9606247" lon="11.9987267"><ele>486.0</ele><time>2026-04-30T16:23:13.982Z</time></trkpt><trkpt lat="42.9606808" lon="11.9986133"><ele>485.0</ele><time>2026-04-30T16:23:14.982Z</time></trkpt><trkpt lat="42.9607377" lon="11.9984989"><ele>484.0</ele><time>2026-04-30T16:23:15.982Z</time></trkpt><trkpt lat="42.9607923" lon="11.9983767"><ele>484.25</ele><time>2026-04-30T16:23:16.982Z</time></trkpt><trkpt lat="42.9608552" lon="11.9982382"><ele>484.5</ele><time>2026-04-30T16:23:17.982Z</time></trkpt><trkpt lat="42.9609281" lon="11.9980953"><ele>484.75</ele><time>2026-04-30T16:23:18.982Z</time></trkpt><trkpt lat="42.9610049" lon="11.9979481"><ele>485.0</ele><time>2026-04-30T16:23:19.982Z</time></trkpt><trkpt lat="42.9610851" lon="11.997807"><ele>484.0</ele><time>2026-04-30T16:23:20.983Z</time></trkpt><trkpt lat="42.9611617" lon="11.9976733"><ele>483.0</ele><time>2026-04-30T16:23:21.982Z</time></trkpt><trkpt lat="42.9612333" lon="11.997555"><ele>482.0</ele><time>2026-04-30T16:23:22.982Z</time></trkpt><trkpt lat="42.96131" lon="11.9974333"><ele>481.0</ele><time>2026-04-30T16:23:23.982Z</time></trkpt><trkpt lat="42.9613867" lon="11.99731"><ele>481.0</ele><time>2026-04-30T16:23:24.983Z</time></trkpt><trkpt lat="42.961465" lon="11.99719"><ele>481.0</ele><time>2026-04-30T16:23:25.982Z</time></trkpt><trkpt lat="42.96154" lon="11.997065"><ele>481.0</ele><time>2026-04-30T16:23:26.982Z</time></trkpt><trkpt lat="42.96162" lon="11.9969433"><ele>481.0</ele><time>2026-04-30T16:23:27.982Z</time></trkpt><trkpt lat="42.9617" lon="11.996825"><ele>480.75</ele><time>2026-04-30T16:23:28.982Z</time></trkpt><trkpt lat="42.9617867" lon="11.99671"><ele>480.5</ele><time>2026-04-30T16:23:29.982Z</time></trkpt><trkpt lat="42.9618667" lon="11.9965817"><ele>480.25</ele><time>2026-04-30T16:23:30.983Z</time></trkpt><trkpt lat="42.9619467" lon="11.9964433"><ele>480.0</ele><time>2026-04-30T16:23:31.982Z</time></trkpt><trkpt lat="42.962035" lon="11.9963183"><ele>481.0</ele><time>2026-04-30T16:23:32.982Z</time></trkpt><trkpt lat="42.962125" lon="11.9961917"><ele>482.0</ele><time>2026-04-30T16:23:33.983Z</time></trkpt><trkpt lat="42.96222" lon="11.996075"><ele>483.0</ele><time>2026-04-30T16:23:34.982Z</time></trkpt><trkpt lat="42.962325" lon="11.9959967"><ele>484.0</ele><time>2026-04-30T16:23:35.983Z</time></trkpt><trkpt lat="42.9624583" lon="11.9959583"><ele>484.33333333333337</ele><time>2026-04-30T16:23:36.983Z</time></trkpt><trkpt lat="42.9626083" lon="11.9959633"><ele>484.66666666666663</ele><time>2026-04-30T16:23:37.982Z</time></trkpt><trkpt lat="42.96279" lon="11.9959683"><ele>485.0</ele><time>2026-04-30T16:23:38.982Z</time></trkpt><trkpt lat="42.9629783" lon="11.9959683"><ele>485.0</ele><time>2026-04-30T16:23:39.982Z</time></trkpt><trkpt lat="42.9631667" lon="11.995945"><ele>485.0</ele><time>2026-04-30T16:23:40.982Z</time></trkpt><trkpt lat="42.9633483" lon="11.9958817"><ele>485.0</ele><time>2026-04-30T16:23:41.982Z</time></trkpt><trkpt lat="42.963515" lon="11.9958333"><ele>481.0</ele><time>2026-04-30T16:23:42.982Z</time></trkpt><trkpt lat="42.963675" lon="11.995825"><ele>477.0</ele><time>2026-04-30T16:23:43.982Z</time></trkpt><trkpt lat="42.96382" lon="11.9959117"><ele>473.0</ele><time>2026-04-30T16:23:44.982Z</time></trkpt><trkpt lat="42.9639433" lon="11.99606"><ele>473.0</ele><time>2026-04-30T16:23:45.982Z</time></trkpt><trkpt lat="42.96406" lon="11.99625"><ele>473.0</ele><time>2026-04-30T16:23:46.983Z</time></trkpt><trkpt lat="42.9641733" lon="11.9964367"><ele>473.0</ele><time>2026-04-30T16:23:47.982Z</time></trkpt><trkpt lat="42.964295" lon="11.9966467"><ele>473.66666666666663</ele><time>2026-04-30T16:23:48.983Z</time></trkpt><trkpt lat="42.9644117" lon="11.9968333"><ele>474.33333333333337</ele><time>2026-04-30T16:23:49.983Z</time></trkpt><trkpt lat="42.9645167" lon="11.9969933"><ele>475.0</ele><time>2026-04-30T16:23:50.982Z</time></trkpt><trkpt lat="42.9646417" lon="11.9970817"><ele>475.0</ele><time>2026-04-30T16:23:51.982Z</time></trkpt><trkpt lat="42.96477" lon="11.9971083"><ele>475.0</ele><time>2026-04-30T16:23:52.982Z</time></trkpt><trkpt lat="42.9648933" lon="11.9970533"><ele>475.0</ele><time>2026-04-30T16:23:53.983Z</time></trkpt><trkpt lat="42.9649883" lon="11.9969333"><ele>475.0</ele><time>2026-04-30T16:23:54.982Z</time></trkpt><trkpt lat="42.9650583" lon="11.9967533"><ele>475.0</ele><time>2026-04-30T16:23:55.982Z</time></trkpt><trkpt lat="42.9651283" lon="11.996545"><ele>475.0</ele><time>2026-04-30T16:23:56.982Z</time></trkpt><trkpt lat="42.9652033" lon="11.99633"><ele>475.0</ele><time>2026-04-30T16:23:57.983Z</time></trkpt><trkpt lat="42.96528" lon="11.996105"><ele>475.0</ele><time>2026-04-30T16:23:58.983Z</time></trkpt><trkpt lat="42.9653633" lon="11.9958783"><ele>475.0</ele><time>2026-04-30T16:23:59.983Z</time></trkpt><trkpt lat="42.965445" lon="11.9956683"><ele>475.0</ele><time>2026-04-30T16:24:00.983Z</time></trkpt><trkpt lat="42.965505" lon="11.9954917"><ele>473.50000000000006</ele><time>2026-04-30T16:24:01.982Z</time></trkpt><trkpt lat="42.96555" lon="11.99536"><ele>472.0</ele><time>2026-04-30T16:24:02.982Z</time></trkpt><trkpt lat="42.9655833" lon="11.995285"><ele>470.5</ele><time>2026-04-30T16:24:03.983Z</time></trkpt><trkpt lat="42.9656583" lon="11.9952433"><ele>469.0</ele><time>2026-04-30T16:24:07.983Z</time></trkpt><trkpt lat="42.9657467" lon="11.9951983"><ele>467.50000000000006</ele><time>2026-04-30T16:24:10.982Z</time></trkpt><trkpt lat="42.9658083" lon="11.995225"><ele>466.0</ele><time>2026-04-30T16:24:12.983Z</time></trkpt><trkpt lat="42.9658783" lon="11.9953067"><ele>466.0</ele><time>2026-04-30T16:24:14.983Z</time></trkpt><trkpt lat="42.9659283" lon="11.9954183"><ele>466.0</ele><time>2026-04-30T16:24:16.982Z</time></trkpt><trkpt lat="42.9659817" lon="11.9955467"><ele>466.0</ele><time>2026-04-30T16:24:18.983Z</time></trkpt><trkpt lat="42.9660283" lon="11.9956233"><ele>466.0</ele><time>2026-04-30T16:24:20.983Z</time></trkpt><trkpt lat="42.9661183" lon="11.9955533"><ele>466.0</ele><time>2026-04-30T16:24:23.982Z</time></trkpt></trkseg></trk></gpx>